<?xml version='1.0' encoding='UTF-8'?><gpx version="1.1" creator="JPX - https://github.com/jenetics/jpx" xmlns="http://www.topografix.com/GPX/1/1"><trk><trkseg><trkpt lat="45.522344" lon="8.7838858"><ele>165.0</ele><time>2026-03-22T09:38:51.328Z</time></trkpt><trkpt lat="45.522318" lon="8.7837207"><ele>165.0</ele><time>2026-03-22T09:38:57.301Z</time></trkpt><trkpt lat="45.5222924" lon="8.7836345"><ele>165.0</ele><time>2026-03-22T09:38:59.301Z</time></trkpt><trkpt lat="45.5223089" lon="8.7835388"><ele>165.0</ele><time>2026-03-22T09:39:04.182Z</time></trkpt><trkpt lat="45.5223849" lon="8.7834841"><ele>165.0</ele><time>2026-03-22T09:39:05.275Z</time></trkpt><trkpt lat="45.5224622" lon="8.783426"><ele>165.0</ele><time>2026-03-22T09:39:06.275Z</time></trkpt><trkpt lat="45.5225403" lon="8.7833713"><ele>165.0</ele><time>2026-03-22T09:39:07.275Z</time></trkpt><trkpt lat="45.5226177" lon="8.7833144"><ele>165.0</ele><time>2026-03-22T09:39:08.275Z</time></trkpt><trkpt lat="45.5227023" lon="8.7832748"><ele>165.0</ele><time>2026-03-22T09:39:09.275Z</time></trkpt><trkpt lat="45.5227927" lon="8.7832301"><ele>165.0</ele><time>2026-03-22T09:39:10.275Z</time></trkpt><trkpt lat="45.5228958" lon="8.7831802"><ele>165.0</ele><time>2026-03-22T09:39:11.275Z</time></trkpt><trkpt lat="45.5230021" lon="8.7831346"><ele>165.0</ele><time>2026-03-22T09:39:12.275Z</time></trkpt><trkpt lat="45.5231078" lon="8.783085"><ele>165.0</ele><time>2026-03-22T09:39:13.275Z</time></trkpt><trkpt lat="45.5232093" lon="8.7830332"><ele>165.0</ele><time>2026-03-22T09:39:14.275Z</time></trkpt><trkpt lat="45.5233143" lon="8.7829786"><ele>165.0</ele><time>2026-03-22T09:39:15.275Z</time></trkpt><trkpt lat="45.5234302" lon="8.7829298"><ele>165.0</ele><time>2026-03-22T09:39:16.275Z</time></trkpt><trkpt lat="45.5235597" lon="8.7828796"><ele>165.0</ele><time>2026-03-22T09:39:17.275Z</time></trkpt><trkpt lat="45.5236724" lon="8.7828134"><ele>165.0</ele><time>2026-03-22T09:39:18.275Z</time></trkpt><trkpt lat="45.5237872" lon="8.7827505"><ele>165.0</ele><time>2026-03-22T09:39:19.275Z</time></trkpt><trkpt lat="45.5238956" lon="8.7826862"><ele>165.2</ele><time>2026-03-22T09:39:20.275Z</time></trkpt><trkpt lat="45.5239964" lon="8.7826235"><ele>165.4</ele><time>2026-03-22T09:39:21.275Z</time></trkpt><trkpt lat="45.5240858" lon="8.7825677"><ele>165.60000000000002</ele><time>2026-03-22T09:39:22.275Z</time></trkpt><trkpt lat="45.5241813" lon="8.7825096"><ele>165.8</ele><time>2026-03-22T09:39:23.275Z</time></trkpt><trkpt lat="45.5242757" lon="8.7824519"><ele>166.0</ele><time>2026-03-22T09:39:24.275Z</time></trkpt><trkpt lat="45.5243688" lon="8.7824022"><ele>166.0</ele><time>2026-03-22T09:39:25.275Z</time></trkpt><trkpt lat="45.5244654" lon="8.7823507"><ele>166.0</ele><time>2026-03-22T09:39:26.275Z</time></trkpt><trkpt lat="45.5245617" lon="8.7822968"><ele>166.0</ele><time>2026-03-22T09:39:27.275Z</time></trkpt><trkpt lat="45.5246464" lon="8.7822523"><ele>166.0</ele><time>2026-03-22T09:39:28.275Z</time></trkpt><trkpt lat="45.5247249" lon="8.7822125"><ele>166.0</ele><time>2026-03-22T09:39:29.275Z</time></trkpt><trkpt lat="45.5247992" lon="8.782167"><ele>166.16666666666669</ele><time>2026-03-22T09:39:30.275Z</time></trkpt><trkpt lat="45.5248625" lon="8.7821278"><ele>166.33333333333334</ele><time>2026-03-22T09:39:31.275Z</time></trkpt><trkpt lat="45.5249197" lon="8.7819996"><ele>166.5</ele><time>2026-03-22T09:39:33.275Z</time></trkpt><trkpt lat="45.5249014" lon="8.7818963"><ele>166.66666666666666</ele><time>2026-03-22T09:39:34.275Z</time></trkpt><trkpt lat="45.5248606" lon="8.7817876"><ele>166.83333333333331</ele><time>2026-03-22T09:39:35.275Z</time></trkpt><trkpt lat="45.5248038" lon="8.7816668"><ele>167.0</ele><time>2026-03-22T09:39:36.275Z</time></trkpt><trkpt lat="45.5247386" lon="8.7815364"><ele>167.0</ele><time>2026-03-22T09:39:37.275Z</time></trkpt><trkpt lat="45.5246742" lon="8.7814044"><ele>167.0</ele><time>2026-03-22T09:39:38.275Z</time></trkpt><trkpt lat="45.5246056" lon="8.7812718"><ele>167.0</ele><time>2026-03-22T09:39:39.275Z</time></trkpt><trkpt lat="45.5245495" lon="8.7811261"><ele>167.0</ele><time>2026-03-22T09:39:40.275Z</time></trkpt><trkpt lat="45.5244915" lon="8.780979"><ele>167.25</ele><time>2026-03-22T09:39:41.275Z</time></trkpt><trkpt lat="45.5244231" lon="8.7808295"><ele>167.5</ele><time>2026-03-22T09:39:42.275Z</time></trkpt><trkpt lat="45.5243613" lon="8.7806721"><ele>167.75</ele><time>2026-03-22T09:39:43.275Z</time></trkpt><trkpt lat="45.5242883" lon="8.7805163"><ele>168.0</ele><time>2026-03-22T09:39:44.275Z</time></trkpt><trkpt lat="45.5242193" lon="8.7803505"><ele>167.66666666666666</ele><time>2026-03-22T09:39:45.275Z</time></trkpt><trkpt lat="45.5240828" lon="8.780013"><ele>167.33333333333331</ele><time>2026-03-22T09:39:47.275Z</time></trkpt><trkpt lat="45.5240126" lon="8.7798464"><ele>167.0</ele><time>2026-03-22T09:39:48.275Z</time></trkpt><trkpt lat="45.5239455" lon="8.7796823"><ele>167.0</ele><time>2026-03-22T09:39:49.275Z</time></trkpt><trkpt lat="45.523881" lon="8.779531"><ele>167.0</ele><time>2026-03-22T09:39:50.275Z</time></trkpt><trkpt lat="45.5238255" lon="8.7793782"><ele>167.0</ele><time>2026-03-22T09:39:51.275Z</time></trkpt><trkpt lat="45.5237628" lon="8.77925"><ele>167.0</ele><time>2026-03-22T09:39:52.275Z</time></trkpt><trkpt lat="45.5237049" lon="8.7791237"><ele>167.2</ele><time>2026-03-22T09:39:53.275Z</time></trkpt><trkpt lat="45.5236519" lon="8.7790081"><ele>167.39999999999998</ele><time>2026-03-22T09:39:54.275Z</time></trkpt><trkpt lat="45.5235935" lon="8.7789121"><ele>167.60000000000002</ele><time>2026-03-22T09:39:55.275Z</time></trkpt><trkpt lat="45.5235267" lon="8.7788467"><ele>167.8</ele><time>2026-03-22T09:39:56.275Z</time></trkpt><trkpt lat="45.5234333" lon="8.77879"><ele>168.0</ele><time>2026-03-22T09:39:57.275Z</time></trkpt><trkpt lat="45.5233267" lon="8.77876"><ele>168.0</ele><time>2026-03-22T09:39:58.275Z</time></trkpt><trkpt lat="45.5232133" lon="8.778745"><ele>168.0</ele><time>2026-03-22T09:39:59.275Z</time></trkpt><trkpt lat="45.5231" lon="8.778735"><ele>168.0</ele><time>2026-03-22T09:40:00.275Z</time></trkpt><trkpt lat="45.5229833" lon="8.77873"><ele>168.0</ele><time>2026-03-22T09:40:01.275Z</time></trkpt><trkpt lat="45.522865" lon="8.77872"><ele>168.0</ele><time>2026-03-22T09:40:02.275Z</time></trkpt><trkpt lat="45.522765" lon="8.7787167"><ele>168.0</ele><time>2026-03-22T09:40:03.275Z</time></trkpt><trkpt lat="45.5226683" lon="8.7787383"><ele>168.0</ele><time>2026-03-22T09:40:04.275Z</time></trkpt><trkpt lat="45.522585" lon="8.7787767"><ele>168.0</ele><time>2026-03-22T09:40:05.275Z</time></trkpt><trkpt lat="45.5225067" lon="8.778825"><ele>168.0</ele><time>2026-03-22T09:40:06.275Z</time></trkpt><trkpt lat="45.5224417" lon="8.7788883"><ele>168.0</ele><time>2026-03-22T09:40:07.275Z</time></trkpt><trkpt lat="45.5223867" lon="8.778935"><ele>168.0</ele><time>2026-03-22T09:40:08.275Z</time></trkpt><trkpt lat="45.5222933" lon="8.77898"><ele>168.0</ele><time>2026-03-22T09:40:10.275Z</time></trkpt><trkpt lat="45.52222" lon="8.778955"><ele>168.0</ele><time>2026-03-22T09:40:12.275Z</time></trkpt><trkpt lat="45.5221667" lon="8.7788567"><ele>168.0</ele><time>2026-03-22T09:40:13.275Z</time></trkpt><trkpt lat="45.5221133" lon="8.7787417"><ele>168.0</ele><time>2026-03-22T09:40:14.275Z</time></trkpt><trkpt lat="45.5220567" lon="8.7786217"><ele>167.66666666666666</ele><time>2026-03-22T09:40:15.275Z</time></trkpt><trkpt lat="45.52199" lon="8.77849"><ele>167.33333333333334</ele><time>2026-03-22T09:40:16.275Z</time></trkpt><trkpt lat="45.5219317" lon="8.7783883"><ele>167.0</ele><time>2026-03-22T09:40:17.275Z</time></trkpt><trkpt lat="45.5218817" lon="8.7782883"><ele>166.66666666666669</ele><time>2026-03-22T09:40:18.275Z</time></trkpt><trkpt lat="45.521825" lon="8.7782267"><ele>166.33333333333334</ele><time>2026-03-22T09:40:19.275Z</time></trkpt><trkpt lat="45.52178" lon="8.778145"><ele>166.0</ele><time>2026-03-22T09:40:20.275Z</time></trkpt><trkpt lat="45.5217383" lon="8.7780467"><ele>166.0</ele><time>2026-03-22T09:40:21.275Z</time></trkpt><trkpt lat="45.52169" lon="8.777955"><ele>166.0</ele><time>2026-03-22T09:40:22.275Z</time></trkpt><trkpt lat="45.5216483" lon="8.7778583"><ele>166.0</ele><time>2026-03-22T09:40:23.275Z</time></trkpt><trkpt lat="45.5216083" lon="8.7777733"><ele>166.0</ele><time>2026-03-22T09:40:24.275Z</time></trkpt><trkpt lat="45.52157" lon="8.7776817"><ele>166.0</ele><time>2026-03-22T09:40:25.275Z</time></trkpt><trkpt lat="45.52153" lon="8.7775833"><ele>166.0</ele><time>2026-03-22T09:40:26.275Z</time></trkpt><trkpt lat="45.5214867" lon="8.7774717"><ele>165.5</ele><time>2026-03-22T09:40:27.275Z</time></trkpt><trkpt lat="45.5214367" lon="8.77735"><ele>165.0</ele><time>2026-03-22T09:40:28.275Z</time></trkpt><trkpt lat="45.5213817" lon="8.77721"><ele>164.5</ele><time>2026-03-22T09:40:29.275Z</time></trkpt><trkpt lat="45.521315" lon="8.7770533"><ele>164.0</ele><time>2026-03-22T09:40:30.275Z</time></trkpt><trkpt lat="45.5212433" lon="8.7768867"><ele>164.0</ele><time>2026-03-22T09:40:31.275Z</time></trkpt><trkpt lat="45.521175" lon="8.77672"><ele>164.0</ele><time>2026-03-22T09:40:32.275Z</time></trkpt><trkpt lat="45.52111" lon="8.7765683"><ele>164.0</ele><time>2026-03-22T09:40:33.275Z</time></trkpt><trkpt lat="45.5210467" lon="8.7764417"><ele>164.0</ele><time>2026-03-22T09:40:34.275Z</time></trkpt><trkpt lat="45.5209883" lon="8.776325"><ele>164.0</ele><time>2026-03-22T09:40:35.275Z</time></trkpt><trkpt lat="45.5209333" lon="8.776205"><ele>164.0</ele><time>2026-03-22T09:40:36.275Z</time></trkpt><trkpt lat="45.5208717" lon="8.7760883"><ele>164.0</ele><time>2026-03-22T09:40:37.275Z</time></trkpt><trkpt lat="45.5208083" lon="8.77596"><ele>164.0</ele><time>2026-03-22T09:40:38.275Z</time></trkpt><trkpt lat="45.520745" lon="8.775815"><ele>164.0</ele><time>2026-03-22T09:40:39.275Z</time></trkpt><trkpt lat="45.5206617" lon="8.7756517"><ele>164.0</ele><time>2026-03-22T09:40:40.275Z</time></trkpt><trkpt lat="45.5205817" lon="8.7754833"><ele>164.0</ele><time>2026-03-22T09:40:41.275Z</time></trkpt><trkpt lat="45.5205017" lon="8.7753133"><ele>164.0</ele><time>2026-03-22T09:40:42.275Z</time></trkpt><trkpt lat="45.5204083" lon="8.77515"><ele>164.0</ele><time>2026-03-22T09:40:43.275Z</time></trkpt><trkpt lat="45.5203083" lon="8.774985"><ele>164.0</ele><time>2026-03-22T09:40:44.275Z</time></trkpt><trkpt lat="45.5201933" lon="8.774825"><ele>164.0</ele><time>2026-03-22T09:40:45.275Z</time></trkpt><trkpt lat="45.520075" lon="8.7746517"><ele>164.0</ele><time>2026-03-22T09:40:46.275Z</time></trkpt><trkpt lat="45.5199683" lon="8.7744833"><ele>164.25</ele><time>2026-03-22T09:40:47.275Z</time></trkpt><trkpt lat="45.519875" lon="8.7743367"><ele>164.5</ele><time>2026-03-22T09:40:48.275Z</time></trkpt><trkpt lat="45.5197983" lon="8.7742167"><ele>164.75</ele><time>2026-03-22T09:40:49.275Z</time></trkpt><trkpt lat="45.5197417" lon="8.7740767"><ele>165.0</ele><time>2026-03-22T09:40:50.275Z</time></trkpt><trkpt lat="45.5197017" lon="8.7739267"><ele>165.0</ele><time>2026-03-22T09:40:51.275Z</time></trkpt><trkpt lat="45.5196967" lon="8.773735"><ele>165.0</ele><time>2026-03-22T09:40:52.275Z</time></trkpt><trkpt lat="45.51971" lon="8.7735467"><ele>165.0</ele><time>2026-03-22T09:40:53.275Z</time></trkpt><trkpt lat="45.519745" lon="8.7733533"><ele>165.0</ele><time>2026-03-22T09:40:54.275Z</time></trkpt><trkpt lat="45.51977" lon="8.7731633"><ele>164.5</ele><time>2026-03-22T09:40:55.275Z</time></trkpt><trkpt lat="45.519785" lon="8.7729683"><ele>164.0</ele><time>2026-03-22T09:40:56.275Z</time></trkpt><trkpt lat="45.5197917" lon="8.7727667"><ele>163.5</ele><time>2026-03-22T09:40:57.275Z</time></trkpt><trkpt lat="45.51979" lon="8.7725467"><ele>163.0</ele><time>2026-03-22T09:40:58.275Z</time></trkpt><trkpt lat="45.519785" lon="8.7723333"><ele>162.25</ele><time>2026-03-22T09:40:59.275Z</time></trkpt><trkpt lat="45.51978" lon="8.7721183"><ele>161.5</ele><time>2026-03-22T09:41:00.275Z</time></trkpt><trkpt lat="45.519775" lon="8.771915"><ele>160.75</ele><time>2026-03-22T09:41:01.275Z</time></trkpt><trkpt lat="45.5197617" lon="8.77171"><ele>160.0</ele><time>2026-03-22T09:41:02.275Z</time></trkpt><trkpt lat="45.5197517" lon="8.77152"><ele>158.75</ele><time>2026-03-22T09:41:03.275Z</time></trkpt><trkpt lat="45.51974" lon="8.7713383"><ele>157.5</ele><time>2026-03-22T09:41:04.275Z</time></trkpt><trkpt lat="45.5197283" lon="8.771165"><ele>156.25</ele><time>2026-03-22T09:41:05.275Z</time></trkpt><trkpt lat="45.519715" lon="8.7709867"><ele>155.0</ele><time>2026-03-22T09:41:06.275Z</time></trkpt><trkpt lat="45.5196983" lon="8.7707917"><ele>153.75</ele><time>2026-03-22T09:41:07.275Z</time></trkpt><trkpt lat="45.5196833" lon="8.7705967"><ele>152.5</ele><time>2026-03-22T09:41:08.275Z</time></trkpt><trkpt lat="45.5196817" lon="8.7703983"><ele>151.25</ele><time>2026-03-22T09:41:09.275Z</time></trkpt><trkpt lat="45.519685" lon="8.7702"><ele>150.0</ele><time>2026-03-22T09:41:10.275Z</time></trkpt><trkpt lat="45.5196817" lon="8.77002"><ele>148.75</ele><time>2026-03-22T09:41:11.275Z</time></trkpt><trkpt lat="45.5196767" lon="8.7698433"><ele>147.5</ele><time>2026-03-22T09:41:12.275Z</time></trkpt><trkpt lat="45.5196717" lon="8.7696617"><ele>146.25</ele><time>2026-03-22T09:41:13.275Z</time></trkpt><trkpt lat="45.5196783" lon="8.769515"><ele>145.0</ele><time>2026-03-22T09:41:14.275Z</time></trkpt><trkpt lat="45.5196867" lon="8.7693767"><ele>145.0</ele><time>2026-03-22T09:41:15.275Z</time></trkpt><trkpt lat="45.5196967" lon="8.769235"><ele>145.0</ele><time>2026-03-22T09:41:16.275Z</time></trkpt><trkpt lat="45.5197" lon="8.769105"><ele>145.0</ele><time>2026-03-22T09:41:17.275Z</time></trkpt><trkpt lat="45.5197017" lon="8.769"><ele>145.0</ele><time>2026-03-22T09:41:18.275Z</time></trkpt><trkpt lat="45.5197033" lon="8.7689067"><ele>145.0</ele><time>2026-03-22T09:41:19.275Z</time></trkpt><trkpt lat="45.5196933" lon="8.76877"><ele>145.0</ele><time>2026-03-22T09:41:21.275Z</time></trkpt><trkpt lat="45.5196483" lon="8.7687033"><ele>145.0</ele><time>2026-03-22T09:41:23.275Z</time></trkpt><trkpt lat="45.519585" lon="8.7686783"><ele>145.0</ele><time>2026-03-22T09:41:25.275Z</time></trkpt><trkpt lat="45.5195" lon="8.7686517"><ele>145.0</ele><time>2026-03-22T09:41:44.275Z</time></trkpt><trkpt lat="45.5194333" lon="8.7686533"><ele>145.0</ele><time>2026-03-22T09:41:45.275Z</time></trkpt><trkpt lat="45.5193167" lon="8.76865"><ele>145.0</ele><time>2026-03-22T09:41:46.275Z</time></trkpt><trkpt lat="45.5192117" lon="8.7686467"><ele>145.0</ele><time>2026-03-22T09:41:47.275Z</time></trkpt><trkpt lat="45.5191117" lon="8.7686433"><ele>144.16666666666669</ele><time>2026-03-22T09:41:48.275Z</time></trkpt><trkpt lat="45.5190217" lon="8.7686433"><ele>143.33333333333334</ele><time>2026-03-22T09:41:49.275Z</time></trkpt><trkpt lat="45.5189317" lon="8.7686433"><ele>142.5</ele><time>2026-03-22T09:41:50.275Z</time></trkpt><trkpt lat="45.5188433" lon="8.7686417"><ele>141.66666666666666</ele><time>2026-03-22T09:41:51.275Z</time></trkpt><trkpt lat="45.5187567" lon="8.7686333"><ele>140.83333333333331</ele><time>2026-03-22T09:41:52.275Z</time></trkpt><trkpt lat="45.5186733" lon="8.7686183"><ele>140.0</ele><time>2026-03-22T09:41:53.275Z</time></trkpt><trkpt lat="45.518595" lon="8.768595"><ele>139.8</ele><time>2026-03-22T09:41:54.275Z</time></trkpt><trkpt lat="45.5185083" lon="8.76855"><ele>139.6</ele><time>2026-03-22T09:41:55.275Z</time></trkpt><trkpt lat="45.5184117" lon="8.7684783"><ele>139.4</ele><time>2026-03-22T09:41:56.275Z</time></trkpt><trkpt lat="45.5183017" lon="8.7683967"><ele>139.2</ele><time>2026-03-22T09:41:57.275Z</time></trkpt><trkpt lat="45.5181967" lon="8.7683017"><ele>139.0</ele><time>2026-03-22T09:41:58.275Z</time></trkpt><trkpt lat="45.518105" lon="8.7682033"><ele>139.0</ele><time>2026-03-22T09:41:59.275Z</time></trkpt><trkpt lat="45.518015" lon="8.768125"><ele>139.0</ele><time>2026-03-22T09:42:00.275Z</time></trkpt><trkpt lat="45.5179133" lon="8.768065"><ele>139.0</ele><time>2026-03-22T09:42:01.275Z</time></trkpt><trkpt lat="45.5178067" lon="8.7680317"><ele>139.0</ele><time>2026-03-22T09:42:02.275Z</time></trkpt><trkpt lat="45.5177033" lon="8.7680117"><ele>139.0</ele><time>2026-03-22T09:42:03.275Z</time></trkpt><trkpt lat="45.5176083" lon="8.7679917"><ele>139.0</ele><time>2026-03-22T09:42:04.275Z</time></trkpt><trkpt lat="45.5175067" lon="8.7679517"><ele>139.0</ele><time>2026-03-22T09:42:05.275Z</time></trkpt><trkpt lat="45.5174133" lon="8.7679267"><ele>139.0</ele><time>2026-03-22T09:42:06.275Z</time></trkpt><trkpt lat="45.5173333" lon="8.76791"><ele>139.0</ele><time>2026-03-22T09:42:07.275Z</time></trkpt><trkpt lat="45.5172617" lon="8.76792"><ele>139.0</ele><time>2026-03-22T09:42:08.275Z</time></trkpt><trkpt lat="45.5172017" lon="8.7679667"><ele>139.0</ele><time>2026-03-22T09:42:09.275Z</time></trkpt><trkpt lat="45.5171433" lon="8.7680367"><ele>139.0</ele><time>2026-03-22T09:42:10.275Z</time></trkpt><trkpt lat="45.517085" lon="8.7681333"><ele>139.0</ele><time>2026-03-22T09:42:11.275Z</time></trkpt><trkpt lat="45.5170167" lon="8.768265"><ele>139.0</ele><time>2026-03-22T09:42:12.275Z</time></trkpt><trkpt lat="45.5169267" lon="8.768405"><ele>139.0</ele><time>2026-03-22T09:42:13.275Z</time></trkpt><trkpt lat="45.5168433" lon="8.7685383"><ele>138.6</ele><time>2026-03-22T09:42:14.275Z</time></trkpt><trkpt lat="45.5167817" lon="8.7686683"><ele>138.2</ele><time>2026-03-22T09:42:15.275Z</time></trkpt><trkpt lat="45.5167233" lon="8.768775"><ele>137.79999999999998</ele><time>2026-03-22T09:42:16.275Z</time></trkpt><trkpt lat="45.51667" lon="8.7688417"><ele>137.4</ele><time>2026-03-22T09:42:17.275Z</time></trkpt><trkpt lat="45.516595" lon="8.7689383"><ele>137.0</ele><time>2026-03-22T09:42:19.275Z</time></trkpt><trkpt lat="45.5164883" lon="8.769025"><ele>137.0</ele><time>2026-03-22T09:42:21.275Z</time></trkpt><trkpt lat="45.5164083" lon="8.7690367"><ele>137.0</ele><time>2026-03-22T09:42:22.275Z</time></trkpt><trkpt lat="45.516315" lon="8.7690517"><ele>137.0</ele><time>2026-03-22T09:42:23.275Z</time></trkpt><trkpt lat="45.5162083" lon="8.7690717"><ele>137.0</ele><time>2026-03-22T09:42:24.275Z</time></trkpt><trkpt lat="45.5161" lon="8.7690983"><ele>137.0</ele><time>2026-03-22T09:42:25.275Z</time></trkpt><trkpt lat="45.515985" lon="8.7691283"><ele>137.4</ele><time>2026-03-22T09:42:26.275Z</time></trkpt><trkpt lat="45.5158817" lon="8.7691617"><ele>137.79999999999998</ele><time>2026-03-22T09:42:27.275Z</time></trkpt><trkpt lat="45.5157833" lon="8.7691983"><ele>138.2</ele><time>2026-03-22T09:42:28.275Z</time></trkpt><trkpt lat="45.5157017" lon="8.769225"><ele>138.6</ele><time>2026-03-22T09:42:29.275Z</time></trkpt><trkpt lat="45.5155933" lon="8.7692383"><ele>139.0</ele><time>2026-03-22T09:42:31.275Z</time></trkpt><trkpt lat="45.5155283" lon="8.76919"><ele>139.0</ele><time>2026-03-22T09:42:33.275Z</time></trkpt><trkpt lat="45.5154833" lon="8.76904"><ele>139.0</ele><time>2026-03-22T09:42:35.275Z</time></trkpt><trkpt lat="45.515465" lon="8.7689133"><ele>139.0</ele><time>2026-03-22T09:42:36.275Z</time></trkpt><trkpt lat="45.51541" lon="8.76867"><ele>139.0</ele><time>2026-03-22T09:42:38.275Z</time></trkpt><trkpt lat="45.51536" lon="8.7685433"><ele>140.0</ele><time>2026-03-22T09:42:39.275Z</time></trkpt><trkpt lat="45.515295" lon="8.7684333"><ele>141.0</ele><time>2026-03-22T09:42:40.275Z</time></trkpt><trkpt lat="45.51523" lon="8.7683267"><ele>142.0</ele><time>2026-03-22T09:42:41.275Z</time></trkpt><trkpt lat="45.5151617" lon="8.7682233"><ele>143.0</ele><time>2026-03-22T09:42:42.275Z</time></trkpt><trkpt lat="45.515095" lon="8.7681117"><ele>144.0</ele><time>2026-03-22T09:42:43.275Z</time></trkpt><trkpt lat="45.51501" lon="8.768005"><ele>144.0</ele><time>2026-03-22T09:42:44.275Z</time></trkpt><trkpt lat="45.5149233" lon="8.7679333"><ele>144.0</ele><time>2026-03-22T09:42:45.275Z</time></trkpt><trkpt lat="45.5148183" lon="8.7678733"><ele>144.0</ele><time>2026-03-22T09:42:46.275Z</time></trkpt><trkpt lat="45.5147183" lon="8.7678183"><ele>144.0</ele><time>2026-03-22T09:42:47.275Z</time></trkpt><trkpt lat="45.5146217" lon="8.7677567"><ele>144.0</ele><time>2026-03-22T09:42:48.275Z</time></trkpt><trkpt lat="45.514515" lon="8.7676783"><ele>143.25</ele><time>2026-03-22T09:42:49.275Z</time></trkpt><trkpt lat="45.5144" lon="8.76758"><ele>142.5</ele><time>2026-03-22T09:42:50.275Z</time></trkpt><trkpt lat="45.5142933" lon="8.7674817"><ele>141.75</ele><time>2026-03-22T09:42:51.275Z</time></trkpt><trkpt lat="45.514185" lon="8.7674083"><ele>141.0</ele><time>2026-03-22T09:42:52.275Z</time></trkpt><trkpt lat="45.5140833" lon="8.7673433"><ele>141.0</ele><time>2026-03-22T09:42:53.275Z</time></trkpt><trkpt lat="45.5139817" lon="8.767285"><ele>141.0</ele><time>2026-03-22T09:42:54.275Z</time></trkpt><trkpt lat="45.5138883" lon="8.76722"><ele>141.0</ele><time>2026-03-22T09:42:55.275Z</time></trkpt><trkpt lat="45.5138017" lon="8.7671467"><ele>141.0</ele><time>2026-03-22T09:42:56.275Z</time></trkpt><trkpt lat="45.51371" lon="8.7670717"><ele>141.0</ele><time>2026-03-22T09:42:57.275Z</time></trkpt><trkpt lat="45.5136233" lon="8.7669967"><ele>140.2</ele><time>2026-03-22T09:42:58.275Z</time></trkpt><trkpt lat="45.513535" lon="8.7669083"><ele>139.39999999999998</ele><time>2026-03-22T09:42:59.275Z</time></trkpt><trkpt lat="45.5134467" lon="8.7668283"><ele>138.6</ele><time>2026-03-22T09:43:00.275Z</time></trkpt><trkpt lat="45.513365" lon="8.76673"><ele>137.79999999999998</ele><time>2026-03-22T09:43:01.275Z</time></trkpt><trkpt lat="45.5132833" lon="8.766635"><ele>137.0</ele><time>2026-03-22T09:43:02.275Z</time></trkpt><trkpt lat="45.5132117" lon="8.7665283"><ele>137.0</ele><time>2026-03-22T09:43:03.275Z</time></trkpt><trkpt lat="45.513145" lon="8.7664317"><ele>137.0</ele><time>2026-03-22T09:43:04.275Z</time></trkpt><trkpt lat="45.513085" lon="8.76634"><ele>137.0</ele><time>2026-03-22T09:43:05.275Z</time></trkpt><trkpt lat="45.51303" lon="8.7662583"><ele>137.0</ele><time>2026-03-22T09:43:06.275Z</time></trkpt><trkpt lat="45.5129683" lon="8.766175"><ele>137.0</ele><time>2026-03-22T09:43:07.275Z</time></trkpt><trkpt lat="45.5129133" lon="8.7660917"><ele>137.0</ele><time>2026-03-22T09:43:08.275Z</time></trkpt><trkpt lat="45.51287" lon="8.766005"><ele>137.2</ele><time>2026-03-22T09:43:09.275Z</time></trkpt><trkpt lat="45.5128217" lon="8.76593"><ele>137.39999999999998</ele><time>2026-03-22T09:43:10.275Z</time></trkpt><trkpt lat="45.5127517" lon="8.7658"><ele>137.60000000000002</ele><time>2026-03-22T09:43:12.274Z</time></trkpt><trkpt lat="45.5126767" lon="8.76566"><ele>137.8</ele><time>2026-03-22T09:43:14.274Z</time></trkpt><trkpt lat="45.5126033" lon="8.7655267"><ele>138.0</ele><time>2026-03-22T09:43:16.274Z</time></trkpt><trkpt lat="45.5125533" lon="8.7654583"><ele>138.0</ele><time>2026-03-22T09:43:18.274Z</time></trkpt><trkpt lat="45.5125683" lon="8.765335"><ele>138.0</ele><time>2026-03-22T09:43:21.274Z</time></trkpt><trkpt lat="45.5126433" lon="8.7651883"><ele>138.0</ele><time>2026-03-22T09:43:23.274Z</time></trkpt><trkpt lat="45.5126933" lon="8.7651117"><ele>138.0</ele><time>2026-03-22T09:43:24.274Z</time></trkpt><trkpt lat="45.5127483" lon="8.765055"><ele>138.0</ele><time>2026-03-22T09:43:25.274Z</time></trkpt><trkpt lat="45.5128133" lon="8.7649983"><ele>138.0</ele><time>2026-03-22T09:43:26.274Z</time></trkpt><trkpt lat="45.51288" lon="8.7649417"><ele>138.33333333333334</ele><time>2026-03-22T09:43:27.274Z</time></trkpt><trkpt lat="45.51294" lon="8.7648783"><ele>138.66666666666666</ele><time>2026-03-22T09:43:28.274Z</time></trkpt><trkpt lat="45.5129983" lon="8.7648083"><ele>139.0</ele><time>2026-03-22T09:43:29.274Z</time></trkpt><trkpt lat="45.5130517" lon="8.7647317"><ele>139.33333333333331</ele><time>2026-03-22T09:43:30.274Z</time></trkpt><trkpt lat="45.5131083" lon="8.7646517"><ele>139.66666666666666</ele><time>2026-03-22T09:43:31.274Z</time></trkpt><trkpt lat="45.5131733" lon="8.7645567"><ele>140.0</ele><time>2026-03-22T09:43:32.274Z</time></trkpt><trkpt lat="45.5132433" lon="8.764465"><ele>140.0</ele><time>2026-03-22T09:43:33.274Z</time></trkpt><trkpt lat="45.513315" lon="8.7643717"><ele>140.0</ele><time>2026-03-22T09:43:34.274Z</time></trkpt><trkpt lat="45.513375" lon="8.7642967"><ele>140.0</ele><time>2026-03-22T09:43:35.274Z</time></trkpt><trkpt lat="45.513415" lon="8.7642267"><ele>140.0</ele><time>2026-03-22T09:43:36.274Z</time></trkpt><trkpt lat="45.5134733" lon="8.76407"><ele>140.0</ele><time>2026-03-22T09:43:38.274Z</time></trkpt><trkpt lat="45.51349" lon="8.7639733"><ele>140.0</ele><time>2026-03-22T09:43:39.274Z</time></trkpt><trkpt lat="45.5135167" lon="8.7638733"><ele>139.83333333333331</ele><time>2026-03-22T09:43:40.274Z</time></trkpt><trkpt lat="45.51355" lon="8.7637733"><ele>139.66666666666666</ele><time>2026-03-22T09:43:41.274Z</time></trkpt><trkpt lat="45.51359" lon="8.76368"><ele>139.5</ele><time>2026-03-22T09:43:42.274Z</time></trkpt><trkpt lat="45.5136317" lon="8.76358"><ele>139.33333333333334</ele><time>2026-03-22T09:43:43.274Z</time></trkpt><trkpt lat="45.5136767" lon="8.7634867"><ele>139.16666666666669</ele><time>2026-03-22T09:43:44.274Z</time></trkpt><trkpt lat="45.5137217" lon="8.7634067"><ele>139.0</ele><time>2026-03-22T09:43:45.273Z</time></trkpt><trkpt lat="45.5137567" lon="8.76333"><ele>139.4</ele><time>2026-03-22T09:43:46.274Z</time></trkpt><trkpt lat="45.513795" lon="8.7631783"><ele>139.8</ele><time>2026-03-22T09:43:48.274Z</time></trkpt><trkpt lat="45.5138433" lon="8.7630133"><ele>140.2</ele><time>2026-03-22T09:43:50.274Z</time></trkpt><trkpt lat="45.51389" lon="8.76287"><ele>140.6</ele><time>2026-03-22T09:43:52.274Z</time></trkpt><trkpt lat="45.51393" lon="8.7627567"><ele>141.0</ele><time>2026-03-22T09:43:54.274Z</time></trkpt><trkpt lat="45.513945" lon="8.7625717"><ele>141.16666666666666</ele><time>2026-03-22T09:43:56.274Z</time></trkpt><trkpt lat="45.513955" lon="8.7624817"><ele>141.33333333333334</ele><time>2026-03-22T09:43:57.274Z</time></trkpt><trkpt lat="45.51399" lon="8.7623333"><ele>141.5</ele><time>2026-03-22T09:43:59.274Z</time></trkpt><trkpt lat="45.5140533" lon="8.7621733"><ele>141.66666666666669</ele><time>2026-03-22T09:44:01.274Z</time></trkpt><trkpt lat="45.5140867" lon="8.7620917"><ele>141.83333333333334</ele><time>2026-03-22T09:44:02.274Z</time></trkpt><trkpt lat="45.5141183" lon="8.7620067"><ele>142.0</ele><time>2026-03-22T09:44:03.274Z</time></trkpt><trkpt lat="45.5141533" lon="8.76191"><ele>141.83333333333334</ele><time>2026-03-22T09:44:04.274Z</time></trkpt><trkpt lat="45.51419" lon="8.761815"><ele>141.66666666666669</ele><time>2026-03-22T09:44:05.274Z</time></trkpt><trkpt lat="45.514225" lon="8.76171"><ele>141.5</ele><time>2026-03-22T09:44:06.274Z</time></trkpt><trkpt lat="45.5142617" lon="8.7616"><ele>141.33333333333334</ele><time>2026-03-22T09:44:07.274Z</time></trkpt><trkpt lat="45.5142933" lon="8.7614883"><ele>141.16666666666666</ele><time>2026-03-22T09:44:08.274Z</time></trkpt><trkpt lat="45.51433" lon="8.7613717"><ele>141.0</ele><time>2026-03-22T09:44:09.274Z</time></trkpt><trkpt lat="45.5143767" lon="8.7612433"><ele>141.0</ele><time>2026-03-22T09:44:10.274Z</time></trkpt><trkpt lat="45.5144217" lon="8.7611017"><ele>141.0</ele><time>2026-03-22T09:44:11.274Z</time></trkpt><trkpt lat="45.51447" lon="8.7609667"><ele>141.0</ele><time>2026-03-22T09:44:12.274Z</time></trkpt><trkpt lat="45.5145033" lon="8.7608567"><ele>141.0</ele><time>2026-03-22T09:44:13.274Z</time></trkpt><trkpt lat="45.51454" lon="8.760745"><ele>141.0</ele><time>2026-03-22T09:44:14.274Z</time></trkpt><trkpt lat="45.514575" lon="8.7606333"><ele>141.0</ele><time>2026-03-22T09:44:15.274Z</time></trkpt><trkpt lat="45.514615" lon="8.7605233"><ele>141.0</ele><time>2026-03-22T09:44:16.274Z</time></trkpt><trkpt lat="45.5146517" lon="8.7604117"><ele>141.0</ele><time>2026-03-22T09:44:17.274Z</time></trkpt><trkpt lat="45.5146917" lon="8.7603017"><ele>141.0</ele><time>2026-03-22T09:44:18.274Z</time></trkpt><trkpt lat="45.51473" lon="8.7601983"><ele>141.0</ele><time>2026-03-22T09:44:19.274Z</time></trkpt><trkpt lat="45.5147717" lon="8.7601017"><ele>141.0</ele><time>2026-03-22T09:44:20.274Z</time></trkpt><trkpt lat="45.5148317" lon="8.7600167"><ele>140.5</ele><time>2026-03-22T09:44:21.274Z</time></trkpt><trkpt lat="45.5148833" lon="8.7599333"><ele>140.0</ele><time>2026-03-22T09:44:22.274Z</time></trkpt><trkpt lat="45.514935" lon="8.7598517"><ele>139.5</ele><time>2026-03-22T09:44:23.274Z</time></trkpt><trkpt lat="45.5149783" lon="8.759765"><ele>139.0</ele><time>2026-03-22T09:44:24.274Z</time></trkpt><trkpt lat="45.5150167" lon="8.75968"><ele>138.5</ele><time>2026-03-22T09:44:25.274Z</time></trkpt><trkpt lat="45.5150767" lon="8.759545"><ele>138.0</ele><time>2026-03-22T09:44:27.275Z</time></trkpt><trkpt lat="45.5151267" lon="8.7594233"><ele>138.0</ele><time>2026-03-22T09:44:29.274Z</time></trkpt><trkpt lat="45.5151833" lon="8.7593433"><ele>138.0</ele><time>2026-03-22T09:44:31.274Z</time></trkpt><trkpt lat="45.5152483" lon="8.7593"><ele>138.0</ele><time>2026-03-22T09:44:32.274Z</time></trkpt><trkpt lat="45.5153183" lon="8.7592433"><ele>138.0</ele><time>2026-03-22T09:44:33.274Z</time></trkpt><trkpt lat="45.51541" lon="8.7591817"><ele>138.0</ele><time>2026-03-22T09:44:34.274Z</time></trkpt><trkpt lat="45.5155017" lon="8.75912"><ele>138.0</ele><time>2026-03-22T09:44:35.274Z</time></trkpt><trkpt lat="45.5155933" lon="8.75906"><ele>138.0</ele><time>2026-03-22T09:44:36.274Z</time></trkpt><trkpt lat="45.515685" lon="8.7589867"><ele>138.0</ele><time>2026-03-22T09:44:37.274Z</time></trkpt><trkpt lat="45.5157683" lon="8.7589233"><ele>138.0</ele><time>2026-03-22T09:44:38.274Z</time></trkpt><trkpt lat="45.51585" lon="8.7588467"><ele>138.0</ele><time>2026-03-22T09:44:39.274Z</time></trkpt><trkpt lat="45.5159267" lon="8.7587783"><ele>138.0</ele><time>2026-03-22T09:44:40.274Z</time></trkpt><trkpt lat="45.5160017" lon="8.7587133"><ele>138.0</ele><time>2026-03-22T09:44:41.274Z</time></trkpt><trkpt lat="45.51608" lon="8.7586517"><ele>138.0</ele><time>2026-03-22T09:44:42.274Z</time></trkpt><trkpt lat="45.5161567" lon="8.758595"><ele>138.0</ele><time>2026-03-22T09:44:43.274Z</time></trkpt><trkpt lat="45.5162267" lon="8.7585383"><ele>138.0</ele><time>2026-03-22T09:44:44.274Z</time></trkpt><trkpt lat="45.5162917" lon="8.7584883"><ele>138.0</ele><time>2026-03-22T09:44:45.274Z</time></trkpt><trkpt lat="45.5163517" lon="8.75845"><ele>138.0</ele><time>2026-03-22T09:44:46.274Z</time></trkpt><trkpt lat="45.51641" lon="8.75841"><ele>139.28571428571428</ele><time>2026-03-22T09:44:47.274Z</time></trkpt><trkpt lat="45.5164633" lon="8.7583617"><ele>140.57142857142858</ele><time>2026-03-22T09:44:48.274Z</time></trkpt><trkpt lat="45.5165167" lon="8.758305"><ele>141.85714285714286</ele><time>2026-03-22T09:44:49.274Z</time></trkpt><trkpt lat="45.516575" lon="8.7582383"><ele>143.14285714285714</ele><time>2026-03-22T09:44:50.274Z</time></trkpt><trkpt lat="45.5166417" lon="8.7581883"><ele>144.42857142857144</ele><time>2026-03-22T09:44:51.274Z</time></trkpt><trkpt lat="45.5167167" lon="8.7581483"><ele>145.71428571428572</ele><time>2026-03-22T09:44:52.274Z</time></trkpt><trkpt lat="45.5167917" lon="8.75811"><ele>147.0</ele><time>2026-03-22T09:44:53.274Z</time></trkpt><trkpt lat="45.516865" lon="8.7580717"><ele>147.0</ele><time>2026-03-22T09:44:54.274Z</time></trkpt><trkpt lat="45.5169383" lon="8.7580417"><ele>147.0</ele><time>2026-03-22T09:44:55.274Z</time></trkpt><trkpt lat="45.517015" lon="8.758015"><ele>147.0</ele><time>2026-03-22T09:44:56.274Z</time></trkpt><trkpt lat="45.5170917" lon="8.7579883"><ele>147.0</ele><time>2026-03-22T09:44:57.274Z</time></trkpt><trkpt lat="45.517165" lon="8.7579633"><ele>147.0</ele><time>2026-03-22T09:44:58.274Z</time></trkpt><trkpt lat="45.5172383" lon="8.757935"><ele>147.0</ele><time>2026-03-22T09:44:59.274Z</time></trkpt><trkpt lat="45.517305" lon="8.7579067"><ele>147.16666666666666</ele><time>2026-03-22T09:45:00.274Z</time></trkpt><trkpt lat="45.5173683" lon="8.7578733"><ele>147.33333333333334</ele><time>2026-03-22T09:45:01.274Z</time></trkpt><trkpt lat="45.51743" lon="8.75783"><ele>147.5</ele><time>2026-03-22T09:45:02.274Z</time></trkpt><trkpt lat="45.5174983" lon="8.7577867"><ele>147.66666666666669</ele><time>2026-03-22T09:45:03.274Z</time></trkpt><trkpt lat="45.5175733" lon="8.7577433"><ele>147.83333333333334</ele><time>2026-03-22T09:45:04.274Z</time></trkpt><trkpt lat="45.51766" lon="8.7576983"><ele>148.0</ele><time>2026-03-22T09:45:05.274Z</time></trkpt><trkpt lat="45.5177533" lon="8.7576617"><ele>148.0</ele><time>2026-03-22T09:45:06.274Z</time></trkpt><trkpt lat="45.51784" lon="8.7576283"><ele>148.0</ele><time>2026-03-22T09:45:07.274Z</time></trkpt><trkpt lat="45.5179317" lon="8.7576167"><ele>148.0</ele><time>2026-03-22T09:45:08.274Z</time></trkpt><trkpt lat="45.5181133" lon="8.7576133"><ele>148.0</ele><time>2026-03-22T09:45:10.274Z</time></trkpt><trkpt lat="45.5182133" lon="8.75761"><ele>147.6</ele><time>2026-03-22T09:45:11.274Z</time></trkpt><trkpt lat="45.5183167" lon="8.7576083"><ele>147.20000000000002</ele><time>2026-03-22T09:45:12.274Z</time></trkpt><trkpt lat="45.5184033" lon="8.7575933"><ele>146.8</ele><time>2026-03-22T09:45:13.274Z</time></trkpt><trkpt lat="45.5184767" lon="8.75758"><ele>146.4</ele><time>2026-03-22T09:45:14.274Z</time></trkpt><trkpt lat="45.5185783" lon="8.7575483"><ele>146.0</ele><time>2026-03-22T09:45:16.274Z</time></trkpt><trkpt lat="45.51868" lon="8.757465"><ele>146.0</ele><time>2026-03-22T09:45:18.274Z</time></trkpt><trkpt lat="45.5187317" lon="8.757385"><ele>146.0</ele><time>2026-03-22T09:45:19.274Z</time></trkpt><trkpt lat="45.5187967" lon="8.75726"><ele>146.0</ele><time>2026-03-22T09:45:20.274Z</time></trkpt><trkpt lat="45.51886" lon="8.75713"><ele>146.0</ele><time>2026-03-22T09:45:21.274Z</time></trkpt><trkpt lat="45.51891" lon="8.7570467"><ele>146.0</ele><time>2026-03-22T09:45:22.274Z</time></trkpt><trkpt lat="45.51896" lon="8.7569833"><ele>146.0</ele><time>2026-03-22T09:45:24.274Z</time></trkpt><trkpt lat="45.518955" lon="8.7568833"><ele>145.33333333333331</ele><time>2026-03-22T09:45:35.274Z</time></trkpt><trkpt lat="45.51891" lon="8.7568033"><ele>144.66666666666666</ele><time>2026-03-22T09:45:36.274Z</time></trkpt><trkpt lat="45.5188617" lon="8.756725"><ele>144.0</ele><time>2026-03-22T09:45:37.274Z</time></trkpt><trkpt lat="45.5188" lon="8.7566317"><ele>143.33333333333334</ele><time>2026-03-22T09:45:38.274Z</time></trkpt><trkpt lat="45.5187367" lon="8.7565283"><ele>142.66666666666669</ele><time>2026-03-22T09:45:39.274Z</time></trkpt><trkpt lat="45.518665" lon="8.7564183"><ele>142.0</ele><time>2026-03-22T09:45:40.274Z</time></trkpt><trkpt lat="45.5185933" lon="8.7562867"><ele>142.0</ele><time>2026-03-22T09:45:41.274Z</time></trkpt><trkpt lat="45.518515" lon="8.7561417"><ele>142.0</ele><time>2026-03-22T09:45:42.274Z</time></trkpt><trkpt lat="45.51843" lon="8.755975"><ele>142.0</ele><time>2026-03-22T09:45:43.274Z</time></trkpt><trkpt lat="45.5183617" lon="8.755825"><ele>142.0</ele><time>2026-03-22T09:45:44.274Z</time></trkpt><trkpt lat="45.5183017" lon="8.7556783"><ele>141.5</ele><time>2026-03-22T09:45:45.274Z</time></trkpt><trkpt lat="45.5182533" lon="8.75554"><ele>141.0</ele><time>2026-03-22T09:45:46.274Z</time></trkpt><trkpt lat="45.5181817" lon="8.755395"><ele>140.5</ele><time>2026-03-22T09:45:47.274Z</time></trkpt><trkpt lat="45.5181083" lon="8.755245"><ele>140.0</ele><time>2026-03-22T09:45:48.274Z</time></trkpt><trkpt lat="45.5180333" lon="8.7550983"><ele>139.75</ele><time>2026-03-22T09:45:49.274Z</time></trkpt><trkpt lat="45.5179433" lon="8.75495"><ele>139.5</ele><time>2026-03-22T09:45:50.274Z</time></trkpt><trkpt lat="45.517845" lon="8.75481"><ele>139.25</ele><time>2026-03-22T09:45:51.274Z</time></trkpt><trkpt lat="45.51774" lon="8.7546733"><ele>139.0</ele><time>2026-03-22T09:45:52.274Z</time></trkpt><trkpt lat="45.5176483" lon="8.754555"><ele>139.0</ele><time>2026-03-22T09:45:53.274Z</time></trkpt><trkpt lat="45.5175517" lon="8.7544433"><ele>139.0</ele><time>2026-03-22T09:45:54.274Z</time></trkpt><trkpt lat="45.5174567" lon="8.7543467"><ele>139.0</ele><time>2026-03-22T09:45:55.274Z</time></trkpt><trkpt lat="45.517375" lon="8.7542333"><ele>139.0</ele><time>2026-03-22T09:45:56.274Z</time></trkpt><trkpt lat="45.5173183" lon="8.7541017"><ele>138.5</ele><time>2026-03-22T09:45:57.274Z</time></trkpt><trkpt lat="45.5172967" lon="8.7539517"><ele>138.0</ele><time>2026-03-22T09:45:58.274Z</time></trkpt><trkpt lat="45.5173267" lon="8.7537817"><ele>137.5</ele><time>2026-03-22T09:45:59.274Z</time></trkpt><trkpt lat="45.5173833" lon="8.75361"><ele>137.0</ele><time>2026-03-22T09:46:00.274Z</time></trkpt><trkpt lat="45.5174483" lon="8.7534333"><ele>137.0</ele><time>2026-03-22T09:46:01.274Z</time></trkpt><trkpt lat="45.517515" lon="8.7532483"><ele>137.0</ele><time>2026-03-22T09:46:02.274Z</time></trkpt><trkpt lat="45.5175883" lon="8.7530717"><ele>137.0</ele><time>2026-03-22T09:46:03.274Z</time></trkpt><trkpt lat="45.51765" lon="8.7529033"><ele>137.0</ele><time>2026-03-22T09:46:04.274Z</time></trkpt><trkpt lat="45.5177033" lon="8.7527517"><ele>137.2</ele><time>2026-03-22T09:46:05.274Z</time></trkpt><trkpt lat="45.5177467" lon="8.7526133"><ele>137.39999999999998</ele><time>2026-03-22T09:46:06.274Z</time></trkpt><trkpt lat="45.5177917" lon="8.752495"><ele>137.60000000000002</ele><time>2026-03-22T09:46:07.274Z</time></trkpt><trkpt lat="45.5178333" lon="8.7523883"><ele>137.8</ele><time>2026-03-22T09:46:08.274Z</time></trkpt><trkpt lat="45.5178817" lon="8.7522817"><ele>138.0</ele><time>2026-03-22T09:46:09.274Z</time></trkpt><trkpt lat="45.5179367" lon="8.7521733"><ele>137.75</ele><time>2026-03-22T09:46:10.274Z</time></trkpt><trkpt lat="45.5180017" lon="8.7520667"><ele>137.5</ele><time>2026-03-22T09:46:11.274Z</time></trkpt><trkpt lat="45.5180717" lon="8.75195"><ele>137.25</ele><time>2026-03-22T09:46:12.274Z</time></trkpt><trkpt lat="45.5181433" lon="8.75181"><ele>137.0</ele><time>2026-03-22T09:46:13.274Z</time></trkpt><trkpt lat="45.5182133" lon="8.7516367"><ele>137.0</ele><time>2026-03-22T09:46:14.274Z</time></trkpt><trkpt lat="45.5182883" lon="8.75145"><ele>137.0</ele><time>2026-03-22T09:46:15.274Z</time></trkpt><trkpt lat="45.51836" lon="8.751265"><ele>137.0</ele><time>2026-03-22T09:46:16.274Z</time></trkpt><trkpt lat="45.5184333" lon="8.75112"><ele>137.0</ele><time>2026-03-22T09:46:17.274Z</time></trkpt><trkpt lat="45.518485" lon="8.7510117"><ele>136.79999999999998</ele><time>2026-03-22T09:46:18.274Z</time></trkpt><trkpt lat="45.5185317" lon="8.75092"><ele>136.6</ele><time>2026-03-22T09:46:19.274Z</time></trkpt><trkpt lat="45.5185867" lon="8.7508133"><ele>136.39999999999998</ele><time>2026-03-22T09:46:20.274Z</time></trkpt><trkpt lat="45.5186633" lon="8.7507383"><ele>136.2</ele><time>2026-03-22T09:46:21.274Z</time></trkpt><trkpt lat="45.518755" lon="8.7506817"><ele>136.0</ele><time>2026-03-22T09:46:22.274Z</time></trkpt><trkpt lat="45.5188633" lon="8.7506217"><ele>137.2</ele><time>2026-03-22T09:46:23.274Z</time></trkpt><trkpt lat="45.5189667" lon="8.7505517"><ele>138.39999999999998</ele><time>2026-03-22T09:46:24.274Z</time></trkpt><trkpt lat="45.5190717" lon="8.7504833"><ele>139.6</ele><time>2026-03-22T09:46:25.274Z</time></trkpt><trkpt lat="45.519165" lon="8.7504183"><ele>140.79999999999998</ele><time>2026-03-22T09:46:26.274Z</time></trkpt><trkpt lat="45.519255" lon="8.7503683"><ele>142.0</ele><time>2026-03-22T09:46:27.274Z</time></trkpt><trkpt lat="45.5193433" lon="8.7503383"><ele>142.0</ele><time>2026-03-22T09:46:28.274Z</time></trkpt><trkpt lat="45.5194333" lon="8.7503233"><ele>142.0</ele><time>2026-03-22T09:46:29.274Z</time></trkpt><trkpt lat="45.51954" lon="8.7503367"><ele>142.0</ele><time>2026-03-22T09:46:30.274Z</time></trkpt><trkpt lat="45.5196483" lon="8.7503483"><ele>142.0</ele><time>2026-03-22T09:46:31.274Z</time></trkpt><trkpt lat="45.5197617" lon="8.7503717"><ele>142.0</ele><time>2026-03-22T09:46:32.274Z</time></trkpt><trkpt lat="45.51988" lon="8.7503983"><ele>142.25</ele><time>2026-03-22T09:46:33.274Z</time></trkpt><trkpt lat="45.5200083" lon="8.7504333"><ele>142.5</ele><time>2026-03-22T09:46:34.274Z</time></trkpt><trkpt lat="45.5201467" lon="8.7504733"><ele>142.75</ele><time>2026-03-22T09:46:35.274Z</time></trkpt><trkpt lat="45.5202583" lon="8.7505083"><ele>143.0</ele><time>2026-03-22T09:46:36.274Z</time></trkpt><trkpt lat="45.5203683" lon="8.75056"><ele>142.6</ele><time>2026-03-22T09:46:37.274Z</time></trkpt><trkpt lat="45.5204683" lon="8.750605"><ele>142.20000000000002</ele><time>2026-03-22T09:46:38.274Z</time></trkpt><trkpt lat="45.5205583" lon="8.75065"><ele>141.8</ele><time>2026-03-22T09:46:39.274Z</time></trkpt><trkpt lat="45.5206467" lon="8.7506933"><ele>141.4</ele><time>2026-03-22T09:46:40.274Z</time></trkpt><trkpt lat="45.520745" lon="8.7507433"><ele>141.0</ele><time>2026-03-22T09:46:41.274Z</time></trkpt><trkpt lat="45.5208583" lon="8.7507983"><ele>141.0</ele><time>2026-03-22T09:46:42.274Z</time></trkpt><trkpt lat="45.520985" lon="8.7508567"><ele>141.0</ele><time>2026-03-22T09:46:43.274Z</time></trkpt><trkpt lat="45.5211183" lon="8.75092"><ele>141.0</ele><time>2026-03-22T09:46:44.274Z</time></trkpt><trkpt lat="45.521265" lon="8.750985"><ele>141.0</ele><time>2026-03-22T09:46:45.274Z</time></trkpt><trkpt lat="45.5214017" lon="8.7510333"><ele>140.75</ele><time>2026-03-22T09:46:46.274Z</time></trkpt><trkpt lat="45.5215217" lon="8.7510867"><ele>140.5</ele><time>2026-03-22T09:46:47.274Z</time></trkpt><trkpt lat="45.5216583" lon="8.75114"><ele>140.25</ele><time>2026-03-22T09:46:48.274Z</time></trkpt><trkpt lat="45.5217567" lon="8.7512033"><ele>140.0</ele><time>2026-03-22T09:46:49.274Z</time></trkpt><trkpt lat="45.5218583" lon="8.7512617"><ele>140.0</ele><time>2026-03-22T09:46:50.274Z</time></trkpt><trkpt lat="45.5219433" lon="8.75134"><ele>140.0</ele><time>2026-03-22T09:46:51.274Z</time></trkpt><trkpt lat="45.522015" lon="8.7514583"><ele>140.0</ele><time>2026-03-22T09:46:52.274Z</time></trkpt><trkpt lat="45.5220883" lon="8.7515933"><ele>140.0</ele><time>2026-03-22T09:46:53.274Z</time></trkpt><trkpt lat="45.522185" lon="8.7517283"><ele>140.2</ele><time>2026-03-22T09:46:54.274Z</time></trkpt><trkpt lat="45.522285" lon="8.751845"><ele>140.4</ele><time>2026-03-22T09:46:55.274Z</time></trkpt><trkpt lat="45.5223817" lon="8.7519367"><ele>140.6</ele><time>2026-03-22T09:46:56.274Z</time></trkpt><trkpt lat="45.52247" lon="8.7520083"><ele>140.8</ele><time>2026-03-22T09:46:57.274Z</time></trkpt><trkpt lat="45.5225383" lon="8.752085"><ele>141.0</ele><time>2026-03-22T09:46:58.274Z</time></trkpt><trkpt lat="45.5226033" lon="8.752165"><ele>141.0</ele><time>2026-03-22T09:46:59.274Z</time></trkpt><trkpt lat="45.5226733" lon="8.7522783"><ele>141.0</ele><time>2026-03-22T09:47:00.274Z</time></trkpt><trkpt lat="45.5227383" lon="8.7524017"><ele>141.0</ele><time>2026-03-22T09:47:01.274Z</time></trkpt><trkpt lat="45.5228083" lon="8.752555"><ele>141.0</ele><time>2026-03-22T09:47:02.274Z</time></trkpt><trkpt lat="45.522885" lon="8.7527183"><ele>142.2</ele><time>2026-03-22T09:47:03.274Z</time></trkpt><trkpt lat="45.5229567" lon="8.752865"><ele>143.39999999999998</ele><time>2026-03-22T09:47:04.274Z</time></trkpt><trkpt lat="45.5230167" lon="8.752995"><ele>144.6</ele><time>2026-03-22T09:47:05.274Z</time></trkpt><trkpt lat="45.52307" lon="8.7531233"><ele>145.79999999999998</ele><time>2026-03-22T09:47:06.274Z</time></trkpt><trkpt lat="45.5231233" lon="8.7532233"><ele>147.0</ele><time>2026-03-22T09:47:07.274Z</time></trkpt><trkpt lat="45.5231683" lon="8.7533183"><ele>147.0</ele><time>2026-03-22T09:47:08.274Z</time></trkpt><trkpt lat="45.5232267" lon="8.753425"><ele>147.0</ele><time>2026-03-22T09:47:10.274Z</time></trkpt><trkpt lat="45.52328" lon="8.753535"><ele>147.0</ele><time>2026-03-22T09:47:12.274Z</time></trkpt><trkpt lat="45.523335" lon="8.7536783"><ele>147.0</ele><time>2026-03-22T09:47:14.274Z</time></trkpt><trkpt lat="45.5234117" lon="8.7537633"><ele>147.0</ele><time>2026-03-22T09:47:16.274Z</time></trkpt><trkpt lat="45.5235083" lon="8.7537083"><ele>147.0</ele><time>2026-03-22T09:47:18.274Z</time></trkpt><trkpt lat="45.5235317" lon="8.75354"><ele>147.0</ele><time>2026-03-22T09:47:20.274Z</time></trkpt><trkpt lat="45.5235367" lon="8.7534183"><ele>147.0</ele><time>2026-03-22T09:47:21.274Z</time></trkpt><trkpt lat="45.52355" lon="8.7532817"><ele>147.0</ele><time>2026-03-22T09:47:22.274Z</time></trkpt><trkpt lat="45.52359" lon="8.7531383"><ele>147.0</ele><time>2026-03-22T09:47:23.274Z</time></trkpt><trkpt lat="45.5236333" lon="8.7529933"><ele>147.0</ele><time>2026-03-22T09:47:24.274Z</time></trkpt><trkpt lat="45.5236733" lon="8.7528433"><ele>147.0</ele><time>2026-03-22T09:47:25.274Z</time></trkpt><trkpt lat="45.5237167" lon="8.7526817"><ele>147.0</ele><time>2026-03-22T09:47:26.274Z</time></trkpt><trkpt lat="45.523765" lon="8.7525183"><ele>147.0</ele><time>2026-03-22T09:47:27.274Z</time></trkpt><trkpt lat="45.5238183" lon="8.7523633"><ele>146.75</ele><time>2026-03-22T09:47:28.274Z</time></trkpt><trkpt lat="45.5238733" lon="8.7522117"><ele>146.5</ele><time>2026-03-22T09:47:29.274Z</time></trkpt><trkpt lat="45.52394" lon="8.75207"><ele>146.25</ele><time>2026-03-22T09:47:30.274Z</time></trkpt><trkpt lat="45.5240083" lon="8.7519317"><ele>146.0</ele><time>2026-03-22T09:47:31.274Z</time></trkpt><trkpt lat="45.5240783" lon="8.7517983"><ele>145.5</ele><time>2026-03-22T09:47:32.274Z</time></trkpt><trkpt lat="45.5241533" lon="8.7516633"><ele>145.0</ele><time>2026-03-22T09:47:33.274Z</time></trkpt><trkpt lat="45.5242283" lon="8.751535"><ele>144.5</ele><time>2026-03-22T09:47:34.274Z</time></trkpt><trkpt lat="45.524305" lon="8.7513983"><ele>144.0</ele><time>2026-03-22T09:47:35.274Z</time></trkpt><trkpt lat="45.524385" lon="8.7512567"><ele>144.0</ele><time>2026-03-22T09:47:36.274Z</time></trkpt><trkpt lat="45.5244717" lon="8.751115"><ele>144.0</ele><time>2026-03-22T09:47:37.274Z</time></trkpt><trkpt lat="45.52456" lon="8.7509683"><ele>144.0</ele><time>2026-03-22T09:47:38.274Z</time></trkpt><trkpt lat="45.52465" lon="8.75082"><ele>144.0</ele><time>2026-03-22T09:47:39.274Z</time></trkpt><trkpt lat="45.52474" lon="8.7506617"><ele>144.0</ele><time>2026-03-22T09:47:40.274Z</time></trkpt><trkpt lat="45.524825" lon="8.7505083"><ele>144.0</ele><time>2026-03-22T09:47:41.274Z</time></trkpt><trkpt lat="45.5249183" lon="8.7503567"><ele>144.0</ele><time>2026-03-22T09:47:42.274Z</time></trkpt><trkpt lat="45.5250083" lon="8.7502017"><ele>144.0</ele><time>2026-03-22T09:47:43.275Z</time></trkpt><trkpt lat="45.525105" lon="8.75005"><ele>144.0</ele><time>2026-03-22T09:47:44.274Z</time></trkpt><trkpt lat="45.5251917" lon="8.7498867"><ele>144.0</ele><time>2026-03-22T09:47:45.274Z</time></trkpt><trkpt lat="45.525285" lon="8.7497217"><ele>144.0</ele><time>2026-03-22T09:47:46.274Z</time></trkpt><trkpt lat="45.5253833" lon="8.7495567"><ele>144.0</ele><time>2026-03-22T09:47:47.274Z</time></trkpt><trkpt lat="45.525475" lon="8.74939"><ele>144.0</ele><time>2026-03-22T09:47:48.274Z</time></trkpt><trkpt lat="45.5255683" lon="8.7492267"><ele>144.0</ele><time>2026-03-22T09:47:49.274Z</time></trkpt><trkpt lat="45.5256567" lon="8.7490567"><ele>144.0</ele><time>2026-03-22T09:47:50.275Z</time></trkpt><trkpt lat="45.52574" lon="8.7488883"><ele>144.0</ele><time>2026-03-22T09:47:51.274Z</time></trkpt><trkpt lat="45.5258267" lon="8.7487333"><ele>144.0</ele><time>2026-03-22T09:47:52.274Z</time></trkpt><trkpt lat="45.5259033" lon="8.748595"><ele>144.0</ele><time>2026-03-22T09:47:53.274Z</time></trkpt><trkpt lat="45.5259733" lon="8.748455"><ele>144.0</ele><time>2026-03-22T09:47:54.274Z</time></trkpt><trkpt lat="45.526035" lon="8.7483317"><ele>144.0</ele><time>2026-03-22T09:47:55.274Z</time></trkpt><trkpt lat="45.52609" lon="8.7482317"><ele>144.0</ele><time>2026-03-22T09:47:56.274Z</time></trkpt><trkpt lat="45.5261233" lon="8.7481317"><ele>144.0</ele><time>2026-03-22T09:47:57.274Z</time></trkpt><trkpt lat="45.52613" lon="8.7480367"><ele>144.0</ele><time>2026-03-22T09:47:58.274Z</time></trkpt><trkpt lat="45.5261067" lon="8.7479433"><ele>144.0</ele><time>2026-03-22T09:47:59.274Z</time></trkpt><trkpt lat="45.5260567" lon="8.7478317"><ele>144.0</ele><time>2026-03-22T09:48:00.274Z</time></trkpt><trkpt lat="45.525985" lon="8.7477183"><ele>144.0</ele><time>2026-03-22T09:48:01.274Z</time></trkpt><trkpt lat="45.525915" lon="8.7475917"><ele>144.0</ele><time>2026-03-22T09:48:02.274Z</time></trkpt><trkpt lat="45.5258433" lon="8.74748"><ele>143.8</ele><time>2026-03-22T09:48:03.274Z</time></trkpt><trkpt lat="45.5257833" lon="8.7473817"><ele>143.60000000000002</ele><time>2026-03-22T09:48:04.274Z</time></trkpt><trkpt lat="45.5257183" lon="8.7472783"><ele>143.4</ele><time>2026-03-22T09:48:05.274Z</time></trkpt><trkpt lat="45.5256667" lon="8.74718"><ele>143.20000000000002</ele><time>2026-03-22T09:48:06.274Z</time></trkpt><trkpt lat="45.525625" lon="8.7471"><ele>143.0</ele><time>2026-03-22T09:48:07.274Z</time></trkpt><trkpt lat="45.5255517" lon="8.7469733"><ele>142.8</ele><time>2026-03-22T09:48:09.274Z</time></trkpt><trkpt lat="45.525485" lon="8.7468583"><ele>142.60000000000002</ele><time>2026-03-22T09:48:11.274Z</time></trkpt><trkpt lat="45.5254267" lon="8.746735"><ele>142.39999999999998</ele><time>2026-03-22T09:48:13.274Z</time></trkpt><trkpt lat="45.5253767" lon="8.7465983"><ele>142.2</ele><time>2026-03-22T09:48:15.274Z</time></trkpt><trkpt lat="45.525315" lon="8.7464967"><ele>142.0</ele><time>2026-03-22T09:48:17.274Z</time></trkpt><trkpt lat="45.5252733" lon="8.746405"><ele>142.0</ele><time>2026-03-22T09:48:19.274Z</time></trkpt><trkpt lat="45.5252483" lon="8.74632"><ele>142.0</ele><time>2026-03-22T09:49:44.273Z</time></trkpt><trkpt lat="45.5251883" lon="8.7462267"><ele>142.0</ele><time>2026-03-22T09:49:46.273Z</time></trkpt><trkpt lat="45.5251433" lon="8.7461567"><ele>142.0</ele><time>2026-03-22T09:49:47.273Z</time></trkpt><trkpt lat="45.5250883" lon="8.7460733"><ele>142.0</ele><time>2026-03-22T09:49:48.273Z</time></trkpt><trkpt lat="45.52502" lon="8.7459833"><ele>142.0</ele><time>2026-03-22T09:49:49.273Z</time></trkpt><trkpt lat="45.5249583" lon="8.74588"><ele>142.0</ele><time>2026-03-22T09:49:50.273Z</time></trkpt><trkpt lat="45.5249067" lon="8.74577"><ele>142.0</ele><time>2026-03-22T09:49:51.273Z</time></trkpt><trkpt lat="45.5248533" lon="8.745665"><ele>142.0</ele><time>2026-03-22T09:49:52.273Z</time></trkpt><trkpt lat="45.524815" lon="8.7455683"><ele>142.0</ele><time>2026-03-22T09:49:53.273Z</time></trkpt><trkpt lat="45.5247817" lon="8.74548"><ele>142.0</ele><time>2026-03-22T09:49:54.273Z</time></trkpt><trkpt lat="45.5247617" lon="8.7453917"><ele>142.0</ele><time>2026-03-22T09:49:55.273Z</time></trkpt><trkpt lat="45.52479" lon="8.7452217"><ele>142.0</ele><time>2026-03-22T09:49:57.273Z</time></trkpt><trkpt lat="45.52484" lon="8.7451333"><ele>142.0</ele><time>2026-03-22T09:49:58.273Z</time></trkpt><trkpt lat="45.52492" lon="8.7450383"><ele>142.0</ele><time>2026-03-22T09:49:59.273Z</time></trkpt><trkpt lat="45.52502" lon="8.74494"><ele>142.0</ele><time>2026-03-22T09:50:00.273Z</time></trkpt><trkpt lat="45.5251217" lon="8.7448317"><ele>142.0</ele><time>2026-03-22T09:50:01.273Z</time></trkpt><trkpt lat="45.5252217" lon="8.7447133"><ele>142.0</ele><time>2026-03-22T09:50:02.273Z</time></trkpt><trkpt lat="45.525325" lon="8.7446033"><ele>142.0</ele><time>2026-03-22T09:50:03.273Z</time></trkpt><trkpt lat="45.5254417" lon="8.7444867"><ele>142.0</ele><time>2026-03-22T09:50:04.273Z</time></trkpt><trkpt lat="45.5255567" lon="8.7443683"><ele>142.0</ele><time>2026-03-22T09:50:05.273Z</time></trkpt><trkpt lat="45.52567" lon="8.7442567"><ele>142.75</ele><time>2026-03-22T09:50:06.273Z</time></trkpt><trkpt lat="45.52578" lon="8.7441417"><ele>143.5</ele><time>2026-03-22T09:50:07.273Z</time></trkpt><trkpt lat="45.525895" lon="8.7440367"><ele>144.25</ele><time>2026-03-22T09:50:08.273Z</time></trkpt><trkpt lat="45.5260133" lon="8.7439317"><ele>145.0</ele><time>2026-03-22T09:50:09.273Z</time></trkpt><trkpt lat="45.52613" lon="8.7438383"><ele>145.0</ele><time>2026-03-22T09:50:10.273Z</time></trkpt><trkpt lat="45.526245" lon="8.74376"><ele>145.0</ele><time>2026-03-22T09:50:11.273Z</time></trkpt><trkpt lat="45.5263733" lon="8.74371"><ele>145.0</ele><time>2026-03-22T09:50:12.273Z</time></trkpt><trkpt lat="45.5265033" lon="8.7436683"><ele>145.0</ele><time>2026-03-22T09:50:13.273Z</time></trkpt><trkpt lat="45.5266383" lon="8.7436217"><ele>145.0</ele><time>2026-03-22T09:50:14.273Z</time></trkpt><trkpt lat="45.526775" lon="8.7435583"><ele>145.0</ele><time>2026-03-22T09:50:15.273Z</time></trkpt><trkpt lat="45.526905" lon="8.7434683"><ele>145.0</ele><time>2026-03-22T09:50:16.273Z</time></trkpt><trkpt lat="45.52702" lon="8.743355"><ele>145.0</ele><time>2026-03-22T09:50:17.273Z</time></trkpt><trkpt lat="45.5271367" lon="8.7432283"><ele>145.25</ele><time>2026-03-22T09:50:18.273Z</time></trkpt><trkpt lat="45.5272533" lon="8.7430933"><ele>145.5</ele><time>2026-03-22T09:50:19.273Z</time></trkpt><trkpt lat="45.527375" lon="8.742965"><ele>145.75</ele><time>2026-03-22T09:50:20.273Z</time></trkpt><trkpt lat="45.5274917" lon="8.7428483"><ele>146.0</ele><time>2026-03-22T09:50:21.273Z</time></trkpt><trkpt lat="45.52761" lon="8.7427217"><ele>146.0</ele><time>2026-03-22T09:50:22.273Z</time></trkpt><trkpt lat="45.5277267" lon="8.7425983"><ele>146.0</ele><time>2026-03-22T09:50:23.273Z</time></trkpt><trkpt lat="45.5278267" lon="8.7424783"><ele>146.0</ele><time>2026-03-22T09:50:24.273Z</time></trkpt><trkpt lat="45.5279133" lon="8.7423583"><ele>146.0</ele><time>2026-03-22T09:50:25.273Z</time></trkpt><trkpt lat="45.528" lon="8.7422633"><ele>146.16666666666666</ele><time>2026-03-22T09:50:26.273Z</time></trkpt><trkpt lat="45.5280733" lon="8.742195"><ele>146.33333333333331</ele><time>2026-03-22T09:50:27.273Z</time></trkpt><trkpt lat="45.5281367" lon="8.7421567"><ele>146.5</ele><time>2026-03-22T09:50:28.273Z</time></trkpt><trkpt lat="45.5281967" lon="8.742185"><ele>146.66666666666666</ele><time>2026-03-22T09:50:29.273Z</time></trkpt><trkpt lat="45.5283183" lon="8.7422317"><ele>146.83333333333334</ele><time>2026-03-22T09:50:31.273Z</time></trkpt><trkpt lat="45.5283983" lon="8.742185"><ele>147.0</ele><time>2026-03-22T09:50:32.273Z</time></trkpt><trkpt lat="45.5284783" lon="8.7421133"><ele>147.0</ele><time>2026-03-22T09:50:33.273Z</time></trkpt><trkpt lat="45.5285533" lon="8.7420267"><ele>147.0</ele><time>2026-03-22T09:50:34.273Z</time></trkpt><trkpt lat="45.5286467" lon="8.7419417"><ele>147.0</ele><time>2026-03-22T09:50:35.273Z</time></trkpt><trkpt lat="45.5287533" lon="8.7418733"><ele>147.0</ele><time>2026-03-22T09:50:36.273Z</time></trkpt><trkpt lat="45.5288683" lon="8.7417933"><ele>147.5</ele><time>2026-03-22T09:50:37.273Z</time></trkpt><trkpt lat="45.5289783" lon="8.7416917"><ele>148.0</ele><time>2026-03-22T09:50:38.273Z</time></trkpt><trkpt lat="45.5290733" lon="8.7415817"><ele>148.5</ele><time>2026-03-22T09:50:39.273Z</time></trkpt><trkpt lat="45.529175" lon="8.7414717"><ele>149.0</ele><time>2026-03-22T09:50:40.273Z</time></trkpt><trkpt lat="45.5292717" lon="8.7413583"><ele>149.0</ele><time>2026-03-22T09:50:41.273Z</time></trkpt><trkpt lat="45.5293717" lon="8.7412417"><ele>149.0</ele><time>2026-03-22T09:50:42.273Z</time></trkpt><trkpt lat="45.52946" lon="8.7411083"><ele>149.0</ele><time>2026-03-22T09:50:43.273Z</time></trkpt><trkpt lat="45.5295133" lon="8.74098"><ele>149.0</ele><time>2026-03-22T09:50:44.273Z</time></trkpt><trkpt lat="45.5295517" lon="8.7408417"><ele>149.2</ele><time>2026-03-22T09:50:45.273Z</time></trkpt><trkpt lat="45.52959" lon="8.7407283"><ele>149.4</ele><time>2026-03-22T09:50:46.273Z</time></trkpt><trkpt lat="45.5296767" lon="8.7406967"><ele>149.6</ele><time>2026-03-22T09:50:48.273Z</time></trkpt><trkpt lat="45.529735" lon="8.7407517"><ele>149.8</ele><time>2026-03-22T09:50:49.273Z</time></trkpt><trkpt lat="45.52982" lon="8.7408217"><ele>150.0</ele><time>2026-03-22T09:50:51.273Z</time></trkpt><trkpt lat="45.5299283" lon="8.7408167"><ele>150.0</ele><time>2026-03-22T09:50:53.273Z</time></trkpt><trkpt lat="45.5300067" lon="8.7407483"><ele>150.0</ele><time>2026-03-22T09:50:55.273Z</time></trkpt><trkpt lat="45.5300633" lon="8.7406833"><ele>150.0</ele><time>2026-03-22T09:50:57.274Z</time></trkpt><trkpt lat="45.5301317" lon="8.740615"><ele>150.0</ele><time>2026-03-22T09:51:00.273Z</time></trkpt><trkpt lat="45.5302" lon="8.7405633"><ele>150.0</ele><time>2026-03-22T09:51:03.273Z</time></trkpt><trkpt lat="45.5302783" lon="8.7404883"><ele>150.0</ele><time>2026-03-22T09:51:21.273Z</time></trkpt><trkpt lat="45.5303617" lon="8.7403983"><ele>150.16666666666666</ele><time>2026-03-22T09:51:23.273Z</time></trkpt><trkpt lat="45.5304467" lon="8.7402783"><ele>150.33333333333334</ele><time>2026-03-22T09:51:25.273Z</time></trkpt><trkpt lat="45.5304733" lon="8.7401317"><ele>150.5</ele><time>2026-03-22T09:51:27.273Z</time></trkpt><trkpt lat="45.5304433" lon="8.7400517"><ele>150.66666666666669</ele><time>2026-03-22T09:51:28.273Z</time></trkpt><trkpt lat="45.5303833" lon="8.739945"><ele>150.83333333333334</ele><time>2026-03-22T09:51:30.273Z</time></trkpt><trkpt lat="45.53035" lon="8.7398667"><ele>151.0</ele><time>2026-03-22T09:51:41.273Z</time></trkpt><trkpt lat="45.53027" lon="8.73975"><ele>150.66666666666669</ele><time>2026-03-22T09:51:43.273Z</time></trkpt><trkpt lat="45.5302083" lon="8.7396533"><ele>150.33333333333334</ele><time>2026-03-22T09:51:44.273Z</time></trkpt><trkpt lat="45.5301467" lon="8.7395567"><ele>150.0</ele><time>2026-03-22T09:51:45.273Z</time></trkpt><trkpt lat="45.530095" lon="8.7394633"><ele>149.66666666666666</ele><time>2026-03-22T09:51:46.273Z</time></trkpt><trkpt lat="45.530045" lon="8.7393633"><ele>149.33333333333331</ele><time>2026-03-22T09:51:47.273Z</time></trkpt><trkpt lat="45.5299933" lon="8.7392483"><ele>149.0</ele><time>2026-03-22T09:51:48.273Z</time></trkpt><trkpt lat="45.529935" lon="8.7391283"><ele>149.0</ele><time>2026-03-22T09:51:49.273Z</time></trkpt><trkpt lat="45.5298767" lon="8.7390267"><ele>149.0</ele><time>2026-03-22T09:51:50.273Z</time></trkpt><trkpt lat="45.52981" lon="8.7389217"><ele>149.0</ele><time>2026-03-22T09:51:51.273Z</time></trkpt><trkpt lat="45.5297467" lon="8.7388117"><ele>149.0</ele><time>2026-03-22T09:51:52.273Z</time></trkpt><trkpt lat="45.5296833" lon="8.7387233"><ele>149.0</ele><time>2026-03-22T09:51:53.273Z</time></trkpt><trkpt lat="45.5296433" lon="8.7386283"><ele>149.0</ele><time>2026-03-22T09:51:54.273Z</time></trkpt><trkpt lat="45.529595" lon="8.7385283"><ele>149.0</ele><time>2026-03-22T09:51:55.273Z</time></trkpt><trkpt lat="45.52954" lon="8.7384433"><ele>149.0</ele><time>2026-03-22T09:51:56.273Z</time></trkpt><trkpt lat="45.5294883" lon="8.7383717"><ele>149.0</ele><time>2026-03-22T09:51:57.273Z</time></trkpt><trkpt lat="45.5294383" lon="8.7382983"><ele>149.0</ele><time>2026-03-22T09:51:58.273Z</time></trkpt><trkpt lat="45.5294" lon="8.7382167"><ele>149.0</ele><time>2026-03-22T09:51:59.273Z</time></trkpt><trkpt lat="45.529365" lon="8.73814"><ele>149.0</ele><time>2026-03-22T09:52:00.273Z</time></trkpt><trkpt lat="45.52932" lon="8.7380483"><ele>149.16666666666666</ele><time>2026-03-22T09:52:02.273Z</time></trkpt><trkpt lat="45.5292983" lon="8.7379567"><ele>149.33333333333331</ele><time>2026-03-22T09:52:05.273Z</time></trkpt><trkpt lat="45.5292367" lon="8.737805"><ele>149.5</ele><time>2026-03-22T09:52:07.273Z</time></trkpt><trkpt lat="45.5291917" lon="8.737705"><ele>149.66666666666666</ele><time>2026-03-22T09:52:08.273Z</time></trkpt><trkpt lat="45.52915" lon="8.7376017"><ele>149.83333333333334</ele><time>2026-03-22T09:52:09.273Z</time></trkpt><trkpt lat="45.529105" lon="8.7374983"><ele>150.0</ele><time>2026-03-22T09:52:10.273Z</time></trkpt><trkpt lat="45.529055" lon="8.7374017"><ele>150.0</ele><time>2026-03-22T09:52:11.273Z</time></trkpt><trkpt lat="45.529005" lon="8.7373033"><ele>150.0</ele><time>2026-03-22T09:52:12.273Z</time></trkpt><trkpt lat="45.5289617" lon="8.7371867"><ele>150.0</ele><time>2026-03-22T09:52:13.273Z</time></trkpt><trkpt lat="45.5289283" lon="8.7370667"><ele>150.0</ele><time>2026-03-22T09:52:14.273Z</time></trkpt><trkpt lat="45.5288933" lon="8.73694"><ele>150.0</ele><time>2026-03-22T09:52:15.273Z</time></trkpt><trkpt lat="45.5288633" lon="8.7368"><ele>149.8</ele><time>2026-03-22T09:52:16.273Z</time></trkpt><trkpt lat="45.5288267" lon="8.7366617"><ele>149.6</ele><time>2026-03-22T09:52:17.273Z</time></trkpt><trkpt lat="45.5288017" lon="8.736525"><ele>149.4</ele><time>2026-03-22T09:52:18.273Z</time></trkpt><trkpt lat="45.5287717" lon="8.7363867"><ele>149.2</ele><time>2026-03-22T09:52:19.273Z</time></trkpt><trkpt lat="45.5287467" lon="8.7362417"><ele>149.0</ele><time>2026-03-22T09:52:20.273Z</time></trkpt><trkpt lat="45.528715" lon="8.7360933"><ele>149.2</ele><time>2026-03-22T09:52:21.273Z</time></trkpt><trkpt lat="45.5286817" lon="8.735945"><ele>149.4</ele><time>2026-03-22T09:52:22.273Z</time></trkpt><trkpt lat="45.5286517" lon="8.7357983"><ele>149.6</ele><time>2026-03-22T09:52:23.273Z</time></trkpt><trkpt lat="45.5286333" lon="8.7356517"><ele>149.8</ele><time>2026-03-22T09:52:24.273Z</time></trkpt><trkpt lat="45.52863" lon="8.7355017"><ele>150.0</ele><time>2026-03-22T09:52:25.273Z</time></trkpt><trkpt lat="45.528615" lon="8.73536"><ele>149.6</ele><time>2026-03-22T09:52:26.273Z</time></trkpt><trkpt lat="45.5285983" lon="8.7352183"><ele>149.2</ele><time>2026-03-22T09:52:27.273Z</time></trkpt><trkpt lat="45.528585" lon="8.7350983"><ele>148.8</ele><time>2026-03-22T09:52:28.273Z</time></trkpt><trkpt lat="45.5285733" lon="8.734985"><ele>148.4</ele><time>2026-03-22T09:52:29.273Z</time></trkpt><trkpt lat="45.5285567" lon="8.7348183"><ele>148.0</ele><time>2026-03-22T09:52:31.273Z</time></trkpt><trkpt lat="45.5285383" lon="8.7346533"><ele>148.0</ele><time>2026-03-22T09:52:33.273Z</time></trkpt><trkpt lat="45.5285283" lon="8.73456"><ele>148.0</ele><time>2026-03-22T09:52:34.273Z</time></trkpt><trkpt lat="45.5285233" lon="8.7344617"><ele>148.0</ele><time>2026-03-22T09:52:35.273Z</time></trkpt><trkpt lat="45.5285317" lon="8.7343533"><ele>148.0</ele><time>2026-03-22T09:52:36.273Z</time></trkpt><trkpt lat="45.5285267" lon="8.7342283"><ele>148.0</ele><time>2026-03-22T09:52:37.273Z</time></trkpt><trkpt lat="45.5285267" lon="8.7340967"><ele>148.0</ele><time>2026-03-22T09:52:38.273Z</time></trkpt><trkpt lat="45.5285183" lon="8.7339567"><ele>147.20000000000002</ele><time>2026-03-22T09:52:39.273Z</time></trkpt><trkpt lat="45.528515" lon="8.733815"><ele>146.4</ele><time>2026-03-22T09:52:40.273Z</time></trkpt><trkpt lat="45.5285117" lon="8.73367"><ele>145.60000000000002</ele><time>2026-03-22T09:52:41.273Z</time></trkpt><trkpt lat="45.5285" lon="8.7335233"><ele>144.8</ele><time>2026-03-22T09:52:42.273Z</time></trkpt><trkpt lat="45.5284767" lon="8.733385"><ele>144.0</ele><time>2026-03-22T09:52:43.273Z</time></trkpt><trkpt lat="45.5284333" lon="8.733255"><ele>143.4</ele><time>2026-03-22T09:52:44.273Z</time></trkpt><trkpt lat="45.5283717" lon="8.7331233"><ele>142.8</ele><time>2026-03-22T09:52:45.273Z</time></trkpt><trkpt lat="45.5283033" lon="8.7330083"><ele>142.2</ele><time>2026-03-22T09:52:46.273Z</time></trkpt><trkpt lat="45.52823" lon="8.7328917"><ele>141.6</ele><time>2026-03-22T09:52:47.273Z</time></trkpt><trkpt lat="45.528155" lon="8.73278"><ele>141.0</ele><time>2026-03-22T09:52:48.273Z</time></trkpt><trkpt lat="45.5280817" lon="8.73266"><ele>140.75</ele><time>2026-03-22T09:52:49.273Z</time></trkpt><trkpt lat="45.5279917" lon="8.7325533"><ele>140.5</ele><time>2026-03-22T09:52:50.273Z</time></trkpt><trkpt lat="45.5278883" lon="8.7324333"><ele>140.25</ele><time>2026-03-22T09:52:51.273Z</time></trkpt><trkpt lat="45.5277733" lon="8.7323183"><ele>140.0</ele><time>2026-03-22T09:52:52.273Z</time></trkpt><trkpt lat="45.5276567" lon="8.732215"><ele>140.25</ele><time>2026-03-22T09:52:53.273Z</time></trkpt><trkpt lat="45.5275433" lon="8.7321267"><ele>140.5</ele><time>2026-03-22T09:52:54.273Z</time></trkpt><trkpt lat="45.5274367" lon="8.7320367"><ele>140.75</ele><time>2026-03-22T09:52:55.273Z</time></trkpt><trkpt lat="45.5273267" lon="8.7319333"><ele>141.0</ele><time>2026-03-22T09:52:56.273Z</time></trkpt><trkpt lat="45.52722" lon="8.7318183"><ele>141.0</ele><time>2026-03-22T09:52:57.273Z</time></trkpt><trkpt lat="45.52712" lon="8.7316667"><ele>141.0</ele><time>2026-03-22T09:52:58.273Z</time></trkpt><trkpt lat="45.5270167" lon="8.7314967"><ele>141.0</ele><time>2026-03-22T09:52:59.273Z</time></trkpt><trkpt lat="45.5269083" lon="8.7313317"><ele>140.33333333333334</ele><time>2026-03-22T09:53:00.273Z</time></trkpt><trkpt lat="45.526805" lon="8.7311817"><ele>139.66666666666669</ele><time>2026-03-22T09:53:01.273Z</time></trkpt><trkpt lat="45.5266933" lon="8.73103"><ele>139.0</ele><time>2026-03-22T09:53:02.273Z</time></trkpt><trkpt lat="45.5265883" lon="8.7308783"><ele>138.25</ele><time>2026-03-22T09:53:03.273Z</time></trkpt><trkpt lat="45.5264867" lon="8.7307233"><ele>137.5</ele><time>2026-03-22T09:53:04.273Z</time></trkpt><trkpt lat="45.5263883" lon="8.7305717"><ele>136.75</ele><time>2026-03-22T09:53:05.273Z</time></trkpt><trkpt lat="45.5262917" lon="8.7304183"><ele>136.0</ele><time>2026-03-22T09:53:06.273Z</time></trkpt><trkpt lat="45.5262" lon="8.7302567"><ele>135.25</ele><time>2026-03-22T09:53:07.273Z</time></trkpt><trkpt lat="45.52611" lon="8.7300983"><ele>134.5</ele><time>2026-03-22T09:53:08.273Z</time></trkpt><trkpt lat="45.5260317" lon="8.7299283"><ele>133.75</ele><time>2026-03-22T09:53:09.273Z</time></trkpt><trkpt lat="45.5259483" lon="8.7297633"><ele>133.0</ele><time>2026-03-22T09:53:10.273Z</time></trkpt><trkpt lat="45.5258667" lon="8.72961"><ele>133.0</ele><time>2026-03-22T09:53:11.273Z</time></trkpt><trkpt lat="45.5257883" lon="8.7294483"><ele>133.0</ele><time>2026-03-22T09:53:12.273Z</time></trkpt><trkpt lat="45.5257117" lon="8.7292883"><ele>133.0</ele><time>2026-03-22T09:53:13.273Z</time></trkpt><trkpt lat="45.52563" lon="8.72913"><ele>133.0</ele><time>2026-03-22T09:53:14.273Z</time></trkpt><trkpt lat="45.5255517" lon="8.7289733"><ele>133.20000000000002</ele><time>2026-03-22T09:53:15.273Z</time></trkpt><trkpt lat="45.525485" lon="8.7288383"><ele>133.4</ele><time>2026-03-22T09:53:16.273Z</time></trkpt><trkpt lat="45.525425" lon="8.7287083"><ele>133.60000000000002</ele><time>2026-03-22T09:53:17.273Z</time></trkpt><trkpt lat="45.5253667" lon="8.7285933"><ele>133.8</ele><time>2026-03-22T09:53:18.273Z</time></trkpt><trkpt lat="45.5253033" lon="8.7285033"><ele>134.0</ele><time>2026-03-22T09:53:19.273Z</time></trkpt><trkpt lat="45.5252333" lon="8.7283983"><ele>134.33333333333331</ele><time>2026-03-22T09:53:20.273Z</time></trkpt><trkpt lat="45.52518" lon="8.728305"><ele>134.66666666666666</ele><time>2026-03-22T09:53:21.273Z</time></trkpt><trkpt lat="45.5251283" lon="8.728205"><ele>135.0</ele><time>2026-03-22T09:53:22.273Z</time></trkpt><trkpt lat="45.5251" lon="8.72811"><ele>135.33333333333334</ele><time>2026-03-22T09:53:23.273Z</time></trkpt><trkpt lat="45.5250833" lon="8.7279917"><ele>135.66666666666669</ele><time>2026-03-22T09:53:25.273Z</time></trkpt><trkpt lat="45.5250433" lon="8.7279017"><ele>136.0</ele><time>2026-03-22T09:53:27.273Z</time></trkpt><trkpt lat="45.5249033" lon="8.72782"><ele>136.0</ele><time>2026-03-22T09:53:29.273Z</time></trkpt><trkpt lat="45.5247633" lon="8.7277967"><ele>136.0</ele><time>2026-03-22T09:53:30.272Z</time></trkpt><trkpt lat="45.5246233" lon="8.7277783"><ele>136.0</ele><time>2026-03-22T09:53:31.272Z</time></trkpt><trkpt lat="45.5244767" lon="8.7277483"><ele>136.0</ele><time>2026-03-22T09:53:32.272Z</time></trkpt><trkpt lat="45.5243283" lon="8.7277183"><ele>136.0</ele><time>2026-03-22T09:53:33.272Z</time></trkpt><trkpt lat="45.5241867" lon="8.727705"><ele>136.0</ele><time>2026-03-22T09:53:34.272Z</time></trkpt><trkpt lat="45.52405" lon="8.7276783"><ele>136.0</ele><time>2026-03-22T09:53:35.272Z</time></trkpt><trkpt lat="45.5239067" lon="8.7276517"><ele>136.0</ele><time>2026-03-22T09:53:36.272Z</time></trkpt><trkpt lat="45.5237533" lon="8.72764"><ele>135.66666666666669</ele><time>2026-03-22T09:53:37.272Z</time></trkpt><trkpt lat="45.52359" lon="8.7276133"><ele>135.33333333333334</ele><time>2026-03-22T09:53:38.272Z</time></trkpt><trkpt lat="45.523425" lon="8.7275867"><ele>135.0</ele><time>2026-03-22T09:53:39.272Z</time></trkpt><trkpt lat="45.523255" lon="8.7275467"><ele>135.0</ele><time>2026-03-22T09:53:40.272Z</time></trkpt><trkpt lat="45.52309" lon="8.72752"><ele>135.0</ele><time>2026-03-22T09:53:41.272Z</time></trkpt><trkpt lat="45.5229183" lon="8.7274983"><ele>135.0</ele><time>2026-03-22T09:53:42.272Z</time></trkpt><trkpt lat="45.522745" lon="8.72747"><ele>135.0</ele><time>2026-03-22T09:53:43.272Z</time></trkpt><trkpt lat="45.5225683" lon="8.7274367"><ele>135.0</ele><time>2026-03-22T09:53:44.272Z</time></trkpt><trkpt lat="45.52239" lon="8.72741"><ele>135.0</ele><time>2026-03-22T09:53:45.272Z</time></trkpt><trkpt lat="45.5222083" lon="8.727385"><ele>135.0</ele><time>2026-03-22T09:53:46.272Z</time></trkpt><trkpt lat="45.5220317" lon="8.7273617"><ele>135.0</ele><time>2026-03-22T09:53:47.272Z</time></trkpt><trkpt lat="45.5218467" lon="8.72734"><ele>135.0</ele><time>2026-03-22T09:53:48.273Z</time></trkpt><trkpt lat="45.5216683" lon="8.7273017"><ele>135.0</ele><time>2026-03-22T09:53:49.272Z</time></trkpt><trkpt lat="45.5214867" lon="8.7272717"><ele>135.0</ele><time>2026-03-22T09:53:50.272Z</time></trkpt><trkpt lat="45.5213117" lon="8.7272433"><ele>135.0</ele><time>2026-03-22T09:53:51.272Z</time></trkpt><trkpt lat="45.5211283" lon="8.7272067"><ele>134.66666666666666</ele><time>2026-03-22T09:53:52.272Z</time></trkpt><trkpt lat="45.5209483" lon="8.7271817"><ele>134.33333333333331</ele><time>2026-03-22T09:53:53.272Z</time></trkpt><trkpt lat="45.5207667" lon="8.7271517"><ele>134.0</ele><time>2026-03-22T09:53:54.272Z</time></trkpt><trkpt lat="45.5205883" lon="8.7271183"><ele>134.0</ele><time>2026-03-22T09:53:55.272Z</time></trkpt><trkpt lat="45.52041" lon="8.7270817"><ele>134.0</ele><time>2026-03-22T09:53:56.272Z</time></trkpt><trkpt lat="45.5202283" lon="8.7270517"><ele>134.0</ele><time>2026-03-22T09:53:57.272Z</time></trkpt><trkpt lat="45.5200467" lon="8.7270167"><ele>134.0</ele><time>2026-03-22T09:53:58.272Z</time></trkpt><trkpt lat="45.5198767" lon="8.7270133"><ele>134.0</ele><time>2026-03-22T09:53:59.272Z</time></trkpt><trkpt lat="45.519695" lon="8.726975"><ele>134.0</ele><time>2026-03-22T09:54:00.272Z</time></trkpt><trkpt lat="45.5195067" lon="8.7269367"><ele>134.0</ele><time>2026-03-22T09:54:01.272Z</time></trkpt><trkpt lat="45.5193217" lon="8.726905"><ele>134.0</ele><time>2026-03-22T09:54:02.272Z</time></trkpt><trkpt lat="45.51914" lon="8.726865"><ele>134.0</ele><time>2026-03-22T09:54:03.272Z</time></trkpt><trkpt lat="45.5189583" lon="8.7268417"><ele>133.66666666666666</ele><time>2026-03-22T09:54:04.272Z</time></trkpt><trkpt lat="45.5187783" lon="8.72682"><ele>133.33333333333334</ele><time>2026-03-22T09:54:05.272Z</time></trkpt><trkpt lat="45.5185933" lon="8.7267933"><ele>133.0</ele><time>2026-03-22T09:54:06.272Z</time></trkpt><trkpt lat="45.5184017" lon="8.7267617"><ele>133.66666666666669</ele><time>2026-03-22T09:54:07.272Z</time></trkpt><trkpt lat="45.51821" lon="8.7267233"><ele>134.33333333333334</ele><time>2026-03-22T09:54:08.272Z</time></trkpt><trkpt lat="45.518015" lon="8.7266883"><ele>135.0</ele><time>2026-03-22T09:54:09.272Z</time></trkpt><trkpt lat="45.5178283" lon="8.726645"><ele>135.0</ele><time>2026-03-22T09:54:10.272Z</time></trkpt><trkpt lat="45.5176417" lon="8.7266083"><ele>135.0</ele><time>2026-03-22T09:54:11.272Z</time></trkpt><trkpt lat="45.51745" lon="8.7265733"><ele>135.0</ele><time>2026-03-22T09:54:12.272Z</time></trkpt><trkpt lat="45.5172617" lon="8.72655"><ele>135.0</ele><time>2026-03-22T09:54:13.272Z</time></trkpt><trkpt lat="45.517075" lon="8.7265233"><ele>135.0</ele><time>2026-03-22T09:54:14.272Z</time></trkpt><trkpt lat="45.5168883" lon="8.72649"><ele>135.0</ele><time>2026-03-22T09:54:15.272Z</time></trkpt><trkpt lat="45.5167033" lon="8.72646"><ele>135.33333333333334</ele><time>2026-03-22T09:54:16.272Z</time></trkpt><trkpt lat="45.516525" lon="8.7264383"><ele>135.66666666666669</ele><time>2026-03-22T09:54:17.272Z</time></trkpt><trkpt lat="45.5163433" lon="8.7264083"><ele>136.0</ele><time>2026-03-22T09:54:18.272Z</time></trkpt><trkpt lat="45.5161633" lon="8.7263633"><ele>136.0</ele><time>2026-03-22T09:54:19.272Z</time></trkpt><trkpt lat="45.5159833" lon="8.7263"><ele>136.0</ele><time>2026-03-22T09:54:20.272Z</time></trkpt><trkpt lat="45.5158133" lon="8.7261917"><ele>136.0</ele><time>2026-03-22T09:54:21.272Z</time></trkpt><trkpt lat="45.5156483" lon="8.726065"><ele>136.33333333333334</ele><time>2026-03-22T09:54:22.272Z</time></trkpt><trkpt lat="45.5154917" lon="8.7259217"><ele>136.66666666666666</ele><time>2026-03-22T09:54:23.272Z</time></trkpt><trkpt lat="45.5153367" lon="8.7257767"><ele>137.0</ele><time>2026-03-22T09:54:24.272Z</time></trkpt><trkpt lat="45.51519" lon="8.7256233"><ele>137.0</ele><time>2026-03-22T09:54:25.272Z</time></trkpt><trkpt lat="45.5150333" lon="8.7254783"><ele>137.0</ele><time>2026-03-22T09:54:26.272Z</time></trkpt><trkpt lat="45.5148717" lon="8.7253433"><ele>137.0</ele><time>2026-03-22T09:54:27.272Z</time></trkpt><trkpt lat="45.51471" lon="8.7251867"><ele>136.33333333333331</ele><time>2026-03-22T09:54:28.272Z</time></trkpt><trkpt lat="45.5145467" lon="8.7250417"><ele>135.66666666666666</ele><time>2026-03-22T09:54:29.272Z</time></trkpt><trkpt lat="45.5143767" lon="8.724895"><ele>135.0</ele><time>2026-03-22T09:54:30.272Z</time></trkpt><trkpt lat="45.5142067" lon="8.7247467"><ele>135.0</ele><time>2026-03-22T09:54:31.272Z</time></trkpt><trkpt lat="45.514045" lon="8.724595"><ele>135.0</ele><time>2026-03-22T09:54:32.272Z</time></trkpt><trkpt lat="45.5138783" lon="8.7244383"><ele>135.0</ele><time>2026-03-22T09:54:33.272Z</time></trkpt><trkpt lat="45.5137117" lon="8.7242833"><ele>134.66666666666666</ele><time>2026-03-22T09:54:34.272Z</time></trkpt><trkpt lat="45.513545" lon="8.7241417"><ele>134.33333333333331</ele><time>2026-03-22T09:54:35.272Z</time></trkpt><trkpt lat="45.5133817" lon="8.7239883"><ele>134.0</ele><time>2026-03-22T09:54:36.272Z</time></trkpt><trkpt lat="45.5132133" lon="8.7238417"><ele>134.0</ele><time>2026-03-22T09:54:37.272Z</time></trkpt><trkpt lat="45.5130433" lon="8.7236867"><ele>134.0</ele><time>2026-03-22T09:54:38.272Z</time></trkpt><trkpt lat="45.5128783" lon="8.7235333"><ele>134.0</ele><time>2026-03-22T09:54:39.272Z</time></trkpt><trkpt lat="45.512715" lon="8.7233783"><ele>135.0</ele><time>2026-03-22T09:54:40.272Z</time></trkpt><trkpt lat="45.51254" lon="8.7232283"><ele>136.0</ele><time>2026-03-22T09:54:41.272Z</time></trkpt><trkpt lat="45.51237" lon="8.7230833"><ele>137.0</ele><time>2026-03-22T09:54:42.272Z</time></trkpt><trkpt lat="45.512205" lon="8.722935"><ele>136.33333333333331</ele><time>2026-03-22T09:54:43.272Z</time></trkpt><trkpt lat="45.5120433" lon="8.72278"><ele>135.66666666666666</ele><time>2026-03-22T09:54:44.272Z</time></trkpt><trkpt lat="45.51188" lon="8.72263"><ele>135.0</ele><time>2026-03-22T09:54:45.272Z</time></trkpt><trkpt lat="45.511715" lon="8.7224817"><ele>135.0</ele><time>2026-03-22T09:54:46.272Z</time></trkpt><trkpt lat="45.51155" lon="8.722335"><ele>135.0</ele><time>2026-03-22T09:54:47.272Z</time></trkpt><trkpt lat="45.5113967" lon="8.7222"><ele>135.0</ele><time>2026-03-22T09:54:48.272Z</time></trkpt><trkpt lat="45.5112433" lon="8.7220583"><ele>135.0</ele><time>2026-03-22T09:54:49.272Z</time></trkpt><trkpt lat="45.51109" lon="8.72192"><ele>135.0</ele><time>2026-03-22T09:54:50.272Z</time></trkpt><trkpt lat="45.5109333" lon="8.7217833"><ele>135.0</ele><time>2026-03-22T09:54:51.272Z</time></trkpt><trkpt lat="45.5107717" lon="8.72165"><ele>135.0</ele><time>2026-03-22T09:54:52.272Z</time></trkpt><trkpt lat="45.5106317" lon="8.7215183"><ele>135.0</ele><time>2026-03-22T09:54:53.272Z</time></trkpt><trkpt lat="45.5104917" lon="8.7213917"><ele>135.0</ele><time>2026-03-22T09:54:54.272Z</time></trkpt><trkpt lat="45.5103533" lon="8.721265"><ele>134.66666666666666</ele><time>2026-03-22T09:54:55.272Z</time></trkpt><trkpt lat="45.5102167" lon="8.7211433"><ele>134.33333333333331</ele><time>2026-03-22T09:54:56.272Z</time></trkpt><trkpt lat="45.5100867" lon="8.7210317"><ele>134.0</ele><time>2026-03-22T09:54:57.272Z</time></trkpt><trkpt lat="45.509845" lon="8.7208117"><ele>133.8</ele><time>2026-03-22T09:54:59.272Z</time></trkpt><trkpt lat="45.5097433" lon="8.7207283"><ele>133.60000000000002</ele><time>2026-03-22T09:55:00.272Z</time></trkpt><trkpt lat="45.50964" lon="8.7206633"><ele>133.4</ele><time>2026-03-22T09:55:01.272Z</time></trkpt><trkpt lat="45.5095333" lon="8.7206317"><ele>133.20000000000002</ele><time>2026-03-22T09:55:02.272Z</time></trkpt><trkpt lat="45.5094367" lon="8.7206217"><ele>133.0</ele><time>2026-03-22T09:55:03.272Z</time></trkpt><trkpt lat="45.50936" lon="8.7206"><ele>133.0</ele><time>2026-03-22T09:55:04.272Z</time></trkpt><trkpt lat="45.50929" lon="8.7205517"><ele>133.0</ele><time>2026-03-22T09:55:05.272Z</time></trkpt><trkpt lat="45.5092217" lon="8.7204817"><ele>133.0</ele><time>2026-03-22T09:55:06.272Z</time></trkpt><trkpt lat="45.5091517" lon="8.7204167"><ele>133.0</ele><time>2026-03-22T09:55:07.272Z</time></trkpt><trkpt lat="45.5090783" lon="8.7203533"><ele>133.0</ele><time>2026-03-22T09:55:08.272Z</time></trkpt><trkpt lat="45.5090067" lon="8.72029"><ele>133.0</ele><time>2026-03-22T09:55:09.272Z</time></trkpt><trkpt lat="45.5089317" lon="8.7202167"><ele>132.4</ele><time>2026-03-22T09:55:10.272Z</time></trkpt><trkpt lat="45.5088483" lon="8.7201417"><ele>131.8</ele><time>2026-03-22T09:55:11.272Z</time></trkpt><trkpt lat="45.5087517" lon="8.7200617"><ele>131.2</ele><time>2026-03-22T09:55:12.272Z</time></trkpt><trkpt lat="45.508655" lon="8.7199783"><ele>130.6</ele><time>2026-03-22T09:55:13.272Z</time></trkpt><trkpt lat="45.5085667" lon="8.7198933"><ele>130.0</ele><time>2026-03-22T09:55:14.272Z</time></trkpt><trkpt lat="45.5084817" lon="8.7198083"><ele>130.0</ele><time>2026-03-22T09:55:15.272Z</time></trkpt><trkpt lat="45.5083867" lon="8.7197217"><ele>130.0</ele><time>2026-03-22T09:55:16.272Z</time></trkpt><trkpt lat="45.5082983" lon="8.7196617"><ele>130.0</ele><time>2026-03-22T09:55:17.272Z</time></trkpt><trkpt lat="45.5081917" lon="8.7196217"><ele>130.0</ele><time>2026-03-22T09:55:18.272Z</time></trkpt><trkpt lat="45.5081033" lon="8.7196183"><ele>130.0</ele><time>2026-03-22T09:55:19.272Z</time></trkpt><trkpt lat="45.50801" lon="8.7196067"><ele>130.0</ele><time>2026-03-22T09:55:20.272Z</time></trkpt><trkpt lat="45.5079167" lon="8.7196167"><ele>130.0</ele><time>2026-03-22T09:55:21.272Z</time></trkpt><trkpt lat="45.5078133" lon="8.7196817"><ele>130.0</ele><time>2026-03-22T09:55:22.272Z</time></trkpt><trkpt lat="45.507715" lon="8.7197733"><ele>130.0</ele><time>2026-03-22T09:55:23.272Z</time></trkpt><trkpt lat="45.50761" lon="8.719885"><ele>130.25</ele><time>2026-03-22T09:55:24.272Z</time></trkpt><trkpt lat="45.5075067" lon="8.7200067"><ele>130.5</ele><time>2026-03-22T09:55:25.272Z</time></trkpt><trkpt lat="45.5073917" lon="8.72014"><ele>130.75</ele><time>2026-03-22T09:55:26.272Z</time></trkpt><trkpt lat="45.5072917" lon="8.7202783"><ele>131.0</ele><time>2026-03-22T09:55:27.272Z</time></trkpt><trkpt lat="45.5071867" lon="8.720405"><ele>130.75</ele><time>2026-03-22T09:55:28.272Z</time></trkpt><trkpt lat="45.5070717" lon="8.7205117"><ele>130.5</ele><time>2026-03-22T09:55:29.272Z</time></trkpt><trkpt lat="45.5069567" lon="8.7206083"><ele>130.25</ele><time>2026-03-22T09:55:30.272Z</time></trkpt><trkpt lat="45.50684" lon="8.7206717"><ele>130.0</ele><time>2026-03-22T09:55:31.272Z</time></trkpt><trkpt lat="45.5067283" lon="8.720745"><ele>130.0</ele><time>2026-03-22T09:55:32.272Z</time></trkpt><trkpt lat="45.5066217" lon="8.7208033"><ele>130.0</ele><time>2026-03-22T09:55:33.272Z</time></trkpt><trkpt lat="45.506515" lon="8.7208667"><ele>130.0</ele><time>2026-03-22T09:55:34.272Z</time></trkpt><trkpt lat="45.5064067" lon="8.7209267"><ele>130.0</ele><time>2026-03-22T09:55:35.272Z</time></trkpt><trkpt lat="45.5063017" lon="8.720985"><ele>130.5</ele><time>2026-03-22T09:55:36.272Z</time></trkpt><trkpt lat="45.50619" lon="8.7210417"><ele>131.0</ele><time>2026-03-22T09:55:37.272Z</time></trkpt><trkpt lat="45.50608" lon="8.7210933"><ele>131.5</ele><time>2026-03-22T09:55:38.272Z</time></trkpt><trkpt lat="45.5059717" lon="8.7211367"><ele>132.0</ele><time>2026-03-22T09:55:39.272Z</time></trkpt><trkpt lat="45.50586" lon="8.7211733"><ele>132.0</ele><time>2026-03-22T09:55:40.272Z</time></trkpt><trkpt lat="45.5057517" lon="8.721205"><ele>132.0</ele><time>2026-03-22T09:55:41.272Z</time></trkpt><trkpt lat="45.5056317" lon="8.721225"><ele>132.0</ele><time>2026-03-22T09:55:42.272Z</time></trkpt><trkpt lat="45.5055183" lon="8.7212617"><ele>132.0</ele><time>2026-03-22T09:55:43.272Z</time></trkpt><trkpt lat="45.5054" lon="8.7213183"><ele>132.75</ele><time>2026-03-22T09:55:44.272Z</time></trkpt><trkpt lat="45.50529" lon="8.7213983"><ele>133.5</ele><time>2026-03-22T09:55:45.272Z</time></trkpt><trkpt lat="45.50518" lon="8.7214867"><ele>134.25</ele><time>2026-03-22T09:55:46.272Z</time></trkpt><trkpt lat="45.5050783" lon="8.721595"><ele>135.0</ele><time>2026-03-22T09:55:47.272Z</time></trkpt><trkpt lat="45.50498" lon="8.72172"><ele>135.0</ele><time>2026-03-22T09:55:48.272Z</time></trkpt><trkpt lat="45.5048933" lon="8.721825"><ele>135.0</ele><time>2026-03-22T09:55:49.272Z</time></trkpt><trkpt lat="45.5048183" lon="8.7219233"><ele>135.0</ele><time>2026-03-22T09:55:50.272Z</time></trkpt><trkpt lat="45.5047517" lon="8.72201"><ele>135.0</ele><time>2026-03-22T09:55:51.272Z</time></trkpt><trkpt lat="45.5046933" lon="8.7220867"><ele>135.0</ele><time>2026-03-22T09:55:52.272Z</time></trkpt><trkpt lat="45.5046083" lon="8.7221917"><ele>134.6</ele><time>2026-03-22T09:55:54.272Z</time></trkpt><trkpt lat="45.5045567" lon="8.72227"><ele>134.2</ele><time>2026-03-22T09:55:56.272Z</time></trkpt><trkpt lat="45.5045133" lon="8.7223583"><ele>133.8</ele><time>2026-03-22T09:56:00.272Z</time></trkpt><trkpt lat="45.504575" lon="8.7223767"><ele>133.4</ele><time>2026-03-22T09:56:06.272Z</time></trkpt><trkpt lat="45.5046533" lon="8.7222283"><ele>133.0</ele><time>2026-03-22T09:56:08.272Z</time></trkpt><trkpt lat="45.5047233" lon="8.72211"><ele>132.75</ele><time>2026-03-22T09:56:09.272Z</time></trkpt><trkpt lat="45.5048033" lon="8.7219917"><ele>132.5</ele><time>2026-03-22T09:56:10.272Z</time></trkpt><trkpt lat="45.5048967" lon="8.7218583"><ele>132.25</ele><time>2026-03-22T09:56:11.272Z</time></trkpt><trkpt lat="45.5050117" lon="8.7217317"><ele>132.0</ele><time>2026-03-22T09:56:12.272Z</time></trkpt><trkpt lat="45.5051283" lon="8.7216083"><ele>132.0</ele><time>2026-03-22T09:56:13.272Z</time></trkpt><trkpt lat="45.5052583" lon="8.7214983"><ele>132.0</ele><time>2026-03-22T09:56:14.272Z</time></trkpt><trkpt lat="45.50539" lon="8.7214017"><ele>132.0</ele><time>2026-03-22T09:56:15.272Z</time></trkpt><trkpt lat="45.505515" lon="8.7213333"><ele>132.0</ele><time>2026-03-22T09:56:16.272Z</time></trkpt><trkpt lat="45.5056483" lon="8.721275"><ele>132.0</ele><time>2026-03-22T09:56:17.272Z</time></trkpt><trkpt lat="45.5057867" lon="8.721235"><ele>132.0</ele><time>2026-03-22T09:56:18.272Z</time></trkpt><trkpt lat="45.50592" lon="8.7211883"><ele>132.0</ele><time>2026-03-22T09:56:19.272Z</time></trkpt><trkpt lat="45.50606" lon="8.7211417"><ele>132.0</ele><time>2026-03-22T09:56:20.272Z</time></trkpt><trkpt lat="45.5062017" lon="8.7210767"><ele>131.5</ele><time>2026-03-22T09:56:21.272Z</time></trkpt><trkpt lat="45.506345" lon="8.7210133"><ele>131.0</ele><time>2026-03-22T09:56:22.272Z</time></trkpt><trkpt lat="45.506485" lon="8.7209317"><ele>130.5</ele><time>2026-03-22T09:56:23.272Z</time></trkpt><trkpt lat="45.506615" lon="8.72086"><ele>130.0</ele><time>2026-03-22T09:56:24.272Z</time></trkpt><trkpt lat="45.5067467" lon="8.7207883"><ele>130.0</ele><time>2026-03-22T09:56:25.272Z</time></trkpt><trkpt lat="45.5068733" lon="8.720725"><ele>130.0</ele><time>2026-03-22T09:56:26.272Z</time></trkpt><trkpt lat="45.506995" lon="8.7206533"><ele>130.0</ele><time>2026-03-22T09:56:27.272Z</time></trkpt><trkpt lat="45.5071" lon="8.72056"><ele>130.0</ele><time>2026-03-22T09:56:28.272Z</time></trkpt><trkpt lat="45.5071933" lon="8.7204583"><ele>130.25</ele><time>2026-03-22T09:56:29.272Z</time></trkpt><trkpt lat="45.5072817" lon="8.720345"><ele>130.5</ele><time>2026-03-22T09:56:30.272Z</time></trkpt><trkpt lat="45.5073617" lon="8.720225"><ele>130.75</ele><time>2026-03-22T09:56:31.272Z</time></trkpt><trkpt lat="45.5074467" lon="8.7201133"><ele>131.0</ele><time>2026-03-22T09:56:32.272Z</time></trkpt><trkpt lat="45.5075417" lon="8.7200183"><ele>131.0</ele><time>2026-03-22T09:56:33.272Z</time></trkpt><trkpt lat="45.5076283" lon="8.7199283"><ele>131.0</ele><time>2026-03-22T09:56:34.272Z</time></trkpt><trkpt lat="45.5077033" lon="8.7198517"><ele>131.0</ele><time>2026-03-22T09:56:35.272Z</time></trkpt><trkpt lat="45.5077667" lon="8.719795"><ele>131.0</ele><time>2026-03-22T09:56:36.272Z</time></trkpt><trkpt lat="45.5078183" lon="8.7197433"><ele>131.0</ele><time>2026-03-22T09:56:37.273Z</time></trkpt><trkpt lat="45.5078983" lon="8.71968"><ele>131.0</ele><time>2026-03-22T09:56:39.272Z</time></trkpt><trkpt lat="45.50793" lon="8.7195917"><ele>131.0</ele><time>2026-03-22T09:56:41.272Z</time></trkpt><trkpt lat="45.50788" lon="8.7194567"><ele>131.0</ele><time>2026-03-22T09:56:43.272Z</time></trkpt><trkpt lat="45.5077933" lon="8.7193867"><ele>131.0</ele><time>2026-03-22T09:56:44.272Z</time></trkpt><trkpt lat="45.50772" lon="8.7193217"><ele>131.0</ele><time>2026-03-22T09:56:45.272Z</time></trkpt><trkpt lat="45.5076283" lon="8.7192467"><ele>131.0</ele><time>2026-03-22T09:56:46.272Z</time></trkpt><trkpt lat="45.50753" lon="8.7191567"><ele>131.66666666666666</ele><time>2026-03-22T09:56:47.272Z</time></trkpt><trkpt lat="45.507405" lon="8.7190367"><ele>132.33333333333334</ele><time>2026-03-22T09:56:48.272Z</time></trkpt><trkpt lat="45.5072633" lon="8.7189317"><ele>133.0</ele><time>2026-03-22T09:56:49.272Z</time></trkpt><trkpt lat="45.5071233" lon="8.71883"><ele>132.66666666666669</ele><time>2026-03-22T09:56:50.272Z</time></trkpt><trkpt lat="45.5069983" lon="8.7187083"><ele>132.33333333333334</ele><time>2026-03-22T09:56:51.272Z</time></trkpt><trkpt lat="45.5068633" lon="8.7185867"><ele>132.0</ele><time>2026-03-22T09:56:52.272Z</time></trkpt><trkpt lat="45.506735" lon="8.718475"><ele>132.75</ele><time>2026-03-22T09:56:53.272Z</time></trkpt><trkpt lat="45.5066117" lon="8.7183767"><ele>133.5</ele><time>2026-03-22T09:56:54.272Z</time></trkpt><trkpt lat="45.5064967" lon="8.7182667"><ele>134.25</ele><time>2026-03-22T09:56:55.272Z</time></trkpt><trkpt lat="45.50638" lon="8.7181733"><ele>135.0</ele><time>2026-03-22T09:56:56.272Z</time></trkpt><trkpt lat="45.5062617" lon="8.7181067"><ele>135.5</ele><time>2026-03-22T09:56:57.272Z</time></trkpt><trkpt lat="45.5061383" lon="8.7180867"><ele>136.0</ele><time>2026-03-22T09:56:58.272Z</time></trkpt><trkpt lat="45.506" lon="8.718145"><ele>136.5</ele><time>2026-03-22T09:56:59.272Z</time></trkpt><trkpt lat="45.5058717" lon="8.718235"><ele>137.0</ele><time>2026-03-22T09:57:00.272Z</time></trkpt><trkpt lat="45.505735" lon="8.718335"><ele>137.0</ele><time>2026-03-22T09:57:01.272Z</time></trkpt><trkpt lat="45.5055983" lon="8.7184633"><ele>137.0</ele><time>2026-03-22T09:57:02.272Z</time></trkpt><trkpt lat="45.505465" lon="8.7185867"><ele>137.0</ele><time>2026-03-22T09:57:03.272Z</time></trkpt><trkpt lat="45.5053383" lon="8.7187017"><ele>139.33333333333331</ele><time>2026-03-22T09:57:04.272Z</time></trkpt><trkpt lat="45.5051983" lon="8.718825"><ele>141.66666666666666</ele><time>2026-03-22T09:57:05.272Z</time></trkpt><trkpt lat="45.5050617" lon="8.71895"><ele>144.0</ele><time>2026-03-22T09:57:06.272Z</time></trkpt><trkpt lat="45.5049267" lon="8.719085"><ele>144.0</ele><time>2026-03-22T09:57:07.272Z</time></trkpt><trkpt lat="45.5047867" lon="8.71923"><ele>144.0</ele><time>2026-03-22T09:57:08.272Z</time></trkpt><trkpt lat="45.5046467" lon="8.7193617"><ele>144.0</ele><time>2026-03-22T09:57:09.272Z</time></trkpt><trkpt lat="45.5045083" lon="8.7194867"><ele>145.0</ele><time>2026-03-22T09:57:10.272Z</time></trkpt><trkpt lat="45.5043767" lon="8.7196217"><ele>146.0</ele><time>2026-03-22T09:57:11.272Z</time></trkpt><trkpt lat="45.504245" lon="8.7197483"><ele>147.0</ele><time>2026-03-22T09:57:12.272Z</time></trkpt><trkpt lat="45.5041167" lon="8.7198767"><ele>147.0</ele><time>2026-03-22T09:57:13.272Z</time></trkpt><trkpt lat="45.5039817" lon="8.719985"><ele>147.0</ele><time>2026-03-22T09:57:14.272Z</time></trkpt><trkpt lat="45.503845" lon="8.7200583"><ele>147.0</ele><time>2026-03-22T09:57:15.272Z</time></trkpt><trkpt lat="45.5036983" lon="8.72011"><ele>152.0</ele><time>2026-03-22T09:57:16.272Z</time></trkpt><trkpt lat="45.5035383" lon="8.7201217"><ele>157.0</ele><time>2026-03-22T09:57:17.272Z</time></trkpt><trkpt lat="45.50338" lon="8.7201133"><ele>162.0</ele><time>2026-03-22T09:57:18.272Z</time></trkpt><trkpt lat="45.5032167" lon="8.7200833"><ele>162.0</ele><time>2026-03-22T09:57:19.272Z</time></trkpt><trkpt lat="45.5030517" lon="8.7200517"><ele>162.0</ele><time>2026-03-22T09:57:20.272Z</time></trkpt><trkpt lat="45.5028933" lon="8.7200183"><ele>162.0</ele><time>2026-03-22T09:57:21.272Z</time></trkpt><trkpt lat="45.5027383" lon="8.7199833"><ele>162.75</ele><time>2026-03-22T09:57:22.272Z</time></trkpt><trkpt lat="45.5025917" lon="8.7199633"><ele>163.5</ele><time>2026-03-22T09:57:23.272Z</time></trkpt><trkpt lat="45.50245" lon="8.7199517"><ele>164.25</ele><time>2026-03-22T09:57:24.272Z</time></trkpt><trkpt lat="45.50231" lon="8.719935"><ele>165.0</ele><time>2026-03-22T09:57:25.272Z</time></trkpt><trkpt lat="45.5021633" lon="8.7199183"><ele>165.0</ele><time>2026-03-22T09:57:26.272Z</time></trkpt><trkpt lat="45.502025" lon="8.7198933"><ele>165.0</ele><time>2026-03-22T09:57:27.272Z</time></trkpt><trkpt lat="45.5018883" lon="8.7198683"><ele>165.0</ele><time>2026-03-22T09:57:28.272Z</time></trkpt><trkpt lat="45.5017533" lon="8.7198483"><ele>165.0</ele><time>2026-03-22T09:57:29.272Z</time></trkpt><trkpt lat="45.5016217" lon="8.7198317"><ele>165.0</ele><time>2026-03-22T09:57:30.272Z</time></trkpt><trkpt lat="45.501485" lon="8.7198017"><ele>165.0</ele><time>2026-03-22T09:57:31.272Z</time></trkpt><trkpt lat="45.5013617" lon="8.7197883"><ele>165.0</ele><time>2026-03-22T09:57:32.272Z</time></trkpt><trkpt lat="45.501255" lon="8.7197867"><ele>165.0</ele><time>2026-03-22T09:57:33.272Z</time></trkpt><trkpt lat="45.5011767" lon="8.71978"><ele>165.0</ele><time>2026-03-22T09:57:34.272Z</time></trkpt><trkpt lat="45.5010917" lon="8.7197667"><ele>164.0</ele><time>2026-03-22T09:57:36.272Z</time></trkpt><trkpt lat="45.5009967" lon="8.7197783"><ele>163.0</ele><time>2026-03-22T09:57:39.272Z</time></trkpt><trkpt lat="45.5009483" lon="8.719845"><ele>162.0</ele><time>2026-03-22T09:57:40.272Z</time></trkpt><trkpt lat="45.5008867" lon="8.7199417"><ele>161.0</ele><time>2026-03-22T09:57:41.272Z</time></trkpt><trkpt lat="45.5008033" lon="8.720055"><ele>160.0</ele><time>2026-03-22T09:57:42.272Z</time></trkpt><trkpt lat="45.5006983" lon="8.720175"><ele>159.75</ele><time>2026-03-22T09:57:43.272Z</time></trkpt><trkpt lat="45.5005933" lon="8.72029"><ele>159.5</ele><time>2026-03-22T09:57:44.272Z</time></trkpt><trkpt lat="45.5004733" lon="8.72041"><ele>159.25</ele><time>2026-03-22T09:57:45.272Z</time></trkpt><trkpt lat="45.500345" lon="8.7205167"><ele>159.0</ele><time>2026-03-22T09:57:46.272Z</time></trkpt><trkpt lat="45.500215" lon="8.7206317"><ele>158.33333333333334</ele><time>2026-03-22T09:57:47.272Z</time></trkpt><trkpt lat="45.500085" lon="8.720745"><ele>157.66666666666669</ele><time>2026-03-22T09:57:48.272Z</time></trkpt><trkpt lat="45.4999633" lon="8.720865"><ele>157.0</ele><time>2026-03-22T09:57:49.272Z</time></trkpt><trkpt lat="45.4998367" lon="8.72098"><ele>157.0</ele><time>2026-03-22T09:57:50.272Z</time></trkpt><trkpt lat="45.4997217" lon="8.7210933"><ele>157.0</ele><time>2026-03-22T09:57:51.272Z</time></trkpt><trkpt lat="45.4996083" lon="8.7211917"><ele>157.0</ele><time>2026-03-22T09:57:52.272Z</time></trkpt><trkpt lat="45.499495" lon="8.7212783"><ele>157.0</ele><time>2026-03-22T09:57:53.272Z</time></trkpt><trkpt lat="45.499385" lon="8.7213633"><ele>157.0</ele><time>2026-03-22T09:57:54.272Z</time></trkpt><trkpt lat="45.49929" lon="8.7214433"><ele>157.0</ele><time>2026-03-22T09:57:55.272Z</time></trkpt><trkpt lat="45.4992033" lon="8.7215317"><ele>157.0</ele><time>2026-03-22T09:57:56.272Z</time></trkpt><trkpt lat="45.4991133" lon="8.7216117"><ele>157.0</ele><time>2026-03-22T09:57:57.272Z</time></trkpt><trkpt lat="45.4990267" lon="8.72169"><ele>157.0</ele><time>2026-03-22T09:57:58.272Z</time></trkpt><trkpt lat="45.4989333" lon="8.72177"><ele>157.0</ele><time>2026-03-22T09:57:59.272Z</time></trkpt><trkpt lat="45.4988417" lon="8.7218567"><ele>157.0</ele><time>2026-03-22T09:58:00.272Z</time></trkpt><trkpt lat="45.4987467" lon="8.721945"><ele>157.0</ele><time>2026-03-22T09:58:01.272Z</time></trkpt><trkpt lat="45.49865" lon="8.7220333"><ele>157.0</ele><time>2026-03-22T09:58:02.273Z</time></trkpt><trkpt lat="45.4985567" lon="8.7221183"><ele>157.0</ele><time>2026-03-22T09:58:03.272Z</time></trkpt><trkpt lat="45.4984667" lon="8.7222067"><ele>157.5</ele><time>2026-03-22T09:58:04.272Z</time></trkpt><trkpt lat="45.4983733" lon="8.7223133"><ele>158.0</ele><time>2026-03-22T09:58:05.272Z</time></trkpt><trkpt lat="45.4982783" lon="8.7224117"><ele>158.5</ele><time>2026-03-22T09:58:06.272Z</time></trkpt><trkpt lat="45.498175" lon="8.7225167"><ele>159.0</ele><time>2026-03-22T09:58:07.272Z</time></trkpt><trkpt lat="45.498075" lon="8.7226033"><ele>159.0</ele><time>2026-03-22T09:58:08.272Z</time></trkpt><trkpt lat="45.4979967" lon="8.7226717"><ele>159.0</ele><time>2026-03-22T09:58:09.272Z</time></trkpt><trkpt lat="45.4979183" lon="8.7227383"><ele>159.0</ele><time>2026-03-22T09:58:10.272Z</time></trkpt><trkpt lat="45.4978367" lon="8.7228017"><ele>159.0</ele><time>2026-03-22T09:58:11.272Z</time></trkpt><trkpt lat="45.4977617" lon="8.722865"><ele>159.0</ele><time>2026-03-22T09:58:12.272Z</time></trkpt><trkpt lat="45.4976783" lon="8.72296"><ele>157.83333333333334</ele><time>2026-03-22T09:58:14.272Z</time></trkpt><trkpt lat="45.4976317" lon="8.72306"><ele>156.66666666666666</ele><time>2026-03-22T09:58:17.272Z</time></trkpt><trkpt lat="45.49764" lon="8.72318"><ele>155.5</ele><time>2026-03-22T09:58:19.272Z</time></trkpt><trkpt lat="45.4976683" lon="8.7232617"><ele>154.33333333333331</ele><time>2026-03-22T09:58:20.272Z</time></trkpt><trkpt lat="45.4976983" lon="8.7233517"><ele>153.16666666666666</ele><time>2026-03-22T09:58:21.272Z</time></trkpt><trkpt lat="45.4977033" lon="8.72345"><ele>152.0</ele><time>2026-03-22T09:58:22.272Z</time></trkpt><trkpt lat="45.497675" lon="8.723605"><ele>152.0</ele><time>2026-03-22T09:58:24.272Z</time></trkpt><trkpt lat="45.4976317" lon="8.72376"><ele>152.0</ele><time>2026-03-22T09:58:26.272Z</time></trkpt><trkpt lat="45.4975933" lon="8.72385"><ele>152.0</ele><time>2026-03-22T09:58:27.272Z</time></trkpt><trkpt lat="45.4975433" lon="8.7239483"><ele>152.0</ele><time>2026-03-22T09:58:28.272Z</time></trkpt><trkpt lat="45.49749" lon="8.724055"><ele>152.0</ele><time>2026-03-22T09:58:29.272Z</time></trkpt><trkpt lat="45.4974367" lon="8.72416"><ele>152.0</ele><time>2026-03-22T09:58:30.272Z</time></trkpt><trkpt lat="45.4973317" lon="8.7243567"><ele>152.0</ele><time>2026-03-22T09:58:32.271Z</time></trkpt><trkpt lat="45.497285" lon="8.7244333"><ele>152.0</ele><time>2026-03-22T09:58:33.271Z</time></trkpt><trkpt lat="45.4972233" lon="8.7245467"><ele>152.0</ele><time>2026-03-22T09:58:35.271Z</time></trkpt><trkpt lat="45.4971667" lon="8.7246333"><ele>152.0</ele><time>2026-03-22T09:58:37.271Z</time></trkpt><trkpt lat="45.49713" lon="8.7247133"><ele>152.0</ele><time>2026-03-22T09:58:39.271Z</time></trkpt><trkpt lat="45.497095" lon="8.7247983"><ele>152.0</ele><time>2026-03-22T09:58:41.271Z</time></trkpt><trkpt lat="45.497045" lon="8.7249233"><ele>152.0</ele><time>2026-03-22T09:58:43.271Z</time></trkpt><trkpt lat="45.4969833" lon="8.7250733"><ele>152.0</ele><time>2026-03-22T09:58:45.271Z</time></trkpt><trkpt lat="45.49694" lon="8.72514"><ele>152.0</ele><time>2026-03-22T09:58:46.271Z</time></trkpt><trkpt lat="45.496865" lon="8.72521"><ele>152.0</ele><time>2026-03-22T09:58:48.271Z</time></trkpt><trkpt lat="45.4968067" lon="8.7252617"><ele>152.0</ele><time>2026-03-22T09:58:51.271Z</time></trkpt><trkpt lat="45.496785" lon="8.7253583"><ele>152.0</ele><time>2026-03-22T09:58:58.271Z</time></trkpt><trkpt lat="45.496735" lon="8.72546"><ele>152.0</ele><time>2026-03-22T09:59:00.271Z</time></trkpt><trkpt lat="45.4966567" lon="8.7255983"><ele>152.0</ele><time>2026-03-22T09:59:03.271Z</time></trkpt><trkpt lat="45.4966167" lon="8.7257017"><ele>152.0</ele><time>2026-03-22T09:59:06.271Z</time></trkpt><trkpt lat="45.496675" lon="8.7256317"><ele>152.0</ele><time>2026-03-22T09:59:16.271Z</time></trkpt><trkpt lat="45.4967983" lon="8.72539"><ele>152.0</ele><time>2026-03-22T09:59:19.271Z</time></trkpt><trkpt lat="45.496845" lon="8.7253083"><ele>152.0</ele><time>2026-03-22T09:59:20.271Z</time></trkpt><trkpt lat="45.4969083" lon="8.7252033"><ele>152.0</ele><time>2026-03-22T09:59:21.271Z</time></trkpt><trkpt lat="45.4969733" lon="8.7250783"><ele>152.0</ele><time>2026-03-22T09:59:22.271Z</time></trkpt><trkpt lat="45.497045" lon="8.7249533"><ele>152.0</ele><time>2026-03-22T09:59:23.271Z</time></trkpt><trkpt lat="45.49712" lon="8.724805"><ele>152.0</ele><time>2026-03-22T09:59:24.271Z</time></trkpt><trkpt lat="45.49719" lon="8.72467"><ele>152.0</ele><time>2026-03-22T09:59:25.271Z</time></trkpt><trkpt lat="45.4972567" lon="8.7245367"><ele>152.0</ele><time>2026-03-22T09:59:26.271Z</time></trkpt><trkpt lat="45.4973217" lon="8.7244"><ele>152.0</ele><time>2026-03-22T09:59:27.271Z</time></trkpt><trkpt lat="45.4973833" lon="8.7242667"><ele>152.0</ele><time>2026-03-22T09:59:28.271Z</time></trkpt><trkpt lat="45.4974433" lon="8.7241333"><ele>152.0</ele><time>2026-03-22T09:59:29.271Z</time></trkpt><trkpt lat="45.4975117" lon="8.72401"><ele>152.0</ele><time>2026-03-22T09:59:30.271Z</time></trkpt><trkpt lat="45.4975767" lon="8.72389"><ele>152.0</ele><time>2026-03-22T09:59:31.271Z</time></trkpt><trkpt lat="45.497625" lon="8.7237833"><ele>152.0</ele><time>2026-03-22T09:59:32.271Z</time></trkpt><trkpt lat="45.4976667" lon="8.723695"><ele>152.0</ele><time>2026-03-22T09:59:33.271Z</time></trkpt><trkpt lat="45.4977383" lon="8.7236217"><ele>152.0</ele><time>2026-03-22T09:59:35.271Z</time></trkpt><trkpt lat="45.4978067" lon="8.7236967"><ele>152.0</ele><time>2026-03-22T09:59:38.271Z</time></trkpt><trkpt lat="45.49779" lon="8.72386"><ele>152.0</ele><time>2026-03-22T09:59:40.271Z</time></trkpt><trkpt lat="45.4977483" lon="8.723995"><ele>152.0</ele><time>2026-03-22T09:59:41.271Z</time></trkpt><trkpt lat="45.497685" lon="8.7241417"><ele>152.0</ele><time>2026-03-22T09:59:42.271Z</time></trkpt><trkpt lat="45.4976133" lon="8.7242983"><ele>152.0</ele><time>2026-03-22T09:59:43.271Z</time></trkpt><trkpt lat="45.49754" lon="8.7244417"><ele>152.0</ele><time>2026-03-22T09:59:44.271Z</time></trkpt><trkpt lat="45.4974683" lon="8.72458"><ele>152.0</ele><time>2026-03-22T09:59:45.271Z</time></trkpt><trkpt lat="45.4974017" lon="8.7247167"><ele>150.5</ele><time>2026-03-22T09:59:46.271Z</time></trkpt><trkpt lat="45.4972017" lon="8.7251433"><ele>149.0</ele><time>2026-03-22T09:59:49.271Z</time></trkpt><trkpt lat="45.4971417" lon="8.7252733"><ele>149.0</ele><time>2026-03-22T09:59:50.271Z</time></trkpt><trkpt lat="45.497095" lon="8.7254083"><ele>149.0</ele><time>2026-03-22T09:59:51.271Z</time></trkpt><trkpt lat="45.4970617" lon="8.72555"><ele>149.0</ele><time>2026-03-22T09:59:52.271Z</time></trkpt><trkpt lat="45.4970567" lon="8.7256833"><ele>149.0</ele><time>2026-03-22T09:59:53.271Z</time></trkpt><trkpt lat="45.4970617" lon="8.7258133"><ele>149.0</ele><time>2026-03-22T09:59:54.271Z</time></trkpt><trkpt lat="45.4970883" lon="8.7259317"><ele>149.0</ele><time>2026-03-22T09:59:55.271Z</time></trkpt><trkpt lat="45.4971467" lon="8.72603"><ele>149.0</ele><time>2026-03-22T09:59:56.271Z</time></trkpt><trkpt lat="45.4972183" lon="8.7260967"><ele>149.0</ele><time>2026-03-22T09:59:57.271Z</time></trkpt><trkpt lat="45.49731" lon="8.7261217"><ele>149.0</ele><time>2026-03-22T09:59:58.271Z</time></trkpt><trkpt lat="45.497435" lon="8.726055"><ele>149.0</ele><time>2026-03-22T09:59:59.271Z</time></trkpt><trkpt lat="45.49754" lon="8.7259617"><ele>149.0</ele><time>2026-03-22T10:00:00.271Z</time></trkpt><trkpt lat="45.4976333" lon="8.725855"><ele>149.0</ele><time>2026-03-22T10:00:01.271Z</time></trkpt><trkpt lat="45.497735" lon="8.72575"><ele>149.0</ele><time>2026-03-22T10:00:02.271Z</time></trkpt><trkpt lat="45.4978217" lon="8.725635"><ele>149.0</ele><time>2026-03-22T10:00:03.271Z</time></trkpt><trkpt lat="45.4979117" lon="8.72551"><ele>147.75</ele><time>2026-03-22T10:00:04.271Z</time></trkpt><trkpt lat="45.4979967" lon="8.7253817"><ele>146.5</ele><time>2026-03-22T10:00:05.271Z</time></trkpt><trkpt lat="45.49808" lon="8.7252567"><ele>145.25</ele><time>2026-03-22T10:00:06.271Z</time></trkpt><trkpt lat="45.4981583" lon="8.7251267"><ele>144.0</ele><time>2026-03-22T10:00:07.271Z</time></trkpt><trkpt lat="45.49824" lon="8.7250067"><ele>144.0</ele><time>2026-03-22T10:00:08.271Z</time></trkpt><trkpt lat="45.4983267" lon="8.7248867"><ele>144.0</ele><time>2026-03-22T10:00:09.271Z</time></trkpt><trkpt lat="45.4984183" lon="8.7247567"><ele>144.0</ele><time>2026-03-22T10:00:10.271Z</time></trkpt><trkpt lat="45.4985017" lon="8.72463"><ele>144.0</ele><time>2026-03-22T10:00:11.271Z</time></trkpt><trkpt lat="45.49859" lon="8.724505"><ele>143.25</ele><time>2026-03-22T10:00:12.271Z</time></trkpt><trkpt lat="45.4986617" lon="8.72437"><ele>142.5</ele><time>2026-03-22T10:00:13.271Z</time></trkpt><trkpt lat="45.4987517" lon="8.7242433"><ele>141.75</ele><time>2026-03-22T10:00:14.271Z</time></trkpt><trkpt lat="45.49885" lon="8.7241333"><ele>141.0</ele><time>2026-03-22T10:00:15.271Z</time></trkpt><trkpt lat="45.4989367" lon="8.7240233"><ele>141.0</ele><time>2026-03-22T10:00:16.271Z</time></trkpt><trkpt lat="45.4990217" lon="8.723925"><ele>141.0</ele><time>2026-03-22T10:00:17.271Z</time></trkpt><trkpt lat="45.4991017" lon="8.7238333"><ele>141.0</ele><time>2026-03-22T10:00:18.271Z</time></trkpt><trkpt lat="45.4991867" lon="8.7237633"><ele>141.0</ele><time>2026-03-22T10:00:19.271Z</time></trkpt><trkpt lat="45.4992717" lon="8.7237217"><ele>141.0</ele><time>2026-03-22T10:00:20.271Z</time></trkpt><trkpt lat="45.4993583" lon="8.7237"><ele>141.0</ele><time>2026-03-22T10:00:21.271Z</time></trkpt><trkpt lat="45.4994517" lon="8.7237217"><ele>141.0</ele><time>2026-03-22T10:00:22.271Z</time></trkpt><trkpt lat="45.4995583" lon="8.7237883"><ele>141.0</ele><time>2026-03-22T10:00:23.271Z</time></trkpt><trkpt lat="45.4996617" lon="8.7238683"><ele>141.0</ele><time>2026-03-22T10:00:24.271Z</time></trkpt><trkpt lat="45.4997583" lon="8.72399"><ele>138.8</ele><time>2026-03-22T10:00:25.271Z</time></trkpt><trkpt lat="45.4998467" lon="8.7241083"><ele>136.6</ele><time>2026-03-22T10:00:26.271Z</time></trkpt><trkpt lat="45.4999267" lon="8.72422"><ele>134.4</ele><time>2026-03-22T10:00:27.271Z</time></trkpt><trkpt lat="45.500005" lon="8.7243117"><ele>132.2</ele><time>2026-03-22T10:00:28.271Z</time></trkpt><trkpt lat="45.50008" lon="8.7244033"><ele>130.0</ele><time>2026-03-22T10:00:29.271Z</time></trkpt><trkpt lat="45.5001533" lon="8.7244867"><ele>130.0</ele><time>2026-03-22T10:00:30.271Z</time></trkpt><trkpt lat="45.5002233" lon="8.724565"><ele>130.0</ele><time>2026-03-22T10:00:31.271Z</time></trkpt><trkpt lat="45.500295" lon="8.72464"><ele>130.0</ele><time>2026-03-22T10:00:32.271Z</time></trkpt><trkpt lat="45.5003583" lon="8.724715"><ele>130.0</ele><time>2026-03-22T10:00:33.271Z</time></trkpt><trkpt lat="45.50041" lon="8.7247983"><ele>130.0</ele><time>2026-03-22T10:00:34.271Z</time></trkpt><trkpt lat="45.50046" lon="8.7248767"><ele>130.0</ele><time>2026-03-22T10:00:35.271Z</time></trkpt><trkpt lat="45.50051" lon="8.724955"><ele>131.0</ele><time>2026-03-22T10:00:36.271Z</time></trkpt><trkpt lat="45.50055" lon="8.7250317"><ele>132.0</ele><time>2026-03-22T10:00:37.271Z</time></trkpt><trkpt lat="45.5006017" lon="8.7251733"><ele>133.0</ele><time>2026-03-22T10:00:39.271Z</time></trkpt><trkpt lat="45.5006517" lon="8.7253217"><ele>134.0</ele><time>2026-03-22T10:00:41.271Z</time></trkpt><trkpt lat="45.500705" lon="8.7254817"><ele>135.0</ele><time>2026-03-22T10:00:43.271Z</time></trkpt><trkpt lat="45.5007583" lon="8.7256367"><ele>135.0</ele><time>2026-03-22T10:00:45.271Z</time></trkpt><trkpt lat="45.500815" lon="8.7258017"><ele>135.0</ele><time>2026-03-22T10:00:47.271Z</time></trkpt><trkpt lat="45.5008417" lon="8.725885"><ele>135.0</ele><time>2026-03-22T10:00:48.271Z</time></trkpt><trkpt lat="45.5008967" lon="8.72605"><ele>135.0</ele><time>2026-03-22T10:00:50.271Z</time></trkpt><trkpt lat="45.5009467" lon="8.7262083"><ele>135.0</ele><time>2026-03-22T10:00:52.271Z</time></trkpt><trkpt lat="45.5009517" lon="8.7263"><ele>135.0</ele><time>2026-03-22T10:00:53.271Z</time></trkpt><trkpt lat="45.5009517" lon="8.7264033"><ele>135.0</ele><time>2026-03-22T10:00:54.271Z</time></trkpt><trkpt lat="45.50095" lon="8.7265067"><ele>135.0</ele><time>2026-03-22T10:00:55.271Z</time></trkpt><trkpt lat="45.5009283" lon="8.7266083"><ele>135.0</ele><time>2026-03-22T10:00:56.271Z</time></trkpt><trkpt lat="45.500895" lon="8.7267033"><ele>135.0</ele><time>2026-03-22T10:00:57.271Z</time></trkpt><trkpt lat="45.500855" lon="8.726805"><ele>135.0</ele><time>2026-03-22T10:00:58.271Z</time></trkpt><trkpt lat="45.5008183" lon="8.7269217"><ele>135.0</ele><time>2026-03-22T10:00:59.271Z</time></trkpt><trkpt lat="45.5007733" lon="8.7270417"><ele>135.0</ele><time>2026-03-22T10:01:00.271Z</time></trkpt><trkpt lat="45.5007217" lon="8.727145"><ele>135.0</ele><time>2026-03-22T10:01:01.271Z</time></trkpt><trkpt lat="45.500665" lon="8.727235"><ele>135.0</ele><time>2026-03-22T10:01:02.271Z</time></trkpt><trkpt lat="45.5006017" lon="8.7273083"><ele>135.0</ele><time>2026-03-22T10:01:03.271Z</time></trkpt><trkpt lat="45.5005333" lon="8.727365"><ele>135.0</ele><time>2026-03-22T10:01:04.271Z</time></trkpt><trkpt lat="45.5004633" lon="8.7274167"><ele>134.42857142857142</ele><time>2026-03-22T10:01:05.271Z</time></trkpt><trkpt lat="45.5003917" lon="8.7274667"><ele>133.85714285714283</ele><time>2026-03-22T10:01:06.271Z</time></trkpt><trkpt lat="45.5003233" lon="8.7275183"><ele>133.28571428571428</ele><time>2026-03-22T10:01:07.271Z</time></trkpt><trkpt lat="45.5002517" lon="8.7275667"><ele>132.71428571428572</ele><time>2026-03-22T10:01:08.271Z</time></trkpt><trkpt lat="45.5001917" lon="8.7275967"><ele>132.14285714285717</ele><time>2026-03-22T10:01:09.271Z</time></trkpt><trkpt lat="45.5001383" lon="8.7276467"><ele>131.57142857142858</ele><time>2026-03-22T10:01:10.271Z</time></trkpt><trkpt lat="45.50008" lon="8.7277033"><ele>131.0</ele><time>2026-03-22T10:01:11.271Z</time></trkpt><trkpt lat="45.50003" lon="8.7277733"><ele>130.2</ele><time>2026-03-22T10:01:12.271Z</time></trkpt><trkpt lat="45.49999" lon="8.7278683"><ele>129.39999999999998</ele><time>2026-03-22T10:01:13.271Z</time></trkpt><trkpt lat="45.4999517" lon="8.7279983"><ele>128.6</ele><time>2026-03-22T10:01:14.271Z</time></trkpt><trkpt lat="45.4999317" lon="8.7281333"><ele>127.8</ele><time>2026-03-22T10:01:15.271Z</time></trkpt><trkpt lat="45.4999117" lon="8.728275"><ele>127.0</ele><time>2026-03-22T10:01:16.271Z</time></trkpt><trkpt lat="45.499905" lon="8.728405"><ele>127.00000000000001</ele><time>2026-03-22T10:01:17.271Z</time></trkpt><trkpt lat="45.4999017" lon="8.7285433"><ele>127.0</ele><time>2026-03-22T10:01:18.271Z</time></trkpt><trkpt lat="45.4999083" lon="8.7286733"><ele>127.0</ele><time>2026-03-22T10:01:19.271Z</time></trkpt><trkpt lat="45.499915" lon="8.7288033"><ele>127.0</ele><time>2026-03-22T10:01:20.271Z</time></trkpt><trkpt lat="45.4999217" lon="8.72892"><ele>127.00000000000001</ele><time>2026-03-22T10:01:21.271Z</time></trkpt><trkpt lat="45.499925" lon="8.7290217"><ele>127.0</ele><time>2026-03-22T10:01:22.271Z</time></trkpt><trkpt lat="45.499935" lon="8.7291117"><ele>127.33333333333334</ele><time>2026-03-22T10:01:23.271Z</time></trkpt><trkpt lat="45.4999467" lon="8.7292533"><ele>127.66666666666667</ele><time>2026-03-22T10:01:25.271Z</time></trkpt><trkpt lat="45.4999617" lon="8.7293883"><ele>128.0</ele><time>2026-03-22T10:01:27.271Z</time></trkpt><trkpt lat="45.4999883" lon="8.7295"><ele>128.33333333333334</ele><time>2026-03-22T10:01:29.271Z</time></trkpt><trkpt lat="45.5000067" lon="8.7296167"><ele>128.66666666666666</ele><time>2026-03-22T10:01:31.271Z</time></trkpt><trkpt lat="45.5000267" lon="8.7297033"><ele>129.0</ele><time>2026-03-22T10:01:33.271Z</time></trkpt><trkpt lat="45.500045" lon="8.7298217"><ele>129.14285714285714</ele><time>2026-03-22T10:01:35.271Z</time></trkpt><trkpt lat="45.5000467" lon="8.729945"><ele>129.28571428571428</ele><time>2026-03-22T10:01:37.271Z</time></trkpt><trkpt lat="45.5000517" lon="8.7300417"><ele>129.42857142857144</ele><time>2026-03-22T10:01:39.271Z</time></trkpt><trkpt lat="45.5000683" lon="8.73014"><ele>129.57142857142856</ele><time>2026-03-22T10:01:42.271Z</time></trkpt><trkpt lat="45.5000867" lon="8.730245"><ele>129.71428571428572</ele><time>2026-03-22T10:01:46.271Z</time></trkpt><trkpt lat="45.50005" lon="8.730325"><ele>129.85714285714286</ele><time>2026-03-22T10:01:50.271Z</time></trkpt><trkpt lat="45.5000617" lon="8.7302183"><ele>130.0</ele><time>2026-03-22T10:02:06.271Z</time></trkpt><trkpt lat="45.5000767" lon="8.730125"><ele>130.0</ele><time>2026-03-22T10:02:08.271Z</time></trkpt><trkpt lat="45.5000767" lon="8.7300117"><ele>130.0</ele><time>2026-03-22T10:02:10.271Z</time></trkpt><trkpt lat="45.5000667" lon="8.7298717"><ele>130.0</ele><time>2026-03-22T10:02:12.271Z</time></trkpt><trkpt lat="45.5000567" lon="8.7297283"><ele>130.0</ele><time>2026-03-22T10:02:14.271Z</time></trkpt><trkpt lat="45.500045" lon="8.72963"><ele>130.0</ele><time>2026-03-22T10:02:15.271Z</time></trkpt><trkpt lat="45.5000333" lon="8.729525"><ele>130.0</ele><time>2026-03-22T10:02:16.271Z</time></trkpt><trkpt lat="45.500015" lon="8.7294167"><ele>129.85714285714286</ele><time>2026-03-22T10:02:17.271Z</time></trkpt><trkpt lat="45.499995" lon="8.7293167"><ele>129.71428571428572</ele><time>2026-03-22T10:02:18.271Z</time></trkpt><trkpt lat="45.4999683" lon="8.729225"><ele>129.57142857142856</ele><time>2026-03-22T10:02:19.271Z</time></trkpt><trkpt lat="45.499955" lon="8.7291283"><ele>129.42857142857144</ele><time>2026-03-22T10:02:20.271Z</time></trkpt><trkpt lat="45.499935" lon="8.7290383"><ele>129.28571428571428</ele><time>2026-03-22T10:02:21.271Z</time></trkpt><trkpt lat="45.499925" lon="8.7289367"><ele>129.14285714285714</ele><time>2026-03-22T10:02:22.271Z</time></trkpt><trkpt lat="45.49992" lon="8.7288267"><ele>129.0</ele><time>2026-03-22T10:02:23.271Z</time></trkpt><trkpt lat="45.4999383" lon="8.728565"><ele>128.6</ele><time>2026-03-22T10:02:25.271Z</time></trkpt><trkpt lat="45.4999467" lon="8.7284133"><ele>128.2</ele><time>2026-03-22T10:02:26.271Z</time></trkpt><trkpt lat="45.4999517" lon="8.728275"><ele>127.79999999999998</ele><time>2026-03-22T10:02:27.271Z</time></trkpt><trkpt lat="45.499955" lon="8.7281317"><ele>127.39999999999999</ele><time>2026-03-22T10:02:28.271Z</time></trkpt><trkpt lat="45.49998" lon="8.7279783"><ele>127.0</ele><time>2026-03-22T10:02:29.271Z</time></trkpt><trkpt lat="45.5000283" lon="8.7278533"><ele>127.0</ele><time>2026-03-22T10:02:30.271Z</time></trkpt><trkpt lat="45.5000917" lon="8.72775"><ele>126.99999999999999</ele><time>2026-03-22T10:02:31.271Z</time></trkpt><trkpt lat="45.5001683" lon="8.7276483"><ele>126.99999999999999</ele><time>2026-03-22T10:02:32.271Z</time></trkpt><trkpt lat="45.500265" lon="8.7275567"><ele>127.0</ele><time>2026-03-22T10:02:33.271Z</time></trkpt><trkpt lat="45.5003733" lon="8.72747"><ele>127.0</ele><time>2026-03-22T10:02:34.271Z</time></trkpt><trkpt lat="45.5004883" lon="8.7273733"><ele>128.5</ele><time>2026-03-22T10:02:35.271Z</time></trkpt><trkpt lat="45.5006" lon="8.7272867"><ele>130.0</ele><time>2026-03-22T10:02:36.271Z</time></trkpt><trkpt lat="45.500705" lon="8.72718"><ele>131.5</ele><time>2026-03-22T10:02:37.271Z</time></trkpt><trkpt lat="45.50079" lon="8.72705"><ele>133.0</ele><time>2026-03-22T10:02:38.271Z</time></trkpt><trkpt lat="45.5008517" lon="8.7268883"><ele>133.0</ele><time>2026-03-22T10:02:39.271Z</time></trkpt><trkpt lat="45.5009083" lon="8.7267267"><ele>133.0</ele><time>2026-03-22T10:02:40.271Z</time></trkpt><trkpt lat="45.5009417" lon="8.726545"><ele>133.0</ele><time>2026-03-22T10:02:41.271Z</time></trkpt><trkpt lat="45.5009667" lon="8.7263683"><ele>133.0</ele><time>2026-03-22T10:02:42.271Z</time></trkpt><trkpt lat="45.5009733" lon="8.7262"><ele>133.5</ele><time>2026-03-22T10:02:43.271Z</time></trkpt><trkpt lat="45.5009367" lon="8.7260183"><ele>134.0</ele><time>2026-03-22T10:02:44.271Z</time></trkpt><trkpt lat="45.5008767" lon="8.725835"><ele>134.5</ele><time>2026-03-22T10:02:45.271Z</time></trkpt><trkpt lat="45.500795" lon="8.72563"><ele>135.0</ele><time>2026-03-22T10:02:46.271Z</time></trkpt><trkpt lat="45.50072" lon="8.725435"><ele>135.0</ele><time>2026-03-22T10:02:47.271Z</time></trkpt><trkpt lat="45.5006483" lon="8.72525"><ele>135.0</ele><time>2026-03-22T10:02:48.271Z</time></trkpt><trkpt lat="45.5005867" lon="8.7250917"><ele>135.0</ele><time>2026-03-22T10:02:49.271Z</time></trkpt><trkpt lat="45.500525" lon="8.72494"><ele>135.0</ele><time>2026-03-22T10:02:50.271Z</time></trkpt><trkpt lat="45.5000483" lon="8.72427"><ele>133.75</ele><time>2026-03-22T10:02:55.271Z</time></trkpt><trkpt lat="45.4999483" lon="8.7241283"><ele>132.5</ele><time>2026-03-22T10:02:56.271Z</time></trkpt><trkpt lat="45.4998317" lon="8.7240317"><ele>131.25</ele><time>2026-03-22T10:02:57.271Z</time></trkpt><trkpt lat="45.4997217" lon="8.72391"><ele>130.0</ele><time>2026-03-22T10:02:58.271Z</time></trkpt><trkpt lat="45.4996183" lon="8.72381"><ele>132.75</ele><time>2026-03-22T10:02:59.271Z</time></trkpt><trkpt lat="45.499505" lon="8.7237467"><ele>135.5</ele><time>2026-03-22T10:03:00.271Z</time></trkpt><trkpt lat="45.499385" lon="8.7237167"><ele>138.25</ele><time>2026-03-22T10:03:01.271Z</time></trkpt><trkpt lat="45.4992633" lon="8.7237167"><ele>141.0</ele><time>2026-03-22T10:03:02.271Z</time></trkpt><trkpt lat="45.4991367" lon="8.723745"><ele>141.0</ele><time>2026-03-22T10:03:03.271Z</time></trkpt><trkpt lat="45.4990133" lon="8.723805"><ele>141.0</ele><time>2026-03-22T10:03:04.271Z</time></trkpt><trkpt lat="45.4989083" lon="8.7239083"><ele>141.0</ele><time>2026-03-22T10:03:05.271Z</time></trkpt><trkpt lat="45.4988133" lon="8.724035"><ele>141.0</ele><time>2026-03-22T10:03:06.271Z</time></trkpt><trkpt lat="45.498715" lon="8.7241567"><ele>141.75</ele><time>2026-03-22T10:03:07.271Z</time></trkpt><trkpt lat="45.498615" lon="8.7242883"><ele>142.5</ele><time>2026-03-22T10:03:08.271Z</time></trkpt><trkpt lat="45.4985167" lon="8.7244283"><ele>143.25</ele><time>2026-03-22T10:03:09.271Z</time></trkpt><trkpt lat="45.4984283" lon="8.72458"><ele>144.0</ele><time>2026-03-22T10:03:10.271Z</time></trkpt><trkpt lat="45.4983367" lon="8.7247467"><ele>144.0</ele><time>2026-03-22T10:03:11.271Z</time></trkpt><trkpt lat="45.4982417" lon="8.7249067"><ele>144.0</ele><time>2026-03-22T10:03:12.271Z</time></trkpt><trkpt lat="45.4981383" lon="8.7250567"><ele>144.0</ele><time>2026-03-22T10:03:13.271Z</time></trkpt><trkpt lat="45.49804" lon="8.725205"><ele>144.0</ele><time>2026-03-22T10:03:14.271Z</time></trkpt><trkpt lat="45.49794" lon="8.7253467"><ele>145.25</ele><time>2026-03-22T10:03:15.271Z</time></trkpt><trkpt lat="45.4978467" lon="8.72548"><ele>146.5</ele><time>2026-03-22T10:03:16.271Z</time></trkpt><trkpt lat="45.4977483" lon="8.725605"><ele>147.75</ele><time>2026-03-22T10:03:17.271Z</time></trkpt><trkpt lat="45.497655" lon="8.72574"><ele>149.0</ele><time>2026-03-22T10:03:18.271Z</time></trkpt><trkpt lat="45.4975717" lon="8.7258517"><ele>149.0</ele><time>2026-03-22T10:03:19.271Z</time></trkpt><trkpt lat="45.4974633" lon="8.7259517"><ele>149.0</ele><time>2026-03-22T10:03:20.271Z</time></trkpt><trkpt lat="45.4973467" lon="8.7260133"><ele>149.0</ele><time>2026-03-22T10:03:21.271Z</time></trkpt><trkpt lat="45.4972367" lon="8.72604"><ele>149.0</ele><time>2026-03-22T10:03:22.271Z</time></trkpt><trkpt lat="45.4971367" lon="8.7260383"><ele>149.0</ele><time>2026-03-22T10:03:23.271Z</time></trkpt><trkpt lat="45.4970567" lon="8.725955"><ele>149.0</ele><time>2026-03-22T10:03:24.271Z</time></trkpt><trkpt lat="45.4970217" lon="8.7258183"><ele>149.0</ele><time>2026-03-22T10:03:25.271Z</time></trkpt><trkpt lat="45.497025" lon="8.7256533"><ele>149.0</ele><time>2026-03-22T10:03:26.271Z</time></trkpt><trkpt lat="45.497045" lon="8.72549"><ele>149.0</ele><time>2026-03-22T10:03:27.271Z</time></trkpt><trkpt lat="45.4970983" lon="8.7253233"><ele>151.25</ele><time>2026-03-22T10:03:28.271Z</time></trkpt><trkpt lat="45.497165" lon="8.7251633"><ele>153.5</ele><time>2026-03-22T10:03:29.271Z</time></trkpt><trkpt lat="45.4972483" lon="8.7250017"><ele>155.75</ele><time>2026-03-22T10:03:30.271Z</time></trkpt><trkpt lat="45.4973383" lon="8.7248283"><ele>158.0</ele><time>2026-03-22T10:03:31.271Z</time></trkpt><trkpt lat="45.4974417" lon="8.72465"><ele>158.0</ele><time>2026-03-22T10:03:32.271Z</time></trkpt><trkpt lat="45.497535" lon="8.7244817"><ele>158.0</ele><time>2026-03-22T10:03:33.271Z</time></trkpt><trkpt lat="45.4976217" lon="8.7243083"><ele>158.0</ele><time>2026-03-22T10:03:34.271Z</time></trkpt><trkpt lat="45.4976967" lon="8.724145"><ele>158.0</ele><time>2026-03-22T10:03:35.271Z</time></trkpt><trkpt lat="45.497755" lon="8.724"><ele>157.0</ele><time>2026-03-22T10:03:36.271Z</time></trkpt><trkpt lat="45.4977967" lon="8.72387"><ele>156.0</ele><time>2026-03-22T10:03:37.271Z</time></trkpt><trkpt lat="45.497815" lon="8.723745"><ele>155.0</ele><time>2026-03-22T10:03:38.271Z</time></trkpt><trkpt lat="45.4978283" lon="8.7236467"><ele>154.0</ele><time>2026-03-22T10:03:39.271Z</time></trkpt><trkpt lat="45.4978267" lon="8.7235533"><ele>153.0</ele><time>2026-03-22T10:03:40.27Z</time></trkpt><trkpt lat="45.497755" lon="8.7235333"><ele>152.0</ele><time>2026-03-22T10:03:42.27Z</time></trkpt><trkpt lat="45.4976817" lon="8.7235783"><ele>152.0</ele><time>2026-03-22T10:03:44.27Z</time></trkpt><trkpt lat="45.4976433" lon="8.7236867"><ele>152.0</ele><time>2026-03-22T10:03:45.27Z</time></trkpt><trkpt lat="45.4975933" lon="8.72383"><ele>152.0</ele><time>2026-03-22T10:03:46.27Z</time></trkpt><trkpt lat="45.4975267" lon="8.7239833"><ele>152.0</ele><time>2026-03-22T10:03:47.27Z</time></trkpt><trkpt lat="45.4974583" lon="8.72413"><ele>152.0</ele><time>2026-03-22T10:03:48.27Z</time></trkpt><trkpt lat="45.4973917" lon="8.724275"><ele>153.5</ele><time>2026-03-22T10:03:49.27Z</time></trkpt><trkpt lat="45.4973283" lon="8.7244183"><ele>155.0</ele><time>2026-03-22T10:03:50.27Z</time></trkpt><trkpt lat="45.497255" lon="8.7245567"><ele>156.5</ele><time>2026-03-22T10:03:51.27Z</time></trkpt><trkpt lat="45.4971867" lon="8.7247017"><ele>158.0</ele><time>2026-03-22T10:03:52.27Z</time></trkpt><trkpt lat="45.4971133" lon="8.7248533"><ele>156.5</ele><time>2026-03-22T10:03:53.27Z</time></trkpt><trkpt lat="45.4970333" lon="8.724995"><ele>155.0</ele><time>2026-03-22T10:03:54.27Z</time></trkpt><trkpt lat="45.49696" lon="8.7251283"><ele>153.5</ele><time>2026-03-22T10:03:55.27Z</time></trkpt><trkpt lat="45.496885" lon="8.7252733"><ele>152.0</ele><time>2026-03-22T10:03:56.27Z</time></trkpt><trkpt lat="45.4968083" lon="8.7254117"><ele>152.0</ele><time>2026-03-22T10:03:57.27Z</time></trkpt><trkpt lat="45.496735" lon="8.725555"><ele>152.0</ele><time>2026-03-22T10:03:58.27Z</time></trkpt><trkpt lat="45.4965167" lon="8.7260067"><ele>152.0</ele><time>2026-03-22T10:04:01.27Z</time></trkpt><trkpt lat="45.4964317" lon="8.72616"><ele>152.0</ele><time>2026-03-22T10:04:02.27Z</time></trkpt><trkpt lat="45.4963383" lon="8.7262983"><ele>152.0</ele><time>2026-03-22T10:04:03.27Z</time></trkpt><trkpt lat="45.4962483" lon="8.726435"><ele>152.0</ele><time>2026-03-22T10:04:04.27Z</time></trkpt><trkpt lat="45.496165" lon="8.7265917"><ele>152.0</ele><time>2026-03-22T10:04:05.27Z</time></trkpt><trkpt lat="45.4960883" lon="8.7267533"><ele>152.0</ele><time>2026-03-22T10:04:06.27Z</time></trkpt><trkpt lat="45.4960133" lon="8.7269033"><ele>152.0</ele><time>2026-03-22T10:04:07.27Z</time></trkpt><trkpt lat="45.4959333" lon="8.72706"><ele>152.0</ele><time>2026-03-22T10:04:08.27Z</time></trkpt><trkpt lat="45.4958667" lon="8.7272317"><ele>152.5</ele><time>2026-03-22T10:04:09.27Z</time></trkpt><trkpt lat="45.495795" lon="8.7273767"><ele>153.0</ele><time>2026-03-22T10:04:10.27Z</time></trkpt><trkpt lat="45.4957067" lon="8.7275283"><ele>153.5</ele><time>2026-03-22T10:04:11.27Z</time></trkpt><trkpt lat="45.4956283" lon="8.72769"><ele>154.0</ele><time>2026-03-22T10:04:12.27Z</time></trkpt><trkpt lat="45.495535" lon="8.7278517"><ele>154.0</ele><time>2026-03-22T10:04:13.27Z</time></trkpt><trkpt lat="45.4954533" lon="8.728005"><ele>154.0</ele><time>2026-03-22T10:04:14.27Z</time></trkpt><trkpt lat="45.4953683" lon="8.72816"><ele>154.0</ele><time>2026-03-22T10:04:15.27Z</time></trkpt><trkpt lat="45.4952867" lon="8.7283317"><ele>154.0</ele><time>2026-03-22T10:04:16.27Z</time></trkpt><trkpt lat="45.4951983" lon="8.728505"><ele>155.0</ele><time>2026-03-22T10:04:17.27Z</time></trkpt><trkpt lat="45.49511" lon="8.7286833"><ele>156.0</ele><time>2026-03-22T10:04:18.27Z</time></trkpt><trkpt lat="45.4950283" lon="8.72887"><ele>157.0</ele><time>2026-03-22T10:04:19.27Z</time></trkpt><trkpt lat="45.494955" lon="8.7290467"><ele>157.0</ele><time>2026-03-22T10:04:20.27Z</time></trkpt><trkpt lat="45.4948617" lon="8.7292267"><ele>157.0</ele><time>2026-03-22T10:04:21.27Z</time></trkpt><trkpt lat="45.494815" lon="8.7294367"><ele>157.0</ele><time>2026-03-22T10:04:22.27Z</time></trkpt><trkpt lat="45.4946833" lon="8.7296233"><ele>157.5</ele><time>2026-03-22T10:04:23.27Z</time></trkpt><trkpt lat="45.4944567" lon="8.7300233"><ele>158.0</ele><time>2026-03-22T10:04:25.27Z</time></trkpt><trkpt lat="45.4943667" lon="8.73022"><ele>158.0</ele><time>2026-03-22T10:04:26.27Z</time></trkpt><trkpt lat="45.4942683" lon="8.730405"><ele>158.0</ele><time>2026-03-22T10:04:27.27Z</time></trkpt><trkpt lat="45.4941717" lon="8.7305933"><ele>158.0</ele><time>2026-03-22T10:04:28.27Z</time></trkpt><trkpt lat="45.4940783" lon="8.7307817"><ele>158.0</ele><time>2026-03-22T10:04:29.27Z</time></trkpt><trkpt lat="45.49398" lon="8.73097"><ele>158.0</ele><time>2026-03-22T10:04:30.27Z</time></trkpt><trkpt lat="45.4938817" lon="8.7311517"><ele>158.0</ele><time>2026-03-22T10:04:31.27Z</time></trkpt><trkpt lat="45.49379" lon="8.7313117"><ele>158.75</ele><time>2026-03-22T10:04:32.27Z</time></trkpt><trkpt lat="45.4937067" lon="8.7314617"><ele>159.5</ele><time>2026-03-22T10:04:33.27Z</time></trkpt><trkpt lat="45.4936267" lon="8.73161"><ele>160.25</ele><time>2026-03-22T10:04:34.27Z</time></trkpt><trkpt lat="45.49354" lon="8.7317583"><ele>161.0</ele><time>2026-03-22T10:04:35.27Z</time></trkpt><trkpt lat="45.493455" lon="8.7319167"><ele>159.25</ele><time>2026-03-22T10:04:36.27Z</time></trkpt><trkpt lat="45.4933717" lon="8.7320717"><ele>157.5</ele><time>2026-03-22T10:04:37.27Z</time></trkpt><trkpt lat="45.493295" lon="8.73223"><ele>155.75</ele><time>2026-03-22T10:04:38.27Z</time></trkpt><trkpt lat="45.493225" lon="8.732375"><ele>154.0</ele><time>2026-03-22T10:04:39.27Z</time></trkpt><trkpt lat="45.49316" lon="8.7325067"><ele>154.0</ele><time>2026-03-22T10:04:40.27Z</time></trkpt><trkpt lat="45.493095" lon="8.7326333"><ele>154.0</ele><time>2026-03-22T10:04:41.27Z</time></trkpt><trkpt lat="45.49304" lon="8.7327517"><ele>154.0</ele><time>2026-03-22T10:04:42.27Z</time></trkpt><trkpt lat="45.4929867" lon="8.7328567"><ele>154.0</ele><time>2026-03-22T10:04:43.27Z</time></trkpt><trkpt lat="45.4929283" lon="8.73296"><ele>154.0</ele><time>2026-03-22T10:04:44.27Z</time></trkpt><trkpt lat="45.4928683" lon="8.7330683"><ele>154.0</ele><time>2026-03-22T10:04:45.27Z</time></trkpt><trkpt lat="45.4927967" lon="8.7331917"><ele>154.0</ele><time>2026-03-22T10:04:46.27Z</time></trkpt><trkpt lat="45.492725" lon="8.7333217"><ele>154.0</ele><time>2026-03-22T10:04:47.27Z</time></trkpt><trkpt lat="45.4926567" lon="8.7334567"><ele>154.0</ele><time>2026-03-22T10:04:48.27Z</time></trkpt><trkpt lat="45.4925833" lon="8.7335867"><ele>154.0</ele><time>2026-03-22T10:04:49.27Z</time></trkpt><trkpt lat="45.4925167" lon="8.7337217"><ele>154.0</ele><time>2026-03-22T10:04:50.27Z</time></trkpt><trkpt lat="45.4924467" lon="8.7338533"><ele>154.0</ele><time>2026-03-22T10:04:51.27Z</time></trkpt><trkpt lat="45.4923833" lon="8.7339717"><ele>154.0</ele><time>2026-03-22T10:04:52.27Z</time></trkpt><trkpt lat="45.4923283" lon="8.73409"><ele>154.0</ele><time>2026-03-22T10:04:53.27Z</time></trkpt><trkpt lat="45.4922833" lon="8.7341917"><ele>154.0</ele><time>2026-03-22T10:04:54.27Z</time></trkpt><trkpt lat="45.492235" lon="8.734275"><ele>154.0</ele><time>2026-03-22T10:04:55.27Z</time></trkpt><trkpt lat="45.4921917" lon="8.73435"><ele>154.0</ele><time>2026-03-22T10:04:56.27Z</time></trkpt><trkpt lat="45.4921167" lon="8.7344883"><ele>154.0</ele><time>2026-03-22T10:04:58.27Z</time></trkpt><trkpt lat="45.4920733" lon="8.7345767"><ele>154.0</ele><time>2026-03-22T10:04:59.27Z</time></trkpt><trkpt lat="45.4920317" lon="8.7346667"><ele>154.0</ele><time>2026-03-22T10:05:00.27Z</time></trkpt><trkpt lat="45.49198" lon="8.73476"><ele>154.16666666666669</ele><time>2026-03-22T10:05:01.27Z</time></trkpt><trkpt lat="45.4919267" lon="8.7348617"><ele>154.33333333333334</ele><time>2026-03-22T10:05:02.27Z</time></trkpt><trkpt lat="45.4918717" lon="8.7349583"><ele>154.5</ele><time>2026-03-22T10:05:03.27Z</time></trkpt><trkpt lat="45.4918183" lon="8.735065"><ele>154.66666666666666</ele><time>2026-03-22T10:05:04.27Z</time></trkpt><trkpt lat="45.49177" lon="8.7351683"><ele>154.83333333333331</ele><time>2026-03-22T10:05:05.27Z</time></trkpt><trkpt lat="45.4917233" lon="8.7352767"><ele>155.0</ele><time>2026-03-22T10:05:06.27Z</time></trkpt><trkpt lat="45.49167" lon="8.7353817"><ele>155.0</ele><time>2026-03-22T10:05:07.27Z</time></trkpt><trkpt lat="45.4916283" lon="8.735495"><ele>155.0</ele><time>2026-03-22T10:05:08.27Z</time></trkpt><trkpt lat="45.4915717" lon="8.7356017"><ele>155.0</ele><time>2026-03-22T10:05:09.27Z</time></trkpt><trkpt lat="45.4915233" lon="8.735705"><ele>155.0</ele><time>2026-03-22T10:05:10.27Z</time></trkpt><trkpt lat="45.491475" lon="8.7358117"><ele>155.0</ele><time>2026-03-22T10:05:11.27Z</time></trkpt><trkpt lat="45.4914167" lon="8.735915"><ele>155.0</ele><time>2026-03-22T10:05:12.27Z</time></trkpt><trkpt lat="45.491365" lon="8.7360233"><ele>155.0</ele><time>2026-03-22T10:05:13.27Z</time></trkpt><trkpt lat="45.4913083" lon="8.7361333"><ele>155.0</ele><time>2026-03-22T10:05:14.27Z</time></trkpt><trkpt lat="45.4912417" lon="8.7362433"><ele>155.0</ele><time>2026-03-22T10:05:15.27Z</time></trkpt><trkpt lat="45.491185" lon="8.7363567"><ele>155.0</ele><time>2026-03-22T10:05:16.27Z</time></trkpt><trkpt lat="45.4911267" lon="8.7364633"><ele>155.33333333333331</ele><time>2026-03-22T10:05:17.27Z</time></trkpt><trkpt lat="45.4910683" lon="8.736565"><ele>155.66666666666666</ele><time>2026-03-22T10:05:18.27Z</time></trkpt><trkpt lat="45.4910117" lon="8.7366583"><ele>156.0</ele><time>2026-03-22T10:05:19.27Z</time></trkpt><trkpt lat="45.490955" lon="8.7367283"><ele>156.33333333333334</ele><time>2026-03-22T10:05:20.27Z</time></trkpt><trkpt lat="45.4908917" lon="8.7367817"><ele>156.66666666666669</ele><time>2026-03-22T10:05:21.27Z</time></trkpt><trkpt lat="45.4908383" lon="8.7368467"><ele>157.0</ele><time>2026-03-22T10:05:22.27Z</time></trkpt><trkpt lat="45.4907867" lon="8.73691"><ele>157.0</ele><time>2026-03-22T10:05:23.27Z</time></trkpt><trkpt lat="45.4907517" lon="8.737055"><ele>157.0</ele><time>2026-03-22T10:05:25.27Z</time></trkpt><trkpt lat="45.4908483" lon="8.7371783"><ele>157.0</ele><time>2026-03-22T10:05:26.27Z</time></trkpt><trkpt lat="45.4909" lon="8.7373117"><ele>157.0</ele><time>2026-03-22T10:05:27.27Z</time></trkpt><trkpt lat="45.49096" lon="8.7374583"><ele>157.0</ele><time>2026-03-22T10:05:28.27Z</time></trkpt><trkpt lat="45.491015" lon="8.7376317"><ele>157.0</ele><time>2026-03-22T10:05:29.27Z</time></trkpt><trkpt lat="45.4910617" lon="8.737795"><ele>157.0</ele><time>2026-03-22T10:05:30.27Z</time></trkpt><trkpt lat="45.4910983" lon="8.737945"><ele>157.0</ele><time>2026-03-22T10:05:31.27Z</time></trkpt><trkpt lat="45.4911333" lon="8.7380817"><ele>156.5</ele><time>2026-03-22T10:05:32.27Z</time></trkpt><trkpt lat="45.49116" lon="8.7382117"><ele>156.0</ele><time>2026-03-22T10:05:33.27Z</time></trkpt><trkpt lat="45.4911817" lon="8.7383267"><ele>155.5</ele><time>2026-03-22T10:05:34.27Z</time></trkpt><trkpt lat="45.4911933" lon="8.738435"><ele>155.0</ele><time>2026-03-22T10:05:35.27Z</time></trkpt><trkpt lat="45.4911733" lon="8.7385367"><ele>154.5</ele><time>2026-03-22T10:05:36.27Z</time></trkpt><trkpt lat="45.4911167" lon="8.738625"><ele>154.0</ele><time>2026-03-22T10:05:37.27Z</time></trkpt><trkpt lat="45.4910317" lon="8.7387017"><ele>150.0</ele><time>2026-03-22T10:05:38.27Z</time></trkpt><trkpt lat="45.4909283" lon="8.738785"><ele>146.0</ele><time>2026-03-22T10:05:39.27Z</time></trkpt><trkpt lat="45.4908267" lon="8.7388633"><ele>142.0</ele><time>2026-03-22T10:05:40.27Z</time></trkpt><trkpt lat="45.4907283" lon="8.7389583"><ele>138.0</ele><time>2026-03-22T10:05:41.27Z</time></trkpt><trkpt lat="45.49063" lon="8.7390383"><ele>138.0</ele><time>2026-03-22T10:05:42.27Z</time></trkpt><trkpt lat="45.4905367" lon="8.7391167"><ele>138.0</ele><time>2026-03-22T10:05:43.27Z</time></trkpt><trkpt lat="45.490435" lon="8.7391917"><ele>138.0</ele><time>2026-03-22T10:05:44.27Z</time></trkpt><trkpt lat="45.4903467" lon="8.7392767"><ele>138.0</ele><time>2026-03-22T10:05:45.27Z</time></trkpt><trkpt lat="45.4902683" lon="8.7393667"><ele>138.0</ele><time>2026-03-22T10:05:46.27Z</time></trkpt><trkpt lat="45.4901917" lon="8.7394567"><ele>138.5</ele><time>2026-03-22T10:05:47.27Z</time></trkpt><trkpt lat="45.4901183" lon="8.739545"><ele>139.0</ele><time>2026-03-22T10:05:48.27Z</time></trkpt><trkpt lat="45.490045" lon="8.73962"><ele>139.5</ele><time>2026-03-22T10:05:49.27Z</time></trkpt><trkpt lat="45.4899767" lon="8.73968"><ele>140.0</ele><time>2026-03-22T10:05:50.27Z</time></trkpt><trkpt lat="45.4899033" lon="8.73975"><ele>140.5</ele><time>2026-03-22T10:05:51.27Z</time></trkpt><trkpt lat="45.4898433" lon="8.7398333"><ele>141.0</ele><time>2026-03-22T10:05:52.27Z</time></trkpt><trkpt lat="45.48978" lon="8.7398917"><ele>141.0</ele><time>2026-03-22T10:05:53.27Z</time></trkpt><trkpt lat="45.489735" lon="8.7399817"><ele>141.0</ele><time>2026-03-22T10:05:55.27Z</time></trkpt><trkpt lat="45.4898433" lon="8.7399617"><ele>141.0</ele><time>2026-03-22T10:05:58.27Z</time></trkpt><trkpt lat="45.4899467" lon="8.7398733"><ele>141.0</ele><time>2026-03-22T10:05:59.27Z</time></trkpt><trkpt lat="45.4900417" lon="8.7397933"><ele>141.0</ele><time>2026-03-22T10:06:00.27Z</time></trkpt><trkpt lat="45.490125" lon="8.7397367"><ele>141.0</ele><time>2026-03-22T10:06:01.27Z</time></trkpt><trkpt lat="45.4902083" lon="8.7397117"><ele>141.0</ele><time>2026-03-22T10:06:02.27Z</time></trkpt><trkpt lat="45.49027" lon="8.7397667"><ele>141.0</ele><time>2026-03-22T10:06:03.27Z</time></trkpt><trkpt lat="45.49032" lon="8.73984"><ele>141.0</ele><time>2026-03-22T10:06:04.27Z</time></trkpt><trkpt lat="45.49035" lon="8.7399233"><ele>141.0</ele><time>2026-03-22T10:06:05.27Z</time></trkpt><trkpt lat="45.4903733" lon="8.74002"><ele>141.0</ele><time>2026-03-22T10:06:06.27Z</time></trkpt><trkpt lat="45.4903917" lon="8.740125"><ele>141.0</ele><time>2026-03-22T10:06:07.27Z</time></trkpt><trkpt lat="45.4904217" lon="8.7402233"><ele>139.16666666666666</ele><time>2026-03-22T10:06:08.27Z</time></trkpt><trkpt lat="45.4904567" lon="8.7403217"><ele>137.33333333333334</ele><time>2026-03-22T10:06:09.27Z</time></trkpt><trkpt lat="45.4905" lon="8.74041"><ele>135.5</ele><time>2026-03-22T10:06:10.27Z</time></trkpt><trkpt lat="45.490555" lon="8.7404967"><ele>133.66666666666669</ele><time>2026-03-22T10:06:11.27Z</time></trkpt><trkpt lat="45.4906083" lon="8.7405717"><ele>131.83333333333334</ele><time>2026-03-22T10:06:12.27Z</time></trkpt><trkpt lat="45.4906583" lon="8.7406367"><ele>130.0</ele><time>2026-03-22T10:06:13.27Z</time></trkpt><trkpt lat="45.490735" lon="8.7407183"><ele>130.0</ele><time>2026-03-22T10:06:15.27Z</time></trkpt><trkpt lat="45.4907817" lon="8.7407817"><ele>130.0</ele><time>2026-03-22T10:06:17.27Z</time></trkpt><trkpt lat="45.4908217" lon="8.74087"><ele>130.0</ele><time>2026-03-22T10:06:19.27Z</time></trkpt><trkpt lat="45.4908633" lon="8.74096"><ele>130.0</ele><time>2026-03-22T10:06:21.27Z</time></trkpt><trkpt lat="45.490895" lon="8.7410683"><ele>130.0</ele><time>2026-03-22T10:06:23.27Z</time></trkpt><trkpt lat="45.4909433" lon="8.7412217"><ele>130.0</ele><time>2026-03-22T10:06:25.27Z</time></trkpt><trkpt lat="45.49096" lon="8.7413083"><ele>129.33333333333334</ele><time>2026-03-22T10:06:26.27Z</time></trkpt><trkpt lat="45.490975" lon="8.741405"><ele>128.66666666666669</ele><time>2026-03-22T10:06:27.27Z</time></trkpt><trkpt lat="45.49098" lon="8.7415033"><ele>128.0</ele><time>2026-03-22T10:06:28.27Z</time></trkpt><trkpt lat="45.4909817" lon="8.7415933"><ele>127.33333333333334</ele><time>2026-03-22T10:06:29.27Z</time></trkpt><trkpt lat="45.490985" lon="8.74178"><ele>126.66666666666667</ele><time>2026-03-22T10:06:31.27Z</time></trkpt><trkpt lat="45.4909783" lon="8.74188"><ele>126.0</ele><time>2026-03-22T10:06:32.27Z</time></trkpt><trkpt lat="45.4909683" lon="8.741985"><ele>126.0</ele><time>2026-03-22T10:06:33.27Z</time></trkpt><trkpt lat="45.4909617" lon="8.7421"><ele>126.0</ele><time>2026-03-22T10:06:34.27Z</time></trkpt><trkpt lat="45.4909567" lon="8.7422083"><ele>126.0</ele><time>2026-03-22T10:06:35.27Z</time></trkpt><trkpt lat="45.4909517" lon="8.7423083"><ele>126.0</ele><time>2026-03-22T10:06:36.27Z</time></trkpt><trkpt lat="45.4909517" lon="8.7424033"><ele>126.0</ele><time>2026-03-22T10:06:37.27Z</time></trkpt><trkpt lat="45.49094" lon="8.7425383"><ele>126.0</ele><time>2026-03-22T10:06:39.27Z</time></trkpt><trkpt lat="45.4909267" lon="8.7426533"><ele>125.6</ele><time>2026-03-22T10:06:42.27Z</time></trkpt><trkpt lat="45.49089" lon="8.7427467"><ele>125.19999999999999</ele><time>2026-03-22T10:07:06.27Z</time></trkpt><trkpt lat="45.490825" lon="8.7428167"><ele>124.80000000000001</ele><time>2026-03-22T10:07:08.27Z</time></trkpt><trkpt lat="45.49072" lon="8.742875"><ele>124.4</ele><time>2026-03-22T10:07:10.27Z</time></trkpt><trkpt lat="45.4906" lon="8.7429483"><ele>124.0</ele><time>2026-03-22T10:07:12.27Z</time></trkpt><trkpt lat="45.4905367" lon="8.7429867"><ele>124.00000000000001</ele><time>2026-03-22T10:07:13.27Z</time></trkpt><trkpt lat="45.4904717" lon="8.7430317"><ele>124.0</ele><time>2026-03-22T10:07:14.27Z</time></trkpt><trkpt lat="45.4904033" lon="8.743075"><ele>124.0</ele><time>2026-03-22T10:07:15.27Z</time></trkpt><trkpt lat="45.49033" lon="8.7431217"><ele>124.0</ele><time>2026-03-22T10:07:16.27Z</time></trkpt><trkpt lat="45.4902583" lon="8.7431667"><ele>124.00000000000001</ele><time>2026-03-22T10:07:17.27Z</time></trkpt><trkpt lat="45.4901867" lon="8.7432183"><ele>124.0</ele><time>2026-03-22T10:07:18.27Z</time></trkpt><trkpt lat="45.4901117" lon="8.74327"><ele>124.33333333333334</ele><time>2026-03-22T10:07:19.27Z</time></trkpt><trkpt lat="45.4900467" lon="8.7433267"><ele>124.66666666666667</ele><time>2026-03-22T10:07:20.27Z</time></trkpt><trkpt lat="45.4899783" lon="8.7433767"><ele>125.0</ele><time>2026-03-22T10:07:21.27Z</time></trkpt><trkpt lat="45.4899067" lon="8.7434233"><ele>125.33333333333334</ele><time>2026-03-22T10:07:22.27Z</time></trkpt><trkpt lat="45.489835" lon="8.74347"><ele>125.66666666666667</ele><time>2026-03-22T10:07:23.27Z</time></trkpt><trkpt lat="45.4897633" lon="8.743505"><ele>126.0</ele><time>2026-03-22T10:07:24.27Z</time></trkpt><trkpt lat="45.4896933" lon="8.7435483"><ele>126.0</ele><time>2026-03-22T10:07:25.27Z</time></trkpt><trkpt lat="45.4896233" lon="8.7435967"><ele>126.0</ele><time>2026-03-22T10:07:26.27Z</time></trkpt><trkpt lat="45.4895583" lon="8.7436383"><ele>126.0</ele><time>2026-03-22T10:07:27.27Z</time></trkpt><trkpt lat="45.489495" lon="8.743685"><ele>126.0</ele><time>2026-03-22T10:07:28.27Z</time></trkpt><trkpt lat="45.489435" lon="8.7437283"><ele>126.0</ele><time>2026-03-22T10:07:29.27Z</time></trkpt><trkpt lat="45.4893217" lon="8.7438133"><ele>126.0</ele><time>2026-03-22T10:07:31.27Z</time></trkpt><trkpt lat="45.489265" lon="8.74386"><ele>126.0</ele><time>2026-03-22T10:07:32.27Z</time></trkpt><trkpt lat="45.48916" lon="8.74394"><ele>126.0</ele><time>2026-03-22T10:07:34.27Z</time></trkpt><trkpt lat="45.4890733" lon="8.74405"><ele>126.0</ele><time>2026-03-22T10:07:36.27Z</time></trkpt><trkpt lat="45.4889967" lon="8.744145"><ele>126.0</ele><time>2026-03-22T10:07:38.27Z</time></trkpt><trkpt lat="45.4889267" lon="8.7442783"><ele>126.0</ele><time>2026-03-22T10:07:40.27Z</time></trkpt><trkpt lat="45.488885" lon="8.744355"><ele>126.0</ele><time>2026-03-22T10:07:41.27Z</time></trkpt><trkpt lat="45.4888417" lon="8.7444217"><ele>126.0</ele><time>2026-03-22T10:07:42.27Z</time></trkpt><trkpt lat="45.48875" lon="8.7445483"><ele>126.0</ele><time>2026-03-22T10:07:44.27Z</time></trkpt><trkpt lat="45.4887033" lon="8.7446217"><ele>126.0</ele><time>2026-03-22T10:07:45.27Z</time></trkpt><trkpt lat="45.4886517" lon="8.7446833"><ele>126.0</ele><time>2026-03-22T10:07:46.27Z</time></trkpt><trkpt lat="45.4886017" lon="8.7447467"><ele>125.6</ele><time>2026-03-22T10:07:47.27Z</time></trkpt><trkpt lat="45.4885567" lon="8.7448183"><ele>125.19999999999999</ele><time>2026-03-22T10:07:48.27Z</time></trkpt><trkpt lat="45.4885067" lon="8.74488"><ele>124.80000000000001</ele><time>2026-03-22T10:07:49.27Z</time></trkpt><trkpt lat="45.48842" lon="8.7449883"><ele>124.4</ele><time>2026-03-22T10:07:51.27Z</time></trkpt><trkpt lat="45.48834" lon="8.7451183"><ele>124.0</ele><time>2026-03-22T10:07:53.27Z</time></trkpt><trkpt lat="45.4882583" lon="8.745235"><ele>124.0</ele><time>2026-03-22T10:07:55.27Z</time></trkpt><trkpt lat="45.4881767" lon="8.745335"><ele>124.0</ele><time>2026-03-22T10:07:57.27Z</time></trkpt><trkpt lat="45.4881117" lon="8.7454433"><ele>124.0</ele><time>2026-03-22T10:07:59.27Z</time></trkpt><trkpt lat="45.4880633" lon="8.7455367"><ele>124.0</ele><time>2026-03-22T10:08:01.27Z</time></trkpt><trkpt lat="45.4880333" lon="8.74564"><ele>124.0</ele><time>2026-03-22T10:08:03.27Z</time></trkpt><trkpt lat="45.4880367" lon="8.7457817"><ele>124.0</ele><time>2026-03-22T10:08:05.27Z</time></trkpt><trkpt lat="45.48804" lon="8.7459367"><ele>124.0</ele><time>2026-03-22T10:08:07.27Z</time></trkpt><trkpt lat="45.4880483" lon="8.7460733"><ele>124.0</ele><time>2026-03-22T10:08:09.27Z</time></trkpt><trkpt lat="45.4880517" lon="8.7462"><ele>124.0</ele><time>2026-03-22T10:08:11.27Z</time></trkpt><trkpt lat="45.4880533" lon="8.7463283"><ele>124.0</ele><time>2026-03-22T10:08:13.27Z</time></trkpt><trkpt lat="45.4880617" lon="8.74646"><ele>124.0</ele><time>2026-03-22T10:08:15.27Z</time></trkpt><trkpt lat="45.4880517" lon="8.7465983"><ele>124.0</ele><time>2026-03-22T10:08:17.27Z</time></trkpt><trkpt lat="45.488045" lon="8.7467617"><ele>124.0</ele><time>2026-03-22T10:08:19.27Z</time></trkpt><trkpt lat="45.4880733" lon="8.7469017"><ele>124.0</ele><time>2026-03-22T10:08:21.27Z</time></trkpt><trkpt lat="45.4881083" lon="8.7470283"><ele>124.0</ele><time>2026-03-22T10:08:23.27Z</time></trkpt><trkpt lat="45.4881533" lon="8.7471483"><ele>124.2</ele><time>2026-03-22T10:08:25.27Z</time></trkpt><trkpt lat="45.4881933" lon="8.74728"><ele>124.4</ele><time>2026-03-22T10:08:27.27Z</time></trkpt><trkpt lat="45.4882183" lon="8.7474317"><ele>124.6</ele><time>2026-03-22T10:08:29.27Z</time></trkpt><trkpt lat="45.4882267" lon="8.747565"><ele>124.8</ele><time>2026-03-22T10:08:31.27Z</time></trkpt><trkpt lat="45.488225" lon="8.7477083"><ele>125.0</ele><time>2026-03-22T10:08:33.27Z</time></trkpt><trkpt lat="45.4882133" lon="8.7478567"><ele>125.0</ele><time>2026-03-22T10:08:35.27Z</time></trkpt><trkpt lat="45.4881983" lon="8.7479917"><ele>125.0</ele><time>2026-03-22T10:08:37.27Z</time></trkpt><trkpt lat="45.4881733" lon="8.7481133"><ele>125.0</ele><time>2026-03-22T10:08:39.27Z</time></trkpt><trkpt lat="45.4881417" lon="8.7482367"><ele>125.0</ele><time>2026-03-22T10:08:41.27Z</time></trkpt><trkpt lat="45.4881217" lon="8.7483667"><ele>125.0</ele><time>2026-03-22T10:08:43.27Z</time></trkpt><trkpt lat="45.4881117" lon="8.748505"><ele>124.83333333333333</ele><time>2026-03-22T10:08:45.27Z</time></trkpt><trkpt lat="45.4881217" lon="8.7486367"><ele>124.66666666666666</ele><time>2026-03-22T10:08:47.269Z</time></trkpt><trkpt lat="45.4881517" lon="8.7487617"><ele>124.5</ele><time>2026-03-22T10:08:49.269Z</time></trkpt><trkpt lat="45.4881767" lon="8.7488867"><ele>124.33333333333334</ele><time>2026-03-22T10:08:51.269Z</time></trkpt><trkpt lat="45.4881517" lon="8.74899"><ele>124.16666666666667</ele><time>2026-03-22T10:08:53.269Z</time></trkpt><trkpt lat="45.4880883" lon="8.7490583"><ele>124.0</ele><time>2026-03-22T10:08:55.269Z</time></trkpt><trkpt lat="45.4880133" lon="8.7490883"><ele>124.00000000000001</ele><time>2026-03-22T10:08:57.269Z</time></trkpt><trkpt lat="45.4879417" lon="8.7491333"><ele>124.0</ele><time>2026-03-22T10:08:59.269Z</time></trkpt><trkpt lat="45.4878683" lon="8.7492"><ele>124.0</ele><time>2026-03-22T10:09:01.269Z</time></trkpt><trkpt lat="45.4878133" lon="8.7492917"><ele>124.0</ele><time>2026-03-22T10:09:03.269Z</time></trkpt><trkpt lat="45.4877717" lon="8.7493917"><ele>124.00000000000001</ele><time>2026-03-22T10:09:05.269Z</time></trkpt><trkpt lat="45.4877033" lon="8.7494917"><ele>124.0</ele><time>2026-03-22T10:09:07.269Z</time></trkpt><trkpt lat="45.48762" lon="8.7495467"><ele>123.83333333333334</ele><time>2026-03-22T10:09:09.269Z</time></trkpt><trkpt lat="45.48754" lon="8.7495783"><ele>123.66666666666667</ele><time>2026-03-22T10:09:11.269Z</time></trkpt><trkpt lat="45.48744" lon="8.74961"><ele>123.5</ele><time>2026-03-22T10:09:13.269Z</time></trkpt><trkpt lat="45.487345" lon="8.74965"><ele>123.33333333333334</ele><time>2026-03-22T10:09:15.269Z</time></trkpt><trkpt lat="45.4872633" lon="8.7496717"><ele>123.16666666666667</ele><time>2026-03-22T10:09:17.269Z</time></trkpt><trkpt lat="45.4871983" lon="8.7496967"><ele>123.0</ele><time>2026-03-22T10:09:19.269Z</time></trkpt><trkpt lat="45.4871367" lon="8.7497767"><ele>123.0</ele><time>2026-03-22T10:09:21.269Z</time></trkpt><trkpt lat="45.48713" lon="8.7499067"><ele>123.00000000000001</ele><time>2026-03-22T10:09:23.269Z</time></trkpt><trkpt lat="45.4871533" lon="8.75008"><ele>123.00000000000001</ele><time>2026-03-22T10:09:25.269Z</time></trkpt><trkpt lat="45.4871883" lon="8.7502533"><ele>123.0</ele><time>2026-03-22T10:09:27.269Z</time></trkpt><trkpt lat="45.48721" lon="8.7503617"><ele>123.0</ele><time>2026-03-22T10:09:28.269Z</time></trkpt><trkpt lat="45.4872233" lon="8.750455"><ele>123.2</ele><time>2026-03-22T10:09:29.269Z</time></trkpt><trkpt lat="45.4872367" lon="8.7505483"><ele>123.4</ele><time>2026-03-22T10:09:30.269Z</time></trkpt><trkpt lat="45.4872483" lon="8.750645"><ele>123.60000000000001</ele><time>2026-03-22T10:09:31.269Z</time></trkpt><trkpt lat="45.4872617" lon="8.75082"><ele>123.80000000000001</ele><time>2026-03-22T10:09:33.269Z</time></trkpt><trkpt lat="45.48727" lon="8.7509983"><ele>124.0</ele><time>2026-03-22T10:09:35.269Z</time></trkpt><trkpt lat="45.4872917" lon="8.75117"><ele>124.00000000000001</ele><time>2026-03-22T10:09:37.269Z</time></trkpt><trkpt lat="45.4873067" lon="8.7512583"><ele>124.0</ele><time>2026-03-22T10:09:38.269Z</time></trkpt><trkpt lat="45.487325" lon="8.751395"><ele>124.0</ele><time>2026-03-22T10:09:40.269Z</time></trkpt><trkpt lat="45.4873133" lon="8.75149"><ele>124.0</ele><time>2026-03-22T10:09:42.269Z</time></trkpt><trkpt lat="45.4872483" lon="8.7515383"><ele>124.00000000000001</ele><time>2026-03-22T10:09:44.269Z</time></trkpt><trkpt lat="45.4871917" lon="8.751475"><ele>124.0</ele><time>2026-03-22T10:09:46.269Z</time></trkpt><trkpt lat="45.4871717" lon="8.75127"><ele>124.0</ele><time>2026-03-22T10:09:48.269Z</time></trkpt><trkpt lat="45.4871667" lon="8.75113"><ele>124.0</ele><time>2026-03-22T10:09:49.269Z</time></trkpt><trkpt lat="45.48716" lon="8.7509867"><ele>124.0</ele><time>2026-03-22T10:09:50.269Z</time></trkpt><trkpt lat="45.4871367" lon="8.7508383"><ele>124.0</ele><time>2026-03-22T10:09:51.269Z</time></trkpt><trkpt lat="45.487055" lon="8.750545"><ele>124.4</ele><time>2026-03-22T10:09:53.269Z</time></trkpt><trkpt lat="45.4869833" lon="8.7504217"><ele>124.80000000000001</ele><time>2026-03-22T10:09:54.27Z</time></trkpt><trkpt lat="45.4869083" lon="8.7503033"><ele>125.19999999999999</ele><time>2026-03-22T10:09:55.269Z</time></trkpt><trkpt lat="45.48685" lon="8.7501817"><ele>125.6</ele><time>2026-03-22T10:09:56.269Z</time></trkpt><trkpt lat="45.4867867" lon="8.75005"><ele>126.0</ele><time>2026-03-22T10:09:57.269Z</time></trkpt><trkpt lat="45.4867467" lon="8.749905"><ele>126.0</ele><time>2026-03-22T10:09:58.269Z</time></trkpt><trkpt lat="45.48672" lon="8.7497333"><ele>126.0</ele><time>2026-03-22T10:09:59.269Z</time></trkpt><trkpt lat="45.48669" lon="8.7495483"><ele>126.0</ele><time>2026-03-22T10:10:00.269Z</time></trkpt><trkpt lat="45.486675" lon="8.74935"><ele>126.0</ele><time>2026-03-22T10:10:01.269Z</time></trkpt><trkpt lat="45.48667" lon="8.7491667"><ele>126.6</ele><time>2026-03-22T10:10:02.269Z</time></trkpt><trkpt lat="45.48667" lon="8.7489983"><ele>127.19999999999999</ele><time>2026-03-22T10:10:03.269Z</time></trkpt><trkpt lat="45.4866833" lon="8.748845"><ele>127.80000000000001</ele><time>2026-03-22T10:10:04.269Z</time></trkpt><trkpt lat="45.4866917" lon="8.7487183"><ele>128.4</ele><time>2026-03-22T10:10:05.269Z</time></trkpt><trkpt lat="45.4866833" lon="8.7485733"><ele>129.0</ele><time>2026-03-22T10:10:06.269Z</time></trkpt><trkpt lat="45.48665" lon="8.7484433"><ele>129.2</ele><time>2026-03-22T10:10:07.269Z</time></trkpt><trkpt lat="45.4866083" lon="8.748325"><ele>129.4</ele><time>2026-03-22T10:10:08.269Z</time></trkpt><trkpt lat="45.486565" lon="8.7482083"><ele>129.6</ele><time>2026-03-22T10:10:09.269Z</time></trkpt><trkpt lat="45.4865483" lon="8.7480983"><ele>129.8</ele><time>2026-03-22T10:10:10.269Z</time></trkpt><trkpt lat="45.4865417" lon="8.747975"><ele>130.0</ele><time>2026-03-22T10:10:11.269Z</time></trkpt><trkpt lat="45.486545" lon="8.7478283"><ele>130.0</ele><time>2026-03-22T10:10:12.269Z</time></trkpt><trkpt lat="45.4865583" lon="8.7476767"><ele>130.0</ele><time>2026-03-22T10:10:13.269Z</time></trkpt><trkpt lat="45.48658" lon="8.7475183"><ele>130.0</ele><time>2026-03-22T10:10:14.269Z</time></trkpt><trkpt lat="45.4866017" lon="8.7473633"><ele>130.0</ele><time>2026-03-22T10:10:15.269Z</time></trkpt><trkpt lat="45.48662" lon="8.7472133"><ele>130.0</ele><time>2026-03-22T10:10:16.269Z</time></trkpt><trkpt lat="45.4866417" lon="8.7470667"><ele>130.0</ele><time>2026-03-22T10:10:17.269Z</time></trkpt><trkpt lat="45.4866567" lon="8.746935"><ele>130.0</ele><time>2026-03-22T10:10:18.269Z</time></trkpt><trkpt lat="45.4866667" lon="8.7468167"><ele>130.0</ele><time>2026-03-22T10:10:19.269Z</time></trkpt><trkpt lat="45.4866767" lon="8.7467067"><ele>130.0</ele><time>2026-03-22T10:10:20.269Z</time></trkpt><trkpt lat="45.486685" lon="8.7466017"><ele>130.0</ele><time>2026-03-22T10:10:21.269Z</time></trkpt><trkpt lat="45.486695" lon="8.7465117"><ele>130.0</ele><time>2026-03-22T10:10:22.269Z</time></trkpt><trkpt lat="45.4867" lon="8.7463633"><ele>130.00000000000003</ele><time>2026-03-22T10:10:24.27Z</time></trkpt><trkpt lat="45.486705" lon="8.7462517"><ele>130.0</ele><time>2026-03-22T10:10:26.269Z</time></trkpt><trkpt lat="45.4867083" lon="8.7461617"><ele>130.0</ele><time>2026-03-22T10:10:29.269Z</time></trkpt><trkpt lat="45.48671" lon="8.7460717"><ele>130.0</ele><time>2026-03-22T10:10:32.269Z</time></trkpt><trkpt lat="45.48673" lon="8.74596"><ele>130.0</ele><time>2026-03-22T10:10:34.269Z</time></trkpt><trkpt lat="45.4867267" lon="8.7458683"><ele>130.00000000000003</ele><time>2026-03-22T10:10:36.269Z</time></trkpt><trkpt lat="45.4867033" lon="8.745765"><ele>130.0</ele><time>2026-03-22T10:10:40.269Z</time></trkpt><trkpt lat="45.4866317" lon="8.7456383"><ele>130.0</ele><time>2026-03-22T10:10:54.269Z</time></trkpt><trkpt lat="45.486665" lon="8.74577"><ele>130.0</ele><time>2026-03-22T10:11:01.269Z</time></trkpt><trkpt lat="45.4866767" lon="8.7458867"><ele>130.0</ele><time>2026-03-22T10:11:03.269Z</time></trkpt><trkpt lat="45.4866683" lon="8.7460033"><ele>130.0</ele><time>2026-03-22T10:11:06.269Z</time></trkpt><trkpt lat="45.4866533" lon="8.746095"><ele>130.0</ele><time>2026-03-22T10:11:37.269Z</time></trkpt><trkpt lat="45.4865817" lon="8.7461733"><ele>130.0</ele><time>2026-03-22T10:11:41.269Z</time></trkpt><trkpt lat="45.4865283" lon="8.74624"><ele>130.0</ele><time>2026-03-22T10:11:44.269Z</time></trkpt><trkpt lat="45.4866183" lon="8.74618"><ele>130.0</ele><time>2026-03-22T10:12:02.269Z</time></trkpt><trkpt lat="45.486685" lon="8.7460683"><ele>130.0</ele><time>2026-03-22T10:12:04.269Z</time></trkpt><trkpt lat="45.48671" lon="8.74591"><ele>130.0</ele><time>2026-03-22T10:12:06.269Z</time></trkpt><trkpt lat="45.4866833" lon="8.7457517"><ele>130.0</ele><time>2026-03-22T10:12:08.269Z</time></trkpt><trkpt lat="45.4865783" lon="8.7456567"><ele>130.8</ele><time>2026-03-22T10:12:10.269Z</time></trkpt><trkpt lat="45.4864983" lon="8.7456383"><ele>131.6</ele><time>2026-03-22T10:12:11.269Z</time></trkpt><trkpt lat="45.4864083" lon="8.7456283"><ele>132.4</ele><time>2026-03-22T10:12:12.269Z</time></trkpt><trkpt lat="45.4863" lon="8.7456433"><ele>133.2</ele><time>2026-03-22T10:12:13.269Z</time></trkpt><trkpt lat="45.4861883" lon="8.7456617"><ele>134.0</ele><time>2026-03-22T10:12:14.269Z</time></trkpt><trkpt lat="45.48607" lon="8.74567"><ele>134.25</ele><time>2026-03-22T10:12:15.269Z</time></trkpt><trkpt lat="45.4859567" lon="8.7457067"><ele>134.5</ele><time>2026-03-22T10:12:16.269Z</time></trkpt><trkpt lat="45.485845" lon="8.74573"><ele>134.75</ele><time>2026-03-22T10:12:17.269Z</time></trkpt><trkpt lat="45.4857217" lon="8.74575"><ele>135.0</ele><time>2026-03-22T10:12:18.269Z</time></trkpt><trkpt lat="45.4855983" lon="8.7457683"><ele>135.0</ele><time>2026-03-22T10:12:19.269Z</time></trkpt><trkpt lat="45.4854733" lon="8.7457833"><ele>135.0</ele><time>2026-03-22T10:12:20.269Z</time></trkpt><trkpt lat="45.4853433" lon="8.745805"><ele>135.0</ele><time>2026-03-22T10:12:21.269Z</time></trkpt><trkpt lat="45.4852117" lon="8.7458183"><ele>135.0</ele><time>2026-03-22T10:12:22.269Z</time></trkpt><trkpt lat="45.4850717" lon="8.7458333"><ele>136.5</ele><time>2026-03-22T10:12:23.269Z</time></trkpt><trkpt lat="45.48492" lon="8.7458583"><ele>138.0</ele><time>2026-03-22T10:12:24.269Z</time></trkpt><trkpt lat="45.4847783" lon="8.7458733"><ele>139.5</ele><time>2026-03-22T10:12:25.269Z</time></trkpt><trkpt lat="45.484635" lon="8.7458883"><ele>141.0</ele><time>2026-03-22T10:12:26.269Z</time></trkpt><trkpt lat="45.4844883" lon="8.7459117"><ele>142.25</ele><time>2026-03-22T10:12:27.269Z</time></trkpt><trkpt lat="45.4843517" lon="8.7459367"><ele>143.5</ele><time>2026-03-22T10:12:28.269Z</time></trkpt><trkpt lat="45.4842083" lon="8.74595"><ele>144.75</ele><time>2026-03-22T10:12:29.269Z</time></trkpt><trkpt lat="45.4840667" lon="8.74594"><ele>146.0</ele><time>2026-03-22T10:12:30.269Z</time></trkpt><trkpt lat="45.4839183" lon="8.7459383"><ele>146.0</ele><time>2026-03-22T10:12:31.269Z</time></trkpt><trkpt lat="45.48377" lon="8.7459333"><ele>146.0</ele><time>2026-03-22T10:12:32.269Z</time></trkpt><trkpt lat="45.48363" lon="8.7459217"><ele>146.0</ele><time>2026-03-22T10:12:33.269Z</time></trkpt><trkpt lat="45.4834967" lon="8.7459133"><ele>146.0</ele><time>2026-03-22T10:12:34.269Z</time></trkpt><trkpt lat="45.48338" lon="8.7458983"><ele>146.28571428571428</ele><time>2026-03-22T10:12:35.269Z</time></trkpt><trkpt lat="45.4832883" lon="8.7458883"><ele>146.57142857142858</ele><time>2026-03-22T10:12:36.269Z</time></trkpt><trkpt lat="45.4832117" lon="8.74587"><ele>146.85714285714286</ele><time>2026-03-22T10:12:37.269Z</time></trkpt><trkpt lat="45.4831483" lon="8.7458583"><ele>147.14285714285714</ele><time>2026-03-22T10:12:38.269Z</time></trkpt><trkpt lat="45.4830883" lon="8.7458017"><ele>147.42857142857142</ele><time>2026-03-22T10:12:40.269Z</time></trkpt><trkpt lat="45.4830217" lon="8.745795"><ele>147.71428571428572</ele><time>2026-03-22T10:12:42.269Z</time></trkpt><trkpt lat="45.4829633" lon="8.7458417"><ele>148.0</ele><time>2026-03-22T10:12:43.269Z</time></trkpt><trkpt lat="45.4828883" lon="8.7459267"><ele>147.75</ele><time>2026-03-22T10:12:44.269Z</time></trkpt><trkpt lat="45.48281" lon="8.7460283"><ele>147.5</ele><time>2026-03-22T10:12:45.269Z</time></trkpt><trkpt lat="45.482715" lon="8.7461483"><ele>147.25</ele><time>2026-03-22T10:12:46.269Z</time></trkpt><trkpt lat="45.4826083" lon="8.746265"><ele>147.0</ele><time>2026-03-22T10:12:47.269Z</time></trkpt><trkpt lat="45.4825033" lon="8.7463933"><ele>147.0</ele><time>2026-03-22T10:12:48.269Z</time></trkpt><trkpt lat="45.4823967" lon="8.7465117"><ele>147.0</ele><time>2026-03-22T10:12:49.269Z</time></trkpt><trkpt lat="45.4822917" lon="8.746625"><ele>147.0</ele><time>2026-03-22T10:12:50.269Z</time></trkpt><trkpt lat="45.4821817" lon="8.7467417"><ele>147.0</ele><time>2026-03-22T10:12:51.269Z</time></trkpt><trkpt lat="45.48207" lon="8.7468317"><ele>147.25</ele><time>2026-03-22T10:12:52.269Z</time></trkpt><trkpt lat="45.4819583" lon="8.7469517"><ele>147.5</ele><time>2026-03-22T10:12:53.269Z</time></trkpt><trkpt lat="45.4818433" lon="8.747075"><ele>147.75</ele><time>2026-03-22T10:12:54.269Z</time></trkpt><trkpt lat="45.4817333" lon="8.747205"><ele>148.0</ele><time>2026-03-22T10:12:55.269Z</time></trkpt><trkpt lat="45.4816267" lon="8.7473317"><ele>148.0</ele><time>2026-03-22T10:12:56.269Z</time></trkpt><trkpt lat="45.4815217" lon="8.7474583"><ele>148.0</ele><time>2026-03-22T10:12:57.269Z</time></trkpt><trkpt lat="45.481415" lon="8.747575"><ele>148.0</ele><time>2026-03-22T10:12:58.269Z</time></trkpt><trkpt lat="45.4813167" lon="8.747695"><ele>148.0</ele><time>2026-03-22T10:12:59.269Z</time></trkpt><trkpt lat="45.481215" lon="8.747815"><ele>148.0</ele><time>2026-03-22T10:13:00.269Z</time></trkpt><trkpt lat="45.4811033" lon="8.7479383"><ele>148.0</ele><time>2026-03-22T10:13:01.269Z</time></trkpt><trkpt lat="45.480985" lon="8.7480633"><ele>148.0</ele><time>2026-03-22T10:13:02.269Z</time></trkpt><trkpt lat="45.48074" lon="8.7483133"><ele>148.5</ele><time>2026-03-22T10:13:04.269Z</time></trkpt><trkpt lat="45.4804833" lon="8.7485817"><ele>149.0</ele><time>2026-03-22T10:13:06.269Z</time></trkpt><trkpt lat="45.480355" lon="8.7487217"><ele>149.0</ele><time>2026-03-22T10:13:07.269Z</time></trkpt><trkpt lat="45.4802267" lon="8.7488683"><ele>149.0</ele><time>2026-03-22T10:13:08.269Z</time></trkpt><trkpt lat="45.4801033" lon="8.7490033"><ele>149.0</ele><time>2026-03-22T10:13:09.269Z</time></trkpt><trkpt lat="45.4799933" lon="8.7491417"><ele>149.0</ele><time>2026-03-22T10:13:10.269Z</time></trkpt><trkpt lat="45.479875" lon="8.74928"><ele>149.0</ele><time>2026-03-22T10:13:11.269Z</time></trkpt><trkpt lat="45.4797633" lon="8.7494217"><ele>149.0</ele><time>2026-03-22T10:13:12.269Z</time></trkpt><trkpt lat="45.4796433" lon="8.7495517"><ele>149.25</ele><time>2026-03-22T10:13:13.269Z</time></trkpt><trkpt lat="45.4795283" lon="8.7496833"><ele>149.5</ele><time>2026-03-22T10:13:14.269Z</time></trkpt><trkpt lat="45.47942" lon="8.7498133"><ele>149.75</ele><time>2026-03-22T10:13:15.269Z</time></trkpt><trkpt lat="45.4793117" lon="8.7499533"><ele>150.0</ele><time>2026-03-22T10:13:16.269Z</time></trkpt><trkpt lat="45.4790817" lon="8.7502283"><ele>150.0</ele><time>2026-03-22T10:13:18.269Z</time></trkpt><trkpt lat="45.47897" lon="8.7503533"><ele>150.0</ele><time>2026-03-22T10:13:19.269Z</time></trkpt><trkpt lat="45.478855" lon="8.7504717"><ele>150.0</ele><time>2026-03-22T10:13:20.269Z</time></trkpt><trkpt lat="45.4787367" lon="8.7506183"><ele>150.0</ele><time>2026-03-22T10:13:21.269Z</time></trkpt><trkpt lat="45.4786183" lon="8.7507617"><ele>150.0</ele><time>2026-03-22T10:13:22.269Z</time></trkpt><trkpt lat="45.4785017" lon="8.7508917"><ele>150.0</ele><time>2026-03-22T10:13:23.269Z</time></trkpt><trkpt lat="45.47839" lon="8.7510183"><ele>150.0</ele><time>2026-03-22T10:13:24.269Z</time></trkpt><trkpt lat="45.4782717" lon="8.7511333"><ele>150.0</ele><time>2026-03-22T10:13:25.269Z</time></trkpt><trkpt lat="45.4781567" lon="8.751245"><ele>150.0</ele><time>2026-03-22T10:13:26.269Z</time></trkpt><trkpt lat="45.4780533" lon="8.75136"><ele>150.0</ele><time>2026-03-22T10:13:27.269Z</time></trkpt><trkpt lat="45.4778567" lon="8.7516083"><ele>150.0</ele><time>2026-03-22T10:13:29.269Z</time></trkpt><trkpt lat="45.4777683" lon="8.7517233"><ele>150.0</ele><time>2026-03-22T10:13:30.269Z</time></trkpt><trkpt lat="45.47767" lon="8.751825"><ele>150.0</ele><time>2026-03-22T10:13:31.269Z</time></trkpt><trkpt lat="45.4775867" lon="8.751915"><ele>150.0</ele><time>2026-03-22T10:13:32.269Z</time></trkpt><trkpt lat="45.47752" lon="8.7520067"><ele>150.0</ele><time>2026-03-22T10:13:33.269Z</time></trkpt><trkpt lat="45.4774567" lon="8.7520783"><ele>150.0</ele><time>2026-03-22T10:13:34.269Z</time></trkpt><trkpt lat="45.4774083" lon="8.7521417"><ele>150.2</ele><time>2026-03-22T10:13:35.269Z</time></trkpt><trkpt lat="45.4773483" lon="8.7522217"><ele>150.4</ele><time>2026-03-22T10:13:37.269Z</time></trkpt><trkpt lat="45.4772367" lon="8.7523267"><ele>150.6</ele><time>2026-03-22T10:13:56.268Z</time></trkpt><trkpt lat="45.47715" lon="8.7524333"><ele>150.8</ele><time>2026-03-22T10:13:58.268Z</time></trkpt><trkpt lat="45.4770917" lon="8.7525117"><ele>151.0</ele><time>2026-03-22T10:13:59.268Z</time></trkpt><trkpt lat="45.477035" lon="8.7525917"><ele>151.0</ele><time>2026-03-22T10:14:00.268Z</time></trkpt><trkpt lat="45.4769667" lon="8.7526717"><ele>151.0</ele><time>2026-03-22T10:14:01.268Z</time></trkpt><trkpt lat="45.476895" lon="8.7527533"><ele>151.0</ele><time>2026-03-22T10:14:02.268Z</time></trkpt><trkpt lat="45.476815" lon="8.7528367"><ele>151.0</ele><time>2026-03-22T10:14:03.268Z</time></trkpt><trkpt lat="45.4767383" lon="8.7529217"><ele>151.0</ele><time>2026-03-22T10:14:04.269Z</time></trkpt><trkpt lat="45.47666" lon="8.753005"><ele>151.0</ele><time>2026-03-22T10:14:05.268Z</time></trkpt><trkpt lat="45.4765683" lon="8.7530933"><ele>151.0</ele><time>2026-03-22T10:14:06.268Z</time></trkpt><trkpt lat="45.47649" lon="8.7531817"><ele>151.0</ele><time>2026-03-22T10:14:07.268Z</time></trkpt><trkpt lat="45.4764083" lon="8.753275"><ele>151.0</ele><time>2026-03-22T10:14:08.268Z</time></trkpt><trkpt lat="45.476335" lon="8.7533717"><ele>151.0</ele><time>2026-03-22T10:14:09.268Z</time></trkpt><trkpt lat="45.4762467" lon="8.7534617"><ele>151.2</ele><time>2026-03-22T10:14:10.268Z</time></trkpt><trkpt lat="45.4761617" lon="8.7535417"><ele>151.39999999999998</ele><time>2026-03-22T10:14:11.268Z</time></trkpt><trkpt lat="45.4760767" lon="8.7536283"><ele>151.6</ele><time>2026-03-22T10:14:12.268Z</time></trkpt><trkpt lat="45.4759967" lon="8.7537117"><ele>151.79999999999998</ele><time>2026-03-22T10:14:13.268Z</time></trkpt><trkpt lat="45.475915" lon="8.7537967"><ele>152.0</ele><time>2026-03-22T10:14:14.268Z</time></trkpt><trkpt lat="45.47583" lon="8.7539067"><ele>152.0</ele><time>2026-03-22T10:14:15.268Z</time></trkpt><trkpt lat="45.47575" lon="8.75401"><ele>152.0</ele><time>2026-03-22T10:14:16.268Z</time></trkpt><trkpt lat="45.47567" lon="8.7541133"><ele>152.0</ele><time>2026-03-22T10:14:17.268Z</time></trkpt><trkpt lat="45.4755833" lon="8.75422"><ele>152.0</ele><time>2026-03-22T10:14:18.268Z</time></trkpt><trkpt lat="45.4754983" lon="8.7543183"><ele>152.0</ele><time>2026-03-22T10:14:19.268Z</time></trkpt><trkpt lat="45.4754117" lon="8.7544067"><ele>151.4</ele><time>2026-03-22T10:14:20.268Z</time></trkpt><trkpt lat="45.4753367" lon="8.7544883"><ele>150.79999999999998</ele><time>2026-03-22T10:14:21.268Z</time></trkpt><trkpt lat="45.4752533" lon="8.7545617"><ele>150.2</ele><time>2026-03-22T10:14:22.268Z</time></trkpt><trkpt lat="45.4751767" lon="8.7546383"><ele>149.6</ele><time>2026-03-22T10:14:23.268Z</time></trkpt><trkpt lat="45.4751017" lon="8.7547117"><ele>149.0</ele><time>2026-03-22T10:14:24.268Z</time></trkpt><trkpt lat="45.4750333" lon="8.75478"><ele>149.0</ele><time>2026-03-22T10:14:25.268Z</time></trkpt><trkpt lat="45.4749817" lon="8.75485"><ele>149.0</ele><time>2026-03-22T10:14:26.268Z</time></trkpt><trkpt lat="45.4749317" lon="8.7549117"><ele>149.0</ele><time>2026-03-22T10:14:27.268Z</time></trkpt><trkpt lat="45.4748683" lon="8.7550433"><ele>149.0</ele><time>2026-03-22T10:14:29.268Z</time></trkpt><trkpt lat="45.4748617" lon="8.7552067"><ele>149.0</ele><time>2026-03-22T10:14:31.268Z</time></trkpt><trkpt lat="45.4748733" lon="8.7553067"><ele>149.0</ele><time>2026-03-22T10:14:32.268Z</time></trkpt><trkpt lat="45.474885" lon="8.7554167"><ele>149.33333333333331</ele><time>2026-03-22T10:14:33.268Z</time></trkpt><trkpt lat="45.47489" lon="8.75552"><ele>149.66666666666666</ele><time>2026-03-22T10:14:34.268Z</time></trkpt><trkpt lat="45.474895" lon="8.7556233"><ele>150.0</ele><time>2026-03-22T10:14:35.268Z</time></trkpt><trkpt lat="45.4749017" lon="8.7557183"><ele>150.33333333333334</ele><time>2026-03-22T10:14:36.268Z</time></trkpt><trkpt lat="45.47487" lon="8.7558667"><ele>150.66666666666669</ele><time>2026-03-22T10:14:38.268Z</time></trkpt><trkpt lat="45.4747683" lon="8.7559517"><ele>151.0</ele><time>2026-03-22T10:14:40.268Z</time></trkpt><trkpt lat="45.4746817" lon="8.7559633"><ele>151.0</ele><time>2026-03-22T10:14:41.268Z</time></trkpt><trkpt lat="45.4745867" lon="8.7559517"><ele>151.0</ele><time>2026-03-22T10:14:42.268Z</time></trkpt><trkpt lat="45.47448" lon="8.755935"><ele>151.0</ele><time>2026-03-22T10:14:43.268Z</time></trkpt><trkpt lat="45.47437" lon="8.75592"><ele>151.0</ele><time>2026-03-22T10:14:44.268Z</time></trkpt><trkpt lat="45.474265" lon="8.7559233"><ele>151.0</ele><time>2026-03-22T10:14:45.268Z</time></trkpt><trkpt lat="45.4741617" lon="8.7559417"><ele>151.0</ele><time>2026-03-22T10:14:46.268Z</time></trkpt><trkpt lat="45.4740583" lon="8.755955"><ele>151.0</ele><time>2026-03-22T10:14:47.269Z</time></trkpt><trkpt lat="45.47388" lon="8.7559433"><ele>151.0</ele><time>2026-03-22T10:14:49.268Z</time></trkpt><trkpt lat="45.4738083" lon="8.7559367"><ele>151.0</ele><time>2026-03-22T10:14:50.268Z</time></trkpt><trkpt lat="45.47374" lon="8.755925"><ele>151.0</ele><time>2026-03-22T10:14:51.268Z</time></trkpt><trkpt lat="45.473625" lon="8.7559267"><ele>150.6</ele><time>2026-03-22T10:14:53.268Z</time></trkpt><trkpt lat="45.4735017" lon="8.7559267"><ele>150.2</ele><time>2026-03-22T10:14:55.268Z</time></trkpt><trkpt lat="45.4734367" lon="8.7559267"><ele>149.8</ele><time>2026-03-22T10:14:56.268Z</time></trkpt><trkpt lat="45.47334" lon="8.7559017"><ele>149.4</ele><time>2026-03-22T10:14:58.268Z</time></trkpt><trkpt lat="45.4732683" lon="8.7558733"><ele>149.0</ele><time>2026-03-22T10:15:00.268Z</time></trkpt><trkpt lat="45.473195" lon="8.7559583"><ele>149.0</ele><time>2026-03-22T10:15:02.268Z</time></trkpt><trkpt lat="45.4731633" lon="8.7560367"><ele>149.0</ele><time>2026-03-22T10:15:03.268Z</time></trkpt><trkpt lat="45.4731283" lon="8.756135"><ele>149.0</ele><time>2026-03-22T10:15:04.268Z</time></trkpt><trkpt lat="45.47308" lon="8.7562217"><ele>149.0</ele><time>2026-03-22T10:15:05.268Z</time></trkpt><trkpt lat="45.4730317" lon="8.7562967"><ele>149.0</ele><time>2026-03-22T10:15:06.268Z</time></trkpt><trkpt lat="45.4729617" lon="8.7563933"><ele>149.0</ele><time>2026-03-22T10:15:08.268Z</time></trkpt><trkpt lat="45.472945" lon="8.75648"><ele>148.83333333333331</ele><time>2026-03-22T10:15:11.268Z</time></trkpt><trkpt lat="45.4730033" lon="8.756585"><ele>148.66666666666666</ele><time>2026-03-22T10:15:13.268Z</time></trkpt><trkpt lat="45.4730517" lon="8.75666"><ele>148.5</ele><time>2026-03-22T10:15:14.268Z</time></trkpt><trkpt lat="45.473115" lon="8.7567383"><ele>148.33333333333334</ele><time>2026-03-22T10:15:15.268Z</time></trkpt><trkpt lat="45.4731867" lon="8.756825"><ele>148.16666666666669</ele><time>2026-03-22T10:15:16.268Z</time></trkpt><trkpt lat="45.4732633" lon="8.7569167"><ele>148.0</ele><time>2026-03-22T10:15:17.268Z</time></trkpt><trkpt lat="45.4733467" lon="8.7570233"><ele>147.5</ele><time>2026-03-22T10:15:18.268Z</time></trkpt><trkpt lat="45.47344" lon="8.757135"><ele>147.0</ele><time>2026-03-22T10:15:19.268Z</time></trkpt><trkpt lat="45.4735417" lon="8.757255"><ele>146.5</ele><time>2026-03-22T10:15:20.268Z</time></trkpt><trkpt lat="45.473635" lon="8.7573767"><ele>146.0</ele><time>2026-03-22T10:15:21.268Z</time></trkpt><trkpt lat="45.47373" lon="8.7574917"><ele>147.0</ele><time>2026-03-22T10:15:22.268Z</time></trkpt><trkpt lat="45.473825" lon="8.757635"><ele>148.0</ele><time>2026-03-22T10:15:23.268Z</time></trkpt><trkpt lat="45.4739317" lon="8.757775"><ele>149.0</ele><time>2026-03-22T10:15:24.268Z</time></trkpt><trkpt lat="45.4740317" lon="8.757915"><ele>150.0</ele><time>2026-03-22T10:15:25.268Z</time></trkpt><trkpt lat="45.4741367" lon="8.7580483"><ele>150.0</ele><time>2026-03-22T10:15:26.268Z</time></trkpt><trkpt lat="45.4742433" lon="8.7581883"><ele>150.0</ele><time>2026-03-22T10:15:27.268Z</time></trkpt><trkpt lat="45.4743517" lon="8.758325"><ele>150.0</ele><time>2026-03-22T10:15:28.268Z</time></trkpt><trkpt lat="45.47445" lon="8.7584567"><ele>150.0</ele><time>2026-03-22T10:15:29.268Z</time></trkpt><trkpt lat="45.4745583" lon="8.75858"><ele>148.6</ele><time>2026-03-22T10:15:30.268Z</time></trkpt><trkpt lat="45.4746617" lon="8.7586867"><ele>147.2</ele><time>2026-03-22T10:15:31.268Z</time></trkpt><trkpt lat="45.474745" lon="8.758775"><ele>145.8</ele><time>2026-03-22T10:15:32.268Z</time></trkpt><trkpt lat="45.4748133" lon="8.7588883"><ele>144.4</ele><time>2026-03-22T10:15:33.268Z</time></trkpt><trkpt lat="45.4748883" lon="8.758985"><ele>143.0</ele><time>2026-03-22T10:15:34.268Z</time></trkpt><trkpt lat="45.4749583" lon="8.7590983"><ele>143.0</ele><time>2026-03-22T10:15:35.268Z</time></trkpt><trkpt lat="45.475025" lon="8.7592167"><ele>143.0</ele><time>2026-03-22T10:15:36.268Z</time></trkpt><trkpt lat="45.4750683" lon="8.759345"><ele>143.0</ele><time>2026-03-22T10:15:37.268Z</time></trkpt><trkpt lat="45.4751" lon="8.7595083"><ele>143.0</ele><time>2026-03-22T10:15:38.268Z</time></trkpt><trkpt lat="45.47511" lon="8.7596833"><ele>143.0</ele><time>2026-03-22T10:15:39.268Z</time></trkpt><trkpt lat="45.475115" lon="8.75985"><ele>142.6</ele><time>2026-03-22T10:15:40.268Z</time></trkpt><trkpt lat="45.4751233" lon="8.7600017"><ele>142.20000000000002</ele><time>2026-03-22T10:15:41.268Z</time></trkpt><trkpt lat="45.4751083" lon="8.7601317"><ele>141.8</ele><time>2026-03-22T10:15:42.268Z</time></trkpt><trkpt lat="45.4750617" lon="8.7602533"><ele>141.4</ele><time>2026-03-22T10:15:43.268Z</time></trkpt><trkpt lat="45.474985" lon="8.7603817"><ele>141.0</ele><time>2026-03-22T10:15:44.268Z</time></trkpt><trkpt lat="45.4748967" lon="8.7605217"><ele>138.75</ele><time>2026-03-22T10:15:45.268Z</time></trkpt><trkpt lat="45.4748017" lon="8.7606767"><ele>136.5</ele><time>2026-03-22T10:15:46.268Z</time></trkpt><trkpt lat="45.47471" lon="8.7608317"><ele>134.25</ele><time>2026-03-22T10:15:47.268Z</time></trkpt><trkpt lat="45.47462" lon="8.760965"><ele>132.0</ele><time>2026-03-22T10:15:48.268Z</time></trkpt><trkpt lat="45.4745333" lon="8.761105"><ele>132.0</ele><time>2026-03-22T10:15:49.268Z</time></trkpt><trkpt lat="45.474455" lon="8.7612533"><ele>132.0</ele><time>2026-03-22T10:15:50.268Z</time></trkpt><trkpt lat="45.474385" lon="8.7614017"><ele>132.0</ele><time>2026-03-22T10:15:51.268Z</time></trkpt><trkpt lat="45.4743183" lon="8.7615483"><ele>132.0</ele><time>2026-03-22T10:15:52.268Z</time></trkpt><trkpt lat="45.4742483" lon="8.76168"><ele>132.0</ele><time>2026-03-22T10:15:53.268Z</time></trkpt><trkpt lat="45.47418" lon="8.7618033"><ele>132.0</ele><time>2026-03-22T10:15:54.268Z</time></trkpt><trkpt lat="45.4741033" lon="8.76191"><ele>132.0</ele><time>2026-03-22T10:15:55.268Z</time></trkpt><trkpt lat="45.4740333" lon="8.762025"><ele>132.0</ele><time>2026-03-22T10:15:56.268Z</time></trkpt><trkpt lat="45.47396" lon="8.7621233"><ele>132.0</ele><time>2026-03-22T10:15:57.268Z</time></trkpt><trkpt lat="45.4738783" lon="8.7622167"><ele>131.16666666666666</ele><time>2026-03-22T10:15:58.268Z</time></trkpt><trkpt lat="45.4738017" lon="8.7622933"><ele>130.33333333333334</ele><time>2026-03-22T10:15:59.268Z</time></trkpt><trkpt lat="45.473725" lon="8.7623683"><ele>129.5</ele><time>2026-03-22T10:16:00.269Z</time></trkpt><trkpt lat="45.4736567" lon="8.7624233"><ele>128.66666666666669</ele><time>2026-03-22T10:16:01.268Z</time></trkpt><trkpt lat="45.4735983" lon="8.7624633"><ele>127.83333333333334</ele><time>2026-03-22T10:16:02.268Z</time></trkpt><trkpt lat="45.473515" lon="8.7625483"><ele>127.0</ele><time>2026-03-22T10:16:04.268Z</time></trkpt><trkpt lat="45.4734867" lon="8.7626583"><ele>127.00000000000001</ele><time>2026-03-22T10:16:06.268Z</time></trkpt><trkpt lat="45.47352" lon="8.76276"><ele>127.0</ele><time>2026-03-22T10:16:08.268Z</time></trkpt><trkpt lat="45.4735583" lon="8.7628333"><ele>127.0</ele><time>2026-03-22T10:16:11.268Z</time></trkpt><trkpt lat="45.473605" lon="8.762895"><ele>127.0</ele><time>2026-03-22T10:17:15.269Z</time></trkpt><trkpt lat="45.47369" lon="8.7628983"><ele>127.00000000000001</ele><time>2026-03-22T10:17:18.268Z</time></trkpt><trkpt lat="45.4737667" lon="8.7628317"><ele>127.0</ele><time>2026-03-22T10:17:20.268Z</time></trkpt><trkpt lat="45.47384" lon="8.7627867"><ele>127.00000000000001</ele><time>2026-03-22T10:17:22.268Z</time></trkpt><trkpt lat="45.4739067" lon="8.76274"><ele>127.0</ele><time>2026-03-22T10:17:24.268Z</time></trkpt><trkpt lat="45.4739683" lon="8.76269"><ele>127.0</ele><time>2026-03-22T10:17:27.268Z</time></trkpt><trkpt lat="45.4740283" lon="8.7626483"><ele>127.0</ele><time>2026-03-22T10:17:31.268Z</time></trkpt><trkpt lat="45.4739417" lon="8.7626433"><ele>127.00000000000001</ele><time>2026-03-22T10:17:37.268Z</time></trkpt><trkpt lat="45.47387" lon="8.7627167"><ele>127.0</ele><time>2026-03-22T10:17:39.268Z</time></trkpt><trkpt lat="45.4737883" lon="8.7627933"><ele>127.33333333333334</ele><time>2026-03-22T10:17:41.268Z</time></trkpt><trkpt lat="45.4736983" lon="8.7628383"><ele>127.66666666666667</ele><time>2026-03-22T10:17:43.268Z</time></trkpt><trkpt lat="45.4736333" lon="8.7628467"><ele>128.0</ele><time>2026-03-22T10:17:45.268Z</time></trkpt><trkpt lat="45.4735783" lon="8.762795"><ele>128.33333333333334</ele><time>2026-03-22T10:17:47.268Z</time></trkpt><trkpt lat="45.4735417" lon="8.76269"><ele>128.66666666666666</ele><time>2026-03-22T10:17:49.268Z</time></trkpt><trkpt lat="45.4735717" lon="8.7625667"><ele>129.0</ele><time>2026-03-22T10:17:51.268Z</time></trkpt><trkpt lat="45.4736817" lon="8.7624733"><ele>128.66666666666666</ele><time>2026-03-22T10:17:53.268Z</time></trkpt><trkpt lat="45.47375" lon="8.76243"><ele>128.33333333333334</ele><time>2026-03-22T10:17:54.268Z</time></trkpt><trkpt lat="45.4738333" lon="8.7623817"><ele>128.0</ele><time>2026-03-22T10:17:55.268Z</time></trkpt><trkpt lat="45.4738983" lon="8.76232"><ele>127.66666666666667</ele><time>2026-03-22T10:17:56.268Z</time></trkpt><trkpt lat="45.4739583" lon="8.76225"><ele>127.33333333333334</ele><time>2026-03-22T10:17:57.268Z</time></trkpt><trkpt lat="45.47402" lon="8.7621833"><ele>127.0</ele><time>2026-03-22T10:17:58.268Z</time></trkpt><trkpt lat="45.47407" lon="8.7621117"><ele>127.0</ele><time>2026-03-22T10:17:59.268Z</time></trkpt><trkpt lat="45.474115" lon="8.76203"><ele>126.99999999999999</ele><time>2026-03-22T10:18:00.268Z</time></trkpt><trkpt lat="45.474165" lon="8.7619617"><ele>126.99999999999999</ele><time>2026-03-22T10:18:01.268Z</time></trkpt><trkpt lat="45.47425" lon="8.76183"><ele>127.0</ele><time>2026-03-22T10:18:03.268Z</time></trkpt><trkpt lat="45.4743167" lon="8.7616883"><ele>127.0</ele><time>2026-03-22T10:18:05.268Z</time></trkpt><trkpt lat="45.4743867" lon="8.7615433"><ele>127.0</ele><time>2026-03-22T10:18:07.268Z</time></trkpt><trkpt lat="45.47446" lon="8.761405"><ele>126.99999999999999</ele><time>2026-03-22T10:18:09.268Z</time></trkpt><trkpt lat="45.4744967" lon="8.7613317"><ele>126.99999999999999</ele><time>2026-03-22T10:18:10.268Z</time></trkpt><trkpt lat="45.4745667" lon="8.761185"><ele>127.0</ele><time>2026-03-22T10:18:12.268Z</time></trkpt><trkpt lat="45.4746317" lon="8.7610483"><ele>127.0</ele><time>2026-03-22T10:18:14.268Z</time></trkpt><trkpt lat="45.4747033" lon="8.7609133"><ele>127.83333333333334</ele><time>2026-03-22T10:18:16.268Z</time></trkpt><trkpt lat="45.4747917" lon="8.7608017"><ele>128.66666666666669</ele><time>2026-03-22T10:18:18.268Z</time></trkpt><trkpt lat="45.4748467" lon="8.7607417"><ele>129.5</ele><time>2026-03-22T10:18:19.268Z</time></trkpt><trkpt lat="45.4748883" lon="8.7606667"><ele>130.33333333333334</ele><time>2026-03-22T10:18:20.268Z</time></trkpt><trkpt lat="45.474935" lon="8.7605967"><ele>131.16666666666666</ele><time>2026-03-22T10:18:21.268Z</time></trkpt><trkpt lat="45.47498" lon="8.76053"><ele>132.0</ele><time>2026-03-22T10:18:22.268Z</time></trkpt><trkpt lat="45.4750567" lon="8.7603883"><ele>132.0</ele><time>2026-03-22T10:18:24.268Z</time></trkpt><trkpt lat="45.4750883" lon="8.7603067"><ele>132.0</ele><time>2026-03-22T10:18:25.267Z</time></trkpt><trkpt lat="45.4751283" lon="8.76016"><ele>132.0</ele><time>2026-03-22T10:18:27.267Z</time></trkpt><trkpt lat="45.4751533" lon="8.7600383"><ele>132.0</ele><time>2026-03-22T10:18:29.267Z</time></trkpt><trkpt lat="45.4751517" lon="8.7599183"><ele>132.0</ele><time>2026-03-22T10:18:32.267Z</time></trkpt><trkpt lat="45.4751383" lon="8.7597967"><ele>132.0</ele><time>2026-03-22T10:18:36.267Z</time></trkpt><trkpt lat="45.4751183" lon="8.7596917"><ele>133.5</ele><time>2026-03-22T10:18:38.267Z</time></trkpt><trkpt lat="45.4750983" lon="8.7595867"><ele>135.0</ele><time>2026-03-22T10:18:40.267Z</time></trkpt><trkpt lat="45.47508" lon="8.7594583"><ele>136.5</ele><time>2026-03-22T10:18:42.267Z</time></trkpt><trkpt lat="45.4750533" lon="8.7593583"><ele>138.0</ele><time>2026-03-22T10:18:44.267Z</time></trkpt><trkpt lat="45.4750217" lon="8.75924"><ele>139.5</ele><time>2026-03-22T10:18:46.267Z</time></trkpt><trkpt lat="45.4749817" lon="8.7591267"><ele>141.0</ele><time>2026-03-22T10:18:48.267Z</time></trkpt><trkpt lat="45.4749267" lon="8.75902"><ele>141.4</ele><time>2026-03-22T10:18:50.267Z</time></trkpt><trkpt lat="45.4748367" lon="8.75888"><ele>141.8</ele><time>2026-03-22T10:18:53.267Z</time></trkpt><trkpt lat="45.4747767" lon="8.7588"><ele>142.20000000000002</ele><time>2026-03-22T10:18:55.267Z</time></trkpt><trkpt lat="45.474695" lon="8.7587217"><ele>142.6</ele><time>2026-03-22T10:18:57.267Z</time></trkpt><trkpt lat="45.474635" lon="8.75867"><ele>143.0</ele><time>2026-03-22T10:18:58.267Z</time></trkpt><trkpt lat="45.4745733" lon="8.75861"><ele>144.16666666666666</ele><time>2026-03-22T10:18:59.267Z</time></trkpt><trkpt lat="45.47453" lon="8.7585333"><ele>145.33333333333331</ele><time>2026-03-22T10:19:00.267Z</time></trkpt><trkpt lat="45.47448" lon="8.75846"><ele>146.5</ele><time>2026-03-22T10:19:01.267Z</time></trkpt><trkpt lat="45.4744267" lon="8.7583883"><ele>147.66666666666666</ele><time>2026-03-22T10:19:02.267Z</time></trkpt><trkpt lat="45.4743817" lon="8.7583217"><ele>148.83333333333334</ele><time>2026-03-22T10:19:03.267Z</time></trkpt><trkpt lat="45.474325" lon="8.758265"><ele>150.0</ele><time>2026-03-22T10:19:04.267Z</time></trkpt><trkpt lat="45.474225" lon="8.75816"><ele>150.0</ele><time>2026-03-22T10:19:06.267Z</time></trkpt><trkpt lat="45.4741317" lon="8.7580383"><ele>150.0</ele><time>2026-03-22T10:19:08.267Z</time></trkpt><trkpt lat="45.47408" lon="8.7579733"><ele>150.0</ele><time>2026-03-22T10:19:09.267Z</time></trkpt><trkpt lat="45.4740133" lon="8.757905"><ele>150.0</ele><time>2026-03-22T10:19:10.267Z</time></trkpt><trkpt lat="45.473935" lon="8.75783"><ele>150.0</ele><time>2026-03-22T10:19:11.267Z</time></trkpt><trkpt lat="45.4738583" lon="8.7577433"><ele>150.0</ele><time>2026-03-22T10:19:12.267Z</time></trkpt><trkpt lat="45.47378" lon="8.7576433"><ele>150.0</ele><time>2026-03-22T10:19:13.267Z</time></trkpt><trkpt lat="45.4736917" lon="8.7575317"><ele>150.0</ele><time>2026-03-22T10:19:14.267Z</time></trkpt><trkpt lat="45.4736167" lon="8.7574267"><ele>150.0</ele><time>2026-03-22T10:19:15.268Z</time></trkpt><trkpt lat="45.4735433" lon="8.7573333"><ele>150.0</ele><time>2026-03-22T10:19:16.267Z</time></trkpt><trkpt lat="45.47348" lon="8.7572367"><ele>149.66666666666666</ele><time>2026-03-22T10:19:17.267Z</time></trkpt><trkpt lat="45.473415" lon="8.7571483"><ele>149.33333333333334</ele><time>2026-03-22T10:19:18.267Z</time></trkpt><trkpt lat="45.473355" lon="8.75706"><ele>149.0</ele><time>2026-03-22T10:19:19.267Z</time></trkpt><trkpt lat="45.4732867" lon="8.7569683"><ele>148.66666666666669</ele><time>2026-03-22T10:19:20.267Z</time></trkpt><trkpt lat="45.4732183" lon="8.7568783"><ele>148.33333333333334</ele><time>2026-03-22T10:19:21.267Z</time></trkpt><trkpt lat="45.4731567" lon="8.7567967"><ele>148.0</ele><time>2026-03-22T10:19:22.267Z</time></trkpt><trkpt lat="45.4730933" lon="8.756725"><ele>148.0</ele><time>2026-03-22T10:19:23.267Z</time></trkpt><trkpt lat="45.4730383" lon="8.7566717"><ele>148.0</ele><time>2026-03-22T10:19:24.267Z</time></trkpt><trkpt lat="45.472965" lon="8.7565633"><ele>148.0</ele><time>2026-03-22T10:19:26.267Z</time></trkpt><trkpt lat="45.4728917" lon="8.7565633"><ele>148.0</ele><time>2026-03-22T10:19:28.267Z</time></trkpt><trkpt lat="45.4727983" lon="8.7567067"><ele>148.0</ele><time>2026-03-22T10:19:30.267Z</time></trkpt><trkpt lat="45.47273" lon="8.7568167"><ele>147.20000000000002</ele><time>2026-03-22T10:19:31.267Z</time></trkpt><trkpt lat="45.4726517" lon="8.7569367"><ele>146.4</ele><time>2026-03-22T10:19:32.267Z</time></trkpt><trkpt lat="45.4725783" lon="8.7570567"><ele>145.60000000000002</ele><time>2026-03-22T10:19:33.267Z</time></trkpt><trkpt lat="45.4725133" lon="8.7571683"><ele>144.8</ele><time>2026-03-22T10:19:34.267Z</time></trkpt><trkpt lat="45.472455" lon="8.75726"><ele>144.0</ele><time>2026-03-22T10:19:35.267Z</time></trkpt><trkpt lat="45.4724017" lon="8.757335"><ele>144.0</ele><time>2026-03-22T10:19:36.267Z</time></trkpt><trkpt lat="45.47235" lon="8.7574117"><ele>144.0</ele><time>2026-03-22T10:19:37.267Z</time></trkpt><trkpt lat="45.4722917" lon="8.7575183"><ele>144.0</ele><time>2026-03-22T10:19:39.267Z</time></trkpt><trkpt lat="45.4722483" lon="8.75761"><ele>144.0</ele><time>2026-03-22T10:19:41.267Z</time></trkpt><trkpt lat="45.47224" lon="8.7577383"><ele>144.0</ele><time>2026-03-22T10:19:44.267Z</time></trkpt><trkpt lat="45.4722967" lon="8.75791"><ele>143.66666666666666</ele><time>2026-03-22T10:19:46.267Z</time></trkpt><trkpt lat="45.47233" lon="8.7580317"><ele>143.33333333333334</ele><time>2026-03-22T10:19:47.267Z</time></trkpt><trkpt lat="45.4723733" lon="8.7581433"><ele>143.0</ele><time>2026-03-22T10:19:48.267Z</time></trkpt><trkpt lat="45.4724033" lon="8.758255"><ele>142.66666666666669</ele><time>2026-03-22T10:19:49.267Z</time></trkpt><trkpt lat="45.47243" lon="8.7583617"><ele>142.33333333333334</ele><time>2026-03-22T10:19:50.267Z</time></trkpt><trkpt lat="45.4724567" lon="8.7584733"><ele>142.0</ele><time>2026-03-22T10:19:51.267Z</time></trkpt><trkpt lat="45.4724867" lon="8.7585867"><ele>141.79999999999998</ele><time>2026-03-22T10:19:52.267Z</time></trkpt><trkpt lat="45.4725183" lon="8.7587017"><ele>141.6</ele><time>2026-03-22T10:19:53.267Z</time></trkpt><trkpt lat="45.4725517" lon="8.758835"><ele>141.39999999999998</ele><time>2026-03-22T10:19:54.267Z</time></trkpt><trkpt lat="45.472585" lon="8.7589767"><ele>141.2</ele><time>2026-03-22T10:19:55.267Z</time></trkpt><trkpt lat="45.472625" lon="8.75913"><ele>141.0</ele><time>2026-03-22T10:19:56.267Z</time></trkpt><trkpt lat="45.47266" lon="8.7592867"><ele>141.0</ele><time>2026-03-22T10:19:57.267Z</time></trkpt><trkpt lat="45.472685" lon="8.75942"><ele>141.0</ele><time>2026-03-22T10:19:58.267Z</time></trkpt><trkpt lat="45.472715" lon="8.759555"><ele>141.0</ele><time>2026-03-22T10:19:59.267Z</time></trkpt><trkpt lat="45.472745" lon="8.759685"><ele>141.0</ele><time>2026-03-22T10:20:00.267Z</time></trkpt><trkpt lat="45.4727767" lon="8.7598183"><ele>141.0</ele><time>2026-03-22T10:20:01.267Z</time></trkpt><trkpt lat="45.4728033" lon="8.7599617"><ele>141.0</ele><time>2026-03-22T10:20:02.267Z</time></trkpt><trkpt lat="45.4728317" lon="8.7600933"><ele>141.0</ele><time>2026-03-22T10:20:03.267Z</time></trkpt><trkpt lat="45.4728667" lon="8.7602217"><ele>141.0</ele><time>2026-03-22T10:20:04.267Z</time></trkpt><trkpt lat="45.4729033" lon="8.7603483"><ele>141.0</ele><time>2026-03-22T10:20:05.267Z</time></trkpt><trkpt lat="45.4729317" lon="8.7604767"><ele>141.0</ele><time>2026-03-22T10:20:06.267Z</time></trkpt><trkpt lat="45.4729583" lon="8.7606017"><ele>141.33333333333334</ele><time>2026-03-22T10:20:07.267Z</time></trkpt><trkpt lat="45.4729833" lon="8.7607117"><ele>141.66666666666666</ele><time>2026-03-22T10:20:08.267Z</time></trkpt><trkpt lat="45.4730067" lon="8.7608167"><ele>142.0</ele><time>2026-03-22T10:20:09.267Z</time></trkpt><trkpt lat="45.4730317" lon="8.7609217"><ele>142.33333333333331</ele><time>2026-03-22T10:20:10.267Z</time></trkpt><trkpt lat="45.4730483" lon="8.7610317"><ele>142.66666666666666</ele><time>2026-03-22T10:20:11.267Z</time></trkpt><trkpt lat="45.473075" lon="8.7611517"><ele>143.0</ele><time>2026-03-22T10:20:12.267Z</time></trkpt><trkpt lat="45.473105" lon="8.7612817"><ele>143.0</ele><time>2026-03-22T10:20:13.267Z</time></trkpt><trkpt lat="45.4731367" lon="8.7614217"><ele>143.0</ele><time>2026-03-22T10:20:14.267Z</time></trkpt><trkpt lat="45.47317" lon="8.7615567"><ele>143.0</ele><time>2026-03-22T10:20:15.267Z</time></trkpt><trkpt lat="45.4731983" lon="8.7616867"><ele>143.0</ele><time>2026-03-22T10:20:16.267Z</time></trkpt><trkpt lat="45.4732283" lon="8.7618033"><ele>143.0</ele><time>2026-03-22T10:20:17.267Z</time></trkpt><trkpt lat="45.47326" lon="8.7619183"><ele>142.16666666666666</ele><time>2026-03-22T10:20:18.267Z</time></trkpt><trkpt lat="45.473285" lon="8.7620167"><ele>141.33333333333331</ele><time>2026-03-22T10:20:19.267Z</time></trkpt><trkpt lat="45.473305" lon="8.7621567"><ele>140.5</ele><time>2026-03-22T10:20:21.267Z</time></trkpt><trkpt lat="45.4732733" lon="8.762255"><ele>139.66666666666666</ele><time>2026-03-22T10:20:23.267Z</time></trkpt><trkpt lat="45.4732133" lon="8.7623167"><ele>138.83333333333334</ele><time>2026-03-22T10:20:24.267Z</time></trkpt><trkpt lat="45.4731317" lon="8.7623883"><ele>138.0</ele><time>2026-03-22T10:20:25.267Z</time></trkpt><trkpt lat="45.47305" lon="8.762475"><ele>138.0</ele><time>2026-03-22T10:20:26.268Z</time></trkpt><trkpt lat="45.4729617" lon="8.762565"><ele>138.0</ele><time>2026-03-22T10:20:27.267Z</time></trkpt><trkpt lat="45.4728783" lon="8.7626533"><ele>138.0</ele><time>2026-03-22T10:20:28.267Z</time></trkpt><trkpt lat="45.4727917" lon="8.7627367"><ele>138.0</ele><time>2026-03-22T10:20:29.267Z</time></trkpt><trkpt lat="45.472705" lon="8.7628367"><ele>138.0</ele><time>2026-03-22T10:20:30.267Z</time></trkpt><trkpt lat="45.4726167" lon="8.762945"><ele>138.6</ele><time>2026-03-22T10:20:31.267Z</time></trkpt><trkpt lat="45.4725283" lon="8.7630467"><ele>139.20000000000002</ele><time>2026-03-22T10:20:32.267Z</time></trkpt><trkpt lat="45.4724533" lon="8.7631517"><ele>139.8</ele><time>2026-03-22T10:20:33.267Z</time></trkpt><trkpt lat="45.4723783" lon="8.7632533"><ele>140.4</ele><time>2026-03-22T10:20:34.267Z</time></trkpt><trkpt lat="45.4722983" lon="8.7633617"><ele>141.0</ele><time>2026-03-22T10:20:35.267Z</time></trkpt><trkpt lat="45.47222" lon="8.7634667"><ele>141.0</ele><time>2026-03-22T10:20:36.267Z</time></trkpt><trkpt lat="45.472145" lon="8.763555"><ele>141.0</ele><time>2026-03-22T10:20:37.267Z</time></trkpt><trkpt lat="45.4720817" lon="8.7636317"><ele>141.0</ele><time>2026-03-22T10:20:38.267Z</time></trkpt><trkpt lat="45.47202" lon="8.7637033"><ele>141.0</ele><time>2026-03-22T10:20:39.267Z</time></trkpt><trkpt lat="45.4719633" lon="8.7637817"><ele>141.0</ele><time>2026-03-22T10:20:40.267Z</time></trkpt><trkpt lat="45.4719167" lon="8.763845"><ele>141.0</ele><time>2026-03-22T10:20:41.267Z</time></trkpt><trkpt lat="45.471855" lon="8.7639017"><ele>141.0</ele><time>2026-03-22T10:20:42.267Z</time></trkpt><trkpt lat="45.471785" lon="8.7639467"><ele>141.0</ele><time>2026-03-22T10:20:43.267Z</time></trkpt><trkpt lat="45.4717133" lon="8.7639783"><ele>141.0</ele><time>2026-03-22T10:20:44.267Z</time></trkpt><trkpt lat="45.47162" lon="8.764025"><ele>141.0</ele><time>2026-03-22T10:20:45.267Z</time></trkpt><trkpt lat="45.471515" lon="8.7640767"><ele>141.0</ele><time>2026-03-22T10:20:46.267Z</time></trkpt><trkpt lat="45.471405" lon="8.7641317"><ele>141.0</ele><time>2026-03-22T10:20:47.267Z</time></trkpt><trkpt lat="45.471295" lon="8.7641767"><ele>141.0</ele><time>2026-03-22T10:20:48.267Z</time></trkpt><trkpt lat="45.4711817" lon="8.7642233"><ele>141.0</ele><time>2026-03-22T10:20:49.267Z</time></trkpt><trkpt lat="45.4710717" lon="8.76427"><ele>141.0</ele><time>2026-03-22T10:20:50.267Z</time></trkpt><trkpt lat="45.470975" lon="8.764315"><ele>141.0</ele><time>2026-03-22T10:20:51.267Z</time></trkpt><trkpt lat="45.47086" lon="8.7643617"><ele>141.5</ele><time>2026-03-22T10:20:52.267Z</time></trkpt><trkpt lat="45.4707367" lon="8.764415"><ele>142.0</ele><time>2026-03-22T10:20:53.267Z</time></trkpt><trkpt lat="45.47062" lon="8.7644733"><ele>142.5</ele><time>2026-03-22T10:20:54.267Z</time></trkpt><trkpt lat="45.4705183" lon="8.7645367"><ele>143.0</ele><time>2026-03-22T10:20:55.267Z</time></trkpt><trkpt lat="45.4704233" lon="8.7645833"><ele>143.0</ele><time>2026-03-22T10:20:56.267Z</time></trkpt><trkpt lat="45.47033" lon="8.7646433"><ele>143.0</ele><time>2026-03-22T10:20:57.267Z</time></trkpt><trkpt lat="45.4702367" lon="8.7647033"><ele>143.0</ele><time>2026-03-22T10:20:58.267Z</time></trkpt><trkpt lat="45.470135" lon="8.7647717"><ele>143.0</ele><time>2026-03-22T10:20:59.267Z</time></trkpt><trkpt lat="45.4700267" lon="8.7648567"><ele>143.0</ele><time>2026-03-22T10:21:00.267Z</time></trkpt><trkpt lat="45.4699283" lon="8.764935"><ele>143.0</ele><time>2026-03-22T10:21:01.267Z</time></trkpt><trkpt lat="45.4698333" lon="8.7650217"><ele>143.0</ele><time>2026-03-22T10:21:02.267Z</time></trkpt><trkpt lat="45.46973" lon="8.7651017"><ele>143.0</ele><time>2026-03-22T10:21:03.267Z</time></trkpt><trkpt lat="45.4696233" lon="8.76519"><ele>143.0</ele><time>2026-03-22T10:21:04.267Z</time></trkpt><trkpt lat="45.46952" lon="8.7652683"><ele>142.4</ele><time>2026-03-22T10:21:05.267Z</time></trkpt><trkpt lat="45.4694267" lon="8.7653417"><ele>141.8</ele><time>2026-03-22T10:21:06.267Z</time></trkpt><trkpt lat="45.4693367" lon="8.7654283"><ele>141.2</ele><time>2026-03-22T10:21:07.267Z</time></trkpt><trkpt lat="45.4692383" lon="8.7654983"><ele>140.6</ele><time>2026-03-22T10:21:08.267Z</time></trkpt><trkpt lat="45.4691517" lon="8.76557"><ele>140.0</ele><time>2026-03-22T10:21:09.267Z</time></trkpt><trkpt lat="45.4690667" lon="8.7656417"><ele>140.0</ele><time>2026-03-22T10:21:10.267Z</time></trkpt><trkpt lat="45.4689967" lon="8.7657067"><ele>140.0</ele><time>2026-03-22T10:21:11.267Z</time></trkpt><trkpt lat="45.4689417" lon="8.765765"><ele>140.0</ele><time>2026-03-22T10:21:12.267Z</time></trkpt><trkpt lat="45.46885" lon="8.76586"><ele>140.0</ele><time>2026-03-22T10:21:14.267Z</time></trkpt><trkpt lat="45.4687517" lon="8.7658533"><ele>140.0</ele><time>2026-03-22T10:21:16.267Z</time></trkpt><trkpt lat="45.46869" lon="8.7656733"><ele>140.33333333333331</ele><time>2026-03-22T10:21:18.267Z</time></trkpt><trkpt lat="45.46867" lon="8.765545"><ele>140.66666666666666</ele><time>2026-03-22T10:21:19.267Z</time></trkpt><trkpt lat="45.4686567" lon="8.7653983"><ele>141.0</ele><time>2026-03-22T10:21:20.267Z</time></trkpt><trkpt lat="45.468635" lon="8.7652717"><ele>141.33333333333334</ele><time>2026-03-22T10:21:21.267Z</time></trkpt><trkpt lat="45.46862" lon="8.7651517"><ele>141.66666666666669</ele><time>2026-03-22T10:21:22.267Z</time></trkpt><trkpt lat="45.4686067" lon="8.76506"><ele>142.0</ele><time>2026-03-22T10:21:23.267Z</time></trkpt><trkpt lat="45.4685617" lon="8.7649433"><ele>142.0</ele><time>2026-03-22T10:21:25.267Z</time></trkpt><trkpt lat="45.4684933" lon="8.7649183"><ele>142.0</ele><time>2026-03-22T10:21:27.267Z</time></trkpt><trkpt lat="45.4684083" lon="8.76502"><ele>142.0</ele><time>2026-03-22T10:21:29.267Z</time></trkpt><trkpt lat="45.4683583" lon="8.7651067"><ele>142.0</ele><time>2026-03-22T10:21:30.267Z</time></trkpt><trkpt lat="45.4683" lon="8.7651833"><ele>142.0</ele><time>2026-03-22T10:21:31.267Z</time></trkpt><trkpt lat="45.468235" lon="8.765245"><ele>142.0</ele><time>2026-03-22T10:21:32.267Z</time></trkpt><trkpt lat="45.468165" lon="8.7652867"><ele>142.0</ele><time>2026-03-22T10:21:33.267Z</time></trkpt><trkpt lat="45.4680767" lon="8.765315"><ele>142.0</ele><time>2026-03-22T10:21:34.267Z</time></trkpt><trkpt lat="45.4679633" lon="8.7653333"><ele>142.0</ele><time>2026-03-22T10:21:35.267Z</time></trkpt><trkpt lat="45.467825" lon="8.7653433"><ele>142.0</ele><time>2026-03-22T10:21:36.267Z</time></trkpt><trkpt lat="45.4676833" lon="8.765365"><ele>141.0</ele><time>2026-03-22T10:21:37.267Z</time></trkpt><trkpt lat="45.4675583" lon="8.765385"><ele>140.0</ele><time>2026-03-22T10:21:38.267Z</time></trkpt><trkpt lat="45.4674533" lon="8.7654183"><ele>139.0</ele><time>2026-03-22T10:21:39.267Z</time></trkpt><trkpt lat="45.4673517" lon="8.76547"><ele>138.0</ele><time>2026-03-22T10:21:40.267Z</time></trkpt><trkpt lat="45.46727" lon="8.7655733"><ele>138.0</ele><time>2026-03-22T10:21:41.267Z</time></trkpt><trkpt lat="45.4672167" lon="8.7656917"><ele>138.0</ele><time>2026-03-22T10:21:42.267Z</time></trkpt><trkpt lat="45.4671933" lon="8.7658317"><ele>138.0</ele><time>2026-03-22T10:21:43.267Z</time></trkpt><trkpt lat="45.4671967" lon="8.7659883"><ele>138.0</ele><time>2026-03-22T10:21:44.267Z</time></trkpt><trkpt lat="45.46723" lon="8.766155"><ele>138.0</ele><time>2026-03-22T10:21:45.267Z</time></trkpt><trkpt lat="45.4672733" lon="8.7663117"><ele>137.20000000000002</ele><time>2026-03-22T10:21:46.267Z</time></trkpt><trkpt lat="45.467305" lon="8.76646"><ele>136.4</ele><time>2026-03-22T10:21:47.267Z</time></trkpt><trkpt lat="45.467325" lon="8.766605"><ele>135.60000000000002</ele><time>2026-03-22T10:21:48.267Z</time></trkpt><trkpt lat="45.46734" lon="8.7667467"><ele>134.8</ele><time>2026-03-22T10:21:49.267Z</time></trkpt><trkpt lat="45.4673533" lon="8.7668967"><ele>134.0</ele><time>2026-03-22T10:21:50.267Z</time></trkpt><trkpt lat="45.46737" lon="8.7670433"><ele>134.0</ele><time>2026-03-22T10:21:51.267Z</time></trkpt><trkpt lat="45.4673817" lon="8.76719"><ele>134.0</ele><time>2026-03-22T10:21:52.267Z</time></trkpt><trkpt lat="45.4673917" lon="8.767325"><ele>134.0</ele><time>2026-03-22T10:21:53.267Z</time></trkpt><trkpt lat="45.4673917" lon="8.7674667"><ele>134.0</ele><time>2026-03-22T10:21:54.267Z</time></trkpt><trkpt lat="45.4673767" lon="8.767605"><ele>134.0</ele><time>2026-03-22T10:21:55.267Z</time></trkpt><trkpt lat="45.4673483" lon="8.767745"><ele>134.2</ele><time>2026-03-22T10:21:56.267Z</time></trkpt><trkpt lat="45.467315" lon="8.7678767"><ele>134.4</ele><time>2026-03-22T10:21:57.267Z</time></trkpt><trkpt lat="45.46727" lon="8.7680183"><ele>134.6</ele><time>2026-03-22T10:21:58.267Z</time></trkpt><trkpt lat="45.4672233" lon="8.7681583"><ele>134.8</ele><time>2026-03-22T10:21:59.267Z</time></trkpt><trkpt lat="45.4671783" lon="8.7682967"><ele>135.0</ele><time>2026-03-22T10:22:00.267Z</time></trkpt><trkpt lat="45.4671367" lon="8.7684483"><ele>136.2</ele><time>2026-03-22T10:22:01.267Z</time></trkpt><trkpt lat="45.4670883" lon="8.7685917"><ele>137.4</ele><time>2026-03-22T10:22:02.267Z</time></trkpt><trkpt lat="45.4670433" lon="8.7687383"><ele>138.6</ele><time>2026-03-22T10:22:03.267Z</time></trkpt><trkpt lat="45.4669967" lon="8.7688767"><ele>139.8</ele><time>2026-03-22T10:22:04.267Z</time></trkpt><trkpt lat="45.4669467" lon="8.7690217"><ele>141.0</ele><time>2026-03-22T10:22:05.267Z</time></trkpt><trkpt lat="45.4669" lon="8.7691633"><ele>141.0</ele><time>2026-03-22T10:22:06.267Z</time></trkpt><trkpt lat="45.4668617" lon="8.7693167"><ele>141.0</ele><time>2026-03-22T10:22:07.267Z</time></trkpt><trkpt lat="45.466815" lon="8.769455"><ele>141.0</ele><time>2026-03-22T10:22:08.267Z</time></trkpt><trkpt lat="45.4667783" lon="8.7696083"><ele>141.0</ele><time>2026-03-22T10:22:09.267Z</time></trkpt><trkpt lat="45.466735" lon="8.7697633"><ele>141.2</ele><time>2026-03-22T10:22:10.267Z</time></trkpt><trkpt lat="45.4667" lon="8.7699067"><ele>141.39999999999998</ele><time>2026-03-22T10:22:11.267Z</time></trkpt><trkpt lat="45.466655" lon="8.7700317"><ele>141.6</ele><time>2026-03-22T10:22:12.267Z</time></trkpt><trkpt lat="45.466605" lon="8.770135"><ele>141.79999999999998</ele><time>2026-03-22T10:22:13.267Z</time></trkpt><trkpt lat="45.466545" lon="8.7702317"><ele>142.0</ele><time>2026-03-22T10:22:14.267Z</time></trkpt><trkpt lat="45.4664183" lon="8.770375"><ele>142.0</ele><time>2026-03-22T10:22:16.267Z</time></trkpt><trkpt lat="45.4663467" lon="8.7704"><ele>142.0</ele><time>2026-03-22T10:22:17.267Z</time></trkpt><trkpt lat="45.4662717" lon="8.7704133"><ele>142.0</ele><time>2026-03-22T10:22:18.267Z</time></trkpt><trkpt lat="45.4662017" lon="8.7704383"><ele>142.0</ele><time>2026-03-22T10:22:19.267Z</time></trkpt><trkpt lat="45.466125" lon="8.770485"><ele>142.0</ele><time>2026-03-22T10:22:20.267Z</time></trkpt><trkpt lat="45.4660517" lon="8.7705367"><ele>142.0</ele><time>2026-03-22T10:22:21.267Z</time></trkpt><trkpt lat="45.4659783" lon="8.77056"><ele>142.0</ele><time>2026-03-22T10:22:22.267Z</time></trkpt><trkpt lat="45.4658883" lon="8.77058"><ele>142.0</ele><time>2026-03-22T10:22:23.267Z</time></trkpt><trkpt lat="45.465795" lon="8.77061"><ele>142.0</ele><time>2026-03-22T10:22:24.267Z</time></trkpt><trkpt lat="45.4657167" lon="8.7706667"><ele>142.0</ele><time>2026-03-22T10:22:25.267Z</time></trkpt><trkpt lat="45.46565" lon="8.770705"><ele>142.0</ele><time>2026-03-22T10:22:26.267Z</time></trkpt><trkpt lat="45.4655433" lon="8.7707483"><ele>142.0</ele><time>2026-03-22T10:22:28.267Z</time></trkpt><trkpt lat="45.4654617" lon="8.7707067"><ele>142.0</ele><time>2026-03-22T10:22:30.267Z</time></trkpt><trkpt lat="45.4654167" lon="8.7706133"><ele>142.0</ele><time>2026-03-22T10:22:32.267Z</time></trkpt><trkpt lat="45.4654017" lon="8.7704733"><ele>142.0</ele><time>2026-03-22T10:22:34.267Z</time></trkpt><trkpt lat="45.4653867" lon="8.77038"><ele>142.0</ele><time>2026-03-22T10:22:35.267Z</time></trkpt><trkpt lat="45.4653617" lon="8.7702583"><ele>142.0</ele><time>2026-03-22T10:22:36.267Z</time></trkpt><trkpt lat="45.4653283" lon="8.7701117"><ele>141.25</ele><time>2026-03-22T10:22:37.267Z</time></trkpt><trkpt lat="45.465295" lon="8.7699383"><ele>140.5</ele><time>2026-03-22T10:22:38.267Z</time></trkpt><trkpt lat="45.4652583" lon="8.7697633"><ele>139.75</ele><time>2026-03-22T10:22:39.267Z</time></trkpt><trkpt lat="45.465225" lon="8.76959"><ele>139.0</ele><time>2026-03-22T10:22:40.267Z</time></trkpt><trkpt lat="45.465185" lon="8.76941"><ele>138.66666666666669</ele><time>2026-03-22T10:22:41.267Z</time></trkpt><trkpt lat="45.4651367" lon="8.7692267"><ele>138.33333333333334</ele><time>2026-03-22T10:22:42.267Z</time></trkpt><trkpt lat="45.4650933" lon="8.7690133"><ele>138.0</ele><time>2026-03-22T10:22:43.267Z</time></trkpt><trkpt lat="45.4650433" lon="8.7687917"><ele>138.0</ele><time>2026-03-22T10:22:44.267Z</time></trkpt><trkpt lat="45.4649833" lon="8.7685483"><ele>138.0</ele><time>2026-03-22T10:22:45.267Z</time></trkpt><trkpt lat="45.464925" lon="8.7682733"><ele>138.0</ele><time>2026-03-22T10:22:46.267Z</time></trkpt><trkpt lat="45.4648617" lon="8.7680217"><ele>138.0</ele><time>2026-03-22T10:22:47.267Z</time></trkpt><trkpt lat="45.46481" lon="8.7677867"><ele>138.0</ele><time>2026-03-22T10:22:48.267Z</time></trkpt><trkpt lat="45.4647683" lon="8.76756"><ele>138.0</ele><time>2026-03-22T10:22:49.267Z</time></trkpt><trkpt lat="45.464725" lon="8.7673467"><ele>138.0</ele><time>2026-03-22T10:22:50.267Z</time></trkpt><trkpt lat="45.46467" lon="8.7671383"><ele>138.0</ele><time>2026-03-22T10:22:51.267Z</time></trkpt><trkpt lat="45.464625" lon="8.7669217"><ele>138.0</ele><time>2026-03-22T10:22:52.267Z</time></trkpt><trkpt lat="45.46458" lon="8.7667117"><ele>138.5</ele><time>2026-03-22T10:22:53.267Z</time></trkpt><trkpt lat="45.46453" lon="8.766525"><ele>139.0</ele><time>2026-03-22T10:22:54.267Z</time></trkpt><trkpt lat="45.46449" lon="8.7663517"><ele>139.5</ele><time>2026-03-22T10:22:55.267Z</time></trkpt><trkpt lat="45.4644533" lon="8.7661783"><ele>140.0</ele><time>2026-03-22T10:22:56.267Z</time></trkpt><trkpt lat="45.4644167" lon="8.7660083"><ele>140.0</ele><time>2026-03-22T10:22:57.267Z</time></trkpt><trkpt lat="45.4643833" lon="8.7658617"><ele>140.0</ele><time>2026-03-22T10:22:58.267Z</time></trkpt><trkpt lat="45.46435" lon="8.7657433"><ele>140.0</ele><time>2026-03-22T10:22:59.267Z</time></trkpt><trkpt lat="45.4643183" lon="8.765645"><ele>140.0</ele><time>2026-03-22T10:23:00.267Z</time></trkpt><trkpt lat="45.464285" lon="8.765565"><ele>140.0</ele><time>2026-03-22T10:23:01.267Z</time></trkpt><trkpt lat="45.4641883" lon="8.7654833"><ele>140.0</ele><time>2026-03-22T10:23:03.267Z</time></trkpt><trkpt lat="45.4641017" lon="8.76549"><ele>140.0</ele><time>2026-03-22T10:23:04.267Z</time></trkpt><trkpt lat="45.463995" lon="8.7655483"><ele>140.0</ele><time>2026-03-22T10:23:05.267Z</time></trkpt><trkpt lat="45.463875" lon="8.76562"><ele>140.0</ele><time>2026-03-22T10:23:06.266Z</time></trkpt><trkpt lat="45.4637717" lon="8.7656767"><ele>140.0</ele><time>2026-03-22T10:23:07.266Z</time></trkpt><trkpt lat="45.46368" lon="8.7657"><ele>140.16666666666666</ele><time>2026-03-22T10:23:08.266Z</time></trkpt><trkpt lat="45.4636067" lon="8.7657233"><ele>140.33333333333331</ele><time>2026-03-22T10:23:09.266Z</time></trkpt><trkpt lat="45.4635133" lon="8.76576"><ele>140.5</ele><time>2026-03-22T10:23:11.266Z</time></trkpt><trkpt lat="45.463455" lon="8.7657183"><ele>140.66666666666666</ele><time>2026-03-22T10:23:13.266Z</time></trkpt><trkpt lat="45.4634183" lon="8.7656333"><ele>140.83333333333334</ele><time>2026-03-22T10:23:15.266Z</time></trkpt><trkpt lat="45.46346" lon="8.7654833"><ele>141.0</ele><time>2026-03-22T10:23:17.266Z</time></trkpt><trkpt lat="45.4634367" lon="8.765385"><ele>141.0</ele><time>2026-03-22T10:23:19.266Z</time></trkpt><trkpt lat="45.4633133" lon="8.7654083"><ele>141.0</ele><time>2026-03-22T10:23:21.266Z</time></trkpt><trkpt lat="45.463225" lon="8.7654517"><ele>141.0</ele><time>2026-03-22T10:23:22.266Z</time></trkpt><trkpt lat="45.4631067" lon="8.76552"><ele>141.0</ele><time>2026-03-22T10:23:23.266Z</time></trkpt><trkpt lat="45.4629467" lon="8.765595"><ele>140.0</ele><time>2026-03-22T10:23:24.266Z</time></trkpt><trkpt lat="45.4627667" lon="8.76567"><ele>139.0</ele><time>2026-03-22T10:23:25.266Z</time></trkpt><trkpt lat="45.462605" lon="8.765735"><ele>138.0</ele><time>2026-03-22T10:23:26.266Z</time></trkpt><trkpt lat="45.4624683" lon="8.7657917"><ele>138.0</ele><time>2026-03-22T10:23:27.266Z</time></trkpt><trkpt lat="45.4623433" lon="8.7658467"><ele>138.0</ele><time>2026-03-22T10:23:28.266Z</time></trkpt><trkpt lat="45.4622217" lon="8.7658967"><ele>138.0</ele><time>2026-03-22T10:23:29.266Z</time></trkpt><trkpt lat="45.4621017" lon="8.7659433"><ele>138.0</ele><time>2026-03-22T10:23:30.266Z</time></trkpt><trkpt lat="45.4619933" lon="8.7659883"><ele>137.83333333333334</ele><time>2026-03-22T10:23:31.266Z</time></trkpt><trkpt lat="45.4618967" lon="8.7660283"><ele>137.66666666666666</ele><time>2026-03-22T10:23:32.266Z</time></trkpt><trkpt lat="45.4618083" lon="8.7660733"><ele>137.5</ele><time>2026-03-22T10:23:33.266Z</time></trkpt><trkpt lat="45.4617317" lon="8.7661167"><ele>137.33333333333331</ele><time>2026-03-22T10:23:34.266Z</time></trkpt><trkpt lat="45.4616683" lon="8.76615"><ele>137.16666666666666</ele><time>2026-03-22T10:23:35.266Z</time></trkpt><trkpt lat="45.4615783" lon="8.766225"><ele>137.0</ele><time>2026-03-22T10:23:37.266Z</time></trkpt><trkpt lat="45.4615617" lon="8.7663967"><ele>137.0</ele><time>2026-03-22T10:23:39.266Z</time></trkpt><trkpt lat="45.461565" lon="8.7665117"><ele>137.0</ele><time>2026-03-22T10:23:40.266Z</time></trkpt><trkpt lat="45.4615767" lon="8.7666583"><ele>137.0</ele><time>2026-03-22T10:23:41.267Z</time></trkpt><trkpt lat="45.461585" lon="8.76682"><ele>137.0</ele><time>2026-03-22T10:23:42.266Z</time></trkpt><trkpt lat="45.461585" lon="8.7670017"><ele>137.0</ele><time>2026-03-22T10:23:43.266Z</time></trkpt><trkpt lat="45.461585" lon="8.7671933"><ele>137.0</ele><time>2026-03-22T10:23:44.266Z</time></trkpt><trkpt lat="45.4615833" lon="8.7673767"><ele>137.0</ele><time>2026-03-22T10:23:45.266Z</time></trkpt><trkpt lat="45.4615833" lon="8.7675567"><ele>137.0</ele><time>2026-03-22T10:23:46.266Z</time></trkpt><trkpt lat="45.46158" lon="8.7677383"><ele>137.0</ele><time>2026-03-22T10:23:47.266Z</time></trkpt><trkpt lat="45.4615633" lon="8.7679017"><ele>137.0</ele><time>2026-03-22T10:23:48.266Z</time></trkpt><trkpt lat="45.4615567" lon="8.7680533"><ele>137.0</ele><time>2026-03-22T10:23:49.266Z</time></trkpt><trkpt lat="45.4615533" lon="8.7681583"><ele>137.0</ele><time>2026-03-22T10:23:50.266Z</time></trkpt><trkpt lat="45.461565" lon="8.7683067"><ele>137.0</ele><time>2026-03-22T10:23:52.266Z</time></trkpt><trkpt lat="45.4615783" lon="8.7683967"><ele>137.0</ele><time>2026-03-22T10:23:54.266Z</time></trkpt><trkpt lat="45.4615733" lon="8.76849"><ele>137.0</ele><time>2026-03-22T10:23:56.266Z</time></trkpt><trkpt lat="45.4615683" lon="8.7685983"><ele>137.0</ele><time>2026-03-22T10:23:58.266Z</time></trkpt><trkpt lat="45.4615517" lon="8.7687367"><ele>137.0</ele><time>2026-03-22T10:24:00.266Z</time></trkpt><trkpt lat="45.461545" lon="8.7689317"><ele>137.0</ele><time>2026-03-22T10:24:02.266Z</time></trkpt><trkpt lat="45.4615433" lon="8.769065"><ele>137.0</ele><time>2026-03-22T10:24:03.266Z</time></trkpt><trkpt lat="45.46155" lon="8.7692317"><ele>137.0</ele><time>2026-03-22T10:24:04.266Z</time></trkpt><trkpt lat="45.4615617" lon="8.76942"><ele>137.0</ele><time>2026-03-22T10:24:05.266Z</time></trkpt><trkpt lat="45.4615667" lon="8.7695983"><ele>137.0</ele><time>2026-03-22T10:24:06.266Z</time></trkpt><trkpt lat="45.4615667" lon="8.769735"><ele>137.0</ele><time>2026-03-22T10:24:07.266Z</time></trkpt><trkpt lat="45.461575" lon="8.7698417"><ele>137.0</ele><time>2026-03-22T10:24:08.266Z</time></trkpt><trkpt lat="45.4615833" lon="8.7699333"><ele>137.0</ele><time>2026-03-22T10:24:09.266Z</time></trkpt><trkpt lat="45.4615867" lon="8.7700883"><ele>137.0</ele><time>2026-03-22T10:24:11.266Z</time></trkpt><trkpt lat="45.46158" lon="8.7702833"><ele>137.0</ele><time>2026-03-22T10:24:13.266Z</time></trkpt><trkpt lat="45.461575" lon="8.7704167"><ele>137.0</ele><time>2026-03-22T10:24:14.266Z</time></trkpt><trkpt lat="45.4615717" lon="8.7705633"><ele>137.0</ele><time>2026-03-22T10:24:15.266Z</time></trkpt><trkpt lat="45.4615667" lon="8.7707133"><ele>137.0</ele><time>2026-03-22T10:24:16.266Z</time></trkpt><trkpt lat="45.4615667" lon="8.77086"><ele>137.0</ele><time>2026-03-22T10:24:17.266Z</time></trkpt><trkpt lat="45.4615667" lon="8.7710217"><ele>137.0</ele><time>2026-03-22T10:24:18.266Z</time></trkpt><trkpt lat="45.4615567" lon="8.7711733"><ele>137.0</ele><time>2026-03-22T10:24:19.266Z</time></trkpt><trkpt lat="45.4615467" lon="8.7713183"><ele>137.0</ele><time>2026-03-22T10:24:20.266Z</time></trkpt><trkpt lat="45.4615417" lon="8.7714583"><ele>137.0</ele><time>2026-03-22T10:24:21.266Z</time></trkpt><trkpt lat="45.4615517" lon="8.7716167"><ele>136.79999999999998</ele><time>2026-03-22T10:24:22.266Z</time></trkpt><trkpt lat="45.4615667" lon="8.7717833"><ele>136.6</ele><time>2026-03-22T10:24:23.266Z</time></trkpt><trkpt lat="45.4615717" lon="8.7719217"><ele>136.39999999999998</ele><time>2026-03-22T10:24:24.266Z</time></trkpt><trkpt lat="45.46158" lon="8.7720567"><ele>136.2</ele><time>2026-03-22T10:24:25.266Z</time></trkpt><trkpt lat="45.4615883" lon="8.7721917"><ele>136.0</ele><time>2026-03-22T10:24:26.266Z</time></trkpt><trkpt lat="45.4615933" lon="8.77232"><ele>136.0</ele><time>2026-03-22T10:24:27.266Z</time></trkpt><trkpt lat="45.4615867" lon="8.7724717"><ele>136.0</ele><time>2026-03-22T10:24:28.266Z</time></trkpt><trkpt lat="45.4615783" lon="8.772615"><ele>136.0</ele><time>2026-03-22T10:24:29.266Z</time></trkpt><trkpt lat="45.4615817" lon="8.7727533"><ele>136.0</ele><time>2026-03-22T10:24:30.266Z</time></trkpt><trkpt lat="45.461585" lon="8.772895"><ele>136.0</ele><time>2026-03-22T10:24:31.266Z</time></trkpt><trkpt lat="45.4615783" lon="8.773035"><ele>135.6</ele><time>2026-03-22T10:24:32.266Z</time></trkpt><trkpt lat="45.4615717" lon="8.7731733"><ele>135.2</ele><time>2026-03-22T10:24:33.266Z</time></trkpt><trkpt lat="45.4615683" lon="8.77331"><ele>134.8</ele><time>2026-03-22T10:24:34.266Z</time></trkpt><trkpt lat="45.461565" lon="8.7734517"><ele>134.4</ele><time>2026-03-22T10:24:35.266Z</time></trkpt><trkpt lat="45.4615733" lon="8.7735883"><ele>134.0</ele><time>2026-03-22T10:24:36.266Z</time></trkpt><trkpt lat="45.46158" lon="8.773715"><ele>134.66666666666666</ele><time>2026-03-22T10:24:37.266Z</time></trkpt><trkpt lat="45.46158" lon="8.7738333"><ele>135.33333333333331</ele><time>2026-03-22T10:24:38.266Z</time></trkpt><trkpt lat="45.4615733" lon="8.7739533"><ele>136.0</ele><time>2026-03-22T10:24:39.266Z</time></trkpt><trkpt lat="45.4615733" lon="8.7740667"><ele>136.66666666666666</ele><time>2026-03-22T10:24:40.267Z</time></trkpt><trkpt lat="45.4615783" lon="8.7741767"><ele>137.33333333333334</ele><time>2026-03-22T10:24:41.266Z</time></trkpt><trkpt lat="45.46159" lon="8.7742817"><ele>138.0</ele><time>2026-03-22T10:24:42.266Z</time></trkpt><trkpt lat="45.4615717" lon="8.7744717"><ele>138.16666666666666</ele><time>2026-03-22T10:24:44.266Z</time></trkpt><trkpt lat="45.4615583" lon="8.77456"><ele>138.33333333333334</ele><time>2026-03-22T10:24:45.266Z</time></trkpt><trkpt lat="45.461535" lon="8.77466"><ele>138.5</ele><time>2026-03-22T10:24:46.266Z</time></trkpt><trkpt lat="45.4614883" lon="8.7747633"><ele>138.66666666666669</ele><time>2026-03-22T10:24:47.266Z</time></trkpt><trkpt lat="45.4614233" lon="8.7748483"><ele>138.83333333333334</ele><time>2026-03-22T10:24:48.266Z</time></trkpt><trkpt lat="45.46133" lon="8.7749017"><ele>139.0</ele><time>2026-03-22T10:24:49.266Z</time></trkpt><trkpt lat="45.461235" lon="8.7749267"><ele>138.6</ele><time>2026-03-22T10:24:50.266Z</time></trkpt><trkpt lat="45.4611367" lon="8.774945"><ele>138.2</ele><time>2026-03-22T10:24:51.266Z</time></trkpt><trkpt lat="45.4610283" lon="8.7749767"><ele>137.79999999999998</ele><time>2026-03-22T10:24:52.266Z</time></trkpt><trkpt lat="45.46092" lon="8.77502"><ele>137.4</ele><time>2026-03-22T10:24:53.266Z</time></trkpt><trkpt lat="45.4608083" lon="8.7750567"><ele>137.0</ele><time>2026-03-22T10:24:54.266Z</time></trkpt><trkpt lat="45.4606967" lon="8.77509"><ele>137.0</ele><time>2026-03-22T10:24:55.266Z</time></trkpt><trkpt lat="45.460575" lon="8.7751367"><ele>137.0</ele><time>2026-03-22T10:24:56.266Z</time></trkpt><trkpt lat="45.4604433" lon="8.7751883"><ele>137.0</ele><time>2026-03-22T10:24:57.266Z</time></trkpt><trkpt lat="45.46031" lon="8.7752433"><ele>137.0</ele><time>2026-03-22T10:24:58.266Z</time></trkpt><trkpt lat="45.4601683" lon="8.7752867"><ele>136.75</ele><time>2026-03-22T10:24:59.266Z</time></trkpt><trkpt lat="45.46003" lon="8.77534"><ele>136.5</ele><time>2026-03-22T10:25:00.266Z</time></trkpt><trkpt lat="45.45989" lon="8.775395"><ele>136.25</ele><time>2026-03-22T10:25:01.266Z</time></trkpt><trkpt lat="45.459755" lon="8.7754483"><ele>136.0</ele><time>2026-03-22T10:25:02.266Z</time></trkpt><trkpt lat="45.4596183" lon="8.7754983"><ele>136.25</ele><time>2026-03-22T10:25:03.266Z</time></trkpt><trkpt lat="45.45948" lon="8.7755483"><ele>136.5</ele><time>2026-03-22T10:25:04.266Z</time></trkpt><trkpt lat="45.459345" lon="8.7756017"><ele>136.75</ele><time>2026-03-22T10:25:05.266Z</time></trkpt><trkpt lat="45.4592067" lon="8.7756633"><ele>137.0</ele><time>2026-03-22T10:25:06.266Z</time></trkpt><trkpt lat="45.45907" lon="8.775705"><ele>137.0</ele><time>2026-03-22T10:25:07.266Z</time></trkpt><trkpt lat="45.4589367" lon="8.77576"><ele>137.0</ele><time>2026-03-22T10:25:08.266Z</time></trkpt><trkpt lat="45.458805" lon="8.77582"><ele>137.0</ele><time>2026-03-22T10:25:09.266Z</time></trkpt><trkpt lat="45.4586683" lon="8.77588"><ele>137.0</ele><time>2026-03-22T10:25:10.266Z</time></trkpt><trkpt lat="45.45853" lon="8.7759233"><ele>136.5</ele><time>2026-03-22T10:25:11.266Z</time></trkpt><trkpt lat="45.4583967" lon="8.7759717"><ele>136.0</ele><time>2026-03-22T10:25:12.266Z</time></trkpt><trkpt lat="45.4582633" lon="8.7760267"><ele>135.5</ele><time>2026-03-22T10:25:13.266Z</time></trkpt><trkpt lat="45.45812" lon="8.7760817"><ele>135.0</ele><time>2026-03-22T10:25:14.266Z</time></trkpt><trkpt lat="45.4579817" lon="8.776135"><ele>134.75</ele><time>2026-03-22T10:25:15.266Z</time></trkpt><trkpt lat="45.4578417" lon="8.77619"><ele>134.5</ele><time>2026-03-22T10:25:16.266Z</time></trkpt><trkpt lat="45.457705" lon="8.7762483"><ele>134.25</ele><time>2026-03-22T10:25:17.266Z</time></trkpt><trkpt lat="45.4575683" lon="8.77631"><ele>134.0</ele><time>2026-03-22T10:25:18.266Z</time></trkpt><trkpt lat="45.4574383" lon="8.7763783"><ele>134.0</ele><time>2026-03-22T10:25:19.266Z</time></trkpt><trkpt lat="45.4572933" lon="8.7764233"><ele>134.0</ele><time>2026-03-22T10:25:20.266Z</time></trkpt><trkpt lat="45.4571483" lon="8.7764717"><ele>134.0</ele><time>2026-03-22T10:25:21.266Z</time></trkpt><trkpt lat="45.4570117" lon="8.7765183"><ele>134.0</ele><time>2026-03-22T10:25:22.266Z</time></trkpt><trkpt lat="45.45689" lon="8.7765683"><ele>134.25</ele><time>2026-03-22T10:25:23.266Z</time></trkpt><trkpt lat="45.4567783" lon="8.776615"><ele>134.5</ele><time>2026-03-22T10:25:24.266Z</time></trkpt><trkpt lat="45.4566717" lon="8.7766533"><ele>134.75</ele><time>2026-03-22T10:25:25.266Z</time></trkpt><trkpt lat="45.4565583" lon="8.7766967"><ele>135.0</ele><time>2026-03-22T10:25:26.266Z</time></trkpt><trkpt lat="45.4564483" lon="8.77675"><ele>135.0</ele><time>2026-03-22T10:25:27.266Z</time></trkpt><trkpt lat="45.4563367" lon="8.7767967"><ele>135.0</ele><time>2026-03-22T10:25:28.266Z</time></trkpt><trkpt lat="45.456235" lon="8.7768517"><ele>135.0</ele><time>2026-03-22T10:25:29.266Z</time></trkpt><trkpt lat="45.456115" lon="8.77689"><ele>135.0</ele><time>2026-03-22T10:25:30.266Z</time></trkpt><trkpt lat="45.45599" lon="8.77693"><ele>134.75</ele><time>2026-03-22T10:25:31.266Z</time></trkpt><trkpt lat="45.45587" lon="8.77697"><ele>134.5</ele><time>2026-03-22T10:25:32.266Z</time></trkpt><trkpt lat="45.45575" lon="8.7770033"><ele>134.25</ele><time>2026-03-22T10:25:33.266Z</time></trkpt><trkpt lat="45.455635" lon="8.7770433"><ele>134.0</ele><time>2026-03-22T10:25:34.266Z</time></trkpt><trkpt lat="45.45551" lon="8.777095"><ele>134.25</ele><time>2026-03-22T10:25:35.266Z</time></trkpt><trkpt lat="45.455385" lon="8.7771417"><ele>134.5</ele><time>2026-03-22T10:25:36.266Z</time></trkpt><trkpt lat="45.45526" lon="8.7771867"><ele>134.75</ele><time>2026-03-22T10:25:37.266Z</time></trkpt><trkpt lat="45.45513" lon="8.7772467"><ele>135.0</ele><time>2026-03-22T10:25:38.266Z</time></trkpt><trkpt lat="45.455" lon="8.7772983"><ele>135.0</ele><time>2026-03-22T10:25:39.266Z</time></trkpt><trkpt lat="45.45487" lon="8.7773483"><ele>135.0</ele><time>2026-03-22T10:25:40.266Z</time></trkpt><trkpt lat="45.45474" lon="8.7774033"><ele>135.0</ele><time>2026-03-22T10:25:41.266Z</time></trkpt><trkpt lat="45.454605" lon="8.7774717"><ele>135.0</ele><time>2026-03-22T10:25:42.266Z</time></trkpt><trkpt lat="45.45447" lon="8.7775317"><ele>134.5</ele><time>2026-03-22T10:25:43.266Z</time></trkpt><trkpt lat="45.4543367" lon="8.7775817"><ele>134.0</ele><time>2026-03-22T10:25:44.266Z</time></trkpt><trkpt lat="45.454215" lon="8.7776317"><ele>133.5</ele><time>2026-03-22T10:25:45.266Z</time></trkpt><trkpt lat="45.4541067" lon="8.7776733"><ele>133.0</ele><time>2026-03-22T10:25:46.266Z</time></trkpt><trkpt lat="45.4540133" lon="8.777735"><ele>133.0</ele><time>2026-03-22T10:25:47.266Z</time></trkpt><trkpt lat="45.4539417" lon="8.777825"><ele>133.0</ele><time>2026-03-22T10:25:48.266Z</time></trkpt><trkpt lat="45.4538917" lon="8.7779433"><ele>133.0</ele><time>2026-03-22T10:25:49.266Z</time></trkpt><trkpt lat="45.4538533" lon="8.7780933"><ele>133.0</ele><time>2026-03-22T10:25:50.266Z</time></trkpt><trkpt lat="45.45383" lon="8.778265"><ele>133.0</ele><time>2026-03-22T10:25:51.266Z</time></trkpt><trkpt lat="45.4538167" lon="8.7784367"><ele>133.0</ele><time>2026-03-22T10:25:52.266Z</time></trkpt><trkpt lat="45.453805" lon="8.7786083"><ele>133.0</ele><time>2026-03-22T10:25:53.266Z</time></trkpt><trkpt lat="45.4537917" lon="8.77878"><ele>133.0</ele><time>2026-03-22T10:25:54.266Z</time></trkpt><trkpt lat="45.4537783" lon="8.778945"><ele>133.0</ele><time>2026-03-22T10:25:55.266Z</time></trkpt><trkpt lat="45.4537633" lon="8.7791067"><ele>132.75</ele><time>2026-03-22T10:25:56.266Z</time></trkpt><trkpt lat="45.4537583" lon="8.77927"><ele>132.5</ele><time>2026-03-22T10:25:57.266Z</time></trkpt><trkpt lat="45.453755" lon="8.7794417"><ele>132.25</ele><time>2026-03-22T10:25:58.266Z</time></trkpt><trkpt lat="45.4537483" lon="8.7796183"><ele>132.0</ele><time>2026-03-22T10:25:59.266Z</time></trkpt><trkpt lat="45.45374" lon="8.77978"><ele>132.5</ele><time>2026-03-22T10:26:00.267Z</time></trkpt><trkpt lat="45.4537283" lon="8.7799483"><ele>133.0</ele><time>2026-03-22T10:26:01.266Z</time></trkpt><trkpt lat="45.4537167" lon="8.7801317"><ele>133.5</ele><time>2026-03-22T10:26:02.266Z</time></trkpt><trkpt lat="45.45371" lon="8.780315"><ele>134.0</ele><time>2026-03-22T10:26:03.266Z</time></trkpt><trkpt lat="45.453705" lon="8.7805133"><ele>134.0</ele><time>2026-03-22T10:26:04.266Z</time></trkpt><trkpt lat="45.4537" lon="8.7807"><ele>134.0</ele><time>2026-03-22T10:26:05.266Z</time></trkpt><trkpt lat="45.4536967" lon="8.7808883"><ele>134.0</ele><time>2026-03-22T10:26:06.266Z</time></trkpt><trkpt lat="45.4537017" lon="8.7810917"><ele>134.0</ele><time>2026-03-22T10:26:07.266Z</time></trkpt><trkpt lat="45.453705" lon="8.7812933"><ele>133.75</ele><time>2026-03-22T10:26:08.266Z</time></trkpt><trkpt lat="45.453705" lon="8.7814833"><ele>133.5</ele><time>2026-03-22T10:26:09.266Z</time></trkpt><trkpt lat="45.4537067" lon="8.7816817"><ele>133.25</ele><time>2026-03-22T10:26:10.266Z</time></trkpt><trkpt lat="45.4537117" lon="8.7818717"><ele>133.0</ele><time>2026-03-22T10:26:11.266Z</time></trkpt><trkpt lat="45.4537167" lon="8.7820517"><ele>133.0</ele><time>2026-03-22T10:26:12.266Z</time></trkpt><trkpt lat="45.4537233" lon="8.78223"><ele>133.0</ele><time>2026-03-22T10:26:13.266Z</time></trkpt><trkpt lat="45.4537383" lon="8.7823917"><ele>133.0</ele><time>2026-03-22T10:26:14.266Z</time></trkpt><trkpt lat="45.4537483" lon="8.7825367"><ele>133.0</ele><time>2026-03-22T10:26:15.266Z</time></trkpt><trkpt lat="45.4537517" lon="8.782675"><ele>133.0</ele><time>2026-03-22T10:26:16.266Z</time></trkpt><trkpt lat="45.4537333" lon="8.7828"><ele>133.0</ele><time>2026-03-22T10:26:17.266Z</time></trkpt><trkpt lat="45.4536967" lon="8.7829183"><ele>133.0</ele><time>2026-03-22T10:26:18.266Z</time></trkpt><trkpt lat="45.4536483" lon="8.7830417"><ele>133.0</ele><time>2026-03-22T10:26:19.266Z</time></trkpt><trkpt lat="45.4535833" lon="8.7831683"><ele>133.0</ele><time>2026-03-22T10:26:20.266Z</time></trkpt><trkpt lat="45.4535217" lon="8.783295"><ele>133.0</ele><time>2026-03-22T10:26:21.266Z</time></trkpt><trkpt lat="45.45347" lon="8.7834167"><ele>133.20000000000002</ele><time>2026-03-22T10:26:22.266Z</time></trkpt><trkpt lat="45.4534483" lon="8.7835517"><ele>133.4</ele><time>2026-03-22T10:26:23.266Z</time></trkpt><trkpt lat="45.45343" lon="8.783675"><ele>133.60000000000002</ele><time>2026-03-22T10:26:24.266Z</time></trkpt><trkpt lat="45.4533683" lon="8.783805"><ele>133.8</ele><time>2026-03-22T10:26:26.266Z</time></trkpt><trkpt lat="45.453285" lon="8.7838633"><ele>134.0</ele><time>2026-03-22T10:26:28.266Z</time></trkpt><trkpt lat="45.4532167" lon="8.7838817"><ele>134.0</ele><time>2026-03-22T10:26:30.266Z</time></trkpt><trkpt lat="45.4531133" lon="8.78394"><ele>134.0</ele><time>2026-03-22T10:26:33.266Z</time></trkpt><trkpt lat="45.4530317" lon="8.7839867"><ele>134.0</ele><time>2026-03-22T10:26:35.266Z</time></trkpt><trkpt lat="45.452955" lon="8.7840333"><ele>134.0</ele><time>2026-03-22T10:26:37.266Z</time></trkpt><trkpt lat="45.452865" lon="8.7840883"><ele>134.0</ele><time>2026-03-22T10:26:39.266Z</time></trkpt><trkpt lat="45.4527667" lon="8.7841667"><ele>133.66666666666666</ele><time>2026-03-22T10:26:41.266Z</time></trkpt><trkpt lat="45.4526617" lon="8.7842283"><ele>133.33333333333331</ele><time>2026-03-22T10:26:43.266Z</time></trkpt><trkpt lat="45.4526" lon="8.7842767"><ele>133.0</ele><time>2026-03-22T10:26:44.266Z</time></trkpt><trkpt lat="45.4525333" lon="8.784325"><ele>132.66666666666666</ele><time>2026-03-22T10:26:45.266Z</time></trkpt><trkpt lat="45.4524683" lon="8.78437"><ele>132.33333333333334</ele><time>2026-03-22T10:26:46.266Z</time></trkpt><trkpt lat="45.4524033" lon="8.7844117"><ele>132.0</ele><time>2026-03-22T10:26:47.266Z</time></trkpt><trkpt lat="45.4523417" lon="8.7844533"><ele>132.0</ele><time>2026-03-22T10:26:48.266Z</time></trkpt><trkpt lat="45.452285" lon="8.7844933"><ele>132.0</ele><time>2026-03-22T10:26:49.266Z</time></trkpt><trkpt lat="45.452225" lon="8.78453"><ele>132.0</ele><time>2026-03-22T10:26:50.266Z</time></trkpt><trkpt lat="45.4521683" lon="8.78457"><ele>132.0</ele><time>2026-03-22T10:26:51.266Z</time></trkpt><trkpt lat="45.4521083" lon="8.784605"><ele>132.0</ele><time>2026-03-22T10:26:52.266Z</time></trkpt><trkpt lat="45.4520417" lon="8.7846283"><ele>132.0</ele><time>2026-03-22T10:26:53.266Z</time></trkpt><trkpt lat="45.45198" lon="8.784665"><ele>132.0</ele><time>2026-03-22T10:26:54.266Z</time></trkpt><trkpt lat="45.4518667" lon="8.7847317"><ele>132.0</ele><time>2026-03-22T10:26:56.266Z</time></trkpt><trkpt lat="45.4517567" lon="8.7848083"><ele>132.0</ele><time>2026-03-22T10:26:58.266Z</time></trkpt><trkpt lat="45.4516517" lon="8.7849"><ele>132.0</ele><time>2026-03-22T10:27:00.266Z</time></trkpt><trkpt lat="45.4515533" lon="8.785"><ele>132.0</ele><time>2026-03-22T10:27:02.266Z</time></trkpt><trkpt lat="45.4514633" lon="8.7851183"><ele>132.0</ele><time>2026-03-22T10:27:04.266Z</time></trkpt><trkpt lat="45.4513767" lon="8.7852467"><ele>132.0</ele><time>2026-03-22T10:27:06.266Z</time></trkpt><trkpt lat="45.4512917" lon="8.785355"><ele>132.0</ele><time>2026-03-22T10:27:08.266Z</time></trkpt><trkpt lat="45.4512017" lon="8.785475"><ele>132.0</ele><time>2026-03-22T10:27:10.266Z</time></trkpt><trkpt lat="45.45112" lon="8.7855967"><ele>131.79999999999998</ele><time>2026-03-22T10:27:12.266Z</time></trkpt><trkpt lat="45.4510433" lon="8.7857017"><ele>131.6</ele><time>2026-03-22T10:27:14.266Z</time></trkpt><trkpt lat="45.4509617" lon="8.7858067"><ele>131.39999999999998</ele><time>2026-03-22T10:27:16.266Z</time></trkpt><trkpt lat="45.450875" lon="8.7859133"><ele>131.2</ele><time>2026-03-22T10:27:18.266Z</time></trkpt><trkpt lat="45.4507917" lon="8.78602"><ele>131.0</ele><time>2026-03-22T10:27:20.266Z</time></trkpt><trkpt lat="45.450715" lon="8.7861317"><ele>131.0</ele><time>2026-03-22T10:27:22.266Z</time></trkpt><trkpt lat="45.4506283" lon="8.786235"><ele>131.0</ele><time>2026-03-22T10:27:24.266Z</time></trkpt><trkpt lat="45.450545" lon="8.78635"><ele>131.0</ele><time>2026-03-22T10:27:26.266Z</time></trkpt><trkpt lat="45.450465" lon="8.78645"><ele>131.0</ele><time>2026-03-22T10:27:28.266Z</time></trkpt><trkpt lat="45.4503833" lon="8.786545"><ele>131.0</ele><time>2026-03-22T10:27:30.266Z</time></trkpt><trkpt lat="45.4503" lon="8.78664"><ele>131.4</ele><time>2026-03-22T10:27:32.266Z</time></trkpt><trkpt lat="45.4502167" lon="8.7867533"><ele>131.8</ele><time>2026-03-22T10:27:34.266Z</time></trkpt><trkpt lat="45.4501467" lon="8.7868633"><ele>132.20000000000002</ele><time>2026-03-22T10:27:36.266Z</time></trkpt><trkpt lat="45.4500667" lon="8.7869667"><ele>132.6</ele><time>2026-03-22T10:27:38.266Z</time></trkpt><trkpt lat="45.4499833" lon="8.78707"><ele>133.0</ele><time>2026-03-22T10:27:40.266Z</time></trkpt><trkpt lat="45.449905" lon="8.7871833"><ele>133.0</ele><time>2026-03-22T10:27:42.266Z</time></trkpt><trkpt lat="45.4498333" lon="8.7872917"><ele>133.0</ele><time>2026-03-22T10:27:44.266Z</time></trkpt><trkpt lat="45.4497633" lon="8.7873783"><ele>133.0</ele><time>2026-03-22T10:27:46.266Z</time></trkpt><trkpt lat="45.449695" lon="8.787475"><ele>133.0</ele><time>2026-03-22T10:27:48.266Z</time></trkpt><trkpt lat="45.44963" lon="8.7875767"><ele>133.0</ele><time>2026-03-22T10:27:50.266Z</time></trkpt><trkpt lat="45.4495633" lon="8.7876783"><ele>132.8</ele><time>2026-03-22T10:27:52.266Z</time></trkpt><trkpt lat="45.449495" lon="8.787775"><ele>132.60000000000002</ele><time>2026-03-22T10:27:54.266Z</time></trkpt><trkpt lat="45.4494267" lon="8.7878683"><ele>132.39999999999998</ele><time>2026-03-22T10:27:56.266Z</time></trkpt><trkpt lat="45.4493667" lon="8.7879617"><ele>132.2</ele><time>2026-03-22T10:27:58.265Z</time></trkpt><trkpt lat="45.449295" lon="8.78806"><ele>132.0</ele><time>2026-03-22T10:28:00.265Z</time></trkpt><trkpt lat="45.449215" lon="8.7881333"><ele>132.0</ele><time>2026-03-22T10:28:02.265Z</time></trkpt><trkpt lat="45.4491383" lon="8.7882333"><ele>132.0</ele><time>2026-03-22T10:28:04.265Z</time></trkpt><trkpt lat="45.4490633" lon="8.788355"><ele>132.0</ele><time>2026-03-22T10:28:06.265Z</time></trkpt><trkpt lat="45.4490167" lon="8.788425"><ele>132.0</ele><time>2026-03-22T10:28:07.265Z</time></trkpt><trkpt lat="45.4489583" lon="8.7885"><ele>132.0</ele><time>2026-03-22T10:28:08.265Z</time></trkpt><trkpt lat="45.448895" lon="8.78857"><ele>132.0</ele><time>2026-03-22T10:28:09.265Z</time></trkpt><trkpt lat="45.448835" lon="8.788645"><ele>132.0</ele><time>2026-03-22T10:28:10.265Z</time></trkpt><trkpt lat="45.4487767" lon="8.7887183"><ele>132.0</ele><time>2026-03-22T10:28:11.265Z</time></trkpt><trkpt lat="45.4487133" lon="8.788785"><ele>132.0</ele><time>2026-03-22T10:28:12.265Z</time></trkpt><trkpt lat="45.4486567" lon="8.78885"><ele>132.0</ele><time>2026-03-22T10:28:13.265Z</time></trkpt><trkpt lat="45.4486033" lon="8.7889083"><ele>132.0</ele><time>2026-03-22T10:28:14.265Z</time></trkpt><trkpt lat="45.448555" lon="8.7889767"><ele>132.0</ele><time>2026-03-22T10:28:15.265Z</time></trkpt><trkpt lat="45.4485033" lon="8.789045"><ele>132.0</ele><time>2026-03-22T10:28:16.265Z</time></trkpt><trkpt lat="45.4484483" lon="8.78911"><ele>132.0</ele><time>2026-03-22T10:28:17.265Z</time></trkpt><trkpt lat="45.448395" lon="8.789185"><ele>132.0</ele><time>2026-03-22T10:28:18.265Z</time></trkpt><trkpt lat="45.4483333" lon="8.789255"><ele>132.0</ele><time>2026-03-22T10:28:19.265Z</time></trkpt><trkpt lat="45.44827" lon="8.7893317"><ele>132.0</ele><time>2026-03-22T10:28:20.265Z</time></trkpt><trkpt lat="45.4482083" lon="8.7894183"><ele>132.0</ele><time>2026-03-22T10:28:21.265Z</time></trkpt><trkpt lat="45.448145" lon="8.7895117"><ele>132.0</ele><time>2026-03-22T10:28:22.265Z</time></trkpt><trkpt lat="45.4480833" lon="8.789605"><ele>131.79999999999998</ele><time>2026-03-22T10:28:23.265Z</time></trkpt><trkpt lat="45.4480117" lon="8.7896967"><ele>131.6</ele><time>2026-03-22T10:28:24.265Z</time></trkpt><trkpt lat="45.447935" lon="8.7897917"><ele>131.39999999999998</ele><time>2026-03-22T10:28:25.265Z</time></trkpt><trkpt lat="45.447855" lon="8.789885"><ele>131.2</ele><time>2026-03-22T10:28:26.265Z</time></trkpt><trkpt lat="45.4477717" lon="8.7899667"><ele>131.0</ele><time>2026-03-22T10:28:27.265Z</time></trkpt><trkpt lat="45.447695" lon="8.7900383"><ele>131.5</ele><time>2026-03-22T10:28:28.265Z</time></trkpt><trkpt lat="45.4476133" lon="8.790095"><ele>132.0</ele><time>2026-03-22T10:28:29.265Z</time></trkpt><trkpt lat="45.4475283" lon="8.7901383"><ele>132.5</ele><time>2026-03-22T10:28:30.265Z</time></trkpt><trkpt lat="45.4474483" lon="8.7901817"><ele>133.0</ele><time>2026-03-22T10:28:31.265Z</time></trkpt><trkpt lat="45.4473567" lon="8.7902167"><ele>133.5</ele><time>2026-03-22T10:28:32.265Z</time></trkpt><trkpt lat="45.4472817" lon="8.7902583"><ele>134.0</ele><time>2026-03-22T10:28:33.265Z</time></trkpt><trkpt lat="45.44721" lon="8.7902867"><ele>133.6</ele><time>2026-03-22T10:28:34.265Z</time></trkpt><trkpt lat="45.4471117" lon="8.7903267"><ele>133.2</ele><time>2026-03-22T10:28:36.265Z</time></trkpt><trkpt lat="45.4470333" lon="8.7902483"><ele>132.79999999999998</ele><time>2026-03-22T10:28:48.265Z</time></trkpt><trkpt lat="45.4469683" lon="8.7901317"><ele>132.4</ele><time>2026-03-22T10:28:50.265Z</time></trkpt><trkpt lat="45.446935" lon="8.79004"><ele>132.0</ele><time>2026-03-22T10:28:51.265Z</time></trkpt><trkpt lat="45.4469033" lon="8.78994"><ele>132.0</ele><time>2026-03-22T10:28:52.265Z</time></trkpt><trkpt lat="45.4468767" lon="8.7898283"><ele>132.0</ele><time>2026-03-22T10:28:53.265Z</time></trkpt><trkpt lat="45.4468483" lon="8.7897367"><ele>132.0</ele><time>2026-03-22T10:28:54.265Z</time></trkpt><trkpt lat="45.4467867" lon="8.7897117"><ele>132.0</ele><time>2026-03-22T10:28:55.265Z</time></trkpt><trkpt lat="45.4467217" lon="8.7897183"><ele>132.0</ele><time>2026-03-22T10:28:56.265Z</time></trkpt><trkpt lat="45.446645" lon="8.7897333"><ele>132.0</ele><time>2026-03-22T10:28:57.265Z</time></trkpt><trkpt lat="45.44657" lon="8.7897133"><ele>132.0</ele><time>2026-03-22T10:28:58.265Z</time></trkpt><trkpt lat="45.4464867" lon="8.78969"><ele>132.0</ele><time>2026-03-22T10:28:59.265Z</time></trkpt><trkpt lat="45.44639" lon="8.7896533"><ele>132.0</ele><time>2026-03-22T10:29:00.265Z</time></trkpt><trkpt lat="45.4462983" lon="8.7896"><ele>132.0</ele><time>2026-03-22T10:29:01.265Z</time></trkpt><trkpt lat="45.4461933" lon="8.789545"><ele>132.0</ele><time>2026-03-22T10:29:02.265Z</time></trkpt><trkpt lat="45.4460867" lon="8.7894967"><ele>132.0</ele><time>2026-03-22T10:29:03.265Z</time></trkpt><trkpt lat="45.445965" lon="8.7894533"><ele>131.5</ele><time>2026-03-22T10:29:04.265Z</time></trkpt><trkpt lat="45.4458483" lon="8.789415"><ele>131.0</ele><time>2026-03-22T10:29:05.265Z</time></trkpt><trkpt lat="45.4457317" lon="8.78937"><ele>130.5</ele><time>2026-03-22T10:29:06.265Z</time></trkpt><trkpt lat="45.4456083" lon="8.7893183"><ele>130.0</ele><time>2026-03-22T10:29:07.265Z</time></trkpt><trkpt lat="45.445485" lon="8.78927"><ele>129.75</ele><time>2026-03-22T10:29:08.265Z</time></trkpt><trkpt lat="45.44536" lon="8.789225"><ele>129.5</ele><time>2026-03-22T10:29:09.265Z</time></trkpt><trkpt lat="45.4452433" lon="8.7891633"><ele>129.25</ele><time>2026-03-22T10:29:10.265Z</time></trkpt><trkpt lat="45.445125" lon="8.7890967"><ele>129.0</ele><time>2026-03-22T10:29:11.265Z</time></trkpt><trkpt lat="45.4449967" lon="8.78905"><ele>129.0</ele><time>2026-03-22T10:29:12.265Z</time></trkpt><trkpt lat="45.4448733" lon="8.7889933"><ele>129.0</ele><time>2026-03-22T10:29:13.265Z</time></trkpt><trkpt lat="45.4447467" lon="8.78895"><ele>129.0</ele><time>2026-03-22T10:29:14.265Z</time></trkpt><trkpt lat="45.444635" lon="8.788885"><ele>129.0</ele><time>2026-03-22T10:29:15.265Z</time></trkpt><trkpt lat="45.44452" lon="8.7888317"><ele>129.0</ele><time>2026-03-22T10:29:16.265Z</time></trkpt><trkpt lat="45.4443983" lon="8.788775"><ele>129.0</ele><time>2026-03-22T10:29:17.265Z</time></trkpt><trkpt lat="45.4442767" lon="8.7887217"><ele>129.0</ele><time>2026-03-22T10:29:18.265Z</time></trkpt><trkpt lat="45.4441483" lon="8.7886717"><ele>129.0</ele><time>2026-03-22T10:29:19.265Z</time></trkpt><trkpt lat="45.444005" lon="8.7886033"><ele>129.0</ele><time>2026-03-22T10:29:20.265Z</time></trkpt><trkpt lat="45.44387" lon="8.7885517"><ele>129.0</ele><time>2026-03-22T10:29:21.265Z</time></trkpt><trkpt lat="45.44374" lon="8.7885"><ele>129.0</ele><time>2026-03-22T10:29:22.265Z</time></trkpt><trkpt lat="45.4436067" lon="8.7884417"><ele>129.0</ele><time>2026-03-22T10:29:23.265Z</time></trkpt><trkpt lat="45.4434767" lon="8.7883817"><ele>129.25</ele><time>2026-03-22T10:29:24.265Z</time></trkpt><trkpt lat="45.4433417" lon="8.7883233"><ele>129.5</ele><time>2026-03-22T10:29:25.265Z</time></trkpt><trkpt lat="45.4432133" lon="8.78826"><ele>129.75</ele><time>2026-03-22T10:29:26.265Z</time></trkpt><trkpt lat="45.44308" lon="8.7882117"><ele>130.0</ele><time>2026-03-22T10:29:27.265Z</time></trkpt><trkpt lat="45.4429467" lon="8.7881567"><ele>130.5</ele><time>2026-03-22T10:29:28.266Z</time></trkpt><trkpt lat="45.4428133" lon="8.788085"><ele>131.0</ele><time>2026-03-22T10:29:29.265Z</time></trkpt><trkpt lat="45.44268" lon="8.7880217"><ele>131.5</ele><time>2026-03-22T10:29:30.265Z</time></trkpt><trkpt lat="45.4425533" lon="8.78797"><ele>132.0</ele><time>2026-03-22T10:29:31.265Z</time></trkpt><trkpt lat="45.4424217" lon="8.7879133"><ele>132.0</ele><time>2026-03-22T10:29:32.265Z</time></trkpt><trkpt lat="45.442285" lon="8.7878533"><ele>132.0</ele><time>2026-03-22T10:29:33.265Z</time></trkpt><trkpt lat="45.442145" lon="8.787795"><ele>132.0</ele><time>2026-03-22T10:29:34.265Z</time></trkpt><trkpt lat="45.4420083" lon="8.78774"><ele>132.0</ele><time>2026-03-22T10:29:35.265Z</time></trkpt><trkpt lat="45.44187" lon="8.7876833"><ele>131.75</ele><time>2026-03-22T10:29:36.265Z</time></trkpt><trkpt lat="45.4417383" lon="8.787625"><ele>131.5</ele><time>2026-03-22T10:29:37.265Z</time></trkpt><trkpt lat="45.441605" lon="8.7875667"><ele>131.25</ele><time>2026-03-22T10:29:38.265Z</time></trkpt><trkpt lat="45.441475" lon="8.7875067"><ele>131.0</ele><time>2026-03-22T10:29:39.265Z</time></trkpt><trkpt lat="45.4413333" lon="8.78744"><ele>130.75</ele><time>2026-03-22T10:29:40.265Z</time></trkpt><trkpt lat="45.44119" lon="8.78739"><ele>130.5</ele><time>2026-03-22T10:29:41.265Z</time></trkpt><trkpt lat="45.4410517" lon="8.78733"><ele>130.25</ele><time>2026-03-22T10:29:42.265Z</time></trkpt><trkpt lat="45.4409117" lon="8.78727"><ele>130.0</ele><time>2026-03-22T10:29:43.265Z</time></trkpt><trkpt lat="45.4407683" lon="8.7872067"><ele>130.0</ele><time>2026-03-22T10:29:44.265Z</time></trkpt><trkpt lat="45.440625" lon="8.7871433"><ele>130.0</ele><time>2026-03-22T10:29:45.265Z</time></trkpt><trkpt lat="45.440485" lon="8.7870783"><ele>130.0</ele><time>2026-03-22T10:29:46.265Z</time></trkpt><trkpt lat="45.4403367" lon="8.7870233"><ele>129.66666666666669</ele><time>2026-03-22T10:29:47.265Z</time></trkpt><trkpt lat="45.4401783" lon="8.7869683"><ele>129.33333333333334</ele><time>2026-03-22T10:29:48.265Z</time></trkpt><trkpt lat="45.44002" lon="8.7868967"><ele>129.0</ele><time>2026-03-22T10:29:49.265Z</time></trkpt><trkpt lat="45.439855" lon="8.7868333"><ele>129.0</ele><time>2026-03-22T10:29:50.265Z</time></trkpt><trkpt lat="45.4396883" lon="8.7867417"><ele>129.0</ele><time>2026-03-22T10:29:51.265Z</time></trkpt><trkpt lat="45.4395367" lon="8.786655"><ele>129.0</ele><time>2026-03-22T10:29:52.265Z</time></trkpt><trkpt lat="45.439385" lon="8.7865683"><ele>129.33333333333334</ele><time>2026-03-22T10:29:53.265Z</time></trkpt><trkpt lat="45.4392217" lon="8.786485"><ele>129.66666666666669</ele><time>2026-03-22T10:29:54.265Z</time></trkpt><trkpt lat="45.4390617" lon="8.7864317"><ele>130.0</ele><time>2026-03-22T10:29:55.265Z</time></trkpt><trkpt lat="45.4389017" lon="8.7863633"><ele>131.0</ele><time>2026-03-22T10:29:56.265Z</time></trkpt><trkpt lat="45.4387467" lon="8.7862983"><ele>132.0</ele><time>2026-03-22T10:29:57.265Z</time></trkpt><trkpt lat="45.438595" lon="8.7862383"><ele>133.0</ele><time>2026-03-22T10:29:58.265Z</time></trkpt><trkpt lat="45.43844" lon="8.7861567"><ele>133.0</ele><time>2026-03-22T10:29:59.265Z</time></trkpt><trkpt lat="45.4383" lon="8.7860883"><ele>133.0</ele><time>2026-03-22T10:30:00.265Z</time></trkpt><trkpt lat="45.4381633" lon="8.7860233"><ele>133.0</ele><time>2026-03-22T10:30:01.265Z</time></trkpt><trkpt lat="45.4380333" lon="8.7859667"><ele>133.0</ele><time>2026-03-22T10:30:02.265Z</time></trkpt><trkpt lat="45.4379033" lon="8.7859183"><ele>133.0</ele><time>2026-03-22T10:30:03.265Z</time></trkpt><trkpt lat="45.4377833" lon="8.78587"><ele>133.0</ele><time>2026-03-22T10:30:04.265Z</time></trkpt><trkpt lat="45.4376717" lon="8.7858167"><ele>133.0</ele><time>2026-03-22T10:30:05.265Z</time></trkpt><trkpt lat="45.4375667" lon="8.7857733"><ele>133.0</ele><time>2026-03-22T10:30:06.265Z</time></trkpt><trkpt lat="45.43747" lon="8.785735"><ele>133.0</ele><time>2026-03-22T10:30:07.265Z</time></trkpt><trkpt lat="45.4373767" lon="8.7856983"><ele>133.0</ele><time>2026-03-22T10:30:08.265Z</time></trkpt><trkpt lat="45.4372883" lon="8.7856567"><ele>133.0</ele><time>2026-03-22T10:30:09.265Z</time></trkpt><trkpt lat="45.4372167" lon="8.7856217"><ele>133.0</ele><time>2026-03-22T10:30:10.265Z</time></trkpt><trkpt lat="45.43715" lon="8.7855933"><ele>133.0</ele><time>2026-03-22T10:30:11.265Z</time></trkpt><trkpt lat="45.4370867" lon="8.7855733"><ele>133.0</ele><time>2026-03-22T10:30:12.265Z</time></trkpt><trkpt lat="45.4369967" lon="8.7855417"><ele>132.83333333333334</ele><time>2026-03-22T10:30:14.265Z</time></trkpt><trkpt lat="45.436935" lon="8.7855117"><ele>132.66666666666669</ele><time>2026-03-22T10:30:16.265Z</time></trkpt><trkpt lat="45.4368667" lon="8.78548"><ele>132.5</ele><time>2026-03-22T10:30:27.265Z</time></trkpt><trkpt lat="45.4367983" lon="8.7854383"><ele>132.33333333333334</ele><time>2026-03-22T10:30:28.265Z</time></trkpt><trkpt lat="45.4366983" lon="8.785375"><ele>132.16666666666666</ele><time>2026-03-22T10:30:29.265Z</time></trkpt><trkpt lat="45.436585" lon="8.78532"><ele>132.0</ele><time>2026-03-22T10:30:30.265Z</time></trkpt><trkpt lat="45.4364533" lon="8.7852717"><ele>132.0</ele><time>2026-03-22T10:30:31.265Z</time></trkpt><trkpt lat="45.43632" lon="8.7852183"><ele>132.0</ele><time>2026-03-22T10:30:32.265Z</time></trkpt><trkpt lat="45.4361817" lon="8.7851617"><ele>132.0</ele><time>2026-03-22T10:30:33.265Z</time></trkpt><trkpt lat="45.4360417" lon="8.7850983"><ele>132.0</ele><time>2026-03-22T10:30:34.265Z</time></trkpt><trkpt lat="45.4358817" lon="8.7850267"><ele>131.33333333333334</ele><time>2026-03-22T10:30:35.265Z</time></trkpt><trkpt lat="45.4357133" lon="8.7849467"><ele>130.66666666666669</ele><time>2026-03-22T10:30:36.265Z</time></trkpt><trkpt lat="45.4355433" lon="8.7848683"><ele>130.0</ele><time>2026-03-22T10:30:37.265Z</time></trkpt><trkpt lat="45.4353517" lon="8.7847883"><ele>130.0</ele><time>2026-03-22T10:30:38.265Z</time></trkpt><trkpt lat="45.43515" lon="8.7847033"><ele>130.0</ele><time>2026-03-22T10:30:39.265Z</time></trkpt><trkpt lat="45.43495" lon="8.7846217"><ele>130.0</ele><time>2026-03-22T10:30:40.265Z</time></trkpt><trkpt lat="45.43474" lon="8.7845317"><ele>129.5</ele><time>2026-03-22T10:30:41.265Z</time></trkpt><trkpt lat="45.4345183" lon="8.7844583"><ele>129.0</ele><time>2026-03-22T10:30:42.265Z</time></trkpt><trkpt lat="45.4343067" lon="8.78436"><ele>128.5</ele><time>2026-03-22T10:30:43.265Z</time></trkpt><trkpt lat="45.4341033" lon="8.78426"><ele>128.0</ele><time>2026-03-22T10:30:44.265Z</time></trkpt><trkpt lat="45.4336933" lon="8.7840833"><ele>128.0</ele><time>2026-03-22T10:30:46.265Z</time></trkpt><trkpt lat="45.4334867" lon="8.78398"><ele>128.0</ele><time>2026-03-22T10:30:47.265Z</time></trkpt><trkpt lat="45.43328" lon="8.7838933"><ele>128.0</ele><time>2026-03-22T10:30:48.265Z</time></trkpt><trkpt lat="45.433075" lon="8.7838117"><ele>128.33333333333331</ele><time>2026-03-22T10:30:49.265Z</time></trkpt><trkpt lat="45.43287" lon="8.7837267"><ele>128.66666666666666</ele><time>2026-03-22T10:30:50.265Z</time></trkpt><trkpt lat="45.4326683" lon="8.78363"><ele>129.0</ele><time>2026-03-22T10:30:51.265Z</time></trkpt><trkpt lat="45.4324617" lon="8.7835467"><ele>129.0</ele><time>2026-03-22T10:30:52.265Z</time></trkpt><trkpt lat="45.4322583" lon="8.783445"><ele>129.0</ele><time>2026-03-22T10:30:53.265Z</time></trkpt><trkpt lat="45.4320617" lon="8.7833583"><ele>129.0</ele><time>2026-03-22T10:30:54.265Z</time></trkpt><trkpt lat="45.431865" lon="8.78326"><ele>129.0</ele><time>2026-03-22T10:30:55.265Z</time></trkpt><trkpt lat="45.431655" lon="8.78316"><ele>129.0</ele><time>2026-03-22T10:30:56.265Z</time></trkpt><trkpt lat="45.4314383" lon="8.7830767"><ele>129.0</ele><time>2026-03-22T10:30:57.265Z</time></trkpt><trkpt lat="45.4312217" lon="8.78298"><ele>130.0</ele><time>2026-03-22T10:30:58.265Z</time></trkpt><trkpt lat="45.4310117" lon="8.782885"><ele>131.0</ele><time>2026-03-22T10:30:59.265Z</time></trkpt><trkpt lat="45.430805" lon="8.7828033"><ele>132.0</ele><time>2026-03-22T10:31:00.265Z</time></trkpt><trkpt lat="45.4305983" lon="8.7827117"><ele>132.0</ele><time>2026-03-22T10:31:01.265Z</time></trkpt><trkpt lat="45.43039" lon="8.782625"><ele>132.0</ele><time>2026-03-22T10:31:02.265Z</time></trkpt><trkpt lat="45.4301817" lon="8.782535"><ele>132.0</ele><time>2026-03-22T10:31:03.265Z</time></trkpt><trkpt lat="45.4299683" lon="8.7824383"><ele>132.0</ele><time>2026-03-22T10:31:04.265Z</time></trkpt><trkpt lat="45.4297517" lon="8.782355"><ele>132.0</ele><time>2026-03-22T10:31:05.265Z</time></trkpt><trkpt lat="45.429535" lon="8.7822583"><ele>130.5</ele><time>2026-03-22T10:31:06.265Z</time></trkpt><trkpt lat="45.4293133" lon="8.7821717"><ele>129.0</ele><time>2026-03-22T10:31:07.265Z</time></trkpt><trkpt lat="45.4290967" lon="8.78208"><ele>129.0</ele><time>2026-03-22T10:31:08.265Z</time></trkpt><trkpt lat="45.4288817" lon="8.7819983"><ele>129.0</ele><time>2026-03-22T10:31:09.265Z</time></trkpt><trkpt lat="45.42867" lon="8.7818967"><ele>129.0</ele><time>2026-03-22T10:31:10.265Z</time></trkpt><trkpt lat="45.42845" lon="8.781795"><ele>128.0</ele><time>2026-03-22T10:31:11.265Z</time></trkpt><trkpt lat="45.4282367" lon="8.7817017"><ele>127.0</ele><time>2026-03-22T10:31:12.265Z</time></trkpt><trkpt lat="45.4280183" lon="8.7816017"><ele>127.0</ele><time>2026-03-22T10:31:13.265Z</time></trkpt><trkpt lat="45.4277933" lon="8.7815017"><ele>127.0</ele><time>2026-03-22T10:31:14.265Z</time></trkpt><trkpt lat="45.4275717" lon="8.78141"><ele>127.0</ele><time>2026-03-22T10:31:15.265Z</time></trkpt><trkpt lat="45.427345" lon="8.781325"><ele>127.0</ele><time>2026-03-22T10:31:16.265Z</time></trkpt><trkpt lat="45.427115" lon="8.78123"><ele>127.0</ele><time>2026-03-22T10:31:17.265Z</time></trkpt><trkpt lat="45.42689" lon="8.7811333"><ele>127.0</ele><time>2026-03-22T10:31:18.265Z</time></trkpt><trkpt lat="45.4266717" lon="8.78104"><ele>126.66666666666667</ele><time>2026-03-22T10:31:19.265Z</time></trkpt><trkpt lat="45.4264567" lon="8.780945"><ele>126.33333333333334</ele><time>2026-03-22T10:31:20.265Z</time></trkpt><trkpt lat="45.426255" lon="8.78085"><ele>126.0</ele><time>2026-03-22T10:31:21.265Z</time></trkpt><trkpt lat="45.426055" lon="8.780775"><ele>125.66666666666666</ele><time>2026-03-22T10:31:22.265Z</time></trkpt><trkpt lat="45.4258617" lon="8.7806883"><ele>125.33333333333333</ele><time>2026-03-22T10:31:23.265Z</time></trkpt><trkpt lat="45.4256817" lon="8.780615"><ele>125.0</ele><time>2026-03-22T10:31:24.265Z</time></trkpt><trkpt lat="45.4255233" lon="8.7805517"><ele>125.0</ele><time>2026-03-22T10:31:25.265Z</time></trkpt><trkpt lat="45.4253817" lon="8.7804917"><ele>125.0</ele><time>2026-03-22T10:31:26.265Z</time></trkpt><trkpt lat="45.4252533" lon="8.7804417"><ele>125.0</ele><time>2026-03-22T10:31:27.265Z</time></trkpt><trkpt lat="45.4251467" lon="8.7803917"><ele>125.0</ele><time>2026-03-22T10:31:28.265Z</time></trkpt><trkpt lat="45.4250567" lon="8.7803583"><ele>125.0</ele><time>2026-03-22T10:31:29.265Z</time></trkpt><trkpt lat="45.4249733" lon="8.7803217"><ele>125.0</ele><time>2026-03-22T10:31:30.265Z</time></trkpt><trkpt lat="45.424885" lon="8.780285"><ele>125.0</ele><time>2026-03-22T10:31:31.265Z</time></trkpt><trkpt lat="45.4247867" lon="8.780235"><ele>125.0</ele><time>2026-03-22T10:31:32.265Z</time></trkpt><trkpt lat="45.4246967" lon="8.7801967"><ele>125.0</ele><time>2026-03-22T10:31:33.265Z</time></trkpt><trkpt lat="45.4246083" lon="8.7801567"><ele>124.99999999999999</ele><time>2026-03-22T10:31:34.265Z</time></trkpt><trkpt lat="45.4245233" lon="8.780125"><ele>125.0</ele><time>2026-03-22T10:31:35.265Z</time></trkpt><trkpt lat="45.424455" lon="8.7800967"><ele>125.0</ele><time>2026-03-22T10:31:36.265Z</time></trkpt><trkpt lat="45.4243433" lon="8.7801517"><ele>125.0</ele><time>2026-03-22T10:31:38.265Z</time></trkpt><trkpt lat="45.424305" lon="8.78024"><ele>124.99999999999999</ele><time>2026-03-22T10:31:39.265Z</time></trkpt><trkpt lat="45.424265" lon="8.78034"><ele>125.0</ele><time>2026-03-22T10:31:40.265Z</time></trkpt><trkpt lat="45.4242183" lon="8.7804133"><ele>125.0</ele><time>2026-03-22T10:31:41.265Z</time></trkpt><trkpt lat="45.4241467" lon="8.7804567"><ele>125.0</ele><time>2026-03-22T10:31:42.265Z</time></trkpt><trkpt lat="45.42405" lon="8.7804583"><ele>125.0</ele><time>2026-03-22T10:31:43.265Z</time></trkpt><trkpt lat="45.42394" lon="8.78044"><ele>125.0</ele><time>2026-03-22T10:31:44.265Z</time></trkpt><trkpt lat="45.4238217" lon="8.7804317"><ele>125.0</ele><time>2026-03-22T10:31:45.265Z</time></trkpt><trkpt lat="45.4237083" lon="8.78044"><ele>125.0</ele><time>2026-03-22T10:31:46.265Z</time></trkpt><trkpt lat="45.4236017" lon="8.7804567"><ele>125.0</ele><time>2026-03-22T10:31:47.265Z</time></trkpt><trkpt lat="45.42351" lon="8.7805033"><ele>125.0</ele><time>2026-03-22T10:31:48.265Z</time></trkpt><trkpt lat="45.4234233" lon="8.7805883"><ele>125.0</ele><time>2026-03-22T10:31:49.265Z</time></trkpt><trkpt lat="45.4233683" lon="8.780715"><ele>125.0</ele><time>2026-03-22T10:31:50.265Z</time></trkpt><trkpt lat="45.4233267" lon="8.7808733"><ele>125.25</ele><time>2026-03-22T10:31:51.265Z</time></trkpt><trkpt lat="45.4232983" lon="8.7810617"><ele>125.5</ele><time>2026-03-22T10:31:52.265Z</time></trkpt><trkpt lat="45.4232667" lon="8.7812433"><ele>125.75</ele><time>2026-03-22T10:31:53.265Z</time></trkpt><trkpt lat="45.4232317" lon="8.78142"><ele>126.0</ele><time>2026-03-22T10:31:54.265Z</time></trkpt><trkpt lat="45.4232" lon="8.7816033"><ele>126.0</ele><time>2026-03-22T10:31:55.265Z</time></trkpt><trkpt lat="45.4231667" lon="8.781785"><ele>126.0</ele><time>2026-03-22T10:31:56.265Z</time></trkpt><trkpt lat="45.4231333" lon="8.7819633"><ele>126.0</ele><time>2026-03-22T10:31:57.265Z</time></trkpt><trkpt lat="45.4230983" lon="8.7821333"><ele>126.0</ele><time>2026-03-22T10:31:58.265Z</time></trkpt><trkpt lat="45.4230617" lon="8.7822883"><ele>125.75</ele><time>2026-03-22T10:31:59.265Z</time></trkpt><trkpt lat="45.4230017" lon="8.7824433"><ele>125.5</ele><time>2026-03-22T10:32:00.265Z</time></trkpt><trkpt lat="45.4229333" lon="8.7825883"><ele>125.25</ele><time>2026-03-22T10:32:01.265Z</time></trkpt><trkpt lat="45.4228667" lon="8.7827483"><ele>125.0</ele><time>2026-03-22T10:32:02.265Z</time></trkpt><trkpt lat="45.42281" lon="8.782935"><ele>125.0</ele><time>2026-03-22T10:32:03.265Z</time></trkpt><trkpt lat="45.4227483" lon="8.7831183"><ele>125.0</ele><time>2026-03-22T10:32:04.265Z</time></trkpt><trkpt lat="45.4226767" lon="8.78329"><ele>125.0</ele><time>2026-03-22T10:32:05.265Z</time></trkpt><trkpt lat="45.4226" lon="8.7834617"><ele>125.0</ele><time>2026-03-22T10:32:06.265Z</time></trkpt><trkpt lat="45.422525" lon="8.7836267"><ele>125.0</ele><time>2026-03-22T10:32:07.265Z</time></trkpt><trkpt lat="45.4224417" lon="8.78381"><ele>125.0</ele><time>2026-03-22T10:32:08.265Z</time></trkpt><trkpt lat="45.4223617" lon="8.78399"><ele>125.0</ele><time>2026-03-22T10:32:09.265Z</time></trkpt><trkpt lat="45.422275" lon="8.7841583"><ele>125.0</ele><time>2026-03-22T10:32:10.265Z</time></trkpt><trkpt lat="45.42219" lon="8.7843217"><ele>125.0</ele><time>2026-03-22T10:32:11.265Z</time></trkpt><trkpt lat="45.4221017" lon="8.7844817"><ele>125.0</ele><time>2026-03-22T10:32:12.265Z</time></trkpt><trkpt lat="45.422015" lon="8.7846367"><ele>125.0</ele><time>2026-03-22T10:32:13.265Z</time></trkpt><trkpt lat="45.4218383" lon="8.7849517"><ele>125.0</ele><time>2026-03-22T10:32:15.265Z</time></trkpt><trkpt lat="45.42175" lon="8.785095"><ele>125.0</ele><time>2026-03-22T10:32:16.265Z</time></trkpt><trkpt lat="45.4216567" lon="8.7852367"><ele>125.0</ele><time>2026-03-22T10:32:17.265Z</time></trkpt><trkpt lat="45.4215517" lon="8.78536"><ele>125.0</ele><time>2026-03-22T10:32:18.265Z</time></trkpt><trkpt lat="45.4214433" lon="8.7854717"><ele>125.0</ele><time>2026-03-22T10:32:19.265Z</time></trkpt><trkpt lat="45.4213433" lon="8.7855983"><ele>125.0</ele><time>2026-03-22T10:32:20.265Z</time></trkpt><trkpt lat="45.42124" lon="8.785715"><ele>125.0</ele><time>2026-03-22T10:32:21.265Z</time></trkpt><trkpt lat="45.4211417" lon="8.7858317"><ele>125.0</ele><time>2026-03-22T10:32:22.265Z</time></trkpt><trkpt lat="45.4210383" lon="8.7859533"><ele>124.75</ele><time>2026-03-22T10:32:23.265Z</time></trkpt><trkpt lat="45.420935" lon="8.7860717"><ele>124.5</ele><time>2026-03-22T10:32:24.265Z</time></trkpt><trkpt lat="45.420815" lon="8.7861983"><ele>124.25</ele><time>2026-03-22T10:32:25.265Z</time></trkpt><trkpt lat="45.4207" lon="8.7863267"><ele>124.0</ele><time>2026-03-22T10:32:26.265Z</time></trkpt><trkpt lat="45.4205767" lon="8.786435"><ele>123.5</ele><time>2026-03-22T10:32:27.265Z</time></trkpt><trkpt lat="45.4204533" lon="8.7865483"><ele>123.0</ele><time>2026-03-22T10:32:28.265Z</time></trkpt><trkpt lat="45.4203283" lon="8.7866483"><ele>122.5</ele><time>2026-03-22T10:32:29.265Z</time></trkpt><trkpt lat="45.4202117" lon="8.7867483"><ele>122.0</ele><time>2026-03-22T10:32:30.265Z</time></trkpt><trkpt lat="45.4200933" lon="8.7868533"><ele>122.0</ele><time>2026-03-22T10:32:31.265Z</time></trkpt><trkpt lat="45.41997" lon="8.7869633"><ele>122.0</ele><time>2026-03-22T10:32:32.265Z</time></trkpt><trkpt lat="45.4198367" lon="8.7870783"><ele>122.0</ele><time>2026-03-22T10:32:33.265Z</time></trkpt><trkpt lat="45.4197167" lon="8.7871917"><ele>122.0</ele><time>2026-03-22T10:32:34.265Z</time></trkpt><trkpt lat="45.4196033" lon="8.7872933"><ele>122.0</ele><time>2026-03-22T10:32:35.265Z</time></trkpt><trkpt lat="45.4194933" lon="8.7873817"><ele>121.99999999999999</ele><time>2026-03-22T10:32:36.265Z</time></trkpt><trkpt lat="45.4193933" lon="8.78747"><ele>121.99999999999999</ele><time>2026-03-22T10:32:37.265Z</time></trkpt><trkpt lat="45.419305" lon="8.78755"><ele>122.0</ele><time>2026-03-22T10:32:38.265Z</time></trkpt><trkpt lat="45.4192283" lon="8.787625"><ele>122.0</ele><time>2026-03-22T10:32:39.265Z</time></trkpt><trkpt lat="45.419155" lon="8.7877"><ele>122.0</ele><time>2026-03-22T10:32:40.265Z</time></trkpt><trkpt lat="45.419075" lon="8.787775"><ele>121.99999999999999</ele><time>2026-03-22T10:32:41.265Z</time></trkpt><trkpt lat="45.419005" lon="8.7878283"><ele>121.99999999999999</ele><time>2026-03-22T10:32:42.265Z</time></trkpt><trkpt lat="45.4189467" lon="8.787875"><ele>122.0</ele><time>2026-03-22T10:32:43.265Z</time></trkpt><trkpt lat="45.4189067" lon="8.7879967"><ele>122.0</ele><time>2026-03-22T10:32:45.265Z</time></trkpt><trkpt lat="45.4189583" lon="8.7881783"><ele>122.0</ele><time>2026-03-22T10:32:47.265Z</time></trkpt><trkpt lat="45.41901" lon="8.788305"><ele>122.0</ele><time>2026-03-22T10:32:48.264Z</time></trkpt><trkpt lat="45.4190817" lon="8.7884467"><ele>122.0</ele><time>2026-03-22T10:32:49.264Z</time></trkpt><trkpt lat="45.4191467" lon="8.7886133"><ele>122.0</ele><time>2026-03-22T10:32:50.264Z</time></trkpt><trkpt lat="45.4192167" lon="8.7888117"><ele>122.33333333333333</ele><time>2026-03-22T10:32:51.264Z</time></trkpt><trkpt lat="45.4192883" lon="8.7890117"><ele>122.66666666666666</ele><time>2026-03-22T10:32:52.264Z</time></trkpt><trkpt lat="45.4193567" lon="8.789225"><ele>123.0</ele><time>2026-03-22T10:32:53.264Z</time></trkpt><trkpt lat="45.41943" lon="8.7894383"><ele>123.0</ele><time>2026-03-22T10:32:54.264Z</time></trkpt><trkpt lat="45.4195" lon="8.789665"><ele>123.0</ele><time>2026-03-22T10:32:55.264Z</time></trkpt><trkpt lat="45.41958" lon="8.7899033"><ele>123.0</ele><time>2026-03-22T10:32:56.264Z</time></trkpt><trkpt lat="45.4196733" lon="8.790165"><ele>123.0</ele><time>2026-03-22T10:32:57.264Z</time></trkpt><trkpt lat="45.419765" lon="8.79043"><ele>123.0</ele><time>2026-03-22T10:32:58.264Z</time></trkpt><trkpt lat="45.4198433" lon="8.7906517"><ele>123.0</ele><time>2026-03-22T10:32:59.264Z</time></trkpt><trkpt lat="45.41992" lon="8.790865"><ele>123.33333333333334</ele><time>2026-03-22T10:33:00.264Z</time></trkpt><trkpt lat="45.4199767" lon="8.7910667"><ele>123.66666666666667</ele><time>2026-03-22T10:33:01.264Z</time></trkpt><trkpt lat="45.42004" lon="8.7912683"><ele>124.0</ele><time>2026-03-22T10:33:02.264Z</time></trkpt><trkpt lat="45.420105" lon="8.7914717"><ele>124.0</ele><time>2026-03-22T10:33:03.264Z</time></trkpt><trkpt lat="45.4201783" lon="8.79168"><ele>124.0</ele><time>2026-03-22T10:33:04.264Z</time></trkpt><trkpt lat="45.42024" lon="8.7918867"><ele>124.0</ele><time>2026-03-22T10:33:05.264Z</time></trkpt><trkpt lat="45.42031" lon="8.7920833"><ele>123.75</ele><time>2026-03-22T10:33:06.264Z</time></trkpt><trkpt lat="45.4203833" lon="8.792275"><ele>123.5</ele><time>2026-03-22T10:33:07.264Z</time></trkpt><trkpt lat="45.4204467" lon="8.79246"><ele>123.25</ele><time>2026-03-22T10:33:08.264Z</time></trkpt><trkpt lat="45.4205083" lon="8.7926483"><ele>123.0</ele><time>2026-03-22T10:33:09.264Z</time></trkpt><trkpt lat="45.4205583" lon="8.79283"><ele>123.0</ele><time>2026-03-22T10:33:10.264Z</time></trkpt><trkpt lat="45.4206217" lon="8.793005"><ele>123.0</ele><time>2026-03-22T10:33:11.264Z</time></trkpt><trkpt lat="45.4206883" lon="8.79318"><ele>123.0</ele><time>2026-03-22T10:33:12.264Z</time></trkpt><trkpt lat="45.4207383" lon="8.793335"><ele>123.0</ele><time>2026-03-22T10:33:13.264Z</time></trkpt><trkpt lat="45.4207817" lon="8.7934767"><ele>123.16666666666667</ele><time>2026-03-22T10:33:14.264Z</time></trkpt><trkpt lat="45.4208217" lon="8.793605"><ele>123.33333333333334</ele><time>2026-03-22T10:33:15.264Z</time></trkpt><trkpt lat="45.4208683" lon="8.7937067"><ele>123.5</ele><time>2026-03-22T10:33:16.264Z</time></trkpt><trkpt lat="45.4209083" lon="8.7938117"><ele>123.66666666666667</ele><time>2026-03-22T10:33:17.264Z</time></trkpt><trkpt lat="45.4209517" lon="8.7939017"><ele>123.83333333333334</ele><time>2026-03-22T10:33:18.264Z</time></trkpt><trkpt lat="45.4209933" lon="8.7940283"><ele>124.0</ele><time>2026-03-22T10:33:20.264Z</time></trkpt><trkpt lat="45.4209567" lon="8.7941067"><ele>124.0</ele><time>2026-03-22T10:33:22.264Z</time></trkpt><trkpt lat="45.420895" lon="8.7941433"><ele>124.0</ele><time>2026-03-22T10:33:23.264Z</time></trkpt><trkpt lat="45.4208133" lon="8.79417"><ele>124.0</ele><time>2026-03-22T10:33:24.264Z</time></trkpt><trkpt lat="45.4207217" lon="8.79419"><ele>124.0</ele><time>2026-03-22T10:33:25.264Z</time></trkpt><trkpt lat="45.4206233" lon="8.7942117"><ele>124.0</ele><time>2026-03-22T10:33:26.264Z</time></trkpt><trkpt lat="45.4205117" lon="8.7942267"><ele>124.0</ele><time>2026-03-22T10:33:27.264Z</time></trkpt><trkpt lat="45.4203933" lon="8.7942417"><ele>124.0</ele><time>2026-03-22T10:33:28.264Z</time></trkpt><trkpt lat="45.4202683" lon="8.7942767"><ele>124.0</ele><time>2026-03-22T10:33:29.264Z</time></trkpt><trkpt lat="45.42014" lon="8.7943283"><ele>124.0</ele><time>2026-03-22T10:33:30.264Z</time></trkpt><trkpt lat="45.4200167" lon="8.7943933"><ele>124.0</ele><time>2026-03-22T10:33:31.264Z</time></trkpt><trkpt lat="45.4198833" lon="8.7944517"><ele>124.0</ele><time>2026-03-22T10:33:32.264Z</time></trkpt><trkpt lat="45.41975" lon="8.7944967"><ele>124.0</ele><time>2026-03-22T10:33:33.264Z</time></trkpt><trkpt lat="45.4195983" lon="8.7945433"><ele>124.0</ele><time>2026-03-22T10:33:34.264Z</time></trkpt><trkpt lat="45.419445" lon="8.7945967"><ele>124.0</ele><time>2026-03-22T10:33:35.264Z</time></trkpt><trkpt lat="45.4192917" lon="8.79466"><ele>124.0</ele><time>2026-03-22T10:33:36.264Z</time></trkpt><trkpt lat="45.41914" lon="8.7947233"><ele>124.0</ele><time>2026-03-22T10:33:37.264Z</time></trkpt><trkpt lat="45.4189883" lon="8.794785"><ele>124.0</ele><time>2026-03-22T10:33:38.264Z</time></trkpt><trkpt lat="45.4188467" lon="8.7948367"><ele>124.0</ele><time>2026-03-22T10:33:39.264Z</time></trkpt><trkpt lat="45.4187167" lon="8.794885"><ele>124.0</ele><time>2026-03-22T10:33:40.264Z</time></trkpt><trkpt lat="45.4186083" lon="8.794935"><ele>124.0</ele><time>2026-03-22T10:33:41.264Z</time></trkpt><trkpt lat="45.4185283" lon="8.7949733"><ele>123.83333333333334</ele><time>2026-03-22T10:33:42.264Z</time></trkpt><trkpt lat="45.41843" lon="8.7950233"><ele>123.66666666666667</ele><time>2026-03-22T10:33:44.264Z</time></trkpt><trkpt lat="45.418395" lon="8.79513"><ele>123.5</ele><time>2026-03-22T10:33:46.264Z</time></trkpt><trkpt lat="45.4183967" lon="8.7952333"><ele>123.33333333333334</ele><time>2026-03-22T10:33:47.264Z</time></trkpt><trkpt lat="45.4184233" lon="8.79535"><ele>123.16666666666667</ele><time>2026-03-22T10:33:48.264Z</time></trkpt><trkpt lat="45.4184667" lon="8.7954833"><ele>123.0</ele><time>2026-03-22T10:33:49.264Z</time></trkpt><trkpt lat="45.418525" lon="8.7956283"><ele>123.0</ele><time>2026-03-22T10:33:50.264Z</time></trkpt><trkpt lat="45.41859" lon="8.7957733"><ele>123.0</ele><time>2026-03-22T10:33:51.264Z</time></trkpt><trkpt lat="45.4186467" lon="8.79594"><ele>123.0</ele><time>2026-03-22T10:33:52.264Z</time></trkpt><trkpt lat="45.4187133" lon="8.7961183"><ele>123.0</ele><time>2026-03-22T10:33:53.264Z</time></trkpt><trkpt lat="45.4187833" lon="8.7962917"><ele>123.5</ele><time>2026-03-22T10:33:54.264Z</time></trkpt><trkpt lat="45.4188433" lon="8.7964717"><ele>124.0</ele><time>2026-03-22T10:33:55.264Z</time></trkpt><trkpt lat="45.4189" lon="8.7966617"><ele>124.5</ele><time>2026-03-22T10:33:56.264Z</time></trkpt><trkpt lat="45.4189683" lon="8.7968583"><ele>125.0</ele><time>2026-03-22T10:33:57.264Z</time></trkpt><trkpt lat="45.4190383" lon="8.797055"><ele>125.0</ele><time>2026-03-22T10:33:58.264Z</time></trkpt><trkpt lat="45.4191083" lon="8.7972617"><ele>125.0</ele><time>2026-03-22T10:33:59.264Z</time></trkpt><trkpt lat="45.4191783" lon="8.7974667"><ele>125.0</ele><time>2026-03-22T10:34:00.264Z</time></trkpt><trkpt lat="45.4192433" lon="8.797665"><ele>125.0</ele><time>2026-03-22T10:34:01.264Z</time></trkpt><trkpt lat="45.419315" lon="8.797865"><ele>125.0</ele><time>2026-03-22T10:34:02.264Z</time></trkpt><trkpt lat="45.4193917" lon="8.79808"><ele>125.0</ele><time>2026-03-22T10:34:03.264Z</time></trkpt><trkpt lat="45.4194683" lon="8.7982867"><ele>125.0</ele><time>2026-03-22T10:34:04.264Z</time></trkpt><trkpt lat="45.4195433" lon="8.7984767"><ele>125.0</ele><time>2026-03-22T10:34:05.264Z</time></trkpt><trkpt lat="45.41961" lon="8.798665"><ele>125.0</ele><time>2026-03-22T10:34:06.264Z</time></trkpt><trkpt lat="45.4196783" lon="8.7988567"><ele>125.0</ele><time>2026-03-22T10:34:07.264Z</time></trkpt><trkpt lat="45.419745" lon="8.799045"><ele>125.0</ele><time>2026-03-22T10:34:08.264Z</time></trkpt><trkpt lat="45.4198133" lon="8.7992333"><ele>125.0</ele><time>2026-03-22T10:34:09.264Z</time></trkpt><trkpt lat="45.41988" lon="8.7994117"><ele>125.0</ele><time>2026-03-22T10:34:10.264Z</time></trkpt><trkpt lat="45.4199517" lon="8.7995883"><ele>124.75</ele><time>2026-03-22T10:34:11.264Z</time></trkpt><trkpt lat="45.420005" lon="8.79976"><ele>124.5</ele><time>2026-03-22T10:34:12.264Z</time></trkpt><trkpt lat="45.4200633" lon="8.7999317"><ele>124.25</ele><time>2026-03-22T10:34:13.264Z</time></trkpt><trkpt lat="45.4201217" lon="8.8000867"><ele>124.0</ele><time>2026-03-22T10:34:14.264Z</time></trkpt><trkpt lat="45.4201733" lon="8.80025"><ele>124.0</ele><time>2026-03-22T10:34:15.264Z</time></trkpt><trkpt lat="45.4202333" lon="8.80041"><ele>124.0</ele><time>2026-03-22T10:34:16.264Z</time></trkpt><trkpt lat="45.4203" lon="8.800565"><ele>124.0</ele><time>2026-03-22T10:34:17.264Z</time></trkpt><trkpt lat="45.4203583" lon="8.8007217"><ele>124.0</ele><time>2026-03-22T10:34:18.264Z</time></trkpt><trkpt lat="45.42043" lon="8.80088"><ele>124.0</ele><time>2026-03-22T10:34:19.264Z</time></trkpt><trkpt lat="45.4204817" lon="8.8010383"><ele>124.0</ele><time>2026-03-22T10:34:20.264Z</time></trkpt><trkpt lat="45.42053" lon="8.801195"><ele>124.0</ele><time>2026-03-22T10:34:21.264Z</time></trkpt><trkpt lat="45.42058" lon="8.8013633"><ele>124.0</ele><time>2026-03-22T10:34:22.264Z</time></trkpt><trkpt lat="45.4206267" lon="8.8015267"><ele>124.0</ele><time>2026-03-22T10:34:23.264Z</time></trkpt><trkpt lat="45.4206567" lon="8.8017033"><ele>124.0</ele><time>2026-03-22T10:34:24.265Z</time></trkpt><trkpt lat="45.4206883" lon="8.8018767"><ele>124.0</ele><time>2026-03-22T10:34:25.264Z</time></trkpt><trkpt lat="45.4207167" lon="8.8020483"><ele>124.0</ele><time>2026-03-22T10:34:26.264Z</time></trkpt><trkpt lat="45.4207467" lon="8.8022067"><ele>123.6</ele><time>2026-03-22T10:34:27.264Z</time></trkpt><trkpt lat="45.4207733" lon="8.80236"><ele>123.2</ele><time>2026-03-22T10:34:28.264Z</time></trkpt><trkpt lat="45.4207967" lon="8.8024983"><ele>122.79999999999998</ele><time>2026-03-22T10:34:29.264Z</time></trkpt><trkpt lat="45.4208183" lon="8.80262"><ele>122.39999999999999</ele><time>2026-03-22T10:34:30.264Z</time></trkpt><trkpt lat="45.42084" lon="8.8027467"><ele>122.0</ele><time>2026-03-22T10:34:31.264Z</time></trkpt><trkpt lat="45.4208633" lon="8.8028517"><ele>121.66666666666666</ele><time>2026-03-22T10:34:32.264Z</time></trkpt><trkpt lat="45.4208783" lon="8.802945"><ele>121.33333333333333</ele><time>2026-03-22T10:34:33.264Z</time></trkpt><trkpt lat="45.4208717" lon="8.8030517"><ele>121.0</ele><time>2026-03-22T10:34:35.264Z</time></trkpt><trkpt lat="45.4208033" lon="8.80313"><ele>120.66666666666666</ele><time>2026-03-22T10:34:37.264Z</time></trkpt><trkpt lat="45.4206767" lon="8.8031783"><ele>120.33333333333333</ele><time>2026-03-22T10:34:39.264Z</time></trkpt><trkpt lat="45.4206033" lon="8.8032017"><ele>120.0</ele><time>2026-03-22T10:34:40.264Z</time></trkpt><trkpt lat="45.4205117" lon="8.80323"><ele>120.2</ele><time>2026-03-22T10:34:41.264Z</time></trkpt><trkpt lat="45.4204183" lon="8.8032717"><ele>120.4</ele><time>2026-03-22T10:34:42.264Z</time></trkpt><trkpt lat="45.4203133" lon="8.8032967"><ele>120.6</ele><time>2026-03-22T10:34:43.264Z</time></trkpt><trkpt lat="45.420205" lon="8.80334"><ele>120.8</ele><time>2026-03-22T10:34:44.264Z</time></trkpt><trkpt lat="45.4200983" lon="8.80338"><ele>121.0</ele><time>2026-03-22T10:34:45.264Z</time></trkpt><trkpt lat="45.4199883" lon="8.8034267"><ele>121.0</ele><time>2026-03-22T10:34:46.264Z</time></trkpt><trkpt lat="45.419875" lon="8.8034733"><ele>121.0</ele><time>2026-03-22T10:34:47.264Z</time></trkpt><trkpt lat="45.4197567" lon="8.8035183"><ele>121.0</ele><time>2026-03-22T10:34:48.264Z</time></trkpt><trkpt lat="45.4196283" lon="8.8035533"><ele>121.0</ele><time>2026-03-22T10:34:49.264Z</time></trkpt><trkpt lat="45.4194917" lon="8.8035833"><ele>121.0</ele><time>2026-03-22T10:34:50.264Z</time></trkpt><trkpt lat="45.41935" lon="8.8036083"><ele>121.0</ele><time>2026-03-22T10:34:51.264Z</time></trkpt><trkpt lat="45.4192183" lon="8.8036367"><ele>121.0</ele><time>2026-03-22T10:34:52.264Z</time></trkpt><trkpt lat="45.4190833" lon="8.8036533"><ele>121.0</ele><time>2026-03-22T10:34:53.264Z</time></trkpt><trkpt lat="45.418945" lon="8.803655"><ele>122.25</ele><time>2026-03-22T10:34:54.264Z</time></trkpt><trkpt lat="45.418815" lon="8.8036517"><ele>123.5</ele><time>2026-03-22T10:34:55.264Z</time></trkpt><trkpt lat="45.418675" lon="8.8036367"><ele>124.75</ele><time>2026-03-22T10:34:56.264Z</time></trkpt><trkpt lat="45.418535" lon="8.8036083"><ele>126.0</ele><time>2026-03-22T10:34:57.264Z</time></trkpt><trkpt lat="45.4183933" lon="8.803585"><ele>126.0</ele><time>2026-03-22T10:34:58.264Z</time></trkpt><trkpt lat="45.41825" lon="8.80358"><ele>126.0</ele><time>2026-03-22T10:34:59.264Z</time></trkpt><trkpt lat="45.4181017" lon="8.8035633"><ele>126.0</ele><time>2026-03-22T10:35:00.264Z</time></trkpt><trkpt lat="45.4179533" lon="8.80355"><ele>126.0</ele><time>2026-03-22T10:35:01.264Z</time></trkpt><trkpt lat="45.4178017" lon="8.8035233"><ele>125.66666666666666</ele><time>2026-03-22T10:35:02.264Z</time></trkpt><trkpt lat="45.4176483" lon="8.8034833"><ele>125.33333333333333</ele><time>2026-03-22T10:35:03.264Z</time></trkpt><trkpt lat="45.4174967" lon="8.8034433"><ele>125.0</ele><time>2026-03-22T10:35:04.264Z</time></trkpt><trkpt lat="45.4173483" lon="8.8034167"><ele>125.0</ele><time>2026-03-22T10:35:05.264Z</time></trkpt><trkpt lat="45.4171917" lon="8.8033983"><ele>125.0</ele><time>2026-03-22T10:35:06.264Z</time></trkpt><trkpt lat="45.4170317" lon="8.8033983"><ele>125.0</ele><time>2026-03-22T10:35:07.264Z</time></trkpt><trkpt lat="45.41687" lon="8.8034067"><ele>125.0</ele><time>2026-03-22T10:35:08.264Z</time></trkpt><trkpt lat="45.4167133" lon="8.8033967"><ele>125.0</ele><time>2026-03-22T10:35:09.264Z</time></trkpt><trkpt lat="45.4165633" lon="8.8033767"><ele>125.0</ele><time>2026-03-22T10:35:10.264Z</time></trkpt><trkpt lat="45.4164217" lon="8.80336"><ele>124.75</ele><time>2026-03-22T10:35:11.264Z</time></trkpt><trkpt lat="45.41629" lon="8.8033483"><ele>124.5</ele><time>2026-03-22T10:35:12.264Z</time></trkpt><trkpt lat="45.41617" lon="8.8033317"><ele>124.25</ele><time>2026-03-22T10:35:13.264Z</time></trkpt><trkpt lat="45.4160517" lon="8.8033233"><ele>124.0</ele><time>2026-03-22T10:35:14.264Z</time></trkpt><trkpt lat="45.4159467" lon="8.8033033"><ele>124.0</ele><time>2026-03-22T10:35:15.264Z</time></trkpt><trkpt lat="45.41587" lon="8.803295"><ele>124.0</ele><time>2026-03-22T10:35:16.264Z</time></trkpt><trkpt lat="45.41578" lon="8.8032767"><ele>124.0</ele><time>2026-03-22T10:35:18.264Z</time></trkpt><trkpt lat="45.4156883" lon="8.8032533"><ele>124.0</ele><time>2026-03-22T10:35:20.264Z</time></trkpt><trkpt lat="45.4155917" lon="8.80318"><ele>124.0</ele><time>2026-03-22T10:35:22.264Z</time></trkpt><trkpt lat="45.4154917" lon="8.8031367"><ele>123.80000000000001</ele><time>2026-03-22T10:35:24.264Z</time></trkpt><trkpt lat="45.4154167" lon="8.80321"><ele>123.60000000000001</ele><time>2026-03-22T10:35:26.264Z</time></trkpt><trkpt lat="45.4152883" lon="8.803295"><ele>123.4</ele><time>2026-03-22T10:35:28.264Z</time></trkpt><trkpt lat="45.4152033" lon="8.8033033"><ele>123.2</ele><time>2026-03-22T10:35:29.264Z</time></trkpt><trkpt lat="45.4151133" lon="8.80329"><ele>123.0</ele><time>2026-03-22T10:35:30.264Z</time></trkpt><trkpt lat="45.41502" lon="8.8032767"><ele>123.0</ele><time>2026-03-22T10:35:31.264Z</time></trkpt><trkpt lat="45.414905" lon="8.80326"><ele>123.0</ele><time>2026-03-22T10:35:32.264Z</time></trkpt><trkpt lat="45.414775" lon="8.8032467"><ele>123.0</ele><time>2026-03-22T10:35:33.264Z</time></trkpt><trkpt lat="45.414645" lon="8.803235"><ele>123.0</ele><time>2026-03-22T10:35:34.264Z</time></trkpt><trkpt lat="45.4145183" lon="8.8032267"><ele>123.25</ele><time>2026-03-22T10:35:35.264Z</time></trkpt><trkpt lat="45.41439" lon="8.80324"><ele>123.5</ele><time>2026-03-22T10:35:36.264Z</time></trkpt><trkpt lat="45.41426" lon="8.8032633"><ele>123.75</ele><time>2026-03-22T10:35:37.264Z</time></trkpt><trkpt lat="45.4141333" lon="8.803325"><ele>124.0</ele><time>2026-03-22T10:35:38.264Z</time></trkpt><trkpt lat="45.414005" lon="8.8033833"><ele>124.0</ele><time>2026-03-22T10:35:39.264Z</time></trkpt><trkpt lat="45.4138717" lon="8.803445"><ele>124.0</ele><time>2026-03-22T10:35:40.264Z</time></trkpt><trkpt lat="45.4137383" lon="8.8034983"><ele>124.0</ele><time>2026-03-22T10:35:41.264Z</time></trkpt><trkpt lat="45.4136033" lon="8.8035483"><ele>124.0</ele><time>2026-03-22T10:35:42.264Z</time></trkpt><trkpt lat="45.4134767" lon="8.8036033"><ele>124.0</ele><time>2026-03-22T10:35:43.264Z</time></trkpt><trkpt lat="45.413345" lon="8.8036533"><ele>124.0</ele><time>2026-03-22T10:35:44.264Z</time></trkpt><trkpt lat="45.4132233" lon="8.8037033"><ele>124.0</ele><time>2026-03-22T10:35:45.264Z</time></trkpt><trkpt lat="45.413105" lon="8.80377"><ele>124.0</ele><time>2026-03-22T10:35:46.264Z</time></trkpt><trkpt lat="45.4129867" lon="8.80384"><ele>123.75</ele><time>2026-03-22T10:35:47.264Z</time></trkpt><trkpt lat="45.412875" lon="8.8039217"><ele>123.5</ele><time>2026-03-22T10:35:48.264Z</time></trkpt><trkpt lat="45.4127667" lon="8.8039967"><ele>123.25</ele><time>2026-03-22T10:35:49.264Z</time></trkpt><trkpt lat="45.412645" lon="8.804055"><ele>123.0</ele><time>2026-03-22T10:35:50.264Z</time></trkpt><trkpt lat="45.4125067" lon="8.8041217"><ele>123.0</ele><time>2026-03-22T10:35:51.264Z</time></trkpt><trkpt lat="45.4123717" lon="8.8041617"><ele>123.0</ele><time>2026-03-22T10:35:52.264Z</time></trkpt><trkpt lat="45.41224" lon="8.8041867"><ele>123.0</ele><time>2026-03-22T10:35:53.264Z</time></trkpt><trkpt lat="45.4121133" lon="8.80422"><ele>123.0</ele><time>2026-03-22T10:35:54.264Z</time></trkpt><trkpt lat="45.4119833" lon="8.8042833"><ele>122.75</ele><time>2026-03-22T10:35:55.264Z</time></trkpt><trkpt lat="45.4118517" lon="8.80434"><ele>122.5</ele><time>2026-03-22T10:35:56.264Z</time></trkpt><trkpt lat="45.4117217" lon="8.8044017"><ele>122.25</ele><time>2026-03-22T10:35:57.264Z</time></trkpt><trkpt lat="45.411595" lon="8.8044667"><ele>122.0</ele><time>2026-03-22T10:35:58.264Z</time></trkpt><trkpt lat="45.4114683" lon="8.8045367"><ele>122.0</ele><time>2026-03-22T10:35:59.264Z</time></trkpt><trkpt lat="45.4113317" lon="8.8046"><ele>122.0</ele><time>2026-03-22T10:36:00.264Z</time></trkpt><trkpt lat="45.4112033" lon="8.804655"><ele>122.0</ele><time>2026-03-22T10:36:01.264Z</time></trkpt><trkpt lat="45.4110883" lon="8.80472"><ele>122.0</ele><time>2026-03-22T10:36:02.264Z</time></trkpt><trkpt lat="45.41096" lon="8.8047967"><ele>121.75</ele><time>2026-03-22T10:36:03.264Z</time></trkpt><trkpt lat="45.4108433" lon="8.80488"><ele>121.5</ele><time>2026-03-22T10:36:04.264Z</time></trkpt><trkpt lat="45.4107217" lon="8.80497"><ele>121.25</ele><time>2026-03-22T10:36:05.264Z</time></trkpt><trkpt lat="45.4106133" lon="8.80507"><ele>121.0</ele><time>2026-03-22T10:36:06.264Z</time></trkpt><trkpt lat="45.4104917" lon="8.8051633"><ele>121.0</ele><time>2026-03-22T10:36:07.264Z</time></trkpt><trkpt lat="45.410375" lon="8.8052717"><ele>121.0</ele><time>2026-03-22T10:36:08.264Z</time></trkpt><trkpt lat="45.4102583" lon="8.8053683"><ele>121.0</ele><time>2026-03-22T10:36:09.264Z</time></trkpt><trkpt lat="45.410145" lon="8.805465"><ele>121.0</ele><time>2026-03-22T10:36:10.264Z</time></trkpt><trkpt lat="45.4100183" lon="8.8055567"><ele>121.0</ele><time>2026-03-22T10:36:11.264Z</time></trkpt><trkpt lat="45.409895" lon="8.80564"><ele>121.0</ele><time>2026-03-22T10:36:12.264Z</time></trkpt><trkpt lat="45.409775" lon="8.8057133"><ele>121.0</ele><time>2026-03-22T10:36:13.265Z</time></trkpt><trkpt lat="45.4096533" lon="8.805795"><ele>121.0</ele><time>2026-03-22T10:36:14.264Z</time></trkpt><trkpt lat="45.4095433" lon="8.8058467"><ele>120.6</ele><time>2026-03-22T10:36:15.264Z</time></trkpt><trkpt lat="45.4094467" lon="8.805915"><ele>120.19999999999999</ele><time>2026-03-22T10:36:16.264Z</time></trkpt><trkpt lat="45.409365" lon="8.806005"><ele>119.80000000000001</ele><time>2026-03-22T10:36:17.264Z</time></trkpt><trkpt lat="45.4092917" lon="8.8061217"><ele>119.4</ele><time>2026-03-22T10:36:18.264Z</time></trkpt><trkpt lat="45.40921" lon="8.80626"><ele>119.0</ele><time>2026-03-22T10:36:19.264Z</time></trkpt><trkpt lat="45.4091183" lon="8.8064"><ele>119.0</ele><time>2026-03-22T10:36:20.264Z</time></trkpt><trkpt lat="45.4090067" lon="8.8065233"><ele>119.0</ele><time>2026-03-22T10:36:21.264Z</time></trkpt><trkpt lat="45.4088867" lon="8.8066367"><ele>119.0</ele><time>2026-03-22T10:36:22.264Z</time></trkpt><trkpt lat="45.40877" lon="8.8067367"><ele>119.0</ele><time>2026-03-22T10:36:23.264Z</time></trkpt><trkpt lat="45.408655" lon="8.80684"><ele>119.5</ele><time>2026-03-22T10:36:24.264Z</time></trkpt><trkpt lat="45.4085433" lon="8.8069467"><ele>120.0</ele><time>2026-03-22T10:36:25.264Z</time></trkpt><trkpt lat="45.4084333" lon="8.807065"><ele>120.5</ele><time>2026-03-22T10:36:26.264Z</time></trkpt><trkpt lat="45.4083317" lon="8.8071683"><ele>121.0</ele><time>2026-03-22T10:36:27.264Z</time></trkpt><trkpt lat="45.4082217" lon="8.8073"><ele>121.0</ele><time>2026-03-22T10:36:28.264Z</time></trkpt><trkpt lat="45.408115" lon="8.8074433"><ele>121.0</ele><time>2026-03-22T10:36:29.264Z</time></trkpt><trkpt lat="45.40801" lon="8.8075617"><ele>121.0</ele><time>2026-03-22T10:36:30.264Z</time></trkpt><trkpt lat="45.4078983" lon="8.807665"><ele>121.0</ele><time>2026-03-22T10:36:31.264Z</time></trkpt><trkpt lat="45.4077783" lon="8.8077617"><ele>120.25</ele><time>2026-03-22T10:36:32.264Z</time></trkpt><trkpt lat="45.4076683" lon="8.8078667"><ele>119.5</ele><time>2026-03-22T10:36:33.264Z</time></trkpt><trkpt lat="45.4075533" lon="8.8079733"><ele>118.75</ele><time>2026-03-22T10:36:34.264Z</time></trkpt><trkpt lat="45.4074417" lon="8.8080833"><ele>118.0</ele><time>2026-03-22T10:36:35.264Z</time></trkpt><trkpt lat="45.4073217" lon="8.8081883"><ele>118.0</ele><time>2026-03-22T10:36:36.264Z</time></trkpt><trkpt lat="45.4072033" lon="8.8082883"><ele>118.0</ele><time>2026-03-22T10:36:37.264Z</time></trkpt><trkpt lat="45.40709" lon="8.8083933"><ele>118.0</ele><time>2026-03-22T10:36:38.264Z</time></trkpt><trkpt lat="45.40697" lon="8.8084917"><ele>118.0</ele><time>2026-03-22T10:36:39.264Z</time></trkpt><trkpt lat="45.4068533" lon="8.8085933"><ele>119.0</ele><time>2026-03-22T10:36:40.264Z</time></trkpt><trkpt lat="45.4067367" lon="8.8086983"><ele>120.0</ele><time>2026-03-22T10:36:41.264Z</time></trkpt><trkpt lat="45.406625" lon="8.8088067"><ele>121.0</ele><time>2026-03-22T10:36:42.264Z</time></trkpt><trkpt lat="45.4065117" lon="8.808905"><ele>122.0</ele><time>2026-03-22T10:36:43.264Z</time></trkpt><trkpt lat="45.4063917" lon="8.809015"><ele>122.0</ele><time>2026-03-22T10:36:44.264Z</time></trkpt><trkpt lat="45.4062733" lon="8.8090917"><ele>122.0</ele><time>2026-03-22T10:36:45.264Z</time></trkpt><trkpt lat="45.406155" lon="8.809165"><ele>122.0</ele><time>2026-03-22T10:36:46.264Z</time></trkpt><trkpt lat="45.4060367" lon="8.80922"><ele>122.0</ele><time>2026-03-22T10:36:47.264Z</time></trkpt><trkpt lat="45.40591" lon="8.8092783"><ele>122.0</ele><time>2026-03-22T10:36:48.264Z</time></trkpt><trkpt lat="45.405775" lon="8.8093067"><ele>122.0</ele><time>2026-03-22T10:36:49.264Z</time></trkpt><trkpt lat="45.4056433" lon="8.80934"><ele>122.0</ele><time>2026-03-22T10:36:50.264Z</time></trkpt><trkpt lat="45.4055133" lon="8.8093783"><ele>122.0</ele><time>2026-03-22T10:36:51.264Z</time></trkpt><trkpt lat="45.40539" lon="8.809405"><ele>122.39999999999999</ele><time>2026-03-22T10:36:52.264Z</time></trkpt><trkpt lat="45.4052867" lon="8.8094383"><ele>122.79999999999998</ele><time>2026-03-22T10:36:53.264Z</time></trkpt><trkpt lat="45.4051817" lon="8.8094667"><ele>123.2</ele><time>2026-03-22T10:36:54.264Z</time></trkpt><trkpt lat="45.4050767" lon="8.8095133"><ele>123.6</ele><time>2026-03-22T10:36:55.264Z</time></trkpt><trkpt lat="45.40497" lon="8.8095483"><ele>124.0</ele><time>2026-03-22T10:36:56.264Z</time></trkpt><trkpt lat="45.40486" lon="8.8095767"><ele>124.0</ele><time>2026-03-22T10:36:57.264Z</time></trkpt><trkpt lat="45.404755" lon="8.8096"><ele>124.0</ele><time>2026-03-22T10:36:58.264Z</time></trkpt><trkpt lat="45.4046517" lon="8.809625"><ele>124.0</ele><time>2026-03-22T10:36:59.264Z</time></trkpt><trkpt lat="45.4045533" lon="8.80966"><ele>124.0</ele><time>2026-03-22T10:37:00.264Z</time></trkpt><trkpt lat="45.404455" lon="8.8096883"><ele>124.0</ele><time>2026-03-22T10:37:01.264Z</time></trkpt><trkpt lat="45.40437" lon="8.809715"><ele>123.83333333333334</ele><time>2026-03-22T10:37:02.264Z</time></trkpt><trkpt lat="45.4042917" lon="8.8097533"><ele>123.66666666666667</ele><time>2026-03-22T10:37:03.264Z</time></trkpt><trkpt lat="45.4042083" lon="8.8097883"><ele>123.5</ele><time>2026-03-22T10:37:04.264Z</time></trkpt><trkpt lat="45.404125" lon="8.8098117"><ele>123.33333333333334</ele><time>2026-03-22T10:37:05.264Z</time></trkpt><trkpt lat="45.4040333" lon="8.8098383"><ele>123.16666666666667</ele><time>2026-03-22T10:37:06.264Z</time></trkpt><trkpt lat="45.4039433" lon="8.8098667"><ele>123.0</ele><time>2026-03-22T10:37:07.264Z</time></trkpt><trkpt lat="45.4038567" lon="8.8098883"><ele>122.80000000000001</ele><time>2026-03-22T10:37:08.264Z</time></trkpt><trkpt lat="45.40377" lon="8.8099083"><ele>122.60000000000001</ele><time>2026-03-22T10:37:09.264Z</time></trkpt><trkpt lat="45.4036733" lon="8.809915"><ele>122.39999999999999</ele><time>2026-03-22T10:37:10.264Z</time></trkpt><trkpt lat="45.403575" lon="8.8099317"><ele>122.19999999999999</ele><time>2026-03-22T10:37:11.264Z</time></trkpt><trkpt lat="45.4034833" lon="8.8099683"><ele>122.0</ele><time>2026-03-22T10:37:12.264Z</time></trkpt><trkpt lat="45.403395" lon="8.81"><ele>121.99999999999999</ele><time>2026-03-22T10:37:13.264Z</time></trkpt><trkpt lat="45.4033083" lon="8.8100233"><ele>122.0</ele><time>2026-03-22T10:37:14.264Z</time></trkpt><trkpt lat="45.4032233" lon="8.8100583"><ele>122.0</ele><time>2026-03-22T10:37:15.264Z</time></trkpt><trkpt lat="45.4031367" lon="8.8100817"><ele>122.0</ele><time>2026-03-22T10:37:16.264Z</time></trkpt><trkpt lat="45.403055" lon="8.8101133"><ele>121.99999999999999</ele><time>2026-03-22T10:37:17.264Z</time></trkpt><trkpt lat="45.4029733" lon="8.810135"><ele>122.0</ele><time>2026-03-22T10:37:18.264Z</time></trkpt><trkpt lat="45.4028917" lon="8.81015"><ele>121.83333333333333</ele><time>2026-03-22T10:37:19.264Z</time></trkpt><trkpt lat="45.4028117" lon="8.8101783"><ele>121.66666666666666</ele><time>2026-03-22T10:37:20.264Z</time></trkpt><trkpt lat="45.40273" lon="8.8101933"><ele>121.5</ele><time>2026-03-22T10:37:21.264Z</time></trkpt><trkpt lat="45.402655" lon="8.8102133"><ele>121.33333333333334</ele><time>2026-03-22T10:37:22.264Z</time></trkpt><trkpt lat="45.4025783" lon="8.8102317"><ele>121.16666666666667</ele><time>2026-03-22T10:37:23.264Z</time></trkpt><trkpt lat="45.4025017" lon="8.8102667"><ele>121.0</ele><time>2026-03-22T10:37:24.264Z</time></trkpt><trkpt lat="45.40243" lon="8.8103033"><ele>121.00000000000001</ele><time>2026-03-22T10:37:25.264Z</time></trkpt><trkpt lat="45.4023533" lon="8.8103333"><ele>121.0</ele><time>2026-03-22T10:37:26.264Z</time></trkpt><trkpt lat="45.4022767" lon="8.8103567"><ele>121.0</ele><time>2026-03-22T10:37:27.264Z</time></trkpt><trkpt lat="45.4022117" lon="8.810375"><ele>121.0</ele><time>2026-03-22T10:37:28.264Z</time></trkpt><trkpt lat="45.4020983" lon="8.8103933"><ele>121.00000000000001</ele><time>2026-03-22T10:37:30.264Z</time></trkpt><trkpt lat="45.4020317" lon="8.8103933"><ele>121.0</ele><time>2026-03-22T10:37:31.264Z</time></trkpt><trkpt lat="45.40191" lon="8.8104417"><ele>120.66666666666667</ele><time>2026-03-22T10:37:33.264Z</time></trkpt><trkpt lat="45.4018333" lon="8.81053"><ele>120.33333333333334</ele><time>2026-03-22T10:37:35.264Z</time></trkpt><trkpt lat="45.4018133" lon="8.81066"><ele>120.0</ele><time>2026-03-22T10:37:37.264Z</time></trkpt><trkpt lat="45.40178" lon="8.810745"><ele>119.66666666666666</ele><time>2026-03-22T10:37:38.264Z</time></trkpt><trkpt lat="45.4017283" lon="8.8108217"><ele>119.33333333333333</ele><time>2026-03-22T10:37:39.264Z</time></trkpt><trkpt lat="45.4016617" lon="8.8108867"><ele>119.0</ele><time>2026-03-22T10:37:40.264Z</time></trkpt><trkpt lat="45.401575" lon="8.81093"><ele>119.0</ele><time>2026-03-22T10:37:41.264Z</time></trkpt><trkpt lat="45.4014767" lon="8.8109567"><ele>119.0</ele><time>2026-03-22T10:37:42.264Z</time></trkpt><trkpt lat="45.4013883" lon="8.810995"><ele>119.0</ele><time>2026-03-22T10:37:43.264Z</time></trkpt><trkpt lat="45.40131" lon="8.8110617"><ele>119.0</ele><time>2026-03-22T10:37:44.263Z</time></trkpt><trkpt lat="45.4012417" lon="8.8111367"><ele>119.0</ele><time>2026-03-22T10:37:45.263Z</time></trkpt><trkpt lat="45.4011867" lon="8.811235"><ele>118.2</ele><time>2026-03-22T10:37:46.263Z</time></trkpt><trkpt lat="45.4011533" lon="8.81138"><ele>117.4</ele><time>2026-03-22T10:37:47.263Z</time></trkpt><trkpt lat="45.4011283" lon="8.8115267"><ele>116.6</ele><time>2026-03-22T10:37:48.263Z</time></trkpt><trkpt lat="45.4011" lon="8.8116667"><ele>115.8</ele><time>2026-03-22T10:37:49.263Z</time></trkpt><trkpt lat="45.4010783" lon="8.8118083"><ele>115.0</ele><time>2026-03-22T10:37:50.263Z</time></trkpt><trkpt lat="45.4010417" lon="8.81193"><ele>114.0</ele><time>2026-03-22T10:37:51.263Z</time></trkpt><trkpt lat="45.4010033" lon="8.8120517"><ele>113.0</ele><time>2026-03-22T10:37:52.263Z</time></trkpt><trkpt lat="45.4009617" lon="8.8121933"><ele>112.0</ele><time>2026-03-22T10:37:53.263Z</time></trkpt><trkpt lat="45.400915" lon="8.8123283"><ele>111.0</ele><time>2026-03-22T10:37:54.263Z</time></trkpt><trkpt lat="45.4008917" lon="8.8124683"><ele>110.0</ele><time>2026-03-22T10:37:55.263Z</time></trkpt><trkpt lat="45.4008817" lon="8.8126167"><ele>109.4</ele><time>2026-03-22T10:37:56.263Z</time></trkpt><trkpt lat="45.400895" lon="8.8127583"><ele>108.8</ele><time>2026-03-22T10:37:57.263Z</time></trkpt><trkpt lat="45.400925" lon="8.8128967"><ele>108.19999999999999</ele><time>2026-03-22T10:37:58.263Z</time></trkpt><trkpt lat="45.40096" lon="8.8130283"><ele>107.6</ele><time>2026-03-22T10:37:59.263Z</time></trkpt><trkpt lat="45.4010067" lon="8.813165"><ele>107.0</ele><time>2026-03-22T10:38:00.263Z</time></trkpt><trkpt lat="45.401065" lon="8.8132867"><ele>107.0</ele><time>2026-03-22T10:38:01.264Z</time></trkpt><trkpt lat="45.40112" lon="8.8133983"><ele>106.99999999999999</ele><time>2026-03-22T10:38:02.263Z</time></trkpt><trkpt lat="45.4011733" lon="8.8135033"><ele>106.99999999999999</ele><time>2026-03-22T10:38:03.263Z</time></trkpt><trkpt lat="45.4012167" lon="8.81361"><ele>107.0</ele><time>2026-03-22T10:38:04.263Z</time></trkpt><trkpt lat="45.4012683" lon="8.8137217"><ele>107.0</ele><time>2026-03-22T10:38:05.263Z</time></trkpt><trkpt lat="45.401325" lon="8.813835"><ele>106.6</ele><time>2026-03-22T10:38:06.263Z</time></trkpt><trkpt lat="45.4013667" lon="8.81396"><ele>106.19999999999999</ele><time>2026-03-22T10:38:07.263Z</time></trkpt><trkpt lat="45.4014017" lon="8.8140817"><ele>105.8</ele><time>2026-03-22T10:38:08.263Z</time></trkpt><trkpt lat="45.401435" lon="8.8142117"><ele>105.4</ele><time>2026-03-22T10:38:09.263Z</time></trkpt><trkpt lat="45.4014733" lon="8.8143317"><ele>105.0</ele><time>2026-03-22T10:38:10.263Z</time></trkpt><trkpt lat="45.4015067" lon="8.8144533"><ele>104.5</ele><time>2026-03-22T10:38:11.263Z</time></trkpt><trkpt lat="45.4015317" lon="8.8145633"><ele>104.0</ele><time>2026-03-22T10:38:12.263Z</time></trkpt><trkpt lat="45.4015517" lon="8.81467"><ele>103.5</ele><time>2026-03-22T10:38:13.263Z</time></trkpt><trkpt lat="45.4015683" lon="8.8147783"><ele>103.0</ele><time>2026-03-22T10:38:14.263Z</time></trkpt><trkpt lat="45.4015783" lon="8.8149"><ele>102.5</ele><time>2026-03-22T10:38:15.263Z</time></trkpt><trkpt lat="45.4015883" lon="8.815025"><ele>102.0</ele><time>2026-03-22T10:38:16.263Z</time></trkpt><trkpt lat="45.4015717" lon="8.8151517"><ele>101.83333333333333</ele><time>2026-03-22T10:38:17.264Z</time></trkpt><trkpt lat="45.40155" lon="8.81528"><ele>101.66666666666666</ele><time>2026-03-22T10:38:18.263Z</time></trkpt><trkpt lat="45.4015217" lon="8.8153967"><ele>101.5</ele><time>2026-03-22T10:38:19.263Z</time></trkpt><trkpt lat="45.4014883" lon="8.815505"><ele>101.33333333333333</ele><time>2026-03-22T10:38:20.263Z</time></trkpt><trkpt lat="45.401455" lon="8.8156067"><ele>101.16666666666666</ele><time>2026-03-22T10:38:21.263Z</time></trkpt><trkpt lat="45.4014183" lon="8.8156933"><ele>101.0</ele><time>2026-03-22T10:38:22.263Z</time></trkpt><trkpt lat="45.4014167" lon="8.8158033"><ele>100.99999999999999</ele><time>2026-03-22T10:38:23.263Z</time></trkpt><trkpt lat="45.4014233" lon="8.815915"><ele>101.0</ele><time>2026-03-22T10:38:24.263Z</time></trkpt><trkpt lat="45.4014217" lon="8.8160167"><ele>101.0</ele><time>2026-03-22T10:38:25.263Z</time></trkpt><trkpt lat="45.40139" lon="8.8161"><ele>101.0</ele><time>2026-03-22T10:38:26.263Z</time></trkpt><trkpt lat="45.401345" lon="8.8161667"><ele>100.99999999999999</ele><time>2026-03-22T10:38:27.263Z</time></trkpt><trkpt lat="45.401275" lon="8.8162317"><ele>101.0</ele><time>2026-03-22T10:38:28.263Z</time></trkpt><trkpt lat="45.40118" lon="8.8162967"><ele>100.75</ele><time>2026-03-22T10:38:29.263Z</time></trkpt><trkpt lat="45.4010583" lon="8.8163667"><ele>100.5</ele><time>2026-03-22T10:38:30.263Z</time></trkpt><trkpt lat="45.4009417" lon="8.8164667"><ele>100.25</ele><time>2026-03-22T10:38:31.263Z</time></trkpt><trkpt lat="45.4008333" lon="8.8165617"><ele>100.0</ele><time>2026-03-22T10:38:32.263Z</time></trkpt><trkpt lat="45.4007217" lon="8.8166633"><ele>100.0</ele><time>2026-03-22T10:38:33.263Z</time></trkpt><trkpt lat="45.4006067" lon="8.81676"><ele>100.0</ele><time>2026-03-22T10:38:34.263Z</time></trkpt><trkpt lat="45.4004867" lon="8.8168467"><ele>100.0</ele><time>2026-03-22T10:38:35.263Z</time></trkpt><trkpt lat="45.4003767" lon="8.8169417"><ele>100.0</ele><time>2026-03-22T10:38:36.263Z</time></trkpt><trkpt lat="45.40026" lon="8.81704"><ele>99.75</ele><time>2026-03-22T10:38:37.263Z</time></trkpt><trkpt lat="45.4001433" lon="8.817135"><ele>99.5</ele><time>2026-03-22T10:38:38.263Z</time></trkpt><trkpt lat="45.4000267" lon="8.8172267"><ele>99.25</ele><time>2026-03-22T10:38:39.263Z</time></trkpt><trkpt lat="45.399915" lon="8.8173133"><ele>99.0</ele><time>2026-03-22T10:38:40.263Z</time></trkpt><trkpt lat="45.39981" lon="8.8174133"><ele>99.0</ele><time>2026-03-22T10:38:41.263Z</time></trkpt><trkpt lat="45.39972" lon="8.8175117"><ele>99.0</ele><time>2026-03-22T10:38:42.263Z</time></trkpt><trkpt lat="45.3996267" lon="8.817615"><ele>99.0</ele><time>2026-03-22T10:38:43.263Z</time></trkpt><trkpt lat="45.39953" lon="8.817695"><ele>99.0</ele><time>2026-03-22T10:38:44.263Z</time></trkpt><trkpt lat="45.3994383" lon="8.8177517"><ele>99.0</ele><time>2026-03-22T10:38:45.263Z</time></trkpt><trkpt lat="45.3993467" lon="8.8178033"><ele>100.0</ele><time>2026-03-22T10:38:46.263Z</time></trkpt><trkpt lat="45.3992633" lon="8.8178383"><ele>101.0</ele><time>2026-03-22T10:38:47.263Z</time></trkpt><trkpt lat="45.3991767" lon="8.8178617"><ele>102.0</ele><time>2026-03-22T10:38:48.263Z</time></trkpt><trkpt lat="45.399085" lon="8.8178817"><ele>103.0</ele><time>2026-03-22T10:38:49.263Z</time></trkpt><trkpt lat="45.39898" lon="8.8178983"><ele>104.0</ele><time>2026-03-22T10:38:50.263Z</time></trkpt><trkpt lat="45.3988717" lon="8.8179017"><ele>103.0</ele><time>2026-03-22T10:38:51.263Z</time></trkpt><trkpt lat="45.3987467" lon="8.8179"><ele>102.0</ele><time>2026-03-22T10:38:52.263Z</time></trkpt><trkpt lat="45.39862" lon="8.8179083"><ele>101.0</ele><time>2026-03-22T10:38:53.263Z</time></trkpt><trkpt lat="45.398495" lon="8.8179083"><ele>100.0</ele><time>2026-03-22T10:38:54.263Z</time></trkpt><trkpt lat="45.39836" lon="8.8179183"><ele>100.0</ele><time>2026-03-22T10:38:55.263Z</time></trkpt><trkpt lat="45.398225" lon="8.8179267"><ele>100.0</ele><time>2026-03-22T10:38:56.263Z</time></trkpt><trkpt lat="45.3980933" lon="8.81795"><ele>100.0</ele><time>2026-03-22T10:38:57.264Z</time></trkpt><trkpt lat="45.3979683" lon="8.8179867"><ele>100.0</ele><time>2026-03-22T10:38:58.263Z</time></trkpt><trkpt lat="45.3978517" lon="8.8180433"><ele>100.0</ele><time>2026-03-22T10:38:59.263Z</time></trkpt><trkpt lat="45.3977233" lon="8.818105"><ele>100.0</ele><time>2026-03-22T10:39:00.263Z</time></trkpt><trkpt lat="45.3976" lon="8.8181683"><ele>100.0</ele><time>2026-03-22T10:39:01.263Z</time></trkpt><trkpt lat="45.3974817" lon="8.8182017"><ele>100.0</ele><time>2026-03-22T10:39:02.263Z</time></trkpt><trkpt lat="45.39736" lon="8.818235"><ele>100.0</ele><time>2026-03-22T10:39:03.263Z</time></trkpt><trkpt lat="45.3972483" lon="8.81831"><ele>100.0</ele><time>2026-03-22T10:39:04.263Z</time></trkpt><trkpt lat="45.3971517" lon="8.818405"><ele>100.0</ele><time>2026-03-22T10:39:05.263Z</time></trkpt><trkpt lat="45.3970683" lon="8.8185167"><ele>100.0</ele><time>2026-03-22T10:39:06.263Z</time></trkpt><trkpt lat="45.396995" lon="8.8186617"><ele>99.5</ele><time>2026-03-22T10:39:07.263Z</time></trkpt><trkpt lat="45.39693" lon="8.8188167"><ele>99.0</ele><time>2026-03-22T10:39:08.263Z</time></trkpt><trkpt lat="45.3968617" lon="8.81898"><ele>98.5</ele><time>2026-03-22T10:39:09.263Z</time></trkpt><trkpt lat="45.3967933" lon="8.8191333"><ele>98.0</ele><time>2026-03-22T10:39:10.263Z</time></trkpt><trkpt lat="45.39672" lon="8.8192783"><ele>97.75</ele><time>2026-03-22T10:39:11.263Z</time></trkpt><trkpt lat="45.3966517" lon="8.819435"><ele>97.5</ele><time>2026-03-22T10:39:12.263Z</time></trkpt><trkpt lat="45.396595" lon="8.8195883"><ele>97.25</ele><time>2026-03-22T10:39:13.263Z</time></trkpt><trkpt lat="45.39654" lon="8.8197417"><ele>97.0</ele><time>2026-03-22T10:39:14.263Z</time></trkpt><trkpt lat="45.3964733" lon="8.8198967"><ele>97.0</ele><time>2026-03-22T10:39:15.263Z</time></trkpt><trkpt lat="45.3964083" lon="8.8200433"><ele>97.0</ele><time>2026-03-22T10:39:16.263Z</time></trkpt><trkpt lat="45.396345" lon="8.82018"><ele>97.0</ele><time>2026-03-22T10:39:17.263Z</time></trkpt><trkpt lat="45.3962817" lon="8.8202917"><ele>97.0</ele><time>2026-03-22T10:39:18.263Z</time></trkpt><trkpt lat="45.39623" lon="8.8203983"><ele>97.0</ele><time>2026-03-22T10:39:19.263Z</time></trkpt><trkpt lat="45.396195" lon="8.8205283"><ele>97.0</ele><time>2026-03-22T10:39:20.263Z</time></trkpt><trkpt lat="45.396185" lon="8.8206767"><ele>97.0</ele><time>2026-03-22T10:39:21.263Z</time></trkpt><trkpt lat="45.39619" lon="8.8208333"><ele>97.0</ele><time>2026-03-22T10:39:22.263Z</time></trkpt><trkpt lat="45.3962083" lon="8.820975"><ele>97.0</ele><time>2026-03-22T10:39:23.263Z</time></trkpt><trkpt lat="45.396215" lon="8.821115"><ele>97.0</ele><time>2026-03-22T10:39:24.263Z</time></trkpt><trkpt lat="45.3962133" lon="8.8212583"><ele>97.50000000000001</ele><time>2026-03-22T10:39:25.263Z</time></trkpt><trkpt lat="45.3962017" lon="8.8213967"><ele>98.0</ele><time>2026-03-22T10:39:26.263Z</time></trkpt><trkpt lat="45.396185" lon="8.82153"><ele>98.5</ele><time>2026-03-22T10:39:27.263Z</time></trkpt><trkpt lat="45.3961433" lon="8.8216383"><ele>99.0</ele><time>2026-03-22T10:39:28.263Z</time></trkpt><trkpt lat="45.3961033" lon="8.8217267"><ele>99.50000000000001</ele><time>2026-03-22T10:39:29.263Z</time></trkpt><trkpt lat="45.39604" lon="8.8217983"><ele>100.0</ele><time>2026-03-22T10:39:30.263Z</time></trkpt><trkpt lat="45.3959367" lon="8.8218483"><ele>100.0</ele><time>2026-03-22T10:39:31.263Z</time></trkpt><trkpt lat="45.3958283" lon="8.82189"><ele>100.0</ele><time>2026-03-22T10:39:32.263Z</time></trkpt><trkpt lat="45.395725" lon="8.8219417"><ele>100.0</ele><time>2026-03-22T10:39:33.263Z</time></trkpt><trkpt lat="45.3956317" lon="8.82199"><ele>100.0</ele><time>2026-03-22T10:39:34.263Z</time></trkpt><trkpt lat="45.3955567" lon="8.822025"><ele>100.0</ele><time>2026-03-22T10:39:35.263Z</time></trkpt><trkpt lat="45.3954917" lon="8.822075"><ele>100.00000000000001</ele><time>2026-03-22T10:39:36.263Z</time></trkpt><trkpt lat="45.39546" lon="8.8221767"><ele>100.0</ele><time>2026-03-22T10:39:37.263Z</time></trkpt><trkpt lat="45.395445" lon="8.8222967"><ele>100.0</ele><time>2026-03-22T10:39:38.263Z</time></trkpt><trkpt lat="45.39542" lon="8.8224017"><ele>100.0</ele><time>2026-03-22T10:39:39.263Z</time></trkpt><trkpt lat="45.3953817" lon="8.8225"><ele>100.00000000000001</ele><time>2026-03-22T10:39:40.263Z</time></trkpt><trkpt lat="45.3953217" lon="8.8225767"><ele>100.0</ele><time>2026-03-22T10:39:41.263Z</time></trkpt><trkpt lat="45.3952367" lon="8.8226333"><ele>100.0</ele><time>2026-03-22T10:39:42.262Z</time></trkpt><trkpt lat="45.3951367" lon="8.8226883"><ele>100.0</ele><time>2026-03-22T10:39:43.263Z</time></trkpt><trkpt lat="45.3950417" lon="8.822765"><ele>100.0</ele><time>2026-03-22T10:39:44.263Z</time></trkpt><trkpt lat="45.39494" lon="8.82285"><ele>100.0</ele><time>2026-03-22T10:39:45.263Z</time></trkpt><trkpt lat="45.3948417" lon="8.8229417"><ele>100.0</ele><time>2026-03-22T10:39:46.263Z</time></trkpt><trkpt lat="45.3947333" lon="8.8230383"><ele>100.0</ele><time>2026-03-22T10:39:47.263Z</time></trkpt><trkpt lat="45.3946333" lon="8.82313"><ele>100.0</ele><time>2026-03-22T10:39:48.263Z</time></trkpt><trkpt lat="45.394525" lon="8.8232283"><ele>100.0</ele><time>2026-03-22T10:39:49.263Z</time></trkpt><trkpt lat="45.394425" lon="8.8233167"><ele>99.8</ele><time>2026-03-22T10:39:50.263Z</time></trkpt><trkpt lat="45.3943267" lon="8.8233983"><ele>99.6</ele><time>2026-03-22T10:39:51.263Z</time></trkpt><trkpt lat="45.39424" lon="8.8234717"><ele>99.4</ele><time>2026-03-22T10:39:52.263Z</time></trkpt><trkpt lat="45.3941583" lon="8.82354"><ele>99.2</ele><time>2026-03-22T10:39:53.263Z</time></trkpt><trkpt lat="45.3940783" lon="8.8235933"><ele>99.0</ele><time>2026-03-22T10:39:54.263Z</time></trkpt><trkpt lat="45.3940033" lon="8.8236433"><ele>99.0</ele><time>2026-03-22T10:39:55.263Z</time></trkpt><trkpt lat="45.3939367" lon="8.8237067"><ele>99.0</ele><time>2026-03-22T10:39:56.263Z</time></trkpt><trkpt lat="45.3939" lon="8.8237967"><ele>99.0</ele><time>2026-03-22T10:39:57.263Z</time></trkpt><trkpt lat="45.393895" lon="8.823905"><ele>99.0</ele><time>2026-03-22T10:39:58.263Z</time></trkpt><trkpt lat="45.3939083" lon="8.8240217"><ele>99.0</ele><time>2026-03-22T10:39:59.263Z</time></trkpt><trkpt lat="45.3939467" lon="8.8241517"><ele>99.0</ele><time>2026-03-22T10:40:00.263Z</time></trkpt><trkpt lat="45.393985" lon="8.8242817"><ele>98.5</ele><time>2026-03-22T10:40:01.263Z</time></trkpt><trkpt lat="45.3940133" lon="8.82441"><ele>98.0</ele><time>2026-03-22T10:40:02.263Z</time></trkpt><trkpt lat="45.394035" lon="8.8245033"><ele>97.5</ele><time>2026-03-22T10:40:03.263Z</time></trkpt><trkpt lat="45.3940617" lon="8.8245933"><ele>97.0</ele><time>2026-03-22T10:40:04.263Z</time></trkpt><trkpt lat="45.3941" lon="8.8247233"><ele>96.5</ele><time>2026-03-22T10:40:06.263Z</time></trkpt><trkpt lat="45.3940267" lon="8.8248083"><ele>96.0</ele><time>2026-03-22T10:40:08.263Z</time></trkpt><trkpt lat="45.3939483" lon="8.824825"><ele>96.0</ele><time>2026-03-22T10:40:09.263Z</time></trkpt><trkpt lat="45.3938433" lon="8.8248667"><ele>96.0</ele><time>2026-03-22T10:40:10.263Z</time></trkpt><trkpt lat="45.3937467" lon="8.8249167"><ele>96.0</ele><time>2026-03-22T10:40:11.263Z</time></trkpt><trkpt lat="45.3936467" lon="8.8249667"><ele>96.0</ele><time>2026-03-22T10:40:12.263Z</time></trkpt><trkpt lat="45.39355" lon="8.8250183"><ele>96.0</ele><time>2026-03-22T10:40:13.263Z</time></trkpt><trkpt lat="45.3934567" lon="8.8250767"><ele>96.19999999999999</ele><time>2026-03-22T10:40:14.263Z</time></trkpt><trkpt lat="45.3933567" lon="8.8251217"><ele>96.39999999999999</ele><time>2026-03-22T10:40:15.263Z</time></trkpt><trkpt lat="45.393255" lon="8.8251717"><ele>96.6</ele><time>2026-03-22T10:40:16.263Z</time></trkpt><trkpt lat="45.3931533" lon="8.825225"><ele>96.8</ele><time>2026-03-22T10:40:17.263Z</time></trkpt><trkpt lat="45.39305" lon="8.8252767"><ele>97.0</ele><time>2026-03-22T10:40:18.263Z</time></trkpt><trkpt lat="45.3929517" lon="8.8253217"><ele>97.0</ele><time>2026-03-22T10:40:19.263Z</time></trkpt><trkpt lat="45.39285" lon="8.8253633"><ele>97.0</ele><time>2026-03-22T10:40:20.263Z</time></trkpt><trkpt lat="45.392755" lon="8.8254067"><ele>97.0</ele><time>2026-03-22T10:40:21.263Z</time></trkpt><trkpt lat="45.392655" lon="8.82545"><ele>97.0</ele><time>2026-03-22T10:40:22.263Z</time></trkpt><trkpt lat="45.3925583" lon="8.8254983"><ele>97.0</ele><time>2026-03-22T10:40:23.263Z</time></trkpt><trkpt lat="45.39246" lon="8.825545"><ele>97.0</ele><time>2026-03-22T10:40:24.263Z</time></trkpt><trkpt lat="45.3923617" lon="8.825605"><ele>97.0</ele><time>2026-03-22T10:40:25.263Z</time></trkpt><trkpt lat="45.3922567" lon="8.8256633"><ele>97.0</ele><time>2026-03-22T10:40:26.263Z</time></trkpt><trkpt lat="45.39215" lon="8.82571"><ele>97.0</ele><time>2026-03-22T10:40:27.263Z</time></trkpt><trkpt lat="45.392045" lon="8.8257667"><ele>97.0</ele><time>2026-03-22T10:40:28.263Z</time></trkpt><trkpt lat="45.3919383" lon="8.8258317"><ele>97.0</ele><time>2026-03-22T10:40:29.263Z</time></trkpt><trkpt lat="45.3918383" lon="8.82589"><ele>97.0</ele><time>2026-03-22T10:40:30.263Z</time></trkpt><trkpt lat="45.39174" lon="8.825945"><ele>97.0</ele><time>2026-03-22T10:40:31.263Z</time></trkpt><trkpt lat="45.39164" lon="8.8260083"><ele>97.0</ele><time>2026-03-22T10:40:32.263Z</time></trkpt><trkpt lat="45.39153" lon="8.8260667"><ele>97.0</ele><time>2026-03-22T10:40:33.263Z</time></trkpt><trkpt lat="45.3914217" lon="8.8261417"><ele>97.5</ele><time>2026-03-22T10:40:34.263Z</time></trkpt><trkpt lat="45.3913133" lon="8.8262183"><ele>98.0</ele><time>2026-03-22T10:40:35.263Z</time></trkpt><trkpt lat="45.3912067" lon="8.8262883"><ele>98.5</ele><time>2026-03-22T10:40:36.263Z</time></trkpt><trkpt lat="45.391105" lon="8.82636"><ele>99.0</ele><time>2026-03-22T10:40:37.263Z</time></trkpt><trkpt lat="45.3909933" lon="8.8264383"><ele>99.0</ele><time>2026-03-22T10:40:38.263Z</time></trkpt><trkpt lat="45.390885" lon="8.8265083"><ele>99.0</ele><time>2026-03-22T10:40:39.263Z</time></trkpt><trkpt lat="45.3907833" lon="8.826565"><ele>99.0</ele><time>2026-03-22T10:40:40.263Z</time></trkpt><trkpt lat="45.39068" lon="8.82663"><ele>99.0</ele><time>2026-03-22T10:40:41.263Z</time></trkpt><trkpt lat="45.39058" lon="8.8266883"><ele>99.0</ele><time>2026-03-22T10:40:42.263Z</time></trkpt><trkpt lat="45.39048" lon="8.82675"><ele>98.6</ele><time>2026-03-22T10:40:43.263Z</time></trkpt><trkpt lat="45.3903717" lon="8.82682"><ele>98.2</ele><time>2026-03-22T10:40:44.263Z</time></trkpt><trkpt lat="45.39027" lon="8.8268817"><ele>97.8</ele><time>2026-03-22T10:40:45.263Z</time></trkpt><trkpt lat="45.3901817" lon="8.8269417"><ele>97.39999999999999</ele><time>2026-03-22T10:40:46.263Z</time></trkpt><trkpt lat="45.3901" lon="8.826995"><ele>97.0</ele><time>2026-03-22T10:40:47.263Z</time></trkpt><trkpt lat="45.3900267" lon="8.8270433"><ele>97.00000000000001</ele><time>2026-03-22T10:40:48.263Z</time></trkpt><trkpt lat="45.38996" lon="8.82709"><ele>97.0</ele><time>2026-03-22T10:40:49.263Z</time></trkpt><trkpt lat="45.3898983" lon="8.827125"><ele>97.0</ele><time>2026-03-22T10:40:50.263Z</time></trkpt><trkpt lat="45.3898333" lon="8.827155"><ele>97.0</ele><time>2026-03-22T10:40:51.263Z</time></trkpt><trkpt lat="45.389765" lon="8.8272967"><ele>97.00000000000001</ele><time>2026-03-22T10:40:53.263Z</time></trkpt><trkpt lat="45.389765" lon="8.82741"><ele>97.0</ele><time>2026-03-22T10:40:54.263Z</time></trkpt><trkpt lat="45.38977" lon="8.8275483"><ele>96.83333333333334</ele><time>2026-03-22T10:40:55.263Z</time></trkpt><trkpt lat="45.3897467" lon="8.82767"><ele>96.66666666666667</ele><time>2026-03-22T10:40:56.263Z</time></trkpt><trkpt lat="45.3897133" lon="8.8277817"><ele>96.5</ele><time>2026-03-22T10:40:57.263Z</time></trkpt><trkpt lat="45.38967" lon="8.82788"><ele>96.33333333333334</ele><time>2026-03-22T10:40:58.263Z</time></trkpt><trkpt lat="45.3896333" lon="8.8279717"><ele>96.16666666666667</ele><time>2026-03-22T10:40:59.263Z</time></trkpt><trkpt lat="45.3895883" lon="8.8280717"><ele>96.0</ele><time>2026-03-22T10:41:00.263Z</time></trkpt><trkpt lat="45.3895367" lon="8.8281717"><ele>96.33333333333333</ele><time>2026-03-22T10:41:01.263Z</time></trkpt><trkpt lat="45.3894867" lon="8.8282567"><ele>96.66666666666666</ele><time>2026-03-22T10:41:02.263Z</time></trkpt><trkpt lat="45.3894167" lon="8.8283283"><ele>97.0</ele><time>2026-03-22T10:41:03.263Z</time></trkpt><trkpt lat="45.3893383" lon="8.82839"><ele>97.33333333333333</ele><time>2026-03-22T10:41:04.263Z</time></trkpt><trkpt lat="45.38926" lon="8.82845"><ele>97.66666666666666</ele><time>2026-03-22T10:41:05.263Z</time></trkpt><trkpt lat="45.38918" lon="8.8285183"><ele>98.0</ele><time>2026-03-22T10:41:06.263Z</time></trkpt><trkpt lat="45.3891133" lon="8.8285767"><ele>98.0</ele><time>2026-03-22T10:41:07.263Z</time></trkpt><trkpt lat="45.389035" lon="8.82864"><ele>98.0</ele><time>2026-03-22T10:41:08.263Z</time></trkpt><trkpt lat="45.3889517" lon="8.8286933"><ele>98.0</ele><time>2026-03-22T10:41:09.263Z</time></trkpt><trkpt lat="45.3888733" lon="8.8287483"><ele>98.0</ele><time>2026-03-22T10:41:10.263Z</time></trkpt><trkpt lat="45.3887783" lon="8.8288033"><ele>98.0</ele><time>2026-03-22T10:41:11.263Z</time></trkpt><trkpt lat="45.3886883" lon="8.82887"><ele>98.0</ele><time>2026-03-22T10:41:12.263Z</time></trkpt><trkpt lat="45.388605" lon="8.8289483"><ele>98.0</ele><time>2026-03-22T10:41:13.263Z</time></trkpt><trkpt lat="45.3885183" lon="8.829025"><ele>98.0</ele><time>2026-03-22T10:41:14.263Z</time></trkpt><trkpt lat="45.3884367" lon="8.8290967"><ele>98.0</ele><time>2026-03-22T10:41:15.263Z</time></trkpt><trkpt lat="45.3883417" lon="8.82915"><ele>98.0</ele><time>2026-03-22T10:41:16.263Z</time></trkpt><trkpt lat="45.3882417" lon="8.8291933"><ele>98.0</ele><time>2026-03-22T10:41:17.263Z</time></trkpt><trkpt lat="45.3881433" lon="8.8292333"><ele>98.0</ele><time>2026-03-22T10:41:18.263Z</time></trkpt><trkpt lat="45.3880433" lon="8.8292833"><ele>98.0</ele><time>2026-03-22T10:41:19.263Z</time></trkpt><trkpt lat="45.3879417" lon="8.829325"><ele>98.0</ele><time>2026-03-22T10:41:20.263Z</time></trkpt><trkpt lat="45.3878467" lon="8.8293667"><ele>98.0</ele><time>2026-03-22T10:41:21.263Z</time></trkpt><trkpt lat="45.3877533" lon="8.8294183"><ele>98.0</ele><time>2026-03-22T10:41:22.263Z</time></trkpt><trkpt lat="45.387665" lon="8.8294733"><ele>98.0</ele><time>2026-03-22T10:41:23.263Z</time></trkpt><trkpt lat="45.3875917" lon="8.829545"><ele>98.0</ele><time>2026-03-22T10:41:24.263Z</time></trkpt><trkpt lat="45.3875267" lon="8.8296417"><ele>98.0</ele><time>2026-03-22T10:41:25.263Z</time></trkpt><trkpt lat="45.38748" lon="8.8297483"><ele>98.0</ele><time>2026-03-22T10:41:26.263Z</time></trkpt><trkpt lat="45.3874567" lon="8.8298717"><ele>97.99999999999999</ele><time>2026-03-22T10:41:27.263Z</time></trkpt><trkpt lat="45.3874167" lon="8.82997"><ele>98.0</ele><time>2026-03-22T10:41:28.263Z</time></trkpt><trkpt lat="45.3873667" lon="8.830045"><ele>98.0</ele><time>2026-03-22T10:41:29.263Z</time></trkpt><trkpt lat="45.3872983" lon="8.8301133"><ele>98.0</ele><time>2026-03-22T10:41:30.263Z</time></trkpt><trkpt lat="45.3872067" lon="8.8301583"><ele>97.99999999999999</ele><time>2026-03-22T10:41:31.263Z</time></trkpt><trkpt lat="45.3871017" lon="8.8301967"><ele>98.0</ele><time>2026-03-22T10:41:32.263Z</time></trkpt><trkpt lat="45.38699" lon="8.8302367"><ele>98.2</ele><time>2026-03-22T10:41:33.263Z</time></trkpt><trkpt lat="45.386885" lon="8.8302783"><ele>98.4</ele><time>2026-03-22T10:41:34.263Z</time></trkpt><trkpt lat="45.3867817" lon="8.83032"><ele>98.60000000000001</ele><time>2026-03-22T10:41:35.263Z</time></trkpt><trkpt lat="45.3866867" lon="8.8303733"><ele>98.80000000000001</ele><time>2026-03-22T10:41:36.263Z</time></trkpt><trkpt lat="45.3866083" lon="8.8304183"><ele>99.0</ele><time>2026-03-22T10:41:37.263Z</time></trkpt><trkpt lat="45.3865317" lon="8.83046"><ele>99.0</ele><time>2026-03-22T10:41:38.263Z</time></trkpt><trkpt lat="45.38646" lon="8.8305133"><ele>99.0</ele><time>2026-03-22T10:41:39.263Z</time></trkpt><trkpt lat="45.38639" lon="8.8305733"><ele>99.0</ele><time>2026-03-22T10:41:40.263Z</time></trkpt><trkpt lat="45.3863217" lon="8.8306383"><ele>99.0</ele><time>2026-03-22T10:41:41.263Z</time></trkpt><trkpt lat="45.3862517" lon="8.8306983"><ele>99.0</ele><time>2026-03-22T10:41:42.263Z</time></trkpt><trkpt lat="45.38618" lon="8.8307567"><ele>99.0</ele><time>2026-03-22T10:41:43.263Z</time></trkpt><trkpt lat="45.3861" lon="8.8308167"><ele>98.80000000000001</ele><time>2026-03-22T10:41:44.263Z</time></trkpt><trkpt lat="45.3860183" lon="8.8308733"><ele>98.60000000000001</ele><time>2026-03-22T10:41:45.263Z</time></trkpt><trkpt lat="45.3859267" lon="8.8309283"><ele>98.4</ele><time>2026-03-22T10:41:46.263Z</time></trkpt><trkpt lat="45.3858317" lon="8.83097"><ele>98.2</ele><time>2026-03-22T10:41:47.263Z</time></trkpt><trkpt lat="45.385745" lon="8.831"><ele>98.0</ele><time>2026-03-22T10:41:48.263Z</time></trkpt><trkpt lat="45.3856533" lon="8.8310517"><ele>98.0</ele><time>2026-03-22T10:41:49.263Z</time></trkpt><trkpt lat="45.385575" lon="8.8311217"><ele>98.0</ele><time>2026-03-22T10:41:50.263Z</time></trkpt><trkpt lat="45.3855" lon="8.83122"><ele>98.0</ele><time>2026-03-22T10:41:51.263Z</time></trkpt><trkpt lat="45.3854417" lon="8.8313233"><ele>98.0</ele><time>2026-03-22T10:41:52.263Z</time></trkpt><trkpt lat="45.3853933" lon="8.8314517"><ele>98.0</ele><time>2026-03-22T10:41:53.263Z</time></trkpt><trkpt lat="45.3853417" lon="8.8315817"><ele>98.0</ele><time>2026-03-22T10:41:54.263Z</time></trkpt><trkpt lat="45.385295" lon="8.831685"><ele>98.0</ele><time>2026-03-22T10:41:55.263Z</time></trkpt><trkpt lat="45.385265" lon="8.8317717"><ele>98.0</ele><time>2026-03-22T10:41:56.263Z</time></trkpt><trkpt lat="45.3852083" lon="8.8319267"><ele>98.0</ele><time>2026-03-22T10:41:58.263Z</time></trkpt><trkpt lat="45.3851667" lon="8.8320217"><ele>98.0</ele><time>2026-03-22T10:41:59.263Z</time></trkpt><trkpt lat="45.3850933" lon="8.8321383"><ele>98.0</ele><time>2026-03-22T10:42:01.263Z</time></trkpt><trkpt lat="45.38502" lon="8.832285"><ele>98.0</ele><time>2026-03-22T10:42:03.263Z</time></trkpt><trkpt lat="45.3849767" lon="8.8323967"><ele>98.0</ele><time>2026-03-22T10:42:04.263Z</time></trkpt><trkpt lat="45.3849233" lon="8.8324933"><ele>98.0</ele><time>2026-03-22T10:42:06.263Z</time></trkpt><trkpt lat="45.3848683" lon="8.8325917"><ele>98.0</ele><time>2026-03-22T10:42:08.263Z</time></trkpt><trkpt lat="45.3848217" lon="8.8326983"><ele>98.49999999999999</ele><time>2026-03-22T10:42:10.263Z</time></trkpt><trkpt lat="45.3847767" lon="8.8327717"><ele>99.0</ele><time>2026-03-22T10:42:12.263Z</time></trkpt><trkpt lat="45.3847083" lon="8.8328517"><ele>99.5</ele><time>2026-03-22T10:42:14.262Z</time></trkpt><trkpt lat="45.38462" lon="8.832945"><ele>100.0</ele><time>2026-03-22T10:42:16.263Z</time></trkpt><trkpt lat="45.3845617" lon="8.83301"><ele>100.49999999999999</ele><time>2026-03-22T10:42:17.263Z</time></trkpt><trkpt lat="45.3844867" lon="8.833085"><ele>101.0</ele><time>2026-03-22T10:42:18.263Z</time></trkpt><trkpt lat="45.3844133" lon="8.8331383"><ele>101.19999999999999</ele><time>2026-03-22T10:42:19.263Z</time></trkpt><trkpt lat="45.384345" lon="8.8332083"><ele>101.39999999999999</ele><time>2026-03-22T10:42:20.263Z</time></trkpt><trkpt lat="45.3842783" lon="8.8332817"><ele>101.6</ele><time>2026-03-22T10:42:21.263Z</time></trkpt><trkpt lat="45.384205" lon="8.8333683"><ele>101.8</ele><time>2026-03-22T10:42:22.263Z</time></trkpt><trkpt lat="45.3841317" lon="8.8334567"><ele>102.0</ele><time>2026-03-22T10:42:23.263Z</time></trkpt><trkpt lat="45.3840583" lon="8.8335567"><ele>102.0</ele><time>2026-03-22T10:42:24.263Z</time></trkpt><trkpt lat="45.383975" lon="8.8336683"><ele>102.0</ele><time>2026-03-22T10:42:25.263Z</time></trkpt><trkpt lat="45.3839083" lon="8.8337817"><ele>102.0</ele><time>2026-03-22T10:42:26.263Z</time></trkpt><trkpt lat="45.3838483" lon="8.8339133"><ele>102.0</ele><time>2026-03-22T10:42:27.263Z</time></trkpt><trkpt lat="45.3837967" lon="8.8340417"><ele>102.0</ele><time>2026-03-22T10:42:28.263Z</time></trkpt><trkpt lat="45.38374" lon="8.834165"><ele>101.6</ele><time>2026-03-22T10:42:29.263Z</time></trkpt><trkpt lat="45.3836767" lon="8.8342783"><ele>101.19999999999999</ele><time>2026-03-22T10:42:30.263Z</time></trkpt><trkpt lat="45.3836283" lon="8.834385"><ele>100.8</ele><time>2026-03-22T10:42:31.263Z</time></trkpt><trkpt lat="45.3835817" lon="8.8345"><ele>100.4</ele><time>2026-03-22T10:42:32.263Z</time></trkpt><trkpt lat="45.3835333" lon="8.8346133"><ele>100.0</ele><time>2026-03-22T10:42:33.263Z</time></trkpt><trkpt lat="45.3834917" lon="8.8347283"><ele>100.0</ele><time>2026-03-22T10:42:34.263Z</time></trkpt><trkpt lat="45.3834417" lon="8.83485"><ele>100.0</ele><time>2026-03-22T10:42:35.262Z</time></trkpt><trkpt lat="45.383395" lon="8.8349667"><ele>100.0</ele><time>2026-03-22T10:42:36.262Z</time></trkpt><trkpt lat="45.3833517" lon="8.835075"><ele>100.0</ele><time>2026-03-22T10:42:37.262Z</time></trkpt><trkpt lat="45.3833" lon="8.8351767"><ele>100.0</ele><time>2026-03-22T10:42:38.262Z</time></trkpt><trkpt lat="45.3832367" lon="8.835265"><ele>100.0</ele><time>2026-03-22T10:42:39.262Z</time></trkpt><trkpt lat="45.383175" lon="8.83534"><ele>100.0</ele><time>2026-03-22T10:42:40.262Z</time></trkpt><trkpt lat="45.3831067" lon="8.8353917"><ele>100.0</ele><time>2026-03-22T10:42:41.262Z</time></trkpt><trkpt lat="45.3830217" lon="8.8354283"><ele>100.0</ele><time>2026-03-22T10:42:42.262Z</time></trkpt><trkpt lat="45.3829133" lon="8.8354633"><ele>100.0</ele><time>2026-03-22T10:42:43.262Z</time></trkpt><trkpt lat="45.3827883" lon="8.8354833"><ele>100.25</ele><time>2026-03-22T10:42:44.262Z</time></trkpt><trkpt lat="45.382665" lon="8.8355033"><ele>100.5</ele><time>2026-03-22T10:42:45.262Z</time></trkpt><trkpt lat="45.382535" lon="8.83553"><ele>100.75</ele><time>2026-03-22T10:42:46.262Z</time></trkpt><trkpt lat="45.3824167" lon="8.83556"><ele>101.0</ele><time>2026-03-22T10:42:47.262Z</time></trkpt><trkpt lat="45.3822983" lon="8.8355717"><ele>101.0</ele><time>2026-03-22T10:42:48.263Z</time></trkpt><trkpt lat="45.38219" lon="8.83559"><ele>101.0</ele><time>2026-03-22T10:42:49.262Z</time></trkpt><trkpt lat="45.382085" lon="8.8356033"><ele>101.0</ele><time>2026-03-22T10:42:50.262Z</time></trkpt><trkpt lat="45.381975" lon="8.83563"><ele>101.0</ele><time>2026-03-22T10:42:51.262Z</time></trkpt><trkpt lat="45.381865" lon="8.8356583"><ele>101.0</ele><time>2026-03-22T10:42:52.262Z</time></trkpt><trkpt lat="45.381765" lon="8.8356667"><ele>101.19999999999999</ele><time>2026-03-22T10:42:53.262Z</time></trkpt><trkpt lat="45.3816633" lon="8.835675"><ele>101.39999999999999</ele><time>2026-03-22T10:42:54.262Z</time></trkpt><trkpt lat="45.381565" lon="8.8356867"><ele>101.6</ele><time>2026-03-22T10:42:55.262Z</time></trkpt><trkpt lat="45.3814833" lon="8.8356817"><ele>101.8</ele><time>2026-03-22T10:42:56.262Z</time></trkpt><trkpt lat="45.3813817" lon="8.83567"><ele>102.0</ele><time>2026-03-22T10:42:57.262Z</time></trkpt><trkpt lat="45.3812733" lon="8.8356517"><ele>100.8</ele><time>2026-03-22T10:42:58.262Z</time></trkpt><trkpt lat="45.3811817" lon="8.83564"><ele>99.6</ele><time>2026-03-22T10:42:59.262Z</time></trkpt><trkpt lat="45.3810783" lon="8.83561"><ele>98.39999999999999</ele><time>2026-03-22T10:43:00.262Z</time></trkpt><trkpt lat="45.380985" lon="8.8355567"><ele>97.19999999999999</ele><time>2026-03-22T10:43:01.262Z</time></trkpt><trkpt lat="45.3808917" lon="8.8354967"><ele>96.0</ele><time>2026-03-22T10:43:02.262Z</time></trkpt><trkpt lat="45.38081" lon="8.8354317"><ele>96.0</ele><time>2026-03-22T10:43:03.262Z</time></trkpt><trkpt lat="45.3807067" lon="8.8354"><ele>96.0</ele><time>2026-03-22T10:43:04.262Z</time></trkpt><trkpt lat="45.3805917" lon="8.835395"><ele>96.0</ele><time>2026-03-22T10:43:05.262Z</time></trkpt><trkpt lat="45.380465" lon="8.835395"><ele>96.0</ele><time>2026-03-22T10:43:06.262Z</time></trkpt><trkpt lat="45.3803533" lon="8.8353983"><ele>96.19999999999999</ele><time>2026-03-22T10:43:07.262Z</time></trkpt><trkpt lat="45.3802517" lon="8.835385"><ele>96.39999999999999</ele><time>2026-03-22T10:43:08.262Z</time></trkpt><trkpt lat="45.38014" lon="8.8353817"><ele>96.6</ele><time>2026-03-22T10:43:09.262Z</time></trkpt><trkpt lat="45.380025" lon="8.8353767"><ele>96.8</ele><time>2026-03-22T10:43:10.262Z</time></trkpt><trkpt lat="45.3799183" lon="8.8353817"><ele>97.0</ele><time>2026-03-22T10:43:11.262Z</time></trkpt><trkpt lat="45.379815" lon="8.8353883"><ele>97.0</ele><time>2026-03-22T10:43:12.262Z</time></trkpt><trkpt lat="45.37971" lon="8.8353917"><ele>97.0</ele><time>2026-03-22T10:43:13.262Z</time></trkpt><trkpt lat="45.3796033" lon="8.8354"><ele>97.0</ele><time>2026-03-22T10:43:14.262Z</time></trkpt><trkpt lat="45.379495" lon="8.8354017"><ele>97.0</ele><time>2026-03-22T10:43:15.262Z</time></trkpt><trkpt lat="45.3793917" lon="8.8353883"><ele>97.0</ele><time>2026-03-22T10:43:16.262Z</time></trkpt><trkpt lat="45.3792917" lon="8.83537"><ele>96.8</ele><time>2026-03-22T10:43:17.262Z</time></trkpt><trkpt lat="45.3791933" lon="8.8353517"><ele>96.6</ele><time>2026-03-22T10:43:18.262Z</time></trkpt><trkpt lat="45.3790983" lon="8.835335"><ele>96.39999999999999</ele><time>2026-03-22T10:43:19.262Z</time></trkpt><trkpt lat="45.3790183" lon="8.8353017"><ele>96.19999999999999</ele><time>2026-03-22T10:43:20.262Z</time></trkpt><trkpt lat="45.3789517" lon="8.835275"><ele>96.0</ele><time>2026-03-22T10:43:21.262Z</time></trkpt><trkpt lat="45.3788533" lon="8.8351983"><ele>96.16666666666667</ele><time>2026-03-22T10:43:23.262Z</time></trkpt><trkpt lat="45.3788033" lon="8.835065"><ele>96.33333333333334</ele><time>2026-03-22T10:43:25.262Z</time></trkpt><trkpt lat="45.3787883" lon="8.834975"><ele>96.5</ele><time>2026-03-22T10:43:26.262Z</time></trkpt><trkpt lat="45.3787733" lon="8.8348733"><ele>96.66666666666667</ele><time>2026-03-22T10:43:27.262Z</time></trkpt><trkpt lat="45.378765" lon="8.834765"><ele>96.83333333333334</ele><time>2026-03-22T10:43:28.262Z</time></trkpt><trkpt lat="45.3787583" lon="8.834625"><ele>97.0</ele><time>2026-03-22T10:43:29.262Z</time></trkpt><trkpt lat="45.3787433" lon="8.8344917"><ele>97.0</ele><time>2026-03-22T10:43:30.262Z</time></trkpt><trkpt lat="45.3787133" lon="8.8343517"><ele>97.0</ele><time>2026-03-22T10:43:31.262Z</time></trkpt><trkpt lat="45.3786833" lon="8.8342183"><ele>97.0</ele><time>2026-03-22T10:43:32.262Z</time></trkpt><trkpt lat="45.37867" lon="8.8340933"><ele>97.0</ele><time>2026-03-22T10:43:33.262Z</time></trkpt><trkpt lat="45.3786483" lon="8.8339467"><ele>97.0</ele><time>2026-03-22T10:43:34.262Z</time></trkpt><trkpt lat="45.37863" lon="8.8338167"><ele>96.66666666666667</ele><time>2026-03-22T10:43:35.262Z</time></trkpt><trkpt lat="45.3786133" lon="8.833695"><ele>96.33333333333334</ele><time>2026-03-22T10:43:36.262Z</time></trkpt><trkpt lat="45.3786" lon="8.8335667"><ele>96.0</ele><time>2026-03-22T10:43:37.262Z</time></trkpt><trkpt lat="45.37858" lon="8.833445"><ele>95.66666666666667</ele><time>2026-03-22T10:43:38.262Z</time></trkpt><trkpt lat="45.3785583" lon="8.83332"><ele>95.33333333333334</ele><time>2026-03-22T10:43:39.262Z</time></trkpt><trkpt lat="45.3785417" lon="8.83319"><ele>95.0</ele><time>2026-03-22T10:43:40.262Z</time></trkpt><trkpt lat="45.37852" lon="8.8330467"><ele>95.0</ele><time>2026-03-22T10:43:41.262Z</time></trkpt><trkpt lat="45.3784933" lon="8.832905"><ele>95.0</ele><time>2026-03-22T10:43:42.262Z</time></trkpt><trkpt lat="45.3784633" lon="8.8327583"><ele>95.0</ele><time>2026-03-22T10:43:43.262Z</time></trkpt><trkpt lat="45.3784367" lon="8.8326033"><ele>95.0</ele><time>2026-03-22T10:43:44.262Z</time></trkpt><trkpt lat="45.37841" lon="8.83244"><ele>95.0</ele><time>2026-03-22T10:43:45.262Z</time></trkpt><trkpt lat="45.378385" lon="8.8322733"><ele>95.2</ele><time>2026-03-22T10:43:46.262Z</time></trkpt><trkpt lat="45.3783533" lon="8.83213"><ele>95.4</ele><time>2026-03-22T10:43:47.262Z</time></trkpt><trkpt lat="45.378325" lon="8.83199"><ele>95.6</ele><time>2026-03-22T10:43:48.262Z</time></trkpt><trkpt lat="45.3782983" lon="8.83183"><ele>95.8</ele><time>2026-03-22T10:43:49.262Z</time></trkpt><trkpt lat="45.378265" lon="8.831675"><ele>96.0</ele><time>2026-03-22T10:43:50.262Z</time></trkpt><trkpt lat="45.378225" lon="8.8315233"><ele>96.25</ele><time>2026-03-22T10:43:51.262Z</time></trkpt><trkpt lat="45.3782017" lon="8.831365"><ele>96.5</ele><time>2026-03-22T10:43:52.262Z</time></trkpt><trkpt lat="45.3781717" lon="8.8312017"><ele>96.75</ele><time>2026-03-22T10:43:53.262Z</time></trkpt><trkpt lat="45.378145" lon="8.8310417"><ele>97.0</ele><time>2026-03-22T10:43:54.262Z</time></trkpt><trkpt lat="45.3781233" lon="8.8308733"><ele>97.0</ele><time>2026-03-22T10:43:55.262Z</time></trkpt><trkpt lat="45.378095" lon="8.8306983"><ele>97.0</ele><time>2026-03-22T10:43:56.262Z</time></trkpt><trkpt lat="45.3780617" lon="8.8305283"><ele>97.0</ele><time>2026-03-22T10:43:57.262Z</time></trkpt><trkpt lat="45.3780267" lon="8.830365"><ele>97.0</ele><time>2026-03-22T10:43:58.262Z</time></trkpt><trkpt lat="45.3779917" lon="8.830205"><ele>98.25</ele><time>2026-03-22T10:43:59.262Z</time></trkpt><trkpt lat="45.377975" lon="8.83003"><ele>99.5</ele><time>2026-03-22T10:44:00.262Z</time></trkpt><trkpt lat="45.377945" lon="8.8298633"><ele>100.75</ele><time>2026-03-22T10:44:01.262Z</time></trkpt><trkpt lat="45.3779067" lon="8.8297133"><ele>102.0</ele><time>2026-03-22T10:44:02.262Z</time></trkpt><trkpt lat="45.3778633" lon="8.8295783"><ele>102.0</ele><time>2026-03-22T10:44:03.262Z</time></trkpt><trkpt lat="45.3778167" lon="8.829455"><ele>102.0</ele><time>2026-03-22T10:44:04.262Z</time></trkpt><trkpt lat="45.3777733" lon="8.8293467"><ele>102.0</ele><time>2026-03-22T10:44:05.262Z</time></trkpt><trkpt lat="45.3777317" lon="8.8292417"><ele>102.0</ele><time>2026-03-22T10:44:06.262Z</time></trkpt><trkpt lat="45.3777067" lon="8.8291467"><ele>102.0</ele><time>2026-03-22T10:44:07.262Z</time></trkpt><trkpt lat="45.3776783" lon="8.8290567"><ele>102.0</ele><time>2026-03-22T10:44:08.262Z</time></trkpt><trkpt lat="45.3776317" lon="8.828995"><ele>103.0</ele><time>2026-03-22T10:44:09.262Z</time></trkpt><trkpt lat="45.3775583" lon="8.828955"><ele>104.0</ele><time>2026-03-22T10:44:10.262Z</time></trkpt><trkpt lat="45.3774617" lon="8.8289433"><ele>104.99999999999999</ele><time>2026-03-22T10:44:11.262Z</time></trkpt><trkpt lat="45.3773433" lon="8.8289483"><ele>106.0</ele><time>2026-03-22T10:44:12.262Z</time></trkpt><trkpt lat="45.377215" lon="8.8289533"><ele>107.0</ele><time>2026-03-22T10:44:13.262Z</time></trkpt><trkpt lat="45.3771033" lon="8.828915"><ele>107.0</ele><time>2026-03-22T10:44:14.262Z</time></trkpt><trkpt lat="45.3769967" lon="8.8288483"><ele>107.0</ele><time>2026-03-22T10:44:15.262Z</time></trkpt><trkpt lat="45.3769083" lon="8.8287417"><ele>107.0</ele><time>2026-03-22T10:44:16.262Z</time></trkpt><trkpt lat="45.3768167" lon="8.8286167"><ele>107.0</ele><time>2026-03-22T10:44:17.262Z</time></trkpt><trkpt lat="45.3767267" lon="8.828485"><ele>108.0</ele><time>2026-03-22T10:44:18.262Z</time></trkpt><trkpt lat="45.3766317" lon="8.82836"><ele>109.0</ele><time>2026-03-22T10:44:19.262Z</time></trkpt><trkpt lat="45.37654" lon="8.828235"><ele>110.0</ele><time>2026-03-22T10:44:20.262Z</time></trkpt><trkpt lat="45.3764467" lon="8.8281133"><ele>111.0</ele><time>2026-03-22T10:44:21.262Z</time></trkpt><trkpt lat="45.3763567" lon="8.8280017"><ele>111.0</ele><time>2026-03-22T10:44:22.262Z</time></trkpt><trkpt lat="45.3762733" lon="8.827895"><ele>111.0</ele><time>2026-03-22T10:44:23.262Z</time></trkpt><trkpt lat="45.376185" lon="8.8277983"><ele>111.0</ele><time>2026-03-22T10:44:24.262Z</time></trkpt><trkpt lat="45.3761017" lon="8.8277017"><ele>111.0</ele><time>2026-03-22T10:44:25.262Z</time></trkpt><trkpt lat="45.3760217" lon="8.8276"><ele>111.0</ele><time>2026-03-22T10:44:26.262Z</time></trkpt><trkpt lat="45.3759417" lon="8.82749"><ele>111.0</ele><time>2026-03-22T10:44:27.262Z</time></trkpt><trkpt lat="45.375855" lon="8.8273867"><ele>111.0</ele><time>2026-03-22T10:44:28.262Z</time></trkpt><trkpt lat="45.3757633" lon="8.8272867"><ele>111.0</ele><time>2026-03-22T10:44:29.262Z</time></trkpt><trkpt lat="45.3756733" lon="8.8271983"><ele>111.0</ele><time>2026-03-22T10:44:30.262Z</time></trkpt><trkpt lat="45.3755817" lon="8.82711"><ele>111.0</ele><time>2026-03-22T10:44:31.262Z</time></trkpt><trkpt lat="45.3754883" lon="8.8270367"><ele>111.4</ele><time>2026-03-22T10:44:32.262Z</time></trkpt><trkpt lat="45.3753983" lon="8.82695"><ele>111.8</ele><time>2026-03-22T10:44:33.262Z</time></trkpt><trkpt lat="45.3753017" lon="8.8268683"><ele>112.20000000000002</ele><time>2026-03-22T10:44:34.263Z</time></trkpt><trkpt lat="45.375205" lon="8.8267867"><ele>112.60000000000001</ele><time>2026-03-22T10:44:35.263Z</time></trkpt><trkpt lat="45.37511" lon="8.8267117"><ele>113.0</ele><time>2026-03-22T10:44:36.262Z</time></trkpt><trkpt lat="45.375025" lon="8.82665"><ele>112.99999999999999</ele><time>2026-03-22T10:44:37.262Z</time></trkpt><trkpt lat="45.3749383" lon="8.8265833"><ele>113.0</ele><time>2026-03-22T10:44:38.262Z</time></trkpt><trkpt lat="45.3748583" lon="8.826515"><ele>113.0</ele><time>2026-03-22T10:44:39.262Z</time></trkpt><trkpt lat="45.3747967" lon="8.82646"><ele>113.0</ele><time>2026-03-22T10:44:40.262Z</time></trkpt><trkpt lat="45.37474" lon="8.8264133"><ele>112.99999999999999</ele><time>2026-03-22T10:44:41.262Z</time></trkpt><trkpt lat="45.37463" lon="8.82643"><ele>113.0</ele><time>2026-03-22T10:44:43.262Z</time></trkpt><trkpt lat="45.37453" lon="8.8265383"><ele>113.2</ele><time>2026-03-22T10:44:45.262Z</time></trkpt><trkpt lat="45.3744717" lon="8.826625"><ele>113.4</ele><time>2026-03-22T10:44:46.262Z</time></trkpt><trkpt lat="45.3744017" lon="8.8267117"><ele>113.60000000000001</ele><time>2026-03-22T10:44:47.262Z</time></trkpt><trkpt lat="45.3743217" lon="8.8267933"><ele>113.80000000000001</ele><time>2026-03-22T10:44:48.262Z</time></trkpt><trkpt lat="45.3742317" lon="8.8268833"><ele>114.0</ele><time>2026-03-22T10:44:49.262Z</time></trkpt><trkpt lat="45.3741267" lon="8.826985"><ele>113.5</ele><time>2026-03-22T10:44:50.262Z</time></trkpt><trkpt lat="45.3740067" lon="8.8271"><ele>113.0</ele><time>2026-03-22T10:44:51.262Z</time></trkpt><trkpt lat="45.373895" lon="8.827215"><ele>112.5</ele><time>2026-03-22T10:44:52.262Z</time></trkpt><trkpt lat="45.3737883" lon="8.8273333"><ele>112.0</ele><time>2026-03-22T10:44:53.262Z</time></trkpt><trkpt lat="45.37368" lon="8.8274433"><ele>111.75</ele><time>2026-03-22T10:44:54.262Z</time></trkpt><trkpt lat="45.37358" lon="8.82754"><ele>111.5</ele><time>2026-03-22T10:44:55.262Z</time></trkpt><trkpt lat="45.3734833" lon="8.8276567"><ele>111.25</ele><time>2026-03-22T10:44:56.262Z</time></trkpt><trkpt lat="45.3733783" lon="8.8277517"><ele>111.0</ele><time>2026-03-22T10:44:57.262Z</time></trkpt><trkpt lat="45.3732783" lon="8.8278583"><ele>111.0</ele><time>2026-03-22T10:44:58.262Z</time></trkpt><trkpt lat="45.3731767" lon="8.8279617"><ele>111.0</ele><time>2026-03-22T10:44:59.262Z</time></trkpt><trkpt lat="45.3730767" lon="8.828055"><ele>111.0</ele><time>2026-03-22T10:45:00.262Z</time></trkpt><trkpt lat="45.3729883" lon="8.8281433"><ele>111.0</ele><time>2026-03-22T10:45:01.262Z</time></trkpt><trkpt lat="45.3728967" lon="8.828225"><ele>111.0</ele><time>2026-03-22T10:45:02.262Z</time></trkpt><trkpt lat="45.372815" lon="8.8283067"><ele>111.0</ele><time>2026-03-22T10:45:03.262Z</time></trkpt><trkpt lat="45.3727467" lon="8.8284133"><ele>111.0</ele><time>2026-03-22T10:45:04.262Z</time></trkpt><trkpt lat="45.3727133" lon="8.8285383"><ele>111.0</ele><time>2026-03-22T10:45:05.262Z</time></trkpt><trkpt lat="45.3726633" lon="8.8286467"><ele>111.0</ele><time>2026-03-22T10:45:06.262Z</time></trkpt><trkpt lat="45.3725767" lon="8.8287367"><ele>111.0</ele><time>2026-03-22T10:45:07.262Z</time></trkpt><trkpt lat="45.3724683" lon="8.828805"><ele>111.0</ele><time>2026-03-22T10:45:08.262Z</time></trkpt><trkpt lat="45.3723567" lon="8.8288533"><ele>111.0</ele><time>2026-03-22T10:45:09.262Z</time></trkpt><trkpt lat="45.3722367" lon="8.82891"><ele>111.0</ele><time>2026-03-22T10:45:10.262Z</time></trkpt><trkpt lat="45.3721133" lon="8.8289717"><ele>111.0</ele><time>2026-03-22T10:45:11.262Z</time></trkpt><trkpt lat="45.3719867" lon="8.8290433"><ele>111.0</ele><time>2026-03-22T10:45:12.262Z</time></trkpt><trkpt lat="45.3718633" lon="8.8291183"><ele>111.0</ele><time>2026-03-22T10:45:13.262Z</time></trkpt><trkpt lat="45.371745" lon="8.8291967"><ele>111.0</ele><time>2026-03-22T10:45:14.262Z</time></trkpt><trkpt lat="45.3716217" lon="8.829265"><ele>111.0</ele><time>2026-03-22T10:45:15.262Z</time></trkpt><trkpt lat="45.37149" lon="8.829325"><ele>111.0</ele><time>2026-03-22T10:45:16.262Z</time></trkpt><trkpt lat="45.3713583" lon="8.8293867"><ele>111.0</ele><time>2026-03-22T10:45:17.262Z</time></trkpt><trkpt lat="45.3712317" lon="8.8294533"><ele>111.0</ele><time>2026-03-22T10:45:18.262Z</time></trkpt><trkpt lat="45.3710983" lon="8.82952"><ele>111.0</ele><time>2026-03-22T10:45:19.262Z</time></trkpt><trkpt lat="45.3709717" lon="8.8295917"><ele>111.0</ele><time>2026-03-22T10:45:20.262Z</time></trkpt><trkpt lat="45.3708483" lon="8.8296633"><ele>111.0</ele><time>2026-03-22T10:45:21.262Z</time></trkpt><trkpt lat="45.3707117" lon="8.82974"><ele>111.0</ele><time>2026-03-22T10:45:22.262Z</time></trkpt><trkpt lat="45.3705867" lon="8.8298067"><ele>111.0</ele><time>2026-03-22T10:45:23.262Z</time></trkpt><trkpt lat="45.370455" lon="8.8298667"><ele>111.0</ele><time>2026-03-22T10:45:24.262Z</time></trkpt><trkpt lat="45.3703317" lon="8.8299283"><ele>111.0</ele><time>2026-03-22T10:45:25.262Z</time></trkpt><trkpt lat="45.3701983" lon="8.829995"><ele>111.0</ele><time>2026-03-22T10:45:26.262Z</time></trkpt><trkpt lat="45.3700767" lon="8.830055"><ele>111.0</ele><time>2026-03-22T10:45:27.262Z</time></trkpt><trkpt lat="45.3699483" lon="8.8301233"><ele>111.0</ele><time>2026-03-22T10:45:28.262Z</time></trkpt><trkpt lat="45.3698217" lon="8.8301867"><ele>111.0</ele><time>2026-03-22T10:45:29.262Z</time></trkpt><trkpt lat="45.3696933" lon="8.8302567"><ele>111.0</ele><time>2026-03-22T10:45:30.262Z</time></trkpt><trkpt lat="45.3695667" lon="8.8303233"><ele>111.25</ele><time>2026-03-22T10:45:31.262Z</time></trkpt><trkpt lat="45.3694467" lon="8.8303917"><ele>111.5</ele><time>2026-03-22T10:45:32.262Z</time></trkpt><trkpt lat="45.3693183" lon="8.830465"><ele>111.75</ele><time>2026-03-22T10:45:33.262Z</time></trkpt><trkpt lat="45.3691867" lon="8.83054"><ele>112.0</ele><time>2026-03-22T10:45:34.262Z</time></trkpt><trkpt lat="45.369055" lon="8.8306067"><ele>112.0</ele><time>2026-03-22T10:45:35.262Z</time></trkpt><trkpt lat="45.3689317" lon="8.830675"><ele>112.0</ele><time>2026-03-22T10:45:36.262Z</time></trkpt><trkpt lat="45.3688233" lon="8.8307417"><ele>112.0</ele><time>2026-03-22T10:45:37.262Z</time></trkpt><trkpt lat="45.36872" lon="8.8308"><ele>112.0</ele><time>2026-03-22T10:45:38.262Z</time></trkpt><trkpt lat="45.368625" lon="8.8308483"><ele>111.8</ele><time>2026-03-22T10:45:39.262Z</time></trkpt><trkpt lat="45.36853" lon="8.830905"><ele>111.6</ele><time>2026-03-22T10:45:40.262Z</time></trkpt><trkpt lat="45.3684417" lon="8.8309533"><ele>111.39999999999999</ele><time>2026-03-22T10:45:41.262Z</time></trkpt><trkpt lat="45.3683667" lon="8.831"><ele>111.19999999999999</ele><time>2026-03-22T10:45:42.262Z</time></trkpt><trkpt lat="45.3682833" lon="8.83104"><ele>111.0</ele><time>2026-03-22T10:45:43.262Z</time></trkpt><trkpt lat="45.36819" lon="8.831095"><ele>111.0</ele><time>2026-03-22T10:45:44.262Z</time></trkpt><trkpt lat="45.3680883" lon="8.831165"><ele>111.0</ele><time>2026-03-22T10:45:45.262Z</time></trkpt><trkpt lat="45.36798" lon="8.8312217"><ele>111.0</ele><time>2026-03-22T10:45:46.262Z</time></trkpt><trkpt lat="45.367865" lon="8.8312817"><ele>111.0</ele><time>2026-03-22T10:45:47.262Z</time></trkpt><trkpt lat="45.36775" lon="8.83135"><ele>110.75</ele><time>2026-03-22T10:45:48.262Z</time></trkpt><trkpt lat="45.367625" lon="8.8314217"><ele>110.5</ele><time>2026-03-22T10:45:49.262Z</time></trkpt><trkpt lat="45.3674933" lon="8.8314983"><ele>110.25</ele><time>2026-03-22T10:45:50.262Z</time></trkpt><trkpt lat="45.36737" lon="8.83157"><ele>110.0</ele><time>2026-03-22T10:45:51.262Z</time></trkpt><trkpt lat="45.3672467" lon="8.8316433"><ele>110.25</ele><time>2026-03-22T10:45:52.262Z</time></trkpt><trkpt lat="45.3671217" lon="8.8317183"><ele>110.5</ele><time>2026-03-22T10:45:53.262Z</time></trkpt><trkpt lat="45.3670033" lon="8.83179"><ele>110.75</ele><time>2026-03-22T10:45:54.262Z</time></trkpt><trkpt lat="45.3668767" lon="8.8318633"><ele>111.0</ele><time>2026-03-22T10:45:55.262Z</time></trkpt><trkpt lat="45.3667483" lon="8.8319383"><ele>111.0</ele><time>2026-03-22T10:45:56.262Z</time></trkpt><trkpt lat="45.36662" lon="8.8320033"><ele>111.0</ele><time>2026-03-22T10:45:57.262Z</time></trkpt><trkpt lat="45.3664983" lon="8.8320783"><ele>111.0</ele><time>2026-03-22T10:45:58.262Z</time></trkpt><trkpt lat="45.3663733" lon="8.8321483"><ele>111.0</ele><time>2026-03-22T10:45:59.262Z</time></trkpt><trkpt lat="45.3662483" lon="8.8322183"><ele>111.25</ele><time>2026-03-22T10:46:00.262Z</time></trkpt><trkpt lat="45.36613" lon="8.83229"><ele>111.5</ele><time>2026-03-22T10:46:01.262Z</time></trkpt><trkpt lat="45.3660167" lon="8.8323617"><ele>111.75</ele><time>2026-03-22T10:46:02.262Z</time></trkpt><trkpt lat="45.3659083" lon="8.8324233"><ele>112.0</ele><time>2026-03-22T10:46:03.262Z</time></trkpt><trkpt lat="45.365815" lon="8.832465"><ele>112.00000000000001</ele><time>2026-03-22T10:46:04.262Z</time></trkpt><trkpt lat="45.3657317" lon="8.832515"><ele>112.0</ele><time>2026-03-22T10:46:05.262Z</time></trkpt><trkpt lat="45.3656517" lon="8.8325633"><ele>112.0</ele><time>2026-03-22T10:46:06.262Z</time></trkpt><trkpt lat="45.3655833" lon="8.8326"><ele>112.0</ele><time>2026-03-22T10:46:07.262Z</time></trkpt><trkpt lat="45.365485" lon="8.8326533"><ele>112.00000000000001</ele><time>2026-03-22T10:46:09.262Z</time></trkpt><trkpt lat="45.3654217" lon="8.83269"><ele>112.0</ele><time>2026-03-22T10:46:11.262Z</time></trkpt><trkpt lat="45.3653367" lon="8.832755"><ele>111.8</ele><time>2026-03-22T10:46:13.262Z</time></trkpt><trkpt lat="45.3652133" lon="8.8328483"><ele>111.6</ele><time>2026-03-22T10:46:15.262Z</time></trkpt><trkpt lat="45.3651217" lon="8.8329017"><ele>111.39999999999999</ele><time>2026-03-22T10:46:16.262Z</time></trkpt><trkpt lat="45.3650267" lon="8.8329517"><ele>111.19999999999999</ele><time>2026-03-22T10:46:17.262Z</time></trkpt><trkpt lat="45.3649283" lon="8.8329983"><ele>111.0</ele><time>2026-03-22T10:46:18.262Z</time></trkpt><trkpt lat="45.3648183" lon="8.83305"><ele>111.0</ele><time>2026-03-22T10:46:19.262Z</time></trkpt><trkpt lat="45.3647067" lon="8.833115"><ele>111.0</ele><time>2026-03-22T10:46:20.262Z</time></trkpt><trkpt lat="45.3646" lon="8.8331783"><ele>111.0</ele><time>2026-03-22T10:46:21.262Z</time></trkpt><trkpt lat="45.3644883" lon="8.8332433"><ele>111.0</ele><time>2026-03-22T10:46:22.262Z</time></trkpt><trkpt lat="45.3643733" lon="8.83331"><ele>110.75</ele><time>2026-03-22T10:46:23.262Z</time></trkpt><trkpt lat="45.3642617" lon="8.8333783"><ele>110.5</ele><time>2026-03-22T10:46:24.262Z</time></trkpt><trkpt lat="45.3641567" lon="8.8334517"><ele>110.25</ele><time>2026-03-22T10:46:25.262Z</time></trkpt><trkpt lat="45.3640517" lon="8.8335267"><ele>110.0</ele><time>2026-03-22T10:46:26.262Z</time></trkpt><trkpt lat="45.3639483" lon="8.8336067"><ele>110.0</ele><time>2026-03-22T10:46:27.262Z</time></trkpt><trkpt lat="45.36384" lon="8.8337"><ele>110.0</ele><time>2026-03-22T10:46:28.262Z</time></trkpt><trkpt lat="45.363735" lon="8.83379"><ele>110.0</ele><time>2026-03-22T10:46:29.262Z</time></trkpt><trkpt lat="45.3636167" lon="8.8338683"><ele>110.0</ele><time>2026-03-22T10:46:30.262Z</time></trkpt><trkpt lat="45.3634917" lon="8.833935"><ele>110.0</ele><time>2026-03-22T10:46:31.262Z</time></trkpt><trkpt lat="45.3633583" lon="8.8340067"><ele>110.0</ele><time>2026-03-22T10:46:32.262Z</time></trkpt><trkpt lat="45.3632267" lon="8.8340783"><ele>110.0</ele><time>2026-03-22T10:46:33.262Z</time></trkpt><trkpt lat="45.3631033" lon="8.8341533"><ele>110.0</ele><time>2026-03-22T10:46:34.262Z</time></trkpt><trkpt lat="45.36298" lon="8.8342267"><ele>110.0</ele><time>2026-03-22T10:46:35.262Z</time></trkpt><trkpt lat="45.36285" lon="8.8343017"><ele>110.0</ele><time>2026-03-22T10:46:36.262Z</time></trkpt><trkpt lat="45.3627233" lon="8.8343833"><ele>110.0</ele><time>2026-03-22T10:46:37.262Z</time></trkpt><trkpt lat="45.3625967" lon="8.8344717"><ele>110.0</ele><time>2026-03-22T10:46:38.262Z</time></trkpt><trkpt lat="45.362475" lon="8.834555"><ele>110.0</ele><time>2026-03-22T10:46:39.262Z</time></trkpt><trkpt lat="45.36236" lon="8.83463"><ele>110.0</ele><time>2026-03-22T10:46:40.262Z</time></trkpt><trkpt lat="45.3622383" lon="8.834705"><ele>110.0</ele><time>2026-03-22T10:46:41.262Z</time></trkpt><trkpt lat="45.3621233" lon="8.8347817"><ele>110.0</ele><time>2026-03-22T10:46:42.262Z</time></trkpt><trkpt lat="45.362005" lon="8.834875"><ele>110.0</ele><time>2026-03-22T10:46:43.262Z</time></trkpt><trkpt lat="45.3618917" lon="8.834955"><ele>110.0</ele><time>2026-03-22T10:46:44.262Z</time></trkpt><trkpt lat="45.3617767" lon="8.8350367"><ele>110.0</ele><time>2026-03-22T10:46:45.262Z</time></trkpt><trkpt lat="45.3616617" lon="8.8351317"><ele>110.0</ele><time>2026-03-22T10:46:46.262Z</time></trkpt><trkpt lat="45.3615433" lon="8.8352217"><ele>110.0</ele><time>2026-03-22T10:46:47.262Z</time></trkpt><trkpt lat="45.3614317" lon="8.835315"><ele>110.0</ele><time>2026-03-22T10:46:48.262Z</time></trkpt><trkpt lat="45.361315" lon="8.8354017"><ele>110.0</ele><time>2026-03-22T10:46:49.262Z</time></trkpt><trkpt lat="45.361195" lon="8.8354933"><ele>110.0</ele><time>2026-03-22T10:46:50.262Z</time></trkpt><trkpt lat="45.361075" lon="8.8355883"><ele>110.0</ele><time>2026-03-22T10:46:51.262Z</time></trkpt><trkpt lat="45.3609633" lon="8.8356667"><ele>110.0</ele><time>2026-03-22T10:46:52.262Z</time></trkpt><trkpt lat="45.3608617" lon="8.835745"><ele>110.0</ele><time>2026-03-22T10:46:53.262Z</time></trkpt><trkpt lat="45.360755" lon="8.8358167"><ele>110.0</ele><time>2026-03-22T10:46:54.262Z</time></trkpt><trkpt lat="45.3606667" lon="8.83588"><ele>109.99999999999999</ele><time>2026-03-22T10:46:55.262Z</time></trkpt><trkpt lat="45.360595" lon="8.8359283"><ele>110.0</ele><time>2026-03-22T10:46:56.262Z</time></trkpt><trkpt lat="45.360525" lon="8.83596"><ele>110.0</ele><time>2026-03-22T10:46:57.262Z</time></trkpt><trkpt lat="45.36045" lon="8.8359583"><ele>110.0</ele><time>2026-03-22T10:46:58.262Z</time></trkpt><trkpt lat="45.3603717" lon="8.8359217"><ele>109.99999999999999</ele><time>2026-03-22T10:46:59.262Z</time></trkpt><trkpt lat="45.3603" lon="8.8358733"><ele>110.0</ele><time>2026-03-22T10:47:00.262Z</time></trkpt><trkpt lat="45.360215" lon="8.8358533"><ele>110.0</ele><time>2026-03-22T10:47:01.262Z</time></trkpt><trkpt lat="45.3601267" lon="8.8358667"><ele>110.0</ele><time>2026-03-22T10:47:02.263Z</time></trkpt><trkpt lat="45.36002" lon="8.835915"><ele>110.0</ele><time>2026-03-22T10:47:03.262Z</time></trkpt><trkpt lat="45.3599017" lon="8.8359817"><ele>110.0</ele><time>2026-03-22T10:47:04.262Z</time></trkpt><trkpt lat="45.3597683" lon="8.8360483"><ele>109.75</ele><time>2026-03-22T10:47:05.262Z</time></trkpt><trkpt lat="45.3596433" lon="8.8361133"><ele>109.5</ele><time>2026-03-22T10:47:06.262Z</time></trkpt><trkpt lat="45.35952" lon="8.836185"><ele>109.25</ele><time>2026-03-22T10:47:07.262Z</time></trkpt><trkpt lat="45.3593933" lon="8.8362617"><ele>109.0</ele><time>2026-03-22T10:47:08.262Z</time></trkpt><trkpt lat="45.3592617" lon="8.8363383"><ele>109.0</ele><time>2026-03-22T10:47:09.262Z</time></trkpt><trkpt lat="45.3591267" lon="8.8364133"><ele>109.0</ele><time>2026-03-22T10:47:10.262Z</time></trkpt><trkpt lat="45.3589933" lon="8.8364917"><ele>109.0</ele><time>2026-03-22T10:47:11.262Z</time></trkpt><trkpt lat="45.3588567" lon="8.8365733"><ele>109.0</ele><time>2026-03-22T10:47:12.262Z</time></trkpt><trkpt lat="45.358715" lon="8.8366483"><ele>109.0</ele><time>2026-03-22T10:47:13.262Z</time></trkpt><trkpt lat="45.358585" lon="8.8367217"><ele>109.0</ele><time>2026-03-22T10:47:14.262Z</time></trkpt><trkpt lat="45.35846" lon="8.836785"><ele>109.0</ele><time>2026-03-22T10:47:15.262Z</time></trkpt><trkpt lat="45.3583467" lon="8.8368433"><ele>109.0</ele><time>2026-03-22T10:47:16.262Z</time></trkpt><trkpt lat="45.358245" lon="8.8368967"><ele>109.00000000000001</ele><time>2026-03-22T10:47:17.262Z</time></trkpt><trkpt lat="45.3581583" lon="8.8369533"><ele>109.0</ele><time>2026-03-22T10:47:18.262Z</time></trkpt><trkpt lat="45.3580867" lon="8.8369783"><ele>109.0</ele><time>2026-03-22T10:47:19.262Z</time></trkpt><trkpt lat="45.3580267" lon="8.837015"><ele>109.0</ele><time>2026-03-22T10:47:20.262Z</time></trkpt><trkpt lat="45.35793" lon="8.83707"><ele>109.00000000000001</ele><time>2026-03-22T10:47:22.261Z</time></trkpt><trkpt lat="45.3578667" lon="8.83711"><ele>109.0</ele><time>2026-03-22T10:47:24.261Z</time></trkpt><trkpt lat="45.3577967" lon="8.8371333"><ele>109.2</ele><time>2026-03-22T10:47:35.261Z</time></trkpt><trkpt lat="45.3576883" lon="8.837195"><ele>109.4</ele><time>2026-03-22T10:47:37.261Z</time></trkpt><trkpt lat="45.357615" lon="8.8372333"><ele>109.6</ele><time>2026-03-22T10:47:38.261Z</time></trkpt><trkpt lat="45.35754" lon="8.8372817"><ele>109.8</ele><time>2026-03-22T10:47:39.261Z</time></trkpt><trkpt lat="45.357455" lon="8.837325"><ele>110.0</ele><time>2026-03-22T10:47:40.261Z</time></trkpt><trkpt lat="45.35736" lon="8.83737"><ele>110.0</ele><time>2026-03-22T10:47:41.261Z</time></trkpt><trkpt lat="45.3572583" lon="8.83742"><ele>110.0</ele><time>2026-03-22T10:47:42.261Z</time></trkpt><trkpt lat="45.3571467" lon="8.8374733"><ele>110.0</ele><time>2026-03-22T10:47:43.261Z</time></trkpt><trkpt lat="45.3570283" lon="8.8375367"><ele>110.0</ele><time>2026-03-22T10:47:44.261Z</time></trkpt><trkpt lat="45.3569117" lon="8.837595"><ele>109.8</ele><time>2026-03-22T10:47:45.261Z</time></trkpt><trkpt lat="45.3568133" lon="8.8376533"><ele>109.6</ele><time>2026-03-22T10:47:46.261Z</time></trkpt><trkpt lat="45.35672" lon="8.8377067"><ele>109.4</ele><time>2026-03-22T10:47:47.261Z</time></trkpt><trkpt lat="45.3566417" lon="8.837755"><ele>109.2</ele><time>2026-03-22T10:47:48.261Z</time></trkpt><trkpt lat="45.35658" lon="8.837825"><ele>109.0</ele><time>2026-03-22T10:47:49.261Z</time></trkpt><trkpt lat="45.3565167" lon="8.8379817"><ele>109.0</ele><time>2026-03-22T10:47:51.261Z</time></trkpt><trkpt lat="45.35651" lon="8.8381017"><ele>109.0</ele><time>2026-03-22T10:47:52.261Z</time></trkpt><trkpt lat="45.3565267" lon="8.8382383"><ele>109.0</ele><time>2026-03-22T10:47:53.261Z</time></trkpt><trkpt lat="45.35657" lon="8.838395"><ele>109.0</ele><time>2026-03-22T10:47:54.261Z</time></trkpt><trkpt lat="45.3566233" lon="8.838575"><ele>109.0</ele><time>2026-03-22T10:47:55.261Z</time></trkpt><trkpt lat="45.356665" lon="8.8387417"><ele>108.6</ele><time>2026-03-22T10:47:56.261Z</time></trkpt><trkpt lat="45.3566883" lon="8.838895"><ele>108.2</ele><time>2026-03-22T10:47:57.261Z</time></trkpt><trkpt lat="45.3566967" lon="8.8390283"><ele>107.79999999999998</ele><time>2026-03-22T10:47:58.261Z</time></trkpt><trkpt lat="45.35667" lon="8.8391583"><ele>107.39999999999999</ele><time>2026-03-22T10:47:59.261Z</time></trkpt><trkpt lat="45.35663" lon="8.83927"><ele>107.0</ele><time>2026-03-22T10:48:00.261Z</time></trkpt><trkpt lat="45.3565567" lon="8.83936"><ele>106.75</ele><time>2026-03-22T10:48:01.261Z</time></trkpt><trkpt lat="45.356455" lon="8.839435"><ele>106.5</ele><time>2026-03-22T10:48:02.261Z</time></trkpt><trkpt lat="45.356345" lon="8.8395083"><ele>106.25</ele><time>2026-03-22T10:48:03.261Z</time></trkpt><trkpt lat="45.3562167" lon="8.8395867"><ele>106.0</ele><time>2026-03-22T10:48:04.261Z</time></trkpt><trkpt lat="45.356095" lon="8.8396617"><ele>106.0</ele><time>2026-03-22T10:48:05.261Z</time></trkpt><trkpt lat="45.3559633" lon="8.8397367"><ele>106.0</ele><time>2026-03-22T10:48:06.261Z</time></trkpt><trkpt lat="45.3558483" lon="8.8398017"><ele>106.0</ele><time>2026-03-22T10:48:07.261Z</time></trkpt><trkpt lat="45.3557283" lon="8.8398733"><ele>106.0</ele><time>2026-03-22T10:48:08.261Z</time></trkpt><trkpt lat="45.3556067" lon="8.8399433"><ele>106.5</ele><time>2026-03-22T10:48:09.261Z</time></trkpt><trkpt lat="45.3554917" lon="8.8400067"><ele>107.0</ele><time>2026-03-22T10:48:10.261Z</time></trkpt><trkpt lat="45.3553883" lon="8.840095"><ele>107.5</ele><time>2026-03-22T10:48:11.261Z</time></trkpt><trkpt lat="45.3552883" lon="8.8401933"><ele>108.0</ele><time>2026-03-22T10:48:12.261Z</time></trkpt><trkpt lat="45.3551867" lon="8.8402917"><ele>108.0</ele><time>2026-03-22T10:48:13.261Z</time></trkpt><trkpt lat="45.3550883" lon="8.8403883"><ele>108.0</ele><time>2026-03-22T10:48:14.261Z</time></trkpt><trkpt lat="45.3549733" lon="8.8404767"><ele>108.0</ele><time>2026-03-22T10:48:15.261Z</time></trkpt><trkpt lat="45.3548667" lon="8.8405517"><ele>108.0</ele><time>2026-03-22T10:48:16.261Z</time></trkpt><trkpt lat="45.3547633" lon="8.840625"><ele>108.25</ele><time>2026-03-22T10:48:17.261Z</time></trkpt><trkpt lat="45.3546433" lon="8.8407017"><ele>108.5</ele><time>2026-03-22T10:48:18.261Z</time></trkpt><trkpt lat="45.3545233" lon="8.8407733"><ele>108.75</ele><time>2026-03-22T10:48:19.261Z</time></trkpt><trkpt lat="45.3544" lon="8.8408483"><ele>109.0</ele><time>2026-03-22T10:48:20.261Z</time></trkpt><trkpt lat="45.3542717" lon="8.8409233"><ele>109.0</ele><time>2026-03-22T10:48:21.261Z</time></trkpt><trkpt lat="45.3541517" lon="8.8409983"><ele>109.0</ele><time>2026-03-22T10:48:22.261Z</time></trkpt><trkpt lat="45.3540367" lon="8.841065"><ele>109.0</ele><time>2026-03-22T10:48:23.261Z</time></trkpt><trkpt lat="45.3539167" lon="8.8411517"><ele>109.0</ele><time>2026-03-22T10:48:24.261Z</time></trkpt><trkpt lat="45.3538" lon="8.8412467"><ele>108.75</ele><time>2026-03-22T10:48:25.261Z</time></trkpt><trkpt lat="45.35368" lon="8.8413433"><ele>108.5</ele><time>2026-03-22T10:48:26.261Z</time></trkpt><trkpt lat="45.35356" lon="8.8414367"><ele>108.25</ele><time>2026-03-22T10:48:27.261Z</time></trkpt><trkpt lat="45.353445" lon="8.8415333"><ele>108.0</ele><time>2026-03-22T10:48:28.261Z</time></trkpt><trkpt lat="45.3533317" lon="8.8416267"><ele>108.0</ele><time>2026-03-22T10:48:29.261Z</time></trkpt><trkpt lat="45.3532217" lon="8.8417133"><ele>108.0</ele><time>2026-03-22T10:48:30.261Z</time></trkpt><trkpt lat="45.3531133" lon="8.8418083"><ele>108.0</ele><time>2026-03-22T10:48:31.261Z</time></trkpt><trkpt lat="45.353005" lon="8.8419033"><ele>108.0</ele><time>2026-03-22T10:48:32.261Z</time></trkpt><trkpt lat="45.3528967" lon="8.841985"><ele>108.25</ele><time>2026-03-22T10:48:33.261Z</time></trkpt><trkpt lat="45.35278" lon="8.8420767"><ele>108.5</ele><time>2026-03-22T10:48:34.261Z</time></trkpt><trkpt lat="45.3526717" lon="8.8421717"><ele>108.75</ele><time>2026-03-22T10:48:35.261Z</time></trkpt><trkpt lat="45.352565" lon="8.84227"><ele>109.0</ele><time>2026-03-22T10:48:36.261Z</time></trkpt><trkpt lat="45.3524467" lon="8.8423767"><ele>109.0</ele><time>2026-03-22T10:48:37.261Z</time></trkpt><trkpt lat="45.3523117" lon="8.84248"><ele>109.0</ele><time>2026-03-22T10:48:38.261Z</time></trkpt><trkpt lat="45.3521767" lon="8.842595"><ele>109.0</ele><time>2026-03-22T10:48:39.261Z</time></trkpt><trkpt lat="45.3520267" lon="8.84271"><ele>108.66666666666667</ele><time>2026-03-22T10:48:40.261Z</time></trkpt><trkpt lat="45.351875" lon="8.8428283"><ele>108.33333333333334</ele><time>2026-03-22T10:48:41.261Z</time></trkpt><trkpt lat="45.3517267" lon="8.842955"><ele>108.0</ele><time>2026-03-22T10:48:42.261Z</time></trkpt><trkpt lat="45.3515717" lon="8.8430867"><ele>108.0</ele><time>2026-03-22T10:48:43.261Z</time></trkpt><trkpt lat="45.3513983" lon="8.8432333"><ele>108.0</ele><time>2026-03-22T10:48:44.261Z</time></trkpt><trkpt lat="45.3512133" lon="8.8433867"><ele>108.0</ele><time>2026-03-22T10:48:45.261Z</time></trkpt><trkpt lat="45.35101" lon="8.8435467"><ele>108.0</ele><time>2026-03-22T10:48:46.261Z</time></trkpt><trkpt lat="45.350815" lon="8.8437117"><ele>108.0</ele><time>2026-03-22T10:48:47.261Z</time></trkpt><trkpt lat="45.35064" lon="8.8438567"><ele>108.0</ele><time>2026-03-22T10:48:48.261Z</time></trkpt><trkpt lat="45.3504717" lon="8.8439967"><ele>108.33333333333334</ele><time>2026-03-22T10:48:49.261Z</time></trkpt><trkpt lat="45.3503117" lon="8.8441283"><ele>108.66666666666667</ele><time>2026-03-22T10:48:50.261Z</time></trkpt><trkpt lat="45.3501667" lon="8.8442433"><ele>109.0</ele><time>2026-03-22T10:48:51.261Z</time></trkpt><trkpt lat="45.3500267" lon="8.84436"><ele>109.0</ele><time>2026-03-22T10:48:52.261Z</time></trkpt><trkpt lat="45.34989" lon="8.8444767"><ele>109.0</ele><time>2026-03-22T10:48:53.261Z</time></trkpt><trkpt lat="45.34977" lon="8.84459"><ele>109.0</ele><time>2026-03-22T10:48:54.261Z</time></trkpt><trkpt lat="45.3496433" lon="8.8446883"><ele>109.0</ele><time>2026-03-22T10:48:55.261Z</time></trkpt><trkpt lat="45.3495233" lon="8.84479"><ele>109.0</ele><time>2026-03-22T10:48:56.261Z</time></trkpt><trkpt lat="45.349395" lon="8.8448917"><ele>109.0</ele><time>2026-03-22T10:48:57.261Z</time></trkpt><trkpt lat="45.3492767" lon="8.8449733"><ele>109.0</ele><time>2026-03-22T10:48:58.261Z</time></trkpt><trkpt lat="45.34915" lon="8.8450533"><ele>109.0</ele><time>2026-03-22T10:48:59.261Z</time></trkpt><trkpt lat="45.3490267" lon="8.8451267"><ele>109.0</ele><time>2026-03-22T10:49:00.261Z</time></trkpt><trkpt lat="45.348905" lon="8.845215"><ele>109.0</ele><time>2026-03-22T10:49:01.261Z</time></trkpt><trkpt lat="45.348785" lon="8.8452883"><ele>109.0</ele><time>2026-03-22T10:49:02.261Z</time></trkpt><trkpt lat="45.3486733" lon="8.8453583"><ele>109.0</ele><time>2026-03-22T10:49:03.261Z</time></trkpt><trkpt lat="45.3485733" lon="8.8454133"><ele>108.83333333333334</ele><time>2026-03-22T10:49:04.261Z</time></trkpt><trkpt lat="45.3484783" lon="8.845475"><ele>108.66666666666667</ele><time>2026-03-22T10:49:05.262Z</time></trkpt><trkpt lat="45.34839" lon="8.8455317"><ele>108.5</ele><time>2026-03-22T10:49:06.261Z</time></trkpt><trkpt lat="45.348315" lon="8.8455817"><ele>108.33333333333334</ele><time>2026-03-22T10:49:07.261Z</time></trkpt><trkpt lat="45.3482467" lon="8.8456267"><ele>108.16666666666667</ele><time>2026-03-22T10:49:08.261Z</time></trkpt><trkpt lat="45.3481767" lon="8.8456667"><ele>108.0</ele><time>2026-03-22T10:49:09.261Z</time></trkpt><trkpt lat="45.3481033" lon="8.845705"><ele>108.16666666666667</ele><time>2026-03-22T10:49:10.261Z</time></trkpt><trkpt lat="45.3480317" lon="8.84574"><ele>108.33333333333334</ele><time>2026-03-22T10:49:11.261Z</time></trkpt><trkpt lat="45.3479567" lon="8.8457933"><ele>108.5</ele><time>2026-03-22T10:49:12.261Z</time></trkpt><trkpt lat="45.34788" lon="8.8458433"><ele>108.66666666666667</ele><time>2026-03-22T10:49:13.261Z</time></trkpt><trkpt lat="45.3477933" lon="8.8459067"><ele>108.83333333333334</ele><time>2026-03-22T10:49:14.261Z</time></trkpt><trkpt lat="45.347705" lon="8.8459733"><ele>109.0</ele><time>2026-03-22T10:49:15.261Z</time></trkpt><trkpt lat="45.34762" lon="8.8460317"><ele>109.0</ele><time>2026-03-22T10:49:16.261Z</time></trkpt><trkpt lat="45.3475217" lon="8.8460933"><ele>109.0</ele><time>2026-03-22T10:49:17.261Z</time></trkpt><trkpt lat="45.34743" lon="8.8461533"><ele>109.0</ele><time>2026-03-22T10:49:18.261Z</time></trkpt><trkpt lat="45.34733" lon="8.8462167"><ele>109.0</ele><time>2026-03-22T10:49:19.261Z</time></trkpt><trkpt lat="45.3472217" lon="8.84628"><ele>109.0</ele><time>2026-03-22T10:49:20.261Z</time></trkpt><trkpt lat="45.3471183" lon="8.8463417"><ele>108.5</ele><time>2026-03-22T10:49:21.261Z</time></trkpt><trkpt lat="45.3470117" lon="8.84641"><ele>108.0</ele><time>2026-03-22T10:49:22.261Z</time></trkpt><trkpt lat="45.3469" lon="8.8464683"><ele>107.5</ele><time>2026-03-22T10:49:23.261Z</time></trkpt><trkpt lat="45.3467883" lon="8.8465433"><ele>107.0</ele><time>2026-03-22T10:49:24.261Z</time></trkpt><trkpt lat="45.346665" lon="8.846615"><ele>107.0</ele><time>2026-03-22T10:49:25.261Z</time></trkpt><trkpt lat="45.3465417" lon="8.84669"><ele>107.0</ele><time>2026-03-22T10:49:26.261Z</time></trkpt><trkpt lat="45.3464233" lon="8.84676"><ele>107.0</ele><time>2026-03-22T10:49:27.261Z</time></trkpt><trkpt lat="45.3463" lon="8.8468333"><ele>107.0</ele><time>2026-03-22T10:49:28.261Z</time></trkpt><trkpt lat="45.3461667" lon="8.8469133"><ele>107.25</ele><time>2026-03-22T10:49:29.261Z</time></trkpt><trkpt lat="45.3460417" lon="8.8469933"><ele>107.5</ele><time>2026-03-22T10:49:30.261Z</time></trkpt><trkpt lat="45.345915" lon="8.8470717"><ele>107.75</ele><time>2026-03-22T10:49:31.261Z</time></trkpt><trkpt lat="45.34578" lon="8.8471567"><ele>108.0</ele><time>2026-03-22T10:49:32.261Z</time></trkpt><trkpt lat="45.345655" lon="8.84723"><ele>108.0</ele><time>2026-03-22T10:49:33.261Z</time></trkpt><trkpt lat="45.3455283" lon="8.8473033"><ele>108.0</ele><time>2026-03-22T10:49:34.261Z</time></trkpt><trkpt lat="45.345405" lon="8.8473867"><ele>108.0</ele><time>2026-03-22T10:49:35.261Z</time></trkpt><trkpt lat="45.34528" lon="8.8474617"><ele>108.0</ele><time>2026-03-22T10:49:36.261Z</time></trkpt><trkpt lat="45.3451483" lon="8.8475317"><ele>108.0</ele><time>2026-03-22T10:49:37.261Z</time></trkpt><trkpt lat="45.3450133" lon="8.8476083"><ele>108.0</ele><time>2026-03-22T10:49:38.261Z</time></trkpt><trkpt lat="45.3448867" lon="8.8476833"><ele>108.0</ele><time>2026-03-22T10:49:39.261Z</time></trkpt><trkpt lat="45.34476" lon="8.8477667"><ele>108.0</ele><time>2026-03-22T10:49:40.261Z</time></trkpt><trkpt lat="45.3446233" lon="8.847835"><ele>107.75</ele><time>2026-03-22T10:49:41.261Z</time></trkpt><trkpt lat="45.3444967" lon="8.847905"><ele>107.5</ele><time>2026-03-22T10:49:42.261Z</time></trkpt><trkpt lat="45.3443683" lon="8.84798"><ele>107.25</ele><time>2026-03-22T10:49:43.261Z</time></trkpt><trkpt lat="45.3442417" lon="8.8480567"><ele>107.0</ele><time>2026-03-22T10:49:44.261Z</time></trkpt><trkpt lat="45.3441167" lon="8.8481267"><ele>107.0</ele><time>2026-03-22T10:49:45.261Z</time></trkpt><trkpt lat="45.3439917" lon="8.8481967"><ele>107.0</ele><time>2026-03-22T10:49:46.261Z</time></trkpt><trkpt lat="45.343875" lon="8.8482617"><ele>107.0</ele><time>2026-03-22T10:49:47.261Z</time></trkpt><trkpt lat="45.3437733" lon="8.8483117"><ele>107.0</ele><time>2026-03-22T10:49:48.261Z</time></trkpt><trkpt lat="45.3436783" lon="8.848375"><ele>106.99999999999999</ele><time>2026-03-22T10:49:49.261Z</time></trkpt><trkpt lat="45.3435867" lon="8.8484217"><ele>107.0</ele><time>2026-03-22T10:49:50.261Z</time></trkpt><trkpt lat="45.343505" lon="8.8484567"><ele>107.0</ele><time>2026-03-22T10:49:51.261Z</time></trkpt><trkpt lat="45.3434317" lon="8.8484917"><ele>107.0</ele><time>2026-03-22T10:49:52.261Z</time></trkpt><trkpt lat="45.3433617" lon="8.848525"><ele>106.99999999999999</ele><time>2026-03-22T10:49:53.261Z</time></trkpt><trkpt lat="45.343265" lon="8.8485717"><ele>107.0</ele><time>2026-03-22T10:49:55.261Z</time></trkpt><trkpt lat="45.3431983" lon="8.8486083"><ele>107.0</ele><time>2026-03-22T10:49:57.261Z</time></trkpt><trkpt lat="45.3431183" lon="8.848645"><ele>106.99999999999999</ele><time>2026-03-22T10:50:00.261Z</time></trkpt><trkpt lat="45.3430417" lon="8.8486667"><ele>106.99999999999999</ele><time>2026-03-22T10:50:03.261Z</time></trkpt><trkpt lat="45.3429633" lon="8.8487117"><ele>107.0</ele><time>2026-03-22T10:50:06.261Z</time></trkpt><trkpt lat="45.3428867" lon="8.8487567"><ele>107.0</ele><time>2026-03-22T10:50:08.261Z</time></trkpt><trkpt lat="45.3427717" lon="8.848825"><ele>107.16666666666666</ele><time>2026-03-22T10:50:10.261Z</time></trkpt><trkpt lat="45.3426983" lon="8.8488683"><ele>107.33333333333333</ele><time>2026-03-22T10:50:11.261Z</time></trkpt><trkpt lat="45.3426217" lon="8.8489167"><ele>107.5</ele><time>2026-03-22T10:50:12.261Z</time></trkpt><trkpt lat="45.34253" lon="8.8489583"><ele>107.66666666666666</ele><time>2026-03-22T10:50:13.261Z</time></trkpt><trkpt lat="45.3424467" lon="8.8490033"><ele>107.83333333333333</ele><time>2026-03-22T10:50:14.261Z</time></trkpt><trkpt lat="45.34236" lon="8.8490483"><ele>108.0</ele><time>2026-03-22T10:50:15.261Z</time></trkpt><trkpt lat="45.3422783" lon="8.849095"><ele>108.0</ele><time>2026-03-22T10:50:16.261Z</time></trkpt><trkpt lat="45.3421917" lon="8.8491383"><ele>108.0</ele><time>2026-03-22T10:50:17.261Z</time></trkpt><trkpt lat="45.3421067" lon="8.8491883"><ele>108.0</ele><time>2026-03-22T10:50:18.262Z</time></trkpt><trkpt lat="45.3420233" lon="8.8492283"><ele>108.0</ele><time>2026-03-22T10:50:19.261Z</time></trkpt><trkpt lat="45.3419517" lon="8.8492767"><ele>108.0</ele><time>2026-03-22T10:50:20.261Z</time></trkpt><trkpt lat="45.3418733" lon="8.849325"><ele>108.0</ele><time>2026-03-22T10:50:21.261Z</time></trkpt><trkpt lat="45.3417883" lon="8.8493683"><ele>107.83333333333333</ele><time>2026-03-22T10:50:22.261Z</time></trkpt><trkpt lat="45.3417033" lon="8.8494117"><ele>107.66666666666666</ele><time>2026-03-22T10:50:23.261Z</time></trkpt><trkpt lat="45.341625" lon="8.8494517"><ele>107.5</ele><time>2026-03-22T10:50:24.261Z</time></trkpt><trkpt lat="45.34155" lon="8.849485"><ele>107.33333333333333</ele><time>2026-03-22T10:50:25.261Z</time></trkpt><trkpt lat="45.3414767" lon="8.849515"><ele>107.16666666666666</ele><time>2026-03-22T10:50:26.261Z</time></trkpt><trkpt lat="45.3414167" lon="8.8495483"><ele>107.0</ele><time>2026-03-22T10:50:27.261Z</time></trkpt><trkpt lat="45.341295" lon="8.8496033"><ele>106.99999999999999</ele><time>2026-03-22T10:50:29.261Z</time></trkpt><trkpt lat="45.3412283" lon="8.8496383"><ele>107.0</ele><time>2026-03-22T10:50:30.261Z</time></trkpt><trkpt lat="45.3411483" lon="8.8496767"><ele>107.0</ele><time>2026-03-22T10:50:31.261Z</time></trkpt><trkpt lat="45.341055" lon="8.8497133"><ele>107.0</ele><time>2026-03-22T10:50:32.261Z</time></trkpt><trkpt lat="45.3409633" lon="8.8497583"><ele>106.99999999999999</ele><time>2026-03-22T10:50:33.261Z</time></trkpt><trkpt lat="45.340875" lon="8.8498117"><ele>107.0</ele><time>2026-03-22T10:50:34.261Z</time></trkpt><trkpt lat="45.340785" lon="8.8498517"><ele>107.0</ele><time>2026-03-22T10:50:35.262Z</time></trkpt><trkpt lat="45.340695" lon="8.8498967"><ele>106.99999999999999</ele><time>2026-03-22T10:50:36.261Z</time></trkpt><trkpt lat="45.3406133" lon="8.8499317"><ele>106.99999999999999</ele><time>2026-03-22T10:50:37.261Z</time></trkpt><trkpt lat="45.3405317" lon="8.8499667"><ele>107.0</ele><time>2026-03-22T10:50:38.261Z</time></trkpt><trkpt lat="45.3404433" lon="8.8500067"><ele>107.0</ele><time>2026-03-22T10:50:39.262Z</time></trkpt><trkpt lat="45.340355" lon="8.850055"><ele>107.0</ele><time>2026-03-22T10:50:40.261Z</time></trkpt><trkpt lat="45.340265" lon="8.8500967"><ele>106.99999999999999</ele><time>2026-03-22T10:50:41.261Z</time></trkpt><trkpt lat="45.3401733" lon="8.8501433"><ele>106.99999999999999</ele><time>2026-03-22T10:50:42.261Z</time></trkpt><trkpt lat="45.3400833" lon="8.85019"><ele>107.0</ele><time>2026-03-22T10:50:43.261Z</time></trkpt><trkpt lat="45.3399883" lon="8.85023"><ele>107.0</ele><time>2026-03-22T10:50:44.261Z</time></trkpt><trkpt lat="45.3398983" lon="8.8502733"><ele>107.0</ele><time>2026-03-22T10:50:45.261Z</time></trkpt><trkpt lat="45.3398" lon="8.8503083"><ele>106.99999999999999</ele><time>2026-03-22T10:50:46.261Z</time></trkpt><trkpt lat="45.3397067" lon="8.8503517"><ele>106.99999999999999</ele><time>2026-03-22T10:50:47.261Z</time></trkpt><trkpt lat="45.3396217" lon="8.8504"><ele>107.0</ele><time>2026-03-22T10:50:48.261Z</time></trkpt><trkpt lat="45.33952" lon="8.850445"><ele>107.0</ele><time>2026-03-22T10:50:49.261Z</time></trkpt><trkpt lat="45.3394217" lon="8.8504967"><ele>106.8</ele><time>2026-03-22T10:50:50.261Z</time></trkpt><trkpt lat="45.3393217" lon="8.85054"><ele>106.6</ele><time>2026-03-22T10:50:51.261Z</time></trkpt><trkpt lat="45.33922" lon="8.8505867"><ele>106.39999999999999</ele><time>2026-03-22T10:50:52.261Z</time></trkpt><trkpt lat="45.339125" lon="8.8506367"><ele>106.19999999999999</ele><time>2026-03-22T10:50:53.261Z</time></trkpt><trkpt lat="45.3390267" lon="8.850685"><ele>106.0</ele><time>2026-03-22T10:50:54.261Z</time></trkpt><trkpt lat="45.33892" lon="8.8507317"><ele>106.4</ele><time>2026-03-22T10:50:55.261Z</time></trkpt><trkpt lat="45.3388183" lon="8.8507683"><ele>106.8</ele><time>2026-03-22T10:50:56.261Z</time></trkpt><trkpt lat="45.338715" lon="8.8507883"><ele>107.20000000000002</ele><time>2026-03-22T10:50:57.261Z</time></trkpt><trkpt lat="45.3386117" lon="8.85081"><ele>107.60000000000001</ele><time>2026-03-22T10:50:58.261Z</time></trkpt><trkpt lat="45.3385133" lon="8.8508217"><ele>108.0</ele><time>2026-03-22T10:50:59.261Z</time></trkpt><trkpt lat="45.3384183" lon="8.8508417"><ele>108.0</ele><time>2026-03-22T10:51:00.261Z</time></trkpt><trkpt lat="45.338325" lon="8.85086"><ele>108.00000000000001</ele><time>2026-03-22T10:51:01.261Z</time></trkpt><trkpt lat="45.3382183" lon="8.8508717"><ele>108.00000000000001</ele><time>2026-03-22T10:51:02.261Z</time></trkpt><trkpt lat="45.3381033" lon="8.85088"><ele>108.0</ele><time>2026-03-22T10:51:03.261Z</time></trkpt><trkpt lat="45.33799" lon="8.8508933"><ele>108.0</ele><time>2026-03-22T10:51:04.261Z</time></trkpt><trkpt lat="45.3378767" lon="8.8508933"><ele>108.0</ele><time>2026-03-22T10:51:05.261Z</time></trkpt><trkpt lat="45.3377617" lon="8.8508967"><ele>108.0</ele><time>2026-03-22T10:51:06.261Z</time></trkpt><trkpt lat="45.3376417" lon="8.8508917"><ele>108.0</ele><time>2026-03-22T10:51:07.261Z</time></trkpt><trkpt lat="45.337525" lon="8.8508967"><ele>108.0</ele><time>2026-03-22T10:51:08.261Z</time></trkpt><trkpt lat="45.3374117" lon="8.850905"><ele>108.0</ele><time>2026-03-22T10:51:09.261Z</time></trkpt><trkpt lat="45.3372867" lon="8.8509017"><ele>108.0</ele><time>2026-03-22T10:51:10.261Z</time></trkpt><trkpt lat="45.3371667" lon="8.8509067"><ele>108.0</ele><time>2026-03-22T10:51:11.261Z</time></trkpt><trkpt lat="45.3370333" lon="8.8509233"><ele>108.0</ele><time>2026-03-22T10:51:12.261Z</time></trkpt><trkpt lat="45.3369033" lon="8.8509267"><ele>107.75</ele><time>2026-03-22T10:51:13.261Z</time></trkpt><trkpt lat="45.3367717" lon="8.8509267"><ele>107.5</ele><time>2026-03-22T10:51:14.261Z</time></trkpt><trkpt lat="45.3366433" lon="8.8509333"><ele>107.25</ele><time>2026-03-22T10:51:15.261Z</time></trkpt><trkpt lat="45.3365317" lon="8.8509417"><ele>107.0</ele><time>2026-03-22T10:51:16.261Z</time></trkpt><trkpt lat="45.3364417" lon="8.85095"><ele>106.99999999999999</ele><time>2026-03-22T10:51:17.261Z</time></trkpt><trkpt lat="45.3363683" lon="8.8509583"><ele>107.0</ele><time>2026-03-22T10:51:18.261Z</time></trkpt><trkpt lat="45.33626" lon="8.8509883"><ele>107.0</ele><time>2026-03-22T10:51:20.261Z</time></trkpt><trkpt lat="45.336195" lon="8.851005"><ele>107.0</ele><time>2026-03-22T10:51:21.261Z</time></trkpt><trkpt lat="45.3361233" lon="8.8510167"><ele>106.99999999999999</ele><time>2026-03-22T10:51:22.261Z</time></trkpt><trkpt lat="45.3360467" lon="8.8510367"><ele>107.0</ele><time>2026-03-22T10:51:23.261Z</time></trkpt><trkpt lat="45.3359683" lon="8.85107"><ele>107.0</ele><time>2026-03-22T10:51:24.261Z</time></trkpt><trkpt lat="45.33588" lon="8.851105"><ele>106.99999999999999</ele><time>2026-03-22T10:51:25.261Z</time></trkpt><trkpt lat="45.3357867" lon="8.8511417"><ele>106.99999999999999</ele><time>2026-03-22T10:51:26.261Z</time></trkpt><trkpt lat="45.3356917" lon="8.8511717"><ele>107.0</ele><time>2026-03-22T10:51:27.261Z</time></trkpt><trkpt lat="45.335605" lon="8.8512083"><ele>107.0</ele><time>2026-03-22T10:51:28.261Z</time></trkpt><trkpt lat="45.3355133" lon="8.8512367"><ele>107.0</ele><time>2026-03-22T10:51:29.261Z</time></trkpt><trkpt lat="45.33542" lon="8.8512817"><ele>106.99999999999999</ele><time>2026-03-22T10:51:30.261Z</time></trkpt><trkpt lat="45.33533" lon="8.85133"><ele>106.99999999999999</ele><time>2026-03-22T10:51:31.261Z</time></trkpt><trkpt lat="45.3352433" lon="8.8513883"><ele>107.0</ele><time>2026-03-22T10:51:32.261Z</time></trkpt><trkpt lat="45.3351567" lon="8.8514683"><ele>107.0</ele><time>2026-03-22T10:51:33.261Z</time></trkpt><trkpt lat="45.3350817" lon="8.8515517"><ele>107.0</ele><time>2026-03-22T10:51:34.261Z</time></trkpt><trkpt lat="45.3350133" lon="8.851625"><ele>106.99999999999999</ele><time>2026-03-22T10:51:35.261Z</time></trkpt><trkpt lat="45.334955" lon="8.851705"><ele>106.99999999999999</ele><time>2026-03-22T10:51:36.261Z</time></trkpt><trkpt lat="45.334895" lon="8.8517883"><ele>107.0</ele><time>2026-03-22T10:51:37.261Z</time></trkpt><trkpt lat="45.33483" lon="8.8518867"><ele>107.0</ele><time>2026-03-22T10:51:38.261Z</time></trkpt><trkpt lat="45.334755" lon="8.85199"><ele>107.19999999999999</ele><time>2026-03-22T10:51:39.261Z</time></trkpt><trkpt lat="45.3346733" lon="8.8521"><ele>107.39999999999999</ele><time>2026-03-22T10:51:40.262Z</time></trkpt><trkpt lat="45.3345933" lon="8.8522133"><ele>107.60000000000001</ele><time>2026-03-22T10:51:41.262Z</time></trkpt><trkpt lat="45.3345117" lon="8.8523267"><ele>107.80000000000001</ele><time>2026-03-22T10:51:42.261Z</time></trkpt><trkpt lat="45.3344333" lon="8.8524267"><ele>108.0</ele><time>2026-03-22T10:51:43.261Z</time></trkpt><trkpt lat="45.334355" lon="8.852535"><ele>108.0</ele><time>2026-03-22T10:51:44.261Z</time></trkpt><trkpt lat="45.33428" lon="8.8526417"><ele>108.00000000000001</ele><time>2026-03-22T10:51:45.261Z</time></trkpt><trkpt lat="45.3341967" lon="8.8527533"><ele>108.00000000000001</ele><time>2026-03-22T10:51:46.26Z</time></trkpt><trkpt lat="45.3341183" lon="8.852855"><ele>108.0</ele><time>2026-03-22T10:51:47.261Z</time></trkpt><trkpt lat="45.334055" lon="8.8529483"><ele>108.0</ele><time>2026-03-22T10:51:48.261Z</time></trkpt><trkpt lat="45.333995" lon="8.8530317"><ele>108.0</ele><time>2026-03-22T10:51:49.261Z</time></trkpt><trkpt lat="45.3339333" lon="8.8530967"><ele>108.0</ele><time>2026-03-22T10:51:50.261Z</time></trkpt><trkpt lat="45.3338683" lon="8.8531733"><ele>108.0</ele><time>2026-03-22T10:51:52.261Z</time></trkpt><trkpt lat="45.3337983" lon="8.8532467"><ele>108.0</ele><time>2026-03-22T10:51:54.261Z</time></trkpt><trkpt lat="45.3337117" lon="8.8533133"><ele>108.0</ele><time>2026-03-22T10:51:56.261Z</time></trkpt><trkpt lat="45.3336117" lon="8.853315"><ele>108.0</ele><time>2026-03-22T10:51:58.261Z</time></trkpt><trkpt lat="45.33355" lon="8.8532833"><ele>108.0</ele><time>2026-03-22T10:51:59.261Z</time></trkpt><trkpt lat="45.3334833" lon="8.8532233"><ele>108.00000000000001</ele><time>2026-03-22T10:52:00.261Z</time></trkpt><trkpt lat="45.3334233" lon="8.8531333"><ele>108.00000000000001</ele><time>2026-03-22T10:52:01.261Z</time></trkpt><trkpt lat="45.33336" lon="8.8530217"><ele>108.0</ele><time>2026-03-22T10:52:02.261Z</time></trkpt><trkpt lat="45.3332917" lon="8.852905"><ele>108.0</ele><time>2026-03-22T10:52:03.261Z</time></trkpt><trkpt lat="45.3332183" lon="8.8527717"><ele>108.0</ele><time>2026-03-22T10:52:04.261Z</time></trkpt><trkpt lat="45.3331383" lon="8.85265"><ele>108.0</ele><time>2026-03-22T10:52:05.261Z</time></trkpt><trkpt lat="45.3330467" lon="8.8525167"><ele>108.0</ele><time>2026-03-22T10:52:06.261Z</time></trkpt><trkpt lat="45.3329583" lon="8.8523717"><ele>108.0</ele><time>2026-03-22T10:52:07.261Z</time></trkpt><trkpt lat="45.3328683" lon="8.8522283"><ele>108.25</ele><time>2026-03-22T10:52:08.261Z</time></trkpt><trkpt lat="45.3327717" lon="8.852085"><ele>108.5</ele><time>2026-03-22T10:52:09.261Z</time></trkpt><trkpt lat="45.3326717" lon="8.8519383"><ele>108.75</ele><time>2026-03-22T10:52:10.261Z</time></trkpt><trkpt lat="45.33257" lon="8.8517917"><ele>109.0</ele><time>2026-03-22T10:52:11.261Z</time></trkpt><trkpt lat="45.33247" lon="8.8516517"><ele>109.0</ele><time>2026-03-22T10:52:12.261Z</time></trkpt><trkpt lat="45.33236" lon="8.8515083"><ele>109.0</ele><time>2026-03-22T10:52:13.261Z</time></trkpt><trkpt lat="45.3322467" lon="8.851365"><ele>109.0</ele><time>2026-03-22T10:52:14.26Z</time></trkpt><trkpt lat="45.33213" lon="8.851225"><ele>108.5</ele><time>2026-03-22T10:52:15.26Z</time></trkpt><trkpt lat="45.332015" lon="8.8510933"><ele>108.0</ele><time>2026-03-22T10:52:16.26Z</time></trkpt><trkpt lat="45.3319133" lon="8.8509567"><ele>107.5</ele><time>2026-03-22T10:52:17.26Z</time></trkpt><trkpt lat="45.3318017" lon="8.8508217"><ele>107.0</ele><time>2026-03-22T10:52:18.26Z</time></trkpt><trkpt lat="45.3316917" lon="8.8507033"><ele>107.0</ele><time>2026-03-22T10:52:19.26Z</time></trkpt><trkpt lat="45.33147" lon="8.8504333"><ele>107.0</ele><time>2026-03-22T10:52:21.26Z</time></trkpt><trkpt lat="45.3313617" lon="8.8503083"><ele>107.0</ele><time>2026-03-22T10:52:22.26Z</time></trkpt><trkpt lat="45.3312617" lon="8.8502017"><ele>107.25</ele><time>2026-03-22T10:52:23.26Z</time></trkpt><trkpt lat="45.3311567" lon="8.8500817"><ele>107.5</ele><time>2026-03-22T10:52:24.26Z</time></trkpt><trkpt lat="45.3310533" lon="8.8499633"><ele>107.75</ele><time>2026-03-22T10:52:25.26Z</time></trkpt><trkpt lat="45.33095" lon="8.8498483"><ele>108.0</ele><time>2026-03-22T10:52:26.26Z</time></trkpt><trkpt lat="45.33084" lon="8.8497283"><ele>108.0</ele><time>2026-03-22T10:52:27.26Z</time></trkpt><trkpt lat="45.3307467" lon="8.849605"><ele>108.0</ele><time>2026-03-22T10:52:28.26Z</time></trkpt><trkpt lat="45.3306567" lon="8.8494883"><ele>108.0</ele><time>2026-03-22T10:52:29.26Z</time></trkpt><trkpt lat="45.3305783" lon="8.8493517"><ele>108.0</ele><time>2026-03-22T10:52:30.26Z</time></trkpt><trkpt lat="45.3305067" lon="8.8492317"><ele>107.80000000000001</ele><time>2026-03-22T10:52:31.26Z</time></trkpt><trkpt lat="45.3304383" lon="8.8491017"><ele>107.60000000000001</ele><time>2026-03-22T10:52:32.26Z</time></trkpt><trkpt lat="45.3303783" lon="8.8489717"><ele>107.39999999999999</ele><time>2026-03-22T10:52:33.26Z</time></trkpt><trkpt lat="45.33032" lon="8.84885"><ele>107.19999999999999</ele><time>2026-03-22T10:52:34.26Z</time></trkpt><trkpt lat="45.330285" lon="8.8487317"><ele>107.0</ele><time>2026-03-22T10:52:35.26Z</time></trkpt><trkpt lat="45.3302617" lon="8.8486417"><ele>107.0</ele><time>2026-03-22T10:52:36.26Z</time></trkpt><trkpt lat="45.33025" lon="8.8484783"><ele>106.99999999999999</ele><time>2026-03-22T10:52:38.26Z</time></trkpt><trkpt lat="45.33026" lon="8.8483783"><ele>106.99999999999999</ele><time>2026-03-22T10:52:39.26Z</time></trkpt><trkpt lat="45.3302767" lon="8.84825"><ele>107.0</ele><time>2026-03-22T10:52:40.26Z</time></trkpt><trkpt lat="45.3302767" lon="8.8481067"><ele>107.0</ele><time>2026-03-22T10:52:41.26Z</time></trkpt><trkpt lat="45.3302533" lon="8.8479583"><ele>106.8</ele><time>2026-03-22T10:52:42.26Z</time></trkpt><trkpt lat="45.3301917" lon="8.8478283"><ele>106.6</ele><time>2026-03-22T10:52:43.26Z</time></trkpt><trkpt lat="45.3301117" lon="8.84772"><ele>106.39999999999999</ele><time>2026-03-22T10:52:44.26Z</time></trkpt><trkpt lat="45.33005" lon="8.8476"><ele>106.19999999999999</ele><time>2026-03-22T10:52:45.26Z</time></trkpt><trkpt lat="45.3299983" lon="8.8474683"><ele>106.0</ele><time>2026-03-22T10:52:46.26Z</time></trkpt><trkpt lat="45.3299683" lon="8.847305"><ele>106.0</ele><time>2026-03-22T10:52:47.26Z</time></trkpt><trkpt lat="45.3299517" lon="8.8471317"><ele>106.0</ele><time>2026-03-22T10:52:48.26Z</time></trkpt><trkpt lat="45.3299367" lon="8.84696"><ele>106.0</ele><time>2026-03-22T10:52:49.26Z</time></trkpt><trkpt lat="45.3299167" lon="8.84679"><ele>106.0</ele><time>2026-03-22T10:52:50.26Z</time></trkpt><trkpt lat="45.329885" lon="8.8466133"><ele>106.0</ele><time>2026-03-22T10:52:51.26Z</time></trkpt><trkpt lat="45.3298533" lon="8.8464417"><ele>106.0</ele><time>2026-03-22T10:52:52.26Z</time></trkpt><trkpt lat="45.3298117" lon="8.846265"><ele>106.0</ele><time>2026-03-22T10:52:53.26Z</time></trkpt><trkpt lat="45.3297517" lon="8.8460883"><ele>106.0</ele><time>2026-03-22T10:52:54.26Z</time></trkpt><trkpt lat="45.329705" lon="8.8459133"><ele>106.0</ele><time>2026-03-22T10:52:55.26Z</time></trkpt><trkpt lat="45.3296517" lon="8.8457467"><ele>106.0</ele><time>2026-03-22T10:52:56.26Z</time></trkpt><trkpt lat="45.329595" lon="8.8455833"><ele>106.0</ele><time>2026-03-22T10:52:57.26Z</time></trkpt><trkpt lat="45.329535" lon="8.8454233"><ele>106.0</ele><time>2026-03-22T10:52:58.26Z</time></trkpt><trkpt lat="45.329485" lon="8.8452683"><ele>105.75</ele><time>2026-03-22T10:52:59.26Z</time></trkpt><trkpt lat="45.3294283" lon="8.8451167"><ele>105.5</ele><time>2026-03-22T10:53:00.26Z</time></trkpt><trkpt lat="45.329375" lon="8.8449617"><ele>105.25</ele><time>2026-03-22T10:53:01.26Z</time></trkpt><trkpt lat="45.3293133" lon="8.8448033"><ele>105.0</ele><time>2026-03-22T10:53:02.26Z</time></trkpt><trkpt lat="45.3292517" lon="8.844645"><ele>105.0</ele><time>2026-03-22T10:53:03.26Z</time></trkpt><trkpt lat="45.3291933" lon="8.8444933"><ele>105.0</ele><time>2026-03-22T10:53:04.26Z</time></trkpt><trkpt lat="45.3291417" lon="8.8443417"><ele>105.0</ele><time>2026-03-22T10:53:05.26Z</time></trkpt><trkpt lat="45.32908" lon="8.8441833"><ele>105.0</ele><time>2026-03-22T10:53:06.26Z</time></trkpt><trkpt lat="45.32902" lon="8.84403"><ele>105.5</ele><time>2026-03-22T10:53:07.26Z</time></trkpt><trkpt lat="45.3289683" lon="8.843885"><ele>106.0</ele><time>2026-03-22T10:53:08.26Z</time></trkpt><trkpt lat="45.3289183" lon="8.843735"><ele>106.5</ele><time>2026-03-22T10:53:09.26Z</time></trkpt><trkpt lat="45.3288667" lon="8.8435783"><ele>107.0</ele><time>2026-03-22T10:53:10.26Z</time></trkpt><trkpt lat="45.3288333" lon="8.84341"><ele>107.5</ele><time>2026-03-22T10:53:11.26Z</time></trkpt><trkpt lat="45.3287983" lon="8.8432383"><ele>108.0</ele><time>2026-03-22T10:53:12.26Z</time></trkpt><trkpt lat="45.328755" lon="8.843085"><ele>108.5</ele><time>2026-03-22T10:53:13.26Z</time></trkpt><trkpt lat="45.32872" lon="8.842925"><ele>109.0</ele><time>2026-03-22T10:53:14.26Z</time></trkpt><trkpt lat="45.3286833" lon="8.8427767"><ele>109.0</ele><time>2026-03-22T10:53:15.26Z</time></trkpt><trkpt lat="45.32864" lon="8.842635"><ele>109.0</ele><time>2026-03-22T10:53:16.26Z</time></trkpt><trkpt lat="45.3286" lon="8.842485"><ele>109.0</ele><time>2026-03-22T10:53:17.26Z</time></trkpt><trkpt lat="45.3285633" lon="8.8423467"><ele>109.0</ele><time>2026-03-22T10:53:18.26Z</time></trkpt><trkpt lat="45.3285417" lon="8.8422033"><ele>109.0</ele><time>2026-03-22T10:53:19.26Z</time></trkpt><trkpt lat="45.328505" lon="8.8420633"><ele>109.2</ele><time>2026-03-22T10:53:20.26Z</time></trkpt><trkpt lat="45.3284767" lon="8.8419283"><ele>109.4</ele><time>2026-03-22T10:53:21.26Z</time></trkpt><trkpt lat="45.32844" lon="8.8417983"><ele>109.6</ele><time>2026-03-22T10:53:22.26Z</time></trkpt><trkpt lat="45.3284" lon="8.8416733"><ele>109.8</ele><time>2026-03-22T10:53:23.26Z</time></trkpt><trkpt lat="45.3283683" lon="8.8415533"><ele>110.0</ele><time>2026-03-22T10:53:24.261Z</time></trkpt><trkpt lat="45.3283467" lon="8.8414267"><ele>109.99999999999999</ele><time>2026-03-22T10:53:25.26Z</time></trkpt><trkpt lat="45.32833" lon="8.8413117"><ele>110.0</ele><time>2026-03-22T10:53:26.26Z</time></trkpt><trkpt lat="45.328315" lon="8.8412083"><ele>110.0</ele><time>2026-03-22T10:53:27.26Z</time></trkpt><trkpt lat="45.3283133" lon="8.841105"><ele>110.0</ele><time>2026-03-22T10:53:28.26Z</time></trkpt><trkpt lat="45.3283183" lon="8.841"><ele>109.99999999999999</ele><time>2026-03-22T10:53:29.26Z</time></trkpt><trkpt lat="45.3283283" lon="8.84089"><ele>110.0</ele><time>2026-03-22T10:53:30.26Z</time></trkpt><trkpt lat="45.3283333" lon="8.8407533"><ele>110.0</ele><time>2026-03-22T10:53:31.26Z</time></trkpt><trkpt lat="45.328325" lon="8.8406"><ele>110.0</ele><time>2026-03-22T10:53:32.26Z</time></trkpt><trkpt lat="45.3282833" lon="8.84046"><ele>110.0</ele><time>2026-03-22T10:53:33.26Z</time></trkpt><trkpt lat="45.3282183" lon="8.8403467"><ele>110.0</ele><time>2026-03-22T10:53:34.26Z</time></trkpt><trkpt lat="45.328125" lon="8.84026"><ele>110.0</ele><time>2026-03-22T10:53:35.26Z</time></trkpt><trkpt lat="45.328025" lon="8.84018"><ele>110.0</ele><time>2026-03-22T10:53:36.26Z</time></trkpt><trkpt lat="45.32793" lon="8.840085"><ele>110.0</ele><time>2026-03-22T10:53:37.261Z</time></trkpt><trkpt lat="45.3278483" lon="8.8399783"><ele>110.0</ele><time>2026-03-22T10:53:38.26Z</time></trkpt><trkpt lat="45.3277783" lon="8.83983"><ele>110.0</ele><time>2026-03-22T10:53:39.26Z</time></trkpt><trkpt lat="45.327725" lon="8.8396683"><ele>110.0</ele><time>2026-03-22T10:53:40.26Z</time></trkpt><trkpt lat="45.3276783" lon="8.8394983"><ele>110.0</ele><time>2026-03-22T10:53:41.26Z</time></trkpt><trkpt lat="45.3276333" lon="8.8393067"><ele>110.0</ele><time>2026-03-22T10:53:42.26Z</time></trkpt><trkpt lat="45.3275867" lon="8.8391117"><ele>110.0</ele><time>2026-03-22T10:53:43.26Z</time></trkpt><trkpt lat="45.32753" lon="8.8389283"><ele>110.0</ele><time>2026-03-22T10:53:44.26Z</time></trkpt><trkpt lat="45.32748" lon="8.838725"><ele>110.0</ele><time>2026-03-22T10:53:45.26Z</time></trkpt><trkpt lat="45.32744" lon="8.8385167"><ele>110.0</ele><time>2026-03-22T10:53:46.26Z</time></trkpt><trkpt lat="45.3273983" lon="8.8383083"><ele>110.0</ele><time>2026-03-22T10:53:47.26Z</time></trkpt><trkpt lat="45.3273417" lon="8.8381167"><ele>110.0</ele><time>2026-03-22T10:53:48.26Z</time></trkpt><trkpt lat="45.3272817" lon="8.8379283"><ele>110.0</ele><time>2026-03-22T10:53:49.26Z</time></trkpt><trkpt lat="45.3272283" lon="8.83773"><ele>110.0</ele><time>2026-03-22T10:53:50.26Z</time></trkpt><trkpt lat="45.32718" lon="8.8375383"><ele>110.5</ele><time>2026-03-22T10:53:51.26Z</time></trkpt><trkpt lat="45.327135" lon="8.8373483"><ele>111.0</ele><time>2026-03-22T10:53:52.26Z</time></trkpt><trkpt lat="45.3270833" lon="8.8371583"><ele>111.5</ele><time>2026-03-22T10:53:53.26Z</time></trkpt><trkpt lat="45.3270433" lon="8.83697"><ele>112.0</ele><time>2026-03-22T10:53:54.26Z</time></trkpt><trkpt lat="45.3270067" lon="8.8367933"><ele>112.0</ele><time>2026-03-22T10:53:55.26Z</time></trkpt><trkpt lat="45.3269633" lon="8.8366117"><ele>112.0</ele><time>2026-03-22T10:53:56.26Z</time></trkpt><trkpt lat="45.326925" lon="8.8364433"><ele>112.0</ele><time>2026-03-22T10:53:57.26Z</time></trkpt><trkpt lat="45.3268867" lon="8.8362817"><ele>112.0</ele><time>2026-03-22T10:53:58.26Z</time></trkpt><trkpt lat="45.3268367" lon="8.8361217"><ele>111.5</ele><time>2026-03-22T10:53:59.26Z</time></trkpt><trkpt lat="45.3267983" lon="8.8359617"><ele>111.0</ele><time>2026-03-22T10:54:00.26Z</time></trkpt><trkpt lat="45.326755" lon="8.8358033"><ele>110.5</ele><time>2026-03-22T10:54:01.26Z</time></trkpt><trkpt lat="45.3267167" lon="8.8356417"><ele>110.0</ele><time>2026-03-22T10:54:02.26Z</time></trkpt><trkpt lat="45.32667" lon="8.8354733"><ele>110.0</ele><time>2026-03-22T10:54:03.26Z</time></trkpt><trkpt lat="45.3266317" lon="8.8353083"><ele>110.0</ele><time>2026-03-22T10:54:04.26Z</time></trkpt><trkpt lat="45.3265833" lon="8.8351417"><ele>110.0</ele><time>2026-03-22T10:54:05.26Z</time></trkpt><trkpt lat="45.3265433" lon="8.83497"><ele>110.0</ele><time>2026-03-22T10:54:06.26Z</time></trkpt><trkpt lat="45.3265033" lon="8.8348117"><ele>110.0</ele><time>2026-03-22T10:54:07.26Z</time></trkpt><trkpt lat="45.3264667" lon="8.834665"><ele>110.0</ele><time>2026-03-22T10:54:08.26Z</time></trkpt><trkpt lat="45.3264383" lon="8.8345217"><ele>110.0</ele><time>2026-03-22T10:54:09.26Z</time></trkpt><trkpt lat="45.32643" lon="8.8343933"><ele>110.0</ele><time>2026-03-22T10:54:10.26Z</time></trkpt><trkpt lat="45.3264383" lon="8.8342717"><ele>110.0</ele><time>2026-03-22T10:54:11.26Z</time></trkpt><trkpt lat="45.326455" lon="8.8341517"><ele>109.99999999999999</ele><time>2026-03-22T10:54:12.26Z</time></trkpt><trkpt lat="45.3264683" lon="8.83404"><ele>110.0</ele><time>2026-03-22T10:54:13.26Z</time></trkpt><trkpt lat="45.326485" lon="8.8339367"><ele>110.0</ele><time>2026-03-22T10:54:14.26Z</time></trkpt><trkpt lat="45.3264917" lon="8.83384"><ele>110.0</ele><time>2026-03-22T10:54:15.26Z</time></trkpt><trkpt lat="45.326505" lon="8.83375"><ele>109.99999999999999</ele><time>2026-03-22T10:54:16.26Z</time></trkpt><trkpt lat="45.3265517" lon="8.8336367"><ele>110.0</ele><time>2026-03-22T10:54:18.26Z</time></trkpt><trkpt lat="45.326615" lon="8.8335083"><ele>110.14285714285714</ele><time>2026-03-22T10:54:20.26Z</time></trkpt><trkpt lat="45.3266467" lon="8.83343"><ele>110.28571428571428</ele><time>2026-03-22T10:54:21.26Z</time></trkpt><trkpt lat="45.32669" lon="8.8333517"><ele>110.42857142857142</ele><time>2026-03-22T10:54:22.26Z</time></trkpt><trkpt lat="45.32674" lon="8.833285"><ele>110.57142857142857</ele><time>2026-03-22T10:54:23.26Z</time></trkpt><trkpt lat="45.32679" lon="8.8332067"><ele>110.71428571428572</ele><time>2026-03-22T10:54:24.26Z</time></trkpt><trkpt lat="45.3268383" lon="8.83312"><ele>110.85714285714285</ele><time>2026-03-22T10:54:25.26Z</time></trkpt><trkpt lat="45.3268833" lon="8.833015"><ele>111.0</ele><time>2026-03-22T10:54:26.26Z</time></trkpt><trkpt lat="45.3269267" lon="8.8328733"><ele>111.0</ele><time>2026-03-22T10:54:27.26Z</time></trkpt><trkpt lat="45.326985" lon="8.8327233"><ele>111.0</ele><time>2026-03-22T10:54:28.26Z</time></trkpt><trkpt lat="45.3270317" lon="8.8325717"><ele>111.0</ele><time>2026-03-22T10:54:29.26Z</time></trkpt><trkpt lat="45.3270817" lon="8.832425"><ele>111.0</ele><time>2026-03-22T10:54:30.26Z</time></trkpt><trkpt lat="45.3271217" lon="8.83229"><ele>111.0</ele><time>2026-03-22T10:54:31.26Z</time></trkpt><trkpt lat="45.3271683" lon="8.83217"><ele>111.0</ele><time>2026-03-22T10:54:32.26Z</time></trkpt><trkpt lat="45.3272117" lon="8.8320733"><ele>111.0</ele><time>2026-03-22T10:54:33.26Z</time></trkpt><trkpt lat="45.3272617" lon="8.8319833"><ele>111.0</ele><time>2026-03-22T10:54:35.26Z</time></trkpt><trkpt lat="45.32734" lon="8.83187"><ele>111.0</ele><time>2026-03-22T10:54:38.26Z</time></trkpt><trkpt lat="45.3273967" lon="8.831815"><ele>111.0</ele><time>2026-03-22T10:54:39.26Z</time></trkpt><trkpt lat="45.3274583" lon="8.8317567"><ele>111.0</ele><time>2026-03-22T10:54:40.26Z</time></trkpt><trkpt lat="45.3275417" lon="8.831695"><ele>111.0</ele><time>2026-03-22T10:54:41.26Z</time></trkpt><trkpt lat="45.327625" lon="8.8316233"><ele>111.0</ele><time>2026-03-22T10:54:42.26Z</time></trkpt><trkpt lat="45.3277117" lon="8.83156"><ele>111.0</ele><time>2026-03-22T10:54:43.26Z</time></trkpt><trkpt lat="45.3277967" lon="8.8314667"><ele>111.0</ele><time>2026-03-22T10:54:44.26Z</time></trkpt><trkpt lat="45.327885" lon="8.8313583"><ele>111.0</ele><time>2026-03-22T10:54:45.26Z</time></trkpt><trkpt lat="45.3279683" lon="8.8312483"><ele>111.0</ele><time>2026-03-22T10:54:46.26Z</time></trkpt><trkpt lat="45.328055" lon="8.831135"><ele>111.0</ele><time>2026-03-22T10:54:47.26Z</time></trkpt><trkpt lat="45.3281433" lon="8.8310183"><ele>111.0</ele><time>2026-03-22T10:54:48.26Z</time></trkpt><trkpt lat="45.328225" lon="8.8309017"><ele>111.25</ele><time>2026-03-22T10:54:49.26Z</time></trkpt><trkpt lat="45.3283133" lon="8.83079"><ele>111.5</ele><time>2026-03-22T10:54:50.26Z</time></trkpt><trkpt lat="45.328395" lon="8.8306717"><ele>111.75</ele><time>2026-03-22T10:54:51.26Z</time></trkpt><trkpt lat="45.3284767" lon="8.8305567"><ele>112.0</ele><time>2026-03-22T10:54:52.26Z</time></trkpt><trkpt lat="45.3285633" lon="8.83044"><ele>112.0</ele><time>2026-03-22T10:54:53.26Z</time></trkpt><trkpt lat="45.32865" lon="8.8303233"><ele>111.99999999999999</ele><time>2026-03-22T10:54:54.26Z</time></trkpt><trkpt lat="45.328725" lon="8.8302117"><ele>111.99999999999999</ele><time>2026-03-22T10:54:55.26Z</time></trkpt><trkpt lat="45.3287917" lon="8.8301033"><ele>112.0</ele><time>2026-03-22T10:54:56.26Z</time></trkpt><trkpt lat="45.3288583" lon="8.8300033"><ele>112.0</ele><time>2026-03-22T10:54:57.26Z</time></trkpt><trkpt lat="45.3289217" lon="8.8298983"><ele>111.6</ele><time>2026-03-22T10:54:58.26Z</time></trkpt><trkpt lat="45.3289833" lon="8.8297817"><ele>111.19999999999999</ele><time>2026-03-22T10:54:59.26Z</time></trkpt><trkpt lat="45.3290467" lon="8.8296817"><ele>110.8</ele><time>2026-03-22T10:55:00.26Z</time></trkpt><trkpt lat="45.3291033" lon="8.82958"><ele>110.4</ele><time>2026-03-22T10:55:01.26Z</time></trkpt><trkpt lat="45.32916" lon="8.8294817"><ele>110.0</ele><time>2026-03-22T10:55:02.26Z</time></trkpt><trkpt lat="45.3292183" lon="8.8293967"><ele>109.99999999999999</ele><time>2026-03-22T10:55:03.26Z</time></trkpt><trkpt lat="45.3292767" lon="8.8293167"><ele>110.0</ele><time>2026-03-22T10:55:04.26Z</time></trkpt><trkpt lat="45.32932" lon="8.8292417"><ele>110.0</ele><time>2026-03-22T10:55:05.26Z</time></trkpt><trkpt lat="45.3293883" lon="8.8291217"><ele>110.0</ele><time>2026-03-22T10:55:07.26Z</time></trkpt><trkpt lat="45.32945" lon="8.8290217"><ele>109.99999999999999</ele><time>2026-03-22T10:55:09.26Z</time></trkpt><trkpt lat="45.3295017" lon="8.8289067"><ele>110.0</ele><time>2026-03-22T10:55:11.26Z</time></trkpt><trkpt lat="45.3295067" lon="8.8287833"><ele>110.33333333333333</ele><time>2026-03-22T10:55:13.26Z</time></trkpt><trkpt lat="45.329475" lon="8.8286517"><ele>110.66666666666666</ele><time>2026-03-22T10:55:15.26Z</time></trkpt><trkpt lat="45.32944" lon="8.8285583"><ele>111.0</ele><time>2026-03-22T10:55:17.26Z</time></trkpt><trkpt lat="45.3293983" lon="8.82848"><ele>111.33333333333334</ele><time>2026-03-22T10:55:20.26Z</time></trkpt><trkpt lat="45.3293583" lon="8.8283967"><ele>111.66666666666667</ele><time>2026-03-22T10:55:30.26Z</time></trkpt><trkpt lat="45.32931" lon="8.8282833"><ele>112.0</ele><time>2026-03-22T10:55:32.26Z</time></trkpt><trkpt lat="45.3292583" lon="8.8281383"><ele>112.16666666666667</ele><time>2026-03-22T10:55:34.26Z</time></trkpt><trkpt lat="45.3292283" lon="8.8280467"><ele>112.33333333333334</ele><time>2026-03-22T10:55:35.26Z</time></trkpt><trkpt lat="45.3291983" lon="8.8279467"><ele>112.5</ele><time>2026-03-22T10:55:36.26Z</time></trkpt><trkpt lat="45.3291667" lon="8.8278383"><ele>112.66666666666666</ele><time>2026-03-22T10:55:37.26Z</time></trkpt><trkpt lat="45.3291267" lon="8.8277333"><ele>112.83333333333333</ele><time>2026-03-22T10:55:38.26Z</time></trkpt><trkpt lat="45.3290917" lon="8.82762"><ele>113.0</ele><time>2026-03-22T10:55:39.26Z</time></trkpt><trkpt lat="45.3290583" lon="8.8275017"><ele>113.0</ele><time>2026-03-22T10:55:40.26Z</time></trkpt><trkpt lat="45.3290233" lon="8.82737"><ele>113.00000000000001</ele><time>2026-03-22T10:55:41.26Z</time></trkpt><trkpt lat="45.329" lon="8.8272283"><ele>113.00000000000001</ele><time>2026-03-22T10:55:42.26Z</time></trkpt><trkpt lat="45.32897" lon="8.8271033"><ele>113.0</ele><time>2026-03-22T10:55:43.26Z</time></trkpt><trkpt lat="45.3289317" lon="8.826965"><ele>113.0</ele><time>2026-03-22T10:55:44.26Z</time></trkpt><trkpt lat="45.3288917" lon="8.826825"><ele>113.2</ele><time>2026-03-22T10:55:45.26Z</time></trkpt><trkpt lat="45.3288533" lon="8.8266883"><ele>113.4</ele><time>2026-03-22T10:55:46.26Z</time></trkpt><trkpt lat="45.328815" lon="8.82656"><ele>113.60000000000001</ele><time>2026-03-22T10:55:47.26Z</time></trkpt><trkpt lat="45.32878" lon="8.8264467"><ele>113.80000000000001</ele><time>2026-03-22T10:55:48.26Z</time></trkpt><trkpt lat="45.32875" lon="8.8263217"><ele>114.0</ele><time>2026-03-22T10:55:49.26Z</time></trkpt><trkpt lat="45.3287167" lon="8.8261933"><ele>114.0</ele><time>2026-03-22T10:55:50.26Z</time></trkpt><trkpt lat="45.32869" lon="8.8260683"><ele>114.0</ele><time>2026-03-22T10:55:51.26Z</time></trkpt><trkpt lat="45.3286733" lon="8.825965"><ele>114.0</ele><time>2026-03-22T10:55:52.26Z</time></trkpt><trkpt lat="45.3286267" lon="8.8258283"><ele>114.0</ele><time>2026-03-22T10:55:54.26Z</time></trkpt><trkpt lat="45.3285717" lon="8.8257067"><ele>114.0</ele><time>2026-03-22T10:55:56.26Z</time></trkpt><trkpt lat="45.32854" lon="8.82553"><ele>113.83333333333333</ele><time>2026-03-22T10:55:58.26Z</time></trkpt><trkpt lat="45.3285117" lon="8.8254317"><ele>113.66666666666666</ele><time>2026-03-22T10:55:59.26Z</time></trkpt><trkpt lat="45.328475" lon="8.8253117"><ele>113.5</ele><time>2026-03-22T10:56:00.26Z</time></trkpt><trkpt lat="45.3284383" lon="8.8251967"><ele>113.33333333333333</ele><time>2026-03-22T10:56:01.26Z</time></trkpt><trkpt lat="45.3284033" lon="8.8250817"><ele>113.16666666666666</ele><time>2026-03-22T10:56:02.26Z</time></trkpt><trkpt lat="45.3283683" lon="8.82496"><ele>113.0</ele><time>2026-03-22T10:56:03.26Z</time></trkpt><trkpt lat="45.3283517" lon="8.82484"><ele>112.66666666666666</ele><time>2026-03-22T10:56:04.26Z</time></trkpt><trkpt lat="45.3283367" lon="8.82473"><ele>112.33333333333333</ele><time>2026-03-22T10:56:05.26Z</time></trkpt><trkpt lat="45.3283233" lon="8.824635"><ele>112.0</ele><time>2026-03-22T10:56:06.26Z</time></trkpt><trkpt lat="45.3283117" lon="8.8245467"><ele>111.66666666666666</ele><time>2026-03-22T10:56:07.26Z</time></trkpt><trkpt lat="45.3282983" lon="8.8244233"><ele>111.33333333333333</ele><time>2026-03-22T10:56:09.26Z</time></trkpt><trkpt lat="45.3283633" lon="8.824345"><ele>111.0</ele><time>2026-03-22T10:56:11.26Z</time></trkpt><trkpt lat="45.3284367" lon="8.8243117"><ele>110.8</ele><time>2026-03-22T10:56:12.26Z</time></trkpt><trkpt lat="45.3285267" lon="8.8242717"><ele>110.6</ele><time>2026-03-22T10:56:13.26Z</time></trkpt><trkpt lat="45.328615" lon="8.8242083"><ele>110.4</ele><time>2026-03-22T10:56:14.26Z</time></trkpt><trkpt lat="45.3287117" lon="8.8241417"><ele>110.2</ele><time>2026-03-22T10:56:15.26Z</time></trkpt><trkpt lat="45.3288117" lon="8.8240717"><ele>110.0</ele><time>2026-03-22T10:56:16.26Z</time></trkpt><trkpt lat="45.3289233" lon="8.823985"><ele>110.0</ele><time>2026-03-22T10:56:17.26Z</time></trkpt><trkpt lat="45.3290567" lon="8.823895"><ele>110.0</ele><time>2026-03-22T10:56:18.26Z</time></trkpt><trkpt lat="45.3291867" lon="8.8238117"><ele>110.0</ele><time>2026-03-22T10:56:19.26Z</time></trkpt><trkpt lat="45.3293183" lon="8.8237417"><ele>110.0</ele><time>2026-03-22T10:56:20.26Z</time></trkpt><trkpt lat="45.3294483" lon="8.8236833"><ele>110.0</ele><time>2026-03-22T10:56:21.26Z</time></trkpt><trkpt lat="45.329575" lon="8.8236217"><ele>110.0</ele><time>2026-03-22T10:56:22.26Z</time></trkpt><trkpt lat="45.3296983" lon="8.8235717"><ele>110.0</ele><time>2026-03-22T10:56:23.26Z</time></trkpt><trkpt lat="45.3298233" lon="8.8235117"><ele>110.0</ele><time>2026-03-22T10:56:24.26Z</time></trkpt><trkpt lat="45.32996" lon="8.82346"><ele>110.25</ele><time>2026-03-22T10:56:25.26Z</time></trkpt><trkpt lat="45.3300983" lon="8.823415"><ele>110.5</ele><time>2026-03-22T10:56:26.26Z</time></trkpt><trkpt lat="45.3302233" lon="8.823345"><ele>110.75</ele><time>2026-03-22T10:56:27.26Z</time></trkpt><trkpt lat="45.3303533" lon="8.82328"><ele>111.0</ele><time>2026-03-22T10:56:28.26Z</time></trkpt><trkpt lat="45.3304667" lon="8.823215"><ele>111.75</ele><time>2026-03-22T10:56:29.26Z</time></trkpt><trkpt lat="45.3305967" lon="8.82315"><ele>112.5</ele><time>2026-03-22T10:56:30.26Z</time></trkpt><trkpt lat="45.3307283" lon="8.82307"><ele>113.25</ele><time>2026-03-22T10:56:31.26Z</time></trkpt><trkpt lat="45.3308567" lon="8.822995"><ele>114.0</ele><time>2026-03-22T10:56:32.26Z</time></trkpt><trkpt lat="45.3309817" lon="8.822915"><ele>114.0</ele><time>2026-03-22T10:56:33.26Z</time></trkpt><trkpt lat="45.3311067" lon="8.822855"><ele>114.0</ele><time>2026-03-22T10:56:34.26Z</time></trkpt><trkpt lat="45.33122" lon="8.8227933"><ele>114.0</ele><time>2026-03-22T10:56:35.26Z</time></trkpt><trkpt lat="45.3313167" lon="8.822735"><ele>114.0</ele><time>2026-03-22T10:56:36.26Z</time></trkpt><trkpt lat="45.3314183" lon="8.8226733"><ele>113.6</ele><time>2026-03-22T10:56:37.26Z</time></trkpt><trkpt lat="45.33151" lon="8.8226167"><ele>113.2</ele><time>2026-03-22T10:56:38.26Z</time></trkpt><trkpt lat="45.3315983" lon="8.8225717"><ele>112.79999999999998</ele><time>2026-03-22T10:56:39.26Z</time></trkpt><trkpt lat="45.33168" lon="8.822525"><ele>112.39999999999999</ele><time>2026-03-22T10:56:40.26Z</time></trkpt><trkpt lat="45.3317517" lon="8.82249"><ele>112.0</ele><time>2026-03-22T10:56:41.26Z</time></trkpt><trkpt lat="45.331835" lon="8.8224317"><ele>112.00000000000001</ele><time>2026-03-22T10:56:43.26Z</time></trkpt><trkpt lat="45.3319067" lon="8.8224067"><ele>112.0</ele><time>2026-03-22T10:56:45.26Z</time></trkpt><trkpt lat="45.3319717" lon="8.82244"><ele>112.0</ele><time>2026-03-22T10:56:47.26Z</time></trkpt><trkpt lat="45.332025" lon="8.8225917"><ele>112.0</ele><time>2026-03-22T10:56:49.26Z</time></trkpt><trkpt lat="45.3320767" lon="8.8226733"><ele>112.00000000000001</ele><time>2026-03-22T10:56:51.26Z</time></trkpt><trkpt lat="45.33214" lon="8.8226367"><ele>112.0</ele><time>2026-03-22T10:56:54.26Z</time></trkpt><trkpt lat="45.332175" lon="8.8225517"><ele>112.00000000000001</ele><time>2026-03-22T10:56:59.259Z</time></trkpt><trkpt lat="45.3321783" lon="8.82243"><ele>112.0</ele><time>2026-03-22T10:57:04.259Z</time></trkpt><trkpt lat="45.3321567" lon="8.822265"><ele>112.0</ele><time>2026-03-22T10:57:06.259Z</time></trkpt><trkpt lat="45.3321333" lon="8.8221717"><ele>112.0</ele><time>2026-03-22T10:57:07.259Z</time></trkpt><trkpt lat="45.3321267" lon="8.8220683"><ele>112.00000000000001</ele><time>2026-03-22T10:57:08.259Z</time></trkpt><trkpt lat="45.3321133" lon="8.8219533"><ele>112.0</ele><time>2026-03-22T10:57:09.259Z</time></trkpt><trkpt lat="45.3321083" lon="8.8218283"><ele>111.6</ele><time>2026-03-22T10:57:10.259Z</time></trkpt><trkpt lat="45.3321067" lon="8.8216967"><ele>111.19999999999999</ele><time>2026-03-22T10:57:11.259Z</time></trkpt><trkpt lat="45.3321067" lon="8.8215533"><ele>110.8</ele><time>2026-03-22T10:57:12.259Z</time></trkpt><trkpt lat="45.3321233" lon="8.8213983"><ele>110.4</ele><time>2026-03-22T10:57:13.259Z</time></trkpt><trkpt lat="45.33215" lon="8.8212433"><ele>110.0</ele><time>2026-03-22T10:57:14.259Z</time></trkpt><trkpt lat="45.3321883" lon="8.821085"><ele>109.75</ele><time>2026-03-22T10:57:15.259Z</time></trkpt><trkpt lat="45.3322333" lon="8.8209333"><ele>109.5</ele><time>2026-03-22T10:57:16.259Z</time></trkpt><trkpt lat="45.3322783" lon="8.8207683"><ele>109.25</ele><time>2026-03-22T10:57:17.259Z</time></trkpt><trkpt lat="45.332325" lon="8.820615"><ele>109.0</ele><time>2026-03-22T10:57:18.259Z</time></trkpt><trkpt lat="45.3323767" lon="8.820445"><ele>109.0</ele><time>2026-03-22T10:57:19.259Z</time></trkpt><trkpt lat="45.33244" lon="8.82028"><ele>109.0</ele><time>2026-03-22T10:57:20.259Z</time></trkpt><trkpt lat="45.3324983" lon="8.820115"><ele>109.0</ele><time>2026-03-22T10:57:21.259Z</time></trkpt><trkpt lat="45.332555" lon="8.81995"><ele>109.0</ele><time>2026-03-22T10:57:22.259Z</time></trkpt><trkpt lat="45.3326117" lon="8.81978"><ele>109.0</ele><time>2026-03-22T10:57:23.259Z</time></trkpt><trkpt lat="45.3326667" lon="8.8196"><ele>109.0</ele><time>2026-03-22T10:57:24.259Z</time></trkpt><trkpt lat="45.3327283" lon="8.81943"><ele>109.0</ele><time>2026-03-22T10:57:25.259Z</time></trkpt><trkpt lat="45.3327933" lon="8.8192567"><ele>109.0</ele><time>2026-03-22T10:57:26.259Z</time></trkpt><trkpt lat="45.332845" lon="8.819085"><ele>109.0</ele><time>2026-03-22T10:57:27.259Z</time></trkpt><trkpt lat="45.332905" lon="8.81891"><ele>109.0</ele><time>2026-03-22T10:57:28.259Z</time></trkpt><trkpt lat="45.332965" lon="8.8187417"><ele>109.0</ele><time>2026-03-22T10:57:29.259Z</time></trkpt><trkpt lat="45.33302" lon="8.8185833"><ele>109.0</ele><time>2026-03-22T10:57:30.259Z</time></trkpt><trkpt lat="45.3330733" lon="8.81843"><ele>109.0</ele><time>2026-03-22T10:57:31.259Z</time></trkpt><trkpt lat="45.3331267" lon="8.8182667"><ele>109.0</ele><time>2026-03-22T10:57:32.259Z</time></trkpt><trkpt lat="45.3331717" lon="8.81811"><ele>109.0</ele><time>2026-03-22T10:57:33.259Z</time></trkpt><trkpt lat="45.3332167" lon="8.81796"><ele>109.0</ele><time>2026-03-22T10:57:34.259Z</time></trkpt><trkpt lat="45.333255" lon="8.8178183"><ele>109.0</ele><time>2026-03-22T10:57:35.259Z</time></trkpt><trkpt lat="45.333305" lon="8.81768"><ele>109.0</ele><time>2026-03-22T10:57:36.259Z</time></trkpt><trkpt lat="45.3333567" lon="8.8175517"><ele>109.0</ele><time>2026-03-22T10:57:37.259Z</time></trkpt><trkpt lat="45.333395" lon="8.817425"><ele>109.0</ele><time>2026-03-22T10:57:38.259Z</time></trkpt><trkpt lat="45.3334317" lon="8.8172983"><ele>109.0</ele><time>2026-03-22T10:57:39.259Z</time></trkpt><trkpt lat="45.3334733" lon="8.81718"><ele>109.16666666666667</ele><time>2026-03-22T10:57:40.259Z</time></trkpt><trkpt lat="45.3335117" lon="8.8170717"><ele>109.33333333333334</ele><time>2026-03-22T10:57:41.259Z</time></trkpt><trkpt lat="45.3335383" lon="8.8169633"><ele>109.5</ele><time>2026-03-22T10:57:42.259Z</time></trkpt><trkpt lat="45.3335733" lon="8.8168567"><ele>109.66666666666666</ele><time>2026-03-22T10:57:43.259Z</time></trkpt><trkpt lat="45.33361" lon="8.8167517"><ele>109.83333333333333</ele><time>2026-03-22T10:57:44.259Z</time></trkpt><trkpt lat="45.3336467" lon="8.816645"><ele>110.0</ele><time>2026-03-22T10:57:45.259Z</time></trkpt><trkpt lat="45.33368" lon="8.8165417"><ele>110.0</ele><time>2026-03-22T10:57:46.259Z</time></trkpt><trkpt lat="45.3337217" lon="8.8164233"><ele>110.0</ele><time>2026-03-22T10:57:47.259Z</time></trkpt><trkpt lat="45.3337683" lon="8.8163"><ele>110.0</ele><time>2026-03-22T10:57:48.259Z</time></trkpt><trkpt lat="45.33382" lon="8.8161683"><ele>110.0</ele><time>2026-03-22T10:57:49.259Z</time></trkpt><trkpt lat="45.33388" lon="8.8160283"><ele>110.0</ele><time>2026-03-22T10:57:50.259Z</time></trkpt><trkpt lat="45.33394" lon="8.8159017"><ele>110.0</ele><time>2026-03-22T10:57:51.259Z</time></trkpt><trkpt lat="45.3340183" lon="8.8157767"><ele>110.0</ele><time>2026-03-22T10:57:52.259Z</time></trkpt><trkpt lat="45.3341" lon="8.8156483"><ele>110.0</ele><time>2026-03-22T10:57:53.259Z</time></trkpt><trkpt lat="45.3341867" lon="8.815505"><ele>110.0</ele><time>2026-03-22T10:57:54.259Z</time></trkpt><trkpt lat="45.3342617" lon="8.8153733"><ele>110.0</ele><time>2026-03-22T10:57:55.259Z</time></trkpt><trkpt lat="45.33434" lon="8.815245"><ele>110.0</ele><time>2026-03-22T10:57:56.259Z</time></trkpt><trkpt lat="45.3344233" lon="8.8151017"><ele>110.0</ele><time>2026-03-22T10:57:57.259Z</time></trkpt><trkpt lat="45.3345083" lon="8.8149667"><ele>110.0</ele><time>2026-03-22T10:57:58.259Z</time></trkpt><trkpt lat="45.3346083" lon="8.8148233"><ele>110.0</ele><time>2026-03-22T10:57:59.259Z</time></trkpt><trkpt lat="45.3347" lon="8.814685"><ele>110.0</ele><time>2026-03-22T10:58:00.259Z</time></trkpt><trkpt lat="45.334795" lon="8.8145367"><ele>110.0</ele><time>2026-03-22T10:58:01.259Z</time></trkpt><trkpt lat="45.334885" lon="8.814395"><ele>110.0</ele><time>2026-03-22T10:58:02.259Z</time></trkpt><trkpt lat="45.3349717" lon="8.8142517"><ele>109.75</ele><time>2026-03-22T10:58:03.259Z</time></trkpt><trkpt lat="45.3350617" lon="8.8140983"><ele>109.5</ele><time>2026-03-22T10:58:04.259Z</time></trkpt><trkpt lat="45.3351517" lon="8.813945"><ele>109.25</ele><time>2026-03-22T10:58:05.259Z</time></trkpt><trkpt lat="45.3352433" lon="8.813795"><ele>109.0</ele><time>2026-03-22T10:58:06.259Z</time></trkpt><trkpt lat="45.3353267" lon="8.8136483"><ele>109.0</ele><time>2026-03-22T10:58:07.259Z</time></trkpt><trkpt lat="45.3354167" lon="8.8135083"><ele>109.0</ele><time>2026-03-22T10:58:08.259Z</time></trkpt><trkpt lat="45.3355083" lon="8.8133583"><ele>109.0</ele><time>2026-03-22T10:58:09.259Z</time></trkpt><trkpt lat="45.3356067" lon="8.8132033"><ele>109.0</ele><time>2026-03-22T10:58:10.259Z</time></trkpt><trkpt lat="45.335705" lon="8.8130517"><ele>109.0</ele><time>2026-03-22T10:58:11.259Z</time></trkpt><trkpt lat="45.3357983" lon="8.8129067"><ele>109.0</ele><time>2026-03-22T10:58:12.259Z</time></trkpt><trkpt lat="45.3358867" lon="8.8127683"><ele>109.0</ele><time>2026-03-22T10:58:13.259Z</time></trkpt><trkpt lat="45.335975" lon="8.812615"><ele>109.0</ele><time>2026-03-22T10:58:14.259Z</time></trkpt><trkpt lat="45.3360683" lon="8.812465"><ele>109.25</ele><time>2026-03-22T10:58:15.259Z</time></trkpt><trkpt lat="45.3361667" lon="8.81231"><ele>109.5</ele><time>2026-03-22T10:58:16.259Z</time></trkpt><trkpt lat="45.3362617" lon="8.8121617"><ele>109.75</ele><time>2026-03-22T10:58:17.26Z</time></trkpt><trkpt lat="45.3363567" lon="8.81202"><ele>110.0</ele><time>2026-03-22T10:58:18.259Z</time></trkpt><trkpt lat="45.3364433" lon="8.811885"><ele>110.0</ele><time>2026-03-22T10:58:19.259Z</time></trkpt><trkpt lat="45.336525" lon="8.8117433"><ele>110.0</ele><time>2026-03-22T10:58:20.259Z</time></trkpt><trkpt lat="45.3366133" lon="8.8115967"><ele>110.0</ele><time>2026-03-22T10:58:21.259Z</time></trkpt><trkpt lat="45.3366983" lon="8.8114517"><ele>110.0</ele><time>2026-03-22T10:58:22.259Z</time></trkpt><trkpt lat="45.336795" lon="8.8113083"><ele>110.0</ele><time>2026-03-22T10:58:23.259Z</time></trkpt><trkpt lat="45.3368733" lon="8.8111583"><ele>110.0</ele><time>2026-03-22T10:58:24.259Z</time></trkpt><trkpt lat="45.336965" lon="8.8110133"><ele>110.0</ele><time>2026-03-22T10:58:25.259Z</time></trkpt><trkpt lat="45.33705" lon="8.8108683"><ele>110.0</ele><time>2026-03-22T10:58:26.259Z</time></trkpt><trkpt lat="45.3371383" lon="8.8107283"><ele>109.75</ele><time>2026-03-22T10:58:27.259Z</time></trkpt><trkpt lat="45.33722" lon="8.8105967"><ele>109.5</ele><time>2026-03-22T10:58:28.259Z</time></trkpt><trkpt lat="45.3373033" lon="8.810465"><ele>109.25</ele><time>2026-03-22T10:58:29.259Z</time></trkpt><trkpt lat="45.3373833" lon="8.810355"><ele>109.0</ele><time>2026-03-22T10:58:30.259Z</time></trkpt><trkpt lat="45.3374383" lon="8.8102517"><ele>109.0</ele><time>2026-03-22T10:58:31.259Z</time></trkpt><trkpt lat="45.3374867" lon="8.8101683"><ele>109.0</ele><time>2026-03-22T10:58:32.259Z</time></trkpt><trkpt lat="45.33756" lon="8.81004"><ele>109.0</ele><time>2026-03-22T10:58:34.259Z</time></trkpt><trkpt lat="45.3376333" lon="8.8099533"><ele>109.0</ele><time>2026-03-22T10:58:37.259Z</time></trkpt><trkpt lat="45.3377317" lon="8.8099817"><ele>109.0</ele><time>2026-03-22T10:58:39.259Z</time></trkpt><trkpt lat="45.337795" lon="8.8100283"><ele>109.4</ele><time>2026-03-22T10:58:40.259Z</time></trkpt><trkpt lat="45.337875" lon="8.8100783"><ele>109.80000000000001</ele><time>2026-03-22T10:58:41.259Z</time></trkpt><trkpt lat="45.3379633" lon="8.8101283"><ele>110.19999999999999</ele><time>2026-03-22T10:58:42.259Z</time></trkpt><trkpt lat="45.33807" lon="8.8101717"><ele>110.6</ele><time>2026-03-22T10:58:43.259Z</time></trkpt><trkpt lat="45.33818" lon="8.8102267"><ele>111.0</ele><time>2026-03-22T10:58:44.259Z</time></trkpt><trkpt lat="45.3382883" lon="8.810285"><ele>111.5</ele><time>2026-03-22T10:58:45.259Z</time></trkpt><trkpt lat="45.3384083" lon="8.8103583"><ele>112.0</ele><time>2026-03-22T10:58:46.259Z</time></trkpt><trkpt lat="45.3385367" lon="8.8104283"><ele>112.5</ele><time>2026-03-22T10:58:47.259Z</time></trkpt><trkpt lat="45.3386533" lon="8.8105117"><ele>113.0</ele><time>2026-03-22T10:58:48.259Z</time></trkpt><trkpt lat="45.3387617" lon="8.8105867"><ele>113.0</ele><time>2026-03-22T10:58:49.259Z</time></trkpt><trkpt lat="45.33887" lon="8.8106483"><ele>113.0</ele><time>2026-03-22T10:58:50.259Z</time></trkpt><trkpt lat="45.3389817" lon="8.8107067"><ele>113.0</ele><time>2026-03-22T10:58:51.259Z</time></trkpt><trkpt lat="45.3390883" lon="8.8107717"><ele>113.0</ele><time>2026-03-22T10:58:52.259Z</time></trkpt><trkpt lat="45.3391817" lon="8.81085"><ele>113.0</ele><time>2026-03-22T10:58:53.259Z</time></trkpt><trkpt lat="45.3392883" lon="8.8109067"><ele>113.0</ele><time>2026-03-22T10:58:54.259Z</time></trkpt><trkpt lat="45.3393933" lon="8.8109817"><ele>113.0</ele><time>2026-03-22T10:58:55.259Z</time></trkpt><trkpt lat="45.3394933" lon="8.81104"><ele>113.0</ele><time>2026-03-22T10:58:56.259Z</time></trkpt><trkpt lat="45.33962" lon="8.811085"><ele>112.75</ele><time>2026-03-22T10:58:57.259Z</time></trkpt><trkpt lat="45.33972" lon="8.8111817"><ele>112.5</ele><time>2026-03-22T10:58:58.259Z</time></trkpt><trkpt lat="45.3398317" lon="8.8112417"><ele>112.25</ele><time>2026-03-22T10:58:59.259Z</time></trkpt><trkpt lat="45.3399467" lon="8.8112967"><ele>112.0</ele><time>2026-03-22T10:59:00.259Z</time></trkpt><trkpt lat="45.3400517" lon="8.8113467"><ele>112.0</ele><time>2026-03-22T10:59:01.259Z</time></trkpt><trkpt lat="45.3401533" lon="8.811395"><ele>111.99999999999999</ele><time>2026-03-22T10:59:02.259Z</time></trkpt><trkpt lat="45.3402267" lon="8.8114633"><ele>111.99999999999999</ele><time>2026-03-22T10:59:03.259Z</time></trkpt><trkpt lat="45.3402883" lon="8.8115467"><ele>112.0</ele><time>2026-03-22T10:59:04.259Z</time></trkpt><trkpt lat="45.34038" lon="8.811675"><ele>112.0</ele><time>2026-03-22T10:59:06.259Z</time></trkpt><trkpt lat="45.340455" lon="8.811705"><ele>112.0</ele><time>2026-03-22T10:59:07.259Z</time></trkpt><trkpt lat="45.3405417" lon="8.8117"><ele>111.99999999999999</ele><time>2026-03-22T10:59:08.259Z</time></trkpt><trkpt lat="45.3406317" lon="8.8116533"><ele>111.99999999999999</ele><time>2026-03-22T10:59:09.259Z</time></trkpt><trkpt lat="45.340735" lon="8.8115767"><ele>112.0</ele><time>2026-03-22T10:59:10.259Z</time></trkpt><trkpt lat="45.34084" lon="8.811485"><ele>112.0</ele><time>2026-03-22T10:59:11.259Z</time></trkpt><trkpt lat="45.3409383" lon="8.8114017"><ele>112.0</ele><time>2026-03-22T10:59:12.259Z</time></trkpt><trkpt lat="45.3410383" lon="8.8113233"><ele>112.0</ele><time>2026-03-22T10:59:13.259Z</time></trkpt><trkpt lat="45.3411417" lon="8.8112467"><ele>112.0</ele><time>2026-03-22T10:59:14.259Z</time></trkpt><trkpt lat="45.3412383" lon="8.811175"><ele>112.0</ele><time>2026-03-22T10:59:15.259Z</time></trkpt><trkpt lat="45.341335" lon="8.8111"><ele>111.8</ele><time>2026-03-22T10:59:16.259Z</time></trkpt><trkpt lat="45.3414317" lon="8.811045"><ele>111.6</ele><time>2026-03-22T10:59:17.259Z</time></trkpt><trkpt lat="45.3415283" lon="8.8109983"><ele>111.39999999999999</ele><time>2026-03-22T10:59:18.259Z</time></trkpt><trkpt lat="45.341625" lon="8.8109717"><ele>111.19999999999999</ele><time>2026-03-22T10:59:19.259Z</time></trkpt><trkpt lat="45.3417233" lon="8.81095"><ele>111.0</ele><time>2026-03-22T10:59:20.259Z</time></trkpt><trkpt lat="45.341815" lon="8.81094"><ele>111.0</ele><time>2026-03-22T10:59:21.259Z</time></trkpt><trkpt lat="45.3419083" lon="8.810945"><ele>111.0</ele><time>2026-03-22T10:59:22.259Z</time></trkpt><trkpt lat="45.3419967" lon="8.8109483"><ele>111.0</ele><time>2026-03-22T10:59:23.259Z</time></trkpt><trkpt lat="45.3420817" lon="8.81095"><ele>111.0</ele><time>2026-03-22T10:59:24.259Z</time></trkpt><trkpt lat="45.3421583" lon="8.8109467"><ele>111.0</ele><time>2026-03-22T10:59:25.259Z</time></trkpt><trkpt lat="45.3422333" lon="8.8109433"><ele>111.0</ele><time>2026-03-22T10:59:26.259Z</time></trkpt><trkpt lat="45.3423133" lon="8.81094"><ele>111.0</ele><time>2026-03-22T10:59:27.259Z</time></trkpt><trkpt lat="45.3423983" lon="8.8109317"><ele>111.0</ele><time>2026-03-22T10:59:28.259Z</time></trkpt><trkpt lat="45.342485" lon="8.81093"><ele>111.0</ele><time>2026-03-22T10:59:29.259Z</time></trkpt><trkpt lat="45.3425617" lon="8.8109267"><ele>111.0</ele><time>2026-03-22T10:59:30.259Z</time></trkpt><trkpt lat="45.3426317" lon="8.8109217"><ele>111.0</ele><time>2026-03-22T10:59:31.259Z</time></trkpt><trkpt lat="45.3427" lon="8.8109133"><ele>111.0</ele><time>2026-03-22T10:59:32.259Z</time></trkpt><trkpt lat="45.3428033" lon="8.8109117"><ele>111.0</ele><time>2026-03-22T10:59:34.259Z</time></trkpt><trkpt lat="45.342885" lon="8.810885"><ele>111.0</ele><time>2026-03-22T10:59:36.259Z</time></trkpt><trkpt lat="45.3429567" lon="8.8108767"><ele>111.0</ele><time>2026-03-22T10:59:39.259Z</time></trkpt><trkpt lat="45.3430333" lon="8.8108833"><ele>111.0</ele><time>2026-03-22T10:59:50.259Z</time></trkpt><trkpt lat="45.3430117" lon="8.8109783"><ele>111.0</ele><time>2026-03-22T10:59:55.259Z</time></trkpt><trkpt lat="45.3429433" lon="8.810905"><ele>111.0</ele><time>2026-03-22T10:59:59.259Z</time></trkpt><trkpt lat="45.34283" lon="8.8108867"><ele>111.0</ele><time>2026-03-22T11:00:06.259Z</time></trkpt><trkpt lat="45.3427067" lon="8.8108983"><ele>111.0</ele><time>2026-03-22T11:00:08.259Z</time></trkpt><trkpt lat="45.3426217" lon="8.8109033"><ele>111.0</ele><time>2026-03-22T11:00:09.259Z</time></trkpt><trkpt lat="45.3425333" lon="8.8109033"><ele>111.0</ele><time>2026-03-22T11:00:10.259Z</time></trkpt><trkpt lat="45.3424533" lon="8.8109067"><ele>111.0</ele><time>2026-03-22T11:00:11.259Z</time></trkpt><trkpt lat="45.3423717" lon="8.81092"><ele>111.0</ele><time>2026-03-22T11:00:12.259Z</time></trkpt><trkpt lat="45.3422867" lon="8.8109267"><ele>111.0</ele><time>2026-03-22T11:00:13.259Z</time></trkpt><trkpt lat="45.3421967" lon="8.8109317"><ele>111.0</ele><time>2026-03-22T11:00:14.259Z</time></trkpt><trkpt lat="45.3421017" lon="8.81094"><ele>111.0</ele><time>2026-03-22T11:00:15.259Z</time></trkpt><trkpt lat="45.341995" lon="8.8109433"><ele>111.0</ele><time>2026-03-22T11:00:16.259Z</time></trkpt><trkpt lat="45.341895" lon="8.8109433"><ele>111.0</ele><time>2026-03-22T11:00:17.259Z</time></trkpt><trkpt lat="45.3417917" lon="8.8109467"><ele>111.0</ele><time>2026-03-22T11:00:18.259Z</time></trkpt><trkpt lat="45.3416883" lon="8.8109517"><ele>111.0</ele><time>2026-03-22T11:00:19.259Z</time></trkpt><trkpt lat="45.3415767" lon="8.8109667"><ele>111.0</ele><time>2026-03-22T11:00:20.26Z</time></trkpt><trkpt lat="45.3414717" lon="8.8109917"><ele>111.0</ele><time>2026-03-22T11:00:21.259Z</time></trkpt><trkpt lat="45.3413667" lon="8.811035"><ele>111.25</ele><time>2026-03-22T11:00:22.259Z</time></trkpt><trkpt lat="45.341265" lon="8.8110917"><ele>111.5</ele><time>2026-03-22T11:00:23.259Z</time></trkpt><trkpt lat="45.34116" lon="8.8111617"><ele>111.75</ele><time>2026-03-22T11:00:24.259Z</time></trkpt><trkpt lat="45.3410567" lon="8.811245"><ele>112.0</ele><time>2026-03-22T11:00:25.259Z</time></trkpt><trkpt lat="45.3409567" lon="8.8113283"><ele>112.0</ele><time>2026-03-22T11:00:26.259Z</time></trkpt><trkpt lat="45.34086" lon="8.8114183"><ele>111.99999999999999</ele><time>2026-03-22T11:00:27.259Z</time></trkpt><trkpt lat="45.3407667" lon="8.8115083"><ele>111.99999999999999</ele><time>2026-03-22T11:00:28.259Z</time></trkpt><trkpt lat="45.3406783" lon="8.81158"><ele>112.0</ele><time>2026-03-22T11:00:29.259Z</time></trkpt><trkpt lat="45.3405983" lon="8.8116383"><ele>112.0</ele><time>2026-03-22T11:00:30.259Z</time></trkpt><trkpt lat="45.3405133" lon="8.811675"><ele>112.0</ele><time>2026-03-22T11:00:31.259Z</time></trkpt><trkpt lat="45.340425" lon="8.8116867"><ele>111.99999999999999</ele><time>2026-03-22T11:00:32.259Z</time></trkpt><trkpt lat="45.34034" lon="8.8116533"><ele>111.99999999999999</ele><time>2026-03-22T11:00:33.259Z</time></trkpt><trkpt lat="45.34027" lon="8.8115667"><ele>112.0</ele><time>2026-03-22T11:00:34.259Z</time></trkpt><trkpt lat="45.340195" lon="8.811475"><ele>112.0</ele><time>2026-03-22T11:00:35.259Z</time></trkpt><trkpt lat="45.3401067" lon="8.8113767"><ele>112.0</ele><time>2026-03-22T11:00:36.259Z</time></trkpt><trkpt lat="45.34" lon="8.8112917"><ele>112.0</ele><time>2026-03-22T11:00:37.259Z</time></trkpt><trkpt lat="45.33987" lon="8.811215"><ele>112.0</ele><time>2026-03-22T11:00:38.259Z</time></trkpt><trkpt lat="45.3397483" lon="8.8111533"><ele>112.0</ele><time>2026-03-22T11:00:39.259Z</time></trkpt><trkpt lat="45.339625" lon="8.811085"><ele>112.25</ele><time>2026-03-22T11:00:40.259Z</time></trkpt><trkpt lat="45.3395117" lon="8.811015"><ele>112.5</ele><time>2026-03-22T11:00:41.259Z</time></trkpt><trkpt lat="45.3394017" lon="8.8109467"><ele>112.75</ele><time>2026-03-22T11:00:42.259Z</time></trkpt><trkpt lat="45.3393017" lon="8.810885"><ele>113.0</ele><time>2026-03-22T11:00:43.259Z</time></trkpt><trkpt lat="45.339205" lon="8.8108317"><ele>112.99999999999999</ele><time>2026-03-22T11:00:44.259Z</time></trkpt><trkpt lat="45.339115" lon="8.8107917"><ele>113.0</ele><time>2026-03-22T11:00:45.259Z</time></trkpt><trkpt lat="45.3390367" lon="8.8107567"><ele>113.0</ele><time>2026-03-22T11:00:46.259Z</time></trkpt><trkpt lat="45.338965" lon="8.810705"><ele>113.0</ele><time>2026-03-22T11:00:47.259Z</time></trkpt><trkpt lat="45.338895" lon="8.8106633"><ele>112.99999999999999</ele><time>2026-03-22T11:00:48.259Z</time></trkpt><trkpt lat="45.3388317" lon="8.810635"><ele>113.0</ele><time>2026-03-22T11:00:49.259Z</time></trkpt><trkpt lat="45.3387533" lon="8.8106017"><ele>113.0</ele><time>2026-03-22T11:00:50.259Z</time></trkpt><trkpt lat="45.338675" lon="8.81055"><ele>113.00000000000001</ele><time>2026-03-22T11:00:51.259Z</time></trkpt><trkpt lat="45.3385767" lon="8.81048"><ele>113.00000000000001</ele><time>2026-03-22T11:00:52.259Z</time></trkpt><trkpt lat="45.3384717" lon="8.8104133"><ele>113.0</ele><time>2026-03-22T11:00:53.259Z</time></trkpt><trkpt lat="45.3383717" lon="8.81035"><ele>113.0</ele><time>2026-03-22T11:00:54.259Z</time></trkpt><trkpt lat="45.338275" lon="8.810285"><ele>113.0</ele><time>2026-03-22T11:00:55.259Z</time></trkpt><trkpt lat="45.3381833" lon="8.8102333"><ele>113.00000000000001</ele><time>2026-03-22T11:00:56.259Z</time></trkpt><trkpt lat="45.3380867" lon="8.810175"><ele>113.00000000000001</ele><time>2026-03-22T11:00:57.259Z</time></trkpt><trkpt lat="45.3379817" lon="8.81011"><ele>113.0</ele><time>2026-03-22T11:00:58.259Z</time></trkpt><trkpt lat="45.3378833" lon="8.810055"><ele>113.0</ele><time>2026-03-22T11:00:59.259Z</time></trkpt><trkpt lat="45.3377933" lon="8.809995"><ele>112.66666666666666</ele><time>2026-03-22T11:01:00.259Z</time></trkpt><trkpt lat="45.3377133" lon="8.8099567"><ele>112.33333333333333</ele><time>2026-03-22T11:01:01.259Z</time></trkpt><trkpt lat="45.3376217" lon="8.8098983"><ele>112.0</ele><time>2026-03-22T11:01:03.259Z</time></trkpt><trkpt lat="45.3376333" lon="8.8097983"><ele>111.66666666666666</ele><time>2026-03-22T11:01:05.259Z</time></trkpt><trkpt lat="45.3376767" lon="8.8097267"><ele>111.33333333333333</ele><time>2026-03-22T11:01:06.259Z</time></trkpt><trkpt lat="45.33774" lon="8.8096267"><ele>111.0</ele><time>2026-03-22T11:01:07.259Z</time></trkpt><trkpt lat="45.3378133" lon="8.8094967"><ele>111.0</ele><time>2026-03-22T11:01:08.259Z</time></trkpt><trkpt lat="45.3378967" lon="8.8093433"><ele>111.0</ele><time>2026-03-22T11:01:09.259Z</time></trkpt><trkpt lat="45.3379833" lon="8.8091717"><ele>111.0</ele><time>2026-03-22T11:01:10.259Z</time></trkpt><trkpt lat="45.3380733" lon="8.80899"><ele>111.0</ele><time>2026-03-22T11:01:11.259Z</time></trkpt><trkpt lat="45.3381633" lon="8.8088"><ele>110.66666666666666</ele><time>2026-03-22T11:01:12.259Z</time></trkpt><trkpt lat="45.3382517" lon="8.8086033"><ele>110.33333333333333</ele><time>2026-03-22T11:01:13.259Z</time></trkpt><trkpt lat="45.33834" lon="8.8084183"><ele>110.0</ele><time>2026-03-22T11:01:14.259Z</time></trkpt><trkpt lat="45.338425" lon="8.808225"><ele>110.0</ele><time>2026-03-22T11:01:15.259Z</time></trkpt><trkpt lat="45.3384983" lon="8.8080367"><ele>110.0</ele><time>2026-03-22T11:01:16.259Z</time></trkpt><trkpt lat="45.3385717" lon="8.8078417"><ele>110.0</ele><time>2026-03-22T11:01:17.259Z</time></trkpt><trkpt lat="45.3386417" lon="8.8076483"><ele>110.0</ele><time>2026-03-22T11:01:18.259Z</time></trkpt><trkpt lat="45.33871" lon="8.8074517"><ele>110.0</ele><time>2026-03-22T11:01:19.259Z</time></trkpt><trkpt lat="45.338785" lon="8.8072417"><ele>110.0</ele><time>2026-03-22T11:01:20.259Z</time></trkpt><trkpt lat="45.3388583" lon="8.8070433"><ele>109.66666666666666</ele><time>2026-03-22T11:01:21.259Z</time></trkpt><trkpt lat="45.338935" lon="8.806835"><ele>109.33333333333334</ele><time>2026-03-22T11:01:22.259Z</time></trkpt><trkpt lat="45.3389967" lon="8.8066167"><ele>109.0</ele><time>2026-03-22T11:01:23.259Z</time></trkpt><trkpt lat="45.3390667" lon="8.806405"><ele>108.66666666666667</ele><time>2026-03-22T11:01:24.259Z</time></trkpt><trkpt lat="45.3391383" lon="8.8061933"><ele>108.33333333333334</ele><time>2026-03-22T11:01:25.258Z</time></trkpt><trkpt lat="45.3392067" lon="8.8059933"><ele>108.0</ele><time>2026-03-22T11:01:26.258Z</time></trkpt><trkpt lat="45.3392783" lon="8.8058017"><ele>108.5</ele><time>2026-03-22T11:01:27.258Z</time></trkpt><trkpt lat="45.339345" lon="8.80561"><ele>109.0</ele><time>2026-03-22T11:01:28.258Z</time></trkpt><trkpt lat="45.3394117" lon="8.8054133"><ele>109.5</ele><time>2026-03-22T11:01:29.258Z</time></trkpt><trkpt lat="45.3394783" lon="8.8052317"><ele>110.0</ele><time>2026-03-22T11:01:30.258Z</time></trkpt><trkpt lat="45.3395417" lon="8.8050617"><ele>110.25</ele><time>2026-03-22T11:01:31.258Z</time></trkpt><trkpt lat="45.3396167" lon="8.8048983"><ele>110.5</ele><time>2026-03-22T11:01:32.258Z</time></trkpt><trkpt lat="45.33969" lon="8.8047367"><ele>110.75</ele><time>2026-03-22T11:01:33.258Z</time></trkpt><trkpt lat="45.3397683" lon="8.8045883"><ele>111.0</ele><time>2026-03-22T11:01:34.258Z</time></trkpt><trkpt lat="45.3398417" lon="8.80445"><ele>110.5</ele><time>2026-03-22T11:01:35.258Z</time></trkpt><trkpt lat="45.3399267" lon="8.804325"><ele>110.0</ele><time>2026-03-22T11:01:36.258Z</time></trkpt><trkpt lat="45.340015" lon="8.8042033"><ele>109.5</ele><time>2026-03-22T11:01:37.258Z</time></trkpt><trkpt lat="45.3401017" lon="8.804085"><ele>109.0</ele><time>2026-03-22T11:01:38.258Z</time></trkpt><trkpt lat="45.3401767" lon="8.8039667"><ele>109.00000000000001</ele><time>2026-03-22T11:01:39.258Z</time></trkpt><trkpt lat="45.34024" lon="8.8038667"><ele>109.0</ele><time>2026-03-22T11:01:40.258Z</time></trkpt><trkpt lat="45.3402917" lon="8.8037717"><ele>109.0</ele><time>2026-03-22T11:01:41.258Z</time></trkpt><trkpt lat="45.34033" lon="8.8036917"><ele>109.0</ele><time>2026-03-22T11:01:42.258Z</time></trkpt><trkpt lat="45.3403867" lon="8.803575"><ele>109.00000000000001</ele><time>2026-03-22T11:01:44.258Z</time></trkpt><trkpt lat="45.3404583" lon="8.8034767"><ele>109.0</ele><time>2026-03-22T11:02:08.258Z</time></trkpt><trkpt lat="45.340515" lon="8.8034333"><ele>109.2</ele><time>2026-03-22T11:02:09.258Z</time></trkpt><trkpt lat="45.340585" lon="8.8033883"><ele>109.4</ele><time>2026-03-22T11:02:10.258Z</time></trkpt><trkpt lat="45.3406683" lon="8.8033367"><ele>109.6</ele><time>2026-03-22T11:02:11.258Z</time></trkpt><trkpt lat="45.34075" lon="8.80327"><ele>109.8</ele><time>2026-03-22T11:02:12.258Z</time></trkpt><trkpt lat="45.3408383" lon="8.803195"><ele>110.0</ele><time>2026-03-22T11:02:13.258Z</time></trkpt><trkpt lat="45.34094" lon="8.80312"><ele>110.0</ele><time>2026-03-22T11:02:14.258Z</time></trkpt><trkpt lat="45.3410433" lon="8.80303"><ele>110.0</ele><time>2026-03-22T11:02:15.258Z</time></trkpt><trkpt lat="45.3411433" lon="8.8029517"><ele>110.0</ele><time>2026-03-22T11:02:16.258Z</time></trkpt><trkpt lat="45.341245" lon="8.802875"><ele>110.0</ele><time>2026-03-22T11:02:17.258Z</time></trkpt><trkpt lat="45.3413383" lon="8.802815"><ele>110.2</ele><time>2026-03-22T11:02:18.258Z</time></trkpt><trkpt lat="45.34143" lon="8.8027483"><ele>110.4</ele><time>2026-03-22T11:02:19.258Z</time></trkpt><trkpt lat="45.3415233" lon="8.8026833"><ele>110.6</ele><time>2026-03-22T11:02:20.258Z</time></trkpt><trkpt lat="45.341615" lon="8.802615"><ele>110.8</ele><time>2026-03-22T11:02:21.258Z</time></trkpt><trkpt lat="45.3416983" lon="8.8025467"><ele>111.0</ele><time>2026-03-22T11:02:22.258Z</time></trkpt><trkpt lat="45.3417817" lon="8.8024733"><ele>111.0</ele><time>2026-03-22T11:02:23.258Z</time></trkpt><trkpt lat="45.34186" lon="8.8024067"><ele>111.0</ele><time>2026-03-22T11:02:24.258Z</time></trkpt><trkpt lat="45.3419417" lon="8.8023433"><ele>111.0</ele><time>2026-03-22T11:02:25.258Z</time></trkpt><trkpt lat="45.3420167" lon="8.8022817"><ele>111.0</ele><time>2026-03-22T11:02:26.258Z</time></trkpt><trkpt lat="45.3420967" lon="8.8022217"><ele>111.0</ele><time>2026-03-22T11:02:27.258Z</time></trkpt><trkpt lat="45.3421667" lon="8.80217"><ele>111.0</ele><time>2026-03-22T11:02:28.258Z</time></trkpt><trkpt lat="45.3422267" lon="8.8021167"><ele>111.4</ele><time>2026-03-22T11:02:29.258Z</time></trkpt><trkpt lat="45.34233" lon="8.8020917"><ele>111.8</ele><time>2026-03-22T11:02:31.258Z</time></trkpt><trkpt lat="45.342435" lon="8.8022133"><ele>112.20000000000002</ele><time>2026-03-22T11:02:33.258Z</time></trkpt><trkpt lat="45.3424783" lon="8.8022983"><ele>112.60000000000001</ele><time>2026-03-22T11:02:34.258Z</time></trkpt><trkpt lat="45.3425167" lon="8.8023933"><ele>113.0</ele><time>2026-03-22T11:02:35.258Z</time></trkpt><trkpt lat="45.3425567" lon="8.802495"><ele>112.99999999999999</ele><time>2026-03-22T11:02:36.258Z</time></trkpt><trkpt lat="45.3426133" lon="8.802585"><ele>113.0</ele><time>2026-03-22T11:02:37.258Z</time></trkpt><trkpt lat="45.34268" lon="8.8026367"><ele>113.0</ele><time>2026-03-22T11:02:38.258Z</time></trkpt><trkpt lat="45.34275" lon="8.8026567"><ele>113.0</ele><time>2026-03-22T11:02:39.258Z</time></trkpt><trkpt lat="45.3428217" lon="8.8026483"><ele>112.99999999999999</ele><time>2026-03-22T11:02:40.258Z</time></trkpt><trkpt lat="45.3428917" lon="8.8026017"><ele>113.0</ele><time>2026-03-22T11:02:41.258Z</time></trkpt><trkpt lat="45.342965" lon="8.8025417"><ele>112.80000000000001</ele><time>2026-03-22T11:02:42.258Z</time></trkpt><trkpt lat="45.3430483" lon="8.8024633"><ele>112.60000000000001</ele><time>2026-03-22T11:02:43.258Z</time></trkpt><trkpt lat="45.3431217" lon="8.8023967"><ele>112.39999999999999</ele><time>2026-03-22T11:02:44.258Z</time></trkpt><trkpt lat="45.3431967" lon="8.80233"><ele>112.19999999999999</ele><time>2026-03-22T11:02:45.258Z</time></trkpt><trkpt lat="45.3432667" lon="8.8022567"><ele>112.0</ele><time>2026-03-22T11:02:46.258Z</time></trkpt><trkpt lat="45.343345" lon="8.8021983"><ele>112.0</ele><time>2026-03-22T11:02:47.258Z</time></trkpt><trkpt lat="45.3434283" lon="8.80213"><ele>111.99999999999999</ele><time>2026-03-22T11:02:48.258Z</time></trkpt><trkpt lat="45.3434933" lon="8.80209"><ele>111.99999999999999</ele><time>2026-03-22T11:02:49.258Z</time></trkpt><trkpt lat="45.3435617" lon="8.80198"><ele>112.0</ele><time>2026-03-22T11:02:51.258Z</time></trkpt><trkpt lat="45.3435083" lon="8.8018167"><ele>112.0</ele><time>2026-03-22T11:02:53.258Z</time></trkpt><trkpt lat="45.3434483" lon="8.8016833"><ele>112.19999999999999</ele><time>2026-03-22T11:02:54.258Z</time></trkpt><trkpt lat="45.3433967" lon="8.8015633"><ele>112.39999999999999</ele><time>2026-03-22T11:02:55.258Z</time></trkpt><trkpt lat="45.3433433" lon="8.8014683"><ele>112.60000000000001</ele><time>2026-03-22T11:02:56.258Z</time></trkpt><trkpt lat="45.343305" lon="8.8013867"><ele>112.80000000000001</ele><time>2026-03-22T11:02:57.258Z</time></trkpt><trkpt lat="45.3433233" lon="8.80126"><ele>113.0</ele><time>2026-03-22T11:02:59.258Z</time></trkpt><trkpt lat="45.34347" lon="8.801145"><ele>113.0</ele><time>2026-03-22T11:03:01.258Z</time></trkpt><trkpt lat="45.3435833" lon="8.8010617"><ele>113.0</ele><time>2026-03-22T11:03:02.258Z</time></trkpt><trkpt lat="45.3437067" lon="8.8009783"><ele>113.0</ele><time>2026-03-22T11:03:03.257Z</time></trkpt><trkpt lat="45.34384" lon="8.8008833"><ele>113.0</ele><time>2026-03-22T11:03:04.258Z</time></trkpt><trkpt lat="45.3439683" lon="8.8007833"><ele>112.75</ele><time>2026-03-22T11:03:05.258Z</time></trkpt><trkpt lat="45.3440883" lon="8.8006833"><ele>112.5</ele><time>2026-03-22T11:03:06.258Z</time></trkpt><trkpt lat="45.3442167" lon="8.8005817"><ele>112.25</ele><time>2026-03-22T11:03:07.258Z</time></trkpt><trkpt lat="45.3443417" lon="8.8004817"><ele>112.0</ele><time>2026-03-22T11:03:08.258Z</time></trkpt><trkpt lat="45.3444733" lon="8.8003817"><ele>112.0</ele><time>2026-03-22T11:03:09.258Z</time></trkpt><trkpt lat="45.3445983" lon="8.8002883"><ele>112.0</ele><time>2026-03-22T11:03:10.258Z</time></trkpt><trkpt lat="45.3447117" lon="8.8002017"><ele>112.0</ele><time>2026-03-22T11:03:11.258Z</time></trkpt><trkpt lat="45.344825" lon="8.8001267"><ele>112.0</ele><time>2026-03-22T11:03:12.258Z</time></trkpt><trkpt lat="45.34492" lon="8.8000517"><ele>112.19999999999999</ele><time>2026-03-22T11:03:13.258Z</time></trkpt><trkpt lat="45.345015" lon="8.7999783"><ele>112.39999999999999</ele><time>2026-03-22T11:03:14.258Z</time></trkpt><trkpt lat="45.345095" lon="8.7999083"><ele>112.60000000000001</ele><time>2026-03-22T11:03:15.258Z</time></trkpt><trkpt lat="45.3451633" lon="8.7998533"><ele>112.80000000000001</ele><time>2026-03-22T11:03:16.258Z</time></trkpt><trkpt lat="45.3452283" lon="8.7998033"><ele>113.0</ele><time>2026-03-22T11:03:17.258Z</time></trkpt><trkpt lat="45.3452967" lon="8.79968"><ele>113.0</ele><time>2026-03-22T11:03:19.258Z</time></trkpt><trkpt lat="45.345265" lon="8.7994983"><ele>113.0</ele><time>2026-03-22T11:03:21.258Z</time></trkpt><trkpt lat="45.3452183" lon="8.7993583"><ele>113.0</ele><time>2026-03-22T11:03:22.258Z</time></trkpt><trkpt lat="45.34516" lon="8.7992133"><ele>113.0</ele><time>2026-03-22T11:03:23.258Z</time></trkpt><trkpt lat="45.3450867" lon="8.7990533"><ele>112.75</ele><time>2026-03-22T11:03:24.258Z</time></trkpt><trkpt lat="45.345025" lon="8.7989033"><ele>112.5</ele><time>2026-03-22T11:03:25.258Z</time></trkpt><trkpt lat="45.34495" lon="8.7986967"><ele>112.25</ele><time>2026-03-22T11:03:26.258Z</time></trkpt><trkpt lat="45.3448817" lon="8.7985283"><ele>112.0</ele><time>2026-03-22T11:03:27.258Z</time></trkpt><trkpt lat="45.3448183" lon="8.7983683"><ele>112.5</ele><time>2026-03-22T11:03:28.258Z</time></trkpt><trkpt lat="45.34476" lon="8.79821"><ele>113.0</ele><time>2026-03-22T11:03:29.258Z</time></trkpt><trkpt lat="45.3446917" lon="8.7980433"><ele>113.5</ele><time>2026-03-22T11:03:30.258Z</time></trkpt><trkpt lat="45.344635" lon="8.79788"><ele>114.0</ele><time>2026-03-22T11:03:31.258Z</time></trkpt><trkpt lat="45.3445683" lon="8.7977083"><ele>113.0</ele><time>2026-03-22T11:03:32.258Z</time></trkpt><trkpt lat="45.3445067" lon="8.7975283"><ele>112.0</ele><time>2026-03-22T11:03:33.258Z</time></trkpt><trkpt lat="45.3444433" lon="8.79735"><ele>111.0</ele><time>2026-03-22T11:03:34.258Z</time></trkpt><trkpt lat="45.3443683" lon="8.79718"><ele>110.0</ele><time>2026-03-22T11:03:35.258Z</time></trkpt><trkpt lat="45.3443" lon="8.7970117"><ele>110.0</ele><time>2026-03-22T11:03:36.258Z</time></trkpt><trkpt lat="45.344235" lon="8.7968433"><ele>110.0</ele><time>2026-03-22T11:03:37.258Z</time></trkpt><trkpt lat="45.3441733" lon="8.7966983"><ele>110.0</ele><time>2026-03-22T11:03:38.258Z</time></trkpt><trkpt lat="45.3441167" lon="8.7965683"><ele>110.0</ele><time>2026-03-22T11:03:39.258Z</time></trkpt><trkpt lat="45.3440733" lon="8.7964433"><ele>110.4</ele><time>2026-03-22T11:03:40.258Z</time></trkpt><trkpt lat="45.3440217" lon="8.7963283"><ele>110.8</ele><time>2026-03-22T11:03:41.258Z</time></trkpt><trkpt lat="45.3439767" lon="8.7962233"><ele>111.19999999999999</ele><time>2026-03-22T11:03:42.258Z</time></trkpt><trkpt lat="45.3439433" lon="8.796125"><ele>111.6</ele><time>2026-03-22T11:03:43.258Z</time></trkpt><trkpt lat="45.3439317" lon="8.7959767"><ele>112.0</ele><time>2026-03-22T11:03:45.258Z</time></trkpt><trkpt lat="45.344065" lon="8.7958367"><ele>112.0</ele><time>2026-03-22T11:03:47.258Z</time></trkpt><trkpt lat="45.3441933" lon="8.7957717"><ele>112.0</ele><time>2026-03-22T11:03:48.258Z</time></trkpt><trkpt lat="45.3443217" lon="8.7956867"><ele>112.0</ele><time>2026-03-22T11:03:49.258Z</time></trkpt><trkpt lat="45.3444467" lon="8.7955967"><ele>112.0</ele><time>2026-03-22T11:03:50.258Z</time></trkpt><trkpt lat="45.3445733" lon="8.79551"><ele>112.0</ele><time>2026-03-22T11:03:51.258Z</time></trkpt><trkpt lat="45.3447017" lon="8.7954133"><ele>112.0</ele><time>2026-03-22T11:03:52.258Z</time></trkpt><trkpt lat="45.3448383" lon="8.7953033"><ele>112.0</ele><time>2026-03-22T11:03:53.258Z</time></trkpt><trkpt lat="45.3449767" lon="8.7951917"><ele>112.25</ele><time>2026-03-22T11:03:54.258Z</time></trkpt><trkpt lat="45.3451017" lon="8.7950933"><ele>112.5</ele><time>2026-03-22T11:03:55.258Z</time></trkpt><trkpt lat="45.3452217" lon="8.7950017"><ele>112.75</ele><time>2026-03-22T11:03:56.258Z</time></trkpt><trkpt lat="45.3453333" lon="8.7949117"><ele>113.0</ele><time>2026-03-22T11:03:57.258Z</time></trkpt><trkpt lat="45.3454333" lon="8.7948317"><ele>113.0</ele><time>2026-03-22T11:03:58.258Z</time></trkpt><trkpt lat="45.345515" lon="8.79476"><ele>113.00000000000001</ele><time>2026-03-22T11:03:59.258Z</time></trkpt><trkpt lat="45.3456083" lon="8.7947033"><ele>113.00000000000001</ele><time>2026-03-22T11:04:00.258Z</time></trkpt><trkpt lat="45.3457067" lon="8.79469"><ele>113.0</ele><time>2026-03-22T11:04:01.258Z</time></trkpt><trkpt lat="45.3458067" lon="8.7946783"><ele>113.0</ele><time>2026-03-22T11:04:02.258Z</time></trkpt><trkpt lat="45.34593" lon="8.7946267"><ele>113.0</ele><time>2026-03-22T11:04:03.258Z</time></trkpt><trkpt lat="45.3460717" lon="8.7945333"><ele>113.0</ele><time>2026-03-22T11:04:04.258Z</time></trkpt><trkpt lat="45.3462183" lon="8.794435"><ele>113.0</ele><time>2026-03-22T11:04:05.258Z</time></trkpt><trkpt lat="45.3463917" lon="8.7943217"><ele>113.0</ele><time>2026-03-22T11:04:06.258Z</time></trkpt><trkpt lat="45.3465683" lon="8.7942083"><ele>113.0</ele><time>2026-03-22T11:04:07.258Z</time></trkpt><trkpt lat="45.3467333" lon="8.7941083"><ele>113.0</ele><time>2026-03-22T11:04:08.258Z</time></trkpt><trkpt lat="45.3468817" lon="8.794015"><ele>113.0</ele><time>2026-03-22T11:04:09.258Z</time></trkpt><trkpt lat="45.3470167" lon="8.793935"><ele>113.0</ele><time>2026-03-22T11:04:10.258Z</time></trkpt><trkpt lat="45.3471383" lon="8.793865"><ele>113.0</ele><time>2026-03-22T11:04:11.258Z</time></trkpt><trkpt lat="45.34725" lon="8.7937883"><ele>113.0</ele><time>2026-03-22T11:04:12.258Z</time></trkpt><trkpt lat="45.3473517" lon="8.7937033"><ele>113.0</ele><time>2026-03-22T11:04:13.258Z</time></trkpt><trkpt lat="45.34746" lon="8.7936283"><ele>113.00000000000001</ele><time>2026-03-22T11:04:14.258Z</time></trkpt><trkpt lat="45.34757" lon="8.79355"><ele>113.00000000000001</ele><time>2026-03-22T11:04:15.258Z</time></trkpt><trkpt lat="45.34766" lon="8.7934933"><ele>113.0</ele><time>2026-03-22T11:04:16.258Z</time></trkpt><trkpt lat="45.3477467" lon="8.79344"><ele>113.0</ele><time>2026-03-22T11:04:17.258Z</time></trkpt><trkpt lat="45.3478083" lon="8.7933683"><ele>113.0</ele><time>2026-03-22T11:04:18.258Z</time></trkpt><trkpt lat="45.3478583" lon="8.7933017"><ele>113.00000000000001</ele><time>2026-03-22T11:04:19.258Z</time></trkpt><trkpt lat="45.347885" lon="8.793205"><ele>113.00000000000001</ele><time>2026-03-22T11:04:20.258Z</time></trkpt><trkpt lat="45.3478917" lon="8.793075"><ele>113.0</ele><time>2026-03-22T11:04:21.258Z</time></trkpt><trkpt lat="45.347895" lon="8.7928983"><ele>113.0</ele><time>2026-03-22T11:04:22.258Z</time></trkpt><trkpt lat="45.3478833" lon="8.7927133"><ele>113.75</ele><time>2026-03-22T11:04:23.258Z</time></trkpt><trkpt lat="45.3478683" lon="8.79252"><ele>114.5</ele><time>2026-03-22T11:04:24.258Z</time></trkpt><trkpt lat="45.3478433" lon="8.7923117"><ele>115.25</ele><time>2026-03-22T11:04:25.258Z</time></trkpt><trkpt lat="45.3478183" lon="8.7920867"><ele>116.0</ele><time>2026-03-22T11:04:26.258Z</time></trkpt><trkpt lat="45.3477933" lon="8.7918433"><ele>115.0</ele><time>2026-03-22T11:04:27.258Z</time></trkpt><trkpt lat="45.34776" lon="8.7916033"><ele>114.0</ele><time>2026-03-22T11:04:28.258Z</time></trkpt><trkpt lat="45.3477333" lon="8.7913767"><ele>113.0</ele><time>2026-03-22T11:04:29.258Z</time></trkpt><trkpt lat="45.3477083" lon="8.7911433"><ele>112.33333333333333</ele><time>2026-03-22T11:04:30.258Z</time></trkpt><trkpt lat="45.347695" lon="8.79092"><ele>111.66666666666666</ele><time>2026-03-22T11:04:31.258Z</time></trkpt><trkpt lat="45.3476633" lon="8.7907083"><ele>111.0</ele><time>2026-03-22T11:04:32.258Z</time></trkpt><trkpt lat="45.347645" lon="8.790475"><ele>111.0</ele><time>2026-03-22T11:04:33.258Z</time></trkpt><trkpt lat="45.3476217" lon="8.7902367"><ele>111.0</ele><time>2026-03-22T11:04:34.258Z</time></trkpt><trkpt lat="45.3475833" lon="8.7899917"><ele>111.0</ele><time>2026-03-22T11:04:35.258Z</time></trkpt><trkpt lat="45.3475467" lon="8.789745"><ele>111.33333333333334</ele><time>2026-03-22T11:04:36.258Z</time></trkpt><trkpt lat="45.3475217" lon="8.7895"><ele>111.66666666666667</ele><time>2026-03-22T11:04:37.258Z</time></trkpt><trkpt lat="45.3474967" lon="8.7892667"><ele>112.0</ele><time>2026-03-22T11:04:38.259Z</time></trkpt><trkpt lat="45.3474633" lon="8.789045"><ele>112.0</ele><time>2026-03-22T11:04:39.258Z</time></trkpt><trkpt lat="45.3474417" lon="8.7888233"><ele>112.0</ele><time>2026-03-22T11:04:40.258Z</time></trkpt><trkpt lat="45.3474183" lon="8.7886233"><ele>112.0</ele><time>2026-03-22T11:04:41.258Z</time></trkpt><trkpt lat="45.3473917" lon="8.788435"><ele>112.0</ele><time>2026-03-22T11:04:42.258Z</time></trkpt><trkpt lat="45.34737" lon="8.78825"><ele>112.0</ele><time>2026-03-22T11:04:43.258Z</time></trkpt><trkpt lat="45.3473483" lon="8.7880833"><ele>112.0</ele><time>2026-03-22T11:04:44.258Z</time></trkpt><trkpt lat="45.34733" lon="8.7879117"><ele>112.0</ele><time>2026-03-22T11:04:45.258Z</time></trkpt><trkpt lat="45.3473067" lon="8.787755"><ele>112.0</ele><time>2026-03-22T11:04:46.258Z</time></trkpt><trkpt lat="45.34729" lon="8.787595"><ele>112.16666666666667</ele><time>2026-03-22T11:04:47.258Z</time></trkpt><trkpt lat="45.347265" lon="8.7874567"><ele>112.33333333333334</ele><time>2026-03-22T11:04:48.258Z</time></trkpt><trkpt lat="45.3472317" lon="8.7873417"><ele>112.5</ele><time>2026-03-22T11:04:49.258Z</time></trkpt><trkpt lat="45.347185" lon="8.7872467"><ele>112.66666666666666</ele><time>2026-03-22T11:04:50.258Z</time></trkpt><trkpt lat="45.3471483" lon="8.7871517"><ele>112.83333333333333</ele><time>2026-03-22T11:04:51.258Z</time></trkpt><trkpt lat="45.3471083" lon="8.78703"><ele>113.0</ele><time>2026-03-22T11:04:53.258Z</time></trkpt><trkpt lat="45.34715" lon="8.786945"><ele>113.2</ele><time>2026-03-22T11:04:55.258Z</time></trkpt><trkpt lat="45.3472267" lon="8.7868417"><ele>113.4</ele><time>2026-03-22T11:04:57.258Z</time></trkpt><trkpt lat="45.3472767" lon="8.786765"><ele>113.60000000000001</ele><time>2026-03-22T11:04:58.258Z</time></trkpt><trkpt lat="45.34734" lon="8.78667"><ele>113.80000000000001</ele><time>2026-03-22T11:04:59.258Z</time></trkpt><trkpt lat="45.3474133" lon="8.786575"><ele>114.0</ele><time>2026-03-22T11:05:00.258Z</time></trkpt><trkpt lat="45.347495" lon="8.7864617"><ele>114.0</ele><time>2026-03-22T11:05:01.258Z</time></trkpt><trkpt lat="45.347575" lon="8.7863483"><ele>114.0</ele><time>2026-03-22T11:05:02.258Z</time></trkpt><trkpt lat="45.3476617" lon="8.7862167"><ele>114.0</ele><time>2026-03-22T11:05:03.258Z</time></trkpt><trkpt lat="45.34775" lon="8.786085"><ele>114.0</ele><time>2026-03-22T11:05:04.258Z</time></trkpt><trkpt lat="45.3478333" lon="8.7859583"><ele>113.75</ele><time>2026-03-22T11:05:05.258Z</time></trkpt><trkpt lat="45.3479267" lon="8.7858267"><ele>113.5</ele><time>2026-03-22T11:05:06.258Z</time></trkpt><trkpt lat="45.3480117" lon="8.7856883"><ele>113.25</ele><time>2026-03-22T11:05:07.258Z</time></trkpt><trkpt lat="45.3481067" lon="8.7855583"><ele>113.0</ele><time>2026-03-22T11:05:08.258Z</time></trkpt><trkpt lat="45.348195" lon="8.7854183"><ele>113.0</ele><time>2026-03-22T11:05:09.258Z</time></trkpt><trkpt lat="45.3482783" lon="8.78529"><ele>113.0</ele><time>2026-03-22T11:05:10.258Z</time></trkpt><trkpt lat="45.348365" lon="8.785165"><ele>113.0</ele><time>2026-03-22T11:05:11.258Z</time></trkpt><trkpt lat="45.348455" lon="8.7850267"><ele>113.0</ele><time>2026-03-22T11:05:12.258Z</time></trkpt><trkpt lat="45.3485417" lon="8.784895"><ele>113.0</ele><time>2026-03-22T11:05:13.258Z</time></trkpt><trkpt lat="45.3486217" lon="8.784775"><ele>113.00000000000001</ele><time>2026-03-22T11:05:14.258Z</time></trkpt><trkpt lat="45.3487033" lon="8.78466"><ele>113.00000000000001</ele><time>2026-03-22T11:05:15.258Z</time></trkpt><trkpt lat="45.3487667" lon="8.7845517"><ele>113.0</ele><time>2026-03-22T11:05:16.258Z</time></trkpt><trkpt lat="45.348835" lon="8.784455"><ele>113.0</ele><time>2026-03-22T11:05:17.258Z</time></trkpt><trkpt lat="45.3488933" lon="8.784355"><ele>112.99999999999999</ele><time>2026-03-22T11:05:18.258Z</time></trkpt><trkpt lat="45.3489633" lon="8.784285"><ele>113.0</ele><time>2026-03-22T11:05:19.258Z</time></trkpt><trkpt lat="45.3490183" lon="8.78424"><ele>113.0</ele><time>2026-03-22T11:05:20.258Z</time></trkpt><trkpt lat="45.349095" lon="8.784245"><ele>113.0</ele><time>2026-03-22T11:05:21.258Z</time></trkpt><trkpt lat="45.34916" lon="8.7842367"><ele>112.99999999999999</ele><time>2026-03-22T11:05:22.258Z</time></trkpt><trkpt lat="45.3492267" lon="8.7841967"><ele>113.0</ele><time>2026-03-22T11:05:23.258Z</time></trkpt><trkpt lat="45.349305" lon="8.7841"><ele>113.0</ele><time>2026-03-22T11:05:24.258Z</time></trkpt><trkpt lat="45.3493867" lon="8.7839667"><ele>113.0</ele><time>2026-03-22T11:05:25.258Z</time></trkpt><trkpt lat="45.349475" lon="8.7838217"><ele>113.0</ele><time>2026-03-22T11:05:26.258Z</time></trkpt><trkpt lat="45.3495717" lon="8.7836733"><ele>113.0</ele><time>2026-03-22T11:05:27.258Z</time></trkpt><trkpt lat="45.3496733" lon="8.783515"><ele>113.25</ele><time>2026-03-22T11:05:28.258Z</time></trkpt><trkpt lat="45.3497733" lon="8.7833667"><ele>113.5</ele><time>2026-03-22T11:05:29.258Z</time></trkpt><trkpt lat="45.3498667" lon="8.7832183"><ele>113.75</ele><time>2026-03-22T11:05:30.258Z</time></trkpt><trkpt lat="45.3499683" lon="8.7830733"><ele>114.0</ele><time>2026-03-22T11:05:31.258Z</time></trkpt><trkpt lat="45.3500567" lon="8.7829333"><ele>114.0</ele><time>2026-03-22T11:05:32.258Z</time></trkpt><trkpt lat="45.35015" lon="8.7828083"><ele>114.0</ele><time>2026-03-22T11:05:33.258Z</time></trkpt><trkpt lat="45.3502433" lon="8.7826817"><ele>114.0</ele><time>2026-03-22T11:05:34.258Z</time></trkpt><trkpt lat="45.3503367" lon="8.78255"><ele>114.0</ele><time>2026-03-22T11:05:35.258Z</time></trkpt><trkpt lat="45.350435" lon="8.7824117"><ele>114.0</ele><time>2026-03-22T11:05:36.258Z</time></trkpt><trkpt lat="45.3505267" lon="8.7822783"><ele>114.0</ele><time>2026-03-22T11:05:37.258Z</time></trkpt><trkpt lat="45.3506233" lon="8.78214"><ele>114.0</ele><time>2026-03-22T11:05:38.258Z</time></trkpt><trkpt lat="45.3507133" lon="8.7819933"><ele>114.0</ele><time>2026-03-22T11:05:39.258Z</time></trkpt><trkpt lat="45.350805" lon="8.78184"><ele>114.0</ele><time>2026-03-22T11:05:40.258Z</time></trkpt><trkpt lat="45.3509033" lon="8.7817033"><ele>114.0</ele><time>2026-03-22T11:05:41.258Z</time></trkpt><trkpt lat="45.3510017" lon="8.7815667"><ele>114.0</ele><time>2026-03-22T11:05:42.258Z</time></trkpt><trkpt lat="45.3510933" lon="8.78143"><ele>114.0</ele><time>2026-03-22T11:05:43.258Z</time></trkpt><trkpt lat="45.3511883" lon="8.7812817"><ele>114.0</ele><time>2026-03-22T11:05:44.258Z</time></trkpt><trkpt lat="45.3512683" lon="8.7811533"><ele>114.0</ele><time>2026-03-22T11:05:45.258Z</time></trkpt><trkpt lat="45.35135" lon="8.781035"><ele>114.0</ele><time>2026-03-22T11:05:46.258Z</time></trkpt><trkpt lat="45.351425" lon="8.7809267"><ele>114.0</ele><time>2026-03-22T11:05:47.258Z</time></trkpt><trkpt lat="45.3514983" lon="8.7808233"><ele>114.0</ele><time>2026-03-22T11:05:48.258Z</time></trkpt><trkpt lat="45.3515717" lon="8.780715"><ele>114.0</ele><time>2026-03-22T11:05:49.258Z</time></trkpt><trkpt lat="45.35164" lon="8.7805983"><ele>114.0</ele><time>2026-03-22T11:05:50.258Z</time></trkpt><trkpt lat="45.351705" lon="8.7804783"><ele>114.0</ele><time>2026-03-22T11:05:51.258Z</time></trkpt><trkpt lat="45.351765" lon="8.7803617"><ele>114.0</ele><time>2026-03-22T11:05:52.258Z</time></trkpt><trkpt lat="45.3518183" lon="8.7802583"><ele>114.0</ele><time>2026-03-22T11:05:53.258Z</time></trkpt><trkpt lat="45.3518717" lon="8.7801767"><ele>114.0</ele><time>2026-03-22T11:05:54.258Z</time></trkpt><trkpt lat="45.3519217" lon="8.78011"><ele>114.0</ele><time>2026-03-22T11:05:55.257Z</time></trkpt><trkpt lat="45.3519733" lon="8.7800583"><ele>114.0</ele><time>2026-03-22T11:05:56.257Z</time></trkpt><trkpt lat="45.35207" lon="8.780015"><ele>114.0</ele><time>2026-03-22T11:05:58.257Z</time></trkpt><trkpt lat="45.3521483" lon="8.7799817"><ele>114.0</ele><time>2026-03-22T11:06:00.257Z</time></trkpt><trkpt lat="45.3522133" lon="8.7799633"><ele>114.0</ele><time>2026-03-22T11:06:02.257Z</time></trkpt><trkpt lat="45.3522633" lon="8.779885"><ele>114.0</ele><time>2026-03-22T11:06:14.257Z</time></trkpt><trkpt lat="45.3522467" lon="8.7797067"><ele>114.0</ele><time>2026-03-22T11:06:16.257Z</time></trkpt><trkpt lat="45.3522117" lon="8.7796117"><ele>114.0</ele><time>2026-03-22T11:06:17.257Z</time></trkpt><trkpt lat="45.3521633" lon="8.7795133"><ele>114.0</ele><time>2026-03-22T11:06:18.257Z</time></trkpt><trkpt lat="45.3521117" lon="8.7793983"><ele>114.0</ele><time>2026-03-22T11:06:19.257Z</time></trkpt><trkpt lat="45.3520667" lon="8.7792583"><ele>113.75</ele><time>2026-03-22T11:06:20.257Z</time></trkpt><trkpt lat="45.3520067" lon="8.7791117"><ele>113.5</ele><time>2026-03-22T11:06:21.257Z</time></trkpt><trkpt lat="45.3519433" lon="8.7789683"><ele>113.25</ele><time>2026-03-22T11:06:22.257Z</time></trkpt><trkpt lat="45.351865" lon="8.7788183"><ele>113.0</ele><time>2026-03-22T11:06:23.257Z</time></trkpt><trkpt lat="45.3517833" lon="8.7786583"><ele>113.0</ele><time>2026-03-22T11:06:24.257Z</time></trkpt><trkpt lat="45.35169" lon="8.7785033"><ele>113.0</ele><time>2026-03-22T11:06:25.257Z</time></trkpt><trkpt lat="45.3515883" lon="8.7783483"><ele>113.0</ele><time>2026-03-22T11:06:26.257Z</time></trkpt><trkpt lat="45.35148" lon="8.7782017"><ele>113.0</ele><time>2026-03-22T11:06:27.257Z</time></trkpt><trkpt lat="45.351375" lon="8.77807"><ele>113.0</ele><time>2026-03-22T11:06:28.257Z</time></trkpt><trkpt lat="45.351265" lon="8.7779433"><ele>113.0</ele><time>2026-03-22T11:06:29.257Z</time></trkpt><trkpt lat="45.3511517" lon="8.7778233"><ele>113.0</ele><time>2026-03-22T11:06:30.257Z</time></trkpt><trkpt lat="45.3510533" lon="8.7777217"><ele>113.0</ele><time>2026-03-22T11:06:31.257Z</time></trkpt><trkpt lat="45.3509567" lon="8.7776317"><ele>113.0</ele><time>2026-03-22T11:06:32.257Z</time></trkpt><trkpt lat="45.35086" lon="8.7775517"><ele>113.00000000000001</ele><time>2026-03-22T11:06:33.257Z</time></trkpt><trkpt lat="45.350765" lon="8.777485"><ele>113.00000000000001</ele><time>2026-03-22T11:06:34.257Z</time></trkpt><trkpt lat="45.350685" lon="8.7774283"><ele>113.0</ele><time>2026-03-22T11:06:35.257Z</time></trkpt><trkpt lat="45.3506083" lon="8.7773683"><ele>113.0</ele><time>2026-03-22T11:06:36.257Z</time></trkpt><trkpt lat="45.350525" lon="8.7773267"><ele>113.14285714285714</ele><time>2026-03-22T11:06:37.257Z</time></trkpt><trkpt lat="45.3504517" lon="8.7773"><ele>113.28571428571428</ele><time>2026-03-22T11:06:38.257Z</time></trkpt><trkpt lat="45.350385" lon="8.7772767"><ele>113.42857142857142</ele><time>2026-03-22T11:06:39.257Z</time></trkpt><trkpt lat="45.3503233" lon="8.7772467"><ele>113.57142857142857</ele><time>2026-03-22T11:06:40.257Z</time></trkpt><trkpt lat="45.3502733" lon="8.777145"><ele>113.7142857142857</ele><time>2026-03-22T11:06:42.257Z</time></trkpt><trkpt lat="45.3502783" lon="8.777055"><ele>113.85714285714285</ele><time>2026-03-22T11:06:43.257Z</time></trkpt><trkpt lat="45.3502867" lon="8.7769583"><ele>114.0</ele><time>2026-03-22T11:06:44.257Z</time></trkpt><trkpt lat="45.3502933" lon="8.7768"><ele>114.4</ele><time>2026-03-22T11:06:46.257Z</time></trkpt><trkpt lat="45.3502933" lon="8.77666"><ele>114.80000000000001</ele><time>2026-03-22T11:06:48.257Z</time></trkpt><trkpt lat="45.3502867" lon="8.776525"><ele>115.19999999999999</ele><time>2026-03-22T11:06:50.257Z</time></trkpt><trkpt lat="45.35027" lon="8.7764"><ele>115.6</ele><time>2026-03-22T11:06:52.257Z</time></trkpt><trkpt lat="45.35027" lon="8.77628"><ele>116.0</ele><time>2026-03-22T11:06:54.257Z</time></trkpt><trkpt lat="45.3502633" lon="8.7761567"><ele>115.83333333333333</ele><time>2026-03-22T11:06:56.257Z</time></trkpt><trkpt lat="45.3502633" lon="8.776015"><ele>115.66666666666666</ele><time>2026-03-22T11:06:58.257Z</time></trkpt><trkpt lat="45.350255" lon="8.7758817"><ele>115.5</ele><time>2026-03-22T11:07:00.257Z</time></trkpt><trkpt lat="45.3502433" lon="8.77578"><ele>115.33333333333334</ele><time>2026-03-22T11:07:02.257Z</time></trkpt><trkpt lat="45.350245" lon="8.7756517"><ele>115.16666666666667</ele><time>2026-03-22T11:07:05.257Z</time></trkpt><trkpt lat="45.3502383" lon="8.775775"><ele>115.0</ele><time>2026-03-22T11:07:54.257Z</time></trkpt><trkpt lat="45.350245" lon="8.7758983"><ele>115.16666666666667</ele><time>2026-03-22T11:07:55.257Z</time></trkpt><trkpt lat="45.350245" lon="8.7760217"><ele>115.33333333333334</ele><time>2026-03-22T11:07:56.257Z</time></trkpt><trkpt lat="45.3502483" lon="8.7761433"><ele>115.5</ele><time>2026-03-22T11:07:57.257Z</time></trkpt><trkpt lat="45.35025" lon="8.7762567"><ele>115.66666666666666</ele><time>2026-03-22T11:07:58.257Z</time></trkpt><trkpt lat="45.3502533" lon="8.7763583"><ele>115.83333333333333</ele><time>2026-03-22T11:07:59.257Z</time></trkpt><trkpt lat="45.35026" lon="8.7764683"><ele>116.0</ele><time>2026-03-22T11:08:00.257Z</time></trkpt><trkpt lat="45.3502633" lon="8.7765733"><ele>115.99999999999999</ele><time>2026-03-22T11:08:01.257Z</time></trkpt><trkpt lat="45.3502667" lon="8.776675"><ele>116.0</ele><time>2026-03-22T11:08:02.257Z</time></trkpt><trkpt lat="45.35027" lon="8.776775"><ele>116.0</ele><time>2026-03-22T11:08:03.257Z</time></trkpt><trkpt lat="45.3502783" lon="8.7768767"><ele>116.0</ele><time>2026-03-22T11:08:04.257Z</time></trkpt><trkpt lat="45.3502783" lon="8.7769733"><ele>115.99999999999999</ele><time>2026-03-22T11:08:05.257Z</time></trkpt><trkpt lat="45.350275" lon="8.7771017"><ele>116.0</ele><time>2026-03-22T11:08:07.257Z</time></trkpt><trkpt lat="45.350295" lon="8.777225"><ele>115.66666666666666</ele><time>2026-03-22T11:08:15.257Z</time></trkpt><trkpt lat="45.35036" lon="8.7773083"><ele>115.33333333333333</ele><time>2026-03-22T11:08:17.257Z</time></trkpt><trkpt lat="45.3504633" lon="8.7773967"><ele>115.0</ele><time>2026-03-22T11:08:19.257Z</time></trkpt><trkpt lat="45.3505183" lon="8.777445"><ele>114.66666666666666</ele><time>2026-03-22T11:08:20.257Z</time></trkpt><trkpt lat="45.3506067" lon="8.7774267"><ele>114.33333333333333</ele><time>2026-03-22T11:08:22.257Z</time></trkpt><trkpt lat="45.3506267" lon="8.77733"><ele>114.0</ele><time>2026-03-22T11:08:25.257Z</time></trkpt><trkpt lat="45.3505083" lon="8.7772983"><ele>114.0</ele><time>2026-03-22T11:09:21.257Z</time></trkpt><trkpt lat="45.3504367" lon="8.7772733"><ele>114.0</ele><time>2026-03-22T11:09:22.257Z</time></trkpt><trkpt lat="45.35037" lon="8.7772317"><ele>114.0</ele><time>2026-03-22T11:09:23.257Z</time></trkpt><trkpt lat="45.3502933" lon="8.7771533"><ele>114.0</ele><time>2026-03-22T11:09:25.257Z</time></trkpt><trkpt lat="45.3502833" lon="8.7769933"><ele>114.0</ele><time>2026-03-22T11:09:27.257Z</time></trkpt><trkpt lat="45.3502917" lon="8.7768733"><ele>114.0</ele><time>2026-03-22T11:09:28.257Z</time></trkpt><trkpt lat="45.35029" lon="8.7767267"><ele>114.5</ele><time>2026-03-22T11:09:29.257Z</time></trkpt><trkpt lat="45.3502867" lon="8.7765683"><ele>115.0</ele><time>2026-03-22T11:09:30.257Z</time></trkpt><trkpt lat="45.3502733" lon="8.776395"><ele>115.5</ele><time>2026-03-22T11:09:31.257Z</time></trkpt><trkpt lat="45.3502617" lon="8.7762117"><ele>116.0</ele><time>2026-03-22T11:09:32.257Z</time></trkpt><trkpt lat="45.350255" lon="8.7760233"><ele>115.75</ele><time>2026-03-22T11:09:33.257Z</time></trkpt><trkpt lat="45.3502533" lon="8.7758283"><ele>115.5</ele><time>2026-03-22T11:09:34.257Z</time></trkpt><trkpt lat="45.35024" lon="8.775645"><ele>115.25</ele><time>2026-03-22T11:09:35.257Z</time></trkpt><trkpt lat="45.3502267" lon="8.77546"><ele>115.0</ele><time>2026-03-22T11:09:36.257Z</time></trkpt><trkpt lat="45.3502133" lon="8.7752767"><ele>114.75</ele><time>2026-03-22T11:09:37.257Z</time></trkpt><trkpt lat="45.3501883" lon="8.7751017"><ele>114.5</ele><time>2026-03-22T11:09:38.257Z</time></trkpt><trkpt lat="45.3501633" lon="8.7749167"><ele>114.25</ele><time>2026-03-22T11:09:39.257Z</time></trkpt><trkpt lat="45.3501283" lon="8.7747517"><ele>114.0</ele><time>2026-03-22T11:09:40.257Z</time></trkpt><trkpt lat="45.3500983" lon="8.774585"><ele>114.0</ele><time>2026-03-22T11:09:41.257Z</time></trkpt><trkpt lat="45.3500767" lon="8.774405"><ele>114.0</ele><time>2026-03-22T11:09:42.257Z</time></trkpt><trkpt lat="45.3500533" lon="8.774225"><ele>114.0</ele><time>2026-03-22T11:09:43.257Z</time></trkpt><trkpt lat="45.35003" lon="8.77404"><ele>114.0</ele><time>2026-03-22T11:09:44.257Z</time></trkpt><trkpt lat="45.35001" lon="8.773855"><ele>114.0</ele><time>2026-03-22T11:09:45.257Z</time></trkpt><trkpt lat="45.349985" lon="8.7736717"><ele>114.0</ele><time>2026-03-22T11:09:46.257Z</time></trkpt><trkpt lat="45.34997" lon="8.773495"><ele>114.0</ele><time>2026-03-22T11:09:47.257Z</time></trkpt><trkpt lat="45.3499517" lon="8.7733133"><ele>114.0</ele><time>2026-03-22T11:09:48.257Z</time></trkpt><trkpt lat="45.349935" lon="8.7731317"><ele>114.25</ele><time>2026-03-22T11:09:49.257Z</time></trkpt><trkpt lat="45.3499083" lon="8.7729433"><ele>114.5</ele><time>2026-03-22T11:09:50.257Z</time></trkpt><trkpt lat="45.3498833" lon="8.772775"><ele>114.75</ele><time>2026-03-22T11:09:51.257Z</time></trkpt><trkpt lat="45.3498533" lon="8.7725967"><ele>115.0</ele><time>2026-03-22T11:09:52.257Z</time></trkpt><trkpt lat="45.349825" lon="8.7724083"><ele>115.0</ele><time>2026-03-22T11:09:53.257Z</time></trkpt><trkpt lat="45.3498033" lon="8.772225"><ele>115.0</ele><time>2026-03-22T11:09:54.257Z</time></trkpt><trkpt lat="45.3497867" lon="8.7720383"><ele>115.0</ele><time>2026-03-22T11:09:55.257Z</time></trkpt><trkpt lat="45.34977" lon="8.7718467"><ele>115.0</ele><time>2026-03-22T11:09:56.257Z</time></trkpt><trkpt lat="45.34975" lon="8.7716683"><ele>115.25</ele><time>2026-03-22T11:09:57.257Z</time></trkpt><trkpt lat="45.3497367" lon="8.7714767"><ele>115.5</ele><time>2026-03-22T11:09:58.257Z</time></trkpt><trkpt lat="45.34973" lon="8.771295"><ele>115.75</ele><time>2026-03-22T11:09:59.257Z</time></trkpt><trkpt lat="45.3497217" lon="8.7711133"><ele>116.0</ele><time>2026-03-22T11:10:00.257Z</time></trkpt><trkpt lat="45.3497083" lon="8.7709383"><ele>115.5</ele><time>2026-03-22T11:10:01.257Z</time></trkpt><trkpt lat="45.3496983" lon="8.7707583"><ele>115.0</ele><time>2026-03-22T11:10:02.257Z</time></trkpt><trkpt lat="45.34971" lon="8.7705867"><ele>114.5</ele><time>2026-03-22T11:10:03.257Z</time></trkpt><trkpt lat="45.34973" lon="8.7704117"><ele>114.0</ele><time>2026-03-22T11:10:04.257Z</time></trkpt><trkpt lat="45.3497617" lon="8.77023"><ele>113.5</ele><time>2026-03-22T11:10:05.257Z</time></trkpt><trkpt lat="45.349805" lon="8.7700383"><ele>113.0</ele><time>2026-03-22T11:10:06.257Z</time></trkpt><trkpt lat="45.3498383" lon="8.7698683"><ele>112.5</ele><time>2026-03-22T11:10:07.257Z</time></trkpt><trkpt lat="45.3498717" lon="8.7696783"><ele>112.0</ele><time>2026-03-22T11:10:08.257Z</time></trkpt><trkpt lat="45.34989" lon="8.7695017"><ele>112.25</ele><time>2026-03-22T11:10:09.257Z</time></trkpt><trkpt lat="45.349895" lon="8.7693283"><ele>112.5</ele><time>2026-03-22T11:10:10.257Z</time></trkpt><trkpt lat="45.3499067" lon="8.769165"><ele>112.75</ele><time>2026-03-22T11:10:11.257Z</time></trkpt><trkpt lat="45.3499167" lon="8.76901"><ele>113.0</ele><time>2026-03-22T11:10:12.257Z</time></trkpt><trkpt lat="45.3499333" lon="8.7688633"><ele>112.99999999999999</ele><time>2026-03-22T11:10:13.257Z</time></trkpt><trkpt lat="45.3499517" lon="8.7687317"><ele>113.0</ele><time>2026-03-22T11:10:14.257Z</time></trkpt><trkpt lat="45.3499683" lon="8.7686183"><ele>113.0</ele><time>2026-03-22T11:10:15.257Z</time></trkpt><trkpt lat="45.3499733" lon="8.7685033"><ele>113.0</ele><time>2026-03-22T11:10:16.257Z</time></trkpt><trkpt lat="45.3499767" lon="8.7684133"><ele>112.99999999999999</ele><time>2026-03-22T11:10:17.257Z</time></trkpt><trkpt lat="45.3499683" lon="8.7682967"><ele>113.0</ele><time>2026-03-22T11:10:19.257Z</time></trkpt><trkpt lat="45.3498933" lon="8.76827"><ele>113.0</ele><time>2026-03-22T11:10:21.257Z</time></trkpt><trkpt lat="45.3498217" lon="8.768295"><ele>113.00000000000001</ele><time>2026-03-22T11:10:22.257Z</time></trkpt><trkpt lat="45.349735" lon="8.7683367"><ele>113.00000000000001</ele><time>2026-03-22T11:10:23.257Z</time></trkpt><trkpt lat="45.3496317" lon="8.7683917"><ele>113.0</ele><time>2026-03-22T11:10:24.257Z</time></trkpt><trkpt lat="45.3495083" lon="8.7684367"><ele>113.0</ele><time>2026-03-22T11:10:25.257Z</time></trkpt><trkpt lat="45.3493917" lon="8.7684967"><ele>113.0</ele><time>2026-03-22T11:10:26.257Z</time></trkpt><trkpt lat="45.34927" lon="8.7685633"><ele>113.0</ele><time>2026-03-22T11:10:27.257Z</time></trkpt><trkpt lat="45.34914" lon="8.7686183"><ele>113.0</ele><time>2026-03-22T11:10:28.257Z</time></trkpt><trkpt lat="45.3490167" lon="8.7686733"><ele>113.0</ele><time>2026-03-22T11:10:29.257Z</time></trkpt><trkpt lat="45.3488867" lon="8.7687217"><ele>113.25</ele><time>2026-03-22T11:10:30.257Z</time></trkpt><trkpt lat="45.3487617" lon="8.76877"><ele>113.5</ele><time>2026-03-22T11:10:31.257Z</time></trkpt><trkpt lat="45.3486433" lon="8.768825"><ele>113.75</ele><time>2026-03-22T11:10:32.256Z</time></trkpt><trkpt lat="45.3485267" lon="8.768885"><ele>114.0</ele><time>2026-03-22T11:10:33.256Z</time></trkpt><trkpt lat="45.348415" lon="8.7689467"><ele>114.0</ele><time>2026-03-22T11:10:34.256Z</time></trkpt><trkpt lat="45.348295" lon="8.7690067"><ele>114.0</ele><time>2026-03-22T11:10:35.256Z</time></trkpt><trkpt lat="45.3481767" lon="8.769055"><ele>114.0</ele><time>2026-03-22T11:10:36.256Z</time></trkpt><trkpt lat="45.3480483" lon="8.76911"><ele>114.0</ele><time>2026-03-22T11:10:37.256Z</time></trkpt><trkpt lat="45.347915" lon="8.7691667"><ele>114.0</ele><time>2026-03-22T11:10:38.256Z</time></trkpt><trkpt lat="45.3477783" lon="8.7692317"><ele>114.0</ele><time>2026-03-22T11:10:39.256Z</time></trkpt><trkpt lat="45.3476417" lon="8.7692867"><ele>114.0</ele><time>2026-03-22T11:10:40.256Z</time></trkpt><trkpt lat="45.3475033" lon="8.7693467"><ele>114.0</ele><time>2026-03-22T11:10:41.256Z</time></trkpt><trkpt lat="45.3473667" lon="8.7694117"><ele>114.0</ele><time>2026-03-22T11:10:42.256Z</time></trkpt><trkpt lat="45.3472367" lon="8.7694767"><ele>114.0</ele><time>2026-03-22T11:10:43.256Z</time></trkpt><trkpt lat="45.3470983" lon="8.7695367"><ele>114.0</ele><time>2026-03-22T11:10:44.256Z</time></trkpt><trkpt lat="45.3469617" lon="8.7695967"><ele>114.0</ele><time>2026-03-22T11:10:45.256Z</time></trkpt><trkpt lat="45.3468217" lon="8.769645"><ele>114.0</ele><time>2026-03-22T11:10:46.256Z</time></trkpt><trkpt lat="45.3466817" lon="8.7697017"><ele>114.0</ele><time>2026-03-22T11:10:47.256Z</time></trkpt><trkpt lat="45.3465433" lon="8.769765"><ele>114.0</ele><time>2026-03-22T11:10:48.256Z</time></trkpt><trkpt lat="45.3464067" lon="8.7698267"><ele>114.0</ele><time>2026-03-22T11:10:49.256Z</time></trkpt><trkpt lat="45.3462783" lon="8.7698883"><ele>114.0</ele><time>2026-03-22T11:10:50.256Z</time></trkpt><trkpt lat="45.3461517" lon="8.7699433"><ele>114.0</ele><time>2026-03-22T11:10:51.256Z</time></trkpt><trkpt lat="45.346015" lon="8.770005"><ele>114.0</ele><time>2026-03-22T11:10:52.256Z</time></trkpt><trkpt lat="45.3458717" lon="8.77006"><ele>114.0</ele><time>2026-03-22T11:10:53.256Z</time></trkpt><trkpt lat="45.3457283" lon="8.7701217"><ele>114.0</ele><time>2026-03-22T11:10:54.256Z</time></trkpt><trkpt lat="45.3455867" lon="8.7701817"><ele>114.0</ele><time>2026-03-22T11:10:55.256Z</time></trkpt><trkpt lat="45.3454583" lon="8.7702433"><ele>114.0</ele><time>2026-03-22T11:10:56.256Z</time></trkpt><trkpt lat="45.3453117" lon="8.7703067"><ele>114.0</ele><time>2026-03-22T11:10:57.256Z</time></trkpt><trkpt lat="45.3451783" lon="8.7703733"><ele>113.75</ele><time>2026-03-22T11:10:58.256Z</time></trkpt><trkpt lat="45.3450367" lon="8.77044"><ele>113.5</ele><time>2026-03-22T11:10:59.256Z</time></trkpt><trkpt lat="45.344895" lon="8.7704983"><ele>113.25</ele><time>2026-03-22T11:11:00.256Z</time></trkpt><trkpt lat="45.344755" lon="8.7705517"><ele>113.0</ele><time>2026-03-22T11:11:01.256Z</time></trkpt><trkpt lat="45.3446167" lon="8.7706033"><ele>113.0</ele><time>2026-03-22T11:11:02.256Z</time></trkpt><trkpt lat="45.3444733" lon="8.7706667"><ele>113.0</ele><time>2026-03-22T11:11:03.256Z</time></trkpt><trkpt lat="45.3443317" lon="8.7707183"><ele>113.0</ele><time>2026-03-22T11:11:04.256Z</time></trkpt><trkpt lat="45.3441917" lon="8.770775"><ele>113.0</ele><time>2026-03-22T11:11:05.256Z</time></trkpt><trkpt lat="45.3440633" lon="8.7708233"><ele>113.0</ele><time>2026-03-22T11:11:06.256Z</time></trkpt><trkpt lat="45.343945" lon="8.7708833"><ele>113.0</ele><time>2026-03-22T11:11:07.256Z</time></trkpt><trkpt lat="45.343835" lon="8.7709367"><ele>113.0</ele><time>2026-03-22T11:11:08.256Z</time></trkpt><trkpt lat="45.343725" lon="8.770995"><ele>113.0</ele><time>2026-03-22T11:11:09.256Z</time></trkpt><trkpt lat="45.3436167" lon="8.7710383"><ele>112.83333333333333</ele><time>2026-03-22T11:11:10.256Z</time></trkpt><trkpt lat="45.343515" lon="8.7710817"><ele>112.66666666666666</ele><time>2026-03-22T11:11:11.257Z</time></trkpt><trkpt lat="45.34342" lon="8.7711317"><ele>112.5</ele><time>2026-03-22T11:11:12.256Z</time></trkpt><trkpt lat="45.3433367" lon="8.7711733"><ele>112.33333333333334</ele><time>2026-03-22T11:11:13.256Z</time></trkpt><trkpt lat="45.3432683" lon="8.7712017"><ele>112.16666666666667</ele><time>2026-03-22T11:11:14.256Z</time></trkpt><trkpt lat="45.3432083" lon="8.771235"><ele>112.0</ele><time>2026-03-22T11:11:15.256Z</time></trkpt><trkpt lat="45.3430967" lon="8.7712633"><ele>112.0</ele><time>2026-03-22T11:11:17.256Z</time></trkpt><trkpt lat="45.343035" lon="8.771245"><ele>111.99999999999999</ele><time>2026-03-22T11:11:18.256Z</time></trkpt><trkpt lat="45.342965" lon="8.771185"><ele>111.99999999999999</ele><time>2026-03-22T11:11:19.256Z</time></trkpt><trkpt lat="45.342865" lon="8.7710783"><ele>112.0</ele><time>2026-03-22T11:11:20.256Z</time></trkpt><trkpt lat="45.3427567" lon="8.7709717"><ele>112.0</ele><time>2026-03-22T11:11:21.256Z</time></trkpt><trkpt lat="45.342665" lon="8.770885"><ele>112.00000000000001</ele><time>2026-03-22T11:11:22.256Z</time></trkpt><trkpt lat="45.3425833" lon="8.77081"><ele>112.0</ele><time>2026-03-22T11:11:23.256Z</time></trkpt><trkpt lat="45.3425133" lon="8.770755"><ele>112.0</ele><time>2026-03-22T11:11:24.256Z</time></trkpt><trkpt lat="45.3424467" lon="8.7706967"><ele>112.0</ele><time>2026-03-22T11:11:25.256Z</time></trkpt><trkpt lat="45.34237" lon="8.77061"><ele>112.00000000000001</ele><time>2026-03-22T11:11:27.256Z</time></trkpt><trkpt lat="45.3424367" lon="8.7705167"><ele>112.0</ele><time>2026-03-22T11:11:30.256Z</time></trkpt><trkpt lat="45.342505" lon="8.77047"><ele>112.0</ele><time>2026-03-22T11:11:31.256Z</time></trkpt><trkpt lat="45.34259" lon="8.7704067"><ele>112.0</ele><time>2026-03-22T11:11:32.256Z</time></trkpt><trkpt lat="45.3426983" lon="8.770325"><ele>112.0</ele><time>2026-03-22T11:11:33.256Z</time></trkpt><trkpt lat="45.34281" lon="8.7702267"><ele>112.0</ele><time>2026-03-22T11:11:34.256Z</time></trkpt><trkpt lat="45.342925" lon="8.770125"><ele>112.0</ele><time>2026-03-22T11:11:35.256Z</time></trkpt><trkpt lat="45.3430433" lon="8.7700067"><ele>112.0</ele><time>2026-03-22T11:11:36.256Z</time></trkpt><trkpt lat="45.34316" lon="8.769895"><ele>112.0</ele><time>2026-03-22T11:11:37.256Z</time></trkpt><trkpt lat="45.34327" lon="8.769795"><ele>112.0</ele><time>2026-03-22T11:11:38.256Z</time></trkpt><trkpt lat="45.3433833" lon="8.7697017"><ele>112.25</ele><time>2026-03-22T11:11:39.256Z</time></trkpt><trkpt lat="45.3434917" lon="8.7696133"><ele>112.5</ele><time>2026-03-22T11:11:40.256Z</time></trkpt><trkpt lat="45.343595" lon="8.7695217"><ele>112.75</ele><time>2026-03-22T11:11:41.256Z</time></trkpt><trkpt lat="45.3437" lon="8.76943"><ele>113.0</ele><time>2026-03-22T11:11:42.256Z</time></trkpt><trkpt lat="45.3438033" lon="8.7693367"><ele>112.99999999999999</ele><time>2026-03-22T11:11:43.256Z</time></trkpt><trkpt lat="45.3438933" lon="8.76926"><ele>113.0</ele><time>2026-03-22T11:11:44.256Z</time></trkpt><trkpt lat="45.3439717" lon="8.769205"><ele>113.0</ele><time>2026-03-22T11:11:45.256Z</time></trkpt><trkpt lat="45.3440367" lon="8.7691117"><ele>113.0</ele><time>2026-03-22T11:11:46.256Z</time></trkpt><trkpt lat="45.3440867" lon="8.7690167"><ele>112.99999999999999</ele><time>2026-03-22T11:11:47.256Z</time></trkpt><trkpt lat="45.3441333" lon="8.7689317"><ele>113.0</ele><time>2026-03-22T11:11:48.256Z</time></trkpt><trkpt lat="45.3442267" lon="8.7688683"><ele>113.0</ele><time>2026-03-22T11:11:50.256Z</time></trkpt><trkpt lat="45.344305" lon="8.7688933"><ele>113.00000000000001</ele><time>2026-03-22T11:11:51.256Z</time></trkpt><trkpt lat="45.3443917" lon="8.7689083"><ele>113.00000000000001</ele><time>2026-03-22T11:11:52.256Z</time></trkpt><trkpt lat="45.3444917" lon="8.7688883"><ele>113.0</ele><time>2026-03-22T11:11:53.256Z</time></trkpt><trkpt lat="45.3445983" lon="8.76886"><ele>113.0</ele><time>2026-03-22T11:11:54.256Z</time></trkpt><trkpt lat="45.3447183" lon="8.768845"><ele>113.0</ele><time>2026-03-22T11:11:55.256Z</time></trkpt><trkpt lat="45.344855" lon="8.768815"><ele>113.0</ele><time>2026-03-22T11:11:56.256Z</time></trkpt><trkpt lat="45.3449933" lon="8.7687867"><ele>113.0</ele><time>2026-03-22T11:11:57.256Z</time></trkpt><trkpt lat="45.345125" lon="8.7687533"><ele>113.0</ele><time>2026-03-22T11:11:58.256Z</time></trkpt><trkpt lat="45.34526" lon="8.7687133"><ele>113.0</ele><time>2026-03-22T11:11:59.256Z</time></trkpt><trkpt lat="45.3454" lon="8.768685"><ele>113.0</ele><time>2026-03-22T11:12:00.256Z</time></trkpt><trkpt lat="45.3455333" lon="8.768645"><ele>113.0</ele><time>2026-03-22T11:12:01.256Z</time></trkpt><trkpt lat="45.3456733" lon="8.7685917"><ele>113.0</ele><time>2026-03-22T11:12:02.256Z</time></trkpt><trkpt lat="45.3458133" lon="8.76854"><ele>113.0</ele><time>2026-03-22T11:12:03.256Z</time></trkpt><trkpt lat="45.3459517" lon="8.7684867"><ele>113.0</ele><time>2026-03-22T11:12:04.256Z</time></trkpt><trkpt lat="45.3461" lon="8.7684433"><ele>113.0</ele><time>2026-03-22T11:12:05.256Z</time></trkpt><trkpt lat="45.3462483" lon="8.7683933"><ele>113.0</ele><time>2026-03-22T11:12:06.256Z</time></trkpt><trkpt lat="45.3463833" lon="8.768355"><ele>113.0</ele><time>2026-03-22T11:12:07.256Z</time></trkpt><trkpt lat="45.3465217" lon="8.7682983"><ele>113.0</ele><time>2026-03-22T11:12:08.256Z</time></trkpt><trkpt lat="45.3466683" lon="8.768235"><ele>113.0</ele><time>2026-03-22T11:12:09.256Z</time></trkpt><trkpt lat="45.3468117" lon="8.7681767"><ele>113.0</ele><time>2026-03-22T11:12:10.256Z</time></trkpt><trkpt lat="45.3469583" lon="8.7681217"><ele>113.0</ele><time>2026-03-22T11:12:11.256Z</time></trkpt><trkpt lat="45.3471" lon="8.76808"><ele>113.0</ele><time>2026-03-22T11:12:12.256Z</time></trkpt><trkpt lat="45.34724" lon="8.768035"><ele>113.0</ele><time>2026-03-22T11:12:13.256Z</time></trkpt><trkpt lat="45.34737" lon="8.767985"><ele>113.0</ele><time>2026-03-22T11:12:14.256Z</time></trkpt><trkpt lat="45.3475133" lon="8.76793"><ele>113.25</ele><time>2026-03-22T11:12:15.256Z</time></trkpt><trkpt lat="45.3476633" lon="8.7678767"><ele>113.5</ele><time>2026-03-22T11:12:16.257Z</time></trkpt><trkpt lat="45.3478117" lon="8.7678267"><ele>113.75</ele><time>2026-03-22T11:12:17.256Z</time></trkpt><trkpt lat="45.3479483" lon="8.7677733"><ele>114.0</ele><time>2026-03-22T11:12:18.256Z</time></trkpt><trkpt lat="45.3480883" lon="8.7677367"><ele>114.0</ele><time>2026-03-22T11:12:19.256Z</time></trkpt><trkpt lat="45.34822" lon="8.7677067"><ele>114.0</ele><time>2026-03-22T11:12:20.256Z</time></trkpt><trkpt lat="45.34834" lon="8.7676733"><ele>114.0</ele><time>2026-03-22T11:12:21.257Z</time></trkpt><trkpt lat="45.3484367" lon="8.7676367"><ele>114.0</ele><time>2026-03-22T11:12:22.256Z</time></trkpt><trkpt lat="45.3485367" lon="8.76758"><ele>114.0</ele><time>2026-03-22T11:12:23.256Z</time></trkpt><trkpt lat="45.348635" lon="8.7675033"><ele>114.0</ele><time>2026-03-22T11:12:24.256Z</time></trkpt><trkpt lat="45.348735" lon="8.7673933"><ele>114.0</ele><time>2026-03-22T11:12:25.256Z</time></trkpt><trkpt lat="45.3488367" lon="8.7672833"><ele>114.0</ele><time>2026-03-22T11:12:26.256Z</time></trkpt><trkpt lat="45.3489517" lon="8.7671833"><ele>114.0</ele><time>2026-03-22T11:12:27.256Z</time></trkpt><trkpt lat="45.34907" lon="8.76708"><ele>114.0</ele><time>2026-03-22T11:12:28.256Z</time></trkpt><trkpt lat="45.3491933" lon="8.7669783"><ele>114.0</ele><time>2026-03-22T11:12:29.256Z</time></trkpt><trkpt lat="45.3493017" lon="8.7668683"><ele>114.0</ele><time>2026-03-22T11:12:30.256Z</time></trkpt><trkpt lat="45.3493933" lon="8.76677"><ele>114.0</ele><time>2026-03-22T11:12:31.256Z</time></trkpt><trkpt lat="45.3494817" lon="8.7666633"><ele>114.0</ele><time>2026-03-22T11:12:32.256Z</time></trkpt><trkpt lat="45.34956" lon="8.7665717"><ele>114.0</ele><time>2026-03-22T11:12:33.256Z</time></trkpt><trkpt lat="45.34962" lon="8.7664967"><ele>114.0</ele><time>2026-03-22T11:12:34.256Z</time></trkpt><trkpt lat="45.3496767" lon="8.7664183"><ele>114.0</ele><time>2026-03-22T11:12:35.256Z</time></trkpt><trkpt lat="45.349715" lon="8.766325"><ele>114.0</ele><time>2026-03-22T11:12:36.256Z</time></trkpt><trkpt lat="45.3497333" lon="8.7662133"><ele>114.0</ele><time>2026-03-22T11:12:37.256Z</time></trkpt><trkpt lat="45.349735" lon="8.7660833"><ele>114.0</ele><time>2026-03-22T11:12:38.256Z</time></trkpt><trkpt lat="45.3497317" lon="8.76593"><ele>114.0</ele><time>2026-03-22T11:12:39.256Z</time></trkpt><trkpt lat="45.34973" lon="8.7657583"><ele>114.0</ele><time>2026-03-22T11:12:40.256Z</time></trkpt><trkpt lat="45.3497267" lon="8.7655767"><ele>114.0</ele><time>2026-03-22T11:12:41.256Z</time></trkpt><trkpt lat="45.3497267" lon="8.7653967"><ele>114.0</ele><time>2026-03-22T11:12:42.256Z</time></trkpt><trkpt lat="45.34972" lon="8.76523"><ele>114.0</ele><time>2026-03-22T11:12:43.256Z</time></trkpt><trkpt lat="45.3497133" lon="8.765075"><ele>114.0</ele><time>2026-03-22T11:12:44.256Z</time></trkpt><trkpt lat="45.3497167" lon="8.7649183"><ele>113.75</ele><time>2026-03-22T11:12:45.256Z</time></trkpt><trkpt lat="45.34973" lon="8.764755"><ele>113.5</ele><time>2026-03-22T11:12:46.256Z</time></trkpt><trkpt lat="45.34973" lon="8.764585"><ele>113.25</ele><time>2026-03-22T11:12:47.256Z</time></trkpt><trkpt lat="45.349735" lon="8.764405"><ele>113.0</ele><time>2026-03-22T11:12:48.256Z</time></trkpt><trkpt lat="45.3497467" lon="8.7642167"><ele>113.0</ele><time>2026-03-22T11:12:49.256Z</time></trkpt><trkpt lat="45.3497683" lon="8.7640367"><ele>113.0</ele><time>2026-03-22T11:12:50.256Z</time></trkpt><trkpt lat="45.3498033" lon="8.7638467"><ele>113.0</ele><time>2026-03-22T11:12:51.256Z</time></trkpt><trkpt lat="45.3498467" lon="8.7636683"><ele>113.0</ele><time>2026-03-22T11:12:52.256Z</time></trkpt><trkpt lat="45.3498867" lon="8.7634933"><ele>113.0</ele><time>2026-03-22T11:12:53.256Z</time></trkpt><trkpt lat="45.34992" lon="8.7632933"><ele>113.0</ele><time>2026-03-22T11:12:54.256Z</time></trkpt><trkpt lat="45.349935" lon="8.7630833"><ele>113.0</ele><time>2026-03-22T11:12:55.256Z</time></trkpt><trkpt lat="45.3499283" lon="8.7628783"><ele>113.0</ele><time>2026-03-22T11:12:56.256Z</time></trkpt><trkpt lat="45.3499367" lon="8.7626717"><ele>113.0</ele><time>2026-03-22T11:12:57.256Z</time></trkpt><trkpt lat="45.3499383" lon="8.7624833"><ele>113.0</ele><time>2026-03-22T11:12:58.256Z</time></trkpt><trkpt lat="45.3499417" lon="8.762275"><ele>113.0</ele><time>2026-03-22T11:12:59.256Z</time></trkpt><trkpt lat="45.34994" lon="8.7620733"><ele>113.0</ele><time>2026-03-22T11:13:00.256Z</time></trkpt><trkpt lat="45.3499367" lon="8.76187"><ele>113.25</ele><time>2026-03-22T11:13:01.256Z</time></trkpt><trkpt lat="45.34994" lon="8.7616717"><ele>113.5</ele><time>2026-03-22T11:13:02.256Z</time></trkpt><trkpt lat="45.3499417" lon="8.7614717"><ele>113.75</ele><time>2026-03-22T11:13:03.256Z</time></trkpt><trkpt lat="45.3499433" lon="8.7612833"><ele>114.0</ele><time>2026-03-22T11:13:04.256Z</time></trkpt><trkpt lat="45.349955" lon="8.7611067"><ele>114.2</ele><time>2026-03-22T11:13:05.256Z</time></trkpt><trkpt lat="45.3499633" lon="8.760935"><ele>114.4</ele><time>2026-03-22T11:13:06.256Z</time></trkpt><trkpt lat="45.3499617" lon="8.7607833"><ele>114.6</ele><time>2026-03-22T11:13:07.256Z</time></trkpt><trkpt lat="45.3499433" lon="8.760635"><ele>114.8</ele><time>2026-03-22T11:13:08.256Z</time></trkpt><trkpt lat="45.3499" lon="8.7604867"><ele>115.0</ele><time>2026-03-22T11:13:09.256Z</time></trkpt><trkpt lat="45.3498367" lon="8.7603333"><ele>115.0</ele><time>2026-03-22T11:13:10.256Z</time></trkpt><trkpt lat="45.3497683" lon="8.76017"><ele>115.0</ele><time>2026-03-22T11:13:11.256Z</time></trkpt><trkpt lat="45.3496967" lon="8.7600067"><ele>115.0</ele><time>2026-03-22T11:13:12.256Z</time></trkpt><trkpt lat="45.3496317" lon="8.7598317"><ele>115.0</ele><time>2026-03-22T11:13:13.256Z</time></trkpt><trkpt lat="45.3495733" lon="8.75964"><ele>114.75</ele><time>2026-03-22T11:13:14.256Z</time></trkpt><trkpt lat="45.349535" lon="8.7594483"><ele>114.5</ele><time>2026-03-22T11:13:15.256Z</time></trkpt><trkpt lat="45.3494883" lon="8.7592733"><ele>114.25</ele><time>2026-03-22T11:13:16.256Z</time></trkpt><trkpt lat="45.3494417" lon="8.7591067"><ele>114.0</ele><time>2026-03-22T11:13:17.256Z</time></trkpt><trkpt lat="45.34937" lon="8.7589433"><ele>114.0</ele><time>2026-03-22T11:13:18.256Z</time></trkpt><trkpt lat="45.34928" lon="8.758785"><ele>114.0</ele><time>2026-03-22T11:13:19.256Z</time></trkpt><trkpt lat="45.3491933" lon="8.7586267"><ele>114.0</ele><time>2026-03-22T11:13:20.257Z</time></trkpt><trkpt lat="45.3491117" lon="8.7584567"><ele>114.0</ele><time>2026-03-22T11:13:21.256Z</time></trkpt><trkpt lat="45.3490217" lon="8.7582983"><ele>114.0</ele><time>2026-03-22T11:13:22.256Z</time></trkpt><trkpt lat="45.348925" lon="8.7581383"><ele>114.0</ele><time>2026-03-22T11:13:23.256Z</time></trkpt><trkpt lat="45.348835" lon="8.7579917"><ele>114.0</ele><time>2026-03-22T11:13:24.256Z</time></trkpt><trkpt lat="45.3487417" lon="8.7578433"><ele>114.0</ele><time>2026-03-22T11:13:25.256Z</time></trkpt><trkpt lat="45.3486533" lon="8.75768"><ele>114.0</ele><time>2026-03-22T11:13:26.256Z</time></trkpt><trkpt lat="45.3485633" lon="8.7575317"><ele>114.0</ele><time>2026-03-22T11:13:27.256Z</time></trkpt><trkpt lat="45.348485" lon="8.7573983"><ele>114.0</ele><time>2026-03-22T11:13:28.256Z</time></trkpt><trkpt lat="45.34841" lon="8.75727"><ele>114.0</ele><time>2026-03-22T11:13:29.256Z</time></trkpt><trkpt lat="45.34835" lon="8.75717"><ele>114.0</ele><time>2026-03-22T11:13:30.256Z</time></trkpt><trkpt lat="45.3482967" lon="8.7570917"><ele>114.0</ele><time>2026-03-22T11:13:31.256Z</time></trkpt><trkpt lat="45.3482517" lon="8.7570283"><ele>114.0</ele><time>2026-03-22T11:13:32.256Z</time></trkpt><trkpt lat="45.3481933" lon="8.7568917"><ele>114.0</ele><time>2026-03-22T11:13:34.256Z</time></trkpt><trkpt lat="45.34826" lon="8.7567317"><ele>114.0</ele><time>2026-03-22T11:13:36.256Z</time></trkpt><trkpt lat="45.3483483" lon="8.756625"><ele>114.0</ele><time>2026-03-22T11:13:37.256Z</time></trkpt><trkpt lat="45.3484317" lon="8.7565083"><ele>114.0</ele><time>2026-03-22T11:13:38.256Z</time></trkpt><trkpt lat="45.3485033" lon="8.7563933"><ele>114.0</ele><time>2026-03-22T11:13:39.256Z</time></trkpt><trkpt lat="45.3485633" lon="8.7562867"><ele>114.0</ele><time>2026-03-22T11:13:40.256Z</time></trkpt><trkpt lat="45.3486033" lon="8.7561683"><ele>114.0</ele><time>2026-03-22T11:13:41.256Z</time></trkpt><trkpt lat="45.3486267" lon="8.7560283"><ele>114.2</ele><time>2026-03-22T11:13:42.256Z</time></trkpt><trkpt lat="45.3486183" lon="8.7558833"><ele>114.4</ele><time>2026-03-22T11:13:43.256Z</time></trkpt><trkpt lat="45.3485733" lon="8.755745"><ele>114.6</ele><time>2026-03-22T11:13:44.256Z</time></trkpt><trkpt lat="45.3485117" lon="8.7556033"><ele>114.8</ele><time>2026-03-22T11:13:45.256Z</time></trkpt><trkpt lat="45.348455" lon="8.7554667"><ele>115.0</ele><time>2026-03-22T11:13:46.256Z</time></trkpt><trkpt lat="45.3484033" lon="8.755345"><ele>115.00000000000001</ele><time>2026-03-22T11:13:47.256Z</time></trkpt><trkpt lat="45.3483567" lon="8.7552333"><ele>115.0</ele><time>2026-03-22T11:13:48.256Z</time></trkpt><trkpt lat="45.3483167" lon="8.7551283"><ele>115.0</ele><time>2026-03-22T11:13:49.256Z</time></trkpt><trkpt lat="45.3482833" lon="8.75504"><ele>115.0</ele><time>2026-03-22T11:13:50.256Z</time></trkpt><trkpt lat="45.34825" lon="8.7549633"><ele>115.00000000000001</ele><time>2026-03-22T11:13:51.256Z</time></trkpt><trkpt lat="45.3482117" lon="8.7548733"><ele>115.0</ele><time>2026-03-22T11:13:52.256Z</time></trkpt><trkpt lat="45.348175" lon="8.7547833"><ele>114.83333333333334</ele><time>2026-03-22T11:13:53.256Z</time></trkpt><trkpt lat="45.3481033" lon="8.7546417"><ele>114.66666666666667</ele><time>2026-03-22T11:13:55.256Z</time></trkpt><trkpt lat="45.34806" lon="8.7545633"><ele>114.5</ele><time>2026-03-22T11:13:56.256Z</time></trkpt><trkpt lat="45.3480167" lon="8.7544867"><ele>114.33333333333334</ele><time>2026-03-22T11:13:57.256Z</time></trkpt><trkpt lat="45.3479733" lon="8.7544017"><ele>114.16666666666667</ele><time>2026-03-22T11:13:58.256Z</time></trkpt><trkpt lat="45.3479333" lon="8.754325"><ele>114.0</ele><time>2026-03-22T11:13:59.256Z</time></trkpt><trkpt lat="45.3478917" lon="8.754235"><ele>114.66666666666667</ele><time>2026-03-22T11:14:00.256Z</time></trkpt><trkpt lat="45.3478483" lon="8.754135"><ele>115.33333333333334</ele><time>2026-03-22T11:14:01.256Z</time></trkpt><trkpt lat="45.3478017" lon="8.7540283"><ele>116.0</ele><time>2026-03-22T11:14:02.256Z</time></trkpt><trkpt lat="45.34775" lon="8.7539333"><ele>116.66666666666667</ele><time>2026-03-22T11:14:03.256Z</time></trkpt><trkpt lat="45.3477033" lon="8.7538383"><ele>117.33333333333334</ele><time>2026-03-22T11:14:04.256Z</time></trkpt><trkpt lat="45.347655" lon="8.7537533"><ele>118.0</ele><time>2026-03-22T11:14:05.256Z</time></trkpt><trkpt lat="45.347605" lon="8.7536667"><ele>118.0</ele><time>2026-03-22T11:14:06.256Z</time></trkpt><trkpt lat="45.3475533" lon="8.7535783"><ele>118.0</ele><time>2026-03-22T11:14:07.256Z</time></trkpt><trkpt lat="45.3475067" lon="8.753485"><ele>118.0</ele><time>2026-03-22T11:14:08.256Z</time></trkpt><trkpt lat="45.3474683" lon="8.7534033"><ele>118.0</ele><time>2026-03-22T11:14:09.256Z</time></trkpt><trkpt lat="45.3474417" lon="8.7533217"><ele>118.0</ele><time>2026-03-22T11:14:10.256Z</time></trkpt><trkpt lat="45.3473983" lon="8.7532467"><ele>118.0</ele><time>2026-03-22T11:14:11.256Z</time></trkpt><trkpt lat="45.3473733" lon="8.7531633"><ele>118.0</ele><time>2026-03-22T11:14:12.256Z</time></trkpt><trkpt lat="45.3473533" lon="8.7530733"><ele>118.00000000000001</ele><time>2026-03-22T11:14:13.256Z</time></trkpt><trkpt lat="45.3473517" lon="8.752975"><ele>118.0</ele><time>2026-03-22T11:14:14.256Z</time></trkpt><trkpt lat="45.347355" lon="8.7528767"><ele>118.0</ele><time>2026-03-22T11:14:15.256Z</time></trkpt><trkpt lat="45.3473517" lon="8.752735"><ele>118.0</ele><time>2026-03-22T11:14:17.256Z</time></trkpt><trkpt lat="45.34736" lon="8.75264"><ele>118.00000000000001</ele><time>2026-03-22T11:14:19.256Z</time></trkpt><trkpt lat="45.3474267" lon="8.7525517"><ele>118.0</ele><time>2026-03-22T11:14:23.256Z</time></trkpt><trkpt lat="45.3475183" lon="8.7524917"><ele>118.00000000000001</ele><time>2026-03-22T11:14:25.256Z</time></trkpt><trkpt lat="45.3475783" lon="8.7524633"><ele>118.0</ele><time>2026-03-22T11:14:26.256Z</time></trkpt><trkpt lat="45.3477067" lon="8.75242"><ele>118.0</ele><time>2026-03-22T11:14:28.256Z</time></trkpt><trkpt lat="45.3477683" lon="8.7523917"><ele>118.0</ele><time>2026-03-22T11:14:29.256Z</time></trkpt><trkpt lat="45.3478267" lon="8.7523533"><ele>118.00000000000001</ele><time>2026-03-22T11:14:30.256Z</time></trkpt><trkpt lat="45.34789" lon="8.752315"><ele>118.0</ele><time>2026-03-22T11:14:31.256Z</time></trkpt><trkpt lat="45.3479533" lon="8.7522917"><ele>118.00000000000001</ele><time>2026-03-22T11:14:32.256Z</time></trkpt><trkpt lat="45.348015" lon="8.75226"><ele>118.0</ele><time>2026-03-22T11:14:33.256Z</time></trkpt><trkpt lat="45.3481433" lon="8.7522333"><ele>118.0</ele><time>2026-03-22T11:14:35.256Z</time></trkpt><trkpt lat="45.3482083" lon="8.7522283"><ele>118.0</ele><time>2026-03-22T11:14:36.256Z</time></trkpt><trkpt lat="45.348275" lon="8.75221"><ele>118.00000000000001</ele><time>2026-03-22T11:14:37.256Z</time></trkpt><trkpt lat="45.3483517" lon="8.7521933"><ele>118.0</ele><time>2026-03-22T11:14:38.256Z</time></trkpt><trkpt lat="45.3484233" lon="8.7521617"><ele>117.66666666666667</ele><time>2026-03-22T11:14:39.256Z</time></trkpt><trkpt lat="45.348505" lon="8.7521383"><ele>117.33333333333334</ele><time>2026-03-22T11:14:40.256Z</time></trkpt><trkpt lat="45.34859" lon="8.7521317"><ele>117.0</ele><time>2026-03-22T11:14:41.256Z</time></trkpt><trkpt lat="45.34868" lon="8.7521233"><ele>116.66666666666666</ele><time>2026-03-22T11:14:42.256Z</time></trkpt><trkpt lat="45.3487717" lon="8.7521033"><ele>116.33333333333333</ele><time>2026-03-22T11:14:43.256Z</time></trkpt><trkpt lat="45.348865" lon="8.7520733"><ele>116.0</ele><time>2026-03-22T11:14:44.256Z</time></trkpt><trkpt lat="45.3489617" lon="8.752045"><ele>115.8</ele><time>2026-03-22T11:14:45.256Z</time></trkpt><trkpt lat="45.3490583" lon="8.752025"><ele>115.6</ele><time>2026-03-22T11:14:46.256Z</time></trkpt><trkpt lat="45.34916" lon="8.7520067"><ele>115.4</ele><time>2026-03-22T11:14:47.256Z</time></trkpt><trkpt lat="45.3492683" lon="8.7519883"><ele>115.2</ele><time>2026-03-22T11:14:48.256Z</time></trkpt><trkpt lat="45.3493767" lon="8.75196"><ele>115.0</ele><time>2026-03-22T11:14:49.256Z</time></trkpt><trkpt lat="45.3494883" lon="8.7519317"><ele>115.0</ele><time>2026-03-22T11:14:50.256Z</time></trkpt><trkpt lat="45.3496183" lon="8.7519033"><ele>115.0</ele><time>2026-03-22T11:14:51.256Z</time></trkpt><trkpt lat="45.3497467" lon="8.75187"><ele>115.0</ele><time>2026-03-22T11:14:52.256Z</time></trkpt><trkpt lat="45.34987" lon="8.7518483"><ele>115.0</ele><time>2026-03-22T11:14:53.256Z</time></trkpt><trkpt lat="45.3499817" lon="8.7518267"><ele>115.00000000000001</ele><time>2026-03-22T11:14:54.256Z</time></trkpt><trkpt lat="45.35008" lon="8.751795"><ele>115.0</ele><time>2026-03-22T11:14:55.256Z</time></trkpt><trkpt lat="45.3501533" lon="8.751775"><ele>115.0</ele><time>2026-03-22T11:14:56.256Z</time></trkpt><trkpt lat="45.3502433" lon="8.751735"><ele>115.0</ele><time>2026-03-22T11:14:58.256Z</time></trkpt><trkpt lat="45.3502183" lon="8.7516117"><ele>115.00000000000001</ele><time>2026-03-22T11:15:01.256Z</time></trkpt><trkpt lat="45.3501817" lon="8.7515217"><ele>115.0</ele><time>2026-03-22T11:15:02.256Z</time></trkpt><trkpt lat="45.3501467" lon="8.7514033"><ele>115.0</ele><time>2026-03-22T11:15:03.256Z</time></trkpt><trkpt lat="45.3501233" lon="8.7512767"><ele>115.0</ele><time>2026-03-22T11:15:04.256Z</time></trkpt><trkpt lat="45.3500983" lon="8.751125"><ele>115.0</ele><time>2026-03-22T11:15:05.256Z</time></trkpt><trkpt lat="45.3500683" lon="8.7509433"><ele>115.0</ele><time>2026-03-22T11:15:06.256Z</time></trkpt><trkpt lat="45.350035" lon="8.7507667"><ele>115.0</ele><time>2026-03-22T11:15:07.256Z</time></trkpt><trkpt lat="45.3499983" lon="8.7505933"><ele>115.0</ele><time>2026-03-22T11:15:08.256Z</time></trkpt><trkpt lat="45.3499683" lon="8.7504233"><ele>115.0</ele><time>2026-03-22T11:15:09.256Z</time></trkpt><trkpt lat="45.349925" lon="8.7502483"><ele>115.0</ele><time>2026-03-22T11:15:10.256Z</time></trkpt><trkpt lat="45.3498967" lon="8.750075"><ele>115.0</ele><time>2026-03-22T11:15:11.256Z</time></trkpt><trkpt lat="45.3498667" lon="8.7499233"><ele>115.0</ele><time>2026-03-22T11:15:12.256Z</time></trkpt><trkpt lat="45.3498467" lon="8.7497867"><ele>115.0</ele><time>2026-03-22T11:15:13.256Z</time></trkpt><trkpt lat="45.3498233" lon="8.749665"><ele>115.0</ele><time>2026-03-22T11:15:14.255Z</time></trkpt><trkpt lat="45.3498033" lon="8.7495667"><ele>115.0</ele><time>2026-03-22T11:15:15.255Z</time></trkpt><trkpt lat="45.3497517" lon="8.7494367"><ele>115.00000000000001</ele><time>2026-03-22T11:15:17.255Z</time></trkpt><trkpt lat="45.3496433" lon="8.749385"><ele>115.0</ele><time>2026-03-22T11:15:19.255Z</time></trkpt><trkpt lat="45.3495583" lon="8.7494067"><ele>115.0</ele><time>2026-03-22T11:15:20.255Z</time></trkpt><trkpt lat="45.349485" lon="8.749435"><ele>115.0</ele><time>2026-03-22T11:15:21.255Z</time></trkpt><trkpt lat="45.3494167" lon="8.7494417"><ele>115.00000000000001</ele><time>2026-03-22T11:15:22.255Z</time></trkpt><trkpt lat="45.349345" lon="8.7494167"><ele>115.0</ele><time>2026-03-22T11:15:23.255Z</time></trkpt><trkpt lat="45.349285" lon="8.749315"><ele>115.0</ele><time>2026-03-22T11:15:24.255Z</time></trkpt><trkpt lat="45.3492317" lon="8.7491667"><ele>115.0</ele><time>2026-03-22T11:15:25.255Z</time></trkpt><trkpt lat="45.3491917" lon="8.7489717"><ele>115.0</ele><time>2026-03-22T11:15:26.255Z</time></trkpt><trkpt lat="45.3491483" lon="8.7487683"><ele>115.0</ele><time>2026-03-22T11:15:27.255Z</time></trkpt><trkpt lat="45.3491033" lon="8.7485833"><ele>115.2</ele><time>2026-03-22T11:15:28.255Z</time></trkpt><trkpt lat="45.3490567" lon="8.7484267"><ele>115.4</ele><time>2026-03-22T11:15:29.255Z</time></trkpt><trkpt lat="45.3490083" lon="8.7482917"><ele>115.6</ele><time>2026-03-22T11:15:30.255Z</time></trkpt><trkpt lat="45.3489633" lon="8.7481633"><ele>115.8</ele><time>2026-03-22T11:15:31.255Z</time></trkpt><trkpt lat="45.3489217" lon="8.7480283"><ele>116.0</ele><time>2026-03-22T11:15:32.255Z</time></trkpt><trkpt lat="45.3488933" lon="8.7479033"><ele>116.19999999999999</ele><time>2026-03-22T11:15:33.255Z</time></trkpt><trkpt lat="45.348865" lon="8.747805"><ele>116.39999999999999</ele><time>2026-03-22T11:15:34.255Z</time></trkpt><trkpt lat="45.348855" lon="8.7477133"><ele>116.6</ele><time>2026-03-22T11:15:35.255Z</time></trkpt><trkpt lat="45.348795" lon="8.7476017"><ele>116.8</ele><time>2026-03-22T11:15:37.255Z</time></trkpt><trkpt lat="45.3486833" lon="8.7476833"><ele>117.0</ele><time>2026-03-22T11:15:39.255Z</time></trkpt><trkpt lat="45.3486167" lon="8.7478017"><ele>117.0</ele><time>2026-03-22T11:15:40.255Z</time></trkpt><trkpt lat="45.3485383" lon="8.7479433"><ele>117.0</ele><time>2026-03-22T11:15:41.255Z</time></trkpt><trkpt lat="45.3484583" lon="8.7480867"><ele>117.0</ele><time>2026-03-22T11:15:42.255Z</time></trkpt><trkpt lat="45.3483817" lon="8.748215"><ele>117.0</ele><time>2026-03-22T11:15:43.255Z</time></trkpt><trkpt lat="45.3483217" lon="8.7483183"><ele>117.0</ele><time>2026-03-22T11:15:44.255Z</time></trkpt><trkpt lat="45.3482633" lon="8.748415"><ele>117.0</ele><time>2026-03-22T11:15:45.255Z</time></trkpt><trkpt lat="45.3482117" lon="8.748515"><ele>117.0</ele><time>2026-03-22T11:15:46.255Z</time></trkpt><trkpt lat="45.34816" lon="8.7485967"><ele>117.0</ele><time>2026-03-22T11:15:47.255Z</time></trkpt><trkpt lat="45.3481033" lon="8.7486717"><ele>117.0</ele><time>2026-03-22T11:15:48.255Z</time></trkpt><trkpt lat="45.3480483" lon="8.7487517"><ele>117.0</ele><time>2026-03-22T11:15:49.255Z</time></trkpt><trkpt lat="45.348" lon="8.748835"><ele>117.0</ele><time>2026-03-22T11:15:50.255Z</time></trkpt><trkpt lat="45.3479417" lon="8.7489183"><ele>117.0</ele><time>2026-03-22T11:15:51.256Z</time></trkpt><trkpt lat="45.3478917" lon="8.7489967"><ele>117.0</ele><time>2026-03-22T11:15:52.255Z</time></trkpt><trkpt lat="45.347845" lon="8.7490617"><ele>117.0</ele><time>2026-03-22T11:15:53.255Z</time></trkpt><trkpt lat="45.3477617" lon="8.749175"><ele>117.0</ele><time>2026-03-22T11:15:55.255Z</time></trkpt><trkpt lat="45.3477067" lon="8.7492683"><ele>117.0</ele><time>2026-03-22T11:15:57.255Z</time></trkpt><trkpt lat="45.3476517" lon="8.749335"><ele>117.0</ele><time>2026-03-22T11:16:00.255Z</time></trkpt><trkpt lat="45.3475767" lon="8.7493233"><ele>117.0</ele><time>2026-03-22T11:16:04.255Z</time></trkpt><trkpt lat="45.3475383" lon="8.74925"><ele>117.0</ele><time>2026-03-22T11:16:06.255Z</time></trkpt><trkpt lat="45.3474917" lon="8.7491633"><ele>117.0</ele><time>2026-03-22T11:16:08.255Z</time></trkpt><trkpt lat="45.34744" lon="8.749045"><ele>117.0</ele><time>2026-03-22T11:16:10.255Z</time></trkpt><trkpt lat="45.34738" lon="8.7489133"><ele>117.0</ele><time>2026-03-22T11:16:12.255Z</time></trkpt><trkpt lat="45.347345" lon="8.7488233"><ele>117.0</ele><time>2026-03-22T11:16:13.255Z</time></trkpt><trkpt lat="45.34731" lon="8.7487233"><ele>117.0</ele><time>2026-03-22T11:16:14.255Z</time></trkpt><trkpt lat="45.3472683" lon="8.7486217"><ele>117.0</ele><time>2026-03-22T11:16:15.255Z</time></trkpt><trkpt lat="45.3472317" lon="8.7485133"><ele>117.0</ele><time>2026-03-22T11:16:16.255Z</time></trkpt><trkpt lat="45.347195" lon="8.74841"><ele>117.0</ele><time>2026-03-22T11:16:17.255Z</time></trkpt><trkpt lat="45.3471533" lon="8.7483133"><ele>117.0</ele><time>2026-03-22T11:16:18.255Z</time></trkpt><trkpt lat="45.3471" lon="8.7482183"><ele>116.85714285714286</ele><time>2026-03-22T11:16:19.255Z</time></trkpt><trkpt lat="45.3470483" lon="8.7481283"><ele>116.71428571428572</ele><time>2026-03-22T11:16:20.255Z</time></trkpt><trkpt lat="45.3470017" lon="8.7480533"><ele>116.57142857142858</ele><time>2026-03-22T11:16:21.255Z</time></trkpt><trkpt lat="45.3469517" lon="8.7479833"><ele>116.42857142857144</ele><time>2026-03-22T11:16:22.255Z</time></trkpt><trkpt lat="45.346895" lon="8.7479183"><ele>116.28571428571429</ele><time>2026-03-22T11:16:23.255Z</time></trkpt><trkpt lat="45.346835" lon="8.7478733"><ele>116.14285714285717</ele><time>2026-03-22T11:16:24.255Z</time></trkpt><trkpt lat="45.346775" lon="8.747825"><ele>116.00000000000001</ele><time>2026-03-22T11:16:25.255Z</time></trkpt><trkpt lat="45.3466917" lon="8.7477417"><ele>116.0</ele><time>2026-03-22T11:16:27.255Z</time></trkpt><trkpt lat="45.3467117" lon="8.747655"><ele>116.0</ele><time>2026-03-22T11:16:29.255Z</time></trkpt><trkpt lat="45.34676" lon="8.7475917"><ele>116.0</ele><time>2026-03-22T11:16:30.255Z</time></trkpt><trkpt lat="45.34683" lon="8.7475267"><ele>116.0</ele><time>2026-03-22T11:16:31.255Z</time></trkpt><trkpt lat="45.3468983" lon="8.747445"><ele>116.0</ele><time>2026-03-22T11:16:32.255Z</time></trkpt><trkpt lat="45.3470367" lon="8.7472467"><ele>116.0</ele><time>2026-03-22T11:16:34.255Z</time></trkpt><trkpt lat="45.3471167" lon="8.747165"><ele>116.0</ele><time>2026-03-22T11:16:35.255Z</time></trkpt><trkpt lat="45.3471883" lon="8.7471017"><ele>116.0</ele><time>2026-03-22T11:16:36.255Z</time></trkpt><trkpt lat="45.347285" lon="8.7470033"><ele>116.0</ele><time>2026-03-22T11:16:38.255Z</time></trkpt><trkpt lat="45.3473567" lon="8.7468717"><ele>116.0</ele><time>2026-03-22T11:16:40.255Z</time></trkpt><trkpt lat="45.3473967" lon="8.746785"><ele>116.49999999999999</ele><time>2026-03-22T11:16:41.255Z</time></trkpt><trkpt lat="45.347455" lon="8.7467283"><ele>117.0</ele><time>2026-03-22T11:16:42.255Z</time></trkpt><trkpt lat="45.3475117" lon="8.7466667"><ele>117.5</ele><time>2026-03-22T11:16:43.255Z</time></trkpt><trkpt lat="45.3475717" lon="8.7466033"><ele>118.0</ele><time>2026-03-22T11:16:44.255Z</time></trkpt><trkpt lat="45.34763" lon="8.74651"><ele>118.49999999999999</ele><time>2026-03-22T11:16:45.255Z</time></trkpt><trkpt lat="45.3476867" lon="8.74641"><ele>119.0</ele><time>2026-03-22T11:16:46.255Z</time></trkpt><trkpt lat="45.347745" lon="8.746305"><ele>118.99999999999999</ele><time>2026-03-22T11:16:47.255Z</time></trkpt><trkpt lat="45.3478067" lon="8.7462083"><ele>119.0</ele><time>2026-03-22T11:16:48.255Z</time></trkpt><trkpt lat="45.3478717" lon="8.7461267"><ele>119.0</ele><time>2026-03-22T11:16:49.255Z</time></trkpt><trkpt lat="45.3479367" lon="8.7460417"><ele>119.0</ele><time>2026-03-22T11:16:50.255Z</time></trkpt><trkpt lat="45.348005" lon="8.7459767"><ele>118.99999999999999</ele><time>2026-03-22T11:16:51.255Z</time></trkpt><trkpt lat="45.3480767" lon="8.7458933"><ele>119.0</ele><time>2026-03-22T11:16:52.255Z</time></trkpt><trkpt lat="45.3481383" lon="8.7457767"><ele>119.0</ele><time>2026-03-22T11:16:53.255Z</time></trkpt><trkpt lat="45.3482033" lon="8.7456583"><ele>119.0</ele><time>2026-03-22T11:16:54.255Z</time></trkpt><trkpt lat="45.34828" lon="8.74555"><ele>119.0</ele><time>2026-03-22T11:16:55.255Z</time></trkpt><trkpt lat="45.348365" lon="8.745435"><ele>119.0</ele><time>2026-03-22T11:16:56.255Z</time></trkpt><trkpt lat="45.3484567" lon="8.7453117"><ele>119.0</ele><time>2026-03-22T11:16:57.255Z</time></trkpt><trkpt lat="45.3485433" lon="8.7451667"><ele>119.0</ele><time>2026-03-22T11:16:58.255Z</time></trkpt><trkpt lat="45.34863" lon="8.7450267"><ele>119.0</ele><time>2026-03-22T11:16:59.255Z</time></trkpt><trkpt lat="45.3487167" lon="8.744875"><ele>119.0</ele><time>2026-03-22T11:17:00.255Z</time></trkpt><trkpt lat="45.3487967" lon="8.7447117"><ele>119.0</ele><time>2026-03-22T11:17:01.255Z</time></trkpt><trkpt lat="45.3488683" lon="8.7445483"><ele>119.0</ele><time>2026-03-22T11:17:02.255Z</time></trkpt><trkpt lat="45.348955" lon="8.7443817"><ele>119.0</ele><time>2026-03-22T11:17:03.255Z</time></trkpt><trkpt lat="45.3490283" lon="8.7442083"><ele>119.0</ele><time>2026-03-22T11:17:04.255Z</time></trkpt><trkpt lat="45.3490933" lon="8.74403"><ele>119.25</ele><time>2026-03-22T11:17:05.255Z</time></trkpt><trkpt lat="45.3491633" lon="8.743845"><ele>119.5</ele><time>2026-03-22T11:17:06.255Z</time></trkpt><trkpt lat="45.3492183" lon="8.74367"><ele>119.75</ele><time>2026-03-22T11:17:07.255Z</time></trkpt><trkpt lat="45.349285" lon="8.7434883"><ele>120.0</ele><time>2026-03-22T11:17:08.255Z</time></trkpt><trkpt lat="45.3493433" lon="8.743325"><ele>120.25</ele><time>2026-03-22T11:17:09.255Z</time></trkpt><trkpt lat="45.3493867" lon="8.7431533"><ele>120.5</ele><time>2026-03-22T11:17:10.255Z</time></trkpt><trkpt lat="45.349425" lon="8.7429733"><ele>120.75</ele><time>2026-03-22T11:17:11.255Z</time></trkpt><trkpt lat="45.3494533" lon="8.7427833"><ele>121.0</ele><time>2026-03-22T11:17:12.255Z</time></trkpt><trkpt lat="45.3494733" lon="8.742585"><ele>120.5</ele><time>2026-03-22T11:17:13.255Z</time></trkpt><trkpt lat="45.349495" lon="8.7423983"><ele>120.0</ele><time>2026-03-22T11:17:14.255Z</time></trkpt><trkpt lat="45.34951" lon="8.7422067"><ele>119.5</ele><time>2026-03-22T11:17:15.255Z</time></trkpt><trkpt lat="45.3495317" lon="8.7420067"><ele>119.0</ele><time>2026-03-22T11:17:16.255Z</time></trkpt><trkpt lat="45.3495567" lon="8.7418133"><ele>118.25</ele><time>2026-03-22T11:17:17.255Z</time></trkpt><trkpt lat="45.3495717" lon="8.7416133"><ele>117.5</ele><time>2026-03-22T11:17:18.255Z</time></trkpt><trkpt lat="45.34959" lon="8.7414217"><ele>116.75</ele><time>2026-03-22T11:17:19.255Z</time></trkpt><trkpt lat="45.3496083" lon="8.7412417"><ele>116.0</ele><time>2026-03-22T11:17:20.255Z</time></trkpt><trkpt lat="45.34963" lon="8.741065"><ele>116.5</ele><time>2026-03-22T11:17:21.255Z</time></trkpt><trkpt lat="45.349645" lon="8.7408883"><ele>117.0</ele><time>2026-03-22T11:17:22.255Z</time></trkpt><trkpt lat="45.3496717" lon="8.7406967"><ele>117.5</ele><time>2026-03-22T11:17:23.255Z</time></trkpt><trkpt lat="45.3496917" lon="8.740515"><ele>118.0</ele><time>2026-03-22T11:17:24.255Z</time></trkpt><trkpt lat="45.3497083" lon="8.740335"><ele>119.0</ele><time>2026-03-22T11:17:25.255Z</time></trkpt><trkpt lat="45.349735" lon="8.740155"><ele>120.0</ele><time>2026-03-22T11:17:26.255Z</time></trkpt><trkpt lat="45.3497633" lon="8.7399733"><ele>121.0</ele><time>2026-03-22T11:17:27.255Z</time></trkpt><trkpt lat="45.3497917" lon="8.7397917"><ele>122.0</ele><time>2026-03-22T11:17:28.255Z</time></trkpt><trkpt lat="45.3498167" lon="8.7396067"><ele>122.0</ele><time>2026-03-22T11:17:29.255Z</time></trkpt><trkpt lat="45.34984" lon="8.73943"><ele>122.0</ele><time>2026-03-22T11:17:30.255Z</time></trkpt><trkpt lat="45.3498633" lon="8.739265"><ele>122.0</ele><time>2026-03-22T11:17:31.255Z</time></trkpt><trkpt lat="45.3499" lon="8.739105"><ele>122.0</ele><time>2026-03-22T11:17:32.255Z</time></trkpt><trkpt lat="45.349945" lon="8.73895"><ele>121.75</ele><time>2026-03-22T11:17:33.255Z</time></trkpt><trkpt lat="45.3500033" lon="8.7387933"><ele>121.5</ele><time>2026-03-22T11:17:34.255Z</time></trkpt><trkpt lat="45.3500667" lon="8.738645"><ele>121.25</ele><time>2026-03-22T11:17:35.255Z</time></trkpt><trkpt lat="45.350135" lon="8.7385"><ele>121.0</ele><time>2026-03-22T11:17:36.255Z</time></trkpt><trkpt lat="45.3502117" lon="8.7383433"><ele>120.0</ele><time>2026-03-22T11:17:37.255Z</time></trkpt><trkpt lat="45.3502883" lon="8.7381967"><ele>119.0</ele><time>2026-03-22T11:17:38.255Z</time></trkpt><trkpt lat="45.3503617" lon="8.738045"><ele>118.0</ele><time>2026-03-22T11:17:39.255Z</time></trkpt><trkpt lat="45.3504267" lon="8.7378867"><ele>117.0</ele><time>2026-03-22T11:17:40.255Z</time></trkpt><trkpt lat="45.350485" lon="8.7377217"><ele>117.25</ele><time>2026-03-22T11:17:41.255Z</time></trkpt><trkpt lat="45.3505317" lon="8.7375667"><ele>117.5</ele><time>2026-03-22T11:17:42.255Z</time></trkpt><trkpt lat="45.3505717" lon="8.7374"><ele>117.75</ele><time>2026-03-22T11:17:43.255Z</time></trkpt><trkpt lat="45.35061" lon="8.7372183"><ele>118.0</ele><time>2026-03-22T11:17:44.256Z</time></trkpt><trkpt lat="45.3506433" lon="8.7370317"><ele>118.25</ele><time>2026-03-22T11:17:45.255Z</time></trkpt><trkpt lat="45.3506683" lon="8.736845"><ele>118.5</ele><time>2026-03-22T11:17:46.255Z</time></trkpt><trkpt lat="45.350695" lon="8.7366483"><ele>118.75</ele><time>2026-03-22T11:17:47.255Z</time></trkpt><trkpt lat="45.3507233" lon="8.7364533"><ele>119.0</ele><time>2026-03-22T11:17:48.255Z</time></trkpt><trkpt lat="45.3507467" lon="8.7362583"><ele>119.0</ele><time>2026-03-22T11:17:49.255Z</time></trkpt><trkpt lat="45.35077" lon="8.7360767"><ele>119.0</ele><time>2026-03-22T11:17:50.255Z</time></trkpt><trkpt lat="45.3507983" lon="8.7359083"><ele>119.0</ele><time>2026-03-22T11:17:51.255Z</time></trkpt><trkpt lat="45.3508133" lon="8.7357383"><ele>119.0</ele><time>2026-03-22T11:17:52.255Z</time></trkpt><trkpt lat="45.35082" lon="8.7355667"><ele>118.75</ele><time>2026-03-22T11:17:53.255Z</time></trkpt><trkpt lat="45.3508217" lon="8.7354"><ele>118.5</ele><time>2026-03-22T11:17:54.255Z</time></trkpt><trkpt lat="45.3508033" lon="8.735225"><ele>118.25</ele><time>2026-03-22T11:17:55.255Z</time></trkpt><trkpt lat="45.35078" lon="8.7350483"><ele>118.0</ele><time>2026-03-22T11:17:56.255Z</time></trkpt><trkpt lat="45.3507467" lon="8.73486"><ele>118.0</ele><time>2026-03-22T11:17:57.255Z</time></trkpt><trkpt lat="45.3507183" lon="8.7346817"><ele>118.0</ele><time>2026-03-22T11:17:58.256Z</time></trkpt><trkpt lat="45.3506933" lon="8.7345117"><ele>118.0</ele><time>2026-03-22T11:17:59.255Z</time></trkpt><trkpt lat="45.350665" lon="8.7343433"><ele>118.0</ele><time>2026-03-22T11:18:00.255Z</time></trkpt><trkpt lat="45.3506317" lon="8.7341767"><ele>118.0</ele><time>2026-03-22T11:18:01.255Z</time></trkpt><trkpt lat="45.350615" lon="8.734"><ele>118.0</ele><time>2026-03-22T11:18:02.255Z</time></trkpt><trkpt lat="45.3506033" lon="8.7338183"><ele>118.0</ele><time>2026-03-22T11:18:03.255Z</time></trkpt><trkpt lat="45.3506067" lon="8.7336333"><ele>118.0</ele><time>2026-03-22T11:18:04.255Z</time></trkpt><trkpt lat="45.3506267" lon="8.73346"><ele>118.0</ele><time>2026-03-22T11:18:05.255Z</time></trkpt><trkpt lat="45.3506567" lon="8.73329"><ele>118.0</ele><time>2026-03-22T11:18:06.255Z</time></trkpt><trkpt lat="45.3507" lon="8.7331183"><ele>118.0</ele><time>2026-03-22T11:18:07.255Z</time></trkpt><trkpt lat="45.3507567" lon="8.7329633"><ele>118.0</ele><time>2026-03-22T11:18:08.255Z</time></trkpt><trkpt lat="45.3508167" lon="8.7328133"><ele>118.75</ele><time>2026-03-22T11:18:09.255Z</time></trkpt><trkpt lat="45.350885" lon="8.7326633"><ele>119.5</ele><time>2026-03-22T11:18:10.255Z</time></trkpt><trkpt lat="45.350955" lon="8.7325083"><ele>120.25</ele><time>2026-03-22T11:18:11.255Z</time></trkpt><trkpt lat="45.3510333" lon="8.73236"><ele>121.0</ele><time>2026-03-22T11:18:12.255Z</time></trkpt><trkpt lat="45.3511133" lon="8.7322133"><ele>121.0</ele><time>2026-03-22T11:18:13.255Z</time></trkpt><trkpt lat="45.351185" lon="8.7320717"><ele>121.0</ele><time>2026-03-22T11:18:14.255Z</time></trkpt><trkpt lat="45.35126" lon="8.731935"><ele>121.0</ele><time>2026-03-22T11:18:15.255Z</time></trkpt><trkpt lat="45.35134" lon="8.7318117"><ele>121.0</ele><time>2026-03-22T11:18:16.255Z</time></trkpt><trkpt lat="45.3514183" lon="8.7316783"><ele>121.25</ele><time>2026-03-22T11:18:17.255Z</time></trkpt><trkpt lat="45.3515067" lon="8.731545"><ele>121.5</ele><time>2026-03-22T11:18:18.255Z</time></trkpt><trkpt lat="45.3515883" lon="8.7314033"><ele>121.75</ele><time>2026-03-22T11:18:19.255Z</time></trkpt><trkpt lat="45.351675" lon="8.7312483"><ele>122.0</ele><time>2026-03-22T11:18:20.255Z</time></trkpt><trkpt lat="45.3517633" lon="8.7310817"><ele>121.5</ele><time>2026-03-22T11:18:21.255Z</time></trkpt><trkpt lat="45.3518483" lon="8.7309333"><ele>121.0</ele><time>2026-03-22T11:18:22.255Z</time></trkpt><trkpt lat="45.3519283" lon="8.73078"><ele>120.5</ele><time>2026-03-22T11:18:23.255Z</time></trkpt><trkpt lat="45.352015" lon="8.7306233"><ele>120.0</ele><time>2026-03-22T11:18:24.255Z</time></trkpt><trkpt lat="45.3520933" lon="8.7304867"><ele>120.0</ele><time>2026-03-22T11:18:25.255Z</time></trkpt><trkpt lat="45.352185" lon="8.7303517"><ele>120.0</ele><time>2026-03-22T11:18:26.255Z</time></trkpt><trkpt lat="45.3522817" lon="8.730225"><ele>120.0</ele><time>2026-03-22T11:18:27.255Z</time></trkpt><trkpt lat="45.35238" lon="8.7301"><ele>120.0</ele><time>2026-03-22T11:18:28.255Z</time></trkpt><trkpt lat="45.3524967" lon="8.7299767"><ele>119.5</ele><time>2026-03-22T11:18:29.255Z</time></trkpt><trkpt lat="45.3526117" lon="8.7298617"><ele>119.0</ele><time>2026-03-22T11:18:30.255Z</time></trkpt><trkpt lat="45.3527283" lon="8.7297467"><ele>118.5</ele><time>2026-03-22T11:18:31.255Z</time></trkpt><trkpt lat="45.35283" lon="8.7296283"><ele>118.0</ele><time>2026-03-22T11:18:32.255Z</time></trkpt><trkpt lat="45.352935" lon="8.72951"><ele>118.0</ele><time>2026-03-22T11:18:33.255Z</time></trkpt><trkpt lat="45.353035" lon="8.7294"><ele>118.0</ele><time>2026-03-22T11:18:34.255Z</time></trkpt><trkpt lat="45.3531317" lon="8.7292917"><ele>118.0</ele><time>2026-03-22T11:18:35.255Z</time></trkpt><trkpt lat="45.3532117" lon="8.7291817"><ele>118.0</ele><time>2026-03-22T11:18:36.255Z</time></trkpt><trkpt lat="45.3532817" lon="8.7290783"><ele>118.2</ele><time>2026-03-22T11:18:37.255Z</time></trkpt><trkpt lat="45.3533317" lon="8.7289833"><ele>118.4</ele><time>2026-03-22T11:18:38.255Z</time></trkpt><trkpt lat="45.3533717" lon="8.7288967"><ele>118.60000000000001</ele><time>2026-03-22T11:18:39.255Z</time></trkpt><trkpt lat="45.3534083" lon="8.7288183"><ele>118.80000000000001</ele><time>2026-03-22T11:18:40.255Z</time></trkpt><trkpt lat="45.3534767" lon="8.72868"><ele>119.0</ele><time>2026-03-22T11:18:42.255Z</time></trkpt><trkpt lat="45.3535467" lon="8.7285383"><ele>119.33333333333333</ele><time>2026-03-22T11:18:44.255Z</time></trkpt><trkpt lat="45.3535817" lon="8.7284517"><ele>119.66666666666666</ele><time>2026-03-22T11:18:45.255Z</time></trkpt><trkpt lat="45.35362" lon="8.7283417"><ele>120.0</ele><time>2026-03-22T11:18:46.255Z</time></trkpt><trkpt lat="45.353655" lon="8.7282333"><ele>120.33333333333334</ele><time>2026-03-22T11:18:47.255Z</time></trkpt><trkpt lat="45.353695" lon="8.7281217"><ele>120.66666666666667</ele><time>2026-03-22T11:18:48.255Z</time></trkpt><trkpt lat="45.3537333" lon="8.728015"><ele>121.0</ele><time>2026-03-22T11:18:49.255Z</time></trkpt><trkpt lat="45.353775" lon="8.7279067"><ele>121.0</ele><time>2026-03-22T11:18:50.255Z</time></trkpt><trkpt lat="45.35381" lon="8.727805"><ele>121.0</ele><time>2026-03-22T11:18:51.255Z</time></trkpt><trkpt lat="45.3538583" lon="8.727695"><ele>121.0</ele><time>2026-03-22T11:18:52.255Z</time></trkpt><trkpt lat="45.3539067" lon="8.7275717"><ele>121.0</ele><time>2026-03-22T11:18:53.255Z</time></trkpt><trkpt lat="45.3539617" lon="8.72747"><ele>121.0</ele><time>2026-03-22T11:18:54.255Z</time></trkpt><trkpt lat="45.354025" lon="8.7273783"><ele>121.00000000000001</ele><time>2026-03-22T11:18:55.255Z</time></trkpt><trkpt lat="45.3540917" lon="8.72732"><ele>121.0</ele><time>2026-03-22T11:18:56.255Z</time></trkpt><trkpt lat="45.3541767" lon="8.7272767"><ele>121.0</ele><time>2026-03-22T11:18:57.255Z</time></trkpt><trkpt lat="45.3542617" lon="8.7272367"><ele>121.0</ele><time>2026-03-22T11:18:58.255Z</time></trkpt><trkpt lat="45.354345" lon="8.72719"><ele>121.00000000000001</ele><time>2026-03-22T11:18:59.255Z</time></trkpt><trkpt lat="45.3544267" lon="8.7271667"><ele>121.0</ele><time>2026-03-22T11:19:00.255Z</time></trkpt><trkpt lat="45.3544967" lon="8.727145"><ele>121.00000000000001</ele><time>2026-03-22T11:19:01.255Z</time></trkpt><trkpt lat="45.354615" lon="8.7271117"><ele>121.0</ele><time>2026-03-22T11:19:03.255Z</time></trkpt><trkpt lat="45.3547067" lon="8.727085"><ele>121.0</ele><time>2026-03-22T11:19:05.255Z</time></trkpt><trkpt lat="45.3547833" lon="8.7270783"><ele>121.0</ele><time>2026-03-22T11:19:07.255Z</time></trkpt><trkpt lat="45.3548433" lon="8.7271483"><ele>121.00000000000001</ele><time>2026-03-22T11:19:09.255Z</time></trkpt><trkpt lat="45.3548967" lon="8.727205"><ele>121.0</ele><time>2026-03-22T11:19:11.255Z</time></trkpt><trkpt lat="45.35496" lon="8.7271767"><ele>121.0</ele><time>2026-03-22T11:19:14.255Z</time></trkpt><trkpt lat="45.3549117" lon="8.7270483"><ele>121.0</ele><time>2026-03-22T11:23:10.254Z</time></trkpt><trkpt lat="45.3548217" lon="8.726995"><ele>121.0</ele><time>2026-03-22T11:23:12.254Z</time></trkpt><trkpt lat="45.3547367" lon="8.7270233"><ele>121.0</ele><time>2026-03-22T11:23:13.254Z</time></trkpt><trkpt lat="45.3546433" lon="8.727075"><ele>121.0</ele><time>2026-03-22T11:23:14.254Z</time></trkpt><trkpt lat="45.35454" lon="8.72711"><ele>121.0</ele><time>2026-03-22T11:23:15.254Z</time></trkpt><trkpt lat="45.3544317" lon="8.7271533"><ele>121.0</ele><time>2026-03-22T11:23:16.254Z</time></trkpt><trkpt lat="45.35432" lon="8.72719"><ele>121.0</ele><time>2026-03-22T11:23:17.254Z</time></trkpt><trkpt lat="45.3542233" lon="8.7272367"><ele>121.0</ele><time>2026-03-22T11:23:18.254Z</time></trkpt><trkpt lat="45.354135" lon="8.7272733"><ele>121.0</ele><time>2026-03-22T11:23:19.254Z</time></trkpt><trkpt lat="45.3540583" lon="8.727315"><ele>121.00000000000001</ele><time>2026-03-22T11:23:20.254Z</time></trkpt><trkpt lat="45.3539967" lon="8.7273633"><ele>121.0</ele><time>2026-03-22T11:23:21.254Z</time></trkpt><trkpt lat="45.3539433" lon="8.72743"><ele>121.0</ele><time>2026-03-22T11:23:22.254Z</time></trkpt><trkpt lat="45.3538867" lon="8.7275183"><ele>121.0</ele><time>2026-03-22T11:23:23.254Z</time></trkpt><trkpt lat="45.3538383" lon="8.7276217"><ele>121.00000000000001</ele><time>2026-03-22T11:23:24.254Z</time></trkpt><trkpt lat="45.35379" lon="8.7277417"><ele>121.0</ele><time>2026-03-22T11:23:25.254Z</time></trkpt><trkpt lat="45.3537517" lon="8.7278567"><ele>121.00000000000001</ele><time>2026-03-22T11:23:26.254Z</time></trkpt><trkpt lat="45.35371" lon="8.7279817"><ele>121.0</ele><time>2026-03-22T11:23:27.254Z</time></trkpt><trkpt lat="45.3536667" lon="8.7281"><ele>121.0</ele><time>2026-03-22T11:23:28.254Z</time></trkpt><trkpt lat="45.35363" lon="8.7282117"><ele>121.0</ele><time>2026-03-22T11:23:29.254Z</time></trkpt><trkpt lat="45.3535883" lon="8.7283167"><ele>121.00000000000001</ele><time>2026-03-22T11:23:30.254Z</time></trkpt><trkpt lat="45.3535517" lon="8.7284233"><ele>121.0</ele><time>2026-03-22T11:23:31.254Z</time></trkpt><trkpt lat="45.3535133" lon="8.728525"><ele>120.71428571428571</ele><time>2026-03-22T11:23:32.254Z</time></trkpt><trkpt lat="45.3534817" lon="8.7286183"><ele>120.42857142857142</ele><time>2026-03-22T11:23:33.254Z</time></trkpt><trkpt lat="45.3534417" lon="8.7287033"><ele>120.14285714285714</ele><time>2026-03-22T11:23:34.254Z</time></trkpt><trkpt lat="45.35341" lon="8.72879"><ele>119.85714285714286</ele><time>2026-03-22T11:23:35.254Z</time></trkpt><trkpt lat="45.3533733" lon="8.7288667"><ele>119.57142857142857</ele><time>2026-03-22T11:23:36.254Z</time></trkpt><trkpt lat="45.3532983" lon="8.728975"><ele>119.28571428571428</ele><time>2026-03-22T11:23:38.254Z</time></trkpt><trkpt lat="45.353235" lon="8.72898"><ele>119.0</ele><time>2026-03-22T11:23:40.254Z</time></trkpt><trkpt lat="45.3531033" lon="8.7288383"><ele>119.0</ele><time>2026-03-22T11:23:43.254Z</time></trkpt><trkpt lat="45.35303" lon="8.7287533"><ele>119.0</ele><time>2026-03-22T11:23:44.254Z</time></trkpt><trkpt lat="45.3528733" lon="8.7285833"><ele>119.0</ele><time>2026-03-22T11:23:46.254Z</time></trkpt><trkpt lat="45.3527683" lon="8.72851"><ele>119.0</ele><time>2026-03-22T11:23:47.254Z</time></trkpt><trkpt lat="45.3526633" lon="8.7284483"><ele>119.0</ele><time>2026-03-22T11:23:48.254Z</time></trkpt><trkpt lat="45.3525517" lon="8.72841"><ele>119.0</ele><time>2026-03-22T11:23:49.254Z</time></trkpt><trkpt lat="45.3524233" lon="8.728395"><ele>119.0</ele><time>2026-03-22T11:23:50.254Z</time></trkpt><trkpt lat="45.3523" lon="8.7283917"><ele>119.0</ele><time>2026-03-22T11:23:51.254Z</time></trkpt><trkpt lat="45.3521683" lon="8.7283617"><ele>119.25</ele><time>2026-03-22T11:23:52.254Z</time></trkpt><trkpt lat="45.352045" lon="8.7283333"><ele>119.5</ele><time>2026-03-22T11:23:53.254Z</time></trkpt><trkpt lat="45.351925" lon="8.72829"><ele>119.75</ele><time>2026-03-22T11:23:54.254Z</time></trkpt><trkpt lat="45.3518067" lon="8.72825"><ele>120.0</ele><time>2026-03-22T11:23:55.254Z</time></trkpt><trkpt lat="45.351695" lon="8.7281867"><ele>120.0</ele><time>2026-03-22T11:23:56.254Z</time></trkpt><trkpt lat="45.3515833" lon="8.72812"><ele>120.0</ele><time>2026-03-22T11:23:57.254Z</time></trkpt><trkpt lat="45.3514717" lon="8.7280567"><ele>120.0</ele><time>2026-03-22T11:23:58.254Z</time></trkpt><trkpt lat="45.351365" lon="8.727985"><ele>120.0</ele><time>2026-03-22T11:23:59.254Z</time></trkpt><trkpt lat="45.3512633" lon="8.7279217"><ele>119.8</ele><time>2026-03-22T11:24:00.254Z</time></trkpt><trkpt lat="45.351175" lon="8.72784"><ele>119.6</ele><time>2026-03-22T11:24:01.254Z</time></trkpt><trkpt lat="45.351095" lon="8.7277617"><ele>119.4</ele><time>2026-03-22T11:24:02.254Z</time></trkpt><trkpt lat="45.3510117" lon="8.7276883"><ele>119.2</ele><time>2026-03-22T11:24:03.254Z</time></trkpt><trkpt lat="45.350935" lon="8.727615"><ele>119.0</ele><time>2026-03-22T11:24:04.254Z</time></trkpt><trkpt lat="45.350885" lon="8.7275367"><ele>119.4</ele><time>2026-03-22T11:24:05.254Z</time></trkpt><trkpt lat="45.3508567" lon="8.7273917"><ele>119.80000000000001</ele><time>2026-03-22T11:24:07.254Z</time></trkpt><trkpt lat="45.3509083" lon="8.72726"><ele>120.19999999999999</ele><time>2026-03-22T11:24:09.254Z</time></trkpt><trkpt lat="45.3509067" lon="8.7271217"><ele>120.6</ele><time>2026-03-22T11:24:11.254Z</time></trkpt><trkpt lat="45.3508183" lon="8.7270067"><ele>121.0</ele><time>2026-03-22T11:24:13.254Z</time></trkpt><trkpt lat="45.3507567" lon="8.72697"><ele>121.00000000000001</ele><time>2026-03-22T11:24:14.254Z</time></trkpt><trkpt lat="45.3507017" lon="8.72692"><ele>121.0</ele><time>2026-03-22T11:24:15.254Z</time></trkpt><trkpt lat="45.3506483" lon="8.7268283"><ele>121.0</ele><time>2026-03-22T11:24:17.254Z</time></trkpt><trkpt lat="45.350685" lon="8.7267317"><ele>121.0</ele><time>2026-03-22T11:24:19.254Z</time></trkpt><trkpt lat="45.3507467" lon="8.726635"><ele>121.00000000000001</ele><time>2026-03-22T11:24:20.254Z</time></trkpt><trkpt lat="45.350815" lon="8.7265317"><ele>121.0</ele><time>2026-03-22T11:24:21.254Z</time></trkpt><trkpt lat="45.3508767" lon="8.7264083"><ele>121.00000000000001</ele><time>2026-03-22T11:24:22.254Z</time></trkpt><trkpt lat="45.350945" lon="8.7262967"><ele>121.0</ele><time>2026-03-22T11:24:23.254Z</time></trkpt><trkpt lat="45.3510117" lon="8.7262"><ele>121.0</ele><time>2026-03-22T11:24:24.254Z</time></trkpt><trkpt lat="45.351065" lon="8.7261217"><ele>121.0</ele><time>2026-03-22T11:24:25.254Z</time></trkpt><trkpt lat="45.3511183" lon="8.7260667"><ele>121.00000000000001</ele><time>2026-03-22T11:24:26.254Z</time></trkpt><trkpt lat="45.3511133" lon="8.72597"><ele>121.0</ele><time>2026-03-22T11:24:28.253Z</time></trkpt><trkpt lat="45.35098" lon="8.7259017"><ele>120.5</ele><time>2026-03-22T11:24:30.253Z</time></trkpt><trkpt lat="45.350865" lon="8.725885"><ele>120.0</ele><time>2026-03-22T11:24:31.253Z</time></trkpt><trkpt lat="45.350745" lon="8.7258683"><ele>119.5</ele><time>2026-03-22T11:24:32.253Z</time></trkpt><trkpt lat="45.3506183" lon="8.72585"><ele>119.0</ele><time>2026-03-22T11:24:33.253Z</time></trkpt><trkpt lat="45.3504817" lon="8.7258283"><ele>119.0</ele><time>2026-03-22T11:24:34.253Z</time></trkpt><trkpt lat="45.350345" lon="8.7258133"><ele>119.0</ele><time>2026-03-22T11:24:35.253Z</time></trkpt><trkpt lat="45.3502083" lon="8.7257967"><ele>119.0</ele><time>2026-03-22T11:24:36.253Z</time></trkpt><trkpt lat="45.3500733" lon="8.7257717"><ele>119.0</ele><time>2026-03-22T11:24:37.253Z</time></trkpt><trkpt lat="45.3499417" lon="8.7257533"><ele>119.0</ele><time>2026-03-22T11:24:38.253Z</time></trkpt><trkpt lat="45.3498167" lon="8.725725"><ele>119.0</ele><time>2026-03-22T11:24:39.253Z</time></trkpt><trkpt lat="45.3496933" lon="8.7257133"><ele>119.0</ele><time>2026-03-22T11:24:40.253Z</time></trkpt><trkpt lat="45.3495617" lon="8.7257183"><ele>119.0</ele><time>2026-03-22T11:24:41.253Z</time></trkpt><trkpt lat="45.3494217" lon="8.7257317"><ele>119.4</ele><time>2026-03-22T11:24:42.253Z</time></trkpt><trkpt lat="45.3492917" lon="8.7257433"><ele>119.80000000000001</ele><time>2026-03-22T11:24:43.253Z</time></trkpt><trkpt lat="45.3491833" lon="8.725755"><ele>120.19999999999999</ele><time>2026-03-22T11:24:44.253Z</time></trkpt><trkpt lat="45.34908" lon="8.7257467"><ele>120.6</ele><time>2026-03-22T11:24:45.253Z</time></trkpt><trkpt lat="45.348985" lon="8.725725"><ele>121.0</ele><time>2026-03-22T11:24:46.253Z</time></trkpt><trkpt lat="45.3488983" lon="8.725705"><ele>120.8</ele><time>2026-03-22T11:24:47.253Z</time></trkpt><trkpt lat="45.3488217" lon="8.725665"><ele>120.6</ele><time>2026-03-22T11:24:48.253Z</time></trkpt><trkpt lat="45.3487433" lon="8.7256067"><ele>120.4</ele><time>2026-03-22T11:24:49.253Z</time></trkpt><trkpt lat="45.3486633" lon="8.7255517"><ele>120.2</ele><time>2026-03-22T11:24:50.253Z</time></trkpt><trkpt lat="45.3485683" lon="8.7255083"><ele>120.0</ele><time>2026-03-22T11:24:51.253Z</time></trkpt><trkpt lat="45.3484467" lon="8.7254783"><ele>120.0</ele><time>2026-03-22T11:24:52.253Z</time></trkpt><trkpt lat="45.34832" lon="8.7254683"><ele>120.0</ele><time>2026-03-22T11:24:53.253Z</time></trkpt><trkpt lat="45.3481883" lon="8.72546"><ele>120.0</ele><time>2026-03-22T11:24:54.253Z</time></trkpt><trkpt lat="45.3480617" lon="8.7254433"><ele>120.0</ele><time>2026-03-22T11:24:55.253Z</time></trkpt><trkpt lat="45.34793" lon="8.725435"><ele>119.75</ele><time>2026-03-22T11:24:56.253Z</time></trkpt><trkpt lat="45.3477983" lon="8.7254117"><ele>119.5</ele><time>2026-03-22T11:24:57.253Z</time></trkpt><trkpt lat="45.34766" lon="8.7253833"><ele>119.25</ele><time>2026-03-22T11:24:58.253Z</time></trkpt><trkpt lat="45.347515" lon="8.7253533"><ele>119.0</ele><time>2026-03-22T11:24:59.253Z</time></trkpt><trkpt lat="45.3473767" lon="8.725325"><ele>119.0</ele><time>2026-03-22T11:25:00.253Z</time></trkpt><trkpt lat="45.3472367" lon="8.7253033"><ele>119.0</ele><time>2026-03-22T11:25:01.253Z</time></trkpt><trkpt lat="45.3470867" lon="8.725275"><ele>119.0</ele><time>2026-03-22T11:25:02.253Z</time></trkpt><trkpt lat="45.3469417" lon="8.7252433"><ele>119.0</ele><time>2026-03-22T11:25:03.253Z</time></trkpt><trkpt lat="45.3467983" lon="8.7252217"><ele>118.75</ele><time>2026-03-22T11:25:04.253Z</time></trkpt><trkpt lat="45.3466567" lon="8.7251917"><ele>118.5</ele><time>2026-03-22T11:25:05.253Z</time></trkpt><trkpt lat="45.3465167" lon="8.7251567"><ele>118.25</ele><time>2026-03-22T11:25:06.253Z</time></trkpt><trkpt lat="45.34637" lon="8.7251317"><ele>118.0</ele><time>2026-03-22T11:25:07.253Z</time></trkpt><trkpt lat="45.3462183" lon="8.7250967"><ele>118.0</ele><time>2026-03-22T11:25:08.253Z</time></trkpt><trkpt lat="45.3460633" lon="8.7250733"><ele>118.0</ele><time>2026-03-22T11:25:09.253Z</time></trkpt><trkpt lat="45.3459217" lon="8.725035"><ele>118.0</ele><time>2026-03-22T11:25:10.253Z</time></trkpt><trkpt lat="45.3457733" lon="8.7250067"><ele>118.0</ele><time>2026-03-22T11:25:11.253Z</time></trkpt><trkpt lat="45.3456283" lon="8.724975"><ele>118.0</ele><time>2026-03-22T11:25:12.253Z</time></trkpt><trkpt lat="45.3454833" lon="8.72496"><ele>118.0</ele><time>2026-03-22T11:25:13.253Z</time></trkpt><trkpt lat="45.34534" lon="8.7249383"><ele>118.0</ele><time>2026-03-22T11:25:14.253Z</time></trkpt><trkpt lat="45.345205" lon="8.7249133"><ele>118.0</ele><time>2026-03-22T11:25:15.253Z</time></trkpt><trkpt lat="45.345075" lon="8.7248883"><ele>118.0</ele><time>2026-03-22T11:25:16.253Z</time></trkpt><trkpt lat="45.34495" lon="8.7248617"><ele>118.0</ele><time>2026-03-22T11:25:17.253Z</time></trkpt><trkpt lat="45.3448433" lon="8.7248583"><ele>118.0</ele><time>2026-03-22T11:25:18.253Z</time></trkpt><trkpt lat="45.3447517" lon="8.72483"><ele>118.00000000000001</ele><time>2026-03-22T11:25:19.253Z</time></trkpt><trkpt lat="45.3446633" lon="8.72481"><ele>118.0</ele><time>2026-03-22T11:25:20.253Z</time></trkpt><trkpt lat="45.3445767" lon="8.7247983"><ele>118.0</ele><time>2026-03-22T11:25:21.253Z</time></trkpt><trkpt lat="45.3445083" lon="8.72479"><ele>118.0</ele><time>2026-03-22T11:25:22.253Z</time></trkpt><trkpt lat="45.3444083" lon="8.724755"><ele>118.00000000000001</ele><time>2026-03-22T11:25:24.253Z</time></trkpt><trkpt lat="45.3443717" lon="8.7246717"><ele>118.0</ele><time>2026-03-22T11:25:26.253Z</time></trkpt><trkpt lat="45.3443917" lon="8.724505"><ele>118.0</ele><time>2026-03-22T11:25:28.253Z</time></trkpt><trkpt lat="45.3444267" lon="8.7243717"><ele>118.0</ele><time>2026-03-22T11:25:29.253Z</time></trkpt><trkpt lat="45.344455" lon="8.7242133"><ele>118.0</ele><time>2026-03-22T11:25:30.253Z</time></trkpt><trkpt lat="45.3444867" lon="8.72405"><ele>118.0</ele><time>2026-03-22T11:25:31.253Z</time></trkpt><trkpt lat="45.3445183" lon="8.72388"><ele>118.0</ele><time>2026-03-22T11:25:32.253Z</time></trkpt><trkpt lat="45.3445467" lon="8.7237033"><ele>118.0</ele><time>2026-03-22T11:25:33.253Z</time></trkpt><trkpt lat="45.34457" lon="8.72353"><ele>118.0</ele><time>2026-03-22T11:25:34.253Z</time></trkpt><trkpt lat="45.34461" lon="8.7233567"><ele>118.0</ele><time>2026-03-22T11:25:35.253Z</time></trkpt><trkpt lat="45.34465" lon="8.72319"><ele>118.0</ele><time>2026-03-22T11:25:36.253Z</time></trkpt><trkpt lat="45.3446883" lon="8.7230183"><ele>118.0</ele><time>2026-03-22T11:25:37.253Z</time></trkpt><trkpt lat="45.3447383" lon="8.7228533"><ele>118.0</ele><time>2026-03-22T11:25:38.253Z</time></trkpt><trkpt lat="45.3447833" lon="8.722685"><ele>118.0</ele><time>2026-03-22T11:25:39.253Z</time></trkpt><trkpt lat="45.3448267" lon="8.72251"><ele>118.25</ele><time>2026-03-22T11:25:40.253Z</time></trkpt><trkpt lat="45.3448683" lon="8.7223183"><ele>118.5</ele><time>2026-03-22T11:25:41.253Z</time></trkpt><trkpt lat="45.3449033" lon="8.72212"><ele>118.75</ele><time>2026-03-22T11:25:42.253Z</time></trkpt><trkpt lat="45.3449267" lon="8.7219267"><ele>119.0</ele><time>2026-03-22T11:25:43.253Z</time></trkpt><trkpt lat="45.3449433" lon="8.72174"><ele>119.0</ele><time>2026-03-22T11:25:44.253Z</time></trkpt><trkpt lat="45.34497" lon="8.7215533"><ele>119.0</ele><time>2026-03-22T11:25:45.253Z</time></trkpt><trkpt lat="45.3449983" lon="8.721355"><ele>119.0</ele><time>2026-03-22T11:25:46.253Z</time></trkpt><trkpt lat="45.3450217" lon="8.721155"><ele>119.0</ele><time>2026-03-22T11:25:47.253Z</time></trkpt><trkpt lat="45.3450383" lon="8.72095"><ele>118.75</ele><time>2026-03-22T11:25:48.253Z</time></trkpt><trkpt lat="45.3450583" lon="8.7207433"><ele>118.5</ele><time>2026-03-22T11:25:49.253Z</time></trkpt><trkpt lat="45.3451017" lon="8.7205367"><ele>118.25</ele><time>2026-03-22T11:25:50.253Z</time></trkpt><trkpt lat="45.3451433" lon="8.720335"><ele>118.0</ele><time>2026-03-22T11:25:51.253Z</time></trkpt><trkpt lat="45.3451917" lon="8.7201417"><ele>118.5</ele><time>2026-03-22T11:25:52.253Z</time></trkpt><trkpt lat="45.3452383" lon="8.7199433"><ele>119.0</ele><time>2026-03-22T11:25:53.253Z</time></trkpt><trkpt lat="45.345275" lon="8.7197333"><ele>119.5</ele><time>2026-03-22T11:25:54.253Z</time></trkpt><trkpt lat="45.3453017" lon="8.719525"><ele>120.0</ele><time>2026-03-22T11:25:55.253Z</time></trkpt><trkpt lat="45.3453317" lon="8.7193067"><ele>120.0</ele><time>2026-03-22T11:25:56.253Z</time></trkpt><trkpt lat="45.345365" lon="8.7191017"><ele>120.0</ele><time>2026-03-22T11:25:57.253Z</time></trkpt><trkpt lat="45.3453933" lon="8.7189"><ele>120.0</ele><time>2026-03-22T11:25:58.253Z</time></trkpt><trkpt lat="45.34543" lon="8.7187"><ele>120.0</ele><time>2026-03-22T11:25:59.253Z</time></trkpt><trkpt lat="45.3454567" lon="8.7184917"><ele>120.0</ele><time>2026-03-22T11:26:00.253Z</time></trkpt><trkpt lat="45.3454833" lon="8.7182783"><ele>120.0</ele><time>2026-03-22T11:26:01.253Z</time></trkpt><trkpt lat="45.345505" lon="8.71808"><ele>120.0</ele><time>2026-03-22T11:26:02.253Z</time></trkpt><trkpt lat="45.3455267" lon="8.7178683"><ele>120.0</ele><time>2026-03-22T11:26:03.253Z</time></trkpt><trkpt lat="45.3455483" lon="8.7176567"><ele>120.0</ele><time>2026-03-22T11:26:04.253Z</time></trkpt><trkpt lat="45.34558" lon="8.7174467"><ele>120.0</ele><time>2026-03-22T11:26:05.253Z</time></trkpt><trkpt lat="45.3456133" lon="8.717255"><ele>120.0</ele><time>2026-03-22T11:26:06.253Z</time></trkpt><trkpt lat="45.3456567" lon="8.7170467"><ele>120.0</ele><time>2026-03-22T11:26:07.253Z</time></trkpt><trkpt lat="45.3457117" lon="8.7168517"><ele>120.0</ele><time>2026-03-22T11:26:08.253Z</time></trkpt><trkpt lat="45.3457583" lon="8.7166417"><ele>120.0</ele><time>2026-03-22T11:26:09.253Z</time></trkpt><trkpt lat="45.3458" lon="8.71644"><ele>120.0</ele><time>2026-03-22T11:26:10.253Z</time></trkpt><trkpt lat="45.3458467" lon="8.716245"><ele>120.0</ele><time>2026-03-22T11:26:11.253Z</time></trkpt><trkpt lat="45.3459" lon="8.7160633"><ele>120.0</ele><time>2026-03-22T11:26:12.253Z</time></trkpt><trkpt lat="45.3459533" lon="8.7158767"><ele>120.0</ele><time>2026-03-22T11:26:13.253Z</time></trkpt><trkpt lat="45.3459967" lon="8.7156917"><ele>120.0</ele><time>2026-03-22T11:26:14.253Z</time></trkpt><trkpt lat="45.3460417" lon="8.7155167"><ele>120.0</ele><time>2026-03-22T11:26:15.253Z</time></trkpt><trkpt lat="45.3460783" lon="8.71535"><ele>119.83333333333333</ele><time>2026-03-22T11:26:16.253Z</time></trkpt><trkpt lat="45.3461067" lon="8.7152133"><ele>119.66666666666666</ele><time>2026-03-22T11:26:17.253Z</time></trkpt><trkpt lat="45.34613" lon="8.7150967"><ele>119.5</ele><time>2026-03-22T11:26:18.253Z</time></trkpt><trkpt lat="45.3461567" lon="8.71499"><ele>119.33333333333333</ele><time>2026-03-22T11:26:19.253Z</time></trkpt><trkpt lat="45.346185" lon="8.714905"><ele>119.16666666666666</ele><time>2026-03-22T11:26:20.253Z</time></trkpt><trkpt lat="45.3462117" lon="8.714765"><ele>119.0</ele><time>2026-03-22T11:26:22.253Z</time></trkpt><trkpt lat="45.346215" lon="8.7146683"><ele>119.0</ele><time>2026-03-22T11:26:23.253Z</time></trkpt><trkpt lat="45.3462233" lon="8.71453"><ele>119.0</ele><time>2026-03-22T11:26:24.253Z</time></trkpt><trkpt lat="45.34622" lon="8.7143767"><ele>119.0</ele><time>2026-03-22T11:26:25.253Z</time></trkpt><trkpt lat="45.3462233" lon="8.7142017"><ele>119.0</ele><time>2026-03-22T11:26:26.253Z</time></trkpt><trkpt lat="45.34624" lon="8.71402"><ele>118.75</ele><time>2026-03-22T11:26:27.253Z</time></trkpt><trkpt lat="45.3462567" lon="8.7138183"><ele>118.5</ele><time>2026-03-22T11:26:28.253Z</time></trkpt><trkpt lat="45.3462817" lon="8.7136167"><ele>118.25</ele><time>2026-03-22T11:26:29.253Z</time></trkpt><trkpt lat="45.34631" lon="8.713405"><ele>118.0</ele><time>2026-03-22T11:26:30.253Z</time></trkpt><trkpt lat="45.34635" lon="8.713195"><ele>118.25</ele><time>2026-03-22T11:26:31.253Z</time></trkpt><trkpt lat="45.3463917" lon="8.7129967"><ele>118.5</ele><time>2026-03-22T11:26:32.253Z</time></trkpt><trkpt lat="45.3464267" lon="8.7127967"><ele>118.75</ele><time>2026-03-22T11:26:33.253Z</time></trkpt><trkpt lat="45.3464567" lon="8.7126117"><ele>119.0</ele><time>2026-03-22T11:26:34.253Z</time></trkpt><trkpt lat="45.3464717" lon="8.7124317"><ele>119.25</ele><time>2026-03-22T11:26:35.253Z</time></trkpt><trkpt lat="45.3464883" lon="8.71225"><ele>119.5</ele><time>2026-03-22T11:26:36.253Z</time></trkpt><trkpt lat="45.3464933" lon="8.7120533"><ele>119.75</ele><time>2026-03-22T11:26:37.253Z</time></trkpt><trkpt lat="45.3464933" lon="8.71185"><ele>120.0</ele><time>2026-03-22T11:26:38.253Z</time></trkpt><trkpt lat="45.3464983" lon="8.7116383"><ele>120.0</ele><time>2026-03-22T11:26:39.253Z</time></trkpt><trkpt lat="45.3464917" lon="8.7114383"><ele>120.0</ele><time>2026-03-22T11:26:40.254Z</time></trkpt><trkpt lat="45.34649" lon="8.7112333"><ele>120.0</ele><time>2026-03-22T11:26:41.253Z</time></trkpt><trkpt lat="45.3464917" lon="8.71102"><ele>120.0</ele><time>2026-03-22T11:26:42.253Z</time></trkpt><trkpt lat="45.3464833" lon="8.710805"><ele>119.75</ele><time>2026-03-22T11:26:43.253Z</time></trkpt><trkpt lat="45.3464783" lon="8.71059"><ele>119.5</ele><time>2026-03-22T11:26:44.253Z</time></trkpt><trkpt lat="45.34647" lon="8.7103883"><ele>119.25</ele><time>2026-03-22T11:26:45.253Z</time></trkpt><trkpt lat="45.3464717" lon="8.71018"><ele>119.0</ele><time>2026-03-22T11:26:46.253Z</time></trkpt><trkpt lat="45.3464817" lon="8.7099817"><ele>119.0</ele><time>2026-03-22T11:26:47.253Z</time></trkpt><trkpt lat="45.346495" lon="8.70978"><ele>119.0</ele><time>2026-03-22T11:26:48.253Z</time></trkpt><trkpt lat="45.34652" lon="8.7096"><ele>119.0</ele><time>2026-03-22T11:26:49.253Z</time></trkpt><trkpt lat="45.3465533" lon="8.7094417"><ele>119.0</ele><time>2026-03-22T11:26:50.253Z</time></trkpt><trkpt lat="45.3465783" lon="8.7093017"><ele>118.75</ele><time>2026-03-22T11:26:51.253Z</time></trkpt><trkpt lat="45.3465817" lon="8.7091467"><ele>118.5</ele><time>2026-03-22T11:26:52.253Z</time></trkpt><trkpt lat="45.3465667" lon="8.7089833"><ele>118.25</ele><time>2026-03-22T11:26:53.253Z</time></trkpt><trkpt lat="45.3465317" lon="8.708805"><ele>118.0</ele><time>2026-03-22T11:26:54.253Z</time></trkpt><trkpt lat="45.3464967" lon="8.708615"><ele>117.66666666666667</ele><time>2026-03-22T11:26:55.253Z</time></trkpt><trkpt lat="45.3464183" lon="8.7082367"><ele>117.33333333333334</ele><time>2026-03-22T11:26:57.253Z</time></trkpt><trkpt lat="45.346385" lon="8.7080567"><ele>117.0</ele><time>2026-03-22T11:26:58.253Z</time></trkpt><trkpt lat="45.3463517" lon="8.7078717"><ele>117.25</ele><time>2026-03-22T11:26:59.253Z</time></trkpt><trkpt lat="45.346325" lon="8.707675"><ele>117.5</ele><time>2026-03-22T11:27:00.253Z</time></trkpt><trkpt lat="45.3462983" lon="8.7074767"><ele>117.75</ele><time>2026-03-22T11:27:01.253Z</time></trkpt><trkpt lat="45.3462667" lon="8.70728"><ele>118.0</ele><time>2026-03-22T11:27:02.253Z</time></trkpt><trkpt lat="45.3462433" lon="8.7070733"><ele>117.75</ele><time>2026-03-22T11:27:03.253Z</time></trkpt><trkpt lat="45.3462283" lon="8.7068783"><ele>117.5</ele><time>2026-03-22T11:27:04.253Z</time></trkpt><trkpt lat="45.3462117" lon="8.70668"><ele>117.25</ele><time>2026-03-22T11:27:05.253Z</time></trkpt><trkpt lat="45.3462017" lon="8.7064917"><ele>117.0</ele><time>2026-03-22T11:27:06.253Z</time></trkpt><trkpt lat="45.346195" lon="8.706285"><ele>117.33333333333334</ele><time>2026-03-22T11:27:07.253Z</time></trkpt><trkpt lat="45.3461717" lon="8.70588"><ele>117.66666666666667</ele><time>2026-03-22T11:27:09.253Z</time></trkpt><trkpt lat="45.3461567" lon="8.7056717"><ele>118.0</ele><time>2026-03-22T11:27:10.253Z</time></trkpt><trkpt lat="45.3461417" lon="8.70548"><ele>118.0</ele><time>2026-03-22T11:27:11.253Z</time></trkpt><trkpt lat="45.3461283" lon="8.7052917"><ele>118.0</ele><time>2026-03-22T11:27:12.253Z</time></trkpt><trkpt lat="45.346115" lon="8.7051067"><ele>118.0</ele><time>2026-03-22T11:27:13.253Z</time></trkpt><trkpt lat="45.3461117" lon="8.70493"><ele>118.0</ele><time>2026-03-22T11:27:14.253Z</time></trkpt><trkpt lat="45.34613" lon="8.7047483"><ele>118.0</ele><time>2026-03-22T11:27:15.253Z</time></trkpt><trkpt lat="45.3461583" lon="8.7045617"><ele>118.0</ele><time>2026-03-22T11:27:16.253Z</time></trkpt><trkpt lat="45.346195" lon="8.7043633"><ele>118.0</ele><time>2026-03-22T11:27:17.253Z</time></trkpt><trkpt lat="45.34624" lon="8.704165"><ele>118.0</ele><time>2026-03-22T11:27:18.253Z</time></trkpt><trkpt lat="45.346295" lon="8.7039633"><ele>118.25</ele><time>2026-03-22T11:27:19.253Z</time></trkpt><trkpt lat="45.3463467" lon="8.70377"><ele>118.5</ele><time>2026-03-22T11:27:20.253Z</time></trkpt><trkpt lat="45.3463967" lon="8.7035717"><ele>118.75</ele><time>2026-03-22T11:27:21.253Z</time></trkpt><trkpt lat="45.3464467" lon="8.7033667"><ele>119.0</ele><time>2026-03-22T11:27:22.253Z</time></trkpt><trkpt lat="45.346495" lon="8.7031617"><ele>119.0</ele><time>2026-03-22T11:27:23.253Z</time></trkpt><trkpt lat="45.3465483" lon="8.702955"><ele>119.0</ele><time>2026-03-22T11:27:24.253Z</time></trkpt><trkpt lat="45.346595" lon="8.7027683"><ele>119.0</ele><time>2026-03-22T11:27:25.253Z</time></trkpt><trkpt lat="45.3466567" lon="8.7025817"><ele>119.0</ele><time>2026-03-22T11:27:26.253Z</time></trkpt><trkpt lat="45.3467083" lon="8.7024083"><ele>119.25</ele><time>2026-03-22T11:27:27.253Z</time></trkpt><trkpt lat="45.3467667" lon="8.7022333"><ele>119.5</ele><time>2026-03-22T11:27:28.253Z</time></trkpt><trkpt lat="45.3468083" lon="8.7020567"><ele>119.75</ele><time>2026-03-22T11:27:29.253Z</time></trkpt><trkpt lat="45.3468267" lon="8.7018833"><ele>120.0</ele><time>2026-03-22T11:27:30.253Z</time></trkpt><trkpt lat="45.3468567" lon="8.701715"><ele>120.2</ele><time>2026-03-22T11:27:31.253Z</time></trkpt><trkpt lat="45.34688" lon="8.7015567"><ele>120.4</ele><time>2026-03-22T11:27:32.253Z</time></trkpt><trkpt lat="45.3469067" lon="8.7014133"><ele>120.6</ele><time>2026-03-22T11:27:33.253Z</time></trkpt><trkpt lat="45.3469233" lon="8.7012817"><ele>120.8</ele><time>2026-03-22T11:27:34.253Z</time></trkpt><trkpt lat="45.3469383" lon="8.701175"><ele>121.0</ele><time>2026-03-22T11:27:35.253Z</time></trkpt><trkpt lat="45.34695" lon="8.701075"><ele>120.6</ele><time>2026-03-22T11:27:36.253Z</time></trkpt><trkpt lat="45.346955" lon="8.7009767"><ele>120.19999999999999</ele><time>2026-03-22T11:27:38.253Z</time></trkpt><trkpt lat="45.346895" lon="8.70092"><ele>119.80000000000001</ele><time>2026-03-22T11:27:41.253Z</time></trkpt><trkpt lat="45.3467383" lon="8.7009817"><ele>119.4</ele><time>2026-03-22T11:27:43.253Z</time></trkpt><trkpt lat="45.3466217" lon="8.7010283"><ele>119.0</ele><time>2026-03-22T11:27:44.253Z</time></trkpt><trkpt lat="45.346505" lon="8.7010783"><ele>119.25</ele><time>2026-03-22T11:27:45.253Z</time></trkpt><trkpt lat="45.346385" lon="8.7011333"><ele>119.5</ele><time>2026-03-22T11:27:46.253Z</time></trkpt><trkpt lat="45.346255" lon="8.701185"><ele>119.75</ele><time>2026-03-22T11:27:47.253Z</time></trkpt><trkpt lat="45.3461183" lon="8.7012417"><ele>120.0</ele><time>2026-03-22T11:27:48.253Z</time></trkpt><trkpt lat="45.345985" lon="8.7012933"><ele>120.0</ele><time>2026-03-22T11:27:49.253Z</time></trkpt><trkpt lat="45.3458517" lon="8.7013567"><ele>120.0</ele><time>2026-03-22T11:27:50.253Z</time></trkpt><trkpt lat="45.345715" lon="8.70142"><ele>120.0</ele><time>2026-03-22T11:27:51.253Z</time></trkpt><trkpt lat="45.345575" lon="8.701465"><ele>120.0</ele><time>2026-03-22T11:27:52.253Z</time></trkpt><trkpt lat="45.3454317" lon="8.701505"><ele>119.75</ele><time>2026-03-22T11:27:53.253Z</time></trkpt><trkpt lat="45.3452967" lon="8.70155"><ele>119.5</ele><time>2026-03-22T11:27:54.253Z</time></trkpt><trkpt lat="45.345175" lon="8.7015633"><ele>119.25</ele><time>2026-03-22T11:27:55.253Z</time></trkpt><trkpt lat="45.34506" lon="8.7015583"><ele>119.0</ele><time>2026-03-22T11:27:56.253Z</time></trkpt><trkpt lat="45.3449433" lon="8.7015467"><ele>119.0</ele><time>2026-03-22T11:27:57.253Z</time></trkpt><trkpt lat="45.34483" lon="8.7015217"><ele>119.0</ele><time>2026-03-22T11:27:58.253Z</time></trkpt><trkpt lat="45.3447333" lon="8.7015017"><ele>119.0</ele><time>2026-03-22T11:27:59.252Z</time></trkpt><trkpt lat="45.344635" lon="8.7014767"><ele>119.0</ele><time>2026-03-22T11:28:00.253Z</time></trkpt><trkpt lat="45.3445533" lon="8.701445"><ele>119.0</ele><time>2026-03-22T11:28:01.253Z</time></trkpt><trkpt lat="45.344475" lon="8.701435"><ele>118.99999999999999</ele><time>2026-03-22T11:28:02.253Z</time></trkpt><trkpt lat="45.3443967" lon="8.701425"><ele>119.0</ele><time>2026-03-22T11:28:03.253Z</time></trkpt><trkpt lat="45.3443267" lon="8.7014233"><ele>119.0</ele><time>2026-03-22T11:28:04.253Z</time></trkpt><trkpt lat="45.3442233" lon="8.70138"><ele>119.0</ele><time>2026-03-22T11:28:06.253Z</time></trkpt><trkpt lat="45.3441767" lon="8.7013017"><ele>118.99999999999999</ele><time>2026-03-22T11:28:08.253Z</time></trkpt><trkpt lat="45.3442167" lon="8.7011433"><ele>119.0</ele><time>2026-03-22T11:28:10.253Z</time></trkpt><trkpt lat="45.3442417" lon="8.701015"><ele>119.0</ele><time>2026-03-22T11:28:11.253Z</time></trkpt><trkpt lat="45.3442683" lon="8.700855"><ele>119.0</ele><time>2026-03-22T11:28:12.253Z</time></trkpt><trkpt lat="45.34429" lon="8.7006817"><ele>119.0</ele><time>2026-03-22T11:28:13.253Z</time></trkpt><trkpt lat="45.3443183" lon="8.70051"><ele>119.0</ele><time>2026-03-22T11:28:14.253Z</time></trkpt><trkpt lat="45.3443383" lon="8.70033"><ele>119.0</ele><time>2026-03-22T11:28:15.253Z</time></trkpt><trkpt lat="45.3443583" lon="8.70016"><ele>119.0</ele><time>2026-03-22T11:28:16.253Z</time></trkpt><trkpt lat="45.3443733" lon="8.6999983"><ele>119.0</ele><time>2026-03-22T11:28:17.253Z</time></trkpt><trkpt lat="45.34439" lon="8.699855"><ele>119.0</ele><time>2026-03-22T11:28:18.253Z</time></trkpt><trkpt lat="45.3444133" lon="8.69973"><ele>119.0</ele><time>2026-03-22T11:28:19.253Z</time></trkpt><trkpt lat="45.344435" lon="8.6995967"><ele>119.0</ele><time>2026-03-22T11:28:20.253Z</time></trkpt><trkpt lat="45.34445" lon="8.69945"><ele>119.0</ele><time>2026-03-22T11:28:21.253Z</time></trkpt><trkpt lat="45.3444633" lon="8.69929"><ele>119.0</ele><time>2026-03-22T11:28:22.253Z</time></trkpt><trkpt lat="45.3444767" lon="8.6991317"><ele>119.0</ele><time>2026-03-22T11:28:23.253Z</time></trkpt><trkpt lat="45.3444983" lon="8.69899"><ele>119.0</ele><time>2026-03-22T11:28:24.253Z</time></trkpt><trkpt lat="45.34451" lon="8.6988617"><ele>119.0</ele><time>2026-03-22T11:28:25.253Z</time></trkpt><trkpt lat="45.3445267" lon="8.6987433"><ele>119.0</ele><time>2026-03-22T11:28:26.253Z</time></trkpt><trkpt lat="45.3445483" lon="8.6985983"><ele>119.0</ele><time>2026-03-22T11:28:27.253Z</time></trkpt><trkpt lat="45.3445567" lon="8.69846"><ele>119.0</ele><time>2026-03-22T11:28:28.253Z</time></trkpt><trkpt lat="45.3445717" lon="8.698305"><ele>119.0</ele><time>2026-03-22T11:28:29.253Z</time></trkpt><trkpt lat="45.3445933" lon="8.698155"><ele>119.0</ele><time>2026-03-22T11:28:30.253Z</time></trkpt><trkpt lat="45.3446167" lon="8.6980067"><ele>119.0</ele><time>2026-03-22T11:28:31.253Z</time></trkpt><trkpt lat="45.34464" lon="8.697855"><ele>119.0</ele><time>2026-03-22T11:28:32.253Z</time></trkpt><trkpt lat="45.3446633" lon="8.6977083"><ele>119.0</ele><time>2026-03-22T11:28:33.253Z</time></trkpt><trkpt lat="45.344685" lon="8.6975583"><ele>119.0</ele><time>2026-03-22T11:28:34.253Z</time></trkpt><trkpt lat="45.3447083" lon="8.6974167"><ele>119.2</ele><time>2026-03-22T11:28:35.253Z</time></trkpt><trkpt lat="45.3447233" lon="8.6972717"><ele>119.4</ele><time>2026-03-22T11:28:36.253Z</time></trkpt><trkpt lat="45.3447417" lon="8.69712"><ele>119.6</ele><time>2026-03-22T11:28:37.253Z</time></trkpt><trkpt lat="45.3447667" lon="8.69697"><ele>119.8</ele><time>2026-03-22T11:28:38.253Z</time></trkpt><trkpt lat="45.3447917" lon="8.696825"><ele>120.0</ele><time>2026-03-22T11:28:39.253Z</time></trkpt><trkpt lat="45.3448033" lon="8.696665"><ele>120.0</ele><time>2026-03-22T11:28:40.252Z</time></trkpt><trkpt lat="45.344825" lon="8.6964883"><ele>120.0</ele><time>2026-03-22T11:28:41.252Z</time></trkpt><trkpt lat="45.34485" lon="8.696325"><ele>120.0</ele><time>2026-03-22T11:28:42.252Z</time></trkpt><trkpt lat="45.3448733" lon="8.69616"><ele>120.0</ele><time>2026-03-22T11:28:43.252Z</time></trkpt><trkpt lat="45.3448983" lon="8.6960017"><ele>119.75</ele><time>2026-03-22T11:28:44.252Z</time></trkpt><trkpt lat="45.3449233" lon="8.6958333"><ele>119.5</ele><time>2026-03-22T11:28:45.252Z</time></trkpt><trkpt lat="45.34494" lon="8.6956583"><ele>119.25</ele><time>2026-03-22T11:28:46.252Z</time></trkpt><trkpt lat="45.34496" lon="8.6954883"><ele>119.0</ele><time>2026-03-22T11:28:47.252Z</time></trkpt><trkpt lat="45.344985" lon="8.69533"><ele>119.0</ele><time>2026-03-22T11:28:48.252Z</time></trkpt><trkpt lat="45.3450217" lon="8.69518"><ele>119.0</ele><time>2026-03-22T11:28:49.252Z</time></trkpt><trkpt lat="45.34506" lon="8.695025"><ele>119.0</ele><time>2026-03-22T11:28:50.252Z</time></trkpt><trkpt lat="45.345095" lon="8.694865"><ele>119.0</ele><time>2026-03-22T11:28:51.252Z</time></trkpt><trkpt lat="45.3451183" lon="8.6947033"><ele>119.0</ele><time>2026-03-22T11:28:52.252Z</time></trkpt><trkpt lat="45.345135" lon="8.694525"><ele>119.0</ele><time>2026-03-22T11:28:53.252Z</time></trkpt><trkpt lat="45.3451517" lon="8.6943383"><ele>119.0</ele><time>2026-03-22T11:28:54.252Z</time></trkpt><trkpt lat="45.3451667" lon="8.69415"><ele>119.0</ele><time>2026-03-22T11:28:55.252Z</time></trkpt><trkpt lat="45.3451683" lon="8.693975"><ele>119.0</ele><time>2026-03-22T11:28:56.252Z</time></trkpt><trkpt lat="45.3451683" lon="8.6938067"><ele>119.0</ele><time>2026-03-22T11:28:57.252Z</time></trkpt><trkpt lat="45.34517" lon="8.69363"><ele>119.0</ele><time>2026-03-22T11:28:58.252Z</time></trkpt><trkpt lat="45.34517" lon="8.6934617"><ele>119.0</ele><time>2026-03-22T11:28:59.252Z</time></trkpt><trkpt lat="45.3451817" lon="8.6932783"><ele>119.25</ele><time>2026-03-22T11:29:00.252Z</time></trkpt><trkpt lat="45.3451817" lon="8.6931017"><ele>119.5</ele><time>2026-03-22T11:29:01.252Z</time></trkpt><trkpt lat="45.345185" lon="8.6929"><ele>119.75</ele><time>2026-03-22T11:29:02.252Z</time></trkpt><trkpt lat="45.3451833" lon="8.692715"><ele>120.0</ele><time>2026-03-22T11:29:03.252Z</time></trkpt><trkpt lat="45.34519" lon="8.6925283"><ele>120.0</ele><time>2026-03-22T11:29:04.252Z</time></trkpt><trkpt lat="45.3451917" lon="8.692345"><ele>120.0</ele><time>2026-03-22T11:29:05.252Z</time></trkpt><trkpt lat="45.3451867" lon="8.6921733"><ele>120.0</ele><time>2026-03-22T11:29:06.252Z</time></trkpt><trkpt lat="45.3451833" lon="8.692005"><ele>120.0</ele><time>2026-03-22T11:29:07.252Z</time></trkpt><trkpt lat="45.3451817" lon="8.691835"><ele>120.0</ele><time>2026-03-22T11:29:08.252Z</time></trkpt><trkpt lat="45.34519" lon="8.69166"><ele>120.0</ele><time>2026-03-22T11:29:09.252Z</time></trkpt><trkpt lat="45.3452217" lon="8.6914917"><ele>120.0</ele><time>2026-03-22T11:29:10.252Z</time></trkpt><trkpt lat="45.3452667" lon="8.691335"><ele>120.0</ele><time>2026-03-22T11:29:11.252Z</time></trkpt><trkpt lat="45.345315" lon="8.691165"><ele>120.0</ele><time>2026-03-22T11:29:12.252Z</time></trkpt><trkpt lat="45.34536" lon="8.6909783"><ele>120.0</ele><time>2026-03-22T11:29:13.252Z</time></trkpt><trkpt lat="45.3454033" lon="8.6907967"><ele>120.0</ele><time>2026-03-22T11:29:14.252Z</time></trkpt><trkpt lat="45.34545" lon="8.6906067"><ele>120.0</ele><time>2026-03-22T11:29:15.252Z</time></trkpt><trkpt lat="45.3455" lon="8.69041"><ele>119.75</ele><time>2026-03-22T11:29:16.252Z</time></trkpt><trkpt lat="45.3455383" lon="8.6902117"><ele>119.5</ele><time>2026-03-22T11:29:17.252Z</time></trkpt><trkpt lat="45.3455617" lon="8.6900133"><ele>119.25</ele><time>2026-03-22T11:29:18.252Z</time></trkpt><trkpt lat="45.3455917" lon="8.6898217"><ele>119.0</ele><time>2026-03-22T11:29:19.252Z</time></trkpt><trkpt lat="45.3456183" lon="8.6896517"><ele>119.0</ele><time>2026-03-22T11:29:20.252Z</time></trkpt><trkpt lat="45.3456433" lon="8.68949"><ele>119.0</ele><time>2026-03-22T11:29:21.252Z</time></trkpt><trkpt lat="45.3456567" lon="8.68934"><ele>119.0</ele><time>2026-03-22T11:29:22.252Z</time></trkpt><trkpt lat="45.345675" lon="8.68921"><ele>119.0</ele><time>2026-03-22T11:29:23.252Z</time></trkpt><trkpt lat="45.3456883" lon="8.689065"><ele>119.0</ele><time>2026-03-22T11:29:24.253Z</time></trkpt><trkpt lat="45.3456883" lon="8.6889017"><ele>119.0</ele><time>2026-03-22T11:29:25.252Z</time></trkpt><trkpt lat="45.3456883" lon="8.6887133"><ele>119.0</ele><time>2026-03-22T11:29:26.252Z</time></trkpt><trkpt lat="45.3456917" lon="8.6885083"><ele>119.0</ele><time>2026-03-22T11:29:27.252Z</time></trkpt><trkpt lat="45.3457033" lon="8.6882967"><ele>119.0</ele><time>2026-03-22T11:29:28.252Z</time></trkpt><trkpt lat="45.3457067" lon="8.68807"><ele>119.0</ele><time>2026-03-22T11:29:29.252Z</time></trkpt><trkpt lat="45.3457233" lon="8.68784"><ele>119.0</ele><time>2026-03-22T11:29:30.252Z</time></trkpt><trkpt lat="45.3457567" lon="8.68762"><ele>119.0</ele><time>2026-03-22T11:29:31.252Z</time></trkpt><trkpt lat="45.3457717" lon="8.6873933"><ele>119.0</ele><time>2026-03-22T11:29:32.252Z</time></trkpt><trkpt lat="45.3457783" lon="8.6871717"><ele>119.0</ele><time>2026-03-22T11:29:33.252Z</time></trkpt><trkpt lat="45.34579" lon="8.6869417"><ele>119.0</ele><time>2026-03-22T11:29:34.252Z</time></trkpt><trkpt lat="45.3457867" lon="8.68671"><ele>119.0</ele><time>2026-03-22T11:29:35.252Z</time></trkpt><trkpt lat="45.345805" lon="8.68648"><ele>119.0</ele><time>2026-03-22T11:29:36.252Z</time></trkpt><trkpt lat="45.3458383" lon="8.68626"><ele>119.0</ele><time>2026-03-22T11:29:37.252Z</time></trkpt><trkpt lat="45.3458767" lon="8.6860383"><ele>118.66666666666666</ele><time>2026-03-22T11:29:38.252Z</time></trkpt><trkpt lat="45.345915" lon="8.6857917"><ele>118.33333333333334</ele><time>2026-03-22T11:29:39.252Z</time></trkpt><trkpt lat="45.3459567" lon="8.68554"><ele>118.0</ele><time>2026-03-22T11:29:40.252Z</time></trkpt><trkpt lat="45.3460083" lon="8.685275"><ele>118.33333333333334</ele><time>2026-03-22T11:29:41.252Z</time></trkpt><trkpt lat="45.3460533" lon="8.6850033"><ele>118.66666666666666</ele><time>2026-03-22T11:29:42.252Z</time></trkpt><trkpt lat="45.3460883" lon="8.6847317"><ele>119.0</ele><time>2026-03-22T11:29:43.252Z</time></trkpt><trkpt lat="45.3461233" lon="8.6844867"><ele>119.0</ele><time>2026-03-22T11:29:44.252Z</time></trkpt><trkpt lat="45.3461583" lon="8.684235"><ele>119.0</ele><time>2026-03-22T11:29:45.252Z</time></trkpt><trkpt lat="45.3461833" lon="8.683995"><ele>119.0</ele><time>2026-03-22T11:29:46.252Z</time></trkpt><trkpt lat="45.3462167" lon="8.6837583"><ele>119.0</ele><time>2026-03-22T11:29:47.252Z</time></trkpt><trkpt lat="45.3462467" lon="8.6835133"><ele>119.0</ele><time>2026-03-22T11:29:48.252Z</time></trkpt><trkpt lat="45.3462817" lon="8.6832567"><ele>119.0</ele><time>2026-03-22T11:29:49.252Z</time></trkpt><trkpt lat="45.3463167" lon="8.6830017"><ele>119.0</ele><time>2026-03-22T11:29:50.252Z</time></trkpt><trkpt lat="45.34636" lon="8.682755"><ele>119.0</ele><time>2026-03-22T11:29:51.252Z</time></trkpt><trkpt lat="45.3463983" lon="8.6824983"><ele>119.0</ele><time>2026-03-22T11:29:52.252Z</time></trkpt><trkpt lat="45.346435" lon="8.682255"><ele>119.33333333333333</ele><time>2026-03-22T11:29:53.252Z</time></trkpt><trkpt lat="45.3464667" lon="8.6820283"><ele>119.66666666666666</ele><time>2026-03-22T11:29:54.252Z</time></trkpt><trkpt lat="45.3464917" lon="8.681815"><ele>120.0</ele><time>2026-03-22T11:29:55.252Z</time></trkpt><trkpt lat="45.3465233" lon="8.68161"><ele>120.0</ele><time>2026-03-22T11:29:56.252Z</time></trkpt><trkpt lat="45.3465367" lon="8.6814067"><ele>120.0</ele><time>2026-03-22T11:29:57.252Z</time></trkpt><trkpt lat="45.3465433" lon="8.6812067"><ele>120.0</ele><time>2026-03-22T11:29:58.252Z</time></trkpt><trkpt lat="45.346555" lon="8.681025"><ele>120.0</ele><time>2026-03-22T11:29:59.252Z</time></trkpt><trkpt lat="45.34656" lon="8.6808433"><ele>119.75</ele><time>2026-03-22T11:30:00.252Z</time></trkpt><trkpt lat="45.3465933" lon="8.68065"><ele>119.5</ele><time>2026-03-22T11:30:01.252Z</time></trkpt><trkpt lat="45.346635" lon="8.6804767"><ele>119.25</ele><time>2026-03-22T11:30:02.252Z</time></trkpt><trkpt lat="45.3466883" lon="8.6803017"><ele>119.0</ele><time>2026-03-22T11:30:03.252Z</time></trkpt><trkpt lat="45.3467433" lon="8.6801217"><ele>119.0</ele><time>2026-03-22T11:30:04.252Z</time></trkpt><trkpt lat="45.3467917" lon="8.67995"><ele>119.0</ele><time>2026-03-22T11:30:05.252Z</time></trkpt><trkpt lat="45.346825" lon="8.6797733"><ele>119.0</ele><time>2026-03-22T11:30:06.252Z</time></trkpt><trkpt lat="45.3468467" lon="8.6795883"><ele>119.0</ele><time>2026-03-22T11:30:07.252Z</time></trkpt><trkpt lat="45.346865" lon="8.6793983"><ele>119.25</ele><time>2026-03-22T11:30:08.252Z</time></trkpt><trkpt lat="45.3468817" lon="8.6792117"><ele>119.5</ele><time>2026-03-22T11:30:09.252Z</time></trkpt><trkpt lat="45.346895" lon="8.6790183"><ele>119.75</ele><time>2026-03-22T11:30:10.252Z</time></trkpt><trkpt lat="45.3469133" lon="8.67884"><ele>120.0</ele><time>2026-03-22T11:30:11.252Z</time></trkpt><trkpt lat="45.3469383" lon="8.6786583"><ele>120.0</ele><time>2026-03-22T11:30:12.252Z</time></trkpt><trkpt lat="45.3469633" lon="8.6784933"><ele>120.0</ele><time>2026-03-22T11:30:13.252Z</time></trkpt><trkpt lat="45.3469733" lon="8.67834"><ele>120.0</ele><time>2026-03-22T11:30:14.252Z</time></trkpt><trkpt lat="45.3469883" lon="8.6782"><ele>120.0</ele><time>2026-03-22T11:30:15.252Z</time></trkpt><trkpt lat="45.3469933" lon="8.6780783"><ele>120.0</ele><time>2026-03-22T11:30:16.252Z</time></trkpt><trkpt lat="45.3470017" lon="8.6779517"><ele>120.0</ele><time>2026-03-22T11:30:17.252Z</time></trkpt><trkpt lat="45.3469983" lon="8.6778117"><ele>120.0</ele><time>2026-03-22T11:30:18.252Z</time></trkpt><trkpt lat="45.3469617" lon="8.6776883"><ele>120.0</ele><time>2026-03-22T11:30:19.252Z</time></trkpt><trkpt lat="45.34691" lon="8.677595"><ele>120.0</ele><time>2026-03-22T11:30:20.252Z</time></trkpt><trkpt lat="45.346845" lon="8.6775317"><ele>120.0</ele><time>2026-03-22T11:30:21.252Z</time></trkpt><trkpt lat="45.3467767" lon="8.6774717"><ele>120.0</ele><time>2026-03-22T11:30:22.252Z</time></trkpt><trkpt lat="45.346695" lon="8.677405"><ele>120.0</ele><time>2026-03-22T11:30:23.252Z</time></trkpt><trkpt lat="45.3466317" lon="8.6773283"><ele>120.0</ele><time>2026-03-22T11:30:24.252Z</time></trkpt><trkpt lat="45.3465883" lon="8.67724"><ele>120.0</ele><time>2026-03-22T11:30:25.252Z</time></trkpt><trkpt lat="45.3465717" lon="8.6771433"><ele>120.0</ele><time>2026-03-22T11:30:26.252Z</time></trkpt><trkpt lat="45.3465883" lon="8.6770333"><ele>120.0</ele><time>2026-03-22T11:30:27.252Z</time></trkpt><trkpt lat="45.34662" lon="8.6769183"><ele>120.0</ele><time>2026-03-22T11:30:28.252Z</time></trkpt><trkpt lat="45.3466567" lon="8.6768017"><ele>120.0</ele><time>2026-03-22T11:30:29.252Z</time></trkpt><trkpt lat="45.346685" lon="8.6766733"><ele>120.0</ele><time>2026-03-22T11:30:30.253Z</time></trkpt><trkpt lat="45.346705" lon="8.6765517"><ele>120.0</ele><time>2026-03-22T11:30:31.252Z</time></trkpt><trkpt lat="45.3467267" lon="8.676425"><ele>120.0</ele><time>2026-03-22T11:30:32.252Z</time></trkpt><trkpt lat="45.3467633" lon="8.67631"><ele>120.0</ele><time>2026-03-22T11:30:33.252Z</time></trkpt><trkpt lat="45.3467817" lon="8.67621"><ele>120.0</ele><time>2026-03-22T11:30:34.252Z</time></trkpt><trkpt lat="45.34681" lon="8.6761133"><ele>120.2</ele><time>2026-03-22T11:30:35.252Z</time></trkpt><trkpt lat="45.3468683" lon="8.6760183"><ele>120.4</ele><time>2026-03-22T11:30:36.252Z</time></trkpt><trkpt lat="45.3469417" lon="8.6759383"><ele>120.6</ele><time>2026-03-22T11:30:37.252Z</time></trkpt><trkpt lat="45.3470267" lon="8.67586"><ele>120.8</ele><time>2026-03-22T11:30:38.252Z</time></trkpt><trkpt lat="45.3471083" lon="8.6757867"><ele>121.0</ele><time>2026-03-22T11:30:39.252Z</time></trkpt><trkpt lat="45.3471967" lon="8.6756983"><ele>121.0</ele><time>2026-03-22T11:30:40.252Z</time></trkpt><trkpt lat="45.3472883" lon="8.6756117"><ele>121.0</ele><time>2026-03-22T11:30:41.252Z</time></trkpt><trkpt lat="45.34737" lon="8.6755367"><ele>121.0</ele><time>2026-03-22T11:30:42.252Z</time></trkpt><trkpt lat="45.34744" lon="8.6754567"><ele>121.0</ele><time>2026-03-22T11:30:43.252Z</time></trkpt><trkpt lat="45.3475167" lon="8.6753767"><ele>121.0</ele><time>2026-03-22T11:30:44.252Z</time></trkpt><trkpt lat="45.3475967" lon="8.6752983"><ele>121.00000000000001</ele><time>2026-03-22T11:30:45.252Z</time></trkpt><trkpt lat="45.34767" lon="8.675225"><ele>121.0</ele><time>2026-03-22T11:30:46.252Z</time></trkpt><trkpt lat="45.3477433" lon="8.6751583"><ele>121.0</ele><time>2026-03-22T11:30:47.252Z</time></trkpt><trkpt lat="45.3478083" lon="8.6750933"><ele>121.0</ele><time>2026-03-22T11:30:48.252Z</time></trkpt><trkpt lat="45.3478617" lon="8.6750383"><ele>121.00000000000001</ele><time>2026-03-22T11:30:49.252Z</time></trkpt><trkpt lat="45.3479183" lon="8.674975"><ele>121.0</ele><time>2026-03-22T11:30:50.252Z</time></trkpt><trkpt lat="45.34799" lon="8.6749217"><ele>121.00000000000001</ele><time>2026-03-22T11:30:51.252Z</time></trkpt><trkpt lat="45.3480617" lon="8.674865"><ele>121.0</ele><time>2026-03-22T11:30:52.252Z</time></trkpt><trkpt lat="45.3481183" lon="8.6748117"><ele>121.0</ele><time>2026-03-22T11:30:53.252Z</time></trkpt><trkpt lat="45.3482033" lon="8.6747367"><ele>121.0</ele><time>2026-03-22T11:30:55.252Z</time></trkpt><trkpt lat="45.3482633" lon="8.6746517"><ele>121.00000000000001</ele><time>2026-03-22T11:30:58.252Z</time></trkpt><trkpt lat="45.3482483" lon="8.6745467"><ele>121.0</ele><time>2026-03-22T11:31:00.252Z</time></trkpt><trkpt lat="45.348195" lon="8.6744183"><ele>121.00000000000001</ele><time>2026-03-22T11:31:02.252Z</time></trkpt><trkpt lat="45.348205" lon="8.6742517"><ele>121.0</ele><time>2026-03-22T11:31:04.252Z</time></trkpt><trkpt lat="45.3482517" lon="8.6741717"><ele>121.0</ele><time>2026-03-22T11:31:05.252Z</time></trkpt><trkpt lat="45.34831" lon="8.6740867"><ele>121.0</ele><time>2026-03-22T11:31:06.252Z</time></trkpt><trkpt lat="45.3483717" lon="8.6740117"><ele>121.00000000000001</ele><time>2026-03-22T11:31:07.252Z</time></trkpt><trkpt lat="45.3484333" lon="8.673935"><ele>121.0</ele><time>2026-03-22T11:31:08.252Z</time></trkpt><trkpt lat="45.348515" lon="8.6737417"><ele>121.00000000000001</ele><time>2026-03-22T11:31:10.252Z</time></trkpt><trkpt lat="45.3485383" lon="8.6736317"><ele>121.0</ele><time>2026-03-22T11:31:11.252Z</time></trkpt><trkpt lat="45.3485517" lon="8.673515"><ele>121.0</ele><time>2026-03-22T11:31:12.252Z</time></trkpt><trkpt lat="45.3485717" lon="8.6733983"><ele>121.0</ele><time>2026-03-22T11:31:13.252Z</time></trkpt><trkpt lat="45.34858" lon="8.6732867"><ele>121.00000000000001</ele><time>2026-03-22T11:31:14.252Z</time></trkpt><trkpt lat="45.34859" lon="8.6731783"><ele>121.0</ele><time>2026-03-22T11:31:15.252Z</time></trkpt><trkpt lat="45.3485867" lon="8.6730733"><ele>121.16666666666667</ele><time>2026-03-22T11:31:16.252Z</time></trkpt><trkpt lat="45.3486033" lon="8.6729683"><ele>121.33333333333334</ele><time>2026-03-22T11:31:17.252Z</time></trkpt><trkpt lat="45.3486283" lon="8.6728767"><ele>121.5</ele><time>2026-03-22T11:31:18.252Z</time></trkpt><trkpt lat="45.3486583" lon="8.6727817"><ele>121.66666666666666</ele><time>2026-03-22T11:31:19.252Z</time></trkpt><trkpt lat="45.348675" lon="8.6726833"><ele>121.83333333333333</ele><time>2026-03-22T11:31:20.252Z</time></trkpt><trkpt lat="45.3487067" lon="8.6725767"><ele>122.0</ele><time>2026-03-22T11:31:21.252Z</time></trkpt><trkpt lat="45.3487333" lon="8.6724583"><ele>121.99999999999999</ele><time>2026-03-22T11:31:22.252Z</time></trkpt><trkpt lat="45.3487483" lon="8.6723417"><ele>122.0</ele><time>2026-03-22T11:31:23.252Z</time></trkpt><trkpt lat="45.3487617" lon="8.6722383"><ele>122.0</ele><time>2026-03-22T11:31:24.252Z</time></trkpt><trkpt lat="45.3487767" lon="8.6721317"><ele>122.0</ele><time>2026-03-22T11:31:25.252Z</time></trkpt><trkpt lat="45.348805" lon="8.672025"><ele>121.99999999999999</ele><time>2026-03-22T11:31:26.252Z</time></trkpt><trkpt lat="45.3488233" lon="8.6719183"><ele>122.0</ele><time>2026-03-22T11:31:27.252Z</time></trkpt><trkpt lat="45.3488417" lon="8.6718017"><ele>121.99999999999999</ele><time>2026-03-22T11:31:28.252Z</time></trkpt><trkpt lat="45.34886" lon="8.6716867"><ele>122.0</ele><time>2026-03-22T11:31:29.252Z</time></trkpt><trkpt lat="45.3488783" lon="8.671585"><ele>122.0</ele><time>2026-03-22T11:31:30.252Z</time></trkpt><trkpt lat="45.3488967" lon="8.6714833"><ele>122.0</ele><time>2026-03-22T11:31:31.252Z</time></trkpt><trkpt lat="45.3489117" lon="8.6713717"><ele>121.99999999999999</ele><time>2026-03-22T11:31:32.252Z</time></trkpt><trkpt lat="45.3489367" lon="8.6712667"><ele>122.0</ele><time>2026-03-22T11:31:33.252Z</time></trkpt><trkpt lat="45.3489567" lon="8.6711517"><ele>121.99999999999999</ele><time>2026-03-22T11:31:34.252Z</time></trkpt><trkpt lat="45.3489683" lon="8.67104"><ele>122.0</ele><time>2026-03-22T11:31:35.252Z</time></trkpt><trkpt lat="45.3489783" lon="8.6709367"><ele>122.0</ele><time>2026-03-22T11:31:36.252Z</time></trkpt><trkpt lat="45.3489967" lon="8.67083"><ele>122.0</ele><time>2026-03-22T11:31:37.252Z</time></trkpt><trkpt lat="45.3490117" lon="8.6707083"><ele>121.99999999999999</ele><time>2026-03-22T11:31:38.252Z</time></trkpt><trkpt lat="45.349015" lon="8.6705933"><ele>122.0</ele><time>2026-03-22T11:31:39.252Z</time></trkpt><trkpt lat="45.3490267" lon="8.6704883"><ele>121.99999999999999</ele><time>2026-03-22T11:31:40.252Z</time></trkpt><trkpt lat="45.349045" lon="8.6703633"><ele>122.0</ele><time>2026-03-22T11:31:41.252Z</time></trkpt><trkpt lat="45.349075" lon="8.6702567"><ele>122.0</ele><time>2026-03-22T11:31:42.252Z</time></trkpt><trkpt lat="45.3490883" lon="8.67015"><ele>122.0</ele><time>2026-03-22T11:31:43.252Z</time></trkpt><trkpt lat="45.3490933" lon="8.6700517"><ele>121.99999999999999</ele><time>2026-03-22T11:31:44.252Z</time></trkpt><trkpt lat="45.3491067" lon="8.66989"><ele>122.0</ele><time>2026-03-22T11:31:46.252Z</time></trkpt><trkpt lat="45.3491017" lon="8.6697317"><ele>122.33333333333333</ele><time>2026-03-22T11:31:48.252Z</time></trkpt><trkpt lat="45.3491083" lon="8.6695917"><ele>122.66666666666666</ele><time>2026-03-22T11:31:50.252Z</time></trkpt><trkpt lat="45.3491183" lon="8.669475"><ele>123.0</ele><time>2026-03-22T11:31:52.252Z</time></trkpt><trkpt lat="45.3491483" lon="8.6693667"><ele>123.33333333333334</ele><time>2026-03-22T11:31:55.252Z</time></trkpt><trkpt lat="45.349165" lon="8.6692583"><ele>123.66666666666667</ele><time>2026-03-22T11:32:40.252Z</time></trkpt><trkpt lat="45.349205" lon="8.6691667"><ele>124.0</ele><time>2026-03-22T11:32:42.252Z</time></trkpt><trkpt lat="45.3492867" lon="8.66913"><ele>124.00000000000001</ele><time>2026-03-22T11:32:44.252Z</time></trkpt><trkpt lat="45.349375" lon="8.6691717"><ele>124.0</ele><time>2026-03-22T11:32:45.252Z</time></trkpt><trkpt lat="45.3494467" lon="8.6692167"><ele>124.0</ele><time>2026-03-22T11:32:46.252Z</time></trkpt><trkpt lat="45.349525" lon="8.6692667"><ele>124.0</ele><time>2026-03-22T11:32:47.253Z</time></trkpt><trkpt lat="45.349615" lon="8.6693133"><ele>124.00000000000001</ele><time>2026-03-22T11:32:48.252Z</time></trkpt><trkpt lat="45.3497" lon="8.66935"><ele>124.0</ele><time>2026-03-22T11:32:49.252Z</time></trkpt><trkpt lat="45.349785" lon="8.6693733"><ele>124.00000000000001</ele><time>2026-03-22T11:32:50.252Z</time></trkpt><trkpt lat="45.3498867" lon="8.6693933"><ele>124.0</ele><time>2026-03-22T11:32:51.252Z</time></trkpt><trkpt lat="45.3499717" lon="8.6694033"><ele>124.0</ele><time>2026-03-22T11:32:52.251Z</time></trkpt><trkpt lat="45.3500467" lon="8.6694133"><ele>124.0</ele><time>2026-03-22T11:32:53.251Z</time></trkpt><trkpt lat="45.35012" lon="8.6694217"><ele>124.00000000000001</ele><time>2026-03-22T11:32:54.251Z</time></trkpt><trkpt lat="45.3501883" lon="8.66944"><ele>124.0</ele><time>2026-03-22T11:32:55.251Z</time></trkpt><trkpt lat="45.3502667" lon="8.6694417"><ele>124.00000000000001</ele><time>2026-03-22T11:32:56.251Z</time></trkpt><trkpt lat="45.3503483" lon="8.6694383"><ele>124.0</ele><time>2026-03-22T11:32:57.251Z</time></trkpt><trkpt lat="45.3504383" lon="8.66944"><ele>124.0</ele><time>2026-03-22T11:32:58.251Z</time></trkpt><trkpt lat="45.3505267" lon="8.6694467"><ele>124.0</ele><time>2026-03-22T11:32:59.251Z</time></trkpt><trkpt lat="45.35061" lon="8.66952"><ele>124.00000000000001</ele><time>2026-03-22T11:33:00.251Z</time></trkpt><trkpt lat="45.3506917" lon="8.6695333"><ele>124.0</ele><time>2026-03-22T11:33:01.251Z</time></trkpt><trkpt lat="45.35078" lon="8.66954"><ele>123.66666666666667</ele><time>2026-03-22T11:33:02.251Z</time></trkpt><trkpt lat="45.35086" lon="8.669545"><ele>123.33333333333334</ele><time>2026-03-22T11:33:03.251Z</time></trkpt><trkpt lat="45.35094" lon="8.669525"><ele>123.0</ele><time>2026-03-22T11:33:04.251Z</time></trkpt><trkpt lat="45.3510167" lon="8.6695133"><ele>122.66666666666666</ele><time>2026-03-22T11:33:05.251Z</time></trkpt><trkpt lat="45.3511" lon="8.6694967"><ele>122.33333333333333</ele><time>2026-03-22T11:33:06.251Z</time></trkpt><trkpt lat="45.3511917" lon="8.6694967"><ele>122.0</ele><time>2026-03-22T11:33:07.251Z</time></trkpt><trkpt lat="45.3512833" lon="8.6694833"><ele>122.19999999999999</ele><time>2026-03-22T11:33:08.251Z</time></trkpt><trkpt lat="45.3513817" lon="8.6694633"><ele>122.39999999999999</ele><time>2026-03-22T11:33:09.251Z</time></trkpt><trkpt lat="45.3514767" lon="8.6694417"><ele>122.60000000000001</ele><time>2026-03-22T11:33:10.251Z</time></trkpt><trkpt lat="45.3515767" lon="8.669415"><ele>122.80000000000001</ele><time>2026-03-22T11:33:11.251Z</time></trkpt><trkpt lat="45.3516767" lon="8.6693867"><ele>123.0</ele><time>2026-03-22T11:33:12.251Z</time></trkpt><trkpt lat="45.351775" lon="8.66934"><ele>123.0</ele><time>2026-03-22T11:33:13.251Z</time></trkpt><trkpt lat="45.351875" lon="8.6693017"><ele>123.00000000000001</ele><time>2026-03-22T11:33:14.251Z</time></trkpt><trkpt lat="45.3519767" lon="8.66929"><ele>123.00000000000001</ele><time>2026-03-22T11:33:15.251Z</time></trkpt><trkpt lat="45.3520833" lon="8.6692533"><ele>123.0</ele><time>2026-03-22T11:33:16.251Z</time></trkpt><trkpt lat="45.3521883" lon="8.669215"><ele>123.0</ele><time>2026-03-22T11:33:17.251Z</time></trkpt><trkpt lat="45.3523033" lon="8.6691917"><ele>123.0</ele><time>2026-03-22T11:33:18.251Z</time></trkpt><trkpt lat="45.3524217" lon="8.6691683"><ele>123.0</ele><time>2026-03-22T11:33:19.251Z</time></trkpt><trkpt lat="45.3525433" lon="8.6691467"><ele>123.0</ele><time>2026-03-22T11:33:20.251Z</time></trkpt><trkpt lat="45.3526667" lon="8.6691133"><ele>123.0</ele><time>2026-03-22T11:33:21.251Z</time></trkpt><trkpt lat="45.35278" lon="8.6690783"><ele>123.0</ele><time>2026-03-22T11:33:22.251Z</time></trkpt><trkpt lat="45.3528933" lon="8.6690717"><ele>123.0</ele><time>2026-03-22T11:33:23.251Z</time></trkpt><trkpt lat="45.3530017" lon="8.6690317"><ele>123.0</ele><time>2026-03-22T11:33:24.252Z</time></trkpt><trkpt lat="45.353115" lon="8.669015"><ele>123.0</ele><time>2026-03-22T11:33:25.251Z</time></trkpt><trkpt lat="45.3532417" lon="8.669"><ele>122.75</ele><time>2026-03-22T11:33:26.251Z</time></trkpt><trkpt lat="45.35336" lon="8.66897"><ele>122.5</ele><time>2026-03-22T11:33:27.251Z</time></trkpt><trkpt lat="45.3534817" lon="8.668945"><ele>122.25</ele><time>2026-03-22T11:33:28.251Z</time></trkpt><trkpt lat="45.3536133" lon="8.6688967"><ele>122.0</ele><time>2026-03-22T11:33:29.251Z</time></trkpt><trkpt lat="45.3537433" lon="8.6688583"><ele>122.0</ele><time>2026-03-22T11:33:30.251Z</time></trkpt><trkpt lat="45.3538617" lon="8.6688133"><ele>122.0</ele><time>2026-03-22T11:33:31.251Z</time></trkpt><trkpt lat="45.3539883" lon="8.6687817"><ele>122.0</ele><time>2026-03-22T11:33:32.251Z</time></trkpt><trkpt lat="45.354115" lon="8.6687533"><ele>122.0</ele><time>2026-03-22T11:33:33.251Z</time></trkpt><trkpt lat="45.35424" lon="8.66872"><ele>122.0</ele><time>2026-03-22T11:33:34.251Z</time></trkpt><trkpt lat="45.3543617" lon="8.6686967"><ele>122.0</ele><time>2026-03-22T11:33:35.251Z</time></trkpt><trkpt lat="45.3544767" lon="8.6686667"><ele>122.0</ele><time>2026-03-22T11:33:36.251Z</time></trkpt><trkpt lat="45.354595" lon="8.6686467"><ele>122.0</ele><time>2026-03-22T11:33:37.251Z</time></trkpt><trkpt lat="45.3547" lon="8.6686133"><ele>122.0</ele><time>2026-03-22T11:33:38.251Z</time></trkpt><trkpt lat="45.3548183" lon="8.668575"><ele>122.0</ele><time>2026-03-22T11:33:39.251Z</time></trkpt><trkpt lat="45.3549283" lon="8.6685367"><ele>122.0</ele><time>2026-03-22T11:33:40.251Z</time></trkpt><trkpt lat="45.3550367" lon="8.66852"><ele>122.0</ele><time>2026-03-22T11:33:41.251Z</time></trkpt><trkpt lat="45.3551717" lon="8.6684733"><ele>122.0</ele><time>2026-03-22T11:33:42.251Z</time></trkpt><trkpt lat="45.3552933" lon="8.6684267"><ele>122.0</ele><time>2026-03-22T11:33:43.251Z</time></trkpt><trkpt lat="45.3554283" lon="8.66838"><ele>122.0</ele><time>2026-03-22T11:33:44.251Z</time></trkpt><trkpt lat="45.3555667" lon="8.6683383"><ele>122.0</ele><time>2026-03-22T11:33:45.251Z</time></trkpt><trkpt lat="45.3557067" lon="8.6683"><ele>121.75</ele><time>2026-03-22T11:33:46.251Z</time></trkpt><trkpt lat="45.3558433" lon="8.668265"><ele>121.5</ele><time>2026-03-22T11:33:47.251Z</time></trkpt><trkpt lat="45.355985" lon="8.6682283"><ele>121.25</ele><time>2026-03-22T11:33:48.251Z</time></trkpt><trkpt lat="45.3561317" lon="8.6681883"><ele>121.0</ele><time>2026-03-22T11:33:49.251Z</time></trkpt><trkpt lat="45.356275" lon="8.6681417"><ele>121.0</ele><time>2026-03-22T11:33:50.251Z</time></trkpt><trkpt lat="45.356415" lon="8.6681117"><ele>121.0</ele><time>2026-03-22T11:33:51.251Z</time></trkpt><trkpt lat="45.3565517" lon="8.6680633"><ele>121.0</ele><time>2026-03-22T11:33:52.251Z</time></trkpt><trkpt lat="45.35669" lon="8.6680317"><ele>121.0</ele><time>2026-03-22T11:33:53.251Z</time></trkpt><trkpt lat="45.356825" lon="8.6679983"><ele>121.0</ele><time>2026-03-22T11:33:54.251Z</time></trkpt><trkpt lat="45.3569567" lon="8.6679583"><ele>121.0</ele><time>2026-03-22T11:33:55.251Z</time></trkpt><trkpt lat="45.3570867" lon="8.6679233"><ele>121.0</ele><time>2026-03-22T11:33:56.251Z</time></trkpt><trkpt lat="45.3572167" lon="8.6678933"><ele>121.0</ele><time>2026-03-22T11:33:57.251Z</time></trkpt><trkpt lat="45.35735" lon="8.6678683"><ele>121.0</ele><time>2026-03-22T11:33:58.251Z</time></trkpt><trkpt lat="45.3574867" lon="8.6678417"><ele>121.0</ele><time>2026-03-22T11:33:59.251Z</time></trkpt><trkpt lat="45.3576183" lon="8.66781"><ele>121.0</ele><time>2026-03-22T11:34:00.251Z</time></trkpt><trkpt lat="45.3577483" lon="8.6677783"><ele>121.0</ele><time>2026-03-22T11:34:01.251Z</time></trkpt><trkpt lat="45.3578817" lon="8.6677317"><ele>121.0</ele><time>2026-03-22T11:34:02.251Z</time></trkpt><trkpt lat="45.35801" lon="8.6676883"><ele>121.0</ele><time>2026-03-22T11:34:03.251Z</time></trkpt><trkpt lat="45.3581383" lon="8.66766"><ele>121.0</ele><time>2026-03-22T11:34:04.251Z</time></trkpt><trkpt lat="45.358265" lon="8.6676167"><ele>121.0</ele><time>2026-03-22T11:34:05.251Z</time></trkpt><trkpt lat="45.358395" lon="8.6675767"><ele>121.25</ele><time>2026-03-22T11:34:06.251Z</time></trkpt><trkpt lat="45.3585217" lon="8.6675383"><ele>121.5</ele><time>2026-03-22T11:34:07.251Z</time></trkpt><trkpt lat="45.3586533" lon="8.6675033"><ele>121.75</ele><time>2026-03-22T11:34:08.251Z</time></trkpt><trkpt lat="45.35878" lon="8.667475"><ele>122.0</ele><time>2026-03-22T11:34:09.251Z</time></trkpt><trkpt lat="45.3589117" lon="8.66745"><ele>122.25</ele><time>2026-03-22T11:34:10.251Z</time></trkpt><trkpt lat="45.3590367" lon="8.66742"><ele>122.5</ele><time>2026-03-22T11:34:11.251Z</time></trkpt><trkpt lat="45.3591633" lon="8.6673883"><ele>122.75</ele><time>2026-03-22T11:34:12.251Z</time></trkpt><trkpt lat="45.3592833" lon="8.66736"><ele>123.0</ele><time>2026-03-22T11:34:13.251Z</time></trkpt><trkpt lat="45.3593983" lon="8.667335"><ele>123.0</ele><time>2026-03-22T11:34:14.251Z</time></trkpt><trkpt lat="45.3595017" lon="8.667305"><ele>123.00000000000001</ele><time>2026-03-22T11:34:15.251Z</time></trkpt><trkpt lat="45.3596" lon="8.667285"><ele>123.00000000000001</ele><time>2026-03-22T11:34:16.251Z</time></trkpt><trkpt lat="45.3597" lon="8.667265"><ele>123.0</ele><time>2026-03-22T11:34:17.251Z</time></trkpt><trkpt lat="45.3597933" lon="8.66724"><ele>123.0</ele><time>2026-03-22T11:34:18.251Z</time></trkpt><trkpt lat="45.3598933" lon="8.6672117"><ele>122.83333333333333</ele><time>2026-03-22T11:34:19.251Z</time></trkpt><trkpt lat="45.3599883" lon="8.6671783"><ele>122.66666666666666</ele><time>2026-03-22T11:34:20.251Z</time></trkpt><trkpt lat="45.3600817" lon="8.667155"><ele>122.5</ele><time>2026-03-22T11:34:21.251Z</time></trkpt><trkpt lat="45.3601633" lon="8.6671333"><ele>122.33333333333333</ele><time>2026-03-22T11:34:22.251Z</time></trkpt><trkpt lat="45.360235" lon="8.667135"><ele>122.16666666666666</ele><time>2026-03-22T11:34:23.251Z</time></trkpt><trkpt lat="45.360325" lon="8.6671583"><ele>122.0</ele><time>2026-03-22T11:34:25.251Z</time></trkpt><trkpt lat="45.3603683" lon="8.66723"><ele>121.99999999999999</ele><time>2026-03-22T11:34:27.251Z</time></trkpt><trkpt lat="45.3604433" lon="8.6673167"><ele>122.0</ele><time>2026-03-22T11:34:30.251Z</time></trkpt><trkpt lat="45.3605333" lon="8.6673533"><ele>122.0</ele><time>2026-03-22T11:34:44.251Z</time></trkpt><trkpt lat="45.3605383" lon="8.6672533"><ele>122.0</ele><time>2026-03-22T11:34:46.251Z</time></trkpt><trkpt lat="45.3604433" lon="8.66716"><ele>121.99999999999999</ele><time>2026-03-22T11:34:49.251Z</time></trkpt><trkpt lat="45.3604233" lon="8.667245"><ele>122.0</ele><time>2026-03-22T11:34:52.251Z</time></trkpt><trkpt lat="45.3605767" lon="8.66724"><ele>122.0</ele><time>2026-03-22T11:40:10.25Z</time></trkpt><trkpt lat="45.3606433" lon="8.66716"><ele>121.99999999999999</ele><time>2026-03-22T11:40:12.25Z</time></trkpt><trkpt lat="45.3606783" lon="8.6670767"><ele>121.99999999999999</ele><time>2026-03-22T11:40:14.25Z</time></trkpt><trkpt lat="45.3606033" lon="8.6669733"><ele>122.0</ele><time>2026-03-22T11:40:17.25Z</time></trkpt><trkpt lat="45.36048" lon="8.666955"><ele>122.0</ele><time>2026-03-22T11:40:19.25Z</time></trkpt><trkpt lat="45.360395" lon="8.6669667"><ele>122.0</ele><time>2026-03-22T11:40:20.25Z</time></trkpt><trkpt lat="45.3603033" lon="8.6669867"><ele>122.0</ele><time>2026-03-22T11:40:21.25Z</time></trkpt><trkpt lat="45.3601083" lon="8.6670367"><ele>122.0</ele><time>2026-03-22T11:40:23.25Z</time></trkpt><trkpt lat="45.3599083" lon="8.6670883"><ele>122.0</ele><time>2026-03-22T11:40:25.25Z</time></trkpt><trkpt lat="45.3598117" lon="8.6671067"><ele>121.99999999999999</ele><time>2026-03-22T11:40:26.25Z</time></trkpt><trkpt lat="45.3597067" lon="8.6671433"><ele>121.99999999999999</ele><time>2026-03-22T11:40:27.25Z</time></trkpt><trkpt lat="45.3595967" lon="8.6671783"><ele>122.0</ele><time>2026-03-22T11:40:28.25Z</time></trkpt><trkpt lat="45.359475" lon="8.667205"><ele>122.0</ele><time>2026-03-22T11:40:29.25Z</time></trkpt><trkpt lat="45.359355" lon="8.66724"><ele>122.0</ele><time>2026-03-22T11:40:30.25Z</time></trkpt><trkpt lat="45.359225" lon="8.6672867"><ele>122.0</ele><time>2026-03-22T11:40:31.25Z</time></trkpt><trkpt lat="45.3590917" lon="8.6673233"><ele>122.0</ele><time>2026-03-22T11:40:32.25Z</time></trkpt><trkpt lat="45.3589667" lon="8.6673567"><ele>122.0</ele><time>2026-03-22T11:40:33.25Z</time></trkpt><trkpt lat="45.3588367" lon="8.667385"><ele>122.0</ele><time>2026-03-22T11:40:34.25Z</time></trkpt><trkpt lat="45.3587083" lon="8.6674183"><ele>122.0</ele><time>2026-03-22T11:40:35.25Z</time></trkpt><trkpt lat="45.3585733" lon="8.66745"><ele>122.0</ele><time>2026-03-22T11:40:36.25Z</time></trkpt><trkpt lat="45.3584433" lon="8.6674817"><ele>122.0</ele><time>2026-03-22T11:40:37.25Z</time></trkpt><trkpt lat="45.3583133" lon="8.66752"><ele>122.0</ele><time>2026-03-22T11:40:38.25Z</time></trkpt><trkpt lat="45.358185" lon="8.6675483"><ele>122.0</ele><time>2026-03-22T11:40:39.25Z</time></trkpt><trkpt lat="45.3580567" lon="8.66758"><ele>122.0</ele><time>2026-03-22T11:40:40.25Z</time></trkpt><trkpt lat="45.3579233" lon="8.6676183"><ele>122.0</ele><time>2026-03-22T11:40:41.25Z</time></trkpt><trkpt lat="45.3577917" lon="8.6676467"><ele>121.75</ele><time>2026-03-22T11:40:42.25Z</time></trkpt><trkpt lat="45.3576683" lon="8.667685"><ele>121.5</ele><time>2026-03-22T11:40:43.25Z</time></trkpt><trkpt lat="45.3575417" lon="8.6677167"><ele>121.25</ele><time>2026-03-22T11:40:44.25Z</time></trkpt><trkpt lat="45.357415" lon="8.6677467"><ele>121.0</ele><time>2026-03-22T11:40:45.25Z</time></trkpt><trkpt lat="45.35728" lon="8.6677833"><ele>121.0</ele><time>2026-03-22T11:40:46.25Z</time></trkpt><trkpt lat="45.357145" lon="8.667815"><ele>121.0</ele><time>2026-03-22T11:40:47.25Z</time></trkpt><trkpt lat="45.357015" lon="8.66786"><ele>121.0</ele><time>2026-03-22T11:40:48.25Z</time></trkpt><trkpt lat="45.35688" lon="8.6679017"><ele>121.0</ele><time>2026-03-22T11:40:49.25Z</time></trkpt><trkpt lat="45.3567483" lon="8.66793"><ele>121.0</ele><time>2026-03-22T11:40:50.25Z</time></trkpt><trkpt lat="45.3566217" lon="8.6679583"><ele>121.0</ele><time>2026-03-22T11:40:51.25Z</time></trkpt><trkpt lat="45.3564933" lon="8.6679967"><ele>121.0</ele><time>2026-03-22T11:40:52.25Z</time></trkpt><trkpt lat="45.35636" lon="8.6680283"><ele>121.0</ele><time>2026-03-22T11:40:53.25Z</time></trkpt><trkpt lat="45.356235" lon="8.668055"><ele>121.0</ele><time>2026-03-22T11:40:54.25Z</time></trkpt><trkpt lat="45.3561033" lon="8.6680917"><ele>121.0</ele><time>2026-03-22T11:40:55.25Z</time></trkpt><trkpt lat="45.35597" lon="8.668135"><ele>121.0</ele><time>2026-03-22T11:40:56.25Z</time></trkpt><trkpt lat="45.3558417" lon="8.6681717"><ele>121.0</ele><time>2026-03-22T11:40:57.25Z</time></trkpt><trkpt lat="45.3557067" lon="8.668215"><ele>121.0</ele><time>2026-03-22T11:40:58.25Z</time></trkpt><trkpt lat="45.3555717" lon="8.6682617"><ele>121.0</ele><time>2026-03-22T11:40:59.25Z</time></trkpt><trkpt lat="45.3554433" lon="8.6683033"><ele>121.0</ele><time>2026-03-22T11:41:00.25Z</time></trkpt><trkpt lat="45.3553117" lon="8.6683267"><ele>121.0</ele><time>2026-03-22T11:41:01.25Z</time></trkpt><trkpt lat="45.3551833" lon="8.6683633"><ele>121.25</ele><time>2026-03-22T11:41:02.25Z</time></trkpt><trkpt lat="45.3550533" lon="8.66841"><ele>121.5</ele><time>2026-03-22T11:41:03.25Z</time></trkpt><trkpt lat="45.354915" lon="8.668435"><ele>121.75</ele><time>2026-03-22T11:41:04.25Z</time></trkpt><trkpt lat="45.3547967" lon="8.6684783"><ele>122.0</ele><time>2026-03-22T11:41:05.25Z</time></trkpt><trkpt lat="45.3546717" lon="8.6685183"><ele>122.0</ele><time>2026-03-22T11:41:06.25Z</time></trkpt><trkpt lat="45.354555" lon="8.668545"><ele>122.0</ele><time>2026-03-22T11:41:07.25Z</time></trkpt><trkpt lat="45.354455" lon="8.668575"><ele>122.0</ele><time>2026-03-22T11:41:08.25Z</time></trkpt><trkpt lat="45.3543383" lon="8.668595"><ele>122.0</ele><time>2026-03-22T11:41:09.25Z</time></trkpt><trkpt lat="45.354225" lon="8.66863"><ele>122.0</ele><time>2026-03-22T11:41:10.25Z</time></trkpt><trkpt lat="45.3541067" lon="8.6686733"><ele>122.0</ele><time>2026-03-22T11:41:11.25Z</time></trkpt><trkpt lat="45.3539717" lon="8.6687"><ele>122.0</ele><time>2026-03-22T11:41:12.25Z</time></trkpt><trkpt lat="45.3538417" lon="8.6687433"><ele>122.0</ele><time>2026-03-22T11:41:13.25Z</time></trkpt><trkpt lat="45.35372" lon="8.6687783"><ele>122.0</ele><time>2026-03-22T11:41:14.25Z</time></trkpt><trkpt lat="45.3535783" lon="8.6687967"><ele>122.0</ele><time>2026-03-22T11:41:15.25Z</time></trkpt><trkpt lat="45.35345" lon="8.668835"><ele>122.0</ele><time>2026-03-22T11:41:16.25Z</time></trkpt><trkpt lat="45.3533233" lon="8.6688683"><ele>122.0</ele><time>2026-03-22T11:41:17.25Z</time></trkpt><trkpt lat="45.353195" lon="8.6688917"><ele>122.0</ele><time>2026-03-22T11:41:18.25Z</time></trkpt><trkpt lat="45.353075" lon="8.6689317"><ele>122.0</ele><time>2026-03-22T11:41:19.249Z</time></trkpt><trkpt lat="45.3529583" lon="8.668965"><ele>122.0</ele><time>2026-03-22T11:41:20.249Z</time></trkpt><trkpt lat="45.3528433" lon="8.6689867"><ele>122.0</ele><time>2026-03-22T11:41:21.249Z</time></trkpt><trkpt lat="45.352735" lon="8.6690217"><ele>122.19999999999999</ele><time>2026-03-22T11:41:22.249Z</time></trkpt><trkpt lat="45.3526367" lon="8.6690567"><ele>122.39999999999999</ele><time>2026-03-22T11:41:23.249Z</time></trkpt><trkpt lat="45.3525333" lon="8.6690917"><ele>122.60000000000001</ele><time>2026-03-22T11:41:24.249Z</time></trkpt><trkpt lat="45.352425" lon="8.6691267"><ele>122.80000000000001</ele><time>2026-03-22T11:41:25.249Z</time></trkpt><trkpt lat="45.3523117" lon="8.669155"><ele>123.0</ele><time>2026-03-22T11:41:26.249Z</time></trkpt><trkpt lat="45.3522083" lon="8.66917"><ele>123.2</ele><time>2026-03-22T11:41:27.249Z</time></trkpt><trkpt lat="45.3521133" lon="8.66919"><ele>123.4</ele><time>2026-03-22T11:41:28.249Z</time></trkpt><trkpt lat="45.352005" lon="8.6692083"><ele>123.60000000000001</ele><time>2026-03-22T11:41:29.249Z</time></trkpt><trkpt lat="45.3519133" lon="8.66923"><ele>123.80000000000001</ele><time>2026-03-22T11:41:30.249Z</time></trkpt><trkpt lat="45.3518217" lon="8.6692517"><ele>124.0</ele><time>2026-03-22T11:41:31.249Z</time></trkpt><trkpt lat="45.3517283" lon="8.6692817"><ele>124.0</ele><time>2026-03-22T11:41:32.249Z</time></trkpt><trkpt lat="45.35163" lon="8.6693217"><ele>124.0</ele><time>2026-03-22T11:41:33.249Z</time></trkpt><trkpt lat="45.351525" lon="8.6693433"><ele>124.0</ele><time>2026-03-22T11:41:34.249Z</time></trkpt><trkpt lat="45.3514267" lon="8.66936"><ele>124.0</ele><time>2026-03-22T11:41:35.249Z</time></trkpt><trkpt lat="45.3513367" lon="8.6693833"><ele>124.0</ele><time>2026-03-22T11:41:36.249Z</time></trkpt><trkpt lat="45.3512567" lon="8.6693983"><ele>123.85714285714286</ele><time>2026-03-22T11:41:37.249Z</time></trkpt><trkpt lat="45.3511883" lon="8.669405"><ele>123.71428571428572</ele><time>2026-03-22T11:41:38.249Z</time></trkpt><trkpt lat="45.3511133" lon="8.66942"><ele>123.57142857142858</ele><time>2026-03-22T11:41:40.249Z</time></trkpt><trkpt lat="45.3510433" lon="8.66943"><ele>123.42857142857144</ele><time>2026-03-22T11:41:42.249Z</time></trkpt><trkpt lat="45.3509617" lon="8.66944"><ele>123.28571428571429</ele><time>2026-03-22T11:41:44.249Z</time></trkpt><trkpt lat="45.3508917" lon="8.6694317"><ele>123.14285714285717</ele><time>2026-03-22T11:41:46.249Z</time></trkpt><trkpt lat="45.3508333" lon="8.6695133"><ele>123.00000000000001</ele><time>2026-03-22T11:41:49.249Z</time></trkpt><trkpt lat="45.35085" lon="8.6696033"><ele>122.83333333333333</ele><time>2026-03-22T11:41:51.249Z</time></trkpt><trkpt lat="45.3508967" lon="8.6696983"><ele>122.66666666666666</ele><time>2026-03-22T11:41:54.249Z</time></trkpt><trkpt lat="45.3508817" lon="8.6698267"><ele>122.5</ele><time>2026-03-22T12:10:21.242Z</time></trkpt><trkpt lat="45.3508617" lon="8.669945"><ele>122.33333333333333</ele><time>2026-03-22T12:10:24.242Z</time></trkpt><trkpt lat="45.3509267" lon="8.6699767"><ele>122.16666666666666</ele><time>2026-03-22T12:10:28.242Z</time></trkpt><trkpt lat="45.3509483" lon="8.6698483"><ele>122.0</ele><time>2026-03-22T12:10:31.242Z</time></trkpt><trkpt lat="45.350915" lon="8.6696767"><ele>122.0</ele><time>2026-03-22T12:10:33.242Z</time></trkpt><trkpt lat="45.350895" lon="8.669585"><ele>121.99999999999999</ele><time>2026-03-22T12:10:35.242Z</time></trkpt><trkpt lat="45.3507633" lon="8.6694883"><ele>121.99999999999999</ele><time>2026-03-22T12:10:55.242Z</time></trkpt><trkpt lat="45.3506367" lon="8.6694583"><ele>122.0</ele><time>2026-03-22T12:10:57.242Z</time></trkpt><trkpt lat="45.3505567" lon="8.669435"><ele>122.0</ele><time>2026-03-22T12:10:58.242Z</time></trkpt><trkpt lat="45.3504667" lon="8.6694117"><ele>122.33333333333333</ele><time>2026-03-22T12:10:59.242Z</time></trkpt><trkpt lat="45.3503817" lon="8.66939"><ele>122.66666666666666</ele><time>2026-03-22T12:11:00.242Z</time></trkpt><trkpt lat="45.3503" lon="8.6693733"><ele>123.0</ele><time>2026-03-22T12:11:01.242Z</time></trkpt><trkpt lat="45.3502267" lon="8.669345"><ele>123.33333333333334</ele><time>2026-03-22T12:11:02.242Z</time></trkpt><trkpt lat="45.350155" lon="8.6693317"><ele>123.66666666666667</ele><time>2026-03-22T12:11:03.242Z</time></trkpt><trkpt lat="45.3500883" lon="8.6693217"><ele>124.0</ele><time>2026-03-22T12:11:04.242Z</time></trkpt><trkpt lat="45.3499883" lon="8.669305"><ele>124.0</ele><time>2026-03-22T12:11:06.242Z</time></trkpt><trkpt lat="45.34992" lon="8.6692833"><ele>124.0</ele><time>2026-03-22T12:11:08.241Z</time></trkpt><trkpt lat="45.349835" lon="8.669255"><ele>124.0</ele><time>2026-03-22T12:11:12.241Z</time></trkpt><trkpt lat="45.3497433" lon="8.6692417"><ele>124.0</ele><time>2026-03-22T12:11:14.241Z</time></trkpt><trkpt lat="45.3496067" lon="8.6692117"><ele>124.0</ele><time>2026-03-22T12:11:16.241Z</time></trkpt><trkpt lat="45.3495267" lon="8.669175"><ele>124.16666666666667</ele><time>2026-03-22T12:11:17.241Z</time></trkpt><trkpt lat="45.3494267" lon="8.6691567"><ele>124.33333333333334</ele><time>2026-03-22T12:11:18.241Z</time></trkpt><trkpt lat="45.34934" lon="8.6691233"><ele>124.5</ele><time>2026-03-22T12:11:19.241Z</time></trkpt><trkpt lat="45.34927" lon="8.6691117"><ele>124.66666666666666</ele><time>2026-03-22T12:11:20.241Z</time></trkpt><trkpt lat="45.3492033" lon="8.669085"><ele>124.83333333333333</ele><time>2026-03-22T12:11:21.241Z</time></trkpt><trkpt lat="45.349155" lon="8.66898"><ele>125.0</ele><time>2026-03-22T12:11:23.241Z</time></trkpt><trkpt lat="45.34916" lon="8.6688883"><ele>125.0</ele><time>2026-03-22T12:11:24.241Z</time></trkpt><trkpt lat="45.349175" lon="8.668775"><ele>125.0</ele><time>2026-03-22T12:11:25.241Z</time></trkpt><trkpt lat="45.3492017" lon="8.6686033"><ele>125.0</ele><time>2026-03-22T12:11:26.241Z</time></trkpt><trkpt lat="45.34924" lon="8.668385"><ele>125.0</ele><time>2026-03-22T12:11:27.241Z</time></trkpt><trkpt lat="45.3492933" lon="8.6681283"><ele>124.33333333333333</ele><time>2026-03-22T12:11:28.241Z</time></trkpt><trkpt lat="45.349325" lon="8.6678767"><ele>123.66666666666666</ele><time>2026-03-22T12:11:29.241Z</time></trkpt><trkpt lat="45.3493533" lon="8.667645"><ele>123.0</ele><time>2026-03-22T12:11:30.241Z</time></trkpt><trkpt lat="45.34938" lon="8.6674183"><ele>123.0</ele><time>2026-03-22T12:11:31.241Z</time></trkpt><trkpt lat="45.3494067" lon="8.667195"><ele>123.0</ele><time>2026-03-22T12:11:32.241Z</time></trkpt><trkpt lat="45.349425" lon="8.6669767"><ele>123.0</ele><time>2026-03-22T12:11:33.241Z</time></trkpt><trkpt lat="45.3494433" lon="8.6667683"><ele>123.0</ele><time>2026-03-22T12:11:34.241Z</time></trkpt><trkpt lat="45.3494683" lon="8.6665667"><ele>123.0</ele><time>2026-03-22T12:11:35.241Z</time></trkpt><trkpt lat="45.3495017" lon="8.6663717"><ele>123.0</ele><time>2026-03-22T12:11:36.241Z</time></trkpt><trkpt lat="45.3495167" lon="8.666195"><ele>123.0</ele><time>2026-03-22T12:11:37.241Z</time></trkpt><trkpt lat="45.3495483" lon="8.66603"><ele>123.0</ele><time>2026-03-22T12:11:38.241Z</time></trkpt><trkpt lat="45.3495667" lon="8.6658883"><ele>123.00000000000001</ele><time>2026-03-22T12:11:39.241Z</time></trkpt><trkpt lat="45.3495833" lon="8.6657483"><ele>123.00000000000001</ele><time>2026-03-22T12:11:40.241Z</time></trkpt><trkpt lat="45.3495983" lon="8.66562"><ele>123.0</ele><time>2026-03-22T12:11:41.241Z</time></trkpt><trkpt lat="45.3496067" lon="8.6655117"><ele>123.0</ele><time>2026-03-22T12:11:42.241Z</time></trkpt><trkpt lat="45.3495617" lon="8.6653867"><ele>123.0</ele><time>2026-03-22T12:11:44.241Z</time></trkpt><trkpt lat="45.3494967" lon="8.6653783"><ele>123.00000000000001</ele><time>2026-03-22T12:11:45.241Z</time></trkpt><trkpt lat="45.3493983" lon="8.665375"><ele>123.00000000000001</ele><time>2026-03-22T12:11:46.241Z</time></trkpt><trkpt lat="45.349285" lon="8.6653733"><ele>123.0</ele><time>2026-03-22T12:11:47.241Z</time></trkpt><trkpt lat="45.3491717" lon="8.6653767"><ele>123.0</ele><time>2026-03-22T12:11:48.241Z</time></trkpt><trkpt lat="45.34905" lon="8.6653733"><ele>123.0</ele><time>2026-03-22T12:11:49.241Z</time></trkpt><trkpt lat="45.3489483" lon="8.6653783"><ele>123.0</ele><time>2026-03-22T12:11:50.241Z</time></trkpt><trkpt lat="45.3488117" lon="8.66532"><ele>123.0</ele><time>2026-03-22T12:11:51.241Z</time></trkpt><trkpt lat="45.3486783" lon="8.6652867"><ele>123.0</ele><time>2026-03-22T12:11:52.241Z</time></trkpt><trkpt lat="45.3485317" lon="8.66526"><ele>123.0</ele><time>2026-03-22T12:11:53.241Z</time></trkpt><trkpt lat="45.3483917" lon="8.665245"><ele>123.0</ele><time>2026-03-22T12:11:54.241Z</time></trkpt><trkpt lat="45.3482583" lon="8.6652083"><ele>123.0</ele><time>2026-03-22T12:11:55.241Z</time></trkpt><trkpt lat="45.34813" lon="8.6651667"><ele>123.0</ele><time>2026-03-22T12:11:56.241Z</time></trkpt><trkpt lat="45.3479933" lon="8.665135"><ele>122.75</ele><time>2026-03-22T12:11:57.241Z</time></trkpt><trkpt lat="45.3478533" lon="8.66512"><ele>122.5</ele><time>2026-03-22T12:11:58.241Z</time></trkpt><trkpt lat="45.3477133" lon="8.6651033"><ele>122.25</ele><time>2026-03-22T12:11:59.241Z</time></trkpt><trkpt lat="45.347585" lon="8.6651083"><ele>122.0</ele><time>2026-03-22T12:12:00.241Z</time></trkpt><trkpt lat="45.347465" lon="8.665115"><ele>122.0</ele><time>2026-03-22T12:12:01.241Z</time></trkpt><trkpt lat="45.3473483" lon="8.6651283"><ele>122.0</ele><time>2026-03-22T12:12:02.241Z</time></trkpt><trkpt lat="45.3472283" lon="8.6651417"><ele>122.0</ele><time>2026-03-22T12:12:03.241Z</time></trkpt><trkpt lat="45.3471" lon="8.66515"><ele>122.0</ele><time>2026-03-22T12:12:04.241Z</time></trkpt><trkpt lat="45.3469667" lon="8.6651517"><ele>122.25</ele><time>2026-03-22T12:12:05.241Z</time></trkpt><trkpt lat="45.3468267" lon="8.665165"><ele>122.5</ele><time>2026-03-22T12:12:06.241Z</time></trkpt><trkpt lat="45.3466933" lon="8.66518"><ele>122.75</ele><time>2026-03-22T12:12:07.241Z</time></trkpt><trkpt lat="45.3465683" lon="8.6651917"><ele>123.0</ele><time>2026-03-22T12:12:08.241Z</time></trkpt><trkpt lat="45.3464433" lon="8.6651967"><ele>122.5</ele><time>2026-03-22T12:12:09.241Z</time></trkpt><trkpt lat="45.3463267" lon="8.6651883"><ele>122.0</ele><time>2026-03-22T12:12:10.241Z</time></trkpt><trkpt lat="45.3462117" lon="8.6651617"><ele>121.5</ele><time>2026-03-22T12:12:11.241Z</time></trkpt><trkpt lat="45.3461" lon="8.66511"><ele>121.0</ele><time>2026-03-22T12:12:12.241Z</time></trkpt><trkpt lat="45.3459883" lon="8.66503"><ele>121.0</ele><time>2026-03-22T12:12:13.241Z</time></trkpt><trkpt lat="45.3458817" lon="8.6649333"><ele>121.0</ele><time>2026-03-22T12:12:14.241Z</time></trkpt><trkpt lat="45.3457633" lon="8.6648367"><ele>121.0</ele><time>2026-03-22T12:12:15.241Z</time></trkpt><trkpt lat="45.3456483" lon="8.6647567"><ele>121.0</ele><time>2026-03-22T12:12:16.241Z</time></trkpt><trkpt lat="45.3455267" lon="8.6646733"><ele>121.0</ele><time>2026-03-22T12:12:17.241Z</time></trkpt><trkpt lat="45.3453967" lon="8.664585"><ele>121.0</ele><time>2026-03-22T12:12:18.242Z</time></trkpt><trkpt lat="45.3452617" lon="8.6645067"><ele>121.0</ele><time>2026-03-22T12:12:19.241Z</time></trkpt><trkpt lat="45.3451283" lon="8.6644317"><ele>121.0</ele><time>2026-03-22T12:12:20.241Z</time></trkpt><trkpt lat="45.344985" lon="8.6643567"><ele>121.0</ele><time>2026-03-22T12:12:21.241Z</time></trkpt><trkpt lat="45.3448383" lon="8.6642783"><ele>121.0</ele><time>2026-03-22T12:12:22.241Z</time></trkpt><trkpt lat="45.3446867" lon="8.6642183"><ele>121.0</ele><time>2026-03-22T12:12:23.241Z</time></trkpt><trkpt lat="45.3445417" lon="8.6641383"><ele>120.66666666666667</ele><time>2026-03-22T12:12:24.241Z</time></trkpt><trkpt lat="45.3443933" lon="8.6640833"><ele>120.33333333333334</ele><time>2026-03-22T12:12:25.241Z</time></trkpt><trkpt lat="45.34425" lon="8.6640167"><ele>120.0</ele><time>2026-03-22T12:12:26.241Z</time></trkpt><trkpt lat="45.3441033" lon="8.6639517"><ele>120.0</ele><time>2026-03-22T12:12:27.241Z</time></trkpt><trkpt lat="45.343955" lon="8.663885"><ele>120.0</ele><time>2026-03-22T12:12:28.241Z</time></trkpt><trkpt lat="45.343805" lon="8.6638233"><ele>120.0</ele><time>2026-03-22T12:12:29.241Z</time></trkpt><trkpt lat="45.3436667" lon="8.66377"><ele>119.75</ele><time>2026-03-22T12:12:30.241Z</time></trkpt><trkpt lat="45.3435283" lon="8.6637117"><ele>119.5</ele><time>2026-03-22T12:12:31.241Z</time></trkpt><trkpt lat="45.34339" lon="8.663655"><ele>119.25</ele><time>2026-03-22T12:12:32.241Z</time></trkpt><trkpt lat="45.34325" lon="8.6635983"><ele>119.0</ele><time>2026-03-22T12:12:33.241Z</time></trkpt><trkpt lat="45.3431083" lon="8.6635383"><ele>119.0</ele><time>2026-03-22T12:12:34.241Z</time></trkpt><trkpt lat="45.3429683" lon="8.6634817"><ele>119.0</ele><time>2026-03-22T12:12:35.241Z</time></trkpt><trkpt lat="45.3428333" lon="8.663425"><ele>119.0</ele><time>2026-03-22T12:12:36.241Z</time></trkpt><trkpt lat="45.3427" lon="8.66336"><ele>119.0</ele><time>2026-03-22T12:12:37.241Z</time></trkpt><trkpt lat="45.3425633" lon="8.66331"><ele>119.0</ele><time>2026-03-22T12:12:38.241Z</time></trkpt><trkpt lat="45.342425" lon="8.66326"><ele>119.0</ele><time>2026-03-22T12:12:39.241Z</time></trkpt><trkpt lat="45.342285" lon="8.6632233"><ele>119.0</ele><time>2026-03-22T12:12:40.241Z</time></trkpt><trkpt lat="45.3421533" lon="8.663195"><ele>119.0</ele><time>2026-03-22T12:12:41.241Z</time></trkpt><trkpt lat="45.3420283" lon="8.663165"><ele>119.5</ele><time>2026-03-22T12:12:42.241Z</time></trkpt><trkpt lat="45.341895" lon="8.663145"><ele>120.0</ele><time>2026-03-22T12:12:43.241Z</time></trkpt><trkpt lat="45.3417683" lon="8.6631233"><ele>120.5</ele><time>2026-03-22T12:12:44.241Z</time></trkpt><trkpt lat="45.3416267" lon="8.6630967"><ele>121.0</ele><time>2026-03-22T12:12:45.241Z</time></trkpt><trkpt lat="45.34149" lon="8.6630733"><ele>120.5</ele><time>2026-03-22T12:12:46.241Z</time></trkpt><trkpt lat="45.3413483" lon="8.6630433"><ele>120.0</ele><time>2026-03-22T12:12:47.241Z</time></trkpt><trkpt lat="45.3411983" lon="8.6630183"><ele>119.5</ele><time>2026-03-22T12:12:48.241Z</time></trkpt><trkpt lat="45.3410467" lon="8.66299"><ele>119.0</ele><time>2026-03-22T12:12:49.241Z</time></trkpt><trkpt lat="45.3409017" lon="8.6629583"><ele>119.0</ele><time>2026-03-22T12:12:50.241Z</time></trkpt><trkpt lat="45.34076" lon="8.6629417"><ele>119.0</ele><time>2026-03-22T12:12:51.241Z</time></trkpt><trkpt lat="45.3406383" lon="8.662925"><ele>119.0</ele><time>2026-03-22T12:12:52.241Z</time></trkpt><trkpt lat="45.3405133" lon="8.6629183"><ele>119.0</ele><time>2026-03-22T12:12:53.241Z</time></trkpt><trkpt lat="45.3404117" lon="8.6628933"><ele>119.0</ele><time>2026-03-22T12:12:54.241Z</time></trkpt><trkpt lat="45.3403067" lon="8.6628583"><ele>119.0</ele><time>2026-03-22T12:12:55.241Z</time></trkpt><trkpt lat="45.3402117" lon="8.6628167"><ele>119.0</ele><time>2026-03-22T12:12:56.241Z</time></trkpt><trkpt lat="45.3401083" lon="8.6627917"><ele>119.0</ele><time>2026-03-22T12:12:57.241Z</time></trkpt><trkpt lat="45.3400083" lon="8.662765"><ele>119.0</ele><time>2026-03-22T12:12:58.241Z</time></trkpt><trkpt lat="45.33992" lon="8.662735"><ele>118.80000000000001</ele><time>2026-03-22T12:12:59.241Z</time></trkpt><trkpt lat="45.3398367" lon="8.662705"><ele>118.60000000000001</ele><time>2026-03-22T12:13:00.241Z</time></trkpt><trkpt lat="45.33976" lon="8.66268"><ele>118.4</ele><time>2026-03-22T12:13:01.241Z</time></trkpt><trkpt lat="45.3396817" lon="8.6626067"><ele>118.2</ele><time>2026-03-22T12:13:03.241Z</time></trkpt><trkpt lat="45.3396883" lon="8.662465"><ele>118.0</ele><time>2026-03-22T12:13:05.241Z</time></trkpt><trkpt lat="45.33973" lon="8.662305"><ele>118.00000000000001</ele><time>2026-03-22T12:13:07.241Z</time></trkpt><trkpt lat="45.3397567" lon="8.6622017"><ele>118.0</ele><time>2026-03-22T12:13:08.241Z</time></trkpt><trkpt lat="45.339775" lon="8.6620967"><ele>118.0</ele><time>2026-03-22T12:13:09.241Z</time></trkpt><trkpt lat="45.3397833" lon="8.6619967"><ele>118.0</ele><time>2026-03-22T12:13:10.241Z</time></trkpt><trkpt lat="45.3397717" lon="8.661905"><ele>118.00000000000001</ele><time>2026-03-22T12:13:11.241Z</time></trkpt><trkpt lat="45.339675" lon="8.6618017"><ele>118.0</ele><time>2026-03-22T12:13:13.241Z</time></trkpt><trkpt lat="45.3395983" lon="8.66177"><ele>118.0</ele><time>2026-03-22T12:13:14.241Z</time></trkpt><trkpt lat="45.33952" lon="8.66172"><ele>118.00000000000001</ele><time>2026-03-22T12:13:15.241Z</time></trkpt><trkpt lat="45.339435" lon="8.661675"><ele>118.00000000000001</ele><time>2026-03-22T12:13:16.241Z</time></trkpt><trkpt lat="45.3393383" lon="8.6616483"><ele>118.0</ele><time>2026-03-22T12:13:17.241Z</time></trkpt><trkpt lat="45.33924" lon="8.6616183"><ele>118.0</ele><time>2026-03-22T12:13:18.241Z</time></trkpt><trkpt lat="45.3391383" lon="8.6615883"><ele>118.0</ele><time>2026-03-22T12:13:19.241Z</time></trkpt><trkpt lat="45.3390367" lon="8.661565"><ele>118.00000000000001</ele><time>2026-03-22T12:13:20.241Z</time></trkpt><trkpt lat="45.3389317" lon="8.6615283"><ele>118.00000000000001</ele><time>2026-03-22T12:13:21.241Z</time></trkpt><trkpt lat="45.3388217" lon="8.6615033"><ele>118.0</ele><time>2026-03-22T12:13:22.241Z</time></trkpt><trkpt lat="45.338715" lon="8.6614783"><ele>118.0</ele><time>2026-03-22T12:13:23.241Z</time></trkpt><trkpt lat="45.3385967" lon="8.661445"><ele>118.0</ele><time>2026-03-22T12:13:24.241Z</time></trkpt><trkpt lat="45.3384767" lon="8.6614217"><ele>118.0</ele><time>2026-03-22T12:13:25.241Z</time></trkpt><trkpt lat="45.3383617" lon="8.66138"><ele>118.0</ele><time>2026-03-22T12:13:26.241Z</time></trkpt><trkpt lat="45.338255" lon="8.6613183"><ele>118.0</ele><time>2026-03-22T12:13:27.241Z</time></trkpt><trkpt lat="45.3381433" lon="8.6612433"><ele>117.80000000000001</ele><time>2026-03-22T12:13:28.241Z</time></trkpt><trkpt lat="45.3380333" lon="8.6611733"><ele>117.60000000000001</ele><time>2026-03-22T12:13:29.241Z</time></trkpt><trkpt lat="45.33793" lon="8.6611017"><ele>117.39999999999999</ele><time>2026-03-22T12:13:30.241Z</time></trkpt><trkpt lat="45.3378383" lon="8.66104"><ele>117.19999999999999</ele><time>2026-03-22T12:13:31.241Z</time></trkpt><trkpt lat="45.3377617" lon="8.6609967"><ele>117.0</ele><time>2026-03-22T12:13:32.241Z</time></trkpt><trkpt lat="45.3376967" lon="8.6609433"><ele>117.0</ele><time>2026-03-22T12:13:33.241Z</time></trkpt><trkpt lat="45.3376383" lon="8.660875"><ele>117.0</ele><time>2026-03-22T12:13:34.242Z</time></trkpt><trkpt lat="45.3376117" lon="8.6607717"><ele>117.0</ele><time>2026-03-22T12:13:35.241Z</time></trkpt><trkpt lat="45.33761" lon="8.6606483"><ele>117.0</ele><time>2026-03-22T12:13:36.241Z</time></trkpt><trkpt lat="45.3376133" lon="8.6605033"><ele>117.0</ele><time>2026-03-22T12:13:37.241Z</time></trkpt><trkpt lat="45.337615" lon="8.6603533"><ele>117.0</ele><time>2026-03-22T12:13:38.241Z</time></trkpt><trkpt lat="45.337615" lon="8.6601933"><ele>117.0</ele><time>2026-03-22T12:13:39.241Z</time></trkpt><trkpt lat="45.3376117" lon="8.6600283"><ele>117.0</ele><time>2026-03-22T12:13:40.241Z</time></trkpt><trkpt lat="45.3376083" lon="8.6598583"><ele>117.0</ele><time>2026-03-22T12:13:41.241Z</time></trkpt><trkpt lat="45.337605" lon="8.6597033"><ele>117.0</ele><time>2026-03-22T12:13:42.241Z</time></trkpt><trkpt lat="45.3375983" lon="8.6595383"><ele>117.19999999999999</ele><time>2026-03-22T12:13:43.241Z</time></trkpt><trkpt lat="45.337605" lon="8.6593717"><ele>117.39999999999999</ele><time>2026-03-22T12:13:44.241Z</time></trkpt><trkpt lat="45.3376183" lon="8.6592283"><ele>117.60000000000001</ele><time>2026-03-22T12:13:45.241Z</time></trkpt><trkpt lat="45.3376183" lon="8.6590967"><ele>117.80000000000001</ele><time>2026-03-22T12:13:46.241Z</time></trkpt><trkpt lat="45.337615" lon="8.6589883"><ele>118.0</ele><time>2026-03-22T12:13:47.241Z</time></trkpt><trkpt lat="45.3376083" lon="8.6588583"><ele>118.0</ele><time>2026-03-22T12:13:49.241Z</time></trkpt><trkpt lat="45.3376" lon="8.6587333"><ele>118.00000000000001</ele><time>2026-03-22T12:13:52.241Z</time></trkpt><trkpt lat="45.3375917" lon="8.6586367"><ele>118.00000000000001</ele><time>2026-03-22T12:13:54.241Z</time></trkpt><trkpt lat="45.3376" lon="8.6584667"><ele>118.0</ele><time>2026-03-22T12:13:56.242Z</time></trkpt><trkpt lat="45.3375983" lon="8.65835"><ele>118.0</ele><time>2026-03-22T12:13:57.241Z</time></trkpt><trkpt lat="45.337585" lon="8.6582217"><ele>117.83333333333334</ele><time>2026-03-22T12:13:58.241Z</time></trkpt><trkpt lat="45.337575" lon="8.6581017"><ele>117.66666666666667</ele><time>2026-03-22T12:13:59.241Z</time></trkpt><trkpt lat="45.3375733" lon="8.6579733"><ele>117.5</ele><time>2026-03-22T12:14:00.241Z</time></trkpt><trkpt lat="45.337565" lon="8.65784"><ele>117.33333333333334</ele><time>2026-03-22T12:14:01.241Z</time></trkpt><trkpt lat="45.3375633" lon="8.65772"><ele>117.16666666666667</ele><time>2026-03-22T12:14:02.241Z</time></trkpt><trkpt lat="45.337565" lon="8.6575883"><ele>117.0</ele><time>2026-03-22T12:14:03.241Z</time></trkpt><trkpt lat="45.33756" lon="8.65745"><ele>117.0</ele><time>2026-03-22T12:14:04.241Z</time></trkpt><trkpt lat="45.3375483" lon="8.6573067"><ele>116.99999999999999</ele><time>2026-03-22T12:14:05.241Z</time></trkpt><trkpt lat="45.337545" lon="8.6571617"><ele>116.99999999999999</ele><time>2026-03-22T12:14:06.241Z</time></trkpt><trkpt lat="45.3375417" lon="8.6570133"><ele>117.0</ele><time>2026-03-22T12:14:07.241Z</time></trkpt><trkpt lat="45.3375433" lon="8.6568567"><ele>117.0</ele><time>2026-03-22T12:14:08.241Z</time></trkpt><trkpt lat="45.3375417" lon="8.6566967"><ele>116.75</ele><time>2026-03-22T12:14:09.241Z</time></trkpt><trkpt lat="45.3375367" lon="8.6565267"><ele>116.5</ele><time>2026-03-22T12:14:10.241Z</time></trkpt><trkpt lat="45.3375283" lon="8.6563567"><ele>116.25</ele><time>2026-03-22T12:14:11.241Z</time></trkpt><trkpt lat="45.337525" lon="8.6561883"><ele>116.0</ele><time>2026-03-22T12:14:12.241Z</time></trkpt><trkpt lat="45.3375267" lon="8.6560233"><ele>115.8</ele><time>2026-03-22T12:14:13.241Z</time></trkpt><trkpt lat="45.3375233" lon="8.6558667"><ele>115.6</ele><time>2026-03-22T12:14:14.242Z</time></trkpt><trkpt lat="45.337525" lon="8.6557017"><ele>115.4</ele><time>2026-03-22T12:14:15.241Z</time></trkpt><trkpt lat="45.33752" lon="8.6555483"><ele>115.2</ele><time>2026-03-22T12:14:16.241Z</time></trkpt><trkpt lat="45.3375167" lon="8.6553933"><ele>115.0</ele><time>2026-03-22T12:14:17.241Z</time></trkpt><trkpt lat="45.3375133" lon="8.6552433"><ele>115.75</ele><time>2026-03-22T12:14:18.241Z</time></trkpt><trkpt lat="45.33751" lon="8.6550817"><ele>116.5</ele><time>2026-03-22T12:14:19.241Z</time></trkpt><trkpt lat="45.337505" lon="8.65491"><ele>117.25</ele><time>2026-03-22T12:14:20.241Z</time></trkpt><trkpt lat="45.3374983" lon="8.6547367"><ele>118.0</ele><time>2026-03-22T12:14:21.241Z</time></trkpt><trkpt lat="45.337485" lon="8.6545733"><ele>117.75</ele><time>2026-03-22T12:14:22.241Z</time></trkpt><trkpt lat="45.3374817" lon="8.65441"><ele>117.5</ele><time>2026-03-22T12:14:23.241Z</time></trkpt><trkpt lat="45.33748" lon="8.65425"><ele>117.25</ele><time>2026-03-22T12:14:24.241Z</time></trkpt><trkpt lat="45.337475" lon="8.654085"><ele>117.0</ele><time>2026-03-22T12:14:25.241Z</time></trkpt><trkpt lat="45.337475" lon="8.653915"><ele>117.0</ele><time>2026-03-22T12:14:26.241Z</time></trkpt><trkpt lat="45.3374683" lon="8.6537567"><ele>116.99999999999999</ele><time>2026-03-22T12:14:27.241Z</time></trkpt><trkpt lat="45.3374717" lon="8.6535917"><ele>116.99999999999999</ele><time>2026-03-22T12:14:28.241Z</time></trkpt><trkpt lat="45.3374717" lon="8.6534517"><ele>117.0</ele><time>2026-03-22T12:14:29.241Z</time></trkpt><trkpt lat="45.3374717" lon="8.6533333"><ele>117.0</ele><time>2026-03-22T12:14:30.241Z</time></trkpt><trkpt lat="45.3374733" lon="8.6532033"><ele>117.0</ele><time>2026-03-22T12:14:31.241Z</time></trkpt><trkpt lat="45.337475" lon="8.6530983"><ele>117.0</ele><time>2026-03-22T12:14:32.241Z</time></trkpt><trkpt lat="45.337475" lon="8.6530067"><ele>117.0</ele><time>2026-03-22T12:14:33.241Z</time></trkpt><trkpt lat="45.3374867" lon="8.65291"><ele>117.0</ele><time>2026-03-22T12:14:35.241Z</time></trkpt><trkpt lat="45.3374333" lon="8.6528233"><ele>117.0</ele><time>2026-03-22T12:14:38.241Z</time></trkpt><trkpt lat="45.337405" lon="8.652705"><ele>117.0</ele><time>2026-03-22T12:14:40.241Z</time></trkpt><trkpt lat="45.3374233" lon="8.65254"><ele>117.5</ele><time>2026-03-22T12:14:42.241Z</time></trkpt><trkpt lat="45.3374383" lon="8.652365"><ele>118.0</ele><time>2026-03-22T12:14:44.241Z</time></trkpt><trkpt lat="45.3374467" lon="8.6522183"><ele>118.5</ele><time>2026-03-22T12:14:46.241Z</time></trkpt><trkpt lat="45.3374617" lon="8.6520783"><ele>119.0</ele><time>2026-03-22T12:14:48.241Z</time></trkpt><trkpt lat="45.3374717" lon="8.6518983"><ele>119.16666666666666</ele><time>2026-03-22T12:14:50.24Z</time></trkpt><trkpt lat="45.33748" lon="8.6518033"><ele>119.33333333333333</ele><time>2026-03-22T12:14:51.24Z</time></trkpt><trkpt lat="45.33749" lon="8.65169"><ele>119.5</ele><time>2026-03-22T12:14:52.24Z</time></trkpt><trkpt lat="45.337505" lon="8.6515667"><ele>119.66666666666666</ele><time>2026-03-22T12:14:53.24Z</time></trkpt><trkpt lat="45.3375183" lon="8.6514367"><ele>119.83333333333333</ele><time>2026-03-22T12:14:54.24Z</time></trkpt><trkpt lat="45.33753" lon="8.651315"><ele>120.0</ele><time>2026-03-22T12:14:55.24Z</time></trkpt><trkpt lat="45.3375417" lon="8.6512067"><ele>119.85714285714286</ele><time>2026-03-22T12:14:56.24Z</time></trkpt><trkpt lat="45.3375483" lon="8.6511017"><ele>119.71428571428571</ele><time>2026-03-22T12:14:57.24Z</time></trkpt><trkpt lat="45.3375567" lon="8.651005"><ele>119.57142857142857</ele><time>2026-03-22T12:14:58.24Z</time></trkpt><trkpt lat="45.3375667" lon="8.6509017"><ele>119.42857142857143</ele><time>2026-03-22T12:14:59.24Z</time></trkpt><trkpt lat="45.3375733" lon="8.650805"><ele>119.28571428571428</ele><time>2026-03-22T12:15:00.24Z</time></trkpt><trkpt lat="45.3375733" lon="8.6507117"><ele>119.14285714285714</ele><time>2026-03-22T12:15:01.24Z</time></trkpt><trkpt lat="45.3375783" lon="8.650615"><ele>119.0</ele><time>2026-03-22T12:15:02.24Z</time></trkpt><trkpt lat="45.337595" lon="8.6504517"><ele>118.99999999999999</ele><time>2026-03-22T12:15:04.24Z</time></trkpt><trkpt lat="45.33761" lon="8.650315"><ele>119.0</ele><time>2026-03-22T12:15:06.24Z</time></trkpt><trkpt lat="45.337615" lon="8.6502133"><ele>119.0</ele><time>2026-03-22T12:15:08.24Z</time></trkpt><trkpt lat="45.33762" lon="8.65011"><ele>119.0</ele><time>2026-03-22T12:15:11.24Z</time></trkpt><trkpt lat="45.3375933" lon="8.6502667"><ele>118.99999999999999</ele><time>2026-03-22T12:16:15.24Z</time></trkpt><trkpt lat="45.3375817" lon="8.6503667"><ele>119.0</ele><time>2026-03-22T12:16:16.24Z</time></trkpt><trkpt lat="45.3375567" lon="8.650615"><ele>119.0</ele><time>2026-03-22T12:16:18.24Z</time></trkpt><trkpt lat="45.337545" lon="8.6507517"><ele>119.0</ele><time>2026-03-22T12:16:19.24Z</time></trkpt><trkpt lat="45.3375333" lon="8.650895"><ele>119.0</ele><time>2026-03-22T12:16:20.24Z</time></trkpt><trkpt lat="45.3375183" lon="8.6510433"><ele>119.0</ele><time>2026-03-22T12:16:21.24Z</time></trkpt><trkpt lat="45.3375083" lon="8.651195"><ele>119.0</ele><time>2026-03-22T12:16:22.24Z</time></trkpt><trkpt lat="45.3374983" lon="8.651355"><ele>119.0</ele><time>2026-03-22T12:16:23.24Z</time></trkpt><trkpt lat="45.3374867" lon="8.651515"><ele>119.0</ele><time>2026-03-22T12:16:24.24Z</time></trkpt><trkpt lat="45.3374767" lon="8.6516733"><ele>119.0</ele><time>2026-03-22T12:16:25.24Z</time></trkpt><trkpt lat="45.33746" lon="8.6518333"><ele>119.0</ele><time>2026-03-22T12:16:26.24Z</time></trkpt><trkpt lat="45.33745" lon="8.6519767"><ele>119.0</ele><time>2026-03-22T12:16:27.24Z</time></trkpt><trkpt lat="45.3374317" lon="8.652095"><ele>118.99999999999999</ele><time>2026-03-22T12:16:28.24Z</time></trkpt><trkpt lat="45.3374233" lon="8.652215"><ele>119.0</ele><time>2026-03-22T12:16:29.24Z</time></trkpt><trkpt lat="45.3374083" lon="8.6523367"><ele>119.0</ele><time>2026-03-22T12:16:30.24Z</time></trkpt><trkpt lat="45.3373967" lon="8.6524617"><ele>119.0</ele><time>2026-03-22T12:16:31.24Z</time></trkpt><trkpt lat="45.3373917" lon="8.6525717"><ele>118.99999999999999</ele><time>2026-03-22T12:16:32.24Z</time></trkpt><trkpt lat="45.3373883" lon="8.6526783"><ele>119.0</ele><time>2026-03-22T12:16:33.24Z</time></trkpt><trkpt lat="45.3373717" lon="8.6527933"><ele>118.80000000000001</ele><time>2026-03-22T12:16:35.24Z</time></trkpt><trkpt lat="45.33732" lon="8.6528467"><ele>118.60000000000001</ele><time>2026-03-22T12:16:38.239Z</time></trkpt><trkpt lat="45.3371933" lon="8.652805"><ele>118.4</ele><time>2026-03-22T12:16:40.24Z</time></trkpt><trkpt lat="45.3370917" lon="8.6527783"><ele>118.2</ele><time>2026-03-22T12:16:41.24Z</time></trkpt><trkpt lat="45.3369783" lon="8.6527617"><ele>118.0</ele><time>2026-03-22T12:16:42.24Z</time></trkpt><trkpt lat="45.3368583" lon="8.6527417"><ele>118.0</ele><time>2026-03-22T12:16:43.24Z</time></trkpt><trkpt lat="45.3367317" lon="8.6527133"><ele>118.0</ele><time>2026-03-22T12:16:44.24Z</time></trkpt><trkpt lat="45.3366" lon="8.6526917"><ele>118.0</ele><time>2026-03-22T12:16:45.24Z</time></trkpt><trkpt lat="45.3364683" lon="8.6526733"><ele>118.0</ele><time>2026-03-22T12:16:46.24Z</time></trkpt><trkpt lat="45.3363333" lon="8.6526433"><ele>118.0</ele><time>2026-03-22T12:16:47.24Z</time></trkpt><trkpt lat="45.3361867" lon="8.652605"><ele>118.0</ele><time>2026-03-22T12:16:48.24Z</time></trkpt><trkpt lat="45.3360467" lon="8.6525683"><ele>118.0</ele><time>2026-03-22T12:16:49.24Z</time></trkpt><trkpt lat="45.3359133" lon="8.652545"><ele>118.0</ele><time>2026-03-22T12:16:50.24Z</time></trkpt><trkpt lat="45.3357883" lon="8.6525267"><ele>118.0</ele><time>2026-03-22T12:16:51.24Z</time></trkpt><trkpt lat="45.33566" lon="8.652505"><ele>118.0</ele><time>2026-03-22T12:16:52.24Z</time></trkpt><trkpt lat="45.335545" lon="8.6524783"><ele>118.0</ele><time>2026-03-22T12:16:53.24Z</time></trkpt><trkpt lat="45.3354283" lon="8.65245"><ele>118.0</ele><time>2026-03-22T12:16:54.24Z</time></trkpt><trkpt lat="45.3353083" lon="8.6524217"><ele>118.0</ele><time>2026-03-22T12:16:55.24Z</time></trkpt><trkpt lat="45.3351867" lon="8.6523783"><ele>118.0</ele><time>2026-03-22T12:16:56.24Z</time></trkpt><trkpt lat="45.3350667" lon="8.652315"><ele>118.0</ele><time>2026-03-22T12:16:57.24Z</time></trkpt><trkpt lat="45.3349567" lon="8.6522183"><ele>118.0</ele><time>2026-03-22T12:16:58.24Z</time></trkpt><trkpt lat="45.3348433" lon="8.6521083"><ele>118.0</ele><time>2026-03-22T12:16:59.24Z</time></trkpt><trkpt lat="45.3347483" lon="8.6519867"><ele>118.0</ele><time>2026-03-22T12:17:00.24Z</time></trkpt><trkpt lat="45.3346617" lon="8.6518433"><ele>118.0</ele><time>2026-03-22T12:17:01.24Z</time></trkpt><trkpt lat="45.33458" lon="8.65171"><ele>118.0</ele><time>2026-03-22T12:17:02.24Z</time></trkpt><trkpt lat="45.3345067" lon="8.6515533"><ele>119.5</ele><time>2026-03-22T12:17:03.24Z</time></trkpt><trkpt lat="45.3344517" lon="8.65138"><ele>121.0</ele><time>2026-03-22T12:17:04.24Z</time></trkpt><trkpt lat="45.3344233" lon="8.6512083"><ele>122.5</ele><time>2026-03-22T12:17:05.24Z</time></trkpt><trkpt lat="45.33441" lon="8.6510433"><ele>124.0</ele><time>2026-03-22T12:17:06.24Z</time></trkpt><trkpt lat="45.3343967" lon="8.650875"><ele>124.25</ele><time>2026-03-22T12:17:07.24Z</time></trkpt><trkpt lat="45.3344017" lon="8.6506883"><ele>124.5</ele><time>2026-03-22T12:17:08.24Z</time></trkpt><trkpt lat="45.3344083" lon="8.6504967"><ele>124.75</ele><time>2026-03-22T12:17:09.24Z</time></trkpt><trkpt lat="45.3344067" lon="8.65032"><ele>125.0</ele><time>2026-03-22T12:17:10.24Z</time></trkpt><trkpt lat="45.3344117" lon="8.6501517"><ele>125.25</ele><time>2026-03-22T12:17:11.24Z</time></trkpt><trkpt lat="45.3344017" lon="8.6499933"><ele>125.5</ele><time>2026-03-22T12:17:12.24Z</time></trkpt><trkpt lat="45.3344033" lon="8.6498433"><ele>125.75</ele><time>2026-03-22T12:17:13.24Z</time></trkpt><trkpt lat="45.334405" lon="8.6496783"><ele>126.0</ele><time>2026-03-22T12:17:14.24Z</time></trkpt><trkpt lat="45.3344083" lon="8.6495017"><ele>126.0</ele><time>2026-03-22T12:17:15.24Z</time></trkpt><trkpt lat="45.334405" lon="8.649305"><ele>126.0</ele><time>2026-03-22T12:17:16.24Z</time></trkpt><trkpt lat="45.3344083" lon="8.6490967"><ele>126.0</ele><time>2026-03-22T12:17:17.24Z</time></trkpt><trkpt lat="45.3344083" lon="8.6488817"><ele>126.0</ele><time>2026-03-22T12:17:18.24Z</time></trkpt><trkpt lat="45.33441" lon="8.6486633"><ele>126.0</ele><time>2026-03-22T12:17:19.24Z</time></trkpt><trkpt lat="45.3344117" lon="8.6484267"><ele>126.0</ele><time>2026-03-22T12:17:20.24Z</time></trkpt><trkpt lat="45.3344083" lon="8.6481817"><ele>126.0</ele><time>2026-03-22T12:17:21.24Z</time></trkpt><trkpt lat="45.3343983" lon="8.647945"><ele>126.0</ele><time>2026-03-22T12:17:22.24Z</time></trkpt><trkpt lat="45.3343917" lon="8.6476967"><ele>126.0</ele><time>2026-03-22T12:17:23.24Z</time></trkpt><trkpt lat="45.3343817" lon="8.6474517"><ele>126.0</ele><time>2026-03-22T12:17:24.24Z</time></trkpt><trkpt lat="45.334385" lon="8.647215"><ele>126.0</ele><time>2026-03-22T12:17:25.24Z</time></trkpt><trkpt lat="45.3343817" lon="8.6469767"><ele>126.0</ele><time>2026-03-22T12:17:26.24Z</time></trkpt><trkpt lat="45.33438" lon="8.6467383"><ele>126.0</ele><time>2026-03-22T12:17:27.24Z</time></trkpt><trkpt lat="45.3343817" lon="8.646505"><ele>126.0</ele><time>2026-03-22T12:17:28.24Z</time></trkpt><trkpt lat="45.3343917" lon="8.6462883"><ele>126.0</ele><time>2026-03-22T12:17:29.24Z</time></trkpt><trkpt lat="45.3344167" lon="8.6460467"><ele>126.0</ele><time>2026-03-22T12:17:30.24Z</time></trkpt><trkpt lat="45.3344567" lon="8.6458233"><ele>125.66666666666666</ele><time>2026-03-22T12:17:31.24Z</time></trkpt><trkpt lat="45.3344967" lon="8.645605"><ele>125.33333333333333</ele><time>2026-03-22T12:17:32.24Z</time></trkpt><trkpt lat="45.3345633" lon="8.64541"><ele>125.0</ele><time>2026-03-22T12:17:33.24Z</time></trkpt><trkpt lat="45.33464" lon="8.6452"><ele>124.33333333333333</ele><time>2026-03-22T12:17:34.24Z</time></trkpt><trkpt lat="45.3347117" lon="8.6450017"><ele>123.66666666666666</ele><time>2026-03-22T12:17:35.24Z</time></trkpt><trkpt lat="45.334785" lon="8.64479"><ele>123.0</ele><time>2026-03-22T12:17:36.24Z</time></trkpt><trkpt lat="45.3348533" lon="8.644595"><ele>121.33333333333334</ele><time>2026-03-22T12:17:37.24Z</time></trkpt><trkpt lat="45.3349283" lon="8.644385"><ele>119.66666666666667</ele><time>2026-03-22T12:17:38.24Z</time></trkpt><trkpt lat="45.3349917" lon="8.64418"><ele>118.0</ele><time>2026-03-22T12:17:39.24Z</time></trkpt><trkpt lat="45.33507" lon="8.643975"><ele>118.0</ele><time>2026-03-22T12:17:40.24Z</time></trkpt><trkpt lat="45.3351333" lon="8.6437883"><ele>118.0</ele><time>2026-03-22T12:17:41.24Z</time></trkpt><trkpt lat="45.3352033" lon="8.64358"><ele>118.0</ele><time>2026-03-22T12:17:42.24Z</time></trkpt><trkpt lat="45.3352817" lon="8.64337"><ele>117.66666666666667</ele><time>2026-03-22T12:17:43.24Z</time></trkpt><trkpt lat="45.3353733" lon="8.643175"><ele>117.33333333333334</ele><time>2026-03-22T12:17:44.24Z</time></trkpt><trkpt lat="45.3354767" lon="8.6429733"><ele>117.0</ele><time>2026-03-22T12:17:45.24Z</time></trkpt><trkpt lat="45.3355583" lon="8.64276"><ele>117.66666666666666</ele><time>2026-03-22T12:17:46.24Z</time></trkpt><trkpt lat="45.3356317" lon="8.6425567"><ele>118.33333333333333</ele><time>2026-03-22T12:17:47.24Z</time></trkpt><trkpt lat="45.3357083" lon="8.6423417"><ele>119.0</ele><time>2026-03-22T12:17:48.24Z</time></trkpt><trkpt lat="45.3357883" lon="8.6421217"><ele>119.0</ele><time>2026-03-22T12:17:49.24Z</time></trkpt><trkpt lat="45.3358667" lon="8.6419083"><ele>119.0</ele><time>2026-03-22T12:17:50.24Z</time></trkpt><trkpt lat="45.3359467" lon="8.6416933"><ele>119.0</ele><time>2026-03-22T12:17:51.24Z</time></trkpt><trkpt lat="45.3360333" lon="8.6414567"><ele>119.0</ele><time>2026-03-22T12:17:52.24Z</time></trkpt><trkpt lat="45.336115" lon="8.6412317"><ele>119.0</ele><time>2026-03-22T12:17:53.24Z</time></trkpt><trkpt lat="45.3361917" lon="8.64101"><ele>119.0</ele><time>2026-03-22T12:17:54.24Z</time></trkpt><trkpt lat="45.3362667" lon="8.6407867"><ele>119.0</ele><time>2026-03-22T12:17:55.24Z</time></trkpt><trkpt lat="45.3363433" lon="8.6405583"><ele>119.0</ele><time>2026-03-22T12:17:56.24Z</time></trkpt><trkpt lat="45.3364183" lon="8.640325"><ele>119.0</ele><time>2026-03-22T12:17:57.24Z</time></trkpt><trkpt lat="45.336495" lon="8.640085"><ele>119.0</ele><time>2026-03-22T12:17:58.24Z</time></trkpt><trkpt lat="45.3365783" lon="8.6398517"><ele>119.0</ele><time>2026-03-22T12:17:59.24Z</time></trkpt><trkpt lat="45.3366583" lon="8.6396217"><ele>119.0</ele><time>2026-03-22T12:18:00.24Z</time></trkpt><trkpt lat="45.3367317" lon="8.6393883"><ele>119.0</ele><time>2026-03-22T12:18:01.24Z</time></trkpt><trkpt lat="45.336805" lon="8.63918"><ele>119.0</ele><time>2026-03-22T12:18:02.24Z</time></trkpt><trkpt lat="45.33687" lon="8.6389833"><ele>119.0</ele><time>2026-03-22T12:18:03.24Z</time></trkpt><trkpt lat="45.3369333" lon="8.6387983"><ele>118.75</ele><time>2026-03-22T12:18:04.24Z</time></trkpt><trkpt lat="45.3369967" lon="8.6386267"><ele>118.5</ele><time>2026-03-22T12:18:05.24Z</time></trkpt><trkpt lat="45.3370533" lon="8.6384667"><ele>118.25</ele><time>2026-03-22T12:18:06.24Z</time></trkpt><trkpt lat="45.3371033" lon="8.6383317"><ele>118.0</ele><time>2026-03-22T12:18:07.24Z</time></trkpt><trkpt lat="45.337145" lon="8.6382"><ele>118.0</ele><time>2026-03-22T12:18:08.24Z</time></trkpt><trkpt lat="45.3371633" lon="8.63806"><ele>118.0</ele><time>2026-03-22T12:18:09.24Z</time></trkpt><trkpt lat="45.3371367" lon="8.6379067"><ele>118.0</ele><time>2026-03-22T12:18:10.24Z</time></trkpt><trkpt lat="45.337075" lon="8.6377517"><ele>118.0</ele><time>2026-03-22T12:18:11.24Z</time></trkpt><trkpt lat="45.337005" lon="8.6375983"><ele>118.0</ele><time>2026-03-22T12:18:12.24Z</time></trkpt><trkpt lat="45.3369283" lon="8.63743"><ele>118.0</ele><time>2026-03-22T12:18:13.24Z</time></trkpt><trkpt lat="45.3368483" lon="8.6372733"><ele>118.0</ele><time>2026-03-22T12:18:14.24Z</time></trkpt><trkpt lat="45.3367733" lon="8.6370917"><ele>118.0</ele><time>2026-03-22T12:18:15.24Z</time></trkpt><trkpt lat="45.3367033" lon="8.63691"><ele>118.0</ele><time>2026-03-22T12:18:16.24Z</time></trkpt><trkpt lat="45.336625" lon="8.6367383"><ele>118.0</ele><time>2026-03-22T12:18:17.239Z</time></trkpt><trkpt lat="45.3365383" lon="8.6365517"><ele>118.0</ele><time>2026-03-22T12:18:18.239Z</time></trkpt><trkpt lat="45.3364633" lon="8.63635"><ele>118.0</ele><time>2026-03-22T12:18:19.239Z</time></trkpt><trkpt lat="45.336375" lon="8.6361583"><ele>118.0</ele><time>2026-03-22T12:18:20.239Z</time></trkpt><trkpt lat="45.3362883" lon="8.63595"><ele>118.0</ele><time>2026-03-22T12:18:21.239Z</time></trkpt><trkpt lat="45.3361983" lon="8.6357483"><ele>118.33333333333334</ele><time>2026-03-22T12:18:22.239Z</time></trkpt><trkpt lat="45.3361117" lon="8.6355483"><ele>118.66666666666666</ele><time>2026-03-22T12:18:23.239Z</time></trkpt><trkpt lat="45.336025" lon="8.6353217"><ele>119.0</ele><time>2026-03-22T12:18:24.239Z</time></trkpt><trkpt lat="45.3359433" lon="8.6351217"><ele>119.0</ele><time>2026-03-22T12:18:25.239Z</time></trkpt><trkpt lat="45.335865" lon="8.634935"><ele>119.0</ele><time>2026-03-22T12:18:26.239Z</time></trkpt><trkpt lat="45.3357967" lon="8.6347467"><ele>119.0</ele><time>2026-03-22T12:18:27.239Z</time></trkpt><trkpt lat="45.335705" lon="8.6345767"><ele>119.0</ele><time>2026-03-22T12:18:28.239Z</time></trkpt><trkpt lat="45.3356017" lon="8.6344267"><ele>119.0</ele><time>2026-03-22T12:18:29.239Z</time></trkpt><trkpt lat="45.3354733" lon="8.6343017"><ele>119.0</ele><time>2026-03-22T12:18:30.239Z</time></trkpt><trkpt lat="45.3353217" lon="8.6342217"><ele>119.33333333333333</ele><time>2026-03-22T12:18:31.239Z</time></trkpt><trkpt lat="45.33516" lon="8.6341417"><ele>119.66666666666666</ele><time>2026-03-22T12:18:32.239Z</time></trkpt><trkpt lat="45.3349983" lon="8.6340583"><ele>120.0</ele><time>2026-03-22T12:18:33.239Z</time></trkpt><trkpt lat="45.334845" lon="8.6339717"><ele>119.66666666666666</ele><time>2026-03-22T12:18:34.239Z</time></trkpt><trkpt lat="45.3346883" lon="8.6338867"><ele>119.33333333333333</ele><time>2026-03-22T12:18:35.239Z</time></trkpt><trkpt lat="45.33453" lon="8.6338083"><ele>119.0</ele><time>2026-03-22T12:18:36.239Z</time></trkpt><trkpt lat="45.3343717" lon="8.6337233"><ele>119.0</ele><time>2026-03-22T12:18:37.239Z</time></trkpt><trkpt lat="45.3342183" lon="8.633645"><ele>119.0</ele><time>2026-03-22T12:18:38.239Z</time></trkpt><trkpt lat="45.3340633" lon="8.6335717"><ele>119.0</ele><time>2026-03-22T12:18:39.239Z</time></trkpt><trkpt lat="45.3339117" lon="8.6335117"><ele>118.66666666666666</ele><time>2026-03-22T12:18:40.239Z</time></trkpt><trkpt lat="45.3337667" lon="8.633435"><ele>118.33333333333334</ele><time>2026-03-22T12:18:41.239Z</time></trkpt><trkpt lat="45.3336233" lon="8.6333517"><ele>118.0</ele><time>2026-03-22T12:18:42.239Z</time></trkpt><trkpt lat="45.333485" lon="8.6332833"><ele>118.0</ele><time>2026-03-22T12:18:43.239Z</time></trkpt><trkpt lat="45.33335" lon="8.6332017"><ele>118.0</ele><time>2026-03-22T12:18:44.239Z</time></trkpt><trkpt lat="45.33322" lon="8.6331133"><ele>118.0</ele><time>2026-03-22T12:18:45.239Z</time></trkpt><trkpt lat="45.33308" lon="8.63301"><ele>118.0</ele><time>2026-03-22T12:18:46.239Z</time></trkpt><trkpt lat="45.332935" lon="8.6329033"><ele>118.0</ele><time>2026-03-22T12:18:47.239Z</time></trkpt><trkpt lat="45.3327983" lon="8.63279"><ele>118.0</ele><time>2026-03-22T12:18:48.239Z</time></trkpt><trkpt lat="45.332655" lon="8.6326717"><ele>118.0</ele><time>2026-03-22T12:18:49.239Z</time></trkpt><trkpt lat="45.3325133" lon="8.6325483"><ele>118.0</ele><time>2026-03-22T12:18:50.239Z</time></trkpt><trkpt lat="45.3323667" lon="8.63242"><ele>118.0</ele><time>2026-03-22T12:18:51.239Z</time></trkpt><trkpt lat="45.3322283" lon="8.6323"><ele>118.0</ele><time>2026-03-22T12:18:52.239Z</time></trkpt><trkpt lat="45.3320867" lon="8.6321933"><ele>117.75</ele><time>2026-03-22T12:18:53.239Z</time></trkpt><trkpt lat="45.3319483" lon="8.6320867"><ele>117.5</ele><time>2026-03-22T12:18:54.239Z</time></trkpt><trkpt lat="45.3318167" lon="8.6319867"><ele>117.25</ele><time>2026-03-22T12:18:55.239Z</time></trkpt><trkpt lat="45.3316967" lon="8.63188"><ele>117.0</ele><time>2026-03-22T12:18:56.239Z</time></trkpt><trkpt lat="45.3315883" lon="8.6317817"><ele>117.5</ele><time>2026-03-22T12:18:57.239Z</time></trkpt><trkpt lat="45.331485" lon="8.6316767"><ele>118.0</ele><time>2026-03-22T12:18:58.239Z</time></trkpt><trkpt lat="45.33139" lon="8.6316067"><ele>118.5</ele><time>2026-03-22T12:18:59.239Z</time></trkpt><trkpt lat="45.3312833" lon="8.6315567"><ele>119.0</ele><time>2026-03-22T12:19:00.239Z</time></trkpt><trkpt lat="45.3311733" lon="8.631505"><ele>119.0</ele><time>2026-03-22T12:19:01.239Z</time></trkpt><trkpt lat="45.3310467" lon="8.6314633"><ele>119.0</ele><time>2026-03-22T12:19:02.239Z</time></trkpt><trkpt lat="45.3309233" lon="8.6314583"><ele>119.0</ele><time>2026-03-22T12:19:03.239Z</time></trkpt><trkpt lat="45.330795" lon="8.6314733"><ele>119.0</ele><time>2026-03-22T12:19:04.239Z</time></trkpt><trkpt lat="45.33066" lon="8.6315083"><ele>118.75</ele><time>2026-03-22T12:19:05.239Z</time></trkpt><trkpt lat="45.330515" lon="8.6315467"><ele>118.5</ele><time>2026-03-22T12:19:06.239Z</time></trkpt><trkpt lat="45.3303817" lon="8.63159"><ele>118.25</ele><time>2026-03-22T12:19:07.239Z</time></trkpt><trkpt lat="45.3302383" lon="8.6316483"><ele>118.0</ele><time>2026-03-22T12:19:08.239Z</time></trkpt><trkpt lat="45.3300883" lon="8.6317133"><ele>118.0</ele><time>2026-03-22T12:19:09.239Z</time></trkpt><trkpt lat="45.3299383" lon="8.6317817"><ele>118.0</ele><time>2026-03-22T12:19:10.239Z</time></trkpt><trkpt lat="45.32977" lon="8.6318517"><ele>118.0</ele><time>2026-03-22T12:19:11.239Z</time></trkpt><trkpt lat="45.3295983" lon="8.6319183"><ele>117.66666666666667</ele><time>2026-03-22T12:19:12.239Z</time></trkpt><trkpt lat="45.3294217" lon="8.6319917"><ele>117.33333333333334</ele><time>2026-03-22T12:19:13.239Z</time></trkpt><trkpt lat="45.32925" lon="8.63204"><ele>117.0</ele><time>2026-03-22T12:19:14.239Z</time></trkpt><trkpt lat="45.3290833" lon="8.6321117"><ele>117.0</ele><time>2026-03-22T12:19:15.239Z</time></trkpt><trkpt lat="45.32891" lon="8.6321767"><ele>117.0</ele><time>2026-03-22T12:19:16.239Z</time></trkpt><trkpt lat="45.3287367" lon="8.6322483"><ele>117.0</ele><time>2026-03-22T12:19:17.239Z</time></trkpt><trkpt lat="45.32857" lon="8.6323283"><ele>117.0</ele><time>2026-03-22T12:19:18.239Z</time></trkpt><trkpt lat="45.3284017" lon="8.6323917"><ele>117.0</ele><time>2026-03-22T12:19:19.239Z</time></trkpt><trkpt lat="45.328235" lon="8.632465"><ele>117.0</ele><time>2026-03-22T12:19:20.239Z</time></trkpt><trkpt lat="45.328055" lon="8.6325367"><ele>117.0</ele><time>2026-03-22T12:19:21.239Z</time></trkpt><trkpt lat="45.327875" lon="8.6326083"><ele>117.0</ele><time>2026-03-22T12:19:22.239Z</time></trkpt><trkpt lat="45.327695" lon="8.6326917"><ele>117.0</ele><time>2026-03-22T12:19:23.239Z</time></trkpt><trkpt lat="45.3275133" lon="8.6327383"><ele>117.0</ele><time>2026-03-22T12:19:24.239Z</time></trkpt><trkpt lat="45.3273417" lon="8.632805"><ele>117.0</ele><time>2026-03-22T12:19:25.239Z</time></trkpt><trkpt lat="45.327185" lon="8.6328733"><ele>117.0</ele><time>2026-03-22T12:19:26.239Z</time></trkpt><trkpt lat="45.3270467" lon="8.632935"><ele>117.0</ele><time>2026-03-22T12:19:27.239Z</time></trkpt><trkpt lat="45.3269" lon="8.632985"><ele>117.0</ele><time>2026-03-22T12:19:28.239Z</time></trkpt><trkpt lat="45.3267667" lon="8.63304"><ele>117.0</ele><time>2026-03-22T12:19:29.239Z</time></trkpt><trkpt lat="45.3266417" lon="8.6330933"><ele>117.0</ele><time>2026-03-22T12:19:30.239Z</time></trkpt><trkpt lat="45.3265383" lon="8.6331517"><ele>117.0</ele><time>2026-03-22T12:19:31.239Z</time></trkpt><trkpt lat="45.32644" lon="8.6331933"><ele>116.99999999999999</ele><time>2026-03-22T12:19:32.239Z</time></trkpt><trkpt lat="45.3263517" lon="8.6332417"><ele>116.99999999999999</ele><time>2026-03-22T12:19:33.239Z</time></trkpt><trkpt lat="45.32626" lon="8.63329"><ele>117.0</ele><time>2026-03-22T12:19:34.239Z</time></trkpt><trkpt lat="45.326175" lon="8.6333167"><ele>117.0</ele><time>2026-03-22T12:19:35.239Z</time></trkpt><trkpt lat="45.326105" lon="8.6333267"><ele>117.16666666666667</ele><time>2026-03-22T12:19:36.239Z</time></trkpt><trkpt lat="45.32604" lon="8.633305"><ele>117.33333333333334</ele><time>2026-03-22T12:19:37.239Z</time></trkpt><trkpt lat="45.325975" lon="8.6332533"><ele>117.5</ele><time>2026-03-22T12:19:38.239Z</time></trkpt><trkpt lat="45.3259317" lon="8.6331717"><ele>117.66666666666667</ele><time>2026-03-22T12:19:39.239Z</time></trkpt><trkpt lat="45.3259283" lon="8.6330233"><ele>117.83333333333334</ele><time>2026-03-22T12:19:40.239Z</time></trkpt><trkpt lat="45.3259433" lon="8.6328417"><ele>118.0</ele><time>2026-03-22T12:19:41.239Z</time></trkpt><trkpt lat="45.3259683" lon="8.6326567"><ele>118.2</ele><time>2026-03-22T12:19:42.239Z</time></trkpt><trkpt lat="45.3259867" lon="8.6325083"><ele>118.4</ele><time>2026-03-22T12:19:43.239Z</time></trkpt><trkpt lat="45.3260083" lon="8.6323883"><ele>118.60000000000001</ele><time>2026-03-22T12:19:44.239Z</time></trkpt><trkpt lat="45.3259883" lon="8.63228"><ele>118.80000000000001</ele><time>2026-03-22T12:19:45.239Z</time></trkpt><trkpt lat="45.3259533" lon="8.6321883"><ele>119.0</ele><time>2026-03-22T12:19:46.239Z</time></trkpt><trkpt lat="45.3258433" lon="8.6321183"><ele>119.0</ele><time>2026-03-22T12:19:48.239Z</time></trkpt><trkpt lat="45.325725" lon="8.6321517"><ele>119.0</ele><time>2026-03-22T12:19:49.239Z</time></trkpt><trkpt lat="45.3256" lon="8.6321817"><ele>119.0</ele><time>2026-03-22T12:19:50.239Z</time></trkpt><trkpt lat="45.32547" lon="8.6321917"><ele>119.0</ele><time>2026-03-22T12:19:51.239Z</time></trkpt><trkpt lat="45.3253283" lon="8.632165"><ele>119.5</ele><time>2026-03-22T12:19:52.239Z</time></trkpt><trkpt lat="45.3252017" lon="8.6321367"><ele>120.0</ele><time>2026-03-22T12:19:53.239Z</time></trkpt><trkpt lat="45.325075" lon="8.6320783"><ele>120.5</ele><time>2026-03-22T12:19:54.239Z</time></trkpt><trkpt lat="45.3249583" lon="8.6320267"><ele>121.0</ele><time>2026-03-22T12:19:55.239Z</time></trkpt><trkpt lat="45.3248533" lon="8.6320067"><ele>121.00000000000001</ele><time>2026-03-22T12:19:56.239Z</time></trkpt><trkpt lat="45.3247483" lon="8.6320167"><ele>121.0</ele><time>2026-03-22T12:19:57.239Z</time></trkpt><trkpt lat="45.32466" lon="8.632055"><ele>121.0</ele><time>2026-03-22T12:19:58.239Z</time></trkpt><trkpt lat="45.3245933" lon="8.6321067"><ele>121.0</ele><time>2026-03-22T12:19:59.239Z</time></trkpt><trkpt lat="45.3245317" lon="8.6321267"><ele>121.00000000000001</ele><time>2026-03-22T12:20:00.239Z</time></trkpt><trkpt lat="45.3244283" lon="8.63211"><ele>121.0</ele><time>2026-03-22T12:20:02.239Z</time></trkpt><trkpt lat="45.3243433" lon="8.6320317"><ele>120.6</ele><time>2026-03-22T12:20:04.239Z</time></trkpt><trkpt lat="45.32424" lon="8.63199"><ele>120.19999999999999</ele><time>2026-03-22T12:20:06.239Z</time></trkpt><trkpt lat="45.32416" lon="8.6319967"><ele>119.80000000000001</ele><time>2026-03-22T12:20:07.239Z</time></trkpt><trkpt lat="45.32406" lon="8.6320117"><ele>119.4</ele><time>2026-03-22T12:20:08.239Z</time></trkpt><trkpt lat="45.323955" lon="8.6320133"><ele>119.0</ele><time>2026-03-22T12:20:09.239Z</time></trkpt><trkpt lat="45.3238367" lon="8.6320067"><ele>118.5</ele><time>2026-03-22T12:20:10.239Z</time></trkpt><trkpt lat="45.3237083" lon="8.6320083"><ele>118.0</ele><time>2026-03-22T12:20:11.239Z</time></trkpt><trkpt lat="45.32356" lon="8.6319983"><ele>117.5</ele><time>2026-03-22T12:20:12.239Z</time></trkpt><trkpt lat="45.3234233" lon="8.6319933"><ele>117.0</ele><time>2026-03-22T12:20:13.239Z</time></trkpt><trkpt lat="45.3233017" lon="8.6319933"><ele>117.0</ele><time>2026-03-22T12:20:14.239Z</time></trkpt><trkpt lat="45.323175" lon="8.6320117"><ele>117.0</ele><time>2026-03-22T12:20:15.239Z</time></trkpt><trkpt lat="45.3230517" lon="8.63205"><ele>117.0</ele><time>2026-03-22T12:20:16.239Z</time></trkpt><trkpt lat="45.3229283" lon="8.6320883"><ele>117.0</ele><time>2026-03-22T12:20:17.239Z</time></trkpt><trkpt lat="45.3227983" lon="8.63214"><ele>117.25</ele><time>2026-03-22T12:20:18.239Z</time></trkpt><trkpt lat="45.3226783" lon="8.632185"><ele>117.5</ele><time>2026-03-22T12:20:19.239Z</time></trkpt><trkpt lat="45.3225567" lon="8.6322517"><ele>117.75</ele><time>2026-03-22T12:20:20.239Z</time></trkpt><trkpt lat="45.3224333" lon="8.6323"><ele>118.0</ele><time>2026-03-22T12:20:21.239Z</time></trkpt><trkpt lat="45.3223017" lon="8.6323567"><ele>117.75</ele><time>2026-03-22T12:20:22.239Z</time></trkpt><trkpt lat="45.3221783" lon="8.6324017"><ele>117.5</ele><time>2026-03-22T12:20:23.239Z</time></trkpt><trkpt lat="45.3220467" lon="8.6324533"><ele>117.25</ele><time>2026-03-22T12:20:24.239Z</time></trkpt><trkpt lat="45.321915" lon="8.6325"><ele>117.0</ele><time>2026-03-22T12:20:25.239Z</time></trkpt><trkpt lat="45.32179" lon="8.63256"><ele>117.0</ele><time>2026-03-22T12:20:26.239Z</time></trkpt><trkpt lat="45.32167" lon="8.6326117"><ele>117.0</ele><time>2026-03-22T12:20:27.239Z</time></trkpt><trkpt lat="45.32154" lon="8.63267"><ele>117.0</ele><time>2026-03-22T12:20:28.239Z</time></trkpt><trkpt lat="45.3214167" lon="8.6327367"><ele>117.0</ele><time>2026-03-22T12:20:29.239Z</time></trkpt><trkpt lat="45.3212883" lon="8.6327833"><ele>117.25</ele><time>2026-03-22T12:20:30.239Z</time></trkpt><trkpt lat="45.321155" lon="8.6328467"><ele>117.5</ele><time>2026-03-22T12:20:31.239Z</time></trkpt><trkpt lat="45.3210117" lon="8.6329133"><ele>117.75</ele><time>2026-03-22T12:20:32.239Z</time></trkpt><trkpt lat="45.3208767" lon="8.632955"><ele>118.0</ele><time>2026-03-22T12:20:33.239Z</time></trkpt><trkpt lat="45.3207417" lon="8.6330267"><ele>118.0</ele><time>2026-03-22T12:20:34.239Z</time></trkpt><trkpt lat="45.3206083" lon="8.633085"><ele>118.0</ele><time>2026-03-22T12:20:35.239Z</time></trkpt><trkpt lat="45.32047" lon="8.633135"><ele>118.0</ele><time>2026-03-22T12:20:36.239Z</time></trkpt><trkpt lat="45.3203333" lon="8.6332033"><ele>118.0</ele><time>2026-03-22T12:20:37.239Z</time></trkpt><trkpt lat="45.3201967" lon="8.633275"><ele>118.0</ele><time>2026-03-22T12:20:38.239Z</time></trkpt><trkpt lat="45.3200583" lon="8.6333417"><ele>118.0</ele><time>2026-03-22T12:20:39.239Z</time></trkpt><trkpt lat="45.3199167" lon="8.6333867"><ele>118.0</ele><time>2026-03-22T12:20:40.239Z</time></trkpt><trkpt lat="45.3197767" lon="8.6334533"><ele>118.0</ele><time>2026-03-22T12:20:41.239Z</time></trkpt><trkpt lat="45.3196283" lon="8.6335217"><ele>118.0</ele><time>2026-03-22T12:20:42.239Z</time></trkpt><trkpt lat="45.3194883" lon="8.6335733"><ele>118.0</ele><time>2026-03-22T12:20:43.239Z</time></trkpt><trkpt lat="45.31935" lon="8.6336233"><ele>118.0</ele><time>2026-03-22T12:20:44.239Z</time></trkpt><trkpt lat="45.3192083" lon="8.6336983"><ele>118.0</ele><time>2026-03-22T12:20:45.239Z</time></trkpt><trkpt lat="45.3190717" lon="8.6337717"><ele>118.0</ele><time>2026-03-22T12:20:46.239Z</time></trkpt><trkpt lat="45.3189333" lon="8.63384"><ele>118.0</ele><time>2026-03-22T12:20:47.239Z</time></trkpt><trkpt lat="45.3188017" lon="8.6338933"><ele>118.0</ele><time>2026-03-22T12:20:48.239Z</time></trkpt><trkpt lat="45.31867" lon="8.63394"><ele>118.0</ele><time>2026-03-22T12:20:49.239Z</time></trkpt><trkpt lat="45.318535" lon="8.6339967"><ele>117.75</ele><time>2026-03-22T12:20:50.239Z</time></trkpt><trkpt lat="45.3183933" lon="8.6340583"><ele>117.5</ele><time>2026-03-22T12:20:51.239Z</time></trkpt><trkpt lat="45.31826" lon="8.63411"><ele>117.25</ele><time>2026-03-22T12:20:52.239Z</time></trkpt><trkpt lat="45.3181367" lon="8.634155"><ele>117.0</ele><time>2026-03-22T12:20:53.239Z</time></trkpt><trkpt lat="45.3180233" lon="8.6342033"><ele>117.0</ele><time>2026-03-22T12:20:54.239Z</time></trkpt><trkpt lat="45.3179033" lon="8.6342517"><ele>117.0</ele><time>2026-03-22T12:20:55.239Z</time></trkpt><trkpt lat="45.3177883" lon="8.634285"><ele>117.0</ele><time>2026-03-22T12:20:56.239Z</time></trkpt><trkpt lat="45.3176767" lon="8.6343183"><ele>117.0</ele><time>2026-03-22T12:20:57.239Z</time></trkpt><trkpt lat="45.3175717" lon="8.6343467"><ele>117.0</ele><time>2026-03-22T12:20:58.239Z</time></trkpt><trkpt lat="45.317455" lon="8.634375"><ele>117.0</ele><time>2026-03-22T12:20:59.239Z</time></trkpt><trkpt lat="45.3173283" lon="8.6343833"><ele>117.0</ele><time>2026-03-22T12:21:00.239Z</time></trkpt><trkpt lat="45.317185" lon="8.6343767"><ele>117.0</ele><time>2026-03-22T12:21:01.239Z</time></trkpt><trkpt lat="45.3170383" lon="8.6343767"><ele>116.66666666666666</ele><time>2026-03-22T12:21:02.239Z</time></trkpt><trkpt lat="45.3168867" lon="8.6343733"><ele>116.33333333333333</ele><time>2026-03-22T12:21:03.239Z</time></trkpt><trkpt lat="45.3167383" lon="8.6343583"><ele>116.0</ele><time>2026-03-22T12:21:04.239Z</time></trkpt><trkpt lat="45.316585" lon="8.634345"><ele>116.0</ele><time>2026-03-22T12:21:05.239Z</time></trkpt><trkpt lat="45.3164317" lon="8.6343333"><ele>116.0</ele><time>2026-03-22T12:21:06.239Z</time></trkpt><trkpt lat="45.3162883" lon="8.6343217"><ele>116.0</ele><time>2026-03-22T12:21:07.239Z</time></trkpt><trkpt lat="45.316145" lon="8.634305"><ele>116.0</ele><time>2026-03-22T12:21:08.239Z</time></trkpt><trkpt lat="45.316005" lon="8.6342883"><ele>116.0</ele><time>2026-03-22T12:21:09.239Z</time></trkpt><trkpt lat="45.3158633" lon="8.6342583"><ele>116.0</ele><time>2026-03-22T12:21:10.239Z</time></trkpt><trkpt lat="45.31571" lon="8.6342233"><ele>116.0</ele><time>2026-03-22T12:21:11.24Z</time></trkpt><trkpt lat="45.315565" lon="8.6341933"><ele>116.0</ele><time>2026-03-22T12:21:12.239Z</time></trkpt><trkpt lat="45.3154183" lon="8.6341967"><ele>116.0</ele><time>2026-03-22T12:21:13.239Z</time></trkpt><trkpt lat="45.3152483" lon="8.6342033"><ele>116.0</ele><time>2026-03-22T12:21:14.239Z</time></trkpt><trkpt lat="45.315095" lon="8.6342267"><ele>116.0</ele><time>2026-03-22T12:21:15.239Z</time></trkpt><trkpt lat="45.3149567" lon="8.634255"><ele>116.0</ele><time>2026-03-22T12:21:16.239Z</time></trkpt><trkpt lat="45.3148333" lon="8.6342783"><ele>116.0</ele><time>2026-03-22T12:21:17.239Z</time></trkpt><trkpt lat="45.3147067" lon="8.6343033"><ele>116.0</ele><time>2026-03-22T12:21:18.239Z</time></trkpt><trkpt lat="45.3145783" lon="8.6343267"><ele>116.0</ele><time>2026-03-22T12:21:19.239Z</time></trkpt><trkpt lat="45.3144533" lon="8.6343317"><ele>116.4</ele><time>2026-03-22T12:21:20.239Z</time></trkpt><trkpt lat="45.3143367" lon="8.6343217"><ele>116.8</ele><time>2026-03-22T12:21:21.239Z</time></trkpt><trkpt lat="45.31423" lon="8.6343333"><ele>117.20000000000002</ele><time>2026-03-22T12:21:22.239Z</time></trkpt><trkpt lat="45.31412" lon="8.634325"><ele>117.60000000000001</ele><time>2026-03-22T12:21:23.239Z</time></trkpt><trkpt lat="45.3140367" lon="8.63433"><ele>118.0</ele><time>2026-03-22T12:21:24.239Z</time></trkpt><trkpt lat="45.3139517" lon="8.63429"><ele>117.80000000000001</ele><time>2026-03-22T12:21:25.239Z</time></trkpt><trkpt lat="45.3138917" lon="8.6342583"><ele>117.60000000000001</ele><time>2026-03-22T12:21:26.239Z</time></trkpt><trkpt lat="45.3138233" lon="8.6341783"><ele>117.39999999999999</ele><time>2026-03-22T12:21:27.239Z</time></trkpt><trkpt lat="45.3137667" lon="8.6340783"><ele>117.19999999999999</ele><time>2026-03-22T12:21:28.239Z</time></trkpt><trkpt lat="45.3137367" lon="8.633915"><ele>117.0</ele><time>2026-03-22T12:21:29.239Z</time></trkpt><trkpt lat="45.3137317" lon="8.6337333"><ele>117.0</ele><time>2026-03-22T12:21:30.239Z</time></trkpt><trkpt lat="45.3137483" lon="8.6335083"><ele>117.0</ele><time>2026-03-22T12:21:31.239Z</time></trkpt><trkpt lat="45.3137633" lon="8.6332983"><ele>117.0</ele><time>2026-03-22T12:21:32.239Z</time></trkpt><trkpt lat="45.3137767" lon="8.6330883"><ele>117.0</ele><time>2026-03-22T12:21:33.239Z</time></trkpt><trkpt lat="45.3137817" lon="8.6328833"><ele>117.0</ele><time>2026-03-22T12:21:34.239Z</time></trkpt><trkpt lat="45.3137767" lon="8.6326917"><ele>117.0</ele><time>2026-03-22T12:21:35.239Z</time></trkpt><trkpt lat="45.3137583" lon="8.6325283"><ele>117.0</ele><time>2026-03-22T12:21:36.239Z</time></trkpt><trkpt lat="45.313745" lon="8.6323867"><ele>116.83333333333333</ele><time>2026-03-22T12:21:37.239Z</time></trkpt><trkpt lat="45.3137233" lon="8.63229"><ele>116.66666666666666</ele><time>2026-03-22T12:21:38.239Z</time></trkpt><trkpt lat="45.3136617" lon="8.6321633"><ele>116.5</ele><time>2026-03-22T12:21:40.239Z</time></trkpt><trkpt lat="45.3135617" lon="8.6321417"><ele>116.33333333333333</ele><time>2026-03-22T12:21:42.239Z</time></trkpt><trkpt lat="45.313495" lon="8.632135"><ele>116.16666666666666</ele><time>2026-03-22T12:21:43.239Z</time></trkpt><trkpt lat="45.3134083" lon="8.632125"><ele>116.0</ele><time>2026-03-22T12:21:44.239Z</time></trkpt><trkpt lat="45.313305" lon="8.6321133"><ele>116.0</ele><time>2026-03-22T12:21:45.239Z</time></trkpt><trkpt lat="45.3131933" lon="8.6321"><ele>116.0</ele><time>2026-03-22T12:21:46.239Z</time></trkpt><trkpt lat="45.3130833" lon="8.6320817"><ele>116.0</ele><time>2026-03-22T12:21:47.239Z</time></trkpt><trkpt lat="45.3129717" lon="8.63206"><ele>116.0</ele><time>2026-03-22T12:21:48.238Z</time></trkpt><trkpt lat="45.3128533" lon="8.632045"><ele>116.0</ele><time>2026-03-22T12:21:49.238Z</time></trkpt><trkpt lat="45.3127283" lon="8.632025"><ele>116.0</ele><time>2026-03-22T12:21:50.238Z</time></trkpt><trkpt lat="45.3125967" lon="8.6320033"><ele>116.0</ele><time>2026-03-22T12:21:51.238Z</time></trkpt><trkpt lat="45.3124583" lon="8.631985"><ele>116.0</ele><time>2026-03-22T12:21:52.238Z</time></trkpt><trkpt lat="45.3123167" lon="8.63196"><ele>116.33333333333333</ele><time>2026-03-22T12:21:53.238Z</time></trkpt><trkpt lat="45.312175" lon="8.6319283"><ele>116.66666666666666</ele><time>2026-03-22T12:21:54.238Z</time></trkpt><trkpt lat="45.31202" lon="8.6319067"><ele>117.0</ele><time>2026-03-22T12:21:55.238Z</time></trkpt><trkpt lat="45.3118583" lon="8.631885"><ele>117.0</ele><time>2026-03-22T12:21:56.238Z</time></trkpt><trkpt lat="45.3116967" lon="8.63186"><ele>117.0</ele><time>2026-03-22T12:21:57.238Z</time></trkpt><trkpt lat="45.3115317" lon="8.6318383"><ele>117.0</ele><time>2026-03-22T12:21:58.238Z</time></trkpt><trkpt lat="45.3113717" lon="8.6318083"><ele>116.5</ele><time>2026-03-22T12:21:59.238Z</time></trkpt><trkpt lat="45.3112217" lon="8.6317867"><ele>116.0</ele><time>2026-03-22T12:22:00.238Z</time></trkpt><trkpt lat="45.3110767" lon="8.6317617"><ele>115.5</ele><time>2026-03-22T12:22:01.238Z</time></trkpt><trkpt lat="45.31095" lon="8.6317333"><ele>115.0</ele><time>2026-03-22T12:22:02.238Z</time></trkpt><trkpt lat="45.3108217" lon="8.631745"><ele>115.0</ele><time>2026-03-22T12:22:03.238Z</time></trkpt><trkpt lat="45.3107067" lon="8.6317783"><ele>115.0</ele><time>2026-03-22T12:22:04.238Z</time></trkpt><trkpt lat="45.31058" lon="8.63185"><ele>115.0</ele><time>2026-03-22T12:22:05.238Z</time></trkpt><trkpt lat="45.3104633" lon="8.631935"><ele>115.0</ele><time>2026-03-22T12:22:06.238Z</time></trkpt><trkpt lat="45.3103483" lon="8.632025"><ele>115.25</ele><time>2026-03-22T12:22:07.238Z</time></trkpt><trkpt lat="45.3102233" lon="8.632095"><ele>115.5</ele><time>2026-03-22T12:22:08.238Z</time></trkpt><trkpt lat="45.3101083" lon="8.6321633"><ele>115.75</ele><time>2026-03-22T12:22:09.238Z</time></trkpt><trkpt lat="45.3099883" lon="8.6322367"><ele>116.0</ele><time>2026-03-22T12:22:10.238Z</time></trkpt><trkpt lat="45.3098617" lon="8.6323167"><ele>116.25</ele><time>2026-03-22T12:22:11.238Z</time></trkpt><trkpt lat="45.3097417" lon="8.6324117"><ele>116.5</ele><time>2026-03-22T12:22:12.238Z</time></trkpt><trkpt lat="45.3096233" lon="8.6324817"><ele>116.75</ele><time>2026-03-22T12:22:13.238Z</time></trkpt><trkpt lat="45.3095033" lon="8.6325583"><ele>117.0</ele><time>2026-03-22T12:22:14.238Z</time></trkpt><trkpt lat="45.3093833" lon="8.6326233"><ele>117.0</ele><time>2026-03-22T12:22:15.238Z</time></trkpt><trkpt lat="45.3092567" lon="8.6326867"><ele>117.0</ele><time>2026-03-22T12:22:16.238Z</time></trkpt><trkpt lat="45.3091233" lon="8.6327517"><ele>117.0</ele><time>2026-03-22T12:22:17.238Z</time></trkpt><trkpt lat="45.3089967" lon="8.6328133"><ele>117.0</ele><time>2026-03-22T12:22:18.238Z</time></trkpt><trkpt lat="45.3088633" lon="8.6328883"><ele>117.0</ele><time>2026-03-22T12:22:19.238Z</time></trkpt><trkpt lat="45.3087283" lon="8.6329567"><ele>117.0</ele><time>2026-03-22T12:22:20.238Z</time></trkpt><trkpt lat="45.3085983" lon="8.633025"><ele>117.0</ele><time>2026-03-22T12:22:21.238Z</time></trkpt><trkpt lat="45.3084717" lon="8.633095"><ele>117.0</ele><time>2026-03-22T12:22:22.238Z</time></trkpt><trkpt lat="45.3083383" lon="8.6331717"><ele>117.0</ele><time>2026-03-22T12:22:23.238Z</time></trkpt><trkpt lat="45.3082133" lon="8.63324"><ele>117.0</ele><time>2026-03-22T12:22:24.238Z</time></trkpt><trkpt lat="45.30808" lon="8.6333083"><ele>117.0</ele><time>2026-03-22T12:22:25.238Z</time></trkpt><trkpt lat="45.30796" lon="8.6333983"><ele>117.0</ele><time>2026-03-22T12:22:26.238Z</time></trkpt><trkpt lat="45.3078267" lon="8.6334917"><ele>117.25</ele><time>2026-03-22T12:22:27.238Z</time></trkpt><trkpt lat="45.307685" lon="8.633575"><ele>117.5</ele><time>2026-03-22T12:22:28.238Z</time></trkpt><trkpt lat="45.3075533" lon="8.6336633"><ele>117.75</ele><time>2026-03-22T12:22:29.239Z</time></trkpt><trkpt lat="45.3074233" lon="8.6337533"><ele>118.0</ele><time>2026-03-22T12:22:30.238Z</time></trkpt><trkpt lat="45.3073017" lon="8.6338317"><ele>118.25</ele><time>2026-03-22T12:22:31.238Z</time></trkpt><trkpt lat="45.3071783" lon="8.6339233"><ele>118.5</ele><time>2026-03-22T12:22:32.238Z</time></trkpt><trkpt lat="45.307065" lon="8.6339933"><ele>118.75</ele><time>2026-03-22T12:22:33.238Z</time></trkpt><trkpt lat="45.3069667" lon="8.63406"><ele>119.0</ele><time>2026-03-22T12:22:34.238Z</time></trkpt><trkpt lat="45.3068867" lon="8.6341167"><ele>118.99999999999999</ele><time>2026-03-22T12:22:35.238Z</time></trkpt><trkpt lat="45.3068017" lon="8.634175"><ele>119.0</ele><time>2026-03-22T12:22:36.238Z</time></trkpt><trkpt lat="45.3067233" lon="8.634205"><ele>119.0</ele><time>2026-03-22T12:22:37.238Z</time></trkpt><trkpt lat="45.30665" lon="8.634235"><ele>119.0</ele><time>2026-03-22T12:22:38.238Z</time></trkpt><trkpt lat="45.306585" lon="8.6342717"><ele>118.99999999999999</ele><time>2026-03-22T12:22:39.238Z</time></trkpt><trkpt lat="45.306505" lon="8.63428"><ele>119.0</ele><time>2026-03-22T12:22:41.239Z</time></trkpt><trkpt lat="45.306435" lon="8.6341383"><ele>118.5</ele><time>2026-03-22T12:22:43.238Z</time></trkpt><trkpt lat="45.3063983" lon="8.634"><ele>118.0</ele><time>2026-03-22T12:22:44.238Z</time></trkpt><trkpt lat="45.30637" lon="8.6338367"><ele>117.5</ele><time>2026-03-22T12:22:45.238Z</time></trkpt><trkpt lat="45.306335" lon="8.63367"><ele>117.0</ele><time>2026-03-22T12:22:46.238Z</time></trkpt><trkpt lat="45.306295" lon="8.6335233"><ele>117.0</ele><time>2026-03-22T12:22:47.238Z</time></trkpt><trkpt lat="45.30625" lon="8.6333783"><ele>116.99999999999999</ele><time>2026-03-22T12:22:48.238Z</time></trkpt><trkpt lat="45.3062017" lon="8.63325"><ele>116.99999999999999</ele><time>2026-03-22T12:22:49.238Z</time></trkpt><trkpt lat="45.3061367" lon="8.6331183"><ele>117.0</ele><time>2026-03-22T12:22:50.238Z</time></trkpt><trkpt lat="45.306065" lon="8.632985"><ele>117.0</ele><time>2026-03-22T12:22:51.238Z</time></trkpt><trkpt lat="45.3060017" lon="8.63284"><ele>117.0</ele><time>2026-03-22T12:22:52.238Z</time></trkpt><trkpt lat="45.3059383" lon="8.63269"><ele>117.0</ele><time>2026-03-22T12:22:53.238Z</time></trkpt><trkpt lat="45.305865" lon="8.63253"><ele>117.0</ele><time>2026-03-22T12:22:54.238Z</time></trkpt><trkpt lat="45.3057917" lon="8.6323717"><ele>117.0</ele><time>2026-03-22T12:22:55.238Z</time></trkpt><trkpt lat="45.305725" lon="8.6321817"><ele>117.0</ele><time>2026-03-22T12:22:56.238Z</time></trkpt><trkpt lat="45.3056433" lon="8.63201"><ele>117.0</ele><time>2026-03-22T12:22:57.238Z</time></trkpt><trkpt lat="45.3055517" lon="8.6318333"><ele>117.0</ele><time>2026-03-22T12:22:58.238Z</time></trkpt><trkpt lat="45.3054583" lon="8.6316583"><ele>116.5</ele><time>2026-03-22T12:22:59.238Z</time></trkpt><trkpt lat="45.30537" lon="8.6314967"><ele>116.0</ele><time>2026-03-22T12:23:00.238Z</time></trkpt><trkpt lat="45.3052867" lon="8.631335"><ele>115.5</ele><time>2026-03-22T12:23:01.238Z</time></trkpt><trkpt lat="45.305205" lon="8.6311883"><ele>115.0</ele><time>2026-03-22T12:23:02.238Z</time></trkpt><trkpt lat="45.3051233" lon="8.6310317"><ele>115.0</ele><time>2026-03-22T12:23:03.238Z</time></trkpt><trkpt lat="45.3050467" lon="8.6308733"><ele>115.0</ele><time>2026-03-22T12:23:04.238Z</time></trkpt><trkpt lat="45.304975" lon="8.6307167"><ele>115.0</ele><time>2026-03-22T12:23:05.238Z</time></trkpt><trkpt lat="45.3049" lon="8.63057"><ele>115.0</ele><time>2026-03-22T12:23:06.238Z</time></trkpt><trkpt lat="45.3048383" lon="8.6304317"><ele>115.00000000000001</ele><time>2026-03-22T12:23:07.238Z</time></trkpt><trkpt lat="45.304775" lon="8.6303083"><ele>115.0</ele><time>2026-03-22T12:23:08.238Z</time></trkpt><trkpt lat="45.3047233" lon="8.630205"><ele>115.0</ele><time>2026-03-22T12:23:09.238Z</time></trkpt><trkpt lat="45.3046717" lon="8.6300767"><ele>115.0</ele><time>2026-03-22T12:23:11.238Z</time></trkpt><trkpt lat="45.3047083" lon="8.6299883"><ele>115.00000000000001</ele><time>2026-03-22T12:23:14.238Z</time></trkpt><trkpt lat="45.3047783" lon="8.6299617"><ele>115.0</ele><time>2026-03-22T12:23:16.238Z</time></trkpt><trkpt lat="45.304875" lon="8.62995"><ele>115.33333333333334</ele><time>2026-03-22T12:23:18.238Z</time></trkpt><trkpt lat="45.304985" lon="8.6299267"><ele>115.66666666666667</ele><time>2026-03-22T12:23:20.238Z</time></trkpt><trkpt lat="45.3050533" lon="8.6299233"><ele>116.0</ele><time>2026-03-22T12:23:21.238Z</time></trkpt><trkpt lat="45.30513" lon="8.6299133"><ele>116.33333333333334</ele><time>2026-03-22T12:23:22.238Z</time></trkpt><trkpt lat="45.3052133" lon="8.629895"><ele>116.66666666666667</ele><time>2026-03-22T12:23:23.238Z</time></trkpt><trkpt lat="45.3053033" lon="8.6298767"><ele>117.0</ele><time>2026-03-22T12:23:24.238Z</time></trkpt><trkpt lat="45.3054033" lon="8.6298583"><ele>117.0</ele><time>2026-03-22T12:23:25.238Z</time></trkpt><trkpt lat="45.3055067" lon="8.6298433"><ele>116.99999999999999</ele><time>2026-03-22T12:23:26.238Z</time></trkpt><trkpt lat="45.3056083" lon="8.6298317"><ele>116.99999999999999</ele><time>2026-03-22T12:23:27.238Z</time></trkpt><trkpt lat="45.305715" lon="8.62981"><ele>117.0</ele><time>2026-03-22T12:23:28.238Z</time></trkpt><trkpt lat="45.3058233" lon="8.6297867"><ele>117.0</ele><time>2026-03-22T12:23:29.238Z</time></trkpt><trkpt lat="45.3059283" lon="8.62978"><ele>117.19999999999999</ele><time>2026-03-22T12:23:30.238Z</time></trkpt><trkpt lat="45.3060367" lon="8.6297717"><ele>117.39999999999999</ele><time>2026-03-22T12:23:31.238Z</time></trkpt><trkpt lat="45.3061467" lon="8.629755"><ele>117.60000000000001</ele><time>2026-03-22T12:23:32.238Z</time></trkpt><trkpt lat="45.3062517" lon="8.6297333"><ele>117.80000000000001</ele><time>2026-03-22T12:23:33.238Z</time></trkpt><trkpt lat="45.306365" lon="8.6297167"><ele>118.0</ele><time>2026-03-22T12:23:34.238Z</time></trkpt><trkpt lat="45.3064783" lon="8.6297"><ele>118.0</ele><time>2026-03-22T12:23:35.238Z</time></trkpt><trkpt lat="45.3065917" lon="8.6296917"><ele>118.00000000000001</ele><time>2026-03-22T12:23:36.238Z</time></trkpt><trkpt lat="45.3066983" lon="8.629665"><ele>118.00000000000001</ele><time>2026-03-22T12:23:37.238Z</time></trkpt><trkpt lat="45.30681" lon="8.629655"><ele>118.0</ele><time>2026-03-22T12:23:38.238Z</time></trkpt><trkpt lat="45.3069183" lon="8.62963"><ele>118.0</ele><time>2026-03-22T12:23:39.238Z</time></trkpt><trkpt lat="45.3070283" lon="8.6296117"><ele>118.0</ele><time>2026-03-22T12:23:40.238Z</time></trkpt><trkpt lat="45.30714" lon="8.6295867"><ele>118.0</ele><time>2026-03-22T12:23:41.238Z</time></trkpt><trkpt lat="45.307255" lon="8.629555"><ele>118.0</ele><time>2026-03-22T12:23:42.238Z</time></trkpt><trkpt lat="45.3073617" lon="8.6295133"><ele>118.0</ele><time>2026-03-22T12:23:43.238Z</time></trkpt><trkpt lat="45.3074733" lon="8.62947"><ele>118.00000000000001</ele><time>2026-03-22T12:23:44.238Z</time></trkpt><trkpt lat="45.3075783" lon="8.629425"><ele>118.0</ele><time>2026-03-22T12:23:45.238Z</time></trkpt><trkpt lat="45.3076683" lon="8.6293883"><ele>118.0</ele><time>2026-03-22T12:23:46.238Z</time></trkpt><trkpt lat="45.3077467" lon="8.629355"><ele>118.0</ele><time>2026-03-22T12:23:47.238Z</time></trkpt><trkpt lat="45.3078233" lon="8.6293333"><ele>118.00000000000001</ele><time>2026-03-22T12:23:48.238Z</time></trkpt><trkpt lat="45.3078967" lon="8.6293067"><ele>118.0</ele><time>2026-03-22T12:23:49.238Z</time></trkpt><trkpt lat="45.3079633" lon="8.629245"><ele>118.0</ele><time>2026-03-22T12:23:50.238Z</time></trkpt><trkpt lat="45.3080117" lon="8.6291567"><ele>118.00000000000001</ele><time>2026-03-22T12:23:51.238Z</time></trkpt><trkpt lat="45.3080433" lon="8.6290533"><ele>118.00000000000001</ele><time>2026-03-22T12:23:52.238Z</time></trkpt><trkpt lat="45.3080667" lon="8.6289033"><ele>118.0</ele><time>2026-03-22T12:23:53.238Z</time></trkpt><trkpt lat="45.3080817" lon="8.6287617"><ele>118.0</ele><time>2026-03-22T12:23:54.238Z</time></trkpt><trkpt lat="45.3080867" lon="8.6286067"><ele>118.25</ele><time>2026-03-22T12:23:55.238Z</time></trkpt><trkpt lat="45.308095" lon="8.6284367"><ele>118.5</ele><time>2026-03-22T12:23:56.238Z</time></trkpt><trkpt lat="45.3081083" lon="8.6282733"><ele>118.75</ele><time>2026-03-22T12:23:57.238Z</time></trkpt><trkpt lat="45.3081133" lon="8.6281017"><ele>119.0</ele><time>2026-03-22T12:23:58.238Z</time></trkpt><trkpt lat="45.3081233" lon="8.6279133"><ele>120.0</ele><time>2026-03-22T12:23:59.238Z</time></trkpt><trkpt lat="45.3081317" lon="8.627715"><ele>121.0</ele><time>2026-03-22T12:24:00.238Z</time></trkpt><trkpt lat="45.3081417" lon="8.6275417"><ele>122.0</ele><time>2026-03-22T12:24:01.238Z</time></trkpt><trkpt lat="45.3081533" lon="8.6273533"><ele>123.0</ele><time>2026-03-22T12:24:02.238Z</time></trkpt><trkpt lat="45.30817" lon="8.6271483"><ele>123.0</ele><time>2026-03-22T12:24:03.238Z</time></trkpt><trkpt lat="45.30818" lon="8.626965"><ele>123.0</ele><time>2026-03-22T12:24:04.238Z</time></trkpt><trkpt lat="45.3081983" lon="8.6267667"><ele>123.0</ele><time>2026-03-22T12:24:05.238Z</time></trkpt><trkpt lat="45.308215" lon="8.626545"><ele>123.0</ele><time>2026-03-22T12:24:06.238Z</time></trkpt><trkpt lat="45.3082317" lon="8.6263333"><ele>122.25</ele><time>2026-03-22T12:24:07.238Z</time></trkpt><trkpt lat="45.3082483" lon="8.62613"><ele>121.5</ele><time>2026-03-22T12:24:08.238Z</time></trkpt><trkpt lat="45.308265" lon="8.62594"><ele>120.75</ele><time>2026-03-22T12:24:09.238Z</time></trkpt><trkpt lat="45.3082917" lon="8.62578"><ele>120.0</ele><time>2026-03-22T12:24:10.238Z</time></trkpt><trkpt lat="45.3083083" lon="8.6256233"><ele>120.0</ele><time>2026-03-22T12:24:11.238Z</time></trkpt><trkpt lat="45.3083183" lon="8.6254817"><ele>120.0</ele><time>2026-03-22T12:24:12.238Z</time></trkpt><trkpt lat="45.3083233" lon="8.62538"><ele>120.0</ele><time>2026-03-22T12:24:13.238Z</time></trkpt><trkpt lat="45.3083267" lon="8.6252367"><ele>120.0</ele><time>2026-03-22T12:24:15.238Z</time></trkpt><trkpt lat="45.3083917" lon="8.6251933"><ele>120.0</ele><time>2026-03-22T12:24:17.238Z</time></trkpt><trkpt lat="45.3085" lon="8.6251667"><ele>119.83333333333333</ele><time>2026-03-22T12:24:19.238Z</time></trkpt><trkpt lat="45.3085767" lon="8.62505"><ele>119.66666666666666</ele><time>2026-03-22T12:24:21.238Z</time></trkpt><trkpt lat="45.3085967" lon="8.6249567"><ele>119.5</ele><time>2026-03-22T12:24:22.238Z</time></trkpt><trkpt lat="45.3086183" lon="8.6248667"><ele>119.33333333333333</ele><time>2026-03-22T12:24:23.238Z</time></trkpt><trkpt lat="45.3086317" lon="8.6247583"><ele>119.16666666666666</ele><time>2026-03-22T12:24:24.238Z</time></trkpt><trkpt lat="45.3086483" lon="8.6246283"><ele>119.0</ele><time>2026-03-22T12:24:25.238Z</time></trkpt><trkpt lat="45.3086733" lon="8.6245067"><ele>119.2</ele><time>2026-03-22T12:24:26.238Z</time></trkpt><trkpt lat="45.3086967" lon="8.6243767"><ele>119.4</ele><time>2026-03-22T12:24:27.238Z</time></trkpt><trkpt lat="45.308715" lon="8.62424"><ele>119.6</ele><time>2026-03-22T12:24:28.238Z</time></trkpt><trkpt lat="45.3087317" lon="8.6240867"><ele>119.8</ele><time>2026-03-22T12:24:29.238Z</time></trkpt><trkpt lat="45.3087517" lon="8.6239183"><ele>120.0</ele><time>2026-03-22T12:24:30.238Z</time></trkpt><trkpt lat="45.3087717" lon="8.6237467"><ele>119.75</ele><time>2026-03-22T12:24:31.238Z</time></trkpt><trkpt lat="45.30879" lon="8.6235717"><ele>119.5</ele><time>2026-03-22T12:24:32.238Z</time></trkpt><trkpt lat="45.3088133" lon="8.6234033"><ele>119.25</ele><time>2026-03-22T12:24:33.238Z</time></trkpt><trkpt lat="45.30884" lon="8.623245"><ele>119.0</ele><time>2026-03-22T12:24:34.238Z</time></trkpt><trkpt lat="45.3088633" lon="8.6231033"><ele>118.99999999999999</ele><time>2026-03-22T12:24:35.238Z</time></trkpt><trkpt lat="45.30888" lon="8.622985"><ele>119.0</ele><time>2026-03-22T12:24:36.238Z</time></trkpt><trkpt lat="45.3089" lon="8.6228817"><ele>119.0</ele><time>2026-03-22T12:24:37.238Z</time></trkpt><trkpt lat="45.308915" lon="8.62274"><ele>119.0</ele><time>2026-03-22T12:24:39.238Z</time></trkpt><trkpt lat="45.3088533" lon="8.62271"><ele>118.99999999999999</ele><time>2026-03-22T12:24:41.238Z</time></trkpt><trkpt lat="45.30879" lon="8.622695"><ele>119.0</ele><time>2026-03-22T12:24:42.238Z</time></trkpt><trkpt lat="45.3086917" lon="8.6226633"><ele>118.80000000000001</ele><time>2026-03-22T12:24:43.238Z</time></trkpt><trkpt lat="45.308585" lon="8.6226233"><ele>118.60000000000001</ele><time>2026-03-22T12:24:44.238Z</time></trkpt><trkpt lat="45.308475" lon="8.622575"><ele>118.4</ele><time>2026-03-22T12:24:45.238Z</time></trkpt><trkpt lat="45.3083717" lon="8.6225233"><ele>118.2</ele><time>2026-03-22T12:24:46.238Z</time></trkpt><trkpt lat="45.3082783" lon="8.6224933"><ele>118.0</ele><time>2026-03-22T12:24:47.238Z</time></trkpt><trkpt lat="45.3081883" lon="8.62246"><ele>118.0</ele><time>2026-03-22T12:24:48.238Z</time></trkpt><trkpt lat="45.308105" lon="8.6224217"><ele>118.00000000000001</ele><time>2026-03-22T12:24:49.238Z</time></trkpt><trkpt lat="45.30803" lon="8.6223683"><ele>118.00000000000001</ele><time>2026-03-22T12:24:50.238Z</time></trkpt><trkpt lat="45.3079717" lon="8.6223067"><ele>118.0</ele><time>2026-03-22T12:24:51.238Z</time></trkpt><trkpt lat="45.3079283" lon="8.6221283"><ele>118.0</ele><time>2026-03-22T12:24:53.238Z</time></trkpt><trkpt lat="45.3079367" lon="8.6219633"><ele>118.0</ele><time>2026-03-22T12:24:54.238Z</time></trkpt><trkpt lat="45.3079583" lon="8.6217467"><ele>118.0</ele><time>2026-03-22T12:24:55.238Z</time></trkpt><trkpt lat="45.3079583" lon="8.6214883"><ele>118.0</ele><time>2026-03-22T12:24:56.238Z</time></trkpt><trkpt lat="45.3079667" lon="8.62124"><ele>118.33333333333334</ele><time>2026-03-22T12:24:57.238Z</time></trkpt><trkpt lat="45.3079767" lon="8.6209867"><ele>118.66666666666666</ele><time>2026-03-22T12:24:58.238Z</time></trkpt><trkpt lat="45.3079883" lon="8.6207583"><ele>119.0</ele><time>2026-03-22T12:24:59.238Z</time></trkpt><trkpt lat="45.3079967" lon="8.6205433"><ele>119.0</ele><time>2026-03-22T12:25:00.238Z</time></trkpt><trkpt lat="45.3079867" lon="8.62035"><ele>119.0</ele><time>2026-03-22T12:25:01.238Z</time></trkpt><trkpt lat="45.3079683" lon="8.6201733"><ele>119.0</ele><time>2026-03-22T12:25:02.238Z</time></trkpt><trkpt lat="45.30794" lon="8.6199883"><ele>119.0</ele><time>2026-03-22T12:25:03.238Z</time></trkpt><trkpt lat="45.3078883" lon="8.6198083"><ele>119.0</ele><time>2026-03-22T12:25:04.238Z</time></trkpt><trkpt lat="45.3078267" lon="8.6196167"><ele>119.0</ele><time>2026-03-22T12:25:05.238Z</time></trkpt><trkpt lat="45.3077567" lon="8.6194367"><ele>119.0</ele><time>2026-03-22T12:25:06.238Z</time></trkpt><trkpt lat="45.3076867" lon="8.6192683"><ele>119.0</ele><time>2026-03-22T12:25:07.238Z</time></trkpt><trkpt lat="45.30762" lon="8.6190883"><ele>119.0</ele><time>2026-03-22T12:25:08.238Z</time></trkpt><trkpt lat="45.3075617" lon="8.6188983"><ele>119.0</ele><time>2026-03-22T12:25:09.238Z</time></trkpt><trkpt lat="45.3074967" lon="8.618715"><ele>119.0</ele><time>2026-03-22T12:25:10.238Z</time></trkpt><trkpt lat="45.30743" lon="8.6185433"><ele>119.0</ele><time>2026-03-22T12:25:11.238Z</time></trkpt><trkpt lat="45.3073433" lon="8.618375"><ele>119.0</ele><time>2026-03-22T12:25:12.238Z</time></trkpt><trkpt lat="45.3072533" lon="8.6182067"><ele>119.0</ele><time>2026-03-22T12:25:13.238Z</time></trkpt><trkpt lat="45.3071467" lon="8.6180467"><ele>119.0</ele><time>2026-03-22T12:25:14.238Z</time></trkpt><trkpt lat="45.30704" lon="8.6178917"><ele>119.0</ele><time>2026-03-22T12:25:15.238Z</time></trkpt><trkpt lat="45.306935" lon="8.6177367"><ele>119.0</ele><time>2026-03-22T12:25:16.238Z</time></trkpt><trkpt lat="45.3068333" lon="8.6175767"><ele>119.0</ele><time>2026-03-22T12:25:17.238Z</time></trkpt><trkpt lat="45.3067417" lon="8.6174333"><ele>119.0</ele><time>2026-03-22T12:25:18.238Z</time></trkpt><trkpt lat="45.3066533" lon="8.6172983"><ele>119.0</ele><time>2026-03-22T12:25:19.238Z</time></trkpt><trkpt lat="45.3065733" lon="8.61718"><ele>119.0</ele><time>2026-03-22T12:25:20.238Z</time></trkpt><trkpt lat="45.3064933" lon="8.61706"><ele>119.0</ele><time>2026-03-22T12:25:21.238Z</time></trkpt><trkpt lat="45.3064183" lon="8.6169567"><ele>119.0</ele><time>2026-03-22T12:25:22.238Z</time></trkpt><trkpt lat="45.3063417" lon="8.616865"><ele>119.0</ele><time>2026-03-22T12:25:23.238Z</time></trkpt><trkpt lat="45.3062783" lon="8.616785"><ele>118.99999999999999</ele><time>2026-03-22T12:25:24.238Z</time></trkpt><trkpt lat="45.3062133" lon="8.6166917"><ele>119.0</ele><time>2026-03-22T12:25:25.238Z</time></trkpt><trkpt lat="45.30614" lon="8.61662"><ele>119.0</ele><time>2026-03-22T12:25:26.238Z</time></trkpt><trkpt lat="45.3060717" lon="8.616575"><ele>119.0</ele><time>2026-03-22T12:25:27.237Z</time></trkpt><trkpt lat="45.306" lon="8.6165467"><ele>118.99999999999999</ele><time>2026-03-22T12:25:28.237Z</time></trkpt><trkpt lat="45.3059233" lon="8.6165367"><ele>119.0</ele><time>2026-03-22T12:25:29.237Z</time></trkpt><trkpt lat="45.3058483" lon="8.61653"><ele>118.99999999999999</ele><time>2026-03-22T12:25:30.237Z</time></trkpt><trkpt lat="45.30578" lon="8.6165083"><ele>119.0</ele><time>2026-03-22T12:25:31.237Z</time></trkpt><trkpt lat="45.305715" lon="8.6164717"><ele>119.0</ele><time>2026-03-22T12:25:32.237Z</time></trkpt><trkpt lat="45.3056733" lon="8.6163367"><ele>119.0</ele><time>2026-03-22T12:25:34.237Z</time></trkpt><trkpt lat="45.3056833" lon="8.61624"><ele>118.99999999999999</ele><time>2026-03-22T12:25:35.237Z</time></trkpt><trkpt lat="45.3057033" lon="8.6161367"><ele>119.0</ele><time>2026-03-22T12:25:36.237Z</time></trkpt><trkpt lat="45.3057167" lon="8.6160467"><ele>118.83333333333333</ele><time>2026-03-22T12:25:37.237Z</time></trkpt><trkpt lat="45.30567" lon="8.6159217"><ele>118.66666666666666</ele><time>2026-03-22T12:25:39.237Z</time></trkpt><trkpt lat="45.3055667" lon="8.6158867"><ele>118.5</ele><time>2026-03-22T12:25:41.237Z</time></trkpt><trkpt lat="45.3055" lon="8.6158767"><ele>118.33333333333334</ele><time>2026-03-22T12:25:42.237Z</time></trkpt><trkpt lat="45.30543" lon="8.615855"><ele>118.16666666666667</ele><time>2026-03-22T12:25:43.237Z</time></trkpt><trkpt lat="45.3053617" lon="8.6158283"><ele>118.0</ele><time>2026-03-22T12:25:44.237Z</time></trkpt><trkpt lat="45.30529" lon="8.6157967"><ele>118.0</ele><time>2026-03-22T12:25:45.237Z</time></trkpt><trkpt lat="45.30522" lon="8.61577"><ele>118.0</ele><time>2026-03-22T12:25:46.237Z</time></trkpt><trkpt lat="45.3051517" lon="8.6157483"><ele>118.0</ele><time>2026-03-22T12:25:47.237Z</time></trkpt><trkpt lat="45.30509" lon="8.6157217"><ele>118.0</ele><time>2026-03-22T12:25:48.237Z</time></trkpt><trkpt lat="45.3050283" lon="8.6157"><ele>118.0</ele><time>2026-03-22T12:25:49.237Z</time></trkpt><trkpt lat="45.304965" lon="8.6156767"><ele>118.0</ele><time>2026-03-22T12:25:50.237Z</time></trkpt><trkpt lat="45.3049" lon="8.6156533"><ele>118.0</ele><time>2026-03-22T12:25:51.237Z</time></trkpt><trkpt lat="45.3048383" lon="8.6156317"><ele>118.00000000000001</ele><time>2026-03-22T12:25:52.237Z</time></trkpt><trkpt lat="45.3047767" lon="8.6156067"><ele>118.0</ele><time>2026-03-22T12:25:53.237Z</time></trkpt><trkpt lat="45.30471" lon="8.615585"><ele>118.0</ele><time>2026-03-22T12:25:54.237Z</time></trkpt><trkpt lat="45.3046417" lon="8.6155633"><ele>118.0</ele><time>2026-03-22T12:25:55.237Z</time></trkpt><trkpt lat="45.3045617" lon="8.615535"><ele>118.00000000000001</ele><time>2026-03-22T12:25:56.237Z</time></trkpt><trkpt lat="45.3044783" lon="8.6155117"><ele>118.0</ele><time>2026-03-22T12:25:57.237Z</time></trkpt><trkpt lat="45.304395" lon="8.6154867"><ele>118.2</ele><time>2026-03-22T12:25:58.237Z</time></trkpt><trkpt lat="45.3042933" lon="8.6154533"><ele>118.4</ele><time>2026-03-22T12:25:59.237Z</time></trkpt><trkpt lat="45.3041917" lon="8.6154167"><ele>118.60000000000001</ele><time>2026-03-22T12:26:00.237Z</time></trkpt><trkpt lat="45.3040817" lon="8.61539"><ele>118.80000000000001</ele><time>2026-03-22T12:26:01.237Z</time></trkpt><trkpt lat="45.3039583" lon="8.6153583"><ele>119.0</ele><time>2026-03-22T12:26:02.237Z</time></trkpt><trkpt lat="45.3038367" lon="8.615325"><ele>119.25</ele><time>2026-03-22T12:26:03.237Z</time></trkpt><trkpt lat="45.3037" lon="8.615285"><ele>119.5</ele><time>2026-03-22T12:26:04.237Z</time></trkpt><trkpt lat="45.3035533" lon="8.6152417"><ele>119.75</ele><time>2026-03-22T12:26:05.237Z</time></trkpt><trkpt lat="45.3034033" lon="8.6152"><ele>120.0</ele><time>2026-03-22T12:26:06.237Z</time></trkpt><trkpt lat="45.30326" lon="8.61515"><ele>120.0</ele><time>2026-03-22T12:26:07.237Z</time></trkpt><trkpt lat="45.3031067" lon="8.6150983"><ele>120.0</ele><time>2026-03-22T12:26:08.237Z</time></trkpt><trkpt lat="45.30295" lon="8.615055"><ele>120.0</ele><time>2026-03-22T12:26:09.237Z</time></trkpt><trkpt lat="45.3027967" lon="8.6150067"><ele>119.66666666666666</ele><time>2026-03-22T12:26:10.237Z</time></trkpt><trkpt lat="45.3026433" lon="8.6149583"><ele>119.33333333333333</ele><time>2026-03-22T12:26:11.237Z</time></trkpt><trkpt lat="45.3024933" lon="8.6149133"><ele>119.0</ele><time>2026-03-22T12:26:12.237Z</time></trkpt><trkpt lat="45.302345" lon="8.6148717"><ele>119.0</ele><time>2026-03-22T12:26:13.237Z</time></trkpt><trkpt lat="45.30219" lon="8.6148233"><ele>119.0</ele><time>2026-03-22T12:26:14.237Z</time></trkpt><trkpt lat="45.3020367" lon="8.6147883"><ele>119.0</ele><time>2026-03-22T12:26:15.237Z</time></trkpt><trkpt lat="45.3018783" lon="8.61474"><ele>119.0</ele><time>2026-03-22T12:26:16.237Z</time></trkpt><trkpt lat="45.3017217" lon="8.6146967"><ele>119.0</ele><time>2026-03-22T12:26:17.237Z</time></trkpt><trkpt lat="45.3015783" lon="8.6146433"><ele>119.0</ele><time>2026-03-22T12:26:18.237Z</time></trkpt><trkpt lat="45.3014367" lon="8.61459"><ele>118.75</ele><time>2026-03-22T12:26:19.237Z</time></trkpt><trkpt lat="45.3012967" lon="8.614525"><ele>118.5</ele><time>2026-03-22T12:26:20.237Z</time></trkpt><trkpt lat="45.3011583" lon="8.6144433"><ele>118.25</ele><time>2026-03-22T12:26:21.237Z</time></trkpt><trkpt lat="45.30102" lon="8.6143617"><ele>118.0</ele><time>2026-03-22T12:26:22.237Z</time></trkpt><trkpt lat="45.3008717" lon="8.6142833"><ele>118.0</ele><time>2026-03-22T12:26:23.237Z</time></trkpt><trkpt lat="45.3007183" lon="8.6142017"><ele>118.0</ele><time>2026-03-22T12:26:24.237Z</time></trkpt><trkpt lat="45.3005767" lon="8.6141017"><ele>118.0</ele><time>2026-03-22T12:26:25.237Z</time></trkpt><trkpt lat="45.3004283" lon="8.6140067"><ele>117.33333333333334</ele><time>2026-03-22T12:26:26.237Z</time></trkpt><trkpt lat="45.3002883" lon="8.6138817"><ele>116.66666666666666</ele><time>2026-03-22T12:26:27.237Z</time></trkpt><trkpt lat="45.300155" lon="8.613765"><ele>116.0</ele><time>2026-03-22T12:26:28.237Z</time></trkpt><trkpt lat="45.3000167" lon="8.61366"><ele>116.66666666666666</ele><time>2026-03-22T12:26:29.237Z</time></trkpt><trkpt lat="45.2998783" lon="8.6135433"><ele>117.33333333333334</ele><time>2026-03-22T12:26:30.237Z</time></trkpt><trkpt lat="45.29974" lon="8.6134233"><ele>118.0</ele><time>2026-03-22T12:26:31.237Z</time></trkpt><trkpt lat="45.299605" lon="8.6133133"><ele>118.66666666666667</ele><time>2026-03-22T12:26:32.237Z</time></trkpt><trkpt lat="45.2994583" lon="8.6132167"><ele>119.33333333333334</ele><time>2026-03-22T12:26:33.237Z</time></trkpt><trkpt lat="45.2993133" lon="8.6131183"><ele>120.0</ele><time>2026-03-22T12:26:34.237Z</time></trkpt><trkpt lat="45.299175" lon="8.6130267"><ele>120.0</ele><time>2026-03-22T12:26:35.237Z</time></trkpt><trkpt lat="45.2990267" lon="8.6129283"><ele>120.0</ele><time>2026-03-22T12:26:36.237Z</time></trkpt><trkpt lat="45.2988733" lon="8.6128383"><ele>120.0</ele><time>2026-03-22T12:26:37.237Z</time></trkpt><trkpt lat="45.2987283" lon="8.61277"><ele>119.33333333333334</ele><time>2026-03-22T12:26:38.237Z</time></trkpt><trkpt lat="45.2985783" lon="8.6127183"><ele>118.66666666666667</ele><time>2026-03-22T12:26:39.237Z</time></trkpt><trkpt lat="45.29842" lon="8.61267"><ele>118.0</ele><time>2026-03-22T12:26:40.237Z</time></trkpt><trkpt lat="45.2982483" lon="8.6126167"><ele>118.0</ele><time>2026-03-22T12:26:41.237Z</time></trkpt><trkpt lat="45.2980817" lon="8.6125667"><ele>118.0</ele><time>2026-03-22T12:26:42.237Z</time></trkpt><trkpt lat="45.297915" lon="8.61252"><ele>118.0</ele><time>2026-03-22T12:26:43.237Z</time></trkpt><trkpt lat="45.2977467" lon="8.61247"><ele>118.0</ele><time>2026-03-22T12:26:44.237Z</time></trkpt><trkpt lat="45.2975733" lon="8.6124117"><ele>118.0</ele><time>2026-03-22T12:26:45.237Z</time></trkpt><trkpt lat="45.2974133" lon="8.6123417"><ele>118.0</ele><time>2026-03-22T12:26:46.237Z</time></trkpt><trkpt lat="45.297255" lon="8.6122733"><ele>118.0</ele><time>2026-03-22T12:26:47.237Z</time></trkpt><trkpt lat="45.2971" lon="8.61221"><ele>118.0</ele><time>2026-03-22T12:26:48.237Z</time></trkpt><trkpt lat="45.29694" lon="8.6121583"><ele>118.0</ele><time>2026-03-22T12:26:49.237Z</time></trkpt><trkpt lat="45.2967833" lon="8.61209"><ele>118.0</ele><time>2026-03-22T12:26:50.237Z</time></trkpt><trkpt lat="45.29662" lon="8.6120183"><ele>118.0</ele><time>2026-03-22T12:26:51.237Z</time></trkpt><trkpt lat="45.2964517" lon="8.6119467"><ele>118.0</ele><time>2026-03-22T12:26:52.237Z</time></trkpt><trkpt lat="45.2962883" lon="8.6118783"><ele>117.66666666666667</ele><time>2026-03-22T12:26:53.237Z</time></trkpt><trkpt lat="45.29612" lon="8.6118033"><ele>117.33333333333334</ele><time>2026-03-22T12:26:54.237Z</time></trkpt><trkpt lat="45.2959583" lon="8.611725"><ele>117.0</ele><time>2026-03-22T12:26:55.237Z</time></trkpt><trkpt lat="45.2957967" lon="8.6116533"><ele>117.0</ele><time>2026-03-22T12:26:56.237Z</time></trkpt><trkpt lat="45.295655" lon="8.611595"><ele>117.0</ele><time>2026-03-22T12:26:57.237Z</time></trkpt><trkpt lat="45.2955267" lon="8.611535"><ele>117.0</ele><time>2026-03-22T12:26:58.237Z</time></trkpt><trkpt lat="45.2954083" lon="8.6114833"><ele>117.0</ele><time>2026-03-22T12:26:59.237Z</time></trkpt><trkpt lat="45.2952967" lon="8.6114417"><ele>116.83333333333333</ele><time>2026-03-22T12:27:00.237Z</time></trkpt><trkpt lat="45.295195" lon="8.611395"><ele>116.66666666666666</ele><time>2026-03-22T12:27:01.237Z</time></trkpt><trkpt lat="45.2951" lon="8.611355"><ele>116.5</ele><time>2026-03-22T12:27:02.237Z</time></trkpt><trkpt lat="45.2950167" lon="8.6113133"><ele>116.33333333333333</ele><time>2026-03-22T12:27:03.237Z</time></trkpt><trkpt lat="45.2949483" lon="8.6112767"><ele>116.16666666666666</ele><time>2026-03-22T12:27:04.237Z</time></trkpt><trkpt lat="45.2948883" lon="8.611245"><ele>116.0</ele><time>2026-03-22T12:27:05.237Z</time></trkpt><trkpt lat="45.2947733" lon="8.611195"><ele>116.19999999999999</ele><time>2026-03-22T12:27:07.237Z</time></trkpt><trkpt lat="45.294715" lon="8.6111567"><ele>116.39999999999999</ele><time>2026-03-22T12:27:08.237Z</time></trkpt><trkpt lat="45.2946317" lon="8.611005"><ele>116.6</ele><time>2026-03-22T12:27:10.237Z</time></trkpt><trkpt lat="45.2945883" lon="8.6108867"><ele>116.8</ele><time>2026-03-22T12:27:11.237Z</time></trkpt><trkpt lat="45.2945333" lon="8.6107783"><ele>117.0</ele><time>2026-03-22T12:27:12.237Z</time></trkpt><trkpt lat="45.294455" lon="8.6106917"><ele>117.0</ele><time>2026-03-22T12:27:13.237Z</time></trkpt><trkpt lat="45.2943567" lon="8.6106467"><ele>117.0</ele><time>2026-03-22T12:27:14.237Z</time></trkpt><trkpt lat="45.29423" lon="8.610605"><ele>117.0</ele><time>2026-03-22T12:27:15.237Z</time></trkpt><trkpt lat="45.294095" lon="8.61056"><ele>117.0</ele><time>2026-03-22T12:27:16.237Z</time></trkpt><trkpt lat="45.2939667" lon="8.61053"><ele>116.75</ele><time>2026-03-22T12:27:17.237Z</time></trkpt><trkpt lat="45.29384" lon="8.6104967"><ele>116.5</ele><time>2026-03-22T12:27:18.237Z</time></trkpt><trkpt lat="45.29371" lon="8.6104617"><ele>116.25</ele><time>2026-03-22T12:27:19.237Z</time></trkpt><trkpt lat="45.2935767" lon="8.61043"><ele>116.0</ele><time>2026-03-22T12:27:20.237Z</time></trkpt><trkpt lat="45.2934517" lon="8.6103917"><ele>116.0</ele><time>2026-03-22T12:27:21.237Z</time></trkpt><trkpt lat="45.2933233" lon="8.6103383"><ele>116.0</ele><time>2026-03-22T12:27:22.237Z</time></trkpt><trkpt lat="45.2931933" lon="8.6102867"><ele>116.0</ele><time>2026-03-22T12:27:23.237Z</time></trkpt><trkpt lat="45.2930733" lon="8.6102133"><ele>116.0</ele><time>2026-03-22T12:27:24.237Z</time></trkpt><trkpt lat="45.2929667" lon="8.610115"><ele>116.75</ele><time>2026-03-22T12:27:25.237Z</time></trkpt><trkpt lat="45.2928883" lon="8.6099933"><ele>117.5</ele><time>2026-03-22T12:27:26.237Z</time></trkpt><trkpt lat="45.2928367" lon="8.6098583"><ele>118.25</ele><time>2026-03-22T12:27:27.237Z</time></trkpt><trkpt lat="45.292805" lon="8.6096783"><ele>119.0</ele><time>2026-03-22T12:27:28.237Z</time></trkpt><trkpt lat="45.292775" lon="8.6094933"><ele>118.80000000000001</ele><time>2026-03-22T12:27:29.237Z</time></trkpt><trkpt lat="45.2927417" lon="8.6093217"><ele>118.60000000000001</ele><time>2026-03-22T12:27:30.237Z</time></trkpt><trkpt lat="45.29271" lon="8.6091617"><ele>118.4</ele><time>2026-03-22T12:27:31.237Z</time></trkpt><trkpt lat="45.2926833" lon="8.6090183"><ele>118.2</ele><time>2026-03-22T12:27:32.237Z</time></trkpt><trkpt lat="45.29265" lon="8.6088817"><ele>118.0</ele><time>2026-03-22T12:27:33.237Z</time></trkpt><trkpt lat="45.2925817" lon="8.60875"><ele>117.80000000000001</ele><time>2026-03-22T12:27:34.237Z</time></trkpt><trkpt lat="45.2925217" lon="8.6086383"><ele>117.60000000000001</ele><time>2026-03-22T12:27:35.237Z</time></trkpt><trkpt lat="45.2924483" lon="8.6085417"><ele>117.39999999999999</ele><time>2026-03-22T12:27:36.237Z</time></trkpt><trkpt lat="45.29236" lon="8.608465"><ele>117.19999999999999</ele><time>2026-03-22T12:27:37.237Z</time></trkpt><trkpt lat="45.2922683" lon="8.6083767"><ele>117.0</ele><time>2026-03-22T12:27:38.237Z</time></trkpt><trkpt lat="45.2921783" lon="8.6082833"><ele>117.0</ele><time>2026-03-22T12:27:39.237Z</time></trkpt><trkpt lat="45.29209" lon="8.6081767"><ele>117.0</ele><time>2026-03-22T12:27:40.237Z</time></trkpt><trkpt lat="45.292015" lon="8.60805"><ele>117.0</ele><time>2026-03-22T12:27:41.237Z</time></trkpt><trkpt lat="45.2919483" lon="8.6079183"><ele>117.0</ele><time>2026-03-22T12:27:42.237Z</time></trkpt><trkpt lat="45.2918917" lon="8.6077883"><ele>117.19999999999999</ele><time>2026-03-22T12:27:43.237Z</time></trkpt><trkpt lat="45.2918533" lon="8.6076367"><ele>117.39999999999999</ele><time>2026-03-22T12:27:44.237Z</time></trkpt><trkpt lat="45.2918433" lon="8.6074683"><ele>117.60000000000001</ele><time>2026-03-22T12:27:45.237Z</time></trkpt><trkpt lat="45.2918483" lon="8.6073233"><ele>117.80000000000001</ele><time>2026-03-22T12:27:46.237Z</time></trkpt><trkpt lat="45.2918517" lon="8.60719"><ele>118.0</ele><time>2026-03-22T12:27:47.237Z</time></trkpt><trkpt lat="45.2918467" lon="8.60707"><ele>117.80000000000001</ele><time>2026-03-22T12:27:48.237Z</time></trkpt><trkpt lat="45.29182" lon="8.6069533"><ele>117.60000000000001</ele><time>2026-03-22T12:27:49.237Z</time></trkpt><trkpt lat="45.2917833" lon="8.606815"><ele>117.39999999999999</ele><time>2026-03-22T12:27:51.237Z</time></trkpt><trkpt lat="45.291675" lon="8.6067633"><ele>117.19999999999999</ele><time>2026-03-22T12:27:53.237Z</time></trkpt><trkpt lat="45.2915933" lon="8.60671"><ele>117.0</ele><time>2026-03-22T12:27:54.237Z</time></trkpt><trkpt lat="45.29151" lon="8.6066567"><ele>117.0</ele><time>2026-03-22T12:27:55.237Z</time></trkpt><trkpt lat="45.291425" lon="8.6066167"><ele>116.99999999999999</ele><time>2026-03-22T12:27:56.237Z</time></trkpt><trkpt lat="45.2913333" lon="8.6065683"><ele>116.99999999999999</ele><time>2026-03-22T12:27:57.237Z</time></trkpt><trkpt lat="45.2912383" lon="8.6065117"><ele>117.0</ele><time>2026-03-22T12:27:58.237Z</time></trkpt><trkpt lat="45.291145" lon="8.6064533"><ele>117.0</ele><time>2026-03-22T12:27:59.237Z</time></trkpt><trkpt lat="45.2910467" lon="8.6063717"><ele>117.0</ele><time>2026-03-22T12:28:00.237Z</time></trkpt><trkpt lat="45.2909567" lon="8.606265"><ele>117.0</ele><time>2026-03-22T12:28:01.237Z</time></trkpt><trkpt lat="45.290885" lon="8.6061283"><ele>117.0</ele><time>2026-03-22T12:28:02.237Z</time></trkpt><trkpt lat="45.2908517" lon="8.6059633"><ele>117.0</ele><time>2026-03-22T12:28:03.237Z</time></trkpt><trkpt lat="45.2908233" lon="8.605795"><ele>117.0</ele><time>2026-03-22T12:28:04.237Z</time></trkpt><trkpt lat="45.2907983" lon="8.605625"><ele>117.0</ele><time>2026-03-22T12:28:05.237Z</time></trkpt><trkpt lat="45.2907667" lon="8.6054717"><ele>117.0</ele><time>2026-03-22T12:28:06.237Z</time></trkpt><trkpt lat="45.2907167" lon="8.6053217"><ele>117.0</ele><time>2026-03-22T12:28:07.237Z</time></trkpt><trkpt lat="45.29067" lon="8.6051733"><ele>117.25</ele><time>2026-03-22T12:28:08.237Z</time></trkpt><trkpt lat="45.290605" lon="8.6049917"><ele>117.5</ele><time>2026-03-22T12:28:09.237Z</time></trkpt><trkpt lat="45.29052" lon="8.6048517"><ele>117.75</ele><time>2026-03-22T12:28:10.237Z</time></trkpt><trkpt lat="45.290435" lon="8.6047367"><ele>118.0</ele><time>2026-03-22T12:28:11.237Z</time></trkpt><trkpt lat="45.2903317" lon="8.60463"><ele>118.0</ele><time>2026-03-22T12:28:12.237Z</time></trkpt><trkpt lat="45.2902233" lon="8.6045483"><ele>118.00000000000001</ele><time>2026-03-22T12:28:13.237Z</time></trkpt><trkpt lat="45.2901267" lon="8.6044617"><ele>118.00000000000001</ele><time>2026-03-22T12:28:14.237Z</time></trkpt><trkpt lat="45.2900417" lon="8.6043683"><ele>118.0</ele><time>2026-03-22T12:28:15.237Z</time></trkpt><trkpt lat="45.2899667" lon="8.60428"><ele>118.0</ele><time>2026-03-22T12:28:16.237Z</time></trkpt><trkpt lat="45.2899" lon="8.6042083"><ele>118.16666666666667</ele><time>2026-03-22T12:28:17.237Z</time></trkpt><trkpt lat="45.2898417" lon="8.60413"><ele>118.33333333333334</ele><time>2026-03-22T12:28:18.237Z</time></trkpt><trkpt lat="45.2897983" lon="8.604065"><ele>118.5</ele><time>2026-03-22T12:28:19.237Z</time></trkpt><trkpt lat="45.2897717" lon="8.6039817"><ele>118.66666666666666</ele><time>2026-03-22T12:28:21.237Z</time></trkpt><trkpt lat="45.2897583" lon="8.6038683"><ele>118.83333333333333</ele><time>2026-03-22T12:28:24.237Z</time></trkpt><trkpt lat="45.2897467" lon="8.6037"><ele>119.0</ele><time>2026-03-22T12:28:26.237Z</time></trkpt><trkpt lat="45.289745" lon="8.6035833"><ele>119.0</ele><time>2026-03-22T12:28:27.237Z</time></trkpt><trkpt lat="45.28974" lon="8.6034633"><ele>119.0</ele><time>2026-03-22T12:28:28.237Z</time></trkpt><trkpt lat="45.2897517" lon="8.6033117"><ele>119.0</ele><time>2026-03-22T12:28:29.237Z</time></trkpt><trkpt lat="45.2897567" lon="8.60315"><ele>119.0</ele><time>2026-03-22T12:28:30.237Z</time></trkpt><trkpt lat="45.2897467" lon="8.6029833"><ele>119.0</ele><time>2026-03-22T12:28:31.237Z</time></trkpt><trkpt lat="45.2897417" lon="8.602815"><ele>118.75</ele><time>2026-03-22T12:28:32.237Z</time></trkpt><trkpt lat="45.2897333" lon="8.602635"><ele>118.5</ele><time>2026-03-22T12:28:33.237Z</time></trkpt><trkpt lat="45.2897383" lon="8.6024483"><ele>118.25</ele><time>2026-03-22T12:28:34.237Z</time></trkpt><trkpt lat="45.2897417" lon="8.6022817"><ele>118.0</ele><time>2026-03-22T12:28:35.237Z</time></trkpt><trkpt lat="45.289735" lon="8.6021083"><ele>118.25</ele><time>2026-03-22T12:28:36.237Z</time></trkpt><trkpt lat="45.28974" lon="8.6019217"><ele>118.5</ele><time>2026-03-22T12:28:37.237Z</time></trkpt><trkpt lat="45.28974" lon="8.60174"><ele>118.75</ele><time>2026-03-22T12:28:38.237Z</time></trkpt><trkpt lat="45.2897417" lon="8.6015433"><ele>119.0</ele><time>2026-03-22T12:28:39.237Z</time></trkpt><trkpt lat="45.28974" lon="8.6013467"><ele>119.0</ele><time>2026-03-22T12:28:40.237Z</time></trkpt><trkpt lat="45.2897367" lon="8.6011467"><ele>119.0</ele><time>2026-03-22T12:28:41.237Z</time></trkpt><trkpt lat="45.2897183" lon="8.6009333"><ele>119.0</ele><time>2026-03-22T12:28:42.237Z</time></trkpt><trkpt lat="45.2897067" lon="8.60072"><ele>119.0</ele><time>2026-03-22T12:28:43.237Z</time></trkpt><trkpt lat="45.2897033" lon="8.600525"><ele>119.0</ele><time>2026-03-22T12:28:44.237Z</time></trkpt><trkpt lat="45.2896983" lon="8.600355"><ele>119.0</ele><time>2026-03-22T12:28:45.237Z</time></trkpt><trkpt lat="45.28969" lon="8.600195"><ele>119.0</ele><time>2026-03-22T12:28:46.237Z</time></trkpt><trkpt lat="45.28967" lon="8.600025"><ele>119.0</ele><time>2026-03-22T12:28:47.237Z</time></trkpt><trkpt lat="45.2896367" lon="8.599845"><ele>119.25</ele><time>2026-03-22T12:28:48.237Z</time></trkpt><trkpt lat="45.2895867" lon="8.599665"><ele>119.5</ele><time>2026-03-22T12:28:49.237Z</time></trkpt><trkpt lat="45.2895533" lon="8.599485"><ele>119.75</ele><time>2026-03-22T12:28:50.237Z</time></trkpt><trkpt lat="45.2895267" lon="8.599295"><ele>120.0</ele><time>2026-03-22T12:28:51.237Z</time></trkpt><trkpt lat="45.289495" lon="8.5991033"><ele>120.25</ele><time>2026-03-22T12:28:52.236Z</time></trkpt><trkpt lat="45.28946" lon="8.5989117"><ele>120.5</ele><time>2026-03-22T12:28:53.237Z</time></trkpt><trkpt lat="45.2894217" lon="8.5987217"><ele>120.75</ele><time>2026-03-22T12:28:54.237Z</time></trkpt><trkpt lat="45.2893833" lon="8.59852"><ele>121.0</ele><time>2026-03-22T12:28:55.237Z</time></trkpt><trkpt lat="45.2893367" lon="8.59832"><ele>121.0</ele><time>2026-03-22T12:28:56.237Z</time></trkpt><trkpt lat="45.2892983" lon="8.598125"><ele>121.0</ele><time>2026-03-22T12:28:57.237Z</time></trkpt><trkpt lat="45.2892633" lon="8.597925"><ele>121.0</ele><time>2026-03-22T12:28:58.237Z</time></trkpt><trkpt lat="45.2892267" lon="8.5977317"><ele>121.0</ele><time>2026-03-22T12:28:59.237Z</time></trkpt><trkpt lat="45.2891883" lon="8.5975333"><ele>121.0</ele><time>2026-03-22T12:29:00.237Z</time></trkpt><trkpt lat="45.2891533" lon="8.5973217"><ele>121.0</ele><time>2026-03-22T12:29:01.237Z</time></trkpt><trkpt lat="45.2891133" lon="8.5971417"><ele>121.0</ele><time>2026-03-22T12:29:02.237Z</time></trkpt><trkpt lat="45.2890883" lon="8.5969783"><ele>121.0</ele><time>2026-03-22T12:29:03.237Z</time></trkpt><trkpt lat="45.2890617" lon="8.59684"><ele>120.83333333333334</ele><time>2026-03-22T12:29:04.237Z</time></trkpt><trkpt lat="45.289045" lon="8.596705"><ele>120.66666666666667</ele><time>2026-03-22T12:29:05.237Z</time></trkpt><trkpt lat="45.2890283" lon="8.5965633"><ele>120.5</ele><time>2026-03-22T12:29:06.237Z</time></trkpt><trkpt lat="45.2890233" lon="8.5964467"><ele>120.33333333333334</ele><time>2026-03-22T12:29:07.237Z</time></trkpt><trkpt lat="45.28901" lon="8.5963317"><ele>120.16666666666667</ele><time>2026-03-22T12:29:08.237Z</time></trkpt><trkpt lat="45.2890167" lon="8.59623"><ele>120.0</ele><time>2026-03-22T12:29:09.237Z</time></trkpt><trkpt lat="45.2890467" lon="8.5961067"><ele>120.0</ele><time>2026-03-22T12:29:11.237Z</time></trkpt><trkpt lat="45.2891283" lon="8.59605"><ele>120.0</ele><time>2026-03-22T12:29:13.237Z</time></trkpt><trkpt lat="45.2892283" lon="8.596075"><ele>120.0</ele><time>2026-03-22T12:29:14.236Z</time></trkpt><trkpt lat="45.2893417" lon="8.5961083"><ele>120.0</ele><time>2026-03-22T12:29:15.236Z</time></trkpt><trkpt lat="45.28947" lon="8.5961667"><ele>120.0</ele><time>2026-03-22T12:29:16.236Z</time></trkpt><trkpt lat="45.2896" lon="8.5962233"><ele>120.0</ele><time>2026-03-22T12:29:17.236Z</time></trkpt><trkpt lat="45.28973" lon="8.596275"><ele>120.0</ele><time>2026-03-22T12:29:18.236Z</time></trkpt><trkpt lat="45.2898533" lon="8.5963167"><ele>120.0</ele><time>2026-03-22T12:29:19.236Z</time></trkpt><trkpt lat="45.28998" lon="8.5963567"><ele>120.0</ele><time>2026-03-22T12:29:20.236Z</time></trkpt><trkpt lat="45.290105" lon="8.5963883"><ele>120.0</ele><time>2026-03-22T12:29:21.236Z</time></trkpt><trkpt lat="45.2902233" lon="8.5964283"><ele>120.0</ele><time>2026-03-22T12:29:22.236Z</time></trkpt><trkpt lat="45.29034" lon="8.5964767"><ele>120.0</ele><time>2026-03-22T12:29:23.236Z</time></trkpt><trkpt lat="45.2904583" lon="8.59651"><ele>120.0</ele><time>2026-03-22T12:29:24.236Z</time></trkpt><trkpt lat="45.2905667" lon="8.59652"><ele>120.0</ele><time>2026-03-22T12:29:25.236Z</time></trkpt><trkpt lat="45.2906683" lon="8.5965267"><ele>120.0</ele><time>2026-03-22T12:29:26.236Z</time></trkpt><trkpt lat="45.29076" lon="8.5965433"><ele>120.0</ele><time>2026-03-22T12:29:27.236Z</time></trkpt><trkpt lat="45.29083" lon="8.5965717"><ele>120.0</ele><time>2026-03-22T12:29:28.236Z</time></trkpt><trkpt lat="45.2908867" lon="8.5966317"><ele>120.0</ele><time>2026-03-22T12:29:29.236Z</time></trkpt><trkpt lat="45.29093" lon="8.596705"><ele>120.0</ele><time>2026-03-22T12:29:30.236Z</time></trkpt><trkpt lat="45.2910233" lon="8.5968067"><ele>120.0</ele><time>2026-03-22T12:29:32.236Z</time></trkpt><trkpt lat="45.2910883" lon="8.596815"><ele>120.0</ele><time>2026-03-22T12:29:33.236Z</time></trkpt><trkpt lat="45.2911567" lon="8.596815"><ele>120.0</ele><time>2026-03-22T12:29:34.236Z</time></trkpt><trkpt lat="45.2912383" lon="8.5968183"><ele>120.0</ele><time>2026-03-22T12:29:35.236Z</time></trkpt><trkpt lat="45.2913183" lon="8.5968183"><ele>120.0</ele><time>2026-03-22T12:29:36.236Z</time></trkpt><trkpt lat="45.2913983" lon="8.5968233"><ele>120.0</ele><time>2026-03-22T12:29:37.236Z</time></trkpt><trkpt lat="45.291475" lon="8.5968217"><ele>120.5</ele><time>2026-03-22T12:29:38.236Z</time></trkpt><trkpt lat="45.291555" lon="8.5968133"><ele>121.0</ele><time>2026-03-22T12:29:39.236Z</time></trkpt><trkpt lat="45.2916333" lon="8.5968033"><ele>121.5</ele><time>2026-03-22T12:29:40.236Z</time></trkpt><trkpt lat="45.2917083" lon="8.5967983"><ele>122.0</ele><time>2026-03-22T12:29:41.236Z</time></trkpt><trkpt lat="45.291775" lon="8.59679"><ele>122.5</ele><time>2026-03-22T12:29:42.236Z</time></trkpt><trkpt lat="45.2918367" lon="8.59676"><ele>123.0</ele><time>2026-03-22T12:29:43.236Z</time></trkpt><trkpt lat="45.2919483" lon="8.5964917"><ele>123.0</ele><time>2026-03-22T12:29:46.236Z</time></trkpt><trkpt lat="45.2919717" lon="8.5963483"><ele>123.0</ele><time>2026-03-22T12:29:47.236Z</time></trkpt><trkpt lat="45.291995" lon="8.5961917"><ele>123.0</ele><time>2026-03-22T12:29:48.236Z</time></trkpt><trkpt lat="45.2920183" lon="8.596025"><ele>123.0</ele><time>2026-03-22T12:29:49.236Z</time></trkpt><trkpt lat="45.2920533" lon="8.5958583"><ele>123.25</ele><time>2026-03-22T12:29:50.236Z</time></trkpt><trkpt lat="45.292095" lon="8.595695"><ele>123.5</ele><time>2026-03-22T12:29:51.236Z</time></trkpt><trkpt lat="45.2921317" lon="8.5955283"><ele>123.75</ele><time>2026-03-22T12:29:52.236Z</time></trkpt><trkpt lat="45.29217" lon="8.5953633"><ele>124.0</ele><time>2026-03-22T12:29:53.236Z</time></trkpt><trkpt lat="45.292205" lon="8.5952117"><ele>124.4</ele><time>2026-03-22T12:29:54.236Z</time></trkpt><trkpt lat="45.2922417" lon="8.5950683"><ele>124.80000000000001</ele><time>2026-03-22T12:29:55.236Z</time></trkpt><trkpt lat="45.2922767" lon="8.5949283"><ele>125.19999999999999</ele><time>2026-03-22T12:29:56.236Z</time></trkpt><trkpt lat="45.292315" lon="8.5948117"><ele>125.6</ele><time>2026-03-22T12:29:57.236Z</time></trkpt><trkpt lat="45.2923333" lon="8.5946933"><ele>126.0</ele><time>2026-03-22T12:29:58.236Z</time></trkpt><trkpt lat="45.2923667" lon="8.5946033"><ele>125.33333333333333</ele><time>2026-03-22T12:29:59.236Z</time></trkpt><trkpt lat="45.292395" lon="8.5945033"><ele>124.66666666666666</ele><time>2026-03-22T12:30:00.236Z</time></trkpt><trkpt lat="45.2924067" lon="8.5944"><ele>124.0</ele><time>2026-03-22T12:30:01.236Z</time></trkpt><trkpt lat="45.2924133" lon="8.5942833"><ele>123.33333333333333</ele><time>2026-03-22T12:30:02.236Z</time></trkpt><trkpt lat="45.29242" lon="8.5941467"><ele>122.66666666666666</ele><time>2026-03-22T12:30:03.236Z</time></trkpt><trkpt lat="45.2924433" lon="8.5939967"><ele>122.0</ele><time>2026-03-22T12:30:04.236Z</time></trkpt><trkpt lat="45.29247" lon="8.5938417"><ele>122.0</ele><time>2026-03-22T12:30:05.236Z</time></trkpt><trkpt lat="45.2925" lon="8.5936833"><ele>122.0</ele><time>2026-03-22T12:30:06.236Z</time></trkpt><trkpt lat="45.2925233" lon="8.5935083"><ele>122.0</ele><time>2026-03-22T12:30:07.236Z</time></trkpt><trkpt lat="45.2925183" lon="8.59335"><ele>122.0</ele><time>2026-03-22T12:30:08.236Z</time></trkpt><trkpt lat="45.292515" lon="8.593205"><ele>121.8</ele><time>2026-03-22T12:30:09.236Z</time></trkpt><trkpt lat="45.292495" lon="8.5930633"><ele>121.6</ele><time>2026-03-22T12:30:10.236Z</time></trkpt><trkpt lat="45.2924967" lon="8.592915"><ele>121.39999999999999</ele><time>2026-03-22T12:30:11.236Z</time></trkpt><trkpt lat="45.2924767" lon="8.5927683"><ele>121.19999999999999</ele><time>2026-03-22T12:30:12.236Z</time></trkpt><trkpt lat="45.292465" lon="8.592605"><ele>121.0</ele><time>2026-03-22T12:30:13.236Z</time></trkpt><trkpt lat="45.2924617" lon="8.5924333"><ele>120.75</ele><time>2026-03-22T12:30:14.236Z</time></trkpt><trkpt lat="45.292455" lon="8.5922667"><ele>120.5</ele><time>2026-03-22T12:30:15.236Z</time></trkpt><trkpt lat="45.2924533" lon="8.5921067"><ele>120.25</ele><time>2026-03-22T12:30:16.236Z</time></trkpt><trkpt lat="45.2924767" lon="8.59193"><ele>120.0</ele><time>2026-03-22T12:30:17.236Z</time></trkpt><trkpt lat="45.29248" lon="8.5917433"><ele>120.0</ele><time>2026-03-22T12:30:18.236Z</time></trkpt><trkpt lat="45.2924817" lon="8.59155"><ele>120.0</ele><time>2026-03-22T12:30:19.236Z</time></trkpt><trkpt lat="45.2924817" lon="8.5913517"><ele>120.0</ele><time>2026-03-22T12:30:20.236Z</time></trkpt><trkpt lat="45.2924817" lon="8.59115"><ele>120.0</ele><time>2026-03-22T12:30:21.236Z</time></trkpt><trkpt lat="45.2924867" lon="8.5909483"><ele>120.0</ele><time>2026-03-22T12:30:22.236Z</time></trkpt><trkpt lat="45.2925017" lon="8.5907617"><ele>120.0</ele><time>2026-03-22T12:30:23.236Z</time></trkpt><trkpt lat="45.292525" lon="8.59057"><ele>120.0</ele><time>2026-03-22T12:30:24.236Z</time></trkpt><trkpt lat="45.2925317" lon="8.5903833"><ele>120.0</ele><time>2026-03-22T12:30:25.236Z</time></trkpt><trkpt lat="45.29254" lon="8.590195"><ele>119.75</ele><time>2026-03-22T12:30:26.236Z</time></trkpt><trkpt lat="45.2925567" lon="8.590005"><ele>119.5</ele><time>2026-03-22T12:30:27.236Z</time></trkpt><trkpt lat="45.2925683" lon="8.58981"><ele>119.25</ele><time>2026-03-22T12:30:28.236Z</time></trkpt><trkpt lat="45.29258" lon="8.5896183"><ele>119.0</ele><time>2026-03-22T12:30:29.236Z</time></trkpt><trkpt lat="45.2925833" lon="8.5894367"><ele>119.0</ele><time>2026-03-22T12:30:30.236Z</time></trkpt><trkpt lat="45.292585" lon="8.5892417"><ele>119.0</ele><time>2026-03-22T12:30:31.236Z</time></trkpt><trkpt lat="45.2925933" lon="8.5890567"><ele>119.0</ele><time>2026-03-22T12:30:32.236Z</time></trkpt><trkpt lat="45.2925933" lon="8.5888833"><ele>119.0</ele><time>2026-03-22T12:30:33.236Z</time></trkpt><trkpt lat="45.2925933" lon="8.5887183"><ele>119.2</ele><time>2026-03-22T12:30:34.236Z</time></trkpt><trkpt lat="45.2925883" lon="8.5885617"><ele>119.4</ele><time>2026-03-22T12:30:35.236Z</time></trkpt><trkpt lat="45.2925867" lon="8.5884367"><ele>119.6</ele><time>2026-03-22T12:30:36.236Z</time></trkpt><trkpt lat="45.2925833" lon="8.58834"><ele>119.8</ele><time>2026-03-22T12:30:37.236Z</time></trkpt><trkpt lat="45.29255" lon="8.5882333"><ele>120.0</ele><time>2026-03-22T12:30:39.236Z</time></trkpt><trkpt lat="45.2926333" lon="8.5881517"><ele>120.0</ele><time>2026-03-22T12:30:43.236Z</time></trkpt><trkpt lat="45.292755" lon="8.5880783"><ele>120.0</ele><time>2026-03-22T12:30:45.236Z</time></trkpt><trkpt lat="45.2928467" lon="8.58804"><ele>120.0</ele><time>2026-03-22T12:30:46.236Z</time></trkpt><trkpt lat="45.2929683" lon="8.588"><ele>120.0</ele><time>2026-03-22T12:30:47.236Z</time></trkpt><trkpt lat="45.2930933" lon="8.5879483"><ele>120.0</ele><time>2026-03-22T12:30:48.236Z</time></trkpt><trkpt lat="45.2932117" lon="8.5879033"><ele>120.0</ele><time>2026-03-22T12:30:49.236Z</time></trkpt><trkpt lat="45.2933317" lon="8.58785"><ele>120.0</ele><time>2026-03-22T12:30:50.236Z</time></trkpt><trkpt lat="45.2934567" lon="8.58779"><ele>120.0</ele><time>2026-03-22T12:30:51.236Z</time></trkpt><trkpt lat="45.2935883" lon="8.5877333"><ele>120.0</ele><time>2026-03-22T12:30:52.236Z</time></trkpt><trkpt lat="45.2937217" lon="8.5876733"><ele>120.0</ele><time>2026-03-22T12:30:53.236Z</time></trkpt><trkpt lat="45.2938567" lon="8.5876133"><ele>120.0</ele><time>2026-03-22T12:30:54.236Z</time></trkpt><trkpt lat="45.29399" lon="8.5875483"><ele>120.0</ele><time>2026-03-22T12:30:55.236Z</time></trkpt><trkpt lat="45.2941233" lon="8.5874867"><ele>120.0</ele><time>2026-03-22T12:30:56.236Z</time></trkpt><trkpt lat="45.2942567" lon="8.5874133"><ele>120.0</ele><time>2026-03-22T12:30:57.236Z</time></trkpt><trkpt lat="45.29438" lon="8.5873433"><ele>120.0</ele><time>2026-03-22T12:30:58.236Z</time></trkpt><trkpt lat="45.2945067" lon="8.587265"><ele>120.0</ele><time>2026-03-22T12:30:59.236Z</time></trkpt><trkpt lat="45.2946367" lon="8.5871917"><ele>120.25</ele><time>2026-03-22T12:31:00.236Z</time></trkpt><trkpt lat="45.2947617" lon="8.58712"><ele>120.5</ele><time>2026-03-22T12:31:01.236Z</time></trkpt><trkpt lat="45.2948933" lon="8.5870533"><ele>120.75</ele><time>2026-03-22T12:31:02.236Z</time></trkpt><trkpt lat="45.2950217" lon="8.5869917"><ele>121.0</ele><time>2026-03-22T12:31:03.236Z</time></trkpt><trkpt lat="45.2951483" lon="8.5869267"><ele>120.5</ele><time>2026-03-22T12:31:04.236Z</time></trkpt><trkpt lat="45.2952833" lon="8.5868683"><ele>120.0</ele><time>2026-03-22T12:31:05.236Z</time></trkpt><trkpt lat="45.295395" lon="8.5868117"><ele>119.5</ele><time>2026-03-22T12:31:06.236Z</time></trkpt><trkpt lat="45.2955017" lon="8.586765"><ele>119.0</ele><time>2026-03-22T12:31:07.236Z</time></trkpt><trkpt lat="45.295585" lon="8.58673"><ele>119.4</ele><time>2026-03-22T12:31:08.236Z</time></trkpt><trkpt lat="45.29565" lon="8.5867033"><ele>119.80000000000001</ele><time>2026-03-22T12:31:09.236Z</time></trkpt><trkpt lat="45.295725" lon="8.586635"><ele>120.19999999999999</ele><time>2026-03-22T12:31:11.236Z</time></trkpt><trkpt lat="45.295745" lon="8.5864633"><ele>120.6</ele><time>2026-03-22T12:31:13.236Z</time></trkpt><trkpt lat="45.2957533" lon="8.586345"><ele>121.0</ele><time>2026-03-22T12:31:14.236Z</time></trkpt><trkpt lat="45.2957617" lon="8.5862217"><ele>120.6</ele><time>2026-03-22T12:31:15.236Z</time></trkpt><trkpt lat="45.2957767" lon="8.5861017"><ele>120.19999999999999</ele><time>2026-03-22T12:31:16.236Z</time></trkpt><trkpt lat="45.29581" lon="8.5859967"><ele>119.80000000000001</ele><time>2026-03-22T12:31:17.236Z</time></trkpt><trkpt lat="45.295855" lon="8.5858983"><ele>119.4</ele><time>2026-03-22T12:31:18.236Z</time></trkpt><trkpt lat="45.29594" lon="8.585785"><ele>119.0</ele><time>2026-03-22T12:31:19.236Z</time></trkpt><trkpt lat="45.2960333" lon="8.5856933"><ele>119.0</ele><time>2026-03-22T12:31:20.236Z</time></trkpt><trkpt lat="45.2961233" lon="8.5855917"><ele>119.0</ele><time>2026-03-22T12:31:21.236Z</time></trkpt><trkpt lat="45.2962133" lon="8.58547"><ele>119.0</ele><time>2026-03-22T12:31:22.236Z</time></trkpt><trkpt lat="45.296295" lon="8.5853383"><ele>119.0</ele><time>2026-03-22T12:31:23.236Z</time></trkpt><trkpt lat="45.2963783" lon="8.5851783"><ele>118.75</ele><time>2026-03-22T12:31:24.236Z</time></trkpt><trkpt lat="45.2964617" lon="8.5850167"><ele>118.5</ele><time>2026-03-22T12:31:25.236Z</time></trkpt><trkpt lat="45.2965333" lon="8.5848533"><ele>118.25</ele><time>2026-03-22T12:31:26.236Z</time></trkpt><trkpt lat="45.2966067" lon="8.5846933"><ele>118.0</ele><time>2026-03-22T12:31:27.236Z</time></trkpt><trkpt lat="45.2966967" lon="8.5845283"><ele>118.0</ele><time>2026-03-22T12:31:28.236Z</time></trkpt><trkpt lat="45.296775" lon="8.58438"><ele>118.0</ele><time>2026-03-22T12:31:29.236Z</time></trkpt><trkpt lat="45.2968683" lon="8.5842017"><ele>118.0</ele><time>2026-03-22T12:31:30.236Z</time></trkpt><trkpt lat="45.2969667" lon="8.584015"><ele>118.0</ele><time>2026-03-22T12:31:31.236Z</time></trkpt><trkpt lat="45.297065" lon="8.58384"><ele>118.0</ele><time>2026-03-22T12:31:32.236Z</time></trkpt><trkpt lat="45.29716" lon="8.5836567"><ele>118.0</ele><time>2026-03-22T12:31:33.236Z</time></trkpt><trkpt lat="45.2972517" lon="8.5834633"><ele>117.66666666666667</ele><time>2026-03-22T12:31:34.236Z</time></trkpt><trkpt lat="45.2973517" lon="8.5832717"><ele>117.33333333333334</ele><time>2026-03-22T12:31:35.236Z</time></trkpt><trkpt lat="45.2974367" lon="8.5830783"><ele>117.0</ele><time>2026-03-22T12:31:36.236Z</time></trkpt><trkpt lat="45.2975217" lon="8.58289"><ele>117.33333333333334</ele><time>2026-03-22T12:31:37.236Z</time></trkpt><trkpt lat="45.2976033" lon="8.5826933"><ele>117.66666666666667</ele><time>2026-03-22T12:31:38.236Z</time></trkpt><trkpt lat="45.2976917" lon="8.582505"><ele>118.0</ele><time>2026-03-22T12:31:39.236Z</time></trkpt><trkpt lat="45.297785" lon="8.5823183"><ele>118.0</ele><time>2026-03-22T12:31:40.236Z</time></trkpt><trkpt lat="45.2978767" lon="8.5821317"><ele>118.0</ele><time>2026-03-22T12:31:41.236Z</time></trkpt><trkpt lat="45.2979467" lon="8.58194"><ele>118.0</ele><time>2026-03-22T12:31:42.236Z</time></trkpt><trkpt lat="45.2980083" lon="8.58173"><ele>118.0</ele><time>2026-03-22T12:31:43.236Z</time></trkpt><trkpt lat="45.2980517" lon="8.5815317"><ele>118.0</ele><time>2026-03-22T12:31:44.236Z</time></trkpt><trkpt lat="45.2980883" lon="8.5813183"><ele>118.0</ele><time>2026-03-22T12:31:45.236Z</time></trkpt><trkpt lat="45.2981467" lon="8.58111"><ele>118.75</ele><time>2026-03-22T12:31:46.236Z</time></trkpt><trkpt lat="45.2981967" lon="8.5809083"><ele>119.5</ele><time>2026-03-22T12:31:47.236Z</time></trkpt><trkpt lat="45.2982367" lon="8.5807267"><ele>120.25</ele><time>2026-03-22T12:31:48.236Z</time></trkpt><trkpt lat="45.29825" lon="8.5805367"><ele>121.0</ele><time>2026-03-22T12:31:49.236Z</time></trkpt><trkpt lat="45.2982467" lon="8.5803267"><ele>121.0</ele><time>2026-03-22T12:31:50.236Z</time></trkpt><trkpt lat="45.2982417" lon="8.5801167"><ele>121.0</ele><time>2026-03-22T12:31:51.236Z</time></trkpt><trkpt lat="45.2982217" lon="8.5799017"><ele>121.0</ele><time>2026-03-22T12:31:52.236Z</time></trkpt><trkpt lat="45.2981983" lon="8.57968"><ele>121.0</ele><time>2026-03-22T12:31:53.236Z</time></trkpt><trkpt lat="45.2981733" lon="8.57946"><ele>121.0</ele><time>2026-03-22T12:31:54.236Z</time></trkpt><trkpt lat="45.2981467" lon="8.57923"><ele>121.0</ele><time>2026-03-22T12:31:55.236Z</time></trkpt><trkpt lat="45.2981133" lon="8.579"><ele>121.0</ele><time>2026-03-22T12:31:56.236Z</time></trkpt><trkpt lat="45.298085" lon="8.5787667"><ele>121.0</ele><time>2026-03-22T12:31:57.236Z</time></trkpt><trkpt lat="45.298075" lon="8.5785333"><ele>121.0</ele><time>2026-03-22T12:31:58.236Z</time></trkpt><trkpt lat="45.29806" lon="8.57829"><ele>120.66666666666667</ele><time>2026-03-22T12:31:59.236Z</time></trkpt><trkpt lat="45.2980483" lon="8.578065"><ele>120.33333333333334</ele><time>2026-03-22T12:32:00.236Z</time></trkpt><trkpt lat="45.2980233" lon="8.57783"><ele>120.0</ele><time>2026-03-22T12:32:01.236Z</time></trkpt><trkpt lat="45.298" lon="8.577595"><ele>119.66666666666666</ele><time>2026-03-22T12:32:02.236Z</time></trkpt><trkpt lat="45.29798" lon="8.5773733"><ele>119.33333333333333</ele><time>2026-03-22T12:32:03.236Z</time></trkpt><trkpt lat="45.29796" lon="8.577165"><ele>119.0</ele><time>2026-03-22T12:32:04.236Z</time></trkpt><trkpt lat="45.2979367" lon="8.5769617"><ele>118.75</ele><time>2026-03-22T12:32:05.236Z</time></trkpt><trkpt lat="45.2979133" lon="8.5767733"><ele>118.5</ele><time>2026-03-22T12:32:06.236Z</time></trkpt><trkpt lat="45.2978933" lon="8.5765933"><ele>118.25</ele><time>2026-03-22T12:32:07.236Z</time></trkpt><trkpt lat="45.297865" lon="8.576415"><ele>118.0</ele><time>2026-03-22T12:32:08.236Z</time></trkpt><trkpt lat="45.2978333" lon="8.5762383"><ele>118.33333333333334</ele><time>2026-03-22T12:32:09.236Z</time></trkpt><trkpt lat="45.297805" lon="8.5760833"><ele>118.66666666666667</ele><time>2026-03-22T12:32:10.236Z</time></trkpt><trkpt lat="45.2977767" lon="8.5759433"><ele>119.0</ele><time>2026-03-22T12:32:11.236Z</time></trkpt><trkpt lat="45.2977583" lon="8.575825"><ele>119.33333333333334</ele><time>2026-03-22T12:32:12.236Z</time></trkpt><trkpt lat="45.2977383" lon="8.5757283"><ele>119.66666666666667</ele><time>2026-03-22T12:32:13.236Z</time></trkpt><trkpt lat="45.2977083" lon="8.5756467"><ele>120.0</ele><time>2026-03-22T12:32:14.236Z</time></trkpt><trkpt lat="45.2976717" lon="8.5755683"><ele>120.0</ele><time>2026-03-22T12:32:15.236Z</time></trkpt><trkpt lat="45.2976267" lon="8.575475"><ele>120.0</ele><time>2026-03-22T12:32:16.236Z</time></trkpt><trkpt lat="45.2975883" lon="8.5753567"><ele>120.0</ele><time>2026-03-22T12:32:17.236Z</time></trkpt><trkpt lat="45.2975483" lon="8.5752267"><ele>120.0</ele><time>2026-03-22T12:32:18.236Z</time></trkpt><trkpt lat="45.2975233" lon="8.5750767"><ele>120.0</ele><time>2026-03-22T12:32:19.237Z</time></trkpt><trkpt lat="45.2974983" lon="8.5749283"><ele>120.0</ele><time>2026-03-22T12:32:20.236Z</time></trkpt><trkpt lat="45.2974883" lon="8.57476"><ele>120.0</ele><time>2026-03-22T12:32:21.236Z</time></trkpt><trkpt lat="45.29747" lon="8.5745967"><ele>120.0</ele><time>2026-03-22T12:32:22.236Z</time></trkpt><trkpt lat="45.2974533" lon="8.57444"><ele>120.0</ele><time>2026-03-22T12:32:23.236Z</time></trkpt><trkpt lat="45.29744" lon="8.5742867"><ele>120.5</ele><time>2026-03-22T12:32:24.236Z</time></trkpt><trkpt lat="45.29743" lon="8.5741217"><ele>121.0</ele><time>2026-03-22T12:32:25.236Z</time></trkpt><trkpt lat="45.2974233" lon="8.5739483"><ele>121.5</ele><time>2026-03-22T12:32:26.236Z</time></trkpt><trkpt lat="45.2974133" lon="8.57378"><ele>122.0</ele><time>2026-03-22T12:32:27.236Z</time></trkpt><trkpt lat="45.2973883" lon="8.5736217"><ele>122.0</ele><time>2026-03-22T12:32:28.236Z</time></trkpt><trkpt lat="45.29737" lon="8.5734517"><ele>121.99999999999999</ele><time>2026-03-22T12:32:29.236Z</time></trkpt><trkpt lat="45.2973417" lon="8.5732867"><ele>121.99999999999999</ele><time>2026-03-22T12:32:30.236Z</time></trkpt><trkpt lat="45.2973267" lon="8.5731417"><ele>122.0</ele><time>2026-03-22T12:32:31.236Z</time></trkpt><trkpt lat="45.2973083" lon="8.5730017"><ele>122.0</ele><time>2026-03-22T12:32:32.236Z</time></trkpt><trkpt lat="45.29729" lon="8.5728583"><ele>121.49999999999999</ele><time>2026-03-22T12:32:33.236Z</time></trkpt><trkpt lat="45.2972733" lon="8.5727367"><ele>121.0</ele><time>2026-03-22T12:32:34.236Z</time></trkpt><trkpt lat="45.297275" lon="8.57264"><ele>120.5</ele><time>2026-03-22T12:32:35.236Z</time></trkpt><trkpt lat="45.29723" lon="8.5725133"><ele>120.0</ele><time>2026-03-22T12:32:37.236Z</time></trkpt><trkpt lat="45.2971433" lon="8.5724967"><ele>119.49999999999999</ele><time>2026-03-22T12:32:39.236Z</time></trkpt><trkpt lat="45.29708" lon="8.57252"><ele>119.0</ele><time>2026-03-22T12:32:40.236Z</time></trkpt><trkpt lat="45.29701" lon="8.5725467"><ele>118.80000000000001</ele><time>2026-03-22T12:32:41.236Z</time></trkpt><trkpt lat="45.2969367" lon="8.5725633"><ele>118.60000000000001</ele><time>2026-03-22T12:32:42.236Z</time></trkpt><trkpt lat="45.2968567" lon="8.5725867"><ele>118.4</ele><time>2026-03-22T12:32:43.236Z</time></trkpt><trkpt lat="45.2967567" lon="8.5726"><ele>118.2</ele><time>2026-03-22T12:32:44.236Z</time></trkpt><trkpt lat="45.2966583" lon="8.5726333"><ele>118.0</ele><time>2026-03-22T12:32:45.236Z</time></trkpt><trkpt lat="45.2965583" lon="8.5726633"><ele>118.0</ele><time>2026-03-22T12:32:46.236Z</time></trkpt><trkpt lat="45.296445" lon="8.5726767"><ele>118.0</ele><time>2026-03-22T12:32:47.236Z</time></trkpt><trkpt lat="45.2963367" lon="8.5726983"><ele>118.0</ele><time>2026-03-22T12:32:48.236Z</time></trkpt><trkpt lat="45.2962183" lon="8.5727217"><ele>118.0</ele><time>2026-03-22T12:32:49.236Z</time></trkpt><trkpt lat="45.2960883" lon="8.5727517"><ele>118.0</ele><time>2026-03-22T12:32:50.236Z</time></trkpt><trkpt lat="45.295965" lon="8.57278"><ele>118.0</ele><time>2026-03-22T12:32:51.236Z</time></trkpt><trkpt lat="45.2958167" lon="8.5727933"><ele>118.0</ele><time>2026-03-22T12:32:52.236Z</time></trkpt><trkpt lat="45.295675" lon="8.5728167"><ele>118.0</ele><time>2026-03-22T12:32:53.236Z</time></trkpt><trkpt lat="45.2955367" lon="8.572835"><ele>118.0</ele><time>2026-03-22T12:32:54.236Z</time></trkpt><trkpt lat="45.2953983" lon="8.5728683"><ele>118.0</ele><time>2026-03-22T12:32:55.236Z</time></trkpt><trkpt lat="45.2952467" lon="8.5728933"><ele>118.0</ele><time>2026-03-22T12:32:56.236Z</time></trkpt><trkpt lat="45.2950967" lon="8.5729317"><ele>118.0</ele><time>2026-03-22T12:32:57.236Z</time></trkpt><trkpt lat="45.2949467" lon="8.5729517"><ele>118.0</ele><time>2026-03-22T12:32:58.236Z</time></trkpt><trkpt lat="45.2948" lon="8.5729817"><ele>118.0</ele><time>2026-03-22T12:32:59.236Z</time></trkpt><trkpt lat="45.29465" lon="8.5730067"><ele>118.0</ele><time>2026-03-22T12:33:00.236Z</time></trkpt><trkpt lat="45.2944967" lon="8.5730383"><ele>117.66666666666667</ele><time>2026-03-22T12:33:01.236Z</time></trkpt><trkpt lat="45.2943533" lon="8.573065"><ele>117.33333333333334</ele><time>2026-03-22T12:33:02.236Z</time></trkpt><trkpt lat="45.294205" lon="8.5731"><ele>117.0</ele><time>2026-03-22T12:33:03.236Z</time></trkpt><trkpt lat="45.29405" lon="8.5731283"><ele>117.33333333333334</ele><time>2026-03-22T12:33:04.235Z</time></trkpt><trkpt lat="45.2939017" lon="8.573155"><ele>117.66666666666667</ele><time>2026-03-22T12:33:05.235Z</time></trkpt><trkpt lat="45.29375" lon="8.5731883"><ele>118.0</ele><time>2026-03-22T12:33:06.235Z</time></trkpt><trkpt lat="45.2936033" lon="8.5732167"><ele>118.0</ele><time>2026-03-22T12:33:07.235Z</time></trkpt><trkpt lat="45.2934567" lon="8.5732533"><ele>118.0</ele><time>2026-03-22T12:33:08.235Z</time></trkpt><trkpt lat="45.2933033" lon="8.5732833"><ele>118.0</ele><time>2026-03-22T12:33:09.235Z</time></trkpt><trkpt lat="45.2931567" lon="8.5733067"><ele>118.0</ele><time>2026-03-22T12:33:10.235Z</time></trkpt><trkpt lat="45.2930083" lon="8.5733433"><ele>118.0</ele><time>2026-03-22T12:33:11.235Z</time></trkpt><trkpt lat="45.2928633" lon="8.5733683"><ele>118.0</ele><time>2026-03-22T12:33:12.235Z</time></trkpt><trkpt lat="45.2927183" lon="8.5733867"><ele>118.0</ele><time>2026-03-22T12:33:13.235Z</time></trkpt><trkpt lat="45.2925867" lon="8.5734133"><ele>118.0</ele><time>2026-03-22T12:33:14.234Z</time></trkpt><trkpt lat="45.2924683" lon="8.5734333"><ele>118.0</ele><time>2026-03-22T12:33:15.235Z</time></trkpt><trkpt lat="45.292345" lon="8.573465"><ele>118.0</ele><time>2026-03-22T12:33:16.235Z</time></trkpt><trkpt lat="45.292225" lon="8.5734867"><ele>118.0</ele><time>2026-03-22T12:33:17.235Z</time></trkpt><trkpt lat="45.2921033" lon="8.5735167"><ele>118.25</ele><time>2026-03-22T12:33:18.235Z</time></trkpt><trkpt lat="45.2919833" lon="8.5735417"><ele>118.5</ele><time>2026-03-22T12:33:19.235Z</time></trkpt><trkpt lat="45.2918667" lon="8.5735583"><ele>118.75</ele><time>2026-03-22T12:33:20.235Z</time></trkpt><trkpt lat="45.291745" lon="8.5735817"><ele>119.0</ele><time>2026-03-22T12:33:21.235Z</time></trkpt><trkpt lat="45.29162" lon="8.573615"><ele>119.0</ele><time>2026-03-22T12:33:22.235Z</time></trkpt><trkpt lat="45.2914983" lon="8.5736333"><ele>119.0</ele><time>2026-03-22T12:33:23.235Z</time></trkpt><trkpt lat="45.29137" lon="8.5736667"><ele>119.0</ele><time>2026-03-22T12:33:24.235Z</time></trkpt><trkpt lat="45.291235" lon="8.5737"><ele>119.0</ele><time>2026-03-22T12:33:25.235Z</time></trkpt><trkpt lat="45.2910817" lon="8.5737083"><ele>118.75</ele><time>2026-03-22T12:33:26.235Z</time></trkpt><trkpt lat="45.2909317" lon="8.5737267"><ele>118.5</ele><time>2026-03-22T12:33:27.235Z</time></trkpt><trkpt lat="45.2907933" lon="8.5737533"><ele>118.25</ele><time>2026-03-22T12:33:28.235Z</time></trkpt><trkpt lat="45.2906583" lon="8.573775"><ele>118.0</ele><time>2026-03-22T12:33:29.235Z</time></trkpt><trkpt lat="45.2905167" lon="8.57379"><ele>119.5</ele><time>2026-03-22T12:33:30.235Z</time></trkpt><trkpt lat="45.2903767" lon="8.5738233"><ele>121.0</ele><time>2026-03-22T12:33:31.235Z</time></trkpt><trkpt lat="45.2902417" lon="8.5738483"><ele>122.5</ele><time>2026-03-22T12:33:32.235Z</time></trkpt><trkpt lat="45.290125" lon="8.57386"><ele>124.0</ele><time>2026-03-22T12:33:33.235Z</time></trkpt><trkpt lat="45.29001" lon="8.573885"><ele>124.0</ele><time>2026-03-22T12:33:34.235Z</time></trkpt><trkpt lat="45.2899033" lon="8.5739133"><ele>124.0</ele><time>2026-03-22T12:33:35.235Z</time></trkpt><trkpt lat="45.28981" lon="8.5739317"><ele>124.0</ele><time>2026-03-22T12:33:36.235Z</time></trkpt><trkpt lat="45.289735" lon="8.573945"><ele>124.0</ele><time>2026-03-22T12:33:37.235Z</time></trkpt><trkpt lat="45.289635" lon="8.5739483"><ele>124.0</ele><time>2026-03-22T12:33:39.235Z</time></trkpt><trkpt lat="45.2895783" lon="8.5738817"><ele>122.6</ele><time>2026-03-22T12:33:41.235Z</time></trkpt><trkpt lat="45.28957" lon="8.5737217"><ele>121.2</ele><time>2026-03-22T12:33:43.235Z</time></trkpt><trkpt lat="45.28958" lon="8.5736083"><ele>119.79999999999998</ele><time>2026-03-22T12:33:44.235Z</time></trkpt><trkpt lat="45.28958" lon="8.5734833"><ele>118.39999999999999</ele><time>2026-03-22T12:33:45.235Z</time></trkpt><trkpt lat="45.2895783" lon="8.5733283"><ele>117.0</ele><time>2026-03-22T12:33:46.235Z</time></trkpt><trkpt lat="45.2895867" lon="8.5731583"><ele>116.8</ele><time>2026-03-22T12:33:47.235Z</time></trkpt><trkpt lat="45.2895933" lon="8.5729983"><ele>116.6</ele><time>2026-03-22T12:33:48.235Z</time></trkpt><trkpt lat="45.2895917" lon="8.5728533"><ele>116.39999999999999</ele><time>2026-03-22T12:33:49.235Z</time></trkpt><trkpt lat="45.2895917" lon="8.5727"><ele>116.19999999999999</ele><time>2026-03-22T12:33:50.235Z</time></trkpt><trkpt lat="45.2895967" lon="8.5725333"><ele>116.0</ele><time>2026-03-22T12:33:51.235Z</time></trkpt><trkpt lat="45.2895967" lon="8.572355"><ele>116.0</ele><time>2026-03-22T12:33:52.235Z</time></trkpt><trkpt lat="45.2895917" lon="8.5721633"><ele>116.0</ele><time>2026-03-22T12:33:53.235Z</time></trkpt><trkpt lat="45.2895783" lon="8.5719783"><ele>116.0</ele><time>2026-03-22T12:33:54.235Z</time></trkpt><trkpt lat="45.2895767" lon="8.5717933"><ele>116.0</ele><time>2026-03-22T12:33:55.235Z</time></trkpt><trkpt lat="45.2895767" lon="8.57159"><ele>116.0</ele><time>2026-03-22T12:33:56.235Z</time></trkpt><trkpt lat="45.2895667" lon="8.5713867"><ele>116.0</ele><time>2026-03-22T12:33:57.235Z</time></trkpt><trkpt lat="45.2895633" lon="8.5711733"><ele>116.0</ele><time>2026-03-22T12:33:58.235Z</time></trkpt><trkpt lat="45.2895617" lon="8.5709667"><ele>116.0</ele><time>2026-03-22T12:33:59.235Z</time></trkpt><trkpt lat="45.289565" lon="8.57076"><ele>116.33333333333333</ele><time>2026-03-22T12:34:00.235Z</time></trkpt><trkpt lat="45.289575" lon="8.570545"><ele>116.66666666666666</ele><time>2026-03-22T12:34:01.235Z</time></trkpt><trkpt lat="45.2895983" lon="8.57032"><ele>117.0</ele><time>2026-03-22T12:34:02.235Z</time></trkpt><trkpt lat="45.2896233" lon="8.5700883"><ele>117.33333333333334</ele><time>2026-03-22T12:34:03.235Z</time></trkpt><trkpt lat="45.2896683" lon="8.5698533"><ele>117.66666666666667</ele><time>2026-03-22T12:34:04.235Z</time></trkpt><trkpt lat="45.289715" lon="8.5696217"><ele>118.0</ele><time>2026-03-22T12:34:05.235Z</time></trkpt><trkpt lat="45.289765" lon="8.5693967"><ele>118.0</ele><time>2026-03-22T12:34:06.235Z</time></trkpt><trkpt lat="45.2898217" lon="8.5691767"><ele>118.0</ele><time>2026-03-22T12:34:07.235Z</time></trkpt><trkpt lat="45.2898967" lon="8.5689533"><ele>118.0</ele><time>2026-03-22T12:34:08.235Z</time></trkpt><trkpt lat="45.289975" lon="8.5687217"><ele>117.33333333333334</ele><time>2026-03-22T12:34:09.235Z</time></trkpt><trkpt lat="45.2900483" lon="8.5684933"><ele>116.66666666666666</ele><time>2026-03-22T12:34:10.235Z</time></trkpt><trkpt lat="45.2901317" lon="8.5682667"><ele>116.0</ele><time>2026-03-22T12:34:11.235Z</time></trkpt><trkpt lat="45.2902167" lon="8.5680317"><ele>116.33333333333333</ele><time>2026-03-22T12:34:12.235Z</time></trkpt><trkpt lat="45.2902983" lon="8.5678083"><ele>116.66666666666666</ele><time>2026-03-22T12:34:13.235Z</time></trkpt><trkpt lat="45.2903767" lon="8.5675867"><ele>117.0</ele><time>2026-03-22T12:34:14.235Z</time></trkpt><trkpt lat="45.2904567" lon="8.5673517"><ele>117.0</ele><time>2026-03-22T12:34:15.235Z</time></trkpt><trkpt lat="45.2905267" lon="8.5671233"><ele>117.0</ele><time>2026-03-22T12:34:16.235Z</time></trkpt><trkpt lat="45.290605" lon="8.5668867"><ele>117.0</ele><time>2026-03-22T12:34:17.235Z</time></trkpt><trkpt lat="45.290685" lon="8.5666483"><ele>117.33333333333334</ele><time>2026-03-22T12:34:18.235Z</time></trkpt><trkpt lat="45.2907683" lon="8.5664167"><ele>117.66666666666667</ele><time>2026-03-22T12:34:19.235Z</time></trkpt><trkpt lat="45.2908567" lon="8.5661783"><ele>118.0</ele><time>2026-03-22T12:34:20.235Z</time></trkpt><trkpt lat="45.290945" lon="8.56594"><ele>118.0</ele><time>2026-03-22T12:34:21.235Z</time></trkpt><trkpt lat="45.2910317" lon="8.5656867"><ele>118.0</ele><time>2026-03-22T12:34:22.235Z</time></trkpt><trkpt lat="45.2911117" lon="8.5654417"><ele>118.0</ele><time>2026-03-22T12:34:23.235Z</time></trkpt><trkpt lat="45.291195" lon="8.5651967"><ele>117.66666666666667</ele><time>2026-03-22T12:34:24.235Z</time></trkpt><trkpt lat="45.2912683" lon="8.56496"><ele>117.33333333333334</ele><time>2026-03-22T12:34:25.235Z</time></trkpt><trkpt lat="45.291345" lon="8.5647133"><ele>117.0</ele><time>2026-03-22T12:34:26.235Z</time></trkpt><trkpt lat="45.2914283" lon="8.564465"><ele>117.0</ele><time>2026-03-22T12:34:27.235Z</time></trkpt><trkpt lat="45.2915183" lon="8.5642233"><ele>117.0</ele><time>2026-03-22T12:34:28.235Z</time></trkpt><trkpt lat="45.2916067" lon="8.5639667"><ele>117.0</ele><time>2026-03-22T12:34:29.235Z</time></trkpt><trkpt lat="45.2916933" lon="8.563715"><ele>116.66666666666666</ele><time>2026-03-22T12:34:30.235Z</time></trkpt><trkpt lat="45.2917833" lon="8.563465"><ele>116.33333333333333</ele><time>2026-03-22T12:34:31.235Z</time></trkpt><trkpt lat="45.2918733" lon="8.56321"><ele>116.0</ele><time>2026-03-22T12:34:32.235Z</time></trkpt><trkpt lat="45.2919717" lon="8.5629433"><ele>116.5</ele><time>2026-03-22T12:34:33.235Z</time></trkpt><trkpt lat="45.2920717" lon="8.5626767"><ele>117.0</ele><time>2026-03-22T12:34:34.235Z</time></trkpt><trkpt lat="45.2922533" lon="8.5621667"><ele>117.0</ele><time>2026-03-22T12:34:36.235Z</time></trkpt><trkpt lat="45.2923367" lon="8.5619117"><ele>117.0</ele><time>2026-03-22T12:34:37.235Z</time></trkpt><trkpt lat="45.2924133" lon="8.5616533"><ele>117.0</ele><time>2026-03-22T12:34:38.235Z</time></trkpt><trkpt lat="45.2924967" lon="8.5614017"><ele>117.0</ele><time>2026-03-22T12:34:39.235Z</time></trkpt><trkpt lat="45.292585" lon="8.5611417"><ele>117.0</ele><time>2026-03-22T12:34:40.235Z</time></trkpt><trkpt lat="45.29267" lon="8.5608817"><ele>117.0</ele><time>2026-03-22T12:34:41.235Z</time></trkpt><trkpt lat="45.2927567" lon="8.5606283"><ele>117.0</ele><time>2026-03-22T12:34:42.235Z</time></trkpt><trkpt lat="45.2928367" lon="8.5603767"><ele>117.0</ele><time>2026-03-22T12:34:43.235Z</time></trkpt><trkpt lat="45.2929267" lon="8.5601233"><ele>117.0</ele><time>2026-03-22T12:34:44.235Z</time></trkpt><trkpt lat="45.2930167" lon="8.559875"><ele>117.0</ele><time>2026-03-22T12:34:45.235Z</time></trkpt><trkpt lat="45.2931033" lon="8.55963"><ele>117.0</ele><time>2026-03-22T12:34:46.235Z</time></trkpt><trkpt lat="45.293185" lon="8.5593817"><ele>117.0</ele><time>2026-03-22T12:34:47.235Z</time></trkpt><trkpt lat="45.2932667" lon="8.55913"><ele>117.0</ele><time>2026-03-22T12:34:48.235Z</time></trkpt><trkpt lat="45.2933517" lon="8.5588717"><ele>117.0</ele><time>2026-03-22T12:34:49.235Z</time></trkpt><trkpt lat="45.2934383" lon="8.5586133"><ele>117.0</ele><time>2026-03-22T12:34:50.235Z</time></trkpt><trkpt lat="45.2935183" lon="8.5583717"><ele>117.0</ele><time>2026-03-22T12:34:51.235Z</time></trkpt><trkpt lat="45.2936" lon="8.5581267"><ele>117.0</ele><time>2026-03-22T12:34:52.235Z</time></trkpt><trkpt lat="45.2936817" lon="8.5578767"><ele>117.0</ele><time>2026-03-22T12:34:53.235Z</time></trkpt><trkpt lat="45.2937717" lon="8.5576183"><ele>117.0</ele><time>2026-03-22T12:34:54.235Z</time></trkpt><trkpt lat="45.2938617" lon="8.557365"><ele>117.0</ele><time>2026-03-22T12:34:55.235Z</time></trkpt><trkpt lat="45.293955" lon="8.55711"><ele>117.0</ele><time>2026-03-22T12:34:56.235Z</time></trkpt><trkpt lat="45.2940367" lon="8.5568517"><ele>117.33333333333334</ele><time>2026-03-22T12:34:57.235Z</time></trkpt><trkpt lat="45.294125" lon="8.5566033"><ele>117.66666666666667</ele><time>2026-03-22T12:34:58.235Z</time></trkpt><trkpt lat="45.294205" lon="8.5563467"><ele>118.0</ele><time>2026-03-22T12:34:59.235Z</time></trkpt><trkpt lat="45.294285" lon="8.556095"><ele>118.0</ele><time>2026-03-22T12:35:00.235Z</time></trkpt><trkpt lat="45.2943717" lon="8.5558383"><ele>118.0</ele><time>2026-03-22T12:35:01.235Z</time></trkpt><trkpt lat="45.294455" lon="8.5555833"><ele>118.0</ele><time>2026-03-22T12:35:02.235Z</time></trkpt><trkpt lat="45.2945433" lon="8.5553383"><ele>118.0</ele><time>2026-03-22T12:35:03.235Z</time></trkpt><trkpt lat="45.2946283" lon="8.5550833"><ele>118.0</ele><time>2026-03-22T12:35:04.235Z</time></trkpt><trkpt lat="45.2947133" lon="8.5548217"><ele>118.0</ele><time>2026-03-22T12:35:05.235Z</time></trkpt><trkpt lat="45.2948017" lon="8.5545617"><ele>118.0</ele><time>2026-03-22T12:35:06.235Z</time></trkpt><trkpt lat="45.29489" lon="8.554305"><ele>118.0</ele><time>2026-03-22T12:35:07.235Z</time></trkpt><trkpt lat="45.294975" lon="8.5540483"><ele>118.0</ele><time>2026-03-22T12:35:08.235Z</time></trkpt><trkpt lat="45.29506" lon="8.5537983"><ele>118.0</ele><time>2026-03-22T12:35:09.235Z</time></trkpt><trkpt lat="45.29515" lon="8.5535483"><ele>118.0</ele><time>2026-03-22T12:35:10.235Z</time></trkpt><trkpt lat="45.2952267" lon="8.553295"><ele>118.0</ele><time>2026-03-22T12:35:11.235Z</time></trkpt><trkpt lat="45.29531" lon="8.5530317"><ele>117.66666666666667</ele><time>2026-03-22T12:35:12.235Z</time></trkpt><trkpt lat="45.2953967" lon="8.552775"><ele>117.33333333333334</ele><time>2026-03-22T12:35:13.235Z</time></trkpt><trkpt lat="45.2954867" lon="8.5525233"><ele>117.0</ele><time>2026-03-22T12:35:14.235Z</time></trkpt><trkpt lat="45.2955717" lon="8.5522717"><ele>118.0</ele><time>2026-03-22T12:35:15.235Z</time></trkpt><trkpt lat="45.295655" lon="8.5520167"><ele>119.0</ele><time>2026-03-22T12:35:16.235Z</time></trkpt><trkpt lat="45.2957383" lon="8.5517667"><ele>120.0</ele><time>2026-03-22T12:35:17.235Z</time></trkpt><trkpt lat="45.2958267" lon="8.551515"><ele>120.0</ele><time>2026-03-22T12:35:18.235Z</time></trkpt><trkpt lat="45.2959133" lon="8.5512667"><ele>120.0</ele><time>2026-03-22T12:35:19.235Z</time></trkpt><trkpt lat="45.2960033" lon="8.5510133"><ele>120.0</ele><time>2026-03-22T12:35:20.235Z</time></trkpt><trkpt lat="45.2960867" lon="8.5507633"><ele>120.0</ele><time>2026-03-22T12:35:21.235Z</time></trkpt><trkpt lat="45.2961717" lon="8.5505367"><ele>120.0</ele><time>2026-03-22T12:35:22.235Z</time></trkpt><trkpt lat="45.2962417" lon="8.5503133"><ele>120.0</ele><time>2026-03-22T12:35:23.235Z</time></trkpt><trkpt lat="45.2963167" lon="8.5500883"><ele>120.0</ele><time>2026-03-22T12:35:24.235Z</time></trkpt><trkpt lat="45.29639" lon="8.5498683"><ele>120.0</ele><time>2026-03-22T12:35:25.235Z</time></trkpt><trkpt lat="45.29646" lon="8.5496483"><ele>120.0</ele><time>2026-03-22T12:35:26.235Z</time></trkpt><trkpt lat="45.2965333" lon="8.549425"><ele>120.0</ele><time>2026-03-22T12:35:27.235Z</time></trkpt><trkpt lat="45.2966067" lon="8.5492033"><ele>120.0</ele><time>2026-03-22T12:35:28.235Z</time></trkpt><trkpt lat="45.296685" lon="8.5489783"><ele>120.0</ele><time>2026-03-22T12:35:29.235Z</time></trkpt><trkpt lat="45.29676" lon="8.5487483"><ele>119.0</ele><time>2026-03-22T12:35:30.235Z</time></trkpt><trkpt lat="45.2968467" lon="8.5485133"><ele>118.0</ele><time>2026-03-22T12:35:31.235Z</time></trkpt><trkpt lat="45.2969417" lon="8.5482817"><ele>117.0</ele><time>2026-03-22T12:35:32.235Z</time></trkpt><trkpt lat="45.2970283" lon="8.5480317"><ele>117.0</ele><time>2026-03-22T12:35:33.235Z</time></trkpt><trkpt lat="45.2971067" lon="8.5477733"><ele>117.0</ele><time>2026-03-22T12:35:34.235Z</time></trkpt><trkpt lat="45.297195" lon="8.5475183"><ele>117.0</ele><time>2026-03-22T12:35:35.235Z</time></trkpt><trkpt lat="45.2972867" lon="8.5472583"><ele>117.0</ele><time>2026-03-22T12:35:36.235Z</time></trkpt><trkpt lat="45.2973733" lon="8.547005"><ele>117.0</ele><time>2026-03-22T12:35:37.235Z</time></trkpt><trkpt lat="45.2974567" lon="8.5467433"><ele>117.0</ele><time>2026-03-22T12:35:38.235Z</time></trkpt><trkpt lat="45.2975367" lon="8.546495"><ele>117.0</ele><time>2026-03-22T12:35:39.235Z</time></trkpt><trkpt lat="45.2976233" lon="8.5462333"><ele>117.0</ele><time>2026-03-22T12:35:40.235Z</time></trkpt><trkpt lat="45.2977133" lon="8.5459867"><ele>117.0</ele><time>2026-03-22T12:35:41.235Z</time></trkpt><trkpt lat="45.2977983" lon="8.5457283"><ele>117.0</ele><time>2026-03-22T12:35:42.235Z</time></trkpt><trkpt lat="45.2978883" lon="8.5454767"><ele>117.0</ele><time>2026-03-22T12:35:43.235Z</time></trkpt><trkpt lat="45.2979733" lon="8.5452283"><ele>117.0</ele><time>2026-03-22T12:35:44.235Z</time></trkpt><trkpt lat="45.2980567" lon="8.5449717"><ele>117.0</ele><time>2026-03-22T12:35:45.235Z</time></trkpt><trkpt lat="45.29814" lon="8.544715"><ele>117.0</ele><time>2026-03-22T12:35:46.235Z</time></trkpt><trkpt lat="45.29822" lon="8.5444567"><ele>117.0</ele><time>2026-03-22T12:35:47.235Z</time></trkpt><trkpt lat="45.2982967" lon="8.5441983"><ele>117.0</ele><time>2026-03-22T12:35:48.235Z</time></trkpt><trkpt lat="45.2983717" lon="8.543965"><ele>117.0</ele><time>2026-03-22T12:35:49.235Z</time></trkpt><trkpt lat="45.2984483" lon="8.5437367"><ele>117.0</ele><time>2026-03-22T12:35:50.235Z</time></trkpt><trkpt lat="45.2985267" lon="8.5435167"><ele>117.0</ele><time>2026-03-22T12:35:51.235Z</time></trkpt><trkpt lat="45.2986017" lon="8.5432983"><ele>117.0</ele><time>2026-03-22T12:35:52.235Z</time></trkpt><trkpt lat="45.2986783" lon="8.54311"><ele>117.0</ele><time>2026-03-22T12:35:53.235Z</time></trkpt><trkpt lat="45.2987467" lon="8.542925"><ele>117.19999999999999</ele><time>2026-03-22T12:35:54.235Z</time></trkpt><trkpt lat="45.2988" lon="8.54276"><ele>117.39999999999999</ele><time>2026-03-22T12:35:55.235Z</time></trkpt><trkpt lat="45.2988417" lon="8.5426133"><ele>117.60000000000001</ele><time>2026-03-22T12:35:56.235Z</time></trkpt><trkpt lat="45.2988833" lon="8.54249"><ele>117.80000000000001</ele><time>2026-03-22T12:35:57.236Z</time></trkpt><trkpt lat="45.2989133" lon="8.54238"><ele>118.0</ele><time>2026-03-22T12:35:58.235Z</time></trkpt><trkpt lat="45.2989117" lon="8.542275"><ele>118.0</ele><time>2026-03-22T12:35:59.235Z</time></trkpt><trkpt lat="45.2988783" lon="8.5421783"><ele>118.00000000000001</ele><time>2026-03-22T12:36:00.235Z</time></trkpt><trkpt lat="45.2988183" lon="8.54206"><ele>118.00000000000001</ele><time>2026-03-22T12:36:01.235Z</time></trkpt><trkpt lat="45.2987367" lon="8.5419267"><ele>118.0</ele><time>2026-03-22T12:36:02.235Z</time></trkpt><trkpt lat="45.2986383" lon="8.5418"><ele>118.0</ele><time>2026-03-22T12:36:03.235Z</time></trkpt><trkpt lat="45.29854" lon="8.541675"><ele>118.25</ele><time>2026-03-22T12:36:04.235Z</time></trkpt><trkpt lat="45.2984417" lon="8.5415483"><ele>118.5</ele><time>2026-03-22T12:36:05.235Z</time></trkpt><trkpt lat="45.2983517" lon="8.5414217"><ele>118.75</ele><time>2026-03-22T12:36:06.235Z</time></trkpt><trkpt lat="45.2982833" lon="8.5412933"><ele>119.0</ele><time>2026-03-22T12:36:07.235Z</time></trkpt><trkpt lat="45.2982317" lon="8.54114"><ele>119.0</ele><time>2026-03-22T12:36:08.235Z</time></trkpt><trkpt lat="45.2982083" lon="8.5409617"><ele>119.0</ele><time>2026-03-22T12:36:09.235Z</time></trkpt><trkpt lat="45.2981833" lon="8.5407717"><ele>119.0</ele><time>2026-03-22T12:36:10.235Z</time></trkpt><trkpt lat="45.298185" lon="8.5405433"><ele>119.0</ele><time>2026-03-22T12:36:11.235Z</time></trkpt><trkpt lat="45.2981817" lon="8.540325"><ele>118.66666666666666</ele><time>2026-03-22T12:36:12.235Z</time></trkpt><trkpt lat="45.2981733" lon="8.5400967"><ele>118.33333333333334</ele><time>2026-03-22T12:36:13.235Z</time></trkpt><trkpt lat="45.298175" lon="8.5398717"><ele>118.0</ele><time>2026-03-22T12:36:14.235Z</time></trkpt><trkpt lat="45.2981633" lon="8.5396567"><ele>118.25</ele><time>2026-03-22T12:36:15.235Z</time></trkpt><trkpt lat="45.2981433" lon="8.53945"><ele>118.5</ele><time>2026-03-22T12:36:16.235Z</time></trkpt><trkpt lat="45.29813" lon="8.5392417"><ele>118.75</ele><time>2026-03-22T12:36:17.235Z</time></trkpt><trkpt lat="45.298125" lon="8.5390433"><ele>119.0</ele><time>2026-03-22T12:36:18.235Z</time></trkpt><trkpt lat="45.2981183" lon="8.538855"><ele>119.25</ele><time>2026-03-22T12:36:19.235Z</time></trkpt><trkpt lat="45.2981217" lon="8.5386633"><ele>119.5</ele><time>2026-03-22T12:36:20.235Z</time></trkpt><trkpt lat="45.29812" lon="8.5384733"><ele>119.75</ele><time>2026-03-22T12:36:21.235Z</time></trkpt><trkpt lat="45.2981167" lon="8.538265"><ele>120.0</ele><time>2026-03-22T12:36:22.235Z</time></trkpt><trkpt lat="45.2981067" lon="8.5380667"><ele>119.75</ele><time>2026-03-22T12:36:23.235Z</time></trkpt><trkpt lat="45.2980967" lon="8.5378733"><ele>119.5</ele><time>2026-03-22T12:36:24.235Z</time></trkpt><trkpt lat="45.29808" lon="8.537685"><ele>119.25</ele><time>2026-03-22T12:36:25.235Z</time></trkpt><trkpt lat="45.29809" lon="8.5375067"><ele>119.0</ele><time>2026-03-22T12:36:26.235Z</time></trkpt><trkpt lat="45.2980967" lon="8.5373467"><ele>118.99999999999999</ele><time>2026-03-22T12:36:27.235Z</time></trkpt><trkpt lat="45.29809" lon="8.5372017"><ele>119.0</ele><time>2026-03-22T12:36:28.235Z</time></trkpt><trkpt lat="45.2980933" lon="8.5370917"><ele>119.0</ele><time>2026-03-22T12:36:29.235Z</time></trkpt><trkpt lat="45.2981217" lon="8.5369633"><ele>119.0</ele><time>2026-03-22T12:36:31.235Z</time></trkpt><trkpt lat="45.2981717" lon="8.5368567"><ele>118.99999999999999</ele><time>2026-03-22T12:36:33.235Z</time></trkpt><trkpt lat="45.29822" lon="8.53679"><ele>119.0</ele><time>2026-03-22T12:36:34.235Z</time></trkpt><trkpt lat="45.29827" lon="8.5367167"><ele>118.99999999999999</ele><time>2026-03-22T12:36:35.235Z</time></trkpt><trkpt lat="45.2983117" lon="8.53663"><ele>119.0</ele><time>2026-03-22T12:36:36.235Z</time></trkpt><trkpt lat="45.29836" lon="8.53653"><ele>119.0</ele><time>2026-03-22T12:36:37.235Z</time></trkpt><trkpt lat="45.298405" lon="8.5364433"><ele>119.0</ele><time>2026-03-22T12:36:38.235Z</time></trkpt><trkpt lat="45.2984367" lon="8.5363633"><ele>118.99999999999999</ele><time>2026-03-22T12:36:39.235Z</time></trkpt><trkpt lat="45.29847" lon="8.5362483"><ele>119.0</ele><time>2026-03-22T12:36:41.235Z</time></trkpt><trkpt lat="45.298495" lon="8.536145"><ele>118.80000000000001</ele><time>2026-03-22T12:36:43.235Z</time></trkpt><trkpt lat="45.298515" lon="8.536"><ele>118.60000000000001</ele><time>2026-03-22T12:36:45.235Z</time></trkpt><trkpt lat="45.298515" lon="8.5358267"><ele>118.4</ele><time>2026-03-22T12:36:47.235Z</time></trkpt><trkpt lat="45.2985183" lon="8.5356567"><ele>118.2</ele><time>2026-03-22T12:36:49.235Z</time></trkpt><trkpt lat="45.29853" lon="8.5355633"><ele>118.0</ele><time>2026-03-22T12:36:50.235Z</time></trkpt><trkpt lat="45.29853" lon="8.5354733"><ele>118.4</ele><time>2026-03-22T12:36:51.235Z</time></trkpt><trkpt lat="45.29855" lon="8.5353833"><ele>118.80000000000001</ele><time>2026-03-22T12:36:52.235Z</time></trkpt><trkpt lat="45.2985817" lon="8.5352583"><ele>119.2</ele><time>2026-03-22T12:36:54.235Z</time></trkpt><trkpt lat="45.298695" lon="8.53524"><ele>119.6</ele><time>2026-03-22T12:36:56.235Z</time></trkpt><trkpt lat="45.2988567" lon="8.535265"><ele>120.0</ele><time>2026-03-22T12:36:58.235Z</time></trkpt><trkpt lat="45.2989667" lon="8.5353033"><ele>120.2</ele><time>2026-03-22T12:36:59.235Z</time></trkpt><trkpt lat="45.2990867" lon="8.535335"><ele>120.4</ele><time>2026-03-22T12:37:00.235Z</time></trkpt><trkpt lat="45.2992" lon="8.53534"><ele>120.6</ele><time>2026-03-22T12:37:01.235Z</time></trkpt><trkpt lat="45.2993" lon="8.53532"><ele>120.8</ele><time>2026-03-22T12:37:02.235Z</time></trkpt><trkpt lat="45.299395" lon="8.5352867"><ele>121.0</ele><time>2026-03-22T12:37:03.235Z</time></trkpt><trkpt lat="45.2994833" lon="8.5352317"><ele>121.0</ele><time>2026-03-22T12:37:04.235Z</time></trkpt><trkpt lat="45.29955" lon="8.5351583"><ele>121.0</ele><time>2026-03-22T12:37:05.235Z</time></trkpt><trkpt lat="45.2995917" lon="8.535035"><ele>121.0</ele><time>2026-03-22T12:37:06.235Z</time></trkpt><trkpt lat="45.2996233" lon="8.5349033"><ele>121.0</ele><time>2026-03-22T12:37:07.235Z</time></trkpt><trkpt lat="45.2996433" lon="8.5347533"><ele>121.0</ele><time>2026-03-22T12:37:08.235Z</time></trkpt><trkpt lat="45.2996667" lon="8.5346"><ele>121.0</ele><time>2026-03-22T12:37:09.234Z</time></trkpt><trkpt lat="45.2996967" lon="8.5344317"><ele>121.0</ele><time>2026-03-22T12:37:10.234Z</time></trkpt><trkpt lat="45.2997217" lon="8.53426"><ele>121.0</ele><time>2026-03-22T12:37:11.234Z</time></trkpt><trkpt lat="45.29974" lon="8.5340783"><ele>121.0</ele><time>2026-03-22T12:37:12.234Z</time></trkpt><trkpt lat="45.2997567" lon="8.533895"><ele>121.0</ele><time>2026-03-22T12:37:13.234Z</time></trkpt><trkpt lat="45.2997683" lon="8.533725"><ele>121.0</ele><time>2026-03-22T12:37:14.234Z</time></trkpt><trkpt lat="45.29978" lon="8.5335667"><ele>121.0</ele><time>2026-03-22T12:37:15.234Z</time></trkpt><trkpt lat="45.29979" lon="8.533395"><ele>121.0</ele><time>2026-03-22T12:37:16.234Z</time></trkpt><trkpt lat="45.29979" lon="8.5332333"><ele>121.0</ele><time>2026-03-22T12:37:17.234Z</time></trkpt><trkpt lat="45.2997933" lon="8.5330567"><ele>121.0</ele><time>2026-03-22T12:37:18.234Z</time></trkpt><trkpt lat="45.2997933" lon="8.5328817"><ele>121.0</ele><time>2026-03-22T12:37:19.234Z</time></trkpt><trkpt lat="45.29977" lon="8.532715"><ele>121.0</ele><time>2026-03-22T12:37:20.234Z</time></trkpt><trkpt lat="45.2997467" lon="8.5325517"><ele>120.83333333333334</ele><time>2026-03-22T12:37:21.234Z</time></trkpt><trkpt lat="45.2997417" lon="8.5324"><ele>120.66666666666667</ele><time>2026-03-22T12:37:22.234Z</time></trkpt><trkpt lat="45.299735" lon="8.5322783"><ele>120.5</ele><time>2026-03-22T12:37:23.234Z</time></trkpt><trkpt lat="45.29973" lon="8.5321733"><ele>120.33333333333334</ele><time>2026-03-22T12:37:24.234Z</time></trkpt><trkpt lat="45.299695" lon="8.5320867"><ele>120.16666666666667</ele><time>2026-03-22T12:37:26.234Z</time></trkpt><trkpt lat="45.2996" lon="8.5320167"><ele>120.0</ele><time>2026-03-22T12:37:29.234Z</time></trkpt><trkpt lat="45.2995383" lon="8.5319883"><ele>120.0</ele><time>2026-03-22T12:37:30.234Z</time></trkpt><trkpt lat="45.2994533" lon="8.5319767"><ele>120.0</ele><time>2026-03-22T12:37:31.234Z</time></trkpt><trkpt lat="45.29935" lon="8.5319817"><ele>120.0</ele><time>2026-03-22T12:37:32.234Z</time></trkpt><trkpt lat="45.2992383" lon="8.5320133"><ele>120.0</ele><time>2026-03-22T12:37:33.234Z</time></trkpt><trkpt lat="45.2991433" lon="8.532035"><ele>120.0</ele><time>2026-03-22T12:37:34.234Z</time></trkpt><trkpt lat="45.299055" lon="8.5320633"><ele>120.0</ele><time>2026-03-22T12:37:35.234Z</time></trkpt><trkpt lat="45.29898" lon="8.532085"><ele>120.0</ele><time>2026-03-22T12:37:36.234Z</time></trkpt><trkpt lat="45.2988667" lon="8.532035"><ele>120.0</ele><time>2026-03-22T12:37:38.234Z</time></trkpt><trkpt lat="45.2988233" lon="8.531935"><ele>120.0</ele><time>2026-03-22T12:37:39.234Z</time></trkpt><trkpt lat="45.2987733" lon="8.53182"><ele>120.0</ele><time>2026-03-22T12:37:40.233Z</time></trkpt><trkpt lat="45.2987267" lon="8.5316967"><ele>118.5</ele><time>2026-03-22T12:37:41.234Z</time></trkpt><trkpt lat="45.298675" lon="8.531585"><ele>117.0</ele><time>2026-03-22T12:37:42.234Z</time></trkpt><trkpt lat="45.298615" lon="8.531455"><ele>115.5</ele><time>2026-03-22T12:37:43.234Z</time></trkpt><trkpt lat="45.2985533" lon="8.5313033"><ele>114.0</ele><time>2026-03-22T12:37:44.234Z</time></trkpt><trkpt lat="45.2984833" lon="8.5311433"><ele>113.75</ele><time>2026-03-22T12:37:45.234Z</time></trkpt><trkpt lat="45.29841" lon="8.5309867"><ele>113.5</ele><time>2026-03-22T12:37:46.234Z</time></trkpt><trkpt lat="45.2983333" lon="8.5308267"><ele>113.25</ele><time>2026-03-22T12:37:47.234Z</time></trkpt><trkpt lat="45.2982583" lon="8.5306767"><ele>113.0</ele><time>2026-03-22T12:37:48.234Z</time></trkpt><trkpt lat="45.298185" lon="8.5305217"><ele>113.0</ele><time>2026-03-22T12:37:49.234Z</time></trkpt><trkpt lat="45.2981183" lon="8.5303567"><ele>113.0</ele><time>2026-03-22T12:37:50.234Z</time></trkpt><trkpt lat="45.29804" lon="8.5301917"><ele>113.0</ele><time>2026-03-22T12:37:51.234Z</time></trkpt><trkpt lat="45.29797" lon="8.5300383"><ele>113.0</ele><time>2026-03-22T12:37:52.234Z</time></trkpt><trkpt lat="45.297905" lon="8.5298667"><ele>112.75</ele><time>2026-03-22T12:37:53.234Z</time></trkpt><trkpt lat="45.2978417" lon="8.5297067"><ele>112.5</ele><time>2026-03-22T12:37:54.234Z</time></trkpt><trkpt lat="45.2977733" lon="8.5295267"><ele>112.25</ele><time>2026-03-22T12:37:55.234Z</time></trkpt><trkpt lat="45.2977017" lon="8.5293467"><ele>112.0</ele><time>2026-03-22T12:37:56.234Z</time></trkpt><trkpt lat="45.297625" lon="8.52919"><ele>112.0</ele><time>2026-03-22T12:37:57.234Z</time></trkpt><trkpt lat="45.297535" lon="8.5290617"><ele>112.0</ele><time>2026-03-22T12:37:58.234Z</time></trkpt><trkpt lat="45.29744" lon="8.5289217"><ele>112.0</ele><time>2026-03-22T12:37:59.234Z</time></trkpt><trkpt lat="45.2973317" lon="8.528775"><ele>112.0</ele><time>2026-03-22T12:38:00.234Z</time></trkpt><trkpt lat="45.2972267" lon="8.5286467"><ele>111.66666666666667</ele><time>2026-03-22T12:38:01.234Z</time></trkpt><trkpt lat="45.2971167" lon="8.5285033"><ele>111.33333333333334</ele><time>2026-03-22T12:38:02.234Z</time></trkpt><trkpt lat="45.297005" lon="8.528355"><ele>111.0</ele><time>2026-03-22T12:38:03.235Z</time></trkpt><trkpt lat="45.2968933" lon="8.528215"><ele>111.0</ele><time>2026-03-22T12:38:04.234Z</time></trkpt><trkpt lat="45.2967767" lon="8.5280783"><ele>111.0</ele><time>2026-03-22T12:38:05.234Z</time></trkpt><trkpt lat="45.2966683" lon="8.5279283"><ele>111.0</ele><time>2026-03-22T12:38:06.234Z</time></trkpt><trkpt lat="45.2965633" lon="8.5277783"><ele>111.25</ele><time>2026-03-22T12:38:07.234Z</time></trkpt><trkpt lat="45.2964717" lon="8.5276183"><ele>111.5</ele><time>2026-03-22T12:38:08.234Z</time></trkpt><trkpt lat="45.2963767" lon="8.52745"><ele>111.75</ele><time>2026-03-22T12:38:09.234Z</time></trkpt><trkpt lat="45.296275" lon="8.52729"><ele>112.0</ele><time>2026-03-22T12:38:10.234Z</time></trkpt><trkpt lat="45.2961767" lon="8.52713"><ele>112.0</ele><time>2026-03-22T12:38:11.234Z</time></trkpt><trkpt lat="45.2960833" lon="8.5269683"><ele>112.0</ele><time>2026-03-22T12:38:12.234Z</time></trkpt><trkpt lat="45.2960033" lon="8.5268017"><ele>112.0</ele><time>2026-03-22T12:38:13.234Z</time></trkpt><trkpt lat="45.295925" lon="8.526655"><ele>112.0</ele><time>2026-03-22T12:38:14.234Z</time></trkpt><trkpt lat="45.2958467" lon="8.526525"><ele>112.00000000000001</ele><time>2026-03-22T12:38:15.234Z</time></trkpt><trkpt lat="45.295775" lon="8.526415"><ele>112.0</ele><time>2026-03-22T12:38:16.234Z</time></trkpt><trkpt lat="45.2957133" lon="8.526315"><ele>112.0</ele><time>2026-03-22T12:38:17.234Z</time></trkpt><trkpt lat="45.29565" lon="8.52624"><ele>112.0</ele><time>2026-03-22T12:38:18.234Z</time></trkpt><trkpt lat="45.295595" lon="8.526145"><ele>112.00000000000001</ele><time>2026-03-22T12:38:19.234Z</time></trkpt><trkpt lat="45.2955583" lon="8.5260467"><ele>112.0</ele><time>2026-03-22T12:38:20.234Z</time></trkpt><trkpt lat="45.2955383" lon="8.52593"><ele>112.39999999999999</ele><time>2026-03-22T12:38:21.234Z</time></trkpt><trkpt lat="45.2955383" lon="8.5258033"><ele>112.79999999999998</ele><time>2026-03-22T12:38:22.234Z</time></trkpt><trkpt lat="45.2955483" lon="8.525665"><ele>113.2</ele><time>2026-03-22T12:38:23.234Z</time></trkpt><trkpt lat="45.295565" lon="8.5255117"><ele>113.6</ele><time>2026-03-22T12:38:24.234Z</time></trkpt><trkpt lat="45.2955817" lon="8.5253567"><ele>114.0</ele><time>2026-03-22T12:38:25.234Z</time></trkpt><trkpt lat="45.2956133" lon="8.525205"><ele>114.0</ele><time>2026-03-22T12:38:26.234Z</time></trkpt><trkpt lat="45.2956467" lon="8.5250667"><ele>114.0</ele><time>2026-03-22T12:38:27.234Z</time></trkpt><trkpt lat="45.2956917" lon="8.5249483"><ele>114.0</ele><time>2026-03-22T12:38:28.234Z</time></trkpt><trkpt lat="45.295735" lon="8.5248567"><ele>114.0</ele><time>2026-03-22T12:38:29.234Z</time></trkpt><trkpt lat="45.2957933" lon="8.5247783"><ele>114.0</ele><time>2026-03-22T12:38:30.234Z</time></trkpt><trkpt lat="45.295855" lon="8.52473"><ele>114.0</ele><time>2026-03-22T12:38:31.234Z</time></trkpt><trkpt lat="45.2959317" lon="8.5246933"><ele>114.0</ele><time>2026-03-22T12:38:32.234Z</time></trkpt><trkpt lat="45.2960267" lon="8.5246667"><ele>114.0</ele><time>2026-03-22T12:38:33.234Z</time></trkpt><trkpt lat="45.2961217" lon="8.524645"><ele>114.0</ele><time>2026-03-22T12:38:34.234Z</time></trkpt><trkpt lat="45.29622" lon="8.524605"><ele>114.0</ele><time>2026-03-22T12:38:35.234Z</time></trkpt><trkpt lat="45.2963183" lon="8.524575"><ele>114.0</ele><time>2026-03-22T12:38:36.234Z</time></trkpt><trkpt lat="45.2964233" lon="8.52456"><ele>114.2</ele><time>2026-03-22T12:38:37.234Z</time></trkpt><trkpt lat="45.2965217" lon="8.5245433"><ele>114.4</ele><time>2026-03-22T12:38:38.234Z</time></trkpt><trkpt lat="45.2966233" lon="8.5244983"><ele>114.6</ele><time>2026-03-22T12:38:39.234Z</time></trkpt><trkpt lat="45.2967167" lon="8.5244483"><ele>114.8</ele><time>2026-03-22T12:38:40.234Z</time></trkpt><trkpt lat="45.2967983" lon="8.5244033"><ele>115.0</ele><time>2026-03-22T12:38:41.234Z</time></trkpt><trkpt lat="45.2968883" lon="8.5243333"><ele>115.0</ele><time>2026-03-22T12:38:42.234Z</time></trkpt><trkpt lat="45.2969817" lon="8.5242617"><ele>115.0</ele><time>2026-03-22T12:38:43.234Z</time></trkpt><trkpt lat="45.2970717" lon="8.524165"><ele>115.0</ele><time>2026-03-22T12:38:44.234Z</time></trkpt><trkpt lat="45.2971633" lon="8.5240717"><ele>115.0</ele><time>2026-03-22T12:38:45.234Z</time></trkpt><trkpt lat="45.2972567" lon="8.523985"><ele>115.0</ele><time>2026-03-22T12:38:46.234Z</time></trkpt><trkpt lat="45.2973417" lon="8.5239067"><ele>115.00000000000001</ele><time>2026-03-22T12:38:47.234Z</time></trkpt><trkpt lat="45.29741" lon="8.5238317"><ele>115.0</ele><time>2026-03-22T12:38:48.234Z</time></trkpt><trkpt lat="45.2974683" lon="8.5237767"><ele>115.0</ele><time>2026-03-22T12:38:49.234Z</time></trkpt><trkpt lat="45.2975233" lon="8.5237283"><ele>115.0</ele><time>2026-03-22T12:38:50.234Z</time></trkpt><trkpt lat="45.2975883" lon="8.5235867"><ele>115.00000000000001</ele><time>2026-03-22T12:38:52.234Z</time></trkpt><trkpt lat="45.29759" lon="8.5234733"><ele>115.0</ele><time>2026-03-22T12:38:53.234Z</time></trkpt><trkpt lat="45.2975717" lon="8.5233383"><ele>115.75</ele><time>2026-03-22T12:38:54.234Z</time></trkpt><trkpt lat="45.29754" lon="8.5231783"><ele>116.5</ele><time>2026-03-22T12:38:55.234Z</time></trkpt><trkpt lat="45.2975067" lon="8.523"><ele>117.25</ele><time>2026-03-22T12:38:56.234Z</time></trkpt><trkpt lat="45.297475" lon="8.5228017"><ele>118.0</ele><time>2026-03-22T12:38:57.234Z</time></trkpt><trkpt lat="45.29745" lon="8.5225867"><ele>118.0</ele><time>2026-03-22T12:38:58.234Z</time></trkpt><trkpt lat="45.29743" lon="8.5223517"><ele>118.0</ele><time>2026-03-22T12:38:59.234Z</time></trkpt><trkpt lat="45.2973917" lon="8.52213"><ele>118.0</ele><time>2026-03-22T12:39:00.234Z</time></trkpt><trkpt lat="45.2973533" lon="8.5219117"><ele>117.66666666666667</ele><time>2026-03-22T12:39:01.234Z</time></trkpt><trkpt lat="45.2973183" lon="8.521685"><ele>117.33333333333334</ele><time>2026-03-22T12:39:02.234Z</time></trkpt><trkpt lat="45.2972833" lon="8.5214733"><ele>117.0</ele><time>2026-03-22T12:39:03.234Z</time></trkpt><trkpt lat="45.2972533" lon="8.5212717"><ele>116.5</ele><time>2026-03-22T12:39:04.235Z</time></trkpt><trkpt lat="45.2972317" lon="8.5210717"><ele>116.0</ele><time>2026-03-22T12:39:05.234Z</time></trkpt><trkpt lat="45.2972" lon="8.5208983"><ele>115.5</ele><time>2026-03-22T12:39:06.234Z</time></trkpt><trkpt lat="45.2971733" lon="8.520745"><ele>115.0</ele><time>2026-03-22T12:39:07.234Z</time></trkpt><trkpt lat="45.2971467" lon="8.5206267"><ele>115.0</ele><time>2026-03-22T12:39:08.234Z</time></trkpt><trkpt lat="45.2971367" lon="8.52052"><ele>115.0</ele><time>2026-03-22T12:39:09.234Z</time></trkpt><trkpt lat="45.2971383" lon="8.5204283"><ele>115.0</ele><time>2026-03-22T12:39:10.234Z</time></trkpt><trkpt lat="45.297175" lon="8.520295"><ele>115.0</ele><time>2026-03-22T12:39:12.234Z</time></trkpt><trkpt lat="45.2972967" lon="8.5202833"><ele>115.0</ele><time>2026-03-22T12:39:14.234Z</time></trkpt><trkpt lat="45.2973933" lon="8.520315"><ele>114.5</ele><time>2026-03-22T12:39:15.234Z</time></trkpt><trkpt lat="45.2975" lon="8.5203333"><ele>114.0</ele><time>2026-03-22T12:39:16.234Z</time></trkpt><trkpt lat="45.2976117" lon="8.520365"><ele>113.5</ele><time>2026-03-22T12:39:17.234Z</time></trkpt><trkpt lat="45.2977267" lon="8.5203933"><ele>113.0</ele><time>2026-03-22T12:39:18.234Z</time></trkpt><trkpt lat="45.2978483" lon="8.5204317"><ele>113.0</ele><time>2026-03-22T12:39:19.234Z</time></trkpt><trkpt lat="45.2979767" lon="8.52046"><ele>113.0</ele><time>2026-03-22T12:39:20.234Z</time></trkpt><trkpt lat="45.2981017" lon="8.5204983"><ele>113.0</ele><time>2026-03-22T12:39:21.234Z</time></trkpt><trkpt lat="45.2982183" lon="8.5205317"><ele>113.0</ele><time>2026-03-22T12:39:22.234Z</time></trkpt><trkpt lat="45.2983283" lon="8.5205433"><ele>113.0</ele><time>2026-03-22T12:39:23.234Z</time></trkpt><trkpt lat="45.29843" lon="8.5205217"><ele>113.00000000000001</ele><time>2026-03-22T12:39:24.234Z</time></trkpt><trkpt lat="45.2985283" lon="8.52049"><ele>113.00000000000001</ele><time>2026-03-22T12:39:25.234Z</time></trkpt><trkpt lat="45.298625" lon="8.5204367"><ele>113.0</ele><time>2026-03-22T12:39:26.234Z</time></trkpt><trkpt lat="45.2987267" lon="8.52037"><ele>113.0</ele><time>2026-03-22T12:39:27.234Z</time></trkpt><trkpt lat="45.29883" lon="8.5203067"><ele>112.75</ele><time>2026-03-22T12:39:28.234Z</time></trkpt><trkpt lat="45.298935" lon="8.5202517"><ele>112.5</ele><time>2026-03-22T12:39:29.234Z</time></trkpt><trkpt lat="45.2990417" lon="8.5202017"><ele>112.25</ele><time>2026-03-22T12:39:30.234Z</time></trkpt><trkpt lat="45.2991567" lon="8.5201367"><ele>112.0</ele><time>2026-03-22T12:39:31.234Z</time></trkpt><trkpt lat="45.2992683" lon="8.5200633"><ele>112.0</ele><time>2026-03-22T12:39:32.234Z</time></trkpt><trkpt lat="45.299375" lon="8.5199667"><ele>112.0</ele><time>2026-03-22T12:39:33.234Z</time></trkpt><trkpt lat="45.2994717" lon="8.5198367"><ele>112.0</ele><time>2026-03-22T12:39:34.234Z</time></trkpt><trkpt lat="45.2995533" lon="8.519695"><ele>112.0</ele><time>2026-03-22T12:39:35.234Z</time></trkpt><trkpt lat="45.2996383" lon="8.5195467"><ele>112.0</ele><time>2026-03-22T12:39:36.234Z</time></trkpt><trkpt lat="45.2997117" lon="8.5193967"><ele>112.0</ele><time>2026-03-22T12:39:37.234Z</time></trkpt><trkpt lat="45.2997983" lon="8.5192533"><ele>112.0</ele><time>2026-03-22T12:39:38.234Z</time></trkpt><trkpt lat="45.2998883" lon="8.519105"><ele>112.0</ele><time>2026-03-22T12:39:39.234Z</time></trkpt><trkpt lat="45.2999733" lon="8.5189683"><ele>112.25</ele><time>2026-03-22T12:39:40.234Z</time></trkpt><trkpt lat="45.3000683" lon="8.5188267"><ele>112.5</ele><time>2026-03-22T12:39:41.234Z</time></trkpt><trkpt lat="45.3001583" lon="8.5186917"><ele>112.75</ele><time>2026-03-22T12:39:42.234Z</time></trkpt><trkpt lat="45.300245" lon="8.518545"><ele>113.0</ele><time>2026-03-22T12:39:43.234Z</time></trkpt><trkpt lat="45.3003317" lon="8.5184017"><ele>113.0</ele><time>2026-03-22T12:39:44.234Z</time></trkpt><trkpt lat="45.3004167" lon="8.5182633"><ele>113.0</ele><time>2026-03-22T12:39:45.234Z</time></trkpt><trkpt lat="45.3005017" lon="8.5181167"><ele>113.0</ele><time>2026-03-22T12:39:46.234Z</time></trkpt><trkpt lat="45.3005767" lon="8.5179533"><ele>113.0</ele><time>2026-03-22T12:39:47.234Z</time></trkpt><trkpt lat="45.3006217" lon="8.5178017"><ele>113.0</ele><time>2026-03-22T12:39:48.234Z</time></trkpt><trkpt lat="45.3006517" lon="8.5176133"><ele>113.0</ele><time>2026-03-22T12:39:49.234Z</time></trkpt><trkpt lat="45.3006667" lon="8.5174233"><ele>113.0</ele><time>2026-03-22T12:39:50.234Z</time></trkpt><trkpt lat="45.3006867" lon="8.5172383"><ele>113.0</ele><time>2026-03-22T12:39:51.234Z</time></trkpt><trkpt lat="45.3007067" lon="8.5170467"><ele>113.25</ele><time>2026-03-22T12:39:52.234Z</time></trkpt><trkpt lat="45.30073" lon="8.5168667"><ele>113.5</ele><time>2026-03-22T12:39:53.234Z</time></trkpt><trkpt lat="45.30076" lon="8.5166767"><ele>113.75</ele><time>2026-03-22T12:39:54.234Z</time></trkpt><trkpt lat="45.3007883" lon="8.5165"><ele>114.0</ele><time>2026-03-22T12:39:55.234Z</time></trkpt><trkpt lat="45.30081" lon="8.5163133"><ele>114.25</ele><time>2026-03-22T12:39:56.234Z</time></trkpt><trkpt lat="45.3008317" lon="8.516135"><ele>114.5</ele><time>2026-03-22T12:39:57.234Z</time></trkpt><trkpt lat="45.3008617" lon="8.5159517"><ele>114.75</ele><time>2026-03-22T12:39:58.234Z</time></trkpt><trkpt lat="45.3009067" lon="8.5157733"><ele>115.0</ele><time>2026-03-22T12:39:59.234Z</time></trkpt><trkpt lat="45.3009617" lon="8.5156117"><ele>115.0</ele><time>2026-03-22T12:40:00.234Z</time></trkpt><trkpt lat="45.3010317" lon="8.51547"><ele>115.0</ele><time>2026-03-22T12:40:01.234Z</time></trkpt><trkpt lat="45.3011083" lon="8.515335"><ele>115.0</ele><time>2026-03-22T12:40:02.234Z</time></trkpt><trkpt lat="45.30119" lon="8.5151783"><ele>115.0</ele><time>2026-03-22T12:40:03.234Z</time></trkpt><trkpt lat="45.3012667" lon="8.51503"><ele>115.5</ele><time>2026-03-22T12:40:04.234Z</time></trkpt><trkpt lat="45.3013383" lon="8.5148733"><ele>116.0</ele><time>2026-03-22T12:40:05.234Z</time></trkpt><trkpt lat="45.30143" lon="8.51473"><ele>116.5</ele><time>2026-03-22T12:40:06.234Z</time></trkpt><trkpt lat="45.3015183" lon="8.5145817"><ele>117.0</ele><time>2026-03-22T12:40:07.234Z</time></trkpt><trkpt lat="45.3016117" lon="8.51442"><ele>117.75</ele><time>2026-03-22T12:40:08.234Z</time></trkpt><trkpt lat="45.301695" lon="8.5142483"><ele>118.5</ele><time>2026-03-22T12:40:09.234Z</time></trkpt><trkpt lat="45.301765" lon="8.5140967"><ele>119.25</ele><time>2026-03-22T12:40:10.234Z</time></trkpt><trkpt lat="45.30182" lon="8.5139533"><ele>120.0</ele><time>2026-03-22T12:40:11.234Z</time></trkpt><trkpt lat="45.301865" lon="8.51382"><ele>119.8</ele><time>2026-03-22T12:40:12.234Z</time></trkpt><trkpt lat="45.3019" lon="8.5136883"><ele>119.6</ele><time>2026-03-22T12:40:13.234Z</time></trkpt><trkpt lat="45.3019367" lon="8.513565"><ele>119.4</ele><time>2026-03-22T12:40:14.234Z</time></trkpt><trkpt lat="45.301965" lon="8.5134483"><ele>119.2</ele><time>2026-03-22T12:40:15.234Z</time></trkpt><trkpt lat="45.30199" lon="8.5133233"><ele>119.0</ele><time>2026-03-22T12:40:16.234Z</time></trkpt><trkpt lat="45.3020183" lon="8.5132"><ele>119.0</ele><time>2026-03-22T12:40:17.234Z</time></trkpt><trkpt lat="45.3020533" lon="8.5130683"><ele>119.0</ele><time>2026-03-22T12:40:18.234Z</time></trkpt><trkpt lat="45.3020883" lon="8.5129383"><ele>119.0</ele><time>2026-03-22T12:40:19.234Z</time></trkpt><trkpt lat="45.3021283" lon="8.5127883"><ele>119.0</ele><time>2026-03-22T12:40:20.234Z</time></trkpt><trkpt lat="45.302165" lon="8.5126367"><ele>119.0</ele><time>2026-03-22T12:40:21.234Z</time></trkpt><trkpt lat="45.3022" lon="8.5124817"><ele>119.0</ele><time>2026-03-22T12:40:22.234Z</time></trkpt><trkpt lat="45.3022383" lon="8.512315"><ele>119.0</ele><time>2026-03-22T12:40:23.234Z</time></trkpt><trkpt lat="45.3022767" lon="8.5121533"><ele>119.0</ele><time>2026-03-22T12:40:24.234Z</time></trkpt><trkpt lat="45.3023183" lon="8.51198"><ele>119.0</ele><time>2026-03-22T12:40:25.234Z</time></trkpt><trkpt lat="45.3023683" lon="8.5117933"><ele>119.0</ele><time>2026-03-22T12:40:26.234Z</time></trkpt><trkpt lat="45.3024083" lon="8.5116133"><ele>119.0</ele><time>2026-03-22T12:40:27.234Z</time></trkpt><trkpt lat="45.3024583" lon="8.5114317"><ele>119.0</ele><time>2026-03-22T12:40:28.234Z</time></trkpt><trkpt lat="45.3025117" lon="8.5112417"><ele>119.0</ele><time>2026-03-22T12:40:29.234Z</time></trkpt><trkpt lat="45.30256" lon="8.5110533"><ele>118.33333333333333</ele><time>2026-03-22T12:40:30.234Z</time></trkpt><trkpt lat="45.3026633" lon="8.5106783"><ele>117.66666666666666</ele><time>2026-03-22T12:40:32.234Z</time></trkpt><trkpt lat="45.3027117" lon="8.510495"><ele>117.0</ele><time>2026-03-22T12:40:33.234Z</time></trkpt><trkpt lat="45.302765" lon="8.5103017"><ele>117.0</ele><time>2026-03-22T12:40:34.234Z</time></trkpt><trkpt lat="45.3028083" lon="8.510115"><ele>117.0</ele><time>2026-03-22T12:40:35.234Z</time></trkpt><trkpt lat="45.3028567" lon="8.5099317"><ele>117.0</ele><time>2026-03-22T12:40:36.234Z</time></trkpt><trkpt lat="45.3029067" lon="8.5097433"><ele>117.0</ele><time>2026-03-22T12:40:37.234Z</time></trkpt><trkpt lat="45.3029533" lon="8.5095617"><ele>117.0</ele><time>2026-03-22T12:40:38.234Z</time></trkpt><trkpt lat="45.3029967" lon="8.50939"><ele>117.0</ele><time>2026-03-22T12:40:39.234Z</time></trkpt><trkpt lat="45.3030433" lon="8.5092183"><ele>117.0</ele><time>2026-03-22T12:40:40.234Z</time></trkpt><trkpt lat="45.3030867" lon="8.50904"><ele>117.0</ele><time>2026-03-22T12:40:41.234Z</time></trkpt><trkpt lat="45.3031267" lon="8.508865"><ele>117.0</ele><time>2026-03-22T12:40:42.234Z</time></trkpt><trkpt lat="45.303175" lon="8.5087"><ele>117.0</ele><time>2026-03-22T12:40:43.234Z</time></trkpt><trkpt lat="45.3032167" lon="8.5085267"><ele>117.0</ele><time>2026-03-22T12:40:44.234Z</time></trkpt><trkpt lat="45.3032617" lon="8.5083483"><ele>117.0</ele><time>2026-03-22T12:40:45.234Z</time></trkpt><trkpt lat="45.3033083" lon="8.5081767"><ele>117.0</ele><time>2026-03-22T12:40:46.234Z</time></trkpt><trkpt lat="45.3033633" lon="8.5079933"><ele>117.0</ele><time>2026-03-22T12:40:47.234Z</time></trkpt><trkpt lat="45.3034033" lon="8.5078067"><ele>117.0</ele><time>2026-03-22T12:40:48.234Z</time></trkpt><trkpt lat="45.3034483" lon="8.507625"><ele>117.0</ele><time>2026-03-22T12:40:49.234Z</time></trkpt><trkpt lat="45.30349" lon="8.507445"><ele>117.0</ele><time>2026-03-22T12:40:50.234Z</time></trkpt><trkpt lat="45.3035333" lon="8.5072733"><ele>117.0</ele><time>2026-03-22T12:40:51.234Z</time></trkpt><trkpt lat="45.3035783" lon="8.5071033"><ele>117.0</ele><time>2026-03-22T12:40:52.234Z</time></trkpt><trkpt lat="45.303625" lon="8.50694"><ele>117.0</ele><time>2026-03-22T12:40:53.234Z</time></trkpt><trkpt lat="45.3036783" lon="8.5067483"><ele>117.0</ele><time>2026-03-22T12:40:54.234Z</time></trkpt><trkpt lat="45.3037317" lon="8.5065633"><ele>117.0</ele><time>2026-03-22T12:40:55.234Z</time></trkpt><trkpt lat="45.3037867" lon="8.5063633"><ele>117.0</ele><time>2026-03-22T12:40:56.234Z</time></trkpt><trkpt lat="45.3038233" lon="8.506165"><ele>117.0</ele><time>2026-03-22T12:40:57.234Z</time></trkpt><trkpt lat="45.3038733" lon="8.50597"><ele>116.75</ele><time>2026-03-22T12:40:58.234Z</time></trkpt><trkpt lat="45.303925" lon="8.50577"><ele>116.5</ele><time>2026-03-22T12:40:59.234Z</time></trkpt><trkpt lat="45.3039667" lon="8.5055817"><ele>116.25</ele><time>2026-03-22T12:41:00.234Z</time></trkpt><trkpt lat="45.3040283" lon="8.505385"><ele>116.0</ele><time>2026-03-22T12:41:01.234Z</time></trkpt><trkpt lat="45.30408" lon="8.5051867"><ele>115.5</ele><time>2026-03-22T12:41:02.234Z</time></trkpt><trkpt lat="45.3041167" lon="8.5049783"><ele>115.0</ele><time>2026-03-22T12:41:03.234Z</time></trkpt><trkpt lat="45.304145" lon="8.504775"><ele>114.5</ele><time>2026-03-22T12:41:04.234Z</time></trkpt><trkpt lat="45.304175" lon="8.5045667"><ele>114.0</ele><time>2026-03-22T12:41:05.234Z</time></trkpt><trkpt lat="45.3042" lon="8.5043617"><ele>114.0</ele><time>2026-03-22T12:41:06.234Z</time></trkpt><trkpt lat="45.3042267" lon="8.5041567"><ele>114.0</ele><time>2026-03-22T12:41:07.234Z</time></trkpt><trkpt lat="45.3042633" lon="8.5039617"><ele>114.0</ele><time>2026-03-22T12:41:08.234Z</time></trkpt><trkpt lat="45.3043" lon="8.5037683"><ele>114.0</ele><time>2026-03-22T12:41:09.234Z</time></trkpt><trkpt lat="45.30434" lon="8.5035683"><ele>113.75</ele><time>2026-03-22T12:41:10.234Z</time></trkpt><trkpt lat="45.3043667" lon="8.5033633"><ele>113.5</ele><time>2026-03-22T12:41:11.234Z</time></trkpt><trkpt lat="45.3043933" lon="8.5031717"><ele>113.25</ele><time>2026-03-22T12:41:12.234Z</time></trkpt><trkpt lat="45.3044083" lon="8.5029633"><ele>113.0</ele><time>2026-03-22T12:41:13.234Z</time></trkpt><trkpt lat="45.30443" lon="8.5027683"><ele>113.0</ele><time>2026-03-22T12:41:14.234Z</time></trkpt><trkpt lat="45.3044433" lon="8.5025583"><ele>113.0</ele><time>2026-03-22T12:41:15.234Z</time></trkpt><trkpt lat="45.3044533" lon="8.5023633"><ele>113.0</ele><time>2026-03-22T12:41:16.234Z</time></trkpt><trkpt lat="45.3044533" lon="8.5021583"><ele>113.0</ele><time>2026-03-22T12:41:17.234Z</time></trkpt><trkpt lat="45.30445" lon="8.501945"><ele>113.0</ele><time>2026-03-22T12:41:18.234Z</time></trkpt><trkpt lat="45.304435" lon="8.5017483"><ele>113.0</ele><time>2026-03-22T12:41:19.234Z</time></trkpt><trkpt lat="45.3044183" lon="8.5015367"><ele>113.0</ele><time>2026-03-22T12:41:20.234Z</time></trkpt><trkpt lat="45.3044033" lon="8.5013367"><ele>113.0</ele><time>2026-03-22T12:41:21.234Z</time></trkpt><trkpt lat="45.3043883" lon="8.5011333"><ele>113.0</ele><time>2026-03-22T12:41:22.234Z</time></trkpt><trkpt lat="45.30437" lon="8.50092"><ele>113.0</ele><time>2026-03-22T12:41:23.234Z</time></trkpt><trkpt lat="45.3043567" lon="8.5007067"><ele>113.0</ele><time>2026-03-22T12:41:24.234Z</time></trkpt><trkpt lat="45.30434" lon="8.5004983"><ele>113.0</ele><time>2026-03-22T12:41:25.234Z</time></trkpt><trkpt lat="45.3043167" lon="8.5002867"><ele>113.33333333333333</ele><time>2026-03-22T12:41:26.234Z</time></trkpt><trkpt lat="45.3042933" lon="8.5000717"><ele>113.66666666666666</ele><time>2026-03-22T12:41:27.234Z</time></trkpt><trkpt lat="45.3042817" lon="8.4998533"><ele>114.0</ele><time>2026-03-22T12:41:28.234Z</time></trkpt><trkpt lat="45.3042617" lon="8.499635"><ele>114.0</ele><time>2026-03-22T12:41:29.234Z</time></trkpt><trkpt lat="45.3042567" lon="8.4994117"><ele>114.0</ele><time>2026-03-22T12:41:30.233Z</time></trkpt><trkpt lat="45.3042517" lon="8.4991867"><ele>114.0</ele><time>2026-03-22T12:41:31.233Z</time></trkpt><trkpt lat="45.304225" lon="8.49897"><ele>114.0</ele><time>2026-03-22T12:41:32.233Z</time></trkpt><trkpt lat="45.3042083" lon="8.4987467"><ele>114.0</ele><time>2026-03-22T12:41:33.233Z</time></trkpt><trkpt lat="45.3041967" lon="8.4985383"><ele>114.0</ele><time>2026-03-22T12:41:34.233Z</time></trkpt><trkpt lat="45.30418" lon="8.4983317"><ele>114.0</ele><time>2026-03-22T12:41:35.233Z</time></trkpt><trkpt lat="45.3041467" lon="8.4981417"><ele>114.0</ele><time>2026-03-22T12:41:36.233Z</time></trkpt><trkpt lat="45.304095" lon="8.4979467"><ele>114.0</ele><time>2026-03-22T12:41:37.233Z</time></trkpt><trkpt lat="45.3039883" lon="8.49757"><ele>113.75</ele><time>2026-03-22T12:41:39.233Z</time></trkpt><trkpt lat="45.30393" lon="8.4973833"><ele>113.5</ele><time>2026-03-22T12:41:40.233Z</time></trkpt><trkpt lat="45.30387" lon="8.4971933"><ele>113.25</ele><time>2026-03-22T12:41:41.233Z</time></trkpt><trkpt lat="45.3038117" lon="8.4970067"><ele>113.0</ele><time>2026-03-22T12:41:42.233Z</time></trkpt><trkpt lat="45.3037567" lon="8.4968183"><ele>113.25</ele><time>2026-03-22T12:41:43.233Z</time></trkpt><trkpt lat="45.303705" lon="8.496625"><ele>113.5</ele><time>2026-03-22T12:41:44.233Z</time></trkpt><trkpt lat="45.30365" lon="8.49644"><ele>113.75</ele><time>2026-03-22T12:41:45.233Z</time></trkpt><trkpt lat="45.30359" lon="8.49625"><ele>114.0</ele><time>2026-03-22T12:41:46.233Z</time></trkpt><trkpt lat="45.3035333" lon="8.4960667"><ele>114.0</ele><time>2026-03-22T12:41:47.233Z</time></trkpt><trkpt lat="45.303475" lon="8.4958867"><ele>114.0</ele><time>2026-03-22T12:41:48.233Z</time></trkpt><trkpt lat="45.3034233" lon="8.4957033"><ele>114.0</ele><time>2026-03-22T12:41:49.233Z</time></trkpt><trkpt lat="45.303375" lon="8.49551"><ele>114.0</ele><time>2026-03-22T12:41:50.233Z</time></trkpt><trkpt lat="45.303325" lon="8.4953133"><ele>114.0</ele><time>2026-03-22T12:41:51.233Z</time></trkpt><trkpt lat="45.3032817" lon="8.495115"><ele>114.0</ele><time>2026-03-22T12:41:52.233Z</time></trkpt><trkpt lat="45.30324" lon="8.4949133"><ele>114.0</ele><time>2026-03-22T12:41:53.233Z</time></trkpt><trkpt lat="45.303205" lon="8.4947183"><ele>114.0</ele><time>2026-03-22T12:41:54.233Z</time></trkpt><trkpt lat="45.303185" lon="8.4945167"><ele>114.0</ele><time>2026-03-22T12:41:55.233Z</time></trkpt><trkpt lat="45.3031733" lon="8.4943067"><ele>114.0</ele><time>2026-03-22T12:41:56.233Z</time></trkpt><trkpt lat="45.3031767" lon="8.49409"><ele>114.0</ele><time>2026-03-22T12:41:57.233Z</time></trkpt><trkpt lat="45.3031817" lon="8.4938917"><ele>114.0</ele><time>2026-03-22T12:41:58.233Z</time></trkpt><trkpt lat="45.3031917" lon="8.4936717"><ele>114.25</ele><time>2026-03-22T12:41:59.233Z</time></trkpt><trkpt lat="45.303205" lon="8.4934583"><ele>114.5</ele><time>2026-03-22T12:42:00.233Z</time></trkpt><trkpt lat="45.3032217" lon="8.493255"><ele>114.75</ele><time>2026-03-22T12:42:01.233Z</time></trkpt><trkpt lat="45.3032383" lon="8.4930583"><ele>115.0</ele><time>2026-03-22T12:42:02.233Z</time></trkpt><trkpt lat="45.3032567" lon="8.4928583"><ele>115.0</ele><time>2026-03-22T12:42:03.233Z</time></trkpt><trkpt lat="45.3032767" lon="8.4926533"><ele>115.0</ele><time>2026-03-22T12:42:04.233Z</time></trkpt><trkpt lat="45.3032933" lon="8.492445"><ele>115.0</ele><time>2026-03-22T12:42:05.233Z</time></trkpt><trkpt lat="45.3032983" lon="8.492235"><ele>115.0</ele><time>2026-03-22T12:42:06.233Z</time></trkpt><trkpt lat="45.30331" lon="8.4920217"><ele>115.25</ele><time>2026-03-22T12:42:07.233Z</time></trkpt><trkpt lat="45.30332" lon="8.4918133"><ele>115.5</ele><time>2026-03-22T12:42:08.233Z</time></trkpt><trkpt lat="45.303335" lon="8.4916117"><ele>115.75</ele><time>2026-03-22T12:42:09.233Z</time></trkpt><trkpt lat="45.3033433" lon="8.4914067"><ele>116.0</ele><time>2026-03-22T12:42:10.233Z</time></trkpt><trkpt lat="45.3033583" lon="8.4912033"><ele>115.75</ele><time>2026-03-22T12:42:11.233Z</time></trkpt><trkpt lat="45.3033667" lon="8.4909933"><ele>115.5</ele><time>2026-03-22T12:42:12.233Z</time></trkpt><trkpt lat="45.3033783" lon="8.4907767"><ele>115.25</ele><time>2026-03-22T12:42:13.233Z</time></trkpt><trkpt lat="45.3033917" lon="8.4905667"><ele>115.0</ele><time>2026-03-22T12:42:14.233Z</time></trkpt><trkpt lat="45.3034117" lon="8.49036"><ele>115.0</ele><time>2026-03-22T12:42:15.233Z</time></trkpt><trkpt lat="45.3034267" lon="8.49014"><ele>115.0</ele><time>2026-03-22T12:42:16.233Z</time></trkpt><trkpt lat="45.3034333" lon="8.48993"><ele>115.0</ele><time>2026-03-22T12:42:17.233Z</time></trkpt><trkpt lat="45.3034467" lon="8.48971"><ele>115.33333333333334</ele><time>2026-03-22T12:42:18.233Z</time></trkpt><trkpt lat="45.30346" lon="8.4894833"><ele>115.66666666666666</ele><time>2026-03-22T12:42:19.233Z</time></trkpt><trkpt lat="45.30348" lon="8.489265"><ele>116.0</ele><time>2026-03-22T12:42:20.233Z</time></trkpt><trkpt lat="45.3034967" lon="8.4890667"><ele>116.0</ele><time>2026-03-22T12:42:21.233Z</time></trkpt><trkpt lat="45.3035283" lon="8.48888"><ele>116.0</ele><time>2026-03-22T12:42:22.233Z</time></trkpt><trkpt lat="45.303575" lon="8.488695"><ele>116.0</ele><time>2026-03-22T12:42:23.234Z</time></trkpt><trkpt lat="45.3036317" lon="8.4885167"><ele>116.0</ele><time>2026-03-22T12:42:24.233Z</time></trkpt><trkpt lat="45.3037017" lon="8.4883517"><ele>116.0</ele><time>2026-03-22T12:42:25.233Z</time></trkpt><trkpt lat="45.3037867" lon="8.4882083"><ele>116.0</ele><time>2026-03-22T12:42:26.233Z</time></trkpt><trkpt lat="45.3038783" lon="8.4880783"><ele>116.0</ele><time>2026-03-22T12:42:27.233Z</time></trkpt><trkpt lat="45.3039717" lon="8.4879467"><ele>116.0</ele><time>2026-03-22T12:42:28.233Z</time></trkpt><trkpt lat="45.30408" lon="8.4878233"><ele>116.0</ele><time>2026-03-22T12:42:29.233Z</time></trkpt><trkpt lat="45.3042017" lon="8.4877033"><ele>116.0</ele><time>2026-03-22T12:42:30.233Z</time></trkpt><trkpt lat="45.3043317" lon="8.487585"><ele>116.0</ele><time>2026-03-22T12:42:31.233Z</time></trkpt><trkpt lat="45.3044567" lon="8.4874783"><ele>116.0</ele><time>2026-03-22T12:42:32.233Z</time></trkpt><trkpt lat="45.3045833" lon="8.48738"><ele>116.0</ele><time>2026-03-22T12:42:33.233Z</time></trkpt><trkpt lat="45.304715" lon="8.4872883"><ele>116.0</ele><time>2026-03-22T12:42:34.233Z</time></trkpt><trkpt lat="45.30485" lon="8.4871967"><ele>116.0</ele><time>2026-03-22T12:42:35.233Z</time></trkpt><trkpt lat="45.3049767" lon="8.4870967"><ele>116.0</ele><time>2026-03-22T12:42:36.233Z</time></trkpt><trkpt lat="45.3051033" lon="8.487"><ele>116.25</ele><time>2026-03-22T12:42:37.233Z</time></trkpt><trkpt lat="45.305235" lon="8.4869133"><ele>116.5</ele><time>2026-03-22T12:42:38.233Z</time></trkpt><trkpt lat="45.3053633" lon="8.486825"><ele>116.75</ele><time>2026-03-22T12:42:39.233Z</time></trkpt><trkpt lat="45.30548" lon="8.4867433"><ele>117.0</ele><time>2026-03-22T12:42:40.233Z</time></trkpt><trkpt lat="45.3055883" lon="8.486665"><ele>117.39999999999999</ele><time>2026-03-22T12:42:41.233Z</time></trkpt><trkpt lat="45.3056883" lon="8.4865917"><ele>117.79999999999998</ele><time>2026-03-22T12:42:42.233Z</time></trkpt><trkpt lat="45.305785" lon="8.4865283"><ele>118.2</ele><time>2026-03-22T12:42:43.233Z</time></trkpt><trkpt lat="45.3058767" lon="8.4864717"><ele>118.6</ele><time>2026-03-22T12:42:44.233Z</time></trkpt><trkpt lat="45.30597" lon="8.4864033"><ele>119.0</ele><time>2026-03-22T12:42:45.233Z</time></trkpt><trkpt lat="45.3060667" lon="8.4863283"><ele>119.0</ele><time>2026-03-22T12:42:46.233Z</time></trkpt><trkpt lat="45.3061533" lon="8.48626"><ele>119.0</ele><time>2026-03-22T12:42:47.233Z</time></trkpt><trkpt lat="45.306245" lon="8.486195"><ele>119.0</ele><time>2026-03-22T12:42:48.233Z</time></trkpt><trkpt lat="45.30634" lon="8.4861367"><ele>119.0</ele><time>2026-03-22T12:42:49.233Z</time></trkpt><trkpt lat="45.3064333" lon="8.4860933"><ele>119.0</ele><time>2026-03-22T12:42:50.233Z</time></trkpt><trkpt lat="45.3065267" lon="8.48605"><ele>119.0</ele><time>2026-03-22T12:42:51.233Z</time></trkpt><trkpt lat="45.30662" lon="8.4860067"><ele>119.0</ele><time>2026-03-22T12:42:52.233Z</time></trkpt><trkpt lat="45.3067117" lon="8.485965"><ele>119.0</ele><time>2026-03-22T12:42:53.233Z</time></trkpt><trkpt lat="45.3068" lon="8.4859083"><ele>119.0</ele><time>2026-03-22T12:42:54.233Z</time></trkpt><trkpt lat="45.3068817" lon="8.4858433"><ele>119.0</ele><time>2026-03-22T12:42:55.233Z</time></trkpt><trkpt lat="45.3069783" lon="8.4857867"><ele>119.0</ele><time>2026-03-22T12:42:56.233Z</time></trkpt><trkpt lat="45.3070767" lon="8.4857333"><ele>119.0</ele><time>2026-03-22T12:42:57.233Z</time></trkpt><trkpt lat="45.30718" lon="8.485675"><ele>119.0</ele><time>2026-03-22T12:42:58.234Z</time></trkpt><trkpt lat="45.3072883" lon="8.4856067"><ele>119.0</ele><time>2026-03-22T12:42:59.233Z</time></trkpt><trkpt lat="45.3074017" lon="8.4855417"><ele>118.5</ele><time>2026-03-22T12:43:00.233Z</time></trkpt><trkpt lat="45.3075183" lon="8.4854733"><ele>118.0</ele><time>2026-03-22T12:43:01.233Z</time></trkpt><trkpt lat="45.307625" lon="8.4854033"><ele>117.5</ele><time>2026-03-22T12:43:02.233Z</time></trkpt><trkpt lat="45.30774" lon="8.48533"><ele>117.0</ele><time>2026-03-22T12:43:03.233Z</time></trkpt><trkpt lat="45.3078567" lon="8.4852483"><ele>117.0</ele><time>2026-03-22T12:43:04.233Z</time></trkpt><trkpt lat="45.3079717" lon="8.485165"><ele>117.0</ele><time>2026-03-22T12:43:05.233Z</time></trkpt><trkpt lat="45.3080867" lon="8.4850883"><ele>117.0</ele><time>2026-03-22T12:43:06.233Z</time></trkpt><trkpt lat="45.3081983" lon="8.4849983"><ele>117.0</ele><time>2026-03-22T12:43:07.233Z</time></trkpt><trkpt lat="45.3082967" lon="8.4848883"><ele>117.0</ele><time>2026-03-22T12:43:08.233Z</time></trkpt><trkpt lat="45.308385" lon="8.484755"><ele>117.0</ele><time>2026-03-22T12:43:09.233Z</time></trkpt><trkpt lat="45.3084717" lon="8.4846067"><ele>117.0</ele><time>2026-03-22T12:43:10.233Z</time></trkpt><trkpt lat="45.308535" lon="8.4844383"><ele>117.0</ele><time>2026-03-22T12:43:11.233Z</time></trkpt><trkpt lat="45.308595" lon="8.484275"><ele>117.0</ele><time>2026-03-22T12:43:12.233Z</time></trkpt><trkpt lat="45.30865" lon="8.4841017"><ele>117.0</ele><time>2026-03-22T12:43:13.233Z</time></trkpt><trkpt lat="45.3087117" lon="8.4839283"><ele>117.0</ele><time>2026-03-22T12:43:14.233Z</time></trkpt><trkpt lat="45.3087633" lon="8.4837533"><ele>117.0</ele><time>2026-03-22T12:43:15.233Z</time></trkpt><trkpt lat="45.30882" lon="8.4835783"><ele>117.0</ele><time>2026-03-22T12:43:16.233Z</time></trkpt><trkpt lat="45.3088683" lon="8.4834133"><ele>117.0</ele><time>2026-03-22T12:43:17.233Z</time></trkpt><trkpt lat="45.30892" lon="8.4832583"><ele>117.0</ele><time>2026-03-22T12:43:18.233Z</time></trkpt><trkpt lat="45.3089617" lon="8.483105"><ele>117.0</ele><time>2026-03-22T12:43:19.233Z</time></trkpt><trkpt lat="45.309005" lon="8.4829667"><ele>117.0</ele><time>2026-03-22T12:43:20.233Z</time></trkpt><trkpt lat="45.30904" lon="8.4828167"><ele>117.0</ele><time>2026-03-22T12:43:21.233Z</time></trkpt><trkpt lat="45.3090833" lon="8.48267"><ele>117.0</ele><time>2026-03-22T12:43:22.233Z</time></trkpt><trkpt lat="45.309135" lon="8.482505"><ele>117.0</ele><time>2026-03-22T12:43:23.233Z</time></trkpt><trkpt lat="45.3091833" lon="8.4823417"><ele>117.0</ele><time>2026-03-22T12:43:24.233Z</time></trkpt><trkpt lat="45.3092317" lon="8.482165"><ele>117.0</ele><time>2026-03-22T12:43:25.233Z</time></trkpt><trkpt lat="45.3092783" lon="8.48199"><ele>117.0</ele><time>2026-03-22T12:43:26.233Z</time></trkpt><trkpt lat="45.3093283" lon="8.4818167"><ele>117.0</ele><time>2026-03-22T12:43:27.233Z</time></trkpt><trkpt lat="45.3093817" lon="8.4816383"><ele>117.0</ele><time>2026-03-22T12:43:28.233Z</time></trkpt><trkpt lat="45.30944" lon="8.4814517"><ele>117.0</ele><time>2026-03-22T12:43:29.233Z</time></trkpt><trkpt lat="45.309505" lon="8.481265"><ele>117.0</ele><time>2026-03-22T12:43:30.233Z</time></trkpt><trkpt lat="45.3095633" lon="8.4810833"><ele>117.0</ele><time>2026-03-22T12:43:31.233Z</time></trkpt><trkpt lat="45.3096217" lon="8.480895"><ele>117.0</ele><time>2026-03-22T12:43:32.233Z</time></trkpt><trkpt lat="45.3096783" lon="8.4807067"><ele>117.0</ele><time>2026-03-22T12:43:33.233Z</time></trkpt><trkpt lat="45.30974" lon="8.48051"><ele>117.0</ele><time>2026-03-22T12:43:34.233Z</time></trkpt><trkpt lat="45.3098" lon="8.4803183"><ele>117.0</ele><time>2026-03-22T12:43:35.233Z</time></trkpt><trkpt lat="45.3098567" lon="8.480125"><ele>117.0</ele><time>2026-03-22T12:43:36.233Z</time></trkpt><trkpt lat="45.3099117" lon="8.479925"><ele>117.0</ele><time>2026-03-22T12:43:37.233Z</time></trkpt><trkpt lat="45.3100233" lon="8.4795417"><ele>117.0</ele><time>2026-03-22T12:43:39.233Z</time></trkpt><trkpt lat="45.3100833" lon="8.479365"><ele>117.0</ele><time>2026-03-22T12:43:40.233Z</time></trkpt><trkpt lat="45.3101383" lon="8.47919"><ele>117.0</ele><time>2026-03-22T12:43:41.233Z</time></trkpt><trkpt lat="45.310195" lon="8.47902"><ele>117.0</ele><time>2026-03-22T12:43:42.233Z</time></trkpt><trkpt lat="45.3102517" lon="8.4788383"><ele>117.0</ele><time>2026-03-22T12:43:43.233Z</time></trkpt><trkpt lat="45.3103" lon="8.4786567"><ele>117.75</ele><time>2026-03-22T12:43:44.233Z</time></trkpt><trkpt lat="45.3103533" lon="8.478475"><ele>118.5</ele><time>2026-03-22T12:43:45.233Z</time></trkpt><trkpt lat="45.310405" lon="8.4782833"><ele>119.25</ele><time>2026-03-22T12:43:46.233Z</time></trkpt><trkpt lat="45.310465" lon="8.478105"><ele>120.0</ele><time>2026-03-22T12:43:47.233Z</time></trkpt><trkpt lat="45.3105233" lon="8.4779183"><ele>119.5</ele><time>2026-03-22T12:43:48.233Z</time></trkpt><trkpt lat="45.3105783" lon="8.4777233"><ele>119.0</ele><time>2026-03-22T12:43:49.233Z</time></trkpt><trkpt lat="45.310635" lon="8.4775267"><ele>118.5</ele><time>2026-03-22T12:43:50.233Z</time></trkpt><trkpt lat="45.3106967" lon="8.4773383"><ele>118.0</ele><time>2026-03-22T12:43:51.233Z</time></trkpt><trkpt lat="45.310755" lon="8.477145"><ele>119.0</ele><time>2026-03-22T12:43:52.233Z</time></trkpt><trkpt lat="45.3109067" lon="8.47659"><ele>120.0</ele><time>2026-03-22T12:43:55.233Z</time></trkpt><trkpt lat="45.3109667" lon="8.4764033"><ele>120.0</ele><time>2026-03-22T12:43:56.233Z</time></trkpt><trkpt lat="45.3110233" lon="8.4762217"><ele>120.0</ele><time>2026-03-22T12:43:57.233Z</time></trkpt><trkpt lat="45.31123" lon="8.4754983"><ele>119.5</ele><time>2026-03-22T12:44:01.233Z</time></trkpt><trkpt lat="45.311275" lon="8.4753167"><ele>119.0</ele><time>2026-03-22T12:44:02.233Z</time></trkpt><trkpt lat="45.31134" lon="8.475135"><ele>118.5</ele><time>2026-03-22T12:44:03.233Z</time></trkpt><trkpt lat="45.311395" lon="8.4749617"><ele>118.0</ele><time>2026-03-22T12:44:04.233Z</time></trkpt><trkpt lat="45.3114467" lon="8.4747783"><ele>117.75</ele><time>2026-03-22T12:44:05.233Z</time></trkpt><trkpt lat="45.3115" lon="8.4745917"><ele>117.5</ele><time>2026-03-22T12:44:06.233Z</time></trkpt><trkpt lat="45.3115483" lon="8.4744167"><ele>117.25</ele><time>2026-03-22T12:44:07.233Z</time></trkpt><trkpt lat="45.3116067" lon="8.4742267"><ele>117.0</ele><time>2026-03-22T12:44:08.233Z</time></trkpt><trkpt lat="45.3116633" lon="8.474035"><ele>117.0</ele><time>2026-03-22T12:44:09.233Z</time></trkpt><trkpt lat="45.3117167" lon="8.473845"><ele>117.0</ele><time>2026-03-22T12:44:10.233Z</time></trkpt><trkpt lat="45.3117733" lon="8.4736467"><ele>117.0</ele><time>2026-03-22T12:44:11.233Z</time></trkpt><trkpt lat="45.311825" lon="8.473465"><ele>117.0</ele><time>2026-03-22T12:44:12.233Z</time></trkpt><trkpt lat="45.3118783" lon="8.4732767"><ele>117.25</ele><time>2026-03-22T12:44:13.233Z</time></trkpt><trkpt lat="45.3119267" lon="8.47308"><ele>117.5</ele><time>2026-03-22T12:44:14.233Z</time></trkpt><trkpt lat="45.3119867" lon="8.4728867"><ele>117.75</ele><time>2026-03-22T12:44:15.233Z</time></trkpt><trkpt lat="45.3120467" lon="8.472695"><ele>118.0</ele><time>2026-03-22T12:44:16.233Z</time></trkpt><trkpt lat="45.312105" lon="8.47251"><ele>118.25</ele><time>2026-03-22T12:44:17.233Z</time></trkpt><trkpt lat="45.3121583" lon="8.4723267"><ele>118.5</ele><time>2026-03-22T12:44:18.233Z</time></trkpt><trkpt lat="45.31222" lon="8.4721383"><ele>118.75</ele><time>2026-03-22T12:44:19.233Z</time></trkpt><trkpt lat="45.3122683" lon="8.4719533"><ele>119.0</ele><time>2026-03-22T12:44:20.233Z</time></trkpt><trkpt lat="45.3123233" lon="8.47177"><ele>119.0</ele><time>2026-03-22T12:44:21.233Z</time></trkpt><trkpt lat="45.31238" lon="8.471585"><ele>119.0</ele><time>2026-03-22T12:44:22.233Z</time></trkpt><trkpt lat="45.3124317" lon="8.4713933"><ele>119.0</ele><time>2026-03-22T12:44:23.233Z</time></trkpt><trkpt lat="45.3124817" lon="8.4712117"><ele>119.0</ele><time>2026-03-22T12:44:24.233Z</time></trkpt><trkpt lat="45.3125317" lon="8.4710533"><ele>119.4</ele><time>2026-03-22T12:44:25.233Z</time></trkpt><trkpt lat="45.312565" lon="8.4709033"><ele>119.80000000000001</ele><time>2026-03-22T12:44:26.233Z</time></trkpt><trkpt lat="45.3125983" lon="8.47076"><ele>120.19999999999999</ele><time>2026-03-22T12:44:27.233Z</time></trkpt><trkpt lat="45.31262" lon="8.4706117"><ele>120.6</ele><time>2026-03-22T12:44:28.233Z</time></trkpt><trkpt lat="45.3126467" lon="8.4704583"><ele>121.0</ele><time>2026-03-22T12:44:29.233Z</time></trkpt><trkpt lat="45.3126767" lon="8.470285"><ele>121.0</ele><time>2026-03-22T12:44:30.233Z</time></trkpt><trkpt lat="45.312715" lon="8.470085"><ele>121.0</ele><time>2026-03-22T12:44:31.233Z</time></trkpt><trkpt lat="45.3127483" lon="8.4699067"><ele>121.0</ele><time>2026-03-22T12:44:32.233Z</time></trkpt><trkpt lat="45.3127933" lon="8.4697383"><ele>121.0</ele><time>2026-03-22T12:44:33.233Z</time></trkpt><trkpt lat="45.3128417" lon="8.4695467"><ele>120.5</ele><time>2026-03-22T12:44:34.233Z</time></trkpt><trkpt lat="45.3128883" lon="8.46936"><ele>120.0</ele><time>2026-03-22T12:44:35.233Z</time></trkpt><trkpt lat="45.3129283" lon="8.4691733"><ele>119.5</ele><time>2026-03-22T12:44:36.233Z</time></trkpt><trkpt lat="45.3129717" lon="8.4689867"><ele>119.0</ele><time>2026-03-22T12:44:37.233Z</time></trkpt><trkpt lat="45.3130183" lon="8.4688017"><ele>119.0</ele><time>2026-03-22T12:44:38.233Z</time></trkpt><trkpt lat="45.3130633" lon="8.46861"><ele>119.0</ele><time>2026-03-22T12:44:39.233Z</time></trkpt><trkpt lat="45.3131017" lon="8.4684267"><ele>119.0</ele><time>2026-03-22T12:44:40.233Z</time></trkpt><trkpt lat="45.3131483" lon="8.4682383"><ele>119.0</ele><time>2026-03-22T12:44:41.233Z</time></trkpt><trkpt lat="45.3131967" lon="8.4680467"><ele>118.66666666666666</ele><time>2026-03-22T12:44:42.233Z</time></trkpt><trkpt lat="45.3132433" lon="8.4678483"><ele>118.33333333333334</ele><time>2026-03-22T12:44:43.233Z</time></trkpt><trkpt lat="45.31332" lon="8.46745"><ele>118.0</ele><time>2026-03-22T12:44:45.233Z</time></trkpt><trkpt lat="45.3133567" lon="8.4672517"><ele>118.0</ele><time>2026-03-22T12:44:46.233Z</time></trkpt><trkpt lat="45.3134033" lon="8.4670617"><ele>118.0</ele><time>2026-03-22T12:44:47.233Z</time></trkpt><trkpt lat="45.3134467" lon="8.466875"><ele>118.0</ele><time>2026-03-22T12:44:48.233Z</time></trkpt><trkpt lat="45.3134917" lon="8.46668"><ele>118.0</ele><time>2026-03-22T12:44:49.233Z</time></trkpt><trkpt lat="45.3135367" lon="8.46648"><ele>118.0</ele><time>2026-03-22T12:44:50.233Z</time></trkpt><trkpt lat="45.3135817" lon="8.4662817"><ele>118.0</ele><time>2026-03-22T12:44:51.233Z</time></trkpt><trkpt lat="45.3136217" lon="8.4660933"><ele>118.0</ele><time>2026-03-22T12:44:52.233Z</time></trkpt><trkpt lat="45.31366" lon="8.4658983"><ele>118.0</ele><time>2026-03-22T12:44:53.233Z</time></trkpt><trkpt lat="45.3136883" lon="8.4657167"><ele>118.0</ele><time>2026-03-22T12:44:54.233Z</time></trkpt><trkpt lat="45.3137183" lon="8.4655367"><ele>118.0</ele><time>2026-03-22T12:44:55.233Z</time></trkpt><trkpt lat="45.31376" lon="8.4653533"><ele>118.0</ele><time>2026-03-22T12:44:56.233Z</time></trkpt><trkpt lat="45.3137933" lon="8.46517"><ele>118.0</ele><time>2026-03-22T12:44:57.233Z</time></trkpt><trkpt lat="45.3138283" lon="8.4649817"><ele>118.0</ele><time>2026-03-22T12:44:58.233Z</time></trkpt><trkpt lat="45.3138617" lon="8.4647917"><ele>118.0</ele><time>2026-03-22T12:44:59.233Z</time></trkpt><trkpt lat="45.3138883" lon="8.4646067"><ele>118.0</ele><time>2026-03-22T12:45:00.233Z</time></trkpt><trkpt lat="45.313925" lon="8.464405"><ele>118.0</ele><time>2026-03-22T12:45:01.233Z</time></trkpt><trkpt lat="45.313965" lon="8.464215"><ele>118.0</ele><time>2026-03-22T12:45:02.233Z</time></trkpt><trkpt lat="45.314005" lon="8.4640167"><ele>118.0</ele><time>2026-03-22T12:45:03.233Z</time></trkpt><trkpt lat="45.314045" lon="8.4638217"><ele>118.0</ele><time>2026-03-22T12:45:04.233Z</time></trkpt><trkpt lat="45.31409" lon="8.463625"><ele>118.0</ele><time>2026-03-22T12:45:05.233Z</time></trkpt><trkpt lat="45.3141233" lon="8.4634317"><ele>118.25</ele><time>2026-03-22T12:45:06.233Z</time></trkpt><trkpt lat="45.3141633" lon="8.4632333"><ele>118.5</ele><time>2026-03-22T12:45:07.233Z</time></trkpt><trkpt lat="45.31421" lon="8.4630383"><ele>118.75</ele><time>2026-03-22T12:45:08.233Z</time></trkpt><trkpt lat="45.3142517" lon="8.4628367"><ele>119.0</ele><time>2026-03-22T12:45:09.233Z</time></trkpt><trkpt lat="45.314285" lon="8.4626383"><ele>119.0</ele><time>2026-03-22T12:45:10.233Z</time></trkpt><trkpt lat="45.3143217" lon="8.4624367"><ele>119.0</ele><time>2026-03-22T12:45:11.233Z</time></trkpt><trkpt lat="45.3143617" lon="8.4622383"><ele>119.0</ele><time>2026-03-22T12:45:12.233Z</time></trkpt><trkpt lat="45.3144033" lon="8.4620333"><ele>119.0</ele><time>2026-03-22T12:45:13.233Z</time></trkpt><trkpt lat="45.3144467" lon="8.4618233"><ele>119.0</ele><time>2026-03-22T12:45:14.233Z</time></trkpt><trkpt lat="45.31448" lon="8.46163"><ele>119.0</ele><time>2026-03-22T12:45:15.233Z</time></trkpt><trkpt lat="45.31451" lon="8.4614667"><ele>119.0</ele><time>2026-03-22T12:45:16.233Z</time></trkpt><trkpt lat="45.31454" lon="8.4613233"><ele>119.0</ele><time>2026-03-22T12:45:17.233Z</time></trkpt><trkpt lat="45.3145617" lon="8.46121"><ele>119.0</ele><time>2026-03-22T12:45:18.233Z</time></trkpt><trkpt lat="45.31459" lon="8.46107"><ele>119.0</ele><time>2026-03-22T12:45:20.233Z</time></trkpt><trkpt lat="45.314625" lon="8.46093"><ele>119.0</ele><time>2026-03-22T12:45:50.233Z</time></trkpt><trkpt lat="45.31466" lon="8.460765"><ele>119.0</ele><time>2026-03-22T12:45:52.233Z</time></trkpt><trkpt lat="45.314685" lon="8.4606567"><ele>119.0</ele><time>2026-03-22T12:45:53.234Z</time></trkpt><trkpt lat="45.3147117" lon="8.4605333"><ele>119.0</ele><time>2026-03-22T12:45:54.233Z</time></trkpt><trkpt lat="45.3147317" lon="8.4604067"><ele>119.0</ele><time>2026-03-22T12:45:55.233Z</time></trkpt><trkpt lat="45.3147567" lon="8.4602783"><ele>119.0</ele><time>2026-03-22T12:45:56.233Z</time></trkpt><trkpt lat="45.3147783" lon="8.4601633"><ele>119.0</ele><time>2026-03-22T12:45:57.233Z</time></trkpt><trkpt lat="45.314805" lon="8.4600383"><ele>119.0</ele><time>2026-03-22T12:45:58.233Z</time></trkpt><trkpt lat="45.31483" lon="8.4598967"><ele>119.0</ele><time>2026-03-22T12:45:59.233Z</time></trkpt><trkpt lat="45.31486" lon="8.4597517"><ele>119.0</ele><time>2026-03-22T12:46:00.233Z</time></trkpt><trkpt lat="45.314895" lon="8.4595933"><ele>119.0</ele><time>2026-03-22T12:46:01.233Z</time></trkpt><trkpt lat="45.31493" lon="8.459425"><ele>119.0</ele><time>2026-03-22T12:46:02.233Z</time></trkpt><trkpt lat="45.3149617" lon="8.4592583"><ele>119.0</ele><time>2026-03-22T12:46:03.233Z</time></trkpt><trkpt lat="45.3149967" lon="8.45908"><ele>119.0</ele><time>2026-03-22T12:46:04.233Z</time></trkpt><trkpt lat="45.315035" lon="8.4588917"><ele>119.0</ele><time>2026-03-22T12:46:05.233Z</time></trkpt><trkpt lat="45.3150717" lon="8.4586967"><ele>119.0</ele><time>2026-03-22T12:46:06.233Z</time></trkpt><trkpt lat="45.3151167" lon="8.458505"><ele>119.0</ele><time>2026-03-22T12:46:07.232Z</time></trkpt><trkpt lat="45.3151633" lon="8.4583167"><ele>119.0</ele><time>2026-03-22T12:46:08.232Z</time></trkpt><trkpt lat="45.3152133" lon="8.4581317"><ele>119.0</ele><time>2026-03-22T12:46:09.232Z</time></trkpt><trkpt lat="45.3152817" lon="8.45796"><ele>119.0</ele><time>2026-03-22T12:46:10.232Z</time></trkpt><trkpt lat="45.315365" lon="8.4577933"><ele>119.0</ele><time>2026-03-22T12:46:11.232Z</time></trkpt><trkpt lat="45.3154483" lon="8.4576283"><ele>119.0</ele><time>2026-03-22T12:46:12.232Z</time></trkpt><trkpt lat="45.3155367" lon="8.4574567"><ele>119.0</ele><time>2026-03-22T12:46:13.232Z</time></trkpt><trkpt lat="45.3156167" lon="8.4572833"><ele>119.0</ele><time>2026-03-22T12:46:14.232Z</time></trkpt><trkpt lat="45.3157" lon="8.4571017"><ele>119.0</ele><time>2026-03-22T12:46:15.232Z</time></trkpt><trkpt lat="45.31578" lon="8.4569217"><ele>119.0</ele><time>2026-03-22T12:46:16.232Z</time></trkpt><trkpt lat="45.315855" lon="8.45674"><ele>119.0</ele><time>2026-03-22T12:46:17.232Z</time></trkpt><trkpt lat="45.3159433" lon="8.4565617"><ele>119.0</ele><time>2026-03-22T12:46:18.232Z</time></trkpt><trkpt lat="45.3162617" lon="8.455865"><ele>119.0</ele><time>2026-03-22T12:46:22.232Z</time></trkpt><trkpt lat="45.3163467" lon="8.4556883"><ele>119.0</ele><time>2026-03-22T12:46:23.232Z</time></trkpt><trkpt lat="45.316435" lon="8.45551"><ele>119.0</ele><time>2026-03-22T12:46:24.232Z</time></trkpt><trkpt lat="45.3165183" lon="8.4553333"><ele>119.33333333333333</ele><time>2026-03-22T12:46:25.232Z</time></trkpt><trkpt lat="45.3166017" lon="8.4551533"><ele>119.66666666666666</ele><time>2026-03-22T12:46:26.232Z</time></trkpt><trkpt lat="45.3166933" lon="8.454975"><ele>120.0</ele><time>2026-03-22T12:46:27.232Z</time></trkpt><trkpt lat="45.3167817" lon="8.4548033"><ele>120.0</ele><time>2026-03-22T12:46:28.232Z</time></trkpt><trkpt lat="45.31687" lon="8.4546217"><ele>120.0</ele><time>2026-03-22T12:46:29.232Z</time></trkpt><trkpt lat="45.3169583" lon="8.4544467"><ele>120.0</ele><time>2026-03-22T12:46:30.232Z</time></trkpt><trkpt lat="45.3170533" lon="8.454275"><ele>120.0</ele><time>2026-03-22T12:46:31.232Z</time></trkpt><trkpt lat="45.3171383" lon="8.4541033"><ele>120.0</ele><time>2026-03-22T12:46:32.232Z</time></trkpt><trkpt lat="45.317225" lon="8.4539233"><ele>120.0</ele><time>2026-03-22T12:46:33.232Z</time></trkpt><trkpt lat="45.3173117" lon="8.4537517"><ele>120.0</ele><time>2026-03-22T12:46:34.232Z</time></trkpt><trkpt lat="45.3173967" lon="8.453585"><ele>120.0</ele><time>2026-03-22T12:46:35.232Z</time></trkpt><trkpt lat="45.31748" lon="8.4534167"><ele>120.0</ele><time>2026-03-22T12:46:36.232Z</time></trkpt><trkpt lat="45.317565" lon="8.4532367"><ele>120.0</ele><time>2026-03-22T12:46:37.232Z</time></trkpt><trkpt lat="45.3176483" lon="8.4530733"><ele>119.75</ele><time>2026-03-22T12:46:38.232Z</time></trkpt><trkpt lat="45.3177267" lon="8.452895"><ele>119.5</ele><time>2026-03-22T12:46:39.232Z</time></trkpt><trkpt lat="45.317795" lon="8.452735"><ele>119.25</ele><time>2026-03-22T12:46:40.232Z</time></trkpt><trkpt lat="45.3178667" lon="8.4525967"><ele>119.0</ele><time>2026-03-22T12:46:41.232Z</time></trkpt><trkpt lat="45.3179367" lon="8.4524517"><ele>119.0</ele><time>2026-03-22T12:46:42.232Z</time></trkpt><trkpt lat="45.318" lon="8.45232"><ele>119.0</ele><time>2026-03-22T12:46:43.232Z</time></trkpt><trkpt lat="45.3180617" lon="8.45221"><ele>119.0</ele><time>2026-03-22T12:46:44.232Z</time></trkpt><trkpt lat="45.3181083" lon="8.4521133"><ele>119.0</ele><time>2026-03-22T12:46:45.232Z</time></trkpt><trkpt lat="45.3180983" lon="8.4519483"><ele>119.0</ele><time>2026-03-22T12:46:47.232Z</time></trkpt><trkpt lat="45.31805" lon="8.4518533"><ele>119.0</ele><time>2026-03-22T12:46:48.232Z</time></trkpt><trkpt lat="45.3179967" lon="8.4517433"><ele>119.0</ele><time>2026-03-22T12:46:49.232Z</time></trkpt><trkpt lat="45.3179383" lon="8.4516167"><ele>119.0</ele><time>2026-03-22T12:46:50.232Z</time></trkpt><trkpt lat="45.3178817" lon="8.4514833"><ele>119.0</ele><time>2026-03-22T12:46:51.232Z</time></trkpt><trkpt lat="45.31782" lon="8.451345"><ele>119.0</ele><time>2026-03-22T12:46:52.232Z</time></trkpt><trkpt lat="45.3177567" lon="8.4511967"><ele>119.0</ele><time>2026-03-22T12:46:53.232Z</time></trkpt><trkpt lat="45.3176933" lon="8.4510467"><ele>119.0</ele><time>2026-03-22T12:46:54.232Z</time></trkpt><trkpt lat="45.3176267" lon="8.4508933"><ele>119.0</ele><time>2026-03-22T12:46:55.232Z</time></trkpt><trkpt lat="45.3175633" lon="8.450745"><ele>119.0</ele><time>2026-03-22T12:46:56.232Z</time></trkpt><trkpt lat="45.3175017" lon="8.45059"><ele>119.25</ele><time>2026-03-22T12:46:57.232Z</time></trkpt><trkpt lat="45.31743" lon="8.4504367"><ele>119.5</ele><time>2026-03-22T12:46:58.232Z</time></trkpt><trkpt lat="45.3173567" lon="8.45028"><ele>119.75</ele><time>2026-03-22T12:46:59.232Z</time></trkpt><trkpt lat="45.3172867" lon="8.45013"><ele>120.0</ele><time>2026-03-22T12:47:00.232Z</time></trkpt><trkpt lat="45.3172217" lon="8.4499717"><ele>120.0</ele><time>2026-03-22T12:47:01.232Z</time></trkpt><trkpt lat="45.3171617" lon="8.4498217"><ele>120.0</ele><time>2026-03-22T12:47:02.232Z</time></trkpt><trkpt lat="45.3170983" lon="8.4496667"><ele>120.0</ele><time>2026-03-22T12:47:03.232Z</time></trkpt><trkpt lat="45.3170333" lon="8.44952"><ele>120.0</ele><time>2026-03-22T12:47:04.232Z</time></trkpt><trkpt lat="45.3169667" lon="8.4493617"><ele>120.0</ele><time>2026-03-22T12:47:05.232Z</time></trkpt><trkpt lat="45.3169033" lon="8.449205"><ele>120.0</ele><time>2026-03-22T12:47:06.232Z</time></trkpt><trkpt lat="45.3168417" lon="8.4490533"><ele>120.0</ele><time>2026-03-22T12:47:07.232Z</time></trkpt><trkpt lat="45.3167883" lon="8.4489083"><ele>120.0</ele><time>2026-03-22T12:47:08.232Z</time></trkpt><trkpt lat="45.3167417" lon="8.4487883"><ele>120.16666666666667</ele><time>2026-03-22T12:47:09.232Z</time></trkpt><trkpt lat="45.316695" lon="8.4486733"><ele>120.33333333333334</ele><time>2026-03-22T12:47:10.232Z</time></trkpt><trkpt lat="45.31665" lon="8.44857"><ele>120.5</ele><time>2026-03-22T12:47:11.232Z</time></trkpt><trkpt lat="45.3166117" lon="8.4484733"><ele>120.66666666666667</ele><time>2026-03-22T12:47:12.232Z</time></trkpt><trkpt lat="45.3165883" lon="8.44839"><ele>120.83333333333334</ele><time>2026-03-22T12:47:13.232Z</time></trkpt><trkpt lat="45.316605" lon="8.4482483"><ele>121.0</ele><time>2026-03-22T12:47:15.232Z</time></trkpt><trkpt lat="45.316725" lon="8.44814"><ele>121.0</ele><time>2026-03-22T12:47:17.232Z</time></trkpt><trkpt lat="45.3168033" lon="8.448085"><ele>121.0</ele><time>2026-03-22T12:47:18.232Z</time></trkpt><trkpt lat="45.316885" lon="8.4480233"><ele>121.0</ele><time>2026-03-22T12:47:19.232Z</time></trkpt><trkpt lat="45.3169767" lon="8.4479617"><ele>121.0</ele><time>2026-03-22T12:47:20.232Z</time></trkpt><trkpt lat="45.3170667" lon="8.4478967"><ele>121.0</ele><time>2026-03-22T12:47:21.232Z</time></trkpt><trkpt lat="45.3171517" lon="8.44783"><ele>121.0</ele><time>2026-03-22T12:47:22.232Z</time></trkpt><trkpt lat="45.3172333" lon="8.4477617"><ele>121.0</ele><time>2026-03-22T12:47:23.232Z</time></trkpt><trkpt lat="45.3173167" lon="8.4476967"><ele>121.0</ele><time>2026-03-22T12:47:24.232Z</time></trkpt><trkpt lat="45.3173983" lon="8.4476017"><ele>121.0</ele><time>2026-03-22T12:47:25.232Z</time></trkpt><trkpt lat="45.3174817" lon="8.4475083"><ele>121.0</ele><time>2026-03-22T12:47:26.232Z</time></trkpt><trkpt lat="45.3175633" lon="8.4474233"><ele>121.0</ele><time>2026-03-22T12:47:27.232Z</time></trkpt><trkpt lat="45.3176433" lon="8.447335"><ele>121.0</ele><time>2026-03-22T12:47:28.232Z</time></trkpt><trkpt lat="45.317725" lon="8.4472383"><ele>121.0</ele><time>2026-03-22T12:47:29.232Z</time></trkpt><trkpt lat="45.3178033" lon="8.4471383"><ele>121.0</ele><time>2026-03-22T12:47:30.232Z</time></trkpt><trkpt lat="45.31789" lon="8.44704"><ele>121.0</ele><time>2026-03-22T12:47:31.232Z</time></trkpt><trkpt lat="45.3179633" lon="8.4469467"><ele>121.16666666666667</ele><time>2026-03-22T12:47:32.232Z</time></trkpt><trkpt lat="45.31803" lon="8.44686"><ele>121.33333333333334</ele><time>2026-03-22T12:47:33.232Z</time></trkpt><trkpt lat="45.3180867" lon="8.446785"><ele>121.5</ele><time>2026-03-22T12:47:34.232Z</time></trkpt><trkpt lat="45.318145" lon="8.4467183"><ele>121.66666666666666</ele><time>2026-03-22T12:47:35.232Z</time></trkpt><trkpt lat="45.3181967" lon="8.44665"><ele>121.83333333333333</ele><time>2026-03-22T12:47:36.232Z</time></trkpt><trkpt lat="45.3182933" lon="8.4465417"><ele>122.0</ele><time>2026-03-22T12:47:38.232Z</time></trkpt><trkpt lat="45.318375" lon="8.4464533"><ele>121.99999999999999</ele><time>2026-03-22T12:47:40.232Z</time></trkpt><trkpt lat="45.3184367" lon="8.4464083"><ele>122.0</ele><time>2026-03-22T12:47:42.232Z</time></trkpt><trkpt lat="45.31851" lon="8.4463517"><ele>122.0</ele><time>2026-03-22T12:47:45.232Z</time></trkpt><trkpt lat="45.3185817" lon="8.4463033"><ele>122.0</ele><time>2026-03-22T12:47:48.232Z</time></trkpt><trkpt lat="45.3186617" lon="8.44626"><ele>121.99999999999999</ele><time>2026-03-22T12:47:51.232Z</time></trkpt><trkpt lat="45.3187267" lon="8.4462133"><ele>122.0</ele><time>2026-03-22T12:47:53.232Z</time></trkpt><trkpt lat="45.318795" lon="8.446165"><ele>122.0</ele><time>2026-03-22T12:47:55.232Z</time></trkpt><trkpt lat="45.3188567" lon="8.446125"><ele>121.99999999999999</ele><time>2026-03-22T12:47:57.232Z</time></trkpt><trkpt lat="45.3189367" lon="8.4460733"><ele>121.99999999999999</ele><time>2026-03-22T12:48:00.232Z</time></trkpt><trkpt lat="45.3190283" lon="8.4460067"><ele>122.0</ele><time>2026-03-22T12:48:03.232Z</time></trkpt><trkpt lat="45.31912" lon="8.4459633"><ele>122.0</ele><time>2026-03-22T12:48:05.232Z</time></trkpt><trkpt lat="45.31921" lon="8.4459"><ele>122.25</ele><time>2026-03-22T12:48:07.232Z</time></trkpt><trkpt lat="45.3193117" lon="8.4458283"><ele>122.5</ele><time>2026-03-22T12:48:09.232Z</time></trkpt><trkpt lat="45.3194183" lon="8.4457583"><ele>122.75</ele><time>2026-03-22T12:48:11.232Z</time></trkpt><trkpt lat="45.3195233" lon="8.4456867"><ele>123.0</ele><time>2026-03-22T12:48:13.233Z</time></trkpt><trkpt lat="45.319635" lon="8.4456117"><ele>123.0</ele><time>2026-03-22T12:48:15.232Z</time></trkpt><trkpt lat="45.3197" lon="8.4455667"><ele>123.0</ele><time>2026-03-22T12:48:16.232Z</time></trkpt><trkpt lat="45.31977" lon="8.44552"><ele>123.0</ele><time>2026-03-22T12:48:17.232Z</time></trkpt><trkpt lat="45.31984" lon="8.4454717"><ele>123.0</ele><time>2026-03-22T12:48:18.232Z</time></trkpt><trkpt lat="45.319905" lon="8.4454233"><ele>123.0</ele><time>2026-03-22T12:48:19.232Z</time></trkpt><trkpt lat="45.3199783" lon="8.445375"><ele>123.0</ele><time>2026-03-22T12:48:20.232Z</time></trkpt><trkpt lat="45.3200517" lon="8.4453267"><ele>122.66666666666667</ele><time>2026-03-22T12:48:21.232Z</time></trkpt><trkpt lat="45.320125" lon="8.445275"><ele>122.33333333333334</ele><time>2026-03-22T12:48:22.232Z</time></trkpt><trkpt lat="45.3202033" lon="8.4452183"><ele>122.0</ele><time>2026-03-22T12:48:23.232Z</time></trkpt><trkpt lat="45.320285" lon="8.445155"><ele>121.66666666666667</ele><time>2026-03-22T12:48:24.232Z</time></trkpt><trkpt lat="45.3203667" lon="8.445105"><ele>121.33333333333334</ele><time>2026-03-22T12:48:25.232Z</time></trkpt><trkpt lat="45.320445" lon="8.44506"><ele>121.0</ele><time>2026-03-22T12:48:26.232Z</time></trkpt><trkpt lat="45.320525" lon="8.4450067"><ele>120.8</ele><time>2026-03-22T12:48:27.232Z</time></trkpt><trkpt lat="45.3206033" lon="8.4449533"><ele>120.6</ele><time>2026-03-22T12:48:28.232Z</time></trkpt><trkpt lat="45.3206817" lon="8.4448933"><ele>120.4</ele><time>2026-03-22T12:48:29.232Z</time></trkpt><trkpt lat="45.3207683" lon="8.4448367"><ele>120.2</ele><time>2026-03-22T12:48:30.232Z</time></trkpt><trkpt lat="45.3208567" lon="8.4447783"><ele>120.0</ele><time>2026-03-22T12:48:31.232Z</time></trkpt><trkpt lat="45.3209467" lon="8.44472"><ele>120.0</ele><time>2026-03-22T12:48:32.232Z</time></trkpt><trkpt lat="45.3210433" lon="8.4446517"><ele>120.0</ele><time>2026-03-22T12:48:33.232Z</time></trkpt><trkpt lat="45.321135" lon="8.4445883"><ele>120.0</ele><time>2026-03-22T12:48:34.232Z</time></trkpt><trkpt lat="45.32123" lon="8.4445217"><ele>120.0</ele><time>2026-03-22T12:48:35.232Z</time></trkpt><trkpt lat="45.3213283" lon="8.444445"><ele>120.0</ele><time>2026-03-22T12:48:36.232Z</time></trkpt><trkpt lat="45.3214317" lon="8.4443883"><ele>121.0</ele><time>2026-03-22T12:48:37.232Z</time></trkpt><trkpt lat="45.321535" lon="8.4443267"><ele>122.0</ele><time>2026-03-22T12:48:38.232Z</time></trkpt><trkpt lat="45.3216467" lon="8.4442467"><ele>123.0</ele><time>2026-03-22T12:48:39.232Z</time></trkpt><trkpt lat="45.3217533" lon="8.4441683"><ele>124.0</ele><time>2026-03-22T12:48:40.232Z</time></trkpt><trkpt lat="45.321865" lon="8.4440833"><ele>124.0</ele><time>2026-03-22T12:48:41.232Z</time></trkpt><trkpt lat="45.3219817" lon="8.444"><ele>124.0</ele><time>2026-03-22T12:48:42.232Z</time></trkpt><trkpt lat="45.3220917" lon="8.443925"><ele>124.0</ele><time>2026-03-22T12:48:43.232Z</time></trkpt><trkpt lat="45.3222067" lon="8.4438433"><ele>124.0</ele><time>2026-03-22T12:48:44.232Z</time></trkpt><trkpt lat="45.3223333" lon="8.4437617"><ele>123.75</ele><time>2026-03-22T12:48:45.232Z</time></trkpt><trkpt lat="45.3224583" lon="8.443685"><ele>123.5</ele><time>2026-03-22T12:48:46.232Z</time></trkpt><trkpt lat="45.3225783" lon="8.4436033"><ele>123.25</ele><time>2026-03-22T12:48:47.232Z</time></trkpt><trkpt lat="45.3227033" lon="8.4435133"><ele>123.0</ele><time>2026-03-22T12:48:48.232Z</time></trkpt><trkpt lat="45.3228233" lon="8.4434383"><ele>123.0</ele><time>2026-03-22T12:48:49.232Z</time></trkpt><trkpt lat="45.322935" lon="8.44336"><ele>123.0</ele><time>2026-03-22T12:48:50.232Z</time></trkpt><trkpt lat="45.3230433" lon="8.4432883"><ele>123.0</ele><time>2026-03-22T12:48:51.232Z</time></trkpt><trkpt lat="45.323145" lon="8.4432267"><ele>123.0</ele><time>2026-03-22T12:48:52.232Z</time></trkpt><trkpt lat="45.323245" lon="8.44316"><ele>123.0</ele><time>2026-03-22T12:48:53.232Z</time></trkpt><trkpt lat="45.323335" lon="8.4430783"><ele>123.00000000000001</ele><time>2026-03-22T12:48:54.232Z</time></trkpt><trkpt lat="45.3234283" lon="8.4429967"><ele>123.00000000000001</ele><time>2026-03-22T12:48:55.232Z</time></trkpt><trkpt lat="45.3235217" lon="8.4429017"><ele>123.0</ele><time>2026-03-22T12:48:56.231Z</time></trkpt><trkpt lat="45.3236117" lon="8.4428267"><ele>123.0</ele><time>2026-03-22T12:48:57.232Z</time></trkpt><trkpt lat="45.3237067" lon="8.4427517"><ele>123.0</ele><time>2026-03-22T12:48:58.232Z</time></trkpt><trkpt lat="45.3238017" lon="8.44267"><ele>123.00000000000001</ele><time>2026-03-22T12:48:59.232Z</time></trkpt><trkpt lat="45.3239" lon="8.442605"><ele>123.00000000000001</ele><time>2026-03-22T12:49:00.232Z</time></trkpt><trkpt lat="45.3239967" lon="8.44254"><ele>123.0</ele><time>2026-03-22T12:49:01.232Z</time></trkpt><trkpt lat="45.3240867" lon="8.442465"><ele>123.0</ele><time>2026-03-22T12:49:02.232Z</time></trkpt><trkpt lat="45.32416" lon="8.442365"><ele>123.0</ele><time>2026-03-22T12:49:03.232Z</time></trkpt><trkpt lat="45.3242317" lon="8.4422567"><ele>123.00000000000001</ele><time>2026-03-22T12:49:04.233Z</time></trkpt><trkpt lat="45.3243033" lon="8.44215"><ele>123.00000000000001</ele><time>2026-03-22T12:49:05.232Z</time></trkpt><trkpt lat="45.324385" lon="8.4420667"><ele>123.0</ele><time>2026-03-22T12:49:06.232Z</time></trkpt><trkpt lat="45.3244667" lon="8.4420083"><ele>123.0</ele><time>2026-03-22T12:49:07.232Z</time></trkpt><trkpt lat="45.3245533" lon="8.4419583"><ele>123.2</ele><time>2026-03-22T12:49:08.232Z</time></trkpt><trkpt lat="45.3246483" lon="8.4419133"><ele>123.4</ele><time>2026-03-22T12:49:09.232Z</time></trkpt><trkpt lat="45.3247517" lon="8.44189"><ele>123.60000000000001</ele><time>2026-03-22T12:49:10.232Z</time></trkpt><trkpt lat="45.3248533" lon="8.4418933"><ele>123.80000000000001</ele><time>2026-03-22T12:49:11.232Z</time></trkpt><trkpt lat="45.32497" lon="8.4419133"><ele>124.0</ele><time>2026-03-22T12:49:12.232Z</time></trkpt><trkpt lat="45.325085" lon="8.4419467"><ele>124.0</ele><time>2026-03-22T12:49:13.232Z</time></trkpt><trkpt lat="45.3252083" lon="8.4419817"><ele>124.0</ele><time>2026-03-22T12:49:14.232Z</time></trkpt><trkpt lat="45.325335" lon="8.4420067"><ele>124.0</ele><time>2026-03-22T12:49:15.232Z</time></trkpt><trkpt lat="45.3254583" lon="8.4420167"><ele>124.0</ele><time>2026-03-22T12:49:16.232Z</time></trkpt><trkpt lat="45.32557" lon="8.442025"><ele>123.66666666666667</ele><time>2026-03-22T12:49:17.232Z</time></trkpt><trkpt lat="45.325675" lon="8.4420633"><ele>123.33333333333334</ele><time>2026-03-22T12:49:18.232Z</time></trkpt><trkpt lat="45.3257667" lon="8.4421117"><ele>123.0</ele><time>2026-03-22T12:49:19.232Z</time></trkpt><trkpt lat="45.3258433" lon="8.4421517"><ele>122.66666666666666</ele><time>2026-03-22T12:49:20.232Z</time></trkpt><trkpt lat="45.3259167" lon="8.44219"><ele>122.33333333333333</ele><time>2026-03-22T12:49:21.232Z</time></trkpt><trkpt lat="45.3259783" lon="8.4422283"><ele>122.0</ele><time>2026-03-22T12:49:22.232Z</time></trkpt><trkpt lat="45.32606" lon="8.4422717"><ele>122.0</ele><time>2026-03-22T12:49:24.232Z</time></trkpt><trkpt lat="45.3261583" lon="8.4422783"><ele>121.99999999999999</ele><time>2026-03-22T12:49:33.232Z</time></trkpt><trkpt lat="45.3261883" lon="8.4421217"><ele>121.99999999999999</ele><time>2026-03-22T12:49:35.232Z</time></trkpt><trkpt lat="45.3261983" lon="8.4419533"><ele>122.0</ele><time>2026-03-22T12:49:37.232Z</time></trkpt><trkpt lat="45.3262483" lon="8.4418733"><ele>122.0</ele><time>2026-03-22T12:49:39.232Z</time></trkpt><trkpt lat="45.32637" lon="8.4418317"><ele>121.99999999999999</ele><time>2026-03-22T12:49:41.232Z</time></trkpt><trkpt lat="45.3264483" lon="8.44183"><ele>122.0</ele><time>2026-03-22T12:49:42.232Z</time></trkpt><trkpt lat="45.3265233" lon="8.4418317"><ele>122.0</ele><time>2026-03-22T12:49:43.232Z</time></trkpt><trkpt lat="45.326595" lon="8.44183"><ele>122.0</ele><time>2026-03-22T12:49:44.232Z</time></trkpt><trkpt lat="45.3267267" lon="8.441825"><ele>121.99999999999999</ele><time>2026-03-22T12:49:46.232Z</time></trkpt><trkpt lat="45.3268033" lon="8.44183"><ele>122.0</ele><time>2026-03-22T12:49:47.232Z</time></trkpt><trkpt lat="45.32689" lon="8.44183"><ele>122.0</ele><time>2026-03-22T12:49:48.232Z</time></trkpt><trkpt lat="45.3269833" lon="8.44183"><ele>121.99999999999999</ele><time>2026-03-22T12:49:49.232Z</time></trkpt><trkpt lat="45.3270733" lon="8.4418467"><ele>121.99999999999999</ele><time>2026-03-22T12:49:50.232Z</time></trkpt><trkpt lat="45.327165" lon="8.4418833"><ele>122.0</ele><time>2026-03-22T12:49:51.232Z</time></trkpt><trkpt lat="45.3272533" lon="8.4419333"><ele>122.0</ele><time>2026-03-22T12:49:52.232Z</time></trkpt><trkpt lat="45.3273383" lon="8.441975"><ele>122.16666666666666</ele><time>2026-03-22T12:49:53.232Z</time></trkpt><trkpt lat="45.3274167" lon="8.442025"><ele>122.33333333333333</ele><time>2026-03-22T12:49:54.232Z</time></trkpt><trkpt lat="45.3274933" lon="8.4420767"><ele>122.5</ele><time>2026-03-22T12:49:55.232Z</time></trkpt><trkpt lat="45.32757" lon="8.4421283"><ele>122.66666666666666</ele><time>2026-03-22T12:49:56.232Z</time></trkpt><trkpt lat="45.3276567" lon="8.44218"><ele>122.83333333333333</ele><time>2026-03-22T12:49:57.232Z</time></trkpt><trkpt lat="45.32774" lon="8.4422267"><ele>123.0</ele><time>2026-03-22T12:49:58.232Z</time></trkpt><trkpt lat="45.32782" lon="8.4422767"><ele>123.0</ele><time>2026-03-22T12:49:59.232Z</time></trkpt><trkpt lat="45.3279067" lon="8.4423267"><ele>123.00000000000001</ele><time>2026-03-22T12:50:00.232Z</time></trkpt><trkpt lat="45.32799" lon="8.44238"><ele>123.00000000000001</ele><time>2026-03-22T12:50:01.232Z</time></trkpt><trkpt lat="45.32808" lon="8.4424433"><ele>123.0</ele><time>2026-03-22T12:50:02.232Z</time></trkpt><trkpt lat="45.3281733" lon="8.442505"><ele>123.0</ele><time>2026-03-22T12:50:03.232Z</time></trkpt><trkpt lat="45.32827" lon="8.4425667"><ele>123.0</ele><time>2026-03-22T12:50:04.232Z</time></trkpt><trkpt lat="45.3283617" lon="8.4426217"><ele>123.00000000000001</ele><time>2026-03-22T12:50:05.232Z</time></trkpt><trkpt lat="45.3284483" lon="8.44269"><ele>123.00000000000001</ele><time>2026-03-22T12:50:06.232Z</time></trkpt><trkpt lat="45.32854" lon="8.4427467"><ele>123.0</ele><time>2026-03-22T12:50:07.232Z</time></trkpt><trkpt lat="45.3286317" lon="8.4428033"><ele>123.0</ele><time>2026-03-22T12:50:08.232Z</time></trkpt><trkpt lat="45.3287367" lon="8.4428633"><ele>123.0</ele><time>2026-03-22T12:50:09.232Z</time></trkpt><trkpt lat="45.3288333" lon="8.4429233"><ele>123.00000000000001</ele><time>2026-03-22T12:50:10.232Z</time></trkpt><trkpt lat="45.32894" lon="8.4429783"><ele>123.00000000000001</ele><time>2026-03-22T12:50:11.232Z</time></trkpt><trkpt lat="45.3290483" lon="8.4430317"><ele>123.0</ele><time>2026-03-22T12:50:12.232Z</time></trkpt><trkpt lat="45.329155" lon="8.4430917"><ele>123.0</ele><time>2026-03-22T12:50:13.232Z</time></trkpt><trkpt lat="45.3293883" lon="8.4432333"><ele>123.0</ele><time>2026-03-22T12:50:15.232Z</time></trkpt><trkpt lat="45.3295033" lon="8.4432983"><ele>123.0</ele><time>2026-03-22T12:50:16.232Z</time></trkpt><trkpt lat="45.3296167" lon="8.4433517"><ele>123.0</ele><time>2026-03-22T12:50:17.232Z</time></trkpt><trkpt lat="45.32973" lon="8.4434083"><ele>123.0</ele><time>2026-03-22T12:50:18.232Z</time></trkpt><trkpt lat="45.3298417" lon="8.4434633"><ele>123.0</ele><time>2026-03-22T12:50:19.232Z</time></trkpt><trkpt lat="45.3299583" lon="8.44352"><ele>123.0</ele><time>2026-03-22T12:50:20.232Z</time></trkpt><trkpt lat="45.3300717" lon="8.443585"><ele>123.0</ele><time>2026-03-22T12:50:21.232Z</time></trkpt><trkpt lat="45.330195" lon="8.4436367"><ele>123.0</ele><time>2026-03-22T12:50:22.232Z</time></trkpt><trkpt lat="45.3303117" lon="8.4436933"><ele>123.0</ele><time>2026-03-22T12:50:23.232Z</time></trkpt><trkpt lat="45.330425" lon="8.4437483"><ele>123.0</ele><time>2026-03-22T12:50:24.232Z</time></trkpt><trkpt lat="45.3305417" lon="8.4438083"><ele>123.0</ele><time>2026-03-22T12:50:25.232Z</time></trkpt><trkpt lat="45.3306617" lon="8.44388"><ele>123.0</ele><time>2026-03-22T12:50:26.232Z</time></trkpt><trkpt lat="45.3307817" lon="8.443945"><ele>123.0</ele><time>2026-03-22T12:50:27.232Z</time></trkpt><trkpt lat="45.3309" lon="8.4440167"><ele>123.0</ele><time>2026-03-22T12:50:28.232Z</time></trkpt><trkpt lat="45.3310267" lon="8.4440817"><ele>123.0</ele><time>2026-03-22T12:50:29.232Z</time></trkpt><trkpt lat="45.33116" lon="8.4441467"><ele>123.0</ele><time>2026-03-22T12:50:30.232Z</time></trkpt><trkpt lat="45.33129" lon="8.4442267"><ele>123.0</ele><time>2026-03-22T12:50:31.232Z</time></trkpt><trkpt lat="45.3314183" lon="8.4443017"><ele>123.0</ele><time>2026-03-22T12:50:32.232Z</time></trkpt><trkpt lat="45.331545" lon="8.4443683"><ele>123.0</ele><time>2026-03-22T12:50:33.231Z</time></trkpt><trkpt lat="45.3316783" lon="8.4444283"><ele>123.0</ele><time>2026-03-22T12:50:34.231Z</time></trkpt><trkpt lat="45.3318133" lon="8.444495"><ele>123.0</ele><time>2026-03-22T12:50:35.231Z</time></trkpt><trkpt lat="45.3319467" lon="8.4445633"><ele>123.0</ele><time>2026-03-22T12:50:36.231Z</time></trkpt><trkpt lat="45.3320783" lon="8.44464"><ele>123.0</ele><time>2026-03-22T12:50:37.231Z</time></trkpt><trkpt lat="45.332205" lon="8.4447133"><ele>123.0</ele><time>2026-03-22T12:50:38.231Z</time></trkpt><trkpt lat="45.3323333" lon="8.44478"><ele>122.5</ele><time>2026-03-22T12:50:39.231Z</time></trkpt><trkpt lat="45.3324633" lon="8.4448467"><ele>122.0</ele><time>2026-03-22T12:50:40.231Z</time></trkpt><trkpt lat="45.3325967" lon="8.4449217"><ele>121.5</ele><time>2026-03-22T12:50:41.231Z</time></trkpt><trkpt lat="45.332725" lon="8.4449983"><ele>121.0</ele><time>2026-03-22T12:50:42.231Z</time></trkpt><trkpt lat="45.3328567" lon="8.4450783"><ele>121.0</ele><time>2026-03-22T12:50:43.231Z</time></trkpt><trkpt lat="45.3329933" lon="8.4451417"><ele>121.0</ele><time>2026-03-22T12:50:44.231Z</time></trkpt><trkpt lat="45.33313" lon="8.4451933"><ele>121.0</ele><time>2026-03-22T12:50:45.231Z</time></trkpt><trkpt lat="45.3332583" lon="8.4452333"><ele>121.0</ele><time>2026-03-22T12:50:46.231Z</time></trkpt><trkpt lat="45.3333983" lon="8.4452467"><ele>121.25</ele><time>2026-03-22T12:50:47.231Z</time></trkpt><trkpt lat="45.33354" lon="8.4452433"><ele>121.5</ele><time>2026-03-22T12:50:48.231Z</time></trkpt><trkpt lat="45.3336833" lon="8.44523"><ele>121.75</ele><time>2026-03-22T12:50:49.231Z</time></trkpt><trkpt lat="45.3338167" lon="8.4452117"><ele>122.0</ele><time>2026-03-22T12:50:50.231Z</time></trkpt><trkpt lat="45.3340867" lon="8.4451933"><ele>122.0</ele><time>2026-03-22T12:50:52.231Z</time></trkpt><trkpt lat="45.3342233" lon="8.445185"><ele>122.0</ele><time>2026-03-22T12:50:53.231Z</time></trkpt><trkpt lat="45.3343617" lon="8.4451767"><ele>122.0</ele><time>2026-03-22T12:50:54.231Z</time></trkpt><trkpt lat="45.3344933" lon="8.4451583"><ele>122.0</ele><time>2026-03-22T12:50:55.231Z</time></trkpt><trkpt lat="45.3346217" lon="8.4451333"><ele>122.0</ele><time>2026-03-22T12:50:56.231Z</time></trkpt><trkpt lat="45.3347533" lon="8.4451117"><ele>122.0</ele><time>2026-03-22T12:50:57.231Z</time></trkpt><trkpt lat="45.3348867" lon="8.4450733"><ele>122.0</ele><time>2026-03-22T12:50:58.231Z</time></trkpt><trkpt lat="45.3350217" lon="8.4450267"><ele>122.0</ele><time>2026-03-22T12:50:59.231Z</time></trkpt><trkpt lat="45.3351483" lon="8.4449767"><ele>122.0</ele><time>2026-03-22T12:51:00.232Z</time></trkpt><trkpt lat="45.3354133" lon="8.44485"><ele>122.0</ele><time>2026-03-22T12:51:02.231Z</time></trkpt><trkpt lat="45.3355383" lon="8.4447717"><ele>122.0</ele><time>2026-03-22T12:51:03.231Z</time></trkpt><trkpt lat="45.33566" lon="8.4446867"><ele>122.25</ele><time>2026-03-22T12:51:04.231Z</time></trkpt><trkpt lat="45.3357817" lon="8.4445883"><ele>122.5</ele><time>2026-03-22T12:51:05.231Z</time></trkpt><trkpt lat="45.335905" lon="8.44448"><ele>122.75</ele><time>2026-03-22T12:51:06.231Z</time></trkpt><trkpt lat="45.3360267" lon="8.4443667"><ele>123.0</ele><time>2026-03-22T12:51:07.231Z</time></trkpt><trkpt lat="45.336145" lon="8.4442417"><ele>123.0</ele><time>2026-03-22T12:51:08.231Z</time></trkpt><trkpt lat="45.3362617" lon="8.444125"><ele>123.0</ele><time>2026-03-22T12:51:09.231Z</time></trkpt><trkpt lat="45.3363767" lon="8.4439983"><ele>123.0</ele><time>2026-03-22T12:51:10.231Z</time></trkpt><trkpt lat="45.3364983" lon="8.4438833"><ele>123.0</ele><time>2026-03-22T12:51:11.231Z</time></trkpt><trkpt lat="45.3366167" lon="8.44376"><ele>122.25</ele><time>2026-03-22T12:51:12.231Z</time></trkpt><trkpt lat="45.336725" lon="8.44363"><ele>121.5</ele><time>2026-03-22T12:51:13.231Z</time></trkpt><trkpt lat="45.336835" lon="8.4435117"><ele>120.75</ele><time>2026-03-22T12:51:14.231Z</time></trkpt><trkpt lat="45.3369483" lon="8.4433917"><ele>120.0</ele><time>2026-03-22T12:51:15.231Z</time></trkpt><trkpt lat="45.33706" lon="8.4432517"><ele>120.0</ele><time>2026-03-22T12:51:16.231Z</time></trkpt><trkpt lat="45.3371683" lon="8.44313"><ele>120.0</ele><time>2026-03-22T12:51:17.231Z</time></trkpt><trkpt lat="45.337285" lon="8.44301"><ele>120.0</ele><time>2026-03-22T12:51:18.231Z</time></trkpt><trkpt lat="45.3374" lon="8.4428833"><ele>120.0</ele><time>2026-03-22T12:51:19.231Z</time></trkpt><trkpt lat="45.3375167" lon="8.4427517"><ele>121.0</ele><time>2026-03-22T12:51:20.231Z</time></trkpt><trkpt lat="45.3376283" lon="8.4426283"><ele>122.0</ele><time>2026-03-22T12:51:21.231Z</time></trkpt><trkpt lat="45.33774" lon="8.4425"><ele>123.0</ele><time>2026-03-22T12:51:22.231Z</time></trkpt><trkpt lat="45.3378417" lon="8.442395"><ele>124.0</ele><time>2026-03-22T12:51:23.231Z</time></trkpt><trkpt lat="45.3379367" lon="8.4422933"><ele>124.0</ele><time>2026-03-22T12:51:24.231Z</time></trkpt><trkpt lat="45.338025" lon="8.4421967"><ele>124.0</ele><time>2026-03-22T12:51:25.231Z</time></trkpt><trkpt lat="45.3381117" lon="8.4421067"><ele>124.0</ele><time>2026-03-22T12:51:26.231Z</time></trkpt><trkpt lat="45.3381933" lon="8.4420233"><ele>124.0</ele><time>2026-03-22T12:51:27.231Z</time></trkpt><trkpt lat="45.33827" lon="8.4419333"><ele>124.0</ele><time>2026-03-22T12:51:28.231Z</time></trkpt><trkpt lat="45.3383333" lon="8.4418567"><ele>124.33333333333334</ele><time>2026-03-22T12:51:29.231Z</time></trkpt><trkpt lat="45.3383817" lon="8.44179"><ele>124.66666666666667</ele><time>2026-03-22T12:51:30.231Z</time></trkpt><trkpt lat="45.3384267" lon="8.4417067"><ele>125.0</ele><time>2026-03-22T12:51:31.231Z</time></trkpt><trkpt lat="45.338465" lon="8.4415717"><ele>125.33333333333334</ele><time>2026-03-22T12:51:33.231Z</time></trkpt><trkpt lat="45.3385067" lon="8.4414967"><ele>125.66666666666667</ele><time>2026-03-22T12:51:35.231Z</time></trkpt><trkpt lat="45.33859" lon="8.4414717"><ele>126.0</ele><time>2026-03-22T12:51:37.231Z</time></trkpt><trkpt lat="45.3386517" lon="8.4414933"><ele>126.0</ele><time>2026-03-22T12:51:38.231Z</time></trkpt><trkpt lat="45.3387683" lon="8.4415283"><ele>126.0</ele><time>2026-03-22T12:51:40.231Z</time></trkpt><trkpt lat="45.3388933" lon="8.4414717"><ele>126.0</ele><time>2026-03-22T12:51:42.231Z</time></trkpt><trkpt lat="45.3389717" lon="8.4414283"><ele>126.0</ele><time>2026-03-22T12:51:43.231Z</time></trkpt><trkpt lat="45.3390567" lon="8.4413867"><ele>126.0</ele><time>2026-03-22T12:51:44.231Z</time></trkpt><trkpt lat="45.33914" lon="8.4413517"><ele>126.0</ele><time>2026-03-22T12:51:45.231Z</time></trkpt><trkpt lat="45.3392217" lon="8.4413217"><ele>126.0</ele><time>2026-03-22T12:51:46.231Z</time></trkpt><trkpt lat="45.339305" lon="8.4413017"><ele>126.0</ele><time>2026-03-22T12:51:47.231Z</time></trkpt><trkpt lat="45.339385" lon="8.4413067"><ele>126.0</ele><time>2026-03-22T12:51:48.231Z</time></trkpt><trkpt lat="45.3394617" lon="8.4413233"><ele>126.0</ele><time>2026-03-22T12:51:49.231Z</time></trkpt><trkpt lat="45.3395333" lon="8.44136"><ele>126.0</ele><time>2026-03-22T12:51:50.231Z</time></trkpt><trkpt lat="45.3396083" lon="8.4414183"><ele>126.0</ele><time>2026-03-22T12:51:51.231Z</time></trkpt><trkpt lat="45.3396867" lon="8.4414683"><ele>126.0</ele><time>2026-03-22T12:51:52.231Z</time></trkpt><trkpt lat="45.3397767" lon="8.4415083"><ele>126.0</ele><time>2026-03-22T12:51:53.231Z</time></trkpt><trkpt lat="45.3398683" lon="8.4415317"><ele>126.0</ele><time>2026-03-22T12:51:54.231Z</time></trkpt><trkpt lat="45.3399617" lon="8.44154"><ele>126.0</ele><time>2026-03-22T12:51:55.231Z</time></trkpt><trkpt lat="45.340055" lon="8.441555"><ele>125.6</ele><time>2026-03-22T12:51:56.231Z</time></trkpt><trkpt lat="45.340155" lon="8.4415533"><ele>125.19999999999999</ele><time>2026-03-22T12:51:57.231Z</time></trkpt><trkpt lat="45.3402533" lon="8.441555"><ele>124.80000000000001</ele><time>2026-03-22T12:51:58.231Z</time></trkpt><trkpt lat="45.3403483" lon="8.4415667"><ele>124.4</ele><time>2026-03-22T12:51:59.231Z</time></trkpt><trkpt lat="45.3404433" lon="8.4415733"><ele>124.0</ele><time>2026-03-22T12:52:00.231Z</time></trkpt><trkpt lat="45.340535" lon="8.4415733"><ele>123.6</ele><time>2026-03-22T12:52:01.231Z</time></trkpt><trkpt lat="45.3406267" lon="8.4415817"><ele>123.2</ele><time>2026-03-22T12:52:02.231Z</time></trkpt><trkpt lat="45.3407317" lon="8.4415933"><ele>122.79999999999998</ele><time>2026-03-22T12:52:03.231Z</time></trkpt><trkpt lat="45.34083" lon="8.4416"><ele>122.39999999999999</ele><time>2026-03-22T12:52:04.231Z</time></trkpt><trkpt lat="45.3409267" lon="8.4416167"><ele>122.0</ele><time>2026-03-22T12:52:05.231Z</time></trkpt><trkpt lat="45.34103" lon="8.4416283"><ele>122.0</ele><time>2026-03-22T12:52:06.231Z</time></trkpt><trkpt lat="45.3411383" lon="8.4416533"><ele>121.99999999999999</ele><time>2026-03-22T12:52:07.231Z</time></trkpt><trkpt lat="45.3412467" lon="8.4416783"><ele>121.99999999999999</ele><time>2026-03-22T12:52:08.231Z</time></trkpt><trkpt lat="45.3413467" lon="8.4417"><ele>122.0</ele><time>2026-03-22T12:52:09.231Z</time></trkpt><trkpt lat="45.341455" lon="8.4417267"><ele>122.0</ele><time>2026-03-22T12:52:10.231Z</time></trkpt><trkpt lat="45.3415667" lon="8.4417533"><ele>122.0</ele><time>2026-03-22T12:52:11.231Z</time></trkpt><trkpt lat="45.3416767" lon="8.4417833"><ele>122.0</ele><time>2026-03-22T12:52:12.231Z</time></trkpt><trkpt lat="45.3417817" lon="8.441805"><ele>122.0</ele><time>2026-03-22T12:52:13.231Z</time></trkpt><trkpt lat="45.3419" lon="8.4418317"><ele>122.0</ele><time>2026-03-22T12:52:14.231Z</time></trkpt><trkpt lat="45.3420167" lon="8.441855"><ele>122.0</ele><time>2026-03-22T12:52:15.231Z</time></trkpt><trkpt lat="45.3421367" lon="8.4418667"><ele>122.0</ele><time>2026-03-22T12:52:16.231Z</time></trkpt><trkpt lat="45.3422517" lon="8.4418883"><ele>122.0</ele><time>2026-03-22T12:52:17.231Z</time></trkpt><trkpt lat="45.3423667" lon="8.4419167"><ele>122.0</ele><time>2026-03-22T12:52:18.231Z</time></trkpt><trkpt lat="45.3424883" lon="8.44194"><ele>122.5</ele><time>2026-03-22T12:52:19.231Z</time></trkpt><trkpt lat="45.3426117" lon="8.44195"><ele>123.0</ele><time>2026-03-22T12:52:20.231Z</time></trkpt><trkpt lat="45.34273" lon="8.44197"><ele>123.5</ele><time>2026-03-22T12:52:21.231Z</time></trkpt><trkpt lat="45.3428483" lon="8.4419917"><ele>124.0</ele><time>2026-03-22T12:52:22.231Z</time></trkpt><trkpt lat="45.3429633" lon="8.44201"><ele>123.75</ele><time>2026-03-22T12:52:23.231Z</time></trkpt><trkpt lat="45.3430833" lon="8.4420333"><ele>123.5</ele><time>2026-03-22T12:52:24.231Z</time></trkpt><trkpt lat="45.3432133" lon="8.4420667"><ele>123.25</ele><time>2026-03-22T12:52:25.231Z</time></trkpt><trkpt lat="45.34334" lon="8.4420983"><ele>123.0</ele><time>2026-03-22T12:52:26.231Z</time></trkpt><trkpt lat="45.3434667" lon="8.442115"><ele>123.5</ele><time>2026-03-22T12:52:27.231Z</time></trkpt><trkpt lat="45.343585" lon="8.4421417"><ele>124.0</ele><time>2026-03-22T12:52:28.231Z</time></trkpt><trkpt lat="45.3437033" lon="8.4421633"><ele>124.5</ele><time>2026-03-22T12:52:29.231Z</time></trkpt><trkpt lat="45.3438233" lon="8.4421683"><ele>125.0</ele><time>2026-03-22T12:52:30.231Z</time></trkpt><trkpt lat="45.34395" lon="8.4421567"><ele>125.0</ele><time>2026-03-22T12:52:31.231Z</time></trkpt><trkpt lat="45.34408" lon="8.4421433"><ele>125.0</ele><time>2026-03-22T12:52:32.231Z</time></trkpt><trkpt lat="45.344205" lon="8.4421333"><ele>125.0</ele><time>2026-03-22T12:52:33.231Z</time></trkpt><trkpt lat="45.344335" lon="8.4421233"><ele>125.0</ele><time>2026-03-22T12:52:34.231Z</time></trkpt><trkpt lat="45.344465" lon="8.4421117"><ele>125.0</ele><time>2026-03-22T12:52:35.231Z</time></trkpt><trkpt lat="45.3445983" lon="8.442105"><ele>125.0</ele><time>2026-03-22T12:52:36.231Z</time></trkpt><trkpt lat="45.3447333" lon="8.4420967"><ele>125.0</ele><time>2026-03-22T12:52:37.231Z</time></trkpt><trkpt lat="45.34487" lon="8.4420867"><ele>125.0</ele><time>2026-03-22T12:52:38.231Z</time></trkpt><trkpt lat="45.3450033" lon="8.4420917"><ele>125.25</ele><time>2026-03-22T12:52:39.231Z</time></trkpt><trkpt lat="45.3451383" lon="8.4420883"><ele>125.5</ele><time>2026-03-22T12:52:40.231Z</time></trkpt><trkpt lat="45.3452733" lon="8.4421133"><ele>125.75</ele><time>2026-03-22T12:52:41.231Z</time></trkpt><trkpt lat="45.3454083" lon="8.4421233"><ele>126.0</ele><time>2026-03-22T12:52:42.231Z</time></trkpt><trkpt lat="45.3455333" lon="8.4421217"><ele>125.75</ele><time>2026-03-22T12:52:43.231Z</time></trkpt><trkpt lat="45.3456817" lon="8.44213"><ele>125.5</ele><time>2026-03-22T12:52:44.231Z</time></trkpt><trkpt lat="45.345825" lon="8.4421317"><ele>125.25</ele><time>2026-03-22T12:52:45.231Z</time></trkpt><trkpt lat="45.3459583" lon="8.442135"><ele>125.0</ele><time>2026-03-22T12:52:46.231Z</time></trkpt><trkpt lat="45.3461017" lon="8.442145"><ele>125.0</ele><time>2026-03-22T12:52:47.231Z</time></trkpt><trkpt lat="45.346235" lon="8.4421433"><ele>125.0</ele><time>2026-03-22T12:52:48.231Z</time></trkpt><trkpt lat="45.3463667" lon="8.4421433"><ele>125.0</ele><time>2026-03-22T12:52:49.231Z</time></trkpt><trkpt lat="45.346505" lon="8.4421433"><ele>125.0</ele><time>2026-03-22T12:52:50.231Z</time></trkpt><trkpt lat="45.34664" lon="8.4421483"><ele>125.0</ele><time>2026-03-22T12:52:51.231Z</time></trkpt><trkpt lat="45.3467733" lon="8.4421583"><ele>125.0</ele><time>2026-03-22T12:52:52.231Z</time></trkpt><trkpt lat="45.3469117" lon="8.442165"><ele>125.0</ele><time>2026-03-22T12:52:53.231Z</time></trkpt><trkpt lat="45.3470433" lon="8.442165"><ele>125.0</ele><time>2026-03-22T12:52:54.231Z</time></trkpt><trkpt lat="45.3471783" lon="8.442175"><ele>125.25</ele><time>2026-03-22T12:52:55.231Z</time></trkpt><trkpt lat="45.3473083" lon="8.4421833"><ele>125.5</ele><time>2026-03-22T12:52:56.231Z</time></trkpt><trkpt lat="45.3474283" lon="8.4421933"><ele>125.75</ele><time>2026-03-22T12:52:57.231Z</time></trkpt><trkpt lat="45.3475367" lon="8.442215"><ele>126.0</ele><time>2026-03-22T12:52:58.231Z</time></trkpt><trkpt lat="45.347635" lon="8.4422383"><ele>126.0</ele><time>2026-03-22T12:52:59.231Z</time></trkpt><trkpt lat="45.34772" lon="8.4422783"><ele>126.0</ele><time>2026-03-22T12:53:00.231Z</time></trkpt><trkpt lat="45.3477983" lon="8.4423017"><ele>126.0</ele><time>2026-03-22T12:53:01.231Z</time></trkpt><trkpt lat="45.34787" lon="8.4423317"><ele>126.0</ele><time>2026-03-22T12:53:02.231Z</time></trkpt><trkpt lat="45.348025" lon="8.44243"><ele>126.0</ele><time>2026-03-22T12:53:05.231Z</time></trkpt><trkpt lat="45.34811" lon="8.4425067"><ele>126.0</ele><time>2026-03-22T12:53:07.231Z</time></trkpt><trkpt lat="45.3481917" lon="8.4424917"><ele>126.0</ele><time>2026-03-22T12:53:09.231Z</time></trkpt><trkpt lat="45.3482667" lon="8.442375"><ele>126.0</ele><time>2026-03-22T12:53:11.231Z</time></trkpt><trkpt lat="45.348305" lon="8.4422833"><ele>126.0</ele><time>2026-03-22T12:53:12.231Z</time></trkpt><trkpt lat="45.348345" lon="8.442175"><ele>126.0</ele><time>2026-03-22T12:53:13.231Z</time></trkpt><trkpt lat="45.3484017" lon="8.4420667"><ele>126.0</ele><time>2026-03-22T12:53:14.231Z</time></trkpt><trkpt lat="45.348515" lon="8.4418333"><ele>126.0</ele><time>2026-03-22T12:53:16.231Z</time></trkpt><trkpt lat="45.3485983" lon="8.4417183"><ele>126.0</ele><time>2026-03-22T12:53:17.231Z</time></trkpt><trkpt lat="45.3486767" lon="8.4415967"><ele>126.0</ele><time>2026-03-22T12:53:18.231Z</time></trkpt><trkpt lat="45.3487583" lon="8.4414733"><ele>126.0</ele><time>2026-03-22T12:53:19.231Z</time></trkpt><trkpt lat="45.34884" lon="8.441345"><ele>126.0</ele><time>2026-03-22T12:53:20.231Z</time></trkpt><trkpt lat="45.34892" lon="8.4412117"><ele>126.0</ele><time>2026-03-22T12:53:21.231Z</time></trkpt><trkpt lat="45.349005" lon="8.4410717"><ele>126.0</ele><time>2026-03-22T12:53:22.231Z</time></trkpt><trkpt lat="45.3490917" lon="8.4409267"><ele>126.0</ele><time>2026-03-22T12:53:23.231Z</time></trkpt><trkpt lat="45.34918" lon="8.4407833"><ele>126.0</ele><time>2026-03-22T12:53:24.231Z</time></trkpt><trkpt lat="45.34927" lon="8.44064"><ele>126.0</ele><time>2026-03-22T12:53:25.231Z</time></trkpt><trkpt lat="45.349365" lon="8.4404983"><ele>126.0</ele><time>2026-03-22T12:53:26.231Z</time></trkpt><trkpt lat="45.3494633" lon="8.440355"><ele>126.0</ele><time>2026-03-22T12:53:27.231Z</time></trkpt><trkpt lat="45.34956" lon="8.4402233"><ele>125.5</ele><time>2026-03-22T12:53:28.232Z</time></trkpt><trkpt lat="45.3496567" lon="8.4400933"><ele>125.0</ele><time>2026-03-22T12:53:29.231Z</time></trkpt><trkpt lat="45.349755" lon="8.4399683"><ele>124.5</ele><time>2026-03-22T12:53:30.231Z</time></trkpt><trkpt lat="45.349855" lon="8.4398483"><ele>124.0</ele><time>2026-03-22T12:53:31.231Z</time></trkpt><trkpt lat="45.34995" lon="8.439715"><ele>124.0</ele><time>2026-03-22T12:53:32.231Z</time></trkpt><trkpt lat="45.3500483" lon="8.439585"><ele>124.0</ele><time>2026-03-22T12:53:33.231Z</time></trkpt><trkpt lat="45.3501467" lon="8.4394533"><ele>124.0</ele><time>2026-03-22T12:53:34.231Z</time></trkpt><trkpt lat="45.350245" lon="8.4393183"><ele>124.0</ele><time>2026-03-22T12:53:35.231Z</time></trkpt><trkpt lat="45.3503467" lon="8.4391883"><ele>124.0</ele><time>2026-03-22T12:53:36.231Z</time></trkpt><trkpt lat="45.350445" lon="8.43906"><ele>124.0</ele><time>2026-03-22T12:53:37.231Z</time></trkpt><trkpt lat="45.3505483" lon="8.4389283"><ele>124.0</ele><time>2026-03-22T12:53:38.231Z</time></trkpt><trkpt lat="45.35065" lon="8.4387983"><ele>124.0</ele><time>2026-03-22T12:53:39.231Z</time></trkpt><trkpt lat="45.350755" lon="8.4386683"><ele>123.75</ele><time>2026-03-22T12:53:40.231Z</time></trkpt><trkpt lat="45.3508567" lon="8.4385417"><ele>123.5</ele><time>2026-03-22T12:53:41.231Z</time></trkpt><trkpt lat="45.350975" lon="8.4384483"><ele>123.25</ele><time>2026-03-22T12:53:42.231Z</time></trkpt><trkpt lat="45.351095" lon="8.4383633"><ele>123.0</ele><time>2026-03-22T12:53:43.231Z</time></trkpt><trkpt lat="45.3512167" lon="8.43829"><ele>123.0</ele><time>2026-03-22T12:53:44.231Z</time></trkpt><trkpt lat="45.3513433" lon="8.4382167"><ele>123.0</ele><time>2026-03-22T12:53:45.231Z</time></trkpt><trkpt lat="45.3514683" lon="8.4381433"><ele>123.0</ele><time>2026-03-22T12:53:46.231Z</time></trkpt><trkpt lat="45.351585" lon="8.4380767"><ele>123.0</ele><time>2026-03-22T12:53:47.231Z</time></trkpt><trkpt lat="45.351715" lon="8.4380067"><ele>123.0</ele><time>2026-03-22T12:53:48.231Z</time></trkpt><trkpt lat="45.351845" lon="8.437945"><ele>123.0</ele><time>2026-03-22T12:53:49.231Z</time></trkpt><trkpt lat="45.3519817" lon="8.437895"><ele>123.0</ele><time>2026-03-22T12:53:50.231Z</time></trkpt><trkpt lat="45.3521267" lon="8.4378433"><ele>123.0</ele><time>2026-03-22T12:53:51.231Z</time></trkpt><trkpt lat="45.3522733" lon="8.43779"><ele>124.0</ele><time>2026-03-22T12:53:52.231Z</time></trkpt><trkpt lat="45.3524217" lon="8.4377433"><ele>125.0</ele><time>2026-03-22T12:53:53.231Z</time></trkpt><trkpt lat="45.3525683" lon="8.4376833"><ele>126.0</ele><time>2026-03-22T12:53:54.231Z</time></trkpt><trkpt lat="45.3527117" lon="8.4376233"><ele>126.0</ele><time>2026-03-22T12:53:55.231Z</time></trkpt><trkpt lat="45.3528483" lon="8.4375617"><ele>126.0</ele><time>2026-03-22T12:53:56.231Z</time></trkpt><trkpt lat="45.3529767" lon="8.4374867"><ele>126.0</ele><time>2026-03-22T12:53:57.231Z</time></trkpt><trkpt lat="45.3531" lon="8.4373917"><ele>126.0</ele><time>2026-03-22T12:53:58.231Z</time></trkpt><trkpt lat="45.3532167" lon="8.4372867"><ele>126.0</ele><time>2026-03-22T12:53:59.231Z</time></trkpt><trkpt lat="45.353325" lon="8.4371667"><ele>126.0</ele><time>2026-03-22T12:54:00.231Z</time></trkpt><trkpt lat="45.3534317" lon="8.437035"><ele>126.0</ele><time>2026-03-22T12:54:01.231Z</time></trkpt><trkpt lat="45.3535367" lon="8.43691"><ele>126.0</ele><time>2026-03-22T12:54:02.231Z</time></trkpt><trkpt lat="45.3536433" lon="8.43677"><ele>125.75</ele><time>2026-03-22T12:54:03.231Z</time></trkpt><trkpt lat="45.3537433" lon="8.4366317"><ele>125.5</ele><time>2026-03-22T12:54:04.231Z</time></trkpt><trkpt lat="45.3538467" lon="8.436495"><ele>125.25</ele><time>2026-03-22T12:54:05.231Z</time></trkpt><trkpt lat="45.3539417" lon="8.4363567"><ele>125.0</ele><time>2026-03-22T12:54:06.231Z</time></trkpt><trkpt lat="45.3540433" lon="8.4362167"><ele>124.75</ele><time>2026-03-22T12:54:07.231Z</time></trkpt><trkpt lat="45.3541467" lon="8.4360767"><ele>124.5</ele><time>2026-03-22T12:54:08.231Z</time></trkpt><trkpt lat="45.35425" lon="8.4359333"><ele>124.25</ele><time>2026-03-22T12:54:09.231Z</time></trkpt><trkpt lat="45.3543583" lon="8.435785"><ele>124.0</ele><time>2026-03-22T12:54:10.231Z</time></trkpt><trkpt lat="45.3544633" lon="8.4356467"><ele>124.0</ele><time>2026-03-22T12:54:11.231Z</time></trkpt><trkpt lat="45.3545717" lon="8.4354933"><ele>124.0</ele><time>2026-03-22T12:54:12.231Z</time></trkpt><trkpt lat="45.3546817" lon="8.43534"><ele>124.0</ele><time>2026-03-22T12:54:13.231Z</time></trkpt><trkpt lat="45.3547983" lon="8.4351867"><ele>124.5</ele><time>2026-03-22T12:54:14.231Z</time></trkpt><trkpt lat="45.3549067" lon="8.4350417"><ele>125.0</ele><time>2026-03-22T12:54:15.231Z</time></trkpt><trkpt lat="45.35501" lon="8.4348883"><ele>125.5</ele><time>2026-03-22T12:54:16.231Z</time></trkpt><trkpt lat="45.3551117" lon="8.4347383"><ele>126.0</ele><time>2026-03-22T12:54:17.231Z</time></trkpt><trkpt lat="45.355215" lon="8.43459"><ele>126.0</ele><time>2026-03-22T12:54:18.231Z</time></trkpt><trkpt lat="45.3553233" lon="8.4344533"><ele>126.0</ele><time>2026-03-22T12:54:19.231Z</time></trkpt><trkpt lat="45.3554167" lon="8.4343067"><ele>126.0</ele><time>2026-03-22T12:54:20.231Z</time></trkpt><trkpt lat="45.3555183" lon="8.4341617"><ele>126.0</ele><time>2026-03-22T12:54:21.231Z</time></trkpt><trkpt lat="45.35562" lon="8.43402"><ele>126.0</ele><time>2026-03-22T12:54:22.231Z</time></trkpt><trkpt lat="45.35573" lon="8.433885"><ele>126.0</ele><time>2026-03-22T12:54:23.231Z</time></trkpt><trkpt lat="45.355935" lon="8.4336033"><ele>126.0</ele><time>2026-03-22T12:54:25.231Z</time></trkpt><trkpt lat="45.35604" lon="8.4334633"><ele>126.0</ele><time>2026-03-22T12:54:26.231Z</time></trkpt><trkpt lat="45.3562383" lon="8.4331883"><ele>126.0</ele><time>2026-03-22T12:54:28.231Z</time></trkpt><trkpt lat="45.356345" lon="8.4330517"><ele>126.0</ele><time>2026-03-22T12:54:29.231Z</time></trkpt><trkpt lat="45.3564533" lon="8.4329083"><ele>125.66666666666666</ele><time>2026-03-22T12:54:30.231Z</time></trkpt><trkpt lat="45.3565667" lon="8.4327583"><ele>125.33333333333333</ele><time>2026-03-22T12:54:31.231Z</time></trkpt><trkpt lat="45.3566767" lon="8.4325967"><ele>125.0</ele><time>2026-03-22T12:54:32.231Z</time></trkpt><trkpt lat="45.3567783" lon="8.4324433"><ele>125.0</ele><time>2026-03-22T12:54:33.231Z</time></trkpt><trkpt lat="45.35689" lon="8.4322967"><ele>125.0</ele><time>2026-03-22T12:54:34.231Z</time></trkpt><trkpt lat="45.3570067" lon="8.4321483"><ele>125.0</ele><time>2026-03-22T12:54:35.231Z</time></trkpt><trkpt lat="45.3571117" lon="8.4319817"><ele>125.66666666666666</ele><time>2026-03-22T12:54:36.231Z</time></trkpt><trkpt lat="45.357215" lon="8.4318133"><ele>126.33333333333334</ele><time>2026-03-22T12:54:37.231Z</time></trkpt><trkpt lat="45.3573233" lon="8.4316467"><ele>127.0</ele><time>2026-03-22T12:54:38.231Z</time></trkpt><trkpt lat="45.3574283" lon="8.43148"><ele>127.0</ele><time>2026-03-22T12:54:39.231Z</time></trkpt><trkpt lat="45.3575367" lon="8.4313117"><ele>127.0</ele><time>2026-03-22T12:54:40.231Z</time></trkpt><trkpt lat="45.3576433" lon="8.431145"><ele>127.0</ele><time>2026-03-22T12:54:41.231Z</time></trkpt><trkpt lat="45.35775" lon="8.4309767"><ele>127.0</ele><time>2026-03-22T12:54:42.231Z</time></trkpt><trkpt lat="45.357855" lon="8.4307967"><ele>127.0</ele><time>2026-03-22T12:54:43.231Z</time></trkpt><trkpt lat="45.3579633" lon="8.4306267"><ele>127.0</ele><time>2026-03-22T12:54:44.231Z</time></trkpt><trkpt lat="45.3580783" lon="8.4304617"><ele>126.66666666666667</ele><time>2026-03-22T12:54:45.231Z</time></trkpt><trkpt lat="45.3581883" lon="8.4302817"><ele>126.33333333333334</ele><time>2026-03-22T12:54:46.231Z</time></trkpt><trkpt lat="45.358295" lon="8.4301033"><ele>126.0</ele><time>2026-03-22T12:54:47.231Z</time></trkpt><trkpt lat="45.358395" lon="8.4299317"><ele>126.0</ele><time>2026-03-22T12:54:48.231Z</time></trkpt><trkpt lat="45.3584967" lon="8.4297667"><ele>126.0</ele><time>2026-03-22T12:54:49.231Z</time></trkpt><trkpt lat="45.3586033" lon="8.429605"><ele>126.0</ele><time>2026-03-22T12:54:50.231Z</time></trkpt><trkpt lat="45.358705" lon="8.4294417"><ele>126.0</ele><time>2026-03-22T12:54:51.23Z</time></trkpt><trkpt lat="45.3588117" lon="8.42928"><ele>126.0</ele><time>2026-03-22T12:54:52.23Z</time></trkpt><trkpt lat="45.358915" lon="8.4291117"><ele>126.0</ele><time>2026-03-22T12:54:53.23Z</time></trkpt><trkpt lat="45.3590133" lon="8.42895"><ele>126.0</ele><time>2026-03-22T12:54:54.23Z</time></trkpt><trkpt lat="45.3591133" lon="8.4287833"><ele>126.0</ele><time>2026-03-22T12:54:55.23Z</time></trkpt><trkpt lat="45.35922" lon="8.428615"><ele>126.0</ele><time>2026-03-22T12:54:56.23Z</time></trkpt><trkpt lat="45.3593233" lon="8.4284483"><ele>126.0</ele><time>2026-03-22T12:54:57.23Z</time></trkpt><trkpt lat="45.359425" lon="8.42829"><ele>126.0</ele><time>2026-03-22T12:54:58.23Z</time></trkpt><trkpt lat="45.359525" lon="8.4281183"><ele>126.0</ele><time>2026-03-22T12:54:59.23Z</time></trkpt><trkpt lat="45.3596283" lon="8.4279433"><ele>126.0</ele><time>2026-03-22T12:55:00.23Z</time></trkpt><trkpt lat="45.3597283" lon="8.4277767"><ele>126.0</ele><time>2026-03-22T12:55:01.23Z</time></trkpt><trkpt lat="45.359835" lon="8.4276117"><ele>126.0</ele><time>2026-03-22T12:55:02.23Z</time></trkpt><trkpt lat="45.3599417" lon="8.4274483"><ele>126.0</ele><time>2026-03-22T12:55:03.23Z</time></trkpt><trkpt lat="45.3600433" lon="8.4272767"><ele>126.0</ele><time>2026-03-22T12:55:04.23Z</time></trkpt><trkpt lat="45.360145" lon="8.4271083"><ele>126.0</ele><time>2026-03-22T12:55:05.23Z</time></trkpt><trkpt lat="45.3602417" lon="8.4269433"><ele>126.25</ele><time>2026-03-22T12:55:06.23Z</time></trkpt><trkpt lat="45.360335" lon="8.4267933"><ele>126.5</ele><time>2026-03-22T12:55:07.23Z</time></trkpt><trkpt lat="45.36042" lon="8.4266533"><ele>126.75</ele><time>2026-03-22T12:55:08.23Z</time></trkpt><trkpt lat="45.3605033" lon="8.426525"><ele>127.0</ele><time>2026-03-22T12:55:09.23Z</time></trkpt><trkpt lat="45.36059" lon="8.4263883"><ele>127.75</ele><time>2026-03-22T12:55:10.23Z</time></trkpt><trkpt lat="45.3606783" lon="8.4262467"><ele>128.5</ele><time>2026-03-22T12:55:11.23Z</time></trkpt><trkpt lat="45.3607683" lon="8.4261017"><ele>129.25</ele><time>2026-03-22T12:55:12.23Z</time></trkpt><trkpt lat="45.3608617" lon="8.4259483"><ele>130.0</ele><time>2026-03-22T12:55:13.23Z</time></trkpt><trkpt lat="45.3609567" lon="8.4257933"><ele>130.0</ele><time>2026-03-22T12:55:14.23Z</time></trkpt><trkpt lat="45.3610567" lon="8.42564"><ele>130.0</ele><time>2026-03-22T12:55:15.23Z</time></trkpt><trkpt lat="45.3611517" lon="8.4254717"><ele>130.0</ele><time>2026-03-22T12:55:16.23Z</time></trkpt><trkpt lat="45.3612433" lon="8.4253033"><ele>130.0</ele><time>2026-03-22T12:55:17.23Z</time></trkpt><trkpt lat="45.3613217" lon="8.42513"><ele>130.0</ele><time>2026-03-22T12:55:18.23Z</time></trkpt><trkpt lat="45.361405" lon="8.4249433"><ele>130.0</ele><time>2026-03-22T12:55:19.23Z</time></trkpt><trkpt lat="45.361555" lon="8.4245483"><ele>130.0</ele><time>2026-03-22T12:55:21.23Z</time></trkpt><trkpt lat="45.3616183" lon="8.4243533"><ele>130.0</ele><time>2026-03-22T12:55:22.23Z</time></trkpt><trkpt lat="45.3616817" lon="8.4241617"><ele>130.0</ele><time>2026-03-22T12:55:23.23Z</time></trkpt><trkpt lat="45.3618033" lon="8.42376"><ele>130.66666666666669</ele><time>2026-03-22T12:55:25.23Z</time></trkpt><trkpt lat="45.361875" lon="8.42357"><ele>131.33333333333334</ele><time>2026-03-22T12:55:26.23Z</time></trkpt><trkpt lat="45.361945" lon="8.42338"><ele>132.0</ele><time>2026-03-22T12:55:27.23Z</time></trkpt><trkpt lat="45.362015" lon="8.423185"><ele>132.0</ele><time>2026-03-22T12:55:28.23Z</time></trkpt><trkpt lat="45.3620833" lon="8.422985"><ele>132.0</ele><time>2026-03-22T12:55:29.23Z</time></trkpt><trkpt lat="45.3621517" lon="8.4227883"><ele>132.0</ele><time>2026-03-22T12:55:30.23Z</time></trkpt><trkpt lat="45.36222" lon="8.4225983"><ele>131.33333333333334</ele><time>2026-03-22T12:55:31.23Z</time></trkpt><trkpt lat="45.3622867" lon="8.4224017"><ele>130.66666666666669</ele><time>2026-03-22T12:55:32.23Z</time></trkpt><trkpt lat="45.36235" lon="8.422205"><ele>130.0</ele><time>2026-03-22T12:55:33.23Z</time></trkpt><trkpt lat="45.36242" lon="8.422015"><ele>130.0</ele><time>2026-03-22T12:55:34.23Z</time></trkpt><trkpt lat="45.3624867" lon="8.4218283"><ele>130.0</ele><time>2026-03-22T12:55:35.23Z</time></trkpt><trkpt lat="45.3625583" lon="8.4216367"><ele>130.0</ele><time>2026-03-22T12:55:36.23Z</time></trkpt><trkpt lat="45.3626317" lon="8.4214417"><ele>130.0</ele><time>2026-03-22T12:55:37.23Z</time></trkpt><trkpt lat="45.3626967" lon="8.4212483"><ele>130.0</ele><time>2026-03-22T12:55:38.23Z</time></trkpt><trkpt lat="45.362765" lon="8.4210533"><ele>130.0</ele><time>2026-03-22T12:55:39.23Z</time></trkpt><trkpt lat="45.3628317" lon="8.4208467"><ele>130.0</ele><time>2026-03-22T12:55:40.23Z</time></trkpt><trkpt lat="45.3629" lon="8.4206467"><ele>130.0</ele><time>2026-03-22T12:55:41.23Z</time></trkpt><trkpt lat="45.3629683" lon="8.4204483"><ele>130.0</ele><time>2026-03-22T12:55:42.23Z</time></trkpt><trkpt lat="45.3630383" lon="8.42026"><ele>129.33333333333334</ele><time>2026-03-22T12:55:43.23Z</time></trkpt><trkpt lat="45.36311" lon="8.4200617"><ele>128.66666666666666</ele><time>2026-03-22T12:55:44.23Z</time></trkpt><trkpt lat="45.3631733" lon="8.419865"><ele>128.0</ele><time>2026-03-22T12:55:45.23Z</time></trkpt><trkpt lat="45.3632433" lon="8.4196633"><ele>127.66666666666666</ele><time>2026-03-22T12:55:46.23Z</time></trkpt><trkpt lat="45.36331" lon="8.4194667"><ele>127.33333333333334</ele><time>2026-03-22T12:55:47.23Z</time></trkpt><trkpt lat="45.3633783" lon="8.4192633"><ele>127.0</ele><time>2026-03-22T12:55:48.23Z</time></trkpt><trkpt lat="45.3634533" lon="8.41906"><ele>127.0</ele><time>2026-03-22T12:55:49.23Z</time></trkpt><trkpt lat="45.3635233" lon="8.4188533"><ele>127.0</ele><time>2026-03-22T12:55:50.23Z</time></trkpt><trkpt lat="45.3636" lon="8.4186483"><ele>127.0</ele><time>2026-03-22T12:55:51.23Z</time></trkpt><trkpt lat="45.3636733" lon="8.4184467"><ele>127.33333333333334</ele><time>2026-03-22T12:55:52.23Z</time></trkpt><trkpt lat="45.3637433" lon="8.41824"><ele>127.66666666666666</ele><time>2026-03-22T12:55:53.23Z</time></trkpt><trkpt lat="45.3638167" lon="8.4180333"><ele>128.0</ele><time>2026-03-22T12:55:54.23Z</time></trkpt><trkpt lat="45.3638883" lon="8.41782"><ele>128.33333333333331</ele><time>2026-03-22T12:55:55.23Z</time></trkpt><trkpt lat="45.3639533" lon="8.4176217"><ele>128.66666666666666</ele><time>2026-03-22T12:55:56.23Z</time></trkpt><trkpt lat="45.3640167" lon="8.417425"><ele>129.0</ele><time>2026-03-22T12:55:57.23Z</time></trkpt><trkpt lat="45.36409" lon="8.4172317"><ele>129.33333333333334</ele><time>2026-03-22T12:55:58.23Z</time></trkpt><trkpt lat="45.36416" lon="8.4170383"><ele>129.66666666666669</ele><time>2026-03-22T12:55:59.23Z</time></trkpt><trkpt lat="45.36423" lon="8.4168333"><ele>130.0</ele><time>2026-03-22T12:56:00.23Z</time></trkpt><trkpt lat="45.3643" lon="8.41664"><ele>130.0</ele><time>2026-03-22T12:56:01.23Z</time></trkpt><trkpt lat="45.3643633" lon="8.41645"><ele>130.0</ele><time>2026-03-22T12:56:02.23Z</time></trkpt><trkpt lat="45.364435" lon="8.4162633"><ele>130.0</ele><time>2026-03-22T12:56:03.23Z</time></trkpt><trkpt lat="45.3645067" lon="8.41607"><ele>130.33333333333334</ele><time>2026-03-22T12:56:04.23Z</time></trkpt><trkpt lat="45.3645783" lon="8.415885"><ele>130.66666666666666</ele><time>2026-03-22T12:56:05.231Z</time></trkpt><trkpt lat="45.3646533" lon="8.415695"><ele>131.0</ele><time>2026-03-22T12:56:06.23Z</time></trkpt><trkpt lat="45.3647333" lon="8.41551"><ele>132.0</ele><time>2026-03-22T12:56:07.23Z</time></trkpt><trkpt lat="45.36482" lon="8.4153317"><ele>133.0</ele><time>2026-03-22T12:56:08.23Z</time></trkpt><trkpt lat="45.36491" lon="8.4151517"><ele>134.0</ele><time>2026-03-22T12:56:09.23Z</time></trkpt><trkpt lat="45.364995" lon="8.4149733"><ele>134.0</ele><time>2026-03-22T12:56:10.23Z</time></trkpt><trkpt lat="45.3650917" lon="8.4148017"><ele>134.0</ele><time>2026-03-22T12:56:11.23Z</time></trkpt><trkpt lat="45.36519" lon="8.414625"><ele>134.0</ele><time>2026-03-22T12:56:12.23Z</time></trkpt><trkpt lat="45.365295" lon="8.4144633"><ele>134.33333333333331</ele><time>2026-03-22T12:56:13.23Z</time></trkpt><trkpt lat="45.36541" lon="8.414295"><ele>134.66666666666666</ele><time>2026-03-22T12:56:14.23Z</time></trkpt><trkpt lat="45.365515" lon="8.414125"><ele>135.0</ele><time>2026-03-22T12:56:15.23Z</time></trkpt><trkpt lat="45.3656217" lon="8.4139817"><ele>134.0</ele><time>2026-03-22T12:56:16.23Z</time></trkpt><trkpt lat="45.3657333" lon="8.4138417"><ele>133.0</ele><time>2026-03-22T12:56:17.23Z</time></trkpt><trkpt lat="45.3658317" lon="8.413695"><ele>132.0</ele><time>2026-03-22T12:56:18.23Z</time></trkpt><trkpt lat="45.3659133" lon="8.413535"><ele>131.0</ele><time>2026-03-22T12:56:19.23Z</time></trkpt><trkpt lat="45.3659817" lon="8.4133483"><ele>131.0</ele><time>2026-03-22T12:56:20.23Z</time></trkpt><trkpt lat="45.3660433" lon="8.41316"><ele>131.0</ele><time>2026-03-22T12:56:21.23Z</time></trkpt><trkpt lat="45.3660933" lon="8.412965"><ele>131.0</ele><time>2026-03-22T12:56:22.23Z</time></trkpt><trkpt lat="45.3661533" lon="8.412775"><ele>131.0</ele><time>2026-03-22T12:56:23.23Z</time></trkpt><trkpt lat="45.3662067" lon="8.4126083"><ele>131.33333333333331</ele><time>2026-03-22T12:56:24.23Z</time></trkpt><trkpt lat="45.366265" lon="8.412455"><ele>131.66666666666666</ele><time>2026-03-22T12:56:25.23Z</time></trkpt><trkpt lat="45.36632" lon="8.4123117"><ele>132.0</ele><time>2026-03-22T12:56:26.23Z</time></trkpt><trkpt lat="45.3664567" lon="8.4120667"><ele>131.2</ele><time>2026-03-22T12:56:28.23Z</time></trkpt><trkpt lat="45.3665333" lon="8.4119767"><ele>130.39999999999998</ele><time>2026-03-22T12:56:29.23Z</time></trkpt><trkpt lat="45.3666233" lon="8.4118867"><ele>129.60000000000002</ele><time>2026-03-22T12:56:30.23Z</time></trkpt><trkpt lat="45.3667283" lon="8.4118017"><ele>128.8</ele><time>2026-03-22T12:56:31.23Z</time></trkpt><trkpt lat="45.3668283" lon="8.4117217"><ele>128.0</ele><time>2026-03-22T12:56:32.23Z</time></trkpt><trkpt lat="45.3669317" lon="8.4116383"><ele>128.0</ele><time>2026-03-22T12:56:33.23Z</time></trkpt><trkpt lat="45.3670483" lon="8.4115583"><ele>128.0</ele><time>2026-03-22T12:56:34.23Z</time></trkpt><trkpt lat="45.3671617" lon="8.4114767"><ele>128.0</ele><time>2026-03-22T12:56:35.23Z</time></trkpt><trkpt lat="45.3672633" lon="8.4113917"><ele>128.0</ele><time>2026-03-22T12:56:36.23Z</time></trkpt><trkpt lat="45.36737" lon="8.4112983"><ele>128.5</ele><time>2026-03-22T12:56:37.23Z</time></trkpt><trkpt lat="45.367475" lon="8.41122"><ele>129.0</ele><time>2026-03-22T12:56:38.23Z</time></trkpt><trkpt lat="45.36759" lon="8.4111317"><ele>129.5</ele><time>2026-03-22T12:56:39.23Z</time></trkpt><trkpt lat="45.3677033" lon="8.4110383"><ele>130.0</ele><time>2026-03-22T12:56:40.23Z</time></trkpt><trkpt lat="45.3678233" lon="8.4109417"><ele>130.0</ele><time>2026-03-22T12:56:41.23Z</time></trkpt><trkpt lat="45.367945" lon="8.4108567"><ele>130.0</ele><time>2026-03-22T12:56:42.23Z</time></trkpt><trkpt lat="45.368065" lon="8.4107583"><ele>130.0</ele><time>2026-03-22T12:56:43.23Z</time></trkpt><trkpt lat="45.368175" lon="8.4106533"><ele>130.0</ele><time>2026-03-22T12:56:44.23Z</time></trkpt><trkpt lat="45.368285" lon="8.4105383"><ele>130.25</ele><time>2026-03-22T12:56:45.23Z</time></trkpt><trkpt lat="45.3684" lon="8.4104167"><ele>130.5</ele><time>2026-03-22T12:56:46.23Z</time></trkpt><trkpt lat="45.3685133" lon="8.4102983"><ele>130.75</ele><time>2026-03-22T12:56:47.23Z</time></trkpt><trkpt lat="45.36863" lon="8.4101867"><ele>131.0</ele><time>2026-03-22T12:56:48.23Z</time></trkpt><trkpt lat="45.3687433" lon="8.4100633"><ele>130.75</ele><time>2026-03-22T12:56:49.23Z</time></trkpt><trkpt lat="45.3688633" lon="8.4099483"><ele>130.5</ele><time>2026-03-22T12:56:50.23Z</time></trkpt><trkpt lat="45.368985" lon="8.4098333"><ele>130.25</ele><time>2026-03-22T12:56:51.23Z</time></trkpt><trkpt lat="45.36912" lon="8.409735"><ele>130.0</ele><time>2026-03-22T12:56:52.23Z</time></trkpt><trkpt lat="45.3692533" lon="8.4096367"><ele>130.5</ele><time>2026-03-22T12:56:53.23Z</time></trkpt><trkpt lat="45.3693817" lon="8.4095483"><ele>131.0</ele><time>2026-03-22T12:56:54.23Z</time></trkpt><trkpt lat="45.3695133" lon="8.40946"><ele>131.5</ele><time>2026-03-22T12:56:55.23Z</time></trkpt><trkpt lat="45.3696517" lon="8.4093767"><ele>132.0</ele><time>2026-03-22T12:56:56.23Z</time></trkpt><trkpt lat="45.36979" lon="8.40929"><ele>132.0</ele><time>2026-03-22T12:56:57.23Z</time></trkpt><trkpt lat="45.3699317" lon="8.4092117"><ele>132.0</ele><time>2026-03-22T12:56:58.23Z</time></trkpt><trkpt lat="45.3700767" lon="8.4091283"><ele>132.0</ele><time>2026-03-22T12:56:59.23Z</time></trkpt><trkpt lat="45.3702167" lon="8.409045"><ele>132.0</ele><time>2026-03-22T12:57:00.23Z</time></trkpt><trkpt lat="45.3703617" lon="8.4089783"><ele>132.0</ele><time>2026-03-22T12:57:01.23Z</time></trkpt><trkpt lat="45.3705" lon="8.40891"><ele>132.0</ele><time>2026-03-22T12:57:02.23Z</time></trkpt><trkpt lat="45.37065" lon="8.408845"><ele>132.33333333333334</ele><time>2026-03-22T12:57:03.23Z</time></trkpt><trkpt lat="45.3708017" lon="8.4087817"><ele>132.66666666666669</ele><time>2026-03-22T12:57:04.23Z</time></trkpt><trkpt lat="45.3709583" lon="8.4087183"><ele>133.0</ele><time>2026-03-22T12:57:05.23Z</time></trkpt><trkpt lat="45.3711117" lon="8.4086583"><ele>133.0</ele><time>2026-03-22T12:57:06.23Z</time></trkpt><trkpt lat="45.3712667" lon="8.4086"><ele>133.0</ele><time>2026-03-22T12:57:07.23Z</time></trkpt><trkpt lat="45.3714117" lon="8.4085383"><ele>133.0</ele><time>2026-03-22T12:57:08.23Z</time></trkpt><trkpt lat="45.3715667" lon="8.408475"><ele>133.0</ele><time>2026-03-22T12:57:09.23Z</time></trkpt><trkpt lat="45.3717217" lon="8.4084067"><ele>133.0</ele><time>2026-03-22T12:57:10.23Z</time></trkpt><trkpt lat="45.3718783" lon="8.40834"><ele>133.0</ele><time>2026-03-22T12:57:11.23Z</time></trkpt><trkpt lat="45.37204" lon="8.40827"><ele>132.33333333333334</ele><time>2026-03-22T12:57:12.23Z</time></trkpt><trkpt lat="45.3722033" lon="8.4082133"><ele>131.66666666666666</ele><time>2026-03-22T12:57:13.23Z</time></trkpt><trkpt lat="45.3723633" lon="8.408155"><ele>131.0</ele><time>2026-03-22T12:57:14.23Z</time></trkpt><trkpt lat="45.3725233" lon="8.4080917"><ele>131.0</ele><time>2026-03-22T12:57:15.23Z</time></trkpt><trkpt lat="45.3728533" lon="8.4079717"><ele>131.0</ele><time>2026-03-22T12:57:17.23Z</time></trkpt><trkpt lat="45.3730233" lon="8.407915"><ele>131.0</ele><time>2026-03-22T12:57:18.23Z</time></trkpt><trkpt lat="45.3731967" lon="8.4078617"><ele>131.0</ele><time>2026-03-22T12:57:19.23Z</time></trkpt><trkpt lat="45.3733617" lon="8.4078017"><ele>131.0</ele><time>2026-03-22T12:57:20.23Z</time></trkpt><trkpt lat="45.37353" lon="8.407745"><ele>131.0</ele><time>2026-03-22T12:57:21.23Z</time></trkpt><trkpt lat="45.3736967" lon="8.4077"><ele>131.0</ele><time>2026-03-22T12:57:22.23Z</time></trkpt><trkpt lat="45.3738617" lon="8.4076667"><ele>131.0</ele><time>2026-03-22T12:57:23.23Z</time></trkpt><trkpt lat="45.374025" lon="8.407645"><ele>131.0</ele><time>2026-03-22T12:57:24.23Z</time></trkpt><trkpt lat="45.37419" lon="8.4076167"><ele>131.0</ele><time>2026-03-22T12:57:25.23Z</time></trkpt><trkpt lat="45.3743517" lon="8.4075783"><ele>131.0</ele><time>2026-03-22T12:57:26.23Z</time></trkpt><trkpt lat="45.3745" lon="8.407525"><ele>131.0</ele><time>2026-03-22T12:57:27.23Z</time></trkpt><trkpt lat="45.374635" lon="8.4074583"><ele>131.0</ele><time>2026-03-22T12:57:28.23Z</time></trkpt><trkpt lat="45.3747683" lon="8.4073833"><ele>131.0</ele><time>2026-03-22T12:57:29.23Z</time></trkpt><trkpt lat="45.374905" lon="8.407305"><ele>131.0</ele><time>2026-03-22T12:57:30.23Z</time></trkpt><trkpt lat="45.3750467" lon="8.40722"><ele>130.66666666666666</ele><time>2026-03-22T12:57:31.23Z</time></trkpt><trkpt lat="45.3751883" lon="8.4071283"><ele>130.33333333333334</ele><time>2026-03-22T12:57:32.23Z</time></trkpt><trkpt lat="45.3753383" lon="8.407035"><ele>130.0</ele><time>2026-03-22T12:57:33.23Z</time></trkpt><trkpt lat="45.3754867" lon="8.40694"><ele>130.66666666666669</ele><time>2026-03-22T12:57:34.23Z</time></trkpt><trkpt lat="45.3756317" lon="8.4068433"><ele>131.33333333333334</ele><time>2026-03-22T12:57:35.23Z</time></trkpt><trkpt lat="45.3757767" lon="8.4067433"><ele>132.0</ele><time>2026-03-22T12:57:36.23Z</time></trkpt><trkpt lat="45.3759283" lon="8.4066483"><ele>132.0</ele><time>2026-03-22T12:57:37.23Z</time></trkpt><trkpt lat="45.3760817" lon="8.4065567"><ele>132.0</ele><time>2026-03-22T12:57:38.23Z</time></trkpt><trkpt lat="45.3762283" lon="8.4064683"><ele>132.0</ele><time>2026-03-22T12:57:39.23Z</time></trkpt><trkpt lat="45.37638" lon="8.40637"><ele>132.0</ele><time>2026-03-22T12:57:40.23Z</time></trkpt><trkpt lat="45.3765217" lon="8.4062783"><ele>132.0</ele><time>2026-03-22T12:57:41.23Z</time></trkpt><trkpt lat="45.3766467" lon="8.406205"><ele>132.0</ele><time>2026-03-22T12:57:42.23Z</time></trkpt><trkpt lat="45.3767617" lon="8.4061333"><ele>132.0</ele><time>2026-03-22T12:57:43.23Z</time></trkpt><trkpt lat="45.37688" lon="8.40606"><ele>132.0</ele><time>2026-03-22T12:57:44.23Z</time></trkpt><trkpt lat="45.3769983" lon="8.40599"><ele>132.0</ele><time>2026-03-22T12:57:45.23Z</time></trkpt><trkpt lat="45.377115" lon="8.4059167"><ele>132.0</ele><time>2026-03-22T12:57:46.23Z</time></trkpt><trkpt lat="45.3772267" lon="8.4058483"><ele>132.0</ele><time>2026-03-22T12:57:47.23Z</time></trkpt><trkpt lat="45.377335" lon="8.4057883"><ele>132.25</ele><time>2026-03-22T12:57:48.23Z</time></trkpt><trkpt lat="45.3774417" lon="8.4057133"><ele>132.5</ele><time>2026-03-22T12:57:49.23Z</time></trkpt><trkpt lat="45.3775533" lon="8.4056383"><ele>132.75</ele><time>2026-03-22T12:57:50.23Z</time></trkpt><trkpt lat="45.3776633" lon="8.4055667"><ele>133.0</ele><time>2026-03-22T12:57:51.23Z</time></trkpt><trkpt lat="45.3777667" lon="8.4055017"><ele>133.0</ele><time>2026-03-22T12:57:52.23Z</time></trkpt><trkpt lat="45.3778817" lon="8.405425"><ele>133.0</ele><time>2026-03-22T12:57:53.23Z</time></trkpt><trkpt lat="45.3780017" lon="8.4053467"><ele>133.0</ele><time>2026-03-22T12:57:54.23Z</time></trkpt><trkpt lat="45.3781167" lon="8.4052717"><ele>133.0</ele><time>2026-03-22T12:57:55.23Z</time></trkpt><trkpt lat="45.378235" lon="8.40519"><ele>133.0</ele><time>2026-03-22T12:57:56.23Z</time></trkpt><trkpt lat="45.3783583" lon="8.4051117"><ele>133.0</ele><time>2026-03-22T12:57:57.23Z</time></trkpt><trkpt lat="45.3784783" lon="8.4050383"><ele>133.0</ele><time>2026-03-22T12:57:58.23Z</time></trkpt><trkpt lat="45.378605" lon="8.4049583"><ele>133.0</ele><time>2026-03-22T12:57:59.23Z</time></trkpt><trkpt lat="45.3787317" lon="8.4048617"><ele>133.0</ele><time>2026-03-22T12:58:00.23Z</time></trkpt><trkpt lat="45.3788483" lon="8.40478"><ele>133.0</ele><time>2026-03-22T12:58:01.23Z</time></trkpt><trkpt lat="45.37897" lon="8.4047017"><ele>133.0</ele><time>2026-03-22T12:58:02.23Z</time></trkpt><trkpt lat="45.3791017" lon="8.4046217"><ele>133.0</ele><time>2026-03-22T12:58:03.23Z</time></trkpt><trkpt lat="45.3792383" lon="8.4045367"><ele>133.75</ele><time>2026-03-22T12:58:04.23Z</time></trkpt><trkpt lat="45.3793667" lon="8.4044567"><ele>134.5</ele><time>2026-03-22T12:58:05.23Z</time></trkpt><trkpt lat="45.3794833" lon="8.404365"><ele>135.25</ele><time>2026-03-22T12:58:06.23Z</time></trkpt><trkpt lat="45.3795967" lon="8.4042917"><ele>136.0</ele><time>2026-03-22T12:58:07.23Z</time></trkpt><trkpt lat="45.3797183" lon="8.4042517"><ele>136.25</ele><time>2026-03-22T12:58:08.23Z</time></trkpt><trkpt lat="45.379835" lon="8.404225"><ele>136.5</ele><time>2026-03-22T12:58:09.23Z</time></trkpt><trkpt lat="45.37995" lon="8.4042283"><ele>136.75</ele><time>2026-03-22T12:58:10.23Z</time></trkpt><trkpt lat="45.3800717" lon="8.4042483"><ele>137.0</ele><time>2026-03-22T12:58:11.23Z</time></trkpt><trkpt lat="45.3802" lon="8.4042733"><ele>137.0</ele><time>2026-03-22T12:58:12.23Z</time></trkpt><trkpt lat="45.3803217" lon="8.404295"><ele>137.0</ele><time>2026-03-22T12:58:13.23Z</time></trkpt><trkpt lat="45.38045" lon="8.4043167"><ele>137.0</ele><time>2026-03-22T12:58:14.23Z</time></trkpt><trkpt lat="45.3805767" lon="8.4043483"><ele>137.0</ele><time>2026-03-22T12:58:15.23Z</time></trkpt><trkpt lat="45.380705" lon="8.4043683"><ele>136.79999999999998</ele><time>2026-03-22T12:58:16.23Z</time></trkpt><trkpt lat="45.3808267" lon="8.4043783"><ele>136.6</ele><time>2026-03-22T12:58:17.23Z</time></trkpt><trkpt lat="45.3809317" lon="8.4043883"><ele>136.39999999999998</ele><time>2026-03-22T12:58:18.23Z</time></trkpt><trkpt lat="45.3810367" lon="8.4043983"><ele>136.2</ele><time>2026-03-22T12:58:19.23Z</time></trkpt><trkpt lat="45.3811283" lon="8.4044133"><ele>136.0</ele><time>2026-03-22T12:58:20.23Z</time></trkpt><trkpt lat="45.3812133" lon="8.4044433"><ele>135.99999999999997</ele><time>2026-03-22T12:58:21.23Z</time></trkpt><trkpt lat="45.3812883" lon="8.4044767"><ele>136.0</ele><time>2026-03-22T12:58:22.23Z</time></trkpt><trkpt lat="45.3813583" lon="8.404505"><ele>136.0</ele><time>2026-03-22T12:58:23.23Z</time></trkpt><trkpt lat="45.381415" lon="8.40455"><ele>136.0</ele><time>2026-03-22T12:58:24.23Z</time></trkpt><trkpt lat="45.3814567" lon="8.404625"><ele>136.0</ele><time>2026-03-22T12:58:25.23Z</time></trkpt><trkpt lat="45.38149" lon="8.4047217"><ele>135.99999999999997</ele><time>2026-03-22T12:58:26.23Z</time></trkpt><trkpt lat="45.381535" lon="8.404815"><ele>136.0</ele><time>2026-03-22T12:58:27.23Z</time></trkpt><trkpt lat="45.3815983" lon="8.40489"><ele>136.0</ele><time>2026-03-22T12:58:28.23Z</time></trkpt><trkpt lat="45.381675" lon="8.4049333"><ele>136.0</ele><time>2026-03-22T12:58:29.23Z</time></trkpt><trkpt lat="45.3817783" lon="8.40493"><ele>136.0</ele><time>2026-03-22T12:58:30.23Z</time></trkpt><trkpt lat="45.38189" lon="8.4049"><ele>136.0</ele><time>2026-03-22T12:58:31.23Z</time></trkpt><trkpt lat="45.382" lon="8.404875"><ele>136.0</ele><time>2026-03-22T12:58:32.23Z</time></trkpt><trkpt lat="45.3821083" lon="8.4048583"><ele>136.33333333333334</ele><time>2026-03-22T12:58:33.23Z</time></trkpt><trkpt lat="45.3822133" lon="8.40484"><ele>136.66666666666669</ele><time>2026-03-22T12:58:34.23Z</time></trkpt><trkpt lat="45.3823133" lon="8.4048183"><ele>137.0</ele><time>2026-03-22T12:58:35.23Z</time></trkpt><trkpt lat="45.3823983" lon="8.4048133"><ele>137.33333333333334</ele><time>2026-03-22T12:58:36.23Z</time></trkpt><trkpt lat="45.38248" lon="8.4048067"><ele>137.66666666666666</ele><time>2026-03-22T12:58:37.23Z</time></trkpt><trkpt lat="45.3825433" lon="8.404785"><ele>138.0</ele><time>2026-03-22T12:58:38.23Z</time></trkpt><trkpt lat="45.38264" lon="8.4047683"><ele>138.0</ele><time>2026-03-22T12:58:40.23Z</time></trkpt><trkpt lat="45.3827283" lon="8.4047417"><ele>138.0</ele><time>2026-03-22T12:58:42.23Z</time></trkpt><trkpt lat="45.3828333" lon="8.4047333"><ele>138.0</ele><time>2026-03-22T12:58:44.23Z</time></trkpt><trkpt lat="45.3829067" lon="8.4047233"><ele>138.0</ele><time>2026-03-22T12:58:45.23Z</time></trkpt><trkpt lat="45.3829733" lon="8.4047133"><ele>138.0</ele><time>2026-03-22T12:58:46.23Z</time></trkpt><trkpt lat="45.38304" lon="8.4047417"><ele>138.0</ele><time>2026-03-22T12:58:47.23Z</time></trkpt><trkpt lat="45.3831067" lon="8.4048"><ele>138.0</ele><time>2026-03-22T12:58:48.23Z</time></trkpt><trkpt lat="45.3831733" lon="8.40488"><ele>138.0</ele><time>2026-03-22T12:58:49.23Z</time></trkpt><trkpt lat="45.383245" lon="8.4049667"><ele>138.0</ele><time>2026-03-22T12:58:50.231Z</time></trkpt><trkpt lat="45.3833133" lon="8.4050317"><ele>138.0</ele><time>2026-03-22T12:58:51.23Z</time></trkpt><trkpt lat="45.3833833" lon="8.4050967"><ele>138.0</ele><time>2026-03-22T12:58:52.23Z</time></trkpt><trkpt lat="45.383455" lon="8.405125"><ele>138.0</ele><time>2026-03-22T12:58:53.23Z</time></trkpt><trkpt lat="45.383525" lon="8.4051383"><ele>138.0</ele><time>2026-03-22T12:58:54.23Z</time></trkpt><trkpt lat="45.3835983" lon="8.40513"><ele>138.0</ele><time>2026-03-22T12:58:55.23Z</time></trkpt><trkpt lat="45.3836817" lon="8.4051167"><ele>138.0</ele><time>2026-03-22T12:58:56.23Z</time></trkpt><trkpt lat="45.38377" lon="8.405095"><ele>138.0</ele><time>2026-03-22T12:58:57.23Z</time></trkpt><trkpt lat="45.38386" lon="8.4050817"><ele>138.0</ele><time>2026-03-22T12:58:58.23Z</time></trkpt><trkpt lat="45.38396" lon="8.4050683"><ele>138.0</ele><time>2026-03-22T12:58:59.23Z</time></trkpt><trkpt lat="45.384065" lon="8.40506"><ele>137.6</ele><time>2026-03-22T12:59:00.23Z</time></trkpt><trkpt lat="45.384175" lon="8.4050417"><ele>137.20000000000002</ele><time>2026-03-22T12:59:01.23Z</time></trkpt><trkpt lat="45.384275" lon="8.4050233"><ele>136.8</ele><time>2026-03-22T12:59:02.23Z</time></trkpt><trkpt lat="45.3843783" lon="8.404995"><ele>136.4</ele><time>2026-03-22T12:59:03.23Z</time></trkpt><trkpt lat="45.3844883" lon="8.4049683"><ele>136.0</ele><time>2026-03-22T12:59:04.23Z</time></trkpt><trkpt lat="45.3845967" lon="8.4049433"><ele>135.75</ele><time>2026-03-22T12:59:05.23Z</time></trkpt><trkpt lat="45.38471" lon="8.40491"><ele>135.5</ele><time>2026-03-22T12:59:06.23Z</time></trkpt><trkpt lat="45.3848233" lon="8.40487"><ele>135.25</ele><time>2026-03-22T12:59:07.23Z</time></trkpt><trkpt lat="45.384935" lon="8.404825"><ele>135.0</ele><time>2026-03-22T12:59:08.23Z</time></trkpt><trkpt lat="45.3850533" lon="8.404775"><ele>135.0</ele><time>2026-03-22T12:59:09.23Z</time></trkpt><trkpt lat="45.3851683" lon="8.4047417"><ele>135.0</ele><time>2026-03-22T12:59:10.23Z</time></trkpt><trkpt lat="45.3852817" lon="8.4046933"><ele>135.0</ele><time>2026-03-22T12:59:11.23Z</time></trkpt><trkpt lat="45.3854" lon="8.404655"><ele>135.0</ele><time>2026-03-22T12:59:12.229Z</time></trkpt><trkpt lat="45.3855217" lon="8.4046017"><ele>135.5</ele><time>2026-03-22T12:59:13.229Z</time></trkpt><trkpt lat="45.385645" lon="8.4045633"><ele>136.0</ele><time>2026-03-22T12:59:14.229Z</time></trkpt><trkpt lat="45.3857767" lon="8.4045183"><ele>136.5</ele><time>2026-03-22T12:59:15.229Z</time></trkpt><trkpt lat="45.385905" lon="8.4044617"><ele>137.0</ele><time>2026-03-22T12:59:16.229Z</time></trkpt><trkpt lat="45.3860217" lon="8.4044183"><ele>137.0</ele><time>2026-03-22T12:59:17.229Z</time></trkpt><trkpt lat="45.386145" lon="8.404375"><ele>137.0</ele><time>2026-03-22T12:59:18.229Z</time></trkpt><trkpt lat="45.3862783" lon="8.4043383"><ele>137.0</ele><time>2026-03-22T12:59:19.229Z</time></trkpt><trkpt lat="45.38641" lon="8.40431"><ele>137.0</ele><time>2026-03-22T12:59:20.229Z</time></trkpt><trkpt lat="45.38654" lon="8.4042917"><ele>137.25</ele><time>2026-03-22T12:59:21.229Z</time></trkpt><trkpt lat="45.3866783" lon="8.4042767"><ele>137.5</ele><time>2026-03-22T12:59:22.229Z</time></trkpt><trkpt lat="45.3868133" lon="8.4042833"><ele>137.75</ele><time>2026-03-22T12:59:23.229Z</time></trkpt><trkpt lat="45.3869417" lon="8.4042967"><ele>138.0</ele><time>2026-03-22T12:59:24.229Z</time></trkpt><trkpt lat="45.3870867" lon="8.404295"><ele>138.0</ele><time>2026-03-22T12:59:25.229Z</time></trkpt><trkpt lat="45.387225" lon="8.4042767"><ele>138.0</ele><time>2026-03-22T12:59:26.229Z</time></trkpt><trkpt lat="45.387365" lon="8.404255"><ele>138.0</ele><time>2026-03-22T12:59:27.229Z</time></trkpt><trkpt lat="45.3874917" lon="8.4042333"><ele>138.0</ele><time>2026-03-22T12:59:28.229Z</time></trkpt><trkpt lat="45.3876333" lon="8.4042133"><ele>138.0</ele><time>2026-03-22T12:59:29.229Z</time></trkpt><trkpt lat="45.3877767" lon="8.40419"><ele>138.0</ele><time>2026-03-22T12:59:30.229Z</time></trkpt><trkpt lat="45.3879133" lon="8.4041617"><ele>138.0</ele><time>2026-03-22T12:59:31.229Z</time></trkpt><trkpt lat="45.3880567" lon="8.4041383"><ele>138.0</ele><time>2026-03-22T12:59:32.229Z</time></trkpt><trkpt lat="45.3882033" lon="8.404105"><ele>138.0</ele><time>2026-03-22T12:59:33.229Z</time></trkpt><trkpt lat="45.3883467" lon="8.4040633"><ele>138.0</ele><time>2026-03-22T12:59:34.229Z</time></trkpt><trkpt lat="45.388495" lon="8.4040483"><ele>138.0</ele><time>2026-03-22T12:59:35.229Z</time></trkpt><trkpt lat="45.3886467" lon="8.404025"><ele>138.0</ele><time>2026-03-22T12:59:36.229Z</time></trkpt><trkpt lat="45.3891017" lon="8.40394"><ele>137.33333333333334</ele><time>2026-03-22T12:59:39.229Z</time></trkpt><trkpt lat="45.3892567" lon="8.40392"><ele>136.66666666666669</ele><time>2026-03-22T12:59:40.229Z</time></trkpt><trkpt lat="45.3894133" lon="8.4039"><ele>136.0</ele><time>2026-03-22T12:59:41.229Z</time></trkpt><trkpt lat="45.38957" lon="8.4038717"><ele>136.33333333333334</ele><time>2026-03-22T12:59:42.229Z</time></trkpt><trkpt lat="45.3897233" lon="8.40384"><ele>136.66666666666666</ele><time>2026-03-22T12:59:43.229Z</time></trkpt><trkpt lat="45.389875" lon="8.4038167"><ele>137.0</ele><time>2026-03-22T12:59:44.229Z</time></trkpt><trkpt lat="45.3900367" lon="8.4037917"><ele>138.33333333333331</ele><time>2026-03-22T12:59:45.229Z</time></trkpt><trkpt lat="45.3901983" lon="8.4037617"><ele>139.66666666666666</ele><time>2026-03-22T12:59:46.229Z</time></trkpt><trkpt lat="45.39035" lon="8.4037283"><ele>141.0</ele><time>2026-03-22T12:59:47.229Z</time></trkpt><trkpt lat="45.3905033" lon="8.4036883"><ele>140.0</ele><time>2026-03-22T12:59:48.229Z</time></trkpt><trkpt lat="45.390835" lon="8.4036633"><ele>139.0</ele><time>2026-03-22T12:59:50.229Z</time></trkpt><trkpt lat="45.39101" lon="8.4036583"><ele>139.0</ele><time>2026-03-22T12:59:51.229Z</time></trkpt><trkpt lat="45.391165" lon="8.4036583"><ele>139.0</ele><time>2026-03-22T12:59:52.229Z</time></trkpt><trkpt lat="45.3913233" lon="8.403665"><ele>139.0</ele><time>2026-03-22T12:59:53.229Z</time></trkpt><trkpt lat="45.39148" lon="8.4036617"><ele>138.66666666666669</ele><time>2026-03-22T12:59:54.229Z</time></trkpt><trkpt lat="45.3916433" lon="8.4036567"><ele>138.33333333333334</ele><time>2026-03-22T12:59:55.229Z</time></trkpt><trkpt lat="45.391805" lon="8.403655"><ele>138.0</ele><time>2026-03-22T12:59:56.229Z</time></trkpt><trkpt lat="45.391975" lon="8.40365"><ele>138.0</ele><time>2026-03-22T12:59:57.229Z</time></trkpt><trkpt lat="45.392145" lon="8.4036467"><ele>138.0</ele><time>2026-03-22T12:59:58.229Z</time></trkpt><trkpt lat="45.3923167" lon="8.4036433"><ele>138.0</ele><time>2026-03-22T12:59:59.229Z</time></trkpt><trkpt lat="45.3924883" lon="8.4036433"><ele>138.0</ele><time>2026-03-22T13:00:00.229Z</time></trkpt><trkpt lat="45.392655" lon="8.40364"><ele>138.0</ele><time>2026-03-22T13:00:01.229Z</time></trkpt><trkpt lat="45.3928267" lon="8.4036317"><ele>138.0</ele><time>2026-03-22T13:00:02.229Z</time></trkpt><trkpt lat="45.3929983" lon="8.40363"><ele>138.33333333333334</ele><time>2026-03-22T13:00:03.229Z</time></trkpt><trkpt lat="45.39317" lon="8.40363"><ele>138.66666666666669</ele><time>2026-03-22T13:00:04.229Z</time></trkpt><trkpt lat="45.3933417" lon="8.4036317"><ele>139.0</ele><time>2026-03-22T13:00:05.229Z</time></trkpt><trkpt lat="45.393515" lon="8.4036267"><ele>139.0</ele><time>2026-03-22T13:00:06.229Z</time></trkpt><trkpt lat="45.3936917" lon="8.403625"><ele>139.0</ele><time>2026-03-22T13:00:07.229Z</time></trkpt><trkpt lat="45.39386" lon="8.4036317"><ele>139.0</ele><time>2026-03-22T13:00:08.229Z</time></trkpt><trkpt lat="45.3940267" lon="8.4036233"><ele>139.33333333333334</ele><time>2026-03-22T13:00:09.229Z</time></trkpt><trkpt lat="45.394205" lon="8.4036083"><ele>139.66666666666666</ele><time>2026-03-22T13:00:10.229Z</time></trkpt><trkpt lat="45.39437" lon="8.40362"><ele>140.0</ele><time>2026-03-22T13:00:11.229Z</time></trkpt><trkpt lat="45.3945383" lon="8.4036383"><ele>140.66666666666666</ele><time>2026-03-22T13:00:12.229Z</time></trkpt><trkpt lat="45.394705" lon="8.4036533"><ele>141.33333333333334</ele><time>2026-03-22T13:00:13.229Z</time></trkpt><trkpt lat="45.3948767" lon="8.4036383"><ele>142.0</ele><time>2026-03-22T13:00:14.229Z</time></trkpt><trkpt lat="45.3950517" lon="8.4036283"><ele>142.0</ele><time>2026-03-22T13:00:15.229Z</time></trkpt><trkpt lat="45.395225" lon="8.4036317"><ele>142.0</ele><time>2026-03-22T13:00:16.229Z</time></trkpt><trkpt lat="45.3954" lon="8.40363"><ele>142.0</ele><time>2026-03-22T13:00:17.229Z</time></trkpt><trkpt lat="45.3955717" lon="8.4036483"><ele>141.25</ele><time>2026-03-22T13:00:18.229Z</time></trkpt><trkpt lat="45.395725" lon="8.4036617"><ele>140.5</ele><time>2026-03-22T13:00:19.229Z</time></trkpt><trkpt lat="45.3958667" lon="8.4036617"><ele>139.75</ele><time>2026-03-22T13:00:20.229Z</time></trkpt><trkpt lat="45.3960017" lon="8.4036617"><ele>139.0</ele><time>2026-03-22T13:00:21.229Z</time></trkpt><trkpt lat="45.39613" lon="8.40367"><ele>139.0</ele><time>2026-03-22T13:00:22.229Z</time></trkpt><trkpt lat="45.396245" lon="8.4036717"><ele>139.0</ele><time>2026-03-22T13:00:23.229Z</time></trkpt><trkpt lat="45.3963517" lon="8.4036767"><ele>139.0</ele><time>2026-03-22T13:00:24.229Z</time></trkpt><trkpt lat="45.396455" lon="8.4036833"><ele>139.0</ele><time>2026-03-22T13:00:25.229Z</time></trkpt><trkpt lat="45.3965467" lon="8.4036883"><ele>139.0</ele><time>2026-03-22T13:00:26.229Z</time></trkpt><trkpt lat="45.3966283" lon="8.4036867"><ele>139.33333333333334</ele><time>2026-03-22T13:00:27.229Z</time></trkpt><trkpt lat="45.3967117" lon="8.403685"><ele>139.66666666666669</ele><time>2026-03-22T13:00:28.229Z</time></trkpt><trkpt lat="45.39679" lon="8.4036883"><ele>140.0</ele><time>2026-03-22T13:00:29.229Z</time></trkpt><trkpt lat="45.3968733" lon="8.4036833"><ele>140.33333333333334</ele><time>2026-03-22T13:00:30.229Z</time></trkpt><trkpt lat="45.3969517" lon="8.403685"><ele>140.66666666666666</ele><time>2026-03-22T13:00:31.229Z</time></trkpt><trkpt lat="45.39702" lon="8.4036867"><ele>141.0</ele><time>2026-03-22T13:00:32.229Z</time></trkpt><trkpt lat="45.3970817" lon="8.4036683"><ele>141.0</ele><time>2026-03-22T13:00:33.229Z</time></trkpt><trkpt lat="45.3971517" lon="8.40365"><ele>141.0</ele><time>2026-03-22T13:00:34.229Z</time></trkpt><trkpt lat="45.3972183" lon="8.4036533"><ele>141.0</ele><time>2026-03-22T13:00:35.229Z</time></trkpt><trkpt lat="45.3973417" lon="8.4036417"><ele>141.0</ele><time>2026-03-22T13:00:37.229Z</time></trkpt><trkpt lat="45.3974067" lon="8.4036467"><ele>141.0</ele><time>2026-03-22T13:00:38.229Z</time></trkpt><trkpt lat="45.3975233" lon="8.40364"><ele>141.0</ele><time>2026-03-22T13:00:40.229Z</time></trkpt><trkpt lat="45.3975883" lon="8.403655"><ele>141.0</ele><time>2026-03-22T13:00:41.229Z</time></trkpt><trkpt lat="45.3977067" lon="8.403645"><ele>141.0</ele><time>2026-03-22T13:00:43.229Z</time></trkpt><trkpt lat="45.397825" lon="8.4036483"><ele>141.0</ele><time>2026-03-22T13:00:45.229Z</time></trkpt><trkpt lat="45.3979417" lon="8.40365"><ele>141.0</ele><time>2026-03-22T13:00:47.229Z</time></trkpt><trkpt lat="45.398015" lon="8.403645"><ele>141.0</ele><time>2026-03-22T13:00:48.229Z</time></trkpt><trkpt lat="45.398095" lon="8.40364"><ele>141.0</ele><time>2026-03-22T13:00:49.229Z</time></trkpt><trkpt lat="45.3981867" lon="8.4036483"><ele>141.0</ele><time>2026-03-22T13:00:50.229Z</time></trkpt><trkpt lat="45.398285" lon="8.4036433"><ele>141.0</ele><time>2026-03-22T13:00:51.229Z</time></trkpt><trkpt lat="45.3983817" lon="8.40364"><ele>141.0</ele><time>2026-03-22T13:00:52.229Z</time></trkpt><trkpt lat="45.3984883" lon="8.40364"><ele>141.0</ele><time>2026-03-22T13:00:53.229Z</time></trkpt><trkpt lat="45.3985983" lon="8.4036417"><ele>141.0</ele><time>2026-03-22T13:00:54.229Z</time></trkpt><trkpt lat="45.3987167" lon="8.40364"><ele>141.0</ele><time>2026-03-22T13:00:55.229Z</time></trkpt><trkpt lat="45.398835" lon="8.4036267"><ele>141.0</ele><time>2026-03-22T13:00:56.229Z</time></trkpt><trkpt lat="45.398945" lon="8.4036233"><ele>141.0</ele><time>2026-03-22T13:00:57.229Z</time></trkpt><trkpt lat="45.3990467" lon="8.40363"><ele>141.0</ele><time>2026-03-22T13:00:58.229Z</time></trkpt><trkpt lat="45.3991533" lon="8.40363"><ele>141.0</ele><time>2026-03-22T13:00:59.229Z</time></trkpt><trkpt lat="45.3992567" lon="8.4036317"><ele>141.0</ele><time>2026-03-22T13:01:00.229Z</time></trkpt><trkpt lat="45.3993733" lon="8.4036283"><ele>141.0</ele><time>2026-03-22T13:01:01.229Z</time></trkpt><trkpt lat="45.3995" lon="8.4036217"><ele>141.0</ele><time>2026-03-22T13:01:02.229Z</time></trkpt><trkpt lat="45.3996217" lon="8.4036283"><ele>140.5</ele><time>2026-03-22T13:01:03.229Z</time></trkpt><trkpt lat="45.39975" lon="8.403625"><ele>140.0</ele><time>2026-03-22T13:01:04.229Z</time></trkpt><trkpt lat="45.399885" lon="8.4036317"><ele>139.5</ele><time>2026-03-22T13:01:05.229Z</time></trkpt><trkpt lat="45.40002" lon="8.403635"><ele>139.0</ele><time>2026-03-22T13:01:06.229Z</time></trkpt><trkpt lat="45.40016" lon="8.40363"><ele>139.0</ele><time>2026-03-22T13:01:07.229Z</time></trkpt><trkpt lat="45.400295" lon="8.403625"><ele>139.0</ele><time>2026-03-22T13:01:08.229Z</time></trkpt><trkpt lat="45.40044" lon="8.4036267"><ele>139.0</ele><time>2026-03-22T13:01:09.229Z</time></trkpt><trkpt lat="45.40057" lon="8.4036217"><ele>139.0</ele><time>2026-03-22T13:01:10.229Z</time></trkpt><trkpt lat="45.400695" lon="8.4036183"><ele>139.25</ele><time>2026-03-22T13:01:11.229Z</time></trkpt><trkpt lat="45.4008217" lon="8.40362"><ele>139.5</ele><time>2026-03-22T13:01:12.229Z</time></trkpt><trkpt lat="45.4009533" lon="8.4036283"><ele>139.75</ele><time>2026-03-22T13:01:13.229Z</time></trkpt><trkpt lat="45.401085" lon="8.4036567"><ele>140.0</ele><time>2026-03-22T13:01:14.229Z</time></trkpt><trkpt lat="45.4012217" lon="8.4036833"><ele>141.5</ele><time>2026-03-22T13:01:15.229Z</time></trkpt><trkpt lat="45.401355" lon="8.4037033"><ele>143.0</ele><time>2026-03-22T13:01:16.229Z</time></trkpt><trkpt lat="45.40149" lon="8.40373"><ele>144.5</ele><time>2026-03-22T13:01:17.229Z</time></trkpt><trkpt lat="45.401625" lon="8.403745"><ele>146.0</ele><time>2026-03-22T13:01:18.229Z</time></trkpt><trkpt lat="45.4017617" lon="8.4037583"><ele>146.0</ele><time>2026-03-22T13:01:19.229Z</time></trkpt><trkpt lat="45.4019" lon="8.40378"><ele>146.0</ele><time>2026-03-22T13:01:20.229Z</time></trkpt><trkpt lat="45.40203" lon="8.40381"><ele>146.0</ele><time>2026-03-22T13:01:21.229Z</time></trkpt><trkpt lat="45.402165" lon="8.4038383"><ele>146.0</ele><time>2026-03-22T13:01:22.229Z</time></trkpt><trkpt lat="45.4023" lon="8.403865"><ele>145.0</ele><time>2026-03-22T13:01:23.229Z</time></trkpt><trkpt lat="45.4024383" lon="8.4038917"><ele>144.0</ele><time>2026-03-22T13:01:24.229Z</time></trkpt><trkpt lat="45.4025733" lon="8.4039133"><ele>143.0</ele><time>2026-03-22T13:01:25.229Z</time></trkpt><trkpt lat="45.4027167" lon="8.40393"><ele>142.0</ele><time>2026-03-22T13:01:26.229Z</time></trkpt><trkpt lat="45.40286" lon="8.4039683"><ele>141.5</ele><time>2026-03-22T13:01:27.229Z</time></trkpt><trkpt lat="45.403005" lon="8.4039967"><ele>141.0</ele><time>2026-03-22T13:01:28.229Z</time></trkpt><trkpt lat="45.4031467" lon="8.4040183"><ele>140.5</ele><time>2026-03-22T13:01:29.229Z</time></trkpt><trkpt lat="45.40329" lon="8.4040333"><ele>140.0</ele><time>2026-03-22T13:01:30.229Z</time></trkpt><trkpt lat="45.403435" lon="8.4040467"><ele>140.0</ele><time>2026-03-22T13:01:31.229Z</time></trkpt><trkpt lat="45.4035783" lon="8.4040683"><ele>140.0</ele><time>2026-03-22T13:01:32.229Z</time></trkpt><trkpt lat="45.4037283" lon="8.4041017"><ele>140.0</ele><time>2026-03-22T13:01:33.229Z</time></trkpt><trkpt lat="45.40387" lon="8.40413"><ele>140.0</ele><time>2026-03-22T13:01:34.229Z</time></trkpt><trkpt lat="45.404155" lon="8.4041883"><ele>140.33333333333331</ele><time>2026-03-22T13:01:36.229Z</time></trkpt><trkpt lat="45.4044483" lon="8.40423"><ele>140.66666666666666</ele><time>2026-03-22T13:01:38.229Z</time></trkpt><trkpt lat="45.4045917" lon="8.404255"><ele>141.0</ele><time>2026-03-22T13:01:39.229Z</time></trkpt><trkpt lat="45.4047333" lon="8.4042767"><ele>141.0</ele><time>2026-03-22T13:01:40.229Z</time></trkpt><trkpt lat="45.4048733" lon="8.404315"><ele>141.0</ele><time>2026-03-22T13:01:41.229Z</time></trkpt><trkpt lat="45.4050117" lon="8.4043283"><ele>141.0</ele><time>2026-03-22T13:01:42.229Z</time></trkpt><trkpt lat="45.40515" lon="8.40435"><ele>141.0</ele><time>2026-03-22T13:01:43.229Z</time></trkpt><trkpt lat="45.40529" lon="8.40437"><ele>141.0</ele><time>2026-03-22T13:01:44.229Z</time></trkpt><trkpt lat="45.4054267" lon="8.40439"><ele>141.0</ele><time>2026-03-22T13:01:45.229Z</time></trkpt><trkpt lat="45.4055667" lon="8.4044167"><ele>141.0</ele><time>2026-03-22T13:01:46.229Z</time></trkpt><trkpt lat="45.4057117" lon="8.404445"><ele>141.0</ele><time>2026-03-22T13:01:47.229Z</time></trkpt><trkpt lat="45.4058633" lon="8.4044617"><ele>141.0</ele><time>2026-03-22T13:01:48.229Z</time></trkpt><trkpt lat="45.4060067" lon="8.4044867"><ele>141.0</ele><time>2026-03-22T13:01:49.229Z</time></trkpt><trkpt lat="45.406155" lon="8.4045167"><ele>141.0</ele><time>2026-03-22T13:01:50.229Z</time></trkpt><trkpt lat="45.4063067" lon="8.4045367"><ele>141.0</ele><time>2026-03-22T13:01:51.229Z</time></trkpt><trkpt lat="45.4064483" lon="8.4045667"><ele>141.5</ele><time>2026-03-22T13:01:52.229Z</time></trkpt><trkpt lat="45.40659" lon="8.4046033"><ele>142.0</ele><time>2026-03-22T13:01:53.229Z</time></trkpt><trkpt lat="45.40673" lon="8.4046267"><ele>142.5</ele><time>2026-03-22T13:01:54.229Z</time></trkpt><trkpt lat="45.4068683" lon="8.4046567"><ele>143.0</ele><time>2026-03-22T13:01:55.229Z</time></trkpt><trkpt lat="45.4070117" lon="8.4046783"><ele>143.0</ele><time>2026-03-22T13:01:56.229Z</time></trkpt><trkpt lat="45.4071533" lon="8.4047067"><ele>143.0</ele><time>2026-03-22T13:01:57.229Z</time></trkpt><trkpt lat="45.407295" lon="8.4047333"><ele>143.0</ele><time>2026-03-22T13:01:58.229Z</time></trkpt><trkpt lat="45.4074383" lon="8.4047667"><ele>143.0</ele><time>2026-03-22T13:01:59.229Z</time></trkpt><trkpt lat="45.4075833" lon="8.4047933"><ele>143.0</ele><time>2026-03-22T13:02:00.229Z</time></trkpt><trkpt lat="45.4077233" lon="8.4048117"><ele>143.0</ele><time>2026-03-22T13:02:01.229Z</time></trkpt><trkpt lat="45.4078617" lon="8.4048433"><ele>143.0</ele><time>2026-03-22T13:02:02.229Z</time></trkpt><trkpt lat="45.408005" lon="8.4048617"><ele>143.0</ele><time>2026-03-22T13:02:03.229Z</time></trkpt><trkpt lat="45.4081433" lon="8.4048867"><ele>142.75</ele><time>2026-03-22T13:02:04.229Z</time></trkpt><trkpt lat="45.408285" lon="8.4049217"><ele>142.5</ele><time>2026-03-22T13:02:05.229Z</time></trkpt><trkpt lat="45.4084233" lon="8.404965"><ele>142.25</ele><time>2026-03-22T13:02:06.229Z</time></trkpt><trkpt lat="45.4085667" lon="8.4050033"><ele>142.0</ele><time>2026-03-22T13:02:07.229Z</time></trkpt><trkpt lat="45.40871" lon="8.405055"><ele>142.0</ele><time>2026-03-22T13:02:08.229Z</time></trkpt><trkpt lat="45.408845" lon="8.4051333"><ele>142.0</ele><time>2026-03-22T13:02:09.229Z</time></trkpt><trkpt lat="45.4089833" lon="8.405225"><ele>142.0</ele><time>2026-03-22T13:02:10.229Z</time></trkpt><trkpt lat="45.409125" lon="8.40533"><ele>142.0</ele><time>2026-03-22T13:02:11.229Z</time></trkpt><trkpt lat="45.40927" lon="8.405425"><ele>142.0</ele><time>2026-03-22T13:02:12.229Z</time></trkpt><trkpt lat="45.4094183" lon="8.405515"><ele>142.0</ele><time>2026-03-22T13:02:13.229Z</time></trkpt><trkpt lat="45.40956" lon="8.405605"><ele>142.66666666666669</ele><time>2026-03-22T13:02:14.229Z</time></trkpt><trkpt lat="45.4097033" lon="8.4057067"><ele>143.33333333333334</ele><time>2026-03-22T13:02:15.229Z</time></trkpt><trkpt lat="45.40984" lon="8.405805"><ele>144.0</ele><time>2026-03-22T13:02:16.229Z</time></trkpt><trkpt lat="45.40998" lon="8.4059117"><ele>144.0</ele><time>2026-03-22T13:02:17.229Z</time></trkpt><trkpt lat="45.410115" lon="8.4060067"><ele>144.0</ele><time>2026-03-22T13:02:18.229Z</time></trkpt><trkpt lat="45.410255" lon="8.4060917"><ele>144.0</ele><time>2026-03-22T13:02:19.229Z</time></trkpt><trkpt lat="45.4104017" lon="8.4061583"><ele>144.0</ele><time>2026-03-22T13:02:20.229Z</time></trkpt><trkpt lat="45.410545" lon="8.4062217"><ele>144.0</ele><time>2026-03-22T13:02:21.229Z</time></trkpt><trkpt lat="45.4106967" lon="8.4062917"><ele>144.0</ele><time>2026-03-22T13:02:22.229Z</time></trkpt><trkpt lat="45.4108417" lon="8.40633"><ele>144.0</ele><time>2026-03-22T13:02:23.229Z</time></trkpt><trkpt lat="45.41099" lon="8.4063583"><ele>144.0</ele><time>2026-03-22T13:02:24.229Z</time></trkpt><trkpt lat="45.411135" lon="8.4063867"><ele>144.0</ele><time>2026-03-22T13:02:25.229Z</time></trkpt><trkpt lat="45.4112583" lon="8.4063933"><ele>144.0</ele><time>2026-03-22T13:02:26.229Z</time></trkpt><trkpt lat="45.4113483" lon="8.4064067"><ele>144.0</ele><time>2026-03-22T13:02:27.229Z</time></trkpt><trkpt lat="45.4114233" lon="8.4064233"><ele>144.0</ele><time>2026-03-22T13:02:28.229Z</time></trkpt><trkpt lat="45.41154" lon="8.4065167"><ele>144.0</ele><time>2026-03-22T13:02:30.229Z</time></trkpt><trkpt lat="45.41156" lon="8.4066283"><ele>144.0</ele><time>2026-03-22T13:02:31.229Z</time></trkpt><trkpt lat="45.411565" lon="8.4067733"><ele>144.0</ele><time>2026-03-22T13:02:32.229Z</time></trkpt><trkpt lat="45.411565" lon="8.406895"><ele>144.0</ele><time>2026-03-22T13:02:33.229Z</time></trkpt><trkpt lat="45.4115683" lon="8.4070117"><ele>144.0</ele><time>2026-03-22T13:02:34.229Z</time></trkpt><trkpt lat="45.4115917" lon="8.4071"><ele>144.0</ele><time>2026-03-22T13:02:35.229Z</time></trkpt><trkpt lat="45.41169" lon="8.4072133"><ele>144.0</ele><time>2026-03-22T13:02:37.229Z</time></trkpt><trkpt lat="45.4117683" lon="8.4072317"><ele>144.0</ele><time>2026-03-22T13:02:38.229Z</time></trkpt><trkpt lat="45.4118567" lon="8.4072517"><ele>144.0</ele><time>2026-03-22T13:02:39.229Z</time></trkpt><trkpt lat="45.41195" lon="8.4072717"><ele>144.0</ele><time>2026-03-22T13:02:40.229Z</time></trkpt><trkpt lat="45.4120417" lon="8.407295"><ele>144.0</ele><time>2026-03-22T13:02:41.229Z</time></trkpt><trkpt lat="45.4121333" lon="8.40732"><ele>144.0</ele><time>2026-03-22T13:02:42.229Z</time></trkpt><trkpt lat="45.4122183" lon="8.4073417"><ele>144.0</ele><time>2026-03-22T13:02:43.229Z</time></trkpt><trkpt lat="45.41231" lon="8.4073683"><ele>144.0</ele><time>2026-03-22T13:02:44.229Z</time></trkpt><trkpt lat="45.4123967" lon="8.4074017"><ele>144.0</ele><time>2026-03-22T13:02:45.229Z</time></trkpt><trkpt lat="45.412485" lon="8.40743"><ele>144.0</ele><time>2026-03-22T13:02:46.229Z</time></trkpt><trkpt lat="45.4125783" lon="8.4074533"><ele>144.0</ele><time>2026-03-22T13:02:47.229Z</time></trkpt><trkpt lat="45.41267" lon="8.407475"><ele>144.0</ele><time>2026-03-22T13:02:48.229Z</time></trkpt><trkpt lat="45.4127667" lon="8.4074983"><ele>144.0</ele><time>2026-03-22T13:02:49.229Z</time></trkpt><trkpt lat="45.4128683" lon="8.40752"><ele>144.0</ele><time>2026-03-22T13:02:50.229Z</time></trkpt><trkpt lat="45.4129717" lon="8.4075417"><ele>144.0</ele><time>2026-03-22T13:02:51.229Z</time></trkpt><trkpt lat="45.413075" lon="8.4075717"><ele>144.0</ele><time>2026-03-22T13:02:52.229Z</time></trkpt><trkpt lat="45.41318" lon="8.407595"><ele>144.0</ele><time>2026-03-22T13:02:53.229Z</time></trkpt><trkpt lat="45.4132783" lon="8.4076167"><ele>144.0</ele><time>2026-03-22T13:02:54.229Z</time></trkpt><trkpt lat="45.4133783" lon="8.4076483"><ele>144.0</ele><time>2026-03-22T13:02:55.229Z</time></trkpt><trkpt lat="45.413485" lon="8.4076733"><ele>144.0</ele><time>2026-03-22T13:02:56.229Z</time></trkpt><trkpt lat="45.4135883" lon="8.4077117"><ele>144.0</ele><time>2026-03-22T13:02:57.229Z</time></trkpt><trkpt lat="45.4136983" lon="8.40774"><ele>144.0</ele><time>2026-03-22T13:02:58.229Z</time></trkpt><trkpt lat="45.41381" lon="8.4077683"><ele>144.0</ele><time>2026-03-22T13:02:59.229Z</time></trkpt><trkpt lat="45.4139233" lon="8.407795"><ele>144.2</ele><time>2026-03-22T13:03:00.229Z</time></trkpt><trkpt lat="45.414035" lon="8.40783"><ele>144.4</ele><time>2026-03-22T13:03:01.229Z</time></trkpt><trkpt lat="45.4141367" lon="8.4078667"><ele>144.6</ele><time>2026-03-22T13:03:02.229Z</time></trkpt><trkpt lat="45.41423" lon="8.4079"><ele>144.8</ele><time>2026-03-22T13:03:03.229Z</time></trkpt><trkpt lat="45.41431" lon="8.407925"><ele>145.0</ele><time>2026-03-22T13:03:04.229Z</time></trkpt><trkpt lat="45.4143917" lon="8.4079567"><ele>145.0</ele><time>2026-03-22T13:03:05.229Z</time></trkpt><trkpt lat="45.4144783" lon="8.40799"><ele>145.0</ele><time>2026-03-22T13:03:06.229Z</time></trkpt><trkpt lat="45.41456" lon="8.4080417"><ele>145.0</ele><time>2026-03-22T13:03:07.229Z</time></trkpt><trkpt lat="45.4146383" lon="8.4080933"><ele>145.0</ele><time>2026-03-22T13:03:08.229Z</time></trkpt><trkpt lat="45.414715" lon="8.4081433"><ele>145.0</ele><time>2026-03-22T13:03:09.229Z</time></trkpt><trkpt lat="45.4147933" lon="8.40819"><ele>145.0</ele><time>2026-03-22T13:03:10.229Z</time></trkpt><trkpt lat="45.4148733" lon="8.40823"><ele>145.0</ele><time>2026-03-22T13:03:11.229Z</time></trkpt><trkpt lat="45.41496" lon="8.4082717"><ele>145.0</ele><time>2026-03-22T13:03:12.229Z</time></trkpt><trkpt lat="45.4150533" lon="8.408305"><ele>145.0</ele><time>2026-03-22T13:03:13.229Z</time></trkpt><trkpt lat="45.4151467" lon="8.4083267"><ele>145.0</ele><time>2026-03-22T13:03:14.229Z</time></trkpt><trkpt lat="45.4152467" lon="8.4083433"><ele>145.0</ele><time>2026-03-22T13:03:15.229Z</time></trkpt><trkpt lat="45.4153483" lon="8.4083483"><ele>145.0</ele><time>2026-03-22T13:03:16.229Z</time></trkpt><trkpt lat="45.4154517" lon="8.408345"><ele>145.0</ele><time>2026-03-22T13:03:17.229Z</time></trkpt><trkpt lat="45.4155617" lon="8.4083517"><ele>145.0</ele><time>2026-03-22T13:03:18.229Z</time></trkpt><trkpt lat="45.4156767" lon="8.4083633"><ele>145.0</ele><time>2026-03-22T13:03:19.229Z</time></trkpt><trkpt lat="45.4157833" lon="8.4083733"><ele>145.0</ele><time>2026-03-22T13:03:20.229Z</time></trkpt><trkpt lat="45.4158967" lon="8.4083783"><ele>145.0</ele><time>2026-03-22T13:03:21.229Z</time></trkpt><trkpt lat="45.4160183" lon="8.4084083"><ele>145.0</ele><time>2026-03-22T13:03:22.229Z</time></trkpt><trkpt lat="45.4161467" lon="8.4084233"><ele>145.0</ele><time>2026-03-22T13:03:23.229Z</time></trkpt><trkpt lat="45.416275" lon="8.4084217"><ele>145.0</ele><time>2026-03-22T13:03:24.229Z</time></trkpt><trkpt lat="45.4163933" lon="8.40841"><ele>145.0</ele><time>2026-03-22T13:03:25.229Z</time></trkpt><trkpt lat="45.4165117" lon="8.4083617"><ele>145.0</ele><time>2026-03-22T13:03:26.229Z</time></trkpt><trkpt lat="45.4166317" lon="8.40833"><ele>145.0</ele><time>2026-03-22T13:03:27.229Z</time></trkpt><trkpt lat="45.4167417" lon="8.4082867"><ele>145.0</ele><time>2026-03-22T13:03:28.229Z</time></trkpt><trkpt lat="45.4168533" lon="8.4082383"><ele>145.0</ele><time>2026-03-22T13:03:29.229Z</time></trkpt><trkpt lat="45.4169683" lon="8.408195"><ele>145.0</ele><time>2026-03-22T13:03:30.229Z</time></trkpt><trkpt lat="45.4170883" lon="8.408135"><ele>145.0</ele><time>2026-03-22T13:03:31.229Z</time></trkpt><trkpt lat="45.417215" lon="8.40809"><ele>145.0</ele><time>2026-03-22T13:03:32.229Z</time></trkpt><trkpt lat="45.4173433" lon="8.40803"><ele>145.5</ele><time>2026-03-22T13:03:33.229Z</time></trkpt><trkpt lat="45.4174733" lon="8.4079833"><ele>146.0</ele><time>2026-03-22T13:03:34.229Z</time></trkpt><trkpt lat="45.4176" lon="8.40793"><ele>146.5</ele><time>2026-03-22T13:03:35.229Z</time></trkpt><trkpt lat="45.417725" lon="8.4078717"><ele>147.0</ele><time>2026-03-22T13:03:36.228Z</time></trkpt><trkpt lat="45.4178467" lon="8.4078233"><ele>147.0</ele><time>2026-03-22T13:03:37.228Z</time></trkpt><trkpt lat="45.41796" lon="8.40778"><ele>147.0</ele><time>2026-03-22T13:03:38.228Z</time></trkpt><trkpt lat="45.41808" lon="8.4077233"><ele>147.0</ele><time>2026-03-22T13:03:39.228Z</time></trkpt><trkpt lat="45.418195" lon="8.40767"><ele>147.0</ele><time>2026-03-22T13:03:40.228Z</time></trkpt><trkpt lat="45.41831" lon="8.4076217"><ele>148.0</ele><time>2026-03-22T13:03:41.228Z</time></trkpt><trkpt lat="45.4184217" lon="8.40759"><ele>149.0</ele><time>2026-03-22T13:03:42.228Z</time></trkpt><trkpt lat="45.41854" lon="8.4075483"><ele>150.0</ele><time>2026-03-22T13:03:43.228Z</time></trkpt><trkpt lat="45.4186617" lon="8.407505"><ele>151.0</ele><time>2026-03-22T13:03:44.228Z</time></trkpt><trkpt lat="45.4187833" lon="8.4074567"><ele>150.8</ele><time>2026-03-22T13:03:45.228Z</time></trkpt><trkpt lat="45.4188967" lon="8.4074033"><ele>150.6</ele><time>2026-03-22T13:03:46.228Z</time></trkpt><trkpt lat="45.418995" lon="8.4073467"><ele>150.4</ele><time>2026-03-22T13:03:47.228Z</time></trkpt><trkpt lat="45.41908" lon="8.4073067"><ele>150.2</ele><time>2026-03-22T13:03:48.228Z</time></trkpt><trkpt lat="45.4191633" lon="8.4072717"><ele>150.0</ele><time>2026-03-22T13:03:49.228Z</time></trkpt><trkpt lat="45.4192417" lon="8.4072367"><ele>150.0</ele><time>2026-03-22T13:03:50.228Z</time></trkpt><trkpt lat="45.4193167" lon="8.40721"><ele>150.0</ele><time>2026-03-22T13:03:51.228Z</time></trkpt><trkpt lat="45.4194383" lon="8.4071717"><ele>150.0</ele><time>2026-03-22T13:03:53.228Z</time></trkpt><trkpt lat="45.4195267" lon="8.40714"><ele>150.0</ele><time>2026-03-22T13:03:55.228Z</time></trkpt><trkpt lat="45.4196" lon="8.4071717"><ele>150.0</ele><time>2026-03-22T13:03:58.228Z</time></trkpt><trkpt lat="45.41972" lon="8.4071267"><ele>150.2</ele><time>2026-03-22T13:09:32.227Z</time></trkpt><trkpt lat="45.4198067" lon="8.4070833"><ele>150.4</ele><time>2026-03-22T13:09:35.227Z</time></trkpt><trkpt lat="45.4199267" lon="8.4070517"><ele>150.6</ele><time>2026-03-22T13:09:37.227Z</time></trkpt><trkpt lat="45.4200067" lon="8.4070217"><ele>150.8</ele><time>2026-03-22T13:09:38.227Z</time></trkpt><trkpt lat="45.420105" lon="8.40698"><ele>151.0</ele><time>2026-03-22T13:09:39.227Z</time></trkpt><trkpt lat="45.42022" lon="8.4069233"><ele>151.0</ele><time>2026-03-22T13:09:40.227Z</time></trkpt><trkpt lat="45.420335" lon="8.4068667"><ele>151.0</ele><time>2026-03-22T13:09:41.227Z</time></trkpt><trkpt lat="45.4204517" lon="8.406805"><ele>151.0</ele><time>2026-03-22T13:09:42.227Z</time></trkpt><trkpt lat="45.4205633" lon="8.4067533"><ele>151.0</ele><time>2026-03-22T13:09:43.227Z</time></trkpt><trkpt lat="45.4206867" lon="8.406705"><ele>151.5</ele><time>2026-03-22T13:09:44.227Z</time></trkpt><trkpt lat="45.4208067" lon="8.40666"><ele>152.0</ele><time>2026-03-22T13:09:45.227Z</time></trkpt><trkpt lat="45.4209333" lon="8.4066183"><ele>152.5</ele><time>2026-03-22T13:09:46.227Z</time></trkpt><trkpt lat="45.42106" lon="8.4065717"><ele>153.0</ele><time>2026-03-22T13:09:47.227Z</time></trkpt><trkpt lat="45.4211867" lon="8.4065217"><ele>152.75</ele><time>2026-03-22T13:09:48.227Z</time></trkpt><trkpt lat="45.4213217" lon="8.4064633"><ele>152.5</ele><time>2026-03-22T13:09:49.227Z</time></trkpt><trkpt lat="45.4214533" lon="8.4064117"><ele>152.25</ele><time>2026-03-22T13:09:50.227Z</time></trkpt><trkpt lat="45.4215867" lon="8.406365"><ele>152.0</ele><time>2026-03-22T13:09:51.227Z</time></trkpt><trkpt lat="45.4217217" lon="8.406315"><ele>151.75</ele><time>2026-03-22T13:09:52.227Z</time></trkpt><trkpt lat="45.42185" lon="8.406265"><ele>151.5</ele><time>2026-03-22T13:09:53.227Z</time></trkpt><trkpt lat="45.4219833" lon="8.4062067"><ele>151.25</ele><time>2026-03-22T13:09:54.227Z</time></trkpt><trkpt lat="45.4221117" lon="8.40615"><ele>151.0</ele><time>2026-03-22T13:09:55.227Z</time></trkpt><trkpt lat="45.4222433" lon="8.4060883"><ele>150.5</ele><time>2026-03-22T13:09:56.227Z</time></trkpt><trkpt lat="45.4223567" lon="8.406045"><ele>150.0</ele><time>2026-03-22T13:09:57.227Z</time></trkpt><trkpt lat="45.4224683" lon="8.4060067"><ele>149.5</ele><time>2026-03-22T13:09:58.227Z</time></trkpt><trkpt lat="45.4225717" lon="8.405965"><ele>149.0</ele><time>2026-03-22T13:09:59.227Z</time></trkpt><trkpt lat="45.422675" lon="8.4059067"><ele>149.0</ele><time>2026-03-22T13:10:00.227Z</time></trkpt><trkpt lat="45.4227767" lon="8.4058583"><ele>149.0</ele><time>2026-03-22T13:10:01.227Z</time></trkpt><trkpt lat="45.42288" lon="8.40581"><ele>149.0</ele><time>2026-03-22T13:10:02.227Z</time></trkpt><trkpt lat="45.423" lon="8.4057617"><ele>149.0</ele><time>2026-03-22T13:10:03.227Z</time></trkpt><trkpt lat="45.4231117" lon="8.4057133"><ele>149.25</ele><time>2026-03-22T13:10:04.227Z</time></trkpt><trkpt lat="45.42323" lon="8.4056633"><ele>149.5</ele><time>2026-03-22T13:10:05.227Z</time></trkpt><trkpt lat="45.423345" lon="8.40561"><ele>149.75</ele><time>2026-03-22T13:10:06.227Z</time></trkpt><trkpt lat="45.4234717" lon="8.4055633"><ele>150.0</ele><time>2026-03-22T13:10:07.227Z</time></trkpt><trkpt lat="45.423605" lon="8.40552"><ele>150.66666666666666</ele><time>2026-03-22T13:10:08.227Z</time></trkpt><trkpt lat="45.42374" lon="8.4054933"><ele>151.33333333333331</ele><time>2026-03-22T13:10:09.227Z</time></trkpt><trkpt lat="45.4240117" lon="8.4054683"><ele>152.0</ele><time>2026-03-22T13:10:11.227Z</time></trkpt><trkpt lat="45.4241483" lon="8.4054517"><ele>152.0</ele><time>2026-03-22T13:10:12.227Z</time></trkpt><trkpt lat="45.424275" lon="8.40544"><ele>152.0</ele><time>2026-03-22T13:10:13.227Z</time></trkpt><trkpt lat="45.4243983" lon="8.4054267"><ele>152.0</ele><time>2026-03-22T13:10:14.227Z</time></trkpt><trkpt lat="45.4245183" lon="8.4054017"><ele>152.0</ele><time>2026-03-22T13:10:15.227Z</time></trkpt><trkpt lat="45.4246417" lon="8.405385"><ele>152.5</ele><time>2026-03-22T13:10:16.227Z</time></trkpt><trkpt lat="45.4247683" lon="8.40537"><ele>153.0</ele><time>2026-03-22T13:10:17.227Z</time></trkpt><trkpt lat="45.424895" lon="8.4053517"><ele>153.5</ele><time>2026-03-22T13:10:18.227Z</time></trkpt><trkpt lat="45.4250333" lon="8.4053483"><ele>154.0</ele><time>2026-03-22T13:10:19.227Z</time></trkpt><trkpt lat="45.4251683" lon="8.4053467"><ele>154.0</ele><time>2026-03-22T13:10:20.227Z</time></trkpt><trkpt lat="45.4252983" lon="8.4053683"><ele>154.0</ele><time>2026-03-22T13:10:21.227Z</time></trkpt><trkpt lat="45.4254383" lon="8.4053867"><ele>154.0</ele><time>2026-03-22T13:10:22.227Z</time></trkpt><trkpt lat="45.4255767" lon="8.4054183"><ele>154.0</ele><time>2026-03-22T13:10:23.227Z</time></trkpt><trkpt lat="45.4257033" lon="8.4054383"><ele>154.0</ele><time>2026-03-22T13:10:24.227Z</time></trkpt><trkpt lat="45.4258383" lon="8.4054567"><ele>154.0</ele><time>2026-03-22T13:10:25.227Z</time></trkpt><trkpt lat="45.4259783" lon="8.4054817"><ele>154.0</ele><time>2026-03-22T13:10:26.227Z</time></trkpt><trkpt lat="45.42612" lon="8.4054917"><ele>154.0</ele><time>2026-03-22T13:10:27.227Z</time></trkpt><trkpt lat="45.4262583" lon="8.4055033"><ele>154.5</ele><time>2026-03-22T13:10:28.227Z</time></trkpt><trkpt lat="45.4263983" lon="8.4055217"><ele>155.0</ele><time>2026-03-22T13:10:29.227Z</time></trkpt><trkpt lat="45.42654" lon="8.4055533"><ele>155.5</ele><time>2026-03-22T13:10:30.227Z</time></trkpt><trkpt lat="45.42668" lon="8.405575"><ele>156.0</ele><time>2026-03-22T13:10:31.227Z</time></trkpt><trkpt lat="45.426815" lon="8.4055983"><ele>156.0</ele><time>2026-03-22T13:10:32.227Z</time></trkpt><trkpt lat="45.4269517" lon="8.4056467"><ele>156.0</ele><time>2026-03-22T13:10:33.227Z</time></trkpt><trkpt lat="45.427095" lon="8.405695"><ele>156.0</ele><time>2026-03-22T13:10:34.227Z</time></trkpt><trkpt lat="45.4272317" lon="8.4057567"><ele>156.0</ele><time>2026-03-22T13:10:35.227Z</time></trkpt><trkpt lat="45.4273683" lon="8.4058233"><ele>154.0</ele><time>2026-03-22T13:10:36.227Z</time></trkpt><trkpt lat="45.42751" lon="8.4058833"><ele>152.0</ele><time>2026-03-22T13:10:37.227Z</time></trkpt><trkpt lat="45.42792" lon="8.4059933"><ele>152.5</ele><time>2026-03-22T13:10:40.227Z</time></trkpt><trkpt lat="45.4280633" lon="8.406005"><ele>153.0</ele><time>2026-03-22T13:10:41.227Z</time></trkpt><trkpt lat="45.428205" lon="8.406"><ele>153.5</ele><time>2026-03-22T13:10:42.227Z</time></trkpt><trkpt lat="45.428345" lon="8.4059733"><ele>154.0</ele><time>2026-03-22T13:10:43.227Z</time></trkpt><trkpt lat="45.4284817" lon="8.4059367"><ele>154.0</ele><time>2026-03-22T13:10:44.227Z</time></trkpt><trkpt lat="45.4286183" lon="8.4058883"><ele>154.0</ele><time>2026-03-22T13:10:45.227Z</time></trkpt><trkpt lat="45.4287517" lon="8.4058183"><ele>154.0</ele><time>2026-03-22T13:10:46.227Z</time></trkpt><trkpt lat="45.42902" lon="8.40567"><ele>153.75</ele><time>2026-03-22T13:10:48.228Z</time></trkpt><trkpt lat="45.429145" lon="8.4055933"><ele>153.5</ele><time>2026-03-22T13:10:49.227Z</time></trkpt><trkpt lat="45.4292683" lon="8.4055167"><ele>153.25</ele><time>2026-03-22T13:10:50.227Z</time></trkpt><trkpt lat="45.429385" lon="8.4054467"><ele>153.0</ele><time>2026-03-22T13:10:51.228Z</time></trkpt><trkpt lat="45.429515" lon="8.4053883"><ele>153.0</ele><time>2026-03-22T13:10:52.227Z</time></trkpt><trkpt lat="45.4296317" lon="8.4053217"><ele>153.0</ele><time>2026-03-22T13:10:53.227Z</time></trkpt><trkpt lat="45.4297467" lon="8.4052483"><ele>153.0</ele><time>2026-03-22T13:10:54.227Z</time></trkpt><trkpt lat="45.42987" lon="8.4051817"><ele>153.0</ele><time>2026-03-22T13:10:55.227Z</time></trkpt><trkpt lat="45.4300017" lon="8.405105"><ele>153.5</ele><time>2026-03-22T13:10:56.227Z</time></trkpt><trkpt lat="45.4301483" lon="8.40503"><ele>154.0</ele><time>2026-03-22T13:10:57.227Z</time></trkpt><trkpt lat="45.4302883" lon="8.4049667"><ele>154.5</ele><time>2026-03-22T13:10:58.227Z</time></trkpt><trkpt lat="45.4304233" lon="8.4048917"><ele>155.0</ele><time>2026-03-22T13:10:59.227Z</time></trkpt><trkpt lat="45.43056" lon="8.4048117"><ele>154.0</ele><time>2026-03-22T13:11:00.227Z</time></trkpt><trkpt lat="45.4307" lon="8.4047233"><ele>153.0</ele><time>2026-03-22T13:11:01.227Z</time></trkpt><trkpt lat="45.4308367" lon="8.4046367"><ele>152.0</ele><time>2026-03-22T13:11:02.227Z</time></trkpt><trkpt lat="45.4309733" lon="8.40455"><ele>152.0</ele><time>2026-03-22T13:11:03.227Z</time></trkpt><trkpt lat="45.4311067" lon="8.4044783"><ele>152.0</ele><time>2026-03-22T13:11:04.227Z</time></trkpt><trkpt lat="45.4312433" lon="8.4044"><ele>152.0</ele><time>2026-03-22T13:11:05.227Z</time></trkpt><trkpt lat="45.43138" lon="8.4043283"><ele>152.0</ele><time>2026-03-22T13:11:06.227Z</time></trkpt><trkpt lat="45.4315133" lon="8.404255"><ele>151.66666666666666</ele><time>2026-03-22T13:11:07.227Z</time></trkpt><trkpt lat="45.4316483" lon="8.4041733"><ele>151.33333333333334</ele><time>2026-03-22T13:11:08.227Z</time></trkpt><trkpt lat="45.4319217" lon="8.40402"><ele>151.0</ele><time>2026-03-22T13:11:10.227Z</time></trkpt><trkpt lat="45.432055" lon="8.40394"><ele>151.75</ele><time>2026-03-22T13:11:11.227Z</time></trkpt><trkpt lat="45.4321983" lon="8.4038817"><ele>152.5</ele><time>2026-03-22T13:11:12.227Z</time></trkpt><trkpt lat="45.4323383" lon="8.4038567"><ele>153.25</ele><time>2026-03-22T13:11:13.227Z</time></trkpt><trkpt lat="45.4324633" lon="8.4038533"><ele>154.0</ele><time>2026-03-22T13:11:14.227Z</time></trkpt><trkpt lat="45.4326917" lon="8.403855"><ele>154.0</ele><time>2026-03-22T13:11:16.227Z</time></trkpt><trkpt lat="45.4328033" lon="8.40385"><ele>154.0</ele><time>2026-03-22T13:11:17.227Z</time></trkpt><trkpt lat="45.4329333" lon="8.4038333"><ele>154.0</ele><time>2026-03-22T13:11:18.227Z</time></trkpt><trkpt lat="45.43319" lon="8.4038"><ele>153.5</ele><time>2026-03-22T13:11:20.227Z</time></trkpt><trkpt lat="45.4333233" lon="8.4037717"><ele>153.0</ele><time>2026-03-22T13:11:21.227Z</time></trkpt><trkpt lat="45.4334683" lon="8.403755"><ele>152.5</ele><time>2026-03-22T13:11:22.227Z</time></trkpt><trkpt lat="45.4336067" lon="8.4037467"><ele>152.0</ele><time>2026-03-22T13:11:23.227Z</time></trkpt><trkpt lat="45.43375" lon="8.4037267"><ele>152.66666666666666</ele><time>2026-03-22T13:11:24.227Z</time></trkpt><trkpt lat="45.43402" lon="8.4037083"><ele>153.33333333333334</ele><time>2026-03-22T13:11:26.227Z</time></trkpt><trkpt lat="45.4341433" lon="8.4036867"><ele>154.0</ele><time>2026-03-22T13:11:27.227Z</time></trkpt><trkpt lat="45.4342783" lon="8.4036683"><ele>154.0</ele><time>2026-03-22T13:11:28.227Z</time></trkpt><trkpt lat="45.4344183" lon="8.4036633"><ele>154.0</ele><time>2026-03-22T13:11:29.227Z</time></trkpt><trkpt lat="45.4345567" lon="8.4036517"><ele>154.0</ele><time>2026-03-22T13:11:30.227Z</time></trkpt><trkpt lat="45.4346967" lon="8.4036317"><ele>154.0</ele><time>2026-03-22T13:11:31.227Z</time></trkpt><trkpt lat="45.4348317" lon="8.40361"><ele>153.66666666666669</ele><time>2026-03-22T13:11:32.227Z</time></trkpt><trkpt lat="45.434965" lon="8.4035833"><ele>153.33333333333334</ele><time>2026-03-22T13:11:33.227Z</time></trkpt><trkpt lat="45.4352367" lon="8.4035567"><ele>153.0</ele><time>2026-03-22T13:11:35.227Z</time></trkpt><trkpt lat="45.4353733" lon="8.4035383"><ele>152.5</ele><time>2026-03-22T13:11:36.227Z</time></trkpt><trkpt lat="45.4355117" lon="8.4035367"><ele>152.0</ele><time>2026-03-22T13:11:37.227Z</time></trkpt><trkpt lat="45.4356583" lon="8.40354"><ele>151.5</ele><time>2026-03-22T13:11:38.227Z</time></trkpt><trkpt lat="45.4358017" lon="8.4035583"><ele>151.0</ele><time>2026-03-22T13:11:39.227Z</time></trkpt><trkpt lat="45.435945" lon="8.4035867"><ele>151.0</ele><time>2026-03-22T13:11:40.227Z</time></trkpt><trkpt lat="45.4360817" lon="8.4036217"><ele>151.0</ele><time>2026-03-22T13:11:41.227Z</time></trkpt><trkpt lat="45.4362267" lon="8.40365"><ele>151.0</ele><time>2026-03-22T13:11:42.227Z</time></trkpt><trkpt lat="45.436365" lon="8.40368"><ele>151.0</ele><time>2026-03-22T13:11:43.227Z</time></trkpt><trkpt lat="45.4365117" lon="8.4037"><ele>151.0</ele><time>2026-03-22T13:11:44.227Z</time></trkpt><trkpt lat="45.436645" lon="8.40371"><ele>151.0</ele><time>2026-03-22T13:11:45.227Z</time></trkpt><trkpt lat="45.43679" lon="8.4037567"><ele>151.0</ele><time>2026-03-22T13:11:46.227Z</time></trkpt><trkpt lat="45.4369267" lon="8.4037967"><ele>151.0</ele><time>2026-03-22T13:11:47.227Z</time></trkpt><trkpt lat="45.4370667" lon="8.4038183"><ele>151.25</ele><time>2026-03-22T13:11:48.227Z</time></trkpt><trkpt lat="45.4371967" lon="8.4038367"><ele>151.5</ele><time>2026-03-22T13:11:49.227Z</time></trkpt><trkpt lat="45.4373317" lon="8.4038517"><ele>151.75</ele><time>2026-03-22T13:11:50.227Z</time></trkpt><trkpt lat="45.4374733" lon="8.403855"><ele>152.0</ele><time>2026-03-22T13:11:51.227Z</time></trkpt><trkpt lat="45.43761" lon="8.403865"><ele>152.0</ele><time>2026-03-22T13:11:52.227Z</time></trkpt><trkpt lat="45.4377567" lon="8.4038717"><ele>152.0</ele><time>2026-03-22T13:11:53.227Z</time></trkpt><trkpt lat="45.4378983" lon="8.4038633"><ele>152.0</ele><time>2026-03-22T13:11:54.227Z</time></trkpt><trkpt lat="45.4380383" lon="8.4038617"><ele>152.0</ele><time>2026-03-22T13:11:55.227Z</time></trkpt><trkpt lat="45.4381783" lon="8.4038683"><ele>152.25</ele><time>2026-03-22T13:11:56.227Z</time></trkpt><trkpt lat="45.438325" lon="8.4038733"><ele>152.5</ele><time>2026-03-22T13:11:57.227Z</time></trkpt><trkpt lat="45.4384617" lon="8.403875"><ele>152.75</ele><time>2026-03-22T13:11:58.227Z</time></trkpt><trkpt lat="45.4386017" lon="8.4038717"><ele>153.0</ele><time>2026-03-22T13:11:59.227Z</time></trkpt><trkpt lat="45.4387267" lon="8.403875"><ele>153.5</ele><time>2026-03-22T13:12:00.227Z</time></trkpt><trkpt lat="45.438845" lon="8.403865"><ele>154.0</ele><time>2026-03-22T13:12:01.227Z</time></trkpt><trkpt lat="45.43897" lon="8.4038567"><ele>154.5</ele><time>2026-03-22T13:12:02.227Z</time></trkpt><trkpt lat="45.4390967" lon="8.4038483"><ele>155.0</ele><time>2026-03-22T13:12:03.227Z</time></trkpt><trkpt lat="45.4392133" lon="8.4038433"><ele>155.0</ele><time>2026-03-22T13:12:04.227Z</time></trkpt><trkpt lat="45.4393367" lon="8.4038517"><ele>155.0</ele><time>2026-03-22T13:12:05.227Z</time></trkpt><trkpt lat="45.439465" lon="8.4038517"><ele>155.0</ele><time>2026-03-22T13:12:06.227Z</time></trkpt><trkpt lat="45.4395933" lon="8.40384"><ele>155.0</ele><time>2026-03-22T13:12:07.227Z</time></trkpt><trkpt lat="45.439715" lon="8.4038383"><ele>154.75</ele><time>2026-03-22T13:12:08.227Z</time></trkpt><trkpt lat="45.4398367" lon="8.4038383"><ele>154.5</ele><time>2026-03-22T13:12:09.227Z</time></trkpt><trkpt lat="45.439955" lon="8.4038317"><ele>154.25</ele><time>2026-03-22T13:12:10.227Z</time></trkpt><trkpt lat="45.44007" lon="8.4038283"><ele>154.0</ele><time>2026-03-22T13:12:11.227Z</time></trkpt><trkpt lat="45.4401883" lon="8.4038217"><ele>154.0</ele><time>2026-03-22T13:12:12.227Z</time></trkpt><trkpt lat="45.4403067" lon="8.4038117"><ele>154.0</ele><time>2026-03-22T13:12:13.227Z</time></trkpt><trkpt lat="45.4404383" lon="8.403815"><ele>154.0</ele><time>2026-03-22T13:12:14.227Z</time></trkpt><trkpt lat="45.4405617" lon="8.403805"><ele>154.0</ele><time>2026-03-22T13:12:15.227Z</time></trkpt><trkpt lat="45.4406917" lon="8.40383"><ele>154.75</ele><time>2026-03-22T13:12:16.227Z</time></trkpt><trkpt lat="45.4408283" lon="8.403835"><ele>155.5</ele><time>2026-03-22T13:12:17.227Z</time></trkpt><trkpt lat="45.44095" lon="8.4038367"><ele>156.25</ele><time>2026-03-22T13:12:18.227Z</time></trkpt><trkpt lat="45.4410817" lon="8.403845"><ele>157.0</ele><time>2026-03-22T13:12:19.227Z</time></trkpt><trkpt lat="45.4412217" lon="8.4038433"><ele>156.5</ele><time>2026-03-22T13:12:20.227Z</time></trkpt><trkpt lat="45.44136" lon="8.403835"><ele>156.0</ele><time>2026-03-22T13:12:21.227Z</time></trkpt><trkpt lat="45.441505" lon="8.40383"><ele>155.5</ele><time>2026-03-22T13:12:22.227Z</time></trkpt><trkpt lat="45.4416383" lon="8.4038333"><ele>155.0</ele><time>2026-03-22T13:12:23.227Z</time></trkpt><trkpt lat="45.4417733" lon="8.4038283"><ele>154.75</ele><time>2026-03-22T13:12:24.227Z</time></trkpt><trkpt lat="45.44191" lon="8.4038233"><ele>154.5</ele><time>2026-03-22T13:12:25.227Z</time></trkpt><trkpt lat="45.44205" lon="8.4038267"><ele>154.25</ele><time>2026-03-22T13:12:26.227Z</time></trkpt><trkpt lat="45.44218" lon="8.4038333"><ele>154.0</ele><time>2026-03-22T13:12:27.227Z</time></trkpt><trkpt lat="45.4423133" lon="8.40383"><ele>154.0</ele><time>2026-03-22T13:12:28.227Z</time></trkpt><trkpt lat="45.44245" lon="8.4038183"><ele>154.0</ele><time>2026-03-22T13:12:29.227Z</time></trkpt><trkpt lat="45.4425917" lon="8.4038283"><ele>154.0</ele><time>2026-03-22T13:12:30.227Z</time></trkpt><trkpt lat="45.44273" lon="8.403835"><ele>154.0</ele><time>2026-03-22T13:12:31.227Z</time></trkpt><trkpt lat="45.4428617" lon="8.4038333"><ele>154.0</ele><time>2026-03-22T13:12:32.227Z</time></trkpt><trkpt lat="45.4430017" lon="8.403825"><ele>154.0</ele><time>2026-03-22T13:12:33.227Z</time></trkpt><trkpt lat="45.4431467" lon="8.4037967"><ele>154.0</ele><time>2026-03-22T13:12:34.227Z</time></trkpt><trkpt lat="45.4432933" lon="8.40376"><ele>154.0</ele><time>2026-03-22T13:12:35.227Z</time></trkpt><trkpt lat="45.44343" lon="8.4037"><ele>154.0</ele><time>2026-03-22T13:12:36.227Z</time></trkpt><trkpt lat="45.4435767" lon="8.4036467"><ele>154.0</ele><time>2026-03-22T13:12:37.226Z</time></trkpt><trkpt lat="45.4437283" lon="8.4035883"><ele>154.0</ele><time>2026-03-22T13:12:38.226Z</time></trkpt><trkpt lat="45.4438733" lon="8.4035067"><ele>154.66666666666669</ele><time>2026-03-22T13:12:39.226Z</time></trkpt><trkpt lat="45.4440133" lon="8.4034183"><ele>155.33333333333334</ele><time>2026-03-22T13:12:40.226Z</time></trkpt><trkpt lat="45.4441533" lon="8.4033183"><ele>156.0</ele><time>2026-03-22T13:12:41.226Z</time></trkpt><trkpt lat="45.44429" lon="8.4032167"><ele>156.0</ele><time>2026-03-22T13:12:42.226Z</time></trkpt><trkpt lat="45.4444183" lon="8.4031133"><ele>156.0</ele><time>2026-03-22T13:12:43.226Z</time></trkpt><trkpt lat="45.44455" lon="8.4029967"><ele>156.0</ele><time>2026-03-22T13:12:44.226Z</time></trkpt><trkpt lat="45.4446833" lon="8.40289"><ele>156.66666666666666</ele><time>2026-03-22T13:12:45.226Z</time></trkpt><trkpt lat="45.444815" lon="8.4027867"><ele>157.33333333333331</ele><time>2026-03-22T13:12:46.226Z</time></trkpt><trkpt lat="45.4449417" lon="8.4026767"><ele>158.0</ele><time>2026-03-22T13:12:47.226Z</time></trkpt><trkpt lat="45.44507" lon="8.4025633"><ele>158.0</ele><time>2026-03-22T13:12:48.226Z</time></trkpt><trkpt lat="45.4451933" lon="8.4024417"><ele>158.0</ele><time>2026-03-22T13:12:49.226Z</time></trkpt><trkpt lat="45.4453183" lon="8.402315"><ele>158.0</ele><time>2026-03-22T13:12:50.226Z</time></trkpt><trkpt lat="45.44543" lon="8.40218"><ele>157.66666666666666</ele><time>2026-03-22T13:12:51.226Z</time></trkpt><trkpt lat="45.4455517" lon="8.40206"><ele>157.33333333333334</ele><time>2026-03-22T13:12:52.226Z</time></trkpt><trkpt lat="45.4456883" lon="8.4019567"><ele>157.0</ele><time>2026-03-22T13:12:53.226Z</time></trkpt><trkpt lat="45.445835" lon="8.4018667"><ele>157.0</ele><time>2026-03-22T13:12:54.226Z</time></trkpt><trkpt lat="45.4459917" lon="8.4017817"><ele>157.0</ele><time>2026-03-22T13:12:55.226Z</time></trkpt><trkpt lat="45.4461483" lon="8.4017217"><ele>157.0</ele><time>2026-03-22T13:12:56.226Z</time></trkpt><trkpt lat="45.4463117" lon="8.4016717"><ele>156.66666666666669</ele><time>2026-03-22T13:12:57.226Z</time></trkpt><trkpt lat="45.4464617" lon="8.4016367"><ele>156.33333333333334</ele><time>2026-03-22T13:12:58.226Z</time></trkpt><trkpt lat="45.4466117" lon="8.4016033"><ele>156.0</ele><time>2026-03-22T13:12:59.226Z</time></trkpt><trkpt lat="45.4467617" lon="8.4015567"><ele>156.0</ele><time>2026-03-22T13:13:00.226Z</time></trkpt><trkpt lat="45.4469167" lon="8.4015133"><ele>156.0</ele><time>2026-03-22T13:13:01.226Z</time></trkpt><trkpt lat="45.447065" lon="8.401475"><ele>156.0</ele><time>2026-03-22T13:13:02.226Z</time></trkpt><trkpt lat="45.44721" lon="8.4014383"><ele>157.33333333333334</ele><time>2026-03-22T13:13:03.226Z</time></trkpt><trkpt lat="45.447355" lon="8.401405"><ele>158.66666666666669</ele><time>2026-03-22T13:13:04.226Z</time></trkpt><trkpt lat="45.4475017" lon="8.4013783"><ele>160.0</ele><time>2026-03-22T13:13:05.226Z</time></trkpt><trkpt lat="45.4476567" lon="8.40136"><ele>160.0</ele><time>2026-03-22T13:13:06.226Z</time></trkpt><trkpt lat="45.4478017" lon="8.4013433"><ele>160.0</ele><time>2026-03-22T13:13:07.226Z</time></trkpt><trkpt lat="45.4479383" lon="8.4013483"><ele>160.0</ele><time>2026-03-22T13:13:08.226Z</time></trkpt><trkpt lat="45.4480733" lon="8.4013667"><ele>160.0</ele><time>2026-03-22T13:13:09.226Z</time></trkpt><trkpt lat="45.4482167" lon="8.4013983"><ele>159.66666666666669</ele><time>2026-03-22T13:13:10.226Z</time></trkpt><trkpt lat="45.44836" lon="8.401425"><ele>159.33333333333334</ele><time>2026-03-22T13:13:11.226Z</time></trkpt><trkpt lat="45.4485117" lon="8.40148"><ele>159.0</ele><time>2026-03-22T13:13:12.226Z</time></trkpt><trkpt lat="45.4488067" lon="8.401615"><ele>158.66666666666666</ele><time>2026-03-22T13:13:14.226Z</time></trkpt><trkpt lat="45.4489567" lon="8.40168"><ele>158.33333333333331</ele><time>2026-03-22T13:13:15.226Z</time></trkpt><trkpt lat="45.449105" lon="8.4017283"><ele>158.0</ele><time>2026-03-22T13:13:16.226Z</time></trkpt><trkpt lat="45.44925" lon="8.4017783"><ele>158.0</ele><time>2026-03-22T13:13:17.226Z</time></trkpt><trkpt lat="45.449395" lon="8.4018333"><ele>158.0</ele><time>2026-03-22T13:13:18.226Z</time></trkpt><trkpt lat="45.4495383" lon="8.4018917"><ele>158.0</ele><time>2026-03-22T13:13:19.226Z</time></trkpt><trkpt lat="45.4496867" lon="8.4019333"><ele>159.5</ele><time>2026-03-22T13:13:20.226Z</time></trkpt><trkpt lat="45.4501067" lon="8.40208"><ele>161.0</ele><time>2026-03-22T13:13:23.226Z</time></trkpt><trkpt lat="45.4502433" lon="8.402115"><ele>161.0</ele><time>2026-03-22T13:13:24.226Z</time></trkpt><trkpt lat="45.450385" lon="8.40212"><ele>161.0</ele><time>2026-03-22T13:13:25.226Z</time></trkpt><trkpt lat="45.45053" lon="8.40214"><ele>161.0</ele><time>2026-03-22T13:13:26.226Z</time></trkpt><trkpt lat="45.4506667" lon="8.4021467"><ele>161.0</ele><time>2026-03-22T13:13:27.226Z</time></trkpt><trkpt lat="45.4508083" lon="8.4021617"><ele>160.5</ele><time>2026-03-22T13:13:28.226Z</time></trkpt><trkpt lat="45.4509483" lon="8.4021717"><ele>160.0</ele><time>2026-03-22T13:13:29.226Z</time></trkpt><trkpt lat="45.4510833" lon="8.4021817"><ele>159.5</ele><time>2026-03-22T13:13:30.226Z</time></trkpt><trkpt lat="45.4512117" lon="8.4021867"><ele>159.0</ele><time>2026-03-22T13:13:31.226Z</time></trkpt><trkpt lat="45.4513383" lon="8.4021967"><ele>159.0</ele><time>2026-03-22T13:13:32.226Z</time></trkpt><trkpt lat="45.4514683" lon="8.4022083"><ele>159.0</ele><time>2026-03-22T13:13:33.226Z</time></trkpt><trkpt lat="45.4515967" lon="8.40223"><ele>159.0</ele><time>2026-03-22T13:13:34.226Z</time></trkpt><trkpt lat="45.4517167" lon="8.4022367"><ele>159.0</ele><time>2026-03-22T13:13:35.226Z</time></trkpt><trkpt lat="45.4518367" lon="8.4022617"><ele>159.0</ele><time>2026-03-22T13:13:36.226Z</time></trkpt><trkpt lat="45.4519583" lon="8.4022883"><ele>159.0</ele><time>2026-03-22T13:13:37.226Z</time></trkpt><trkpt lat="45.4520833" lon="8.4023083"><ele>159.0</ele><time>2026-03-22T13:13:38.226Z</time></trkpt><trkpt lat="45.45221" lon="8.4023083"><ele>159.0</ele><time>2026-03-22T13:13:39.226Z</time></trkpt><trkpt lat="45.4523383" lon="8.402335"><ele>159.0</ele><time>2026-03-22T13:13:40.226Z</time></trkpt><trkpt lat="45.4524633" lon="8.40235"><ele>159.0</ele><time>2026-03-22T13:13:41.226Z</time></trkpt><trkpt lat="45.4525967" lon="8.40237"><ele>159.0</ele><time>2026-03-22T13:13:42.226Z</time></trkpt><trkpt lat="45.4527383" lon="8.4023833"><ele>159.0</ele><time>2026-03-22T13:13:43.226Z</time></trkpt><trkpt lat="45.45288" lon="8.4023867"><ele>159.0</ele><time>2026-03-22T13:13:44.227Z</time></trkpt><trkpt lat="45.4530217" lon="8.4023967"><ele>159.0</ele><time>2026-03-22T13:13:45.226Z</time></trkpt><trkpt lat="45.4531567" lon="8.4024117"><ele>159.0</ele><time>2026-03-22T13:13:46.226Z</time></trkpt><trkpt lat="45.4532983" lon="8.4024217"><ele>159.0</ele><time>2026-03-22T13:13:47.226Z</time></trkpt><trkpt lat="45.4534267" lon="8.4024283"><ele>159.0</ele><time>2026-03-22T13:13:48.226Z</time></trkpt><trkpt lat="45.4535517" lon="8.402445"><ele>159.0</ele><time>2026-03-22T13:13:49.226Z</time></trkpt><trkpt lat="45.45366" lon="8.4024367"><ele>159.0</ele><time>2026-03-22T13:13:50.226Z</time></trkpt><trkpt lat="45.4537617" lon="8.4024083"><ele>159.0</ele><time>2026-03-22T13:13:51.226Z</time></trkpt><trkpt lat="45.4538433" lon="8.4023917"><ele>159.0</ele><time>2026-03-22T13:13:52.226Z</time></trkpt><trkpt lat="45.4539167" lon="8.4023717"><ele>159.33333333333334</ele><time>2026-03-22T13:13:53.226Z</time></trkpt><trkpt lat="45.4540183" lon="8.4023867"><ele>159.66666666666666</ele><time>2026-03-22T13:13:55.226Z</time></trkpt><trkpt lat="45.4540567" lon="8.40248"><ele>160.0</ele><time>2026-03-22T13:13:57.226Z</time></trkpt><trkpt lat="45.4540333" lon="8.4026233"><ele>160.33333333333331</ele><time>2026-03-22T13:13:59.226Z</time></trkpt><trkpt lat="45.4540117" lon="8.4027083"><ele>160.66666666666666</ele><time>2026-03-22T13:14:00.226Z</time></trkpt><trkpt lat="45.4539783" lon="8.40282"><ele>161.0</ele><time>2026-03-22T13:14:01.226Z</time></trkpt><trkpt lat="45.4539167" lon="8.403055"><ele>160.0</ele><time>2026-03-22T13:14:03.226Z</time></trkpt><trkpt lat="45.4538717" lon="8.40319"><ele>159.0</ele><time>2026-03-22T13:14:04.226Z</time></trkpt><trkpt lat="45.4537733" lon="8.4034517"><ele>158.0</ele><time>2026-03-22T13:14:06.226Z</time></trkpt><trkpt lat="45.4537333" lon="8.4035667"><ele>157.0</ele><time>2026-03-22T13:14:07.226Z</time></trkpt><trkpt lat="45.45369" lon="8.403685"><ele>157.0</ele><time>2026-03-22T13:14:08.226Z</time></trkpt><trkpt lat="45.45364" lon="8.4037983"><ele>157.0</ele><time>2026-03-22T13:14:09.226Z</time></trkpt><trkpt lat="45.4535883" lon="8.403905"><ele>157.0</ele><time>2026-03-22T13:14:10.226Z</time></trkpt><trkpt lat="45.453545" lon="8.404025"><ele>157.0</ele><time>2026-03-22T13:14:11.226Z</time></trkpt><trkpt lat="45.4535033" lon="8.4041383"><ele>157.0</ele><time>2026-03-22T13:14:12.226Z</time></trkpt><trkpt lat="45.453465" lon="8.404255"><ele>157.16666666666669</ele><time>2026-03-22T13:14:13.226Z</time></trkpt><trkpt lat="45.4534317" lon="8.4043783"><ele>157.33333333333334</ele><time>2026-03-22T13:14:14.226Z</time></trkpt><trkpt lat="45.4533967" lon="8.4044933"><ele>157.5</ele><time>2026-03-22T13:14:15.226Z</time></trkpt><trkpt lat="45.45336" lon="8.404595"><ele>157.66666666666666</ele><time>2026-03-22T13:14:16.226Z</time></trkpt><trkpt lat="45.4533233" lon="8.4046933"><ele>157.83333333333331</ele><time>2026-03-22T13:14:17.226Z</time></trkpt><trkpt lat="45.45329" lon="8.4047917"><ele>158.0</ele><time>2026-03-22T13:14:18.226Z</time></trkpt><trkpt lat="45.4532633" lon="8.404895"><ele>158.0</ele><time>2026-03-22T13:14:19.226Z</time></trkpt><trkpt lat="45.4532383" lon="8.405"><ele>158.0</ele><time>2026-03-22T13:14:20.226Z</time></trkpt><trkpt lat="45.4532133" lon="8.4051017"><ele>158.0</ele><time>2026-03-22T13:14:21.226Z</time></trkpt><trkpt lat="45.45319" lon="8.4051917"><ele>158.0</ele><time>2026-03-22T13:14:22.226Z</time></trkpt><trkpt lat="45.4531533" lon="8.4053533"><ele>158.0</ele><time>2026-03-22T13:14:24.226Z</time></trkpt><trkpt lat="45.4531267" lon="8.4055033"><ele>158.0</ele><time>2026-03-22T13:14:26.226Z</time></trkpt><trkpt lat="45.4531267" lon="8.4055933"><ele>158.16666666666666</ele><time>2026-03-22T13:14:27.226Z</time></trkpt><trkpt lat="45.4531567" lon="8.4057633"><ele>158.33333333333331</ele><time>2026-03-22T13:14:29.226Z</time></trkpt><trkpt lat="45.45319" lon="8.4058467"><ele>158.5</ele><time>2026-03-22T13:14:30.226Z</time></trkpt><trkpt lat="45.453235" lon="8.4059317"><ele>158.66666666666666</ele><time>2026-03-22T13:14:31.226Z</time></trkpt><trkpt lat="45.45329" lon="8.4060117"><ele>158.83333333333334</ele><time>2026-03-22T13:14:32.226Z</time></trkpt><trkpt lat="45.4533483" lon="8.4060833"><ele>159.0</ele><time>2026-03-22T13:14:33.226Z</time></trkpt><trkpt lat="45.4534033" lon="8.4061617"><ele>159.0</ele><time>2026-03-22T13:14:34.226Z</time></trkpt><trkpt lat="45.4534583" lon="8.40624"><ele>159.0</ele><time>2026-03-22T13:14:35.226Z</time></trkpt><trkpt lat="45.4535183" lon="8.4063417"><ele>159.0</ele><time>2026-03-22T13:14:36.226Z</time></trkpt><trkpt lat="45.453585" lon="8.4064267"><ele>159.0</ele><time>2026-03-22T13:14:37.226Z</time></trkpt><trkpt lat="45.4536483" lon="8.4065217"><ele>159.0</ele><time>2026-03-22T13:14:38.226Z</time></trkpt><trkpt lat="45.4536967" lon="8.4066283"><ele>159.0</ele><time>2026-03-22T13:14:39.226Z</time></trkpt><trkpt lat="45.4537483" lon="8.4067333"><ele>158.8</ele><time>2026-03-22T13:14:40.226Z</time></trkpt><trkpt lat="45.4537867" lon="8.4068517"><ele>158.60000000000002</ele><time>2026-03-22T13:14:41.226Z</time></trkpt><trkpt lat="45.4538383" lon="8.4069683"><ele>158.4</ele><time>2026-03-22T13:14:42.226Z</time></trkpt><trkpt lat="45.4538867" lon="8.4071017"><ele>158.20000000000002</ele><time>2026-03-22T13:14:43.226Z</time></trkpt><trkpt lat="45.4539483" lon="8.4072317"><ele>158.0</ele><time>2026-03-22T13:14:44.226Z</time></trkpt><trkpt lat="45.4540017" lon="8.4073683"><ele>158.25</ele><time>2026-03-22T13:14:45.226Z</time></trkpt><trkpt lat="45.4540633" lon="8.4075133"><ele>158.5</ele><time>2026-03-22T13:14:46.226Z</time></trkpt><trkpt lat="45.454115" lon="8.4076717"><ele>158.75</ele><time>2026-03-22T13:14:47.226Z</time></trkpt><trkpt lat="45.454155" lon="8.407825"><ele>159.0</ele><time>2026-03-22T13:14:48.226Z</time></trkpt><trkpt lat="45.45417" lon="8.407995"><ele>159.0</ele><time>2026-03-22T13:14:49.226Z</time></trkpt><trkpt lat="45.4541633" lon="8.4081617"><ele>159.0</ele><time>2026-03-22T13:14:50.226Z</time></trkpt><trkpt lat="45.4541283" lon="8.408335"><ele>159.0</ele><time>2026-03-22T13:14:51.226Z</time></trkpt><trkpt lat="45.4540683" lon="8.4084967"><ele>159.0</ele><time>2026-03-22T13:14:52.226Z</time></trkpt><trkpt lat="45.453995" lon="8.4086467"><ele>159.0</ele><time>2026-03-22T13:14:53.226Z</time></trkpt><trkpt lat="45.4539067" lon="8.4087817"><ele>159.0</ele><time>2026-03-22T13:14:54.226Z</time></trkpt><trkpt lat="45.4538283" lon="8.4089067"><ele>159.0</ele><time>2026-03-22T13:14:55.226Z</time></trkpt><trkpt lat="45.453775" lon="8.4090383"><ele>159.0</ele><time>2026-03-22T13:14:56.226Z</time></trkpt><trkpt lat="45.45373" lon="8.4091733"><ele>159.0</ele><time>2026-03-22T13:14:57.226Z</time></trkpt><trkpt lat="45.4537083" lon="8.40932"><ele>159.0</ele><time>2026-03-22T13:14:58.226Z</time></trkpt><trkpt lat="45.4537033" lon="8.4094733"><ele>159.0</ele><time>2026-03-22T13:14:59.226Z</time></trkpt><trkpt lat="45.45373" lon="8.4096067"><ele>159.0</ele><time>2026-03-22T13:15:00.226Z</time></trkpt><trkpt lat="45.4537867" lon="8.4097183"><ele>159.0</ele><time>2026-03-22T13:15:01.226Z</time></trkpt><trkpt lat="45.4538617" lon="8.40983"><ele>159.0</ele><time>2026-03-22T13:15:02.226Z</time></trkpt><trkpt lat="45.45394" lon="8.4099483"><ele>159.0</ele><time>2026-03-22T13:15:03.226Z</time></trkpt><trkpt lat="45.4540083" lon="8.4100817"><ele>159.0</ele><time>2026-03-22T13:15:04.226Z</time></trkpt><trkpt lat="45.4540517" lon="8.41024"><ele>159.0</ele><time>2026-03-22T13:15:05.226Z</time></trkpt><trkpt lat="45.45408" lon="8.4103967"><ele>159.2</ele><time>2026-03-22T13:15:06.226Z</time></trkpt><trkpt lat="45.4541167" lon="8.4105383"><ele>159.4</ele><time>2026-03-22T13:15:07.226Z</time></trkpt><trkpt lat="45.45418" lon="8.4106617"><ele>159.6</ele><time>2026-03-22T13:15:08.226Z</time></trkpt><trkpt lat="45.4542733" lon="8.41075"><ele>159.8</ele><time>2026-03-22T13:15:09.226Z</time></trkpt><trkpt lat="45.4543733" lon="8.4108383"><ele>160.0</ele><time>2026-03-22T13:15:10.226Z</time></trkpt><trkpt lat="45.4544733" lon="8.4109317"><ele>160.0</ele><time>2026-03-22T13:15:11.226Z</time></trkpt><trkpt lat="45.4545483" lon="8.41105"><ele>160.0</ele><time>2026-03-22T13:15:12.226Z</time></trkpt><trkpt lat="45.4546067" lon="8.4111867"><ele>160.0</ele><time>2026-03-22T13:15:13.226Z</time></trkpt><trkpt lat="45.454645" lon="8.41135"><ele>160.0</ele><time>2026-03-22T13:15:14.226Z</time></trkpt><trkpt lat="45.4546817" lon="8.4115217"><ele>160.25</ele><time>2026-03-22T13:15:15.226Z</time></trkpt><trkpt lat="45.4547267" lon="8.411695"><ele>160.5</ele><time>2026-03-22T13:15:16.226Z</time></trkpt><trkpt lat="45.4547617" lon="8.4118683"><ele>160.75</ele><time>2026-03-22T13:15:17.226Z</time></trkpt><trkpt lat="45.4547917" lon="8.4120283"><ele>161.0</ele><time>2026-03-22T13:15:18.226Z</time></trkpt><trkpt lat="45.454805" lon="8.41219"><ele>160.5</ele><time>2026-03-22T13:15:19.226Z</time></trkpt><trkpt lat="45.454785" lon="8.412355"><ele>160.0</ele><time>2026-03-22T13:15:20.226Z</time></trkpt><trkpt lat="45.45475" lon="8.4125183"><ele>159.5</ele><time>2026-03-22T13:15:21.226Z</time></trkpt><trkpt lat="45.454715" lon="8.4127117"><ele>159.0</ele><time>2026-03-22T13:15:22.226Z</time></trkpt><trkpt lat="45.4546867" lon="8.4128983"><ele>159.0</ele><time>2026-03-22T13:15:23.226Z</time></trkpt><trkpt lat="45.4546567" lon="8.41308"><ele>159.0</ele><time>2026-03-22T13:15:24.226Z</time></trkpt><trkpt lat="45.454645" lon="8.4132583"><ele>159.0</ele><time>2026-03-22T13:15:25.226Z</time></trkpt><trkpt lat="45.45465" lon="8.41345"><ele>159.0</ele><time>2026-03-22T13:15:26.226Z</time></trkpt><trkpt lat="45.4546733" lon="8.41364"><ele>159.0</ele><time>2026-03-22T13:15:27.226Z</time></trkpt><trkpt lat="45.4547017" lon="8.4138217"><ele>159.0</ele><time>2026-03-22T13:15:28.226Z</time></trkpt><trkpt lat="45.4547417" lon="8.4139983"><ele>159.0</ele><time>2026-03-22T13:15:29.226Z</time></trkpt><trkpt lat="45.454775" lon="8.4141783"><ele>159.0</ele><time>2026-03-22T13:15:30.226Z</time></trkpt><trkpt lat="45.4548083" lon="8.4143633"><ele>159.25</ele><time>2026-03-22T13:15:31.226Z</time></trkpt><trkpt lat="45.454835" lon="8.4145517"><ele>159.5</ele><time>2026-03-22T13:15:32.226Z</time></trkpt><trkpt lat="45.4548433" lon="8.4147367"><ele>159.75</ele><time>2026-03-22T13:15:33.226Z</time></trkpt><trkpt lat="45.454855" lon="8.414925"><ele>160.0</ele><time>2026-03-22T13:15:34.226Z</time></trkpt><trkpt lat="45.4548833" lon="8.4151133"><ele>160.25</ele><time>2026-03-22T13:15:35.226Z</time></trkpt><trkpt lat="45.45492" lon="8.4153017"><ele>160.5</ele><time>2026-03-22T13:15:36.226Z</time></trkpt><trkpt lat="45.454965" lon="8.4154817"><ele>160.75</ele><time>2026-03-22T13:15:37.226Z</time></trkpt><trkpt lat="45.4550017" lon="8.4156583"><ele>161.0</ele><time>2026-03-22T13:15:38.226Z</time></trkpt><trkpt lat="45.4550317" lon="8.4158167"><ele>161.0</ele><time>2026-03-22T13:15:39.226Z</time></trkpt><trkpt lat="45.45506" lon="8.4159683"><ele>161.0</ele><time>2026-03-22T13:15:40.226Z</time></trkpt><trkpt lat="45.4550783" lon="8.4160917"><ele>161.0</ele><time>2026-03-22T13:15:41.226Z</time></trkpt><trkpt lat="45.4550933" lon="8.416195"><ele>161.0</ele><time>2026-03-22T13:15:42.226Z</time></trkpt><trkpt lat="45.4550667" lon="8.4163417"><ele>161.0</ele><time>2026-03-22T13:15:44.226Z</time></trkpt><trkpt lat="45.4549783" lon="8.4164383"><ele>161.4</ele><time>2026-03-22T13:15:46.226Z</time></trkpt><trkpt lat="45.4549283" lon="8.41659"><ele>161.8</ele><time>2026-03-22T13:15:48.226Z</time></trkpt><trkpt lat="45.4548933" lon="8.4167583"><ele>162.20000000000002</ele><time>2026-03-22T13:15:50.226Z</time></trkpt><trkpt lat="45.4548733" lon="8.4168617"><ele>162.60000000000002</ele><time>2026-03-22T13:15:51.226Z</time></trkpt><trkpt lat="45.4548533" lon="8.416975"><ele>163.0</ele><time>2026-03-22T13:15:52.226Z</time></trkpt><trkpt lat="45.4548267" lon="8.41709"><ele>162.60000000000002</ele><time>2026-03-22T13:15:53.226Z</time></trkpt><trkpt lat="45.4547983" lon="8.4172183"><ele>162.20000000000002</ele><time>2026-03-22T13:15:54.226Z</time></trkpt><trkpt lat="45.4547733" lon="8.4173567"><ele>161.8</ele><time>2026-03-22T13:15:55.226Z</time></trkpt><trkpt lat="45.4547517" lon="8.41749"><ele>161.4</ele><time>2026-03-22T13:15:56.226Z</time></trkpt><trkpt lat="45.454725" lon="8.4176167"><ele>161.0</ele><time>2026-03-22T13:15:57.226Z</time></trkpt><trkpt lat="45.4546983" lon="8.4177617"><ele>161.0</ele><time>2026-03-22T13:15:58.226Z</time></trkpt><trkpt lat="45.454675" lon="8.4179117"><ele>161.0</ele><time>2026-03-22T13:15:59.226Z</time></trkpt><trkpt lat="45.4546533" lon="8.4180683"><ele>161.0</ele><time>2026-03-22T13:16:00.226Z</time></trkpt><trkpt lat="45.4546367" lon="8.4182067"><ele>161.0</ele><time>2026-03-22T13:16:01.226Z</time></trkpt><trkpt lat="45.4546067" lon="8.4183383"><ele>161.0</ele><time>2026-03-22T13:16:02.226Z</time></trkpt><trkpt lat="45.4546" lon="8.4184567"><ele>161.0</ele><time>2026-03-22T13:16:03.226Z</time></trkpt><trkpt lat="45.4546117" lon="8.4185767"><ele>161.0</ele><time>2026-03-22T13:16:04.226Z</time></trkpt><trkpt lat="45.45463" lon="8.418685"><ele>161.0</ele><time>2026-03-22T13:16:05.226Z</time></trkpt><trkpt lat="45.4546367" lon="8.4188517"><ele>161.0</ele><time>2026-03-22T13:16:07.226Z</time></trkpt><trkpt lat="45.4546167" lon="8.4189617"><ele>161.0</ele><time>2026-03-22T13:16:08.226Z</time></trkpt><trkpt lat="45.4545883" lon="8.4190967"><ele>161.0</ele><time>2026-03-22T13:16:09.226Z</time></trkpt><trkpt lat="45.4545567" lon="8.419255"><ele>161.0</ele><time>2026-03-22T13:16:10.226Z</time></trkpt><trkpt lat="45.45451" lon="8.4194367"><ele>161.0</ele><time>2026-03-22T13:16:11.226Z</time></trkpt><trkpt lat="45.4544717" lon="8.4196367"><ele>161.0</ele><time>2026-03-22T13:16:12.226Z</time></trkpt><trkpt lat="45.4544283" lon="8.4198317"><ele>161.0</ele><time>2026-03-22T13:16:13.226Z</time></trkpt><trkpt lat="45.4543817" lon="8.4200267"><ele>161.0</ele><time>2026-03-22T13:16:14.226Z</time></trkpt><trkpt lat="45.454335" lon="8.4202183"><ele>161.0</ele><time>2026-03-22T13:16:15.226Z</time></trkpt><trkpt lat="45.4543017" lon="8.4204167"><ele>161.0</ele><time>2026-03-22T13:16:16.226Z</time></trkpt><trkpt lat="45.4542767" lon="8.4206167"><ele>160.75</ele><time>2026-03-22T13:16:17.226Z</time></trkpt><trkpt lat="45.45426" lon="8.4208083"><ele>160.5</ele><time>2026-03-22T13:16:18.226Z</time></trkpt><trkpt lat="45.454245" lon="8.4209883"><ele>160.25</ele><time>2026-03-22T13:16:19.226Z</time></trkpt><trkpt lat="45.4542283" lon="8.4211717"><ele>160.0</ele><time>2026-03-22T13:16:20.226Z</time></trkpt><trkpt lat="45.4542117" lon="8.4213433"><ele>159.8</ele><time>2026-03-22T13:16:21.226Z</time></trkpt><trkpt lat="45.4541917" lon="8.4215083"><ele>159.6</ele><time>2026-03-22T13:16:22.226Z</time></trkpt><trkpt lat="45.454175" lon="8.42166"><ele>159.4</ele><time>2026-03-22T13:16:23.226Z</time></trkpt><trkpt lat="45.4541567" lon="8.421795"><ele>159.2</ele><time>2026-03-22T13:16:24.226Z</time></trkpt><trkpt lat="45.4541367" lon="8.42192"><ele>159.0</ele><time>2026-03-22T13:16:25.226Z</time></trkpt><trkpt lat="45.45412" lon="8.422035"><ele>159.0</ele><time>2026-03-22T13:16:26.226Z</time></trkpt><trkpt lat="45.4541067" lon="8.42213"><ele>159.0</ele><time>2026-03-22T13:16:27.226Z</time></trkpt><trkpt lat="45.454095" lon="8.4222233"><ele>159.0</ele><time>2026-03-22T13:16:28.226Z</time></trkpt><trkpt lat="45.4540783" lon="8.4223533"><ele>159.0</ele><time>2026-03-22T13:16:30.226Z</time></trkpt><trkpt lat="45.4541667" lon="8.42239"><ele>159.0</ele><time>2026-03-22T13:16:42.226Z</time></trkpt><trkpt lat="45.4542867" lon="8.422355"><ele>159.0</ele><time>2026-03-22T13:16:44.226Z</time></trkpt><trkpt lat="45.4543583" lon="8.4223267"><ele>159.16666666666666</ele><time>2026-03-22T13:16:45.226Z</time></trkpt><trkpt lat="45.454445" lon="8.4223033"><ele>159.33333333333334</ele><time>2026-03-22T13:16:46.226Z</time></trkpt><trkpt lat="45.45453" lon="8.4223017"><ele>159.5</ele><time>2026-03-22T13:16:47.226Z</time></trkpt><trkpt lat="45.454615" lon="8.4223217"><ele>159.66666666666669</ele><time>2026-03-22T13:16:48.226Z</time></trkpt><trkpt lat="45.4547017" lon="8.422375"><ele>159.83333333333334</ele><time>2026-03-22T13:16:49.226Z</time></trkpt><trkpt lat="45.454775" lon="8.4224583"><ele>160.0</ele><time>2026-03-22T13:16:50.226Z</time></trkpt><trkpt lat="45.4548433" lon="8.4225633"><ele>160.0</ele><time>2026-03-22T13:16:51.226Z</time></trkpt><trkpt lat="45.454905" lon="8.4226867"><ele>160.0</ele><time>2026-03-22T13:16:52.226Z</time></trkpt><trkpt lat="45.454935" lon="8.4228117"><ele>160.0</ele><time>2026-03-22T13:16:53.226Z</time></trkpt><trkpt lat="45.4549467" lon="8.4229383"><ele>160.0</ele><time>2026-03-22T13:16:54.226Z</time></trkpt><trkpt lat="45.4549367" lon="8.4230833"><ele>160.0</ele><time>2026-03-22T13:16:55.226Z</time></trkpt><trkpt lat="45.4549067" lon="8.4232367"><ele>160.0</ele><time>2026-03-22T13:16:56.226Z</time></trkpt><trkpt lat="45.4548717" lon="8.4233883"><ele>160.0</ele><time>2026-03-22T13:16:57.226Z</time></trkpt><trkpt lat="45.454835" lon="8.4235283"><ele>160.0</ele><time>2026-03-22T13:16:58.226Z</time></trkpt><trkpt lat="45.454805" lon="8.423665"><ele>160.0</ele><time>2026-03-22T13:16:59.226Z</time></trkpt><trkpt lat="45.4547733" lon="8.4238067"><ele>160.0</ele><time>2026-03-22T13:17:00.226Z</time></trkpt><trkpt lat="45.45475" lon="8.4239517"><ele>160.0</ele><time>2026-03-22T13:17:01.226Z</time></trkpt><trkpt lat="45.45472" lon="8.424105"><ele>160.0</ele><time>2026-03-22T13:17:02.226Z</time></trkpt><trkpt lat="45.4547" lon="8.4242533"><ele>160.0</ele><time>2026-03-22T13:17:03.226Z</time></trkpt><trkpt lat="45.45468" lon="8.4244117"><ele>160.0</ele><time>2026-03-22T13:17:04.225Z</time></trkpt><trkpt lat="45.4546583" lon="8.4245733"><ele>160.0</ele><time>2026-03-22T13:17:05.225Z</time></trkpt><trkpt lat="45.4546367" lon="8.4247433"><ele>160.5</ele><time>2026-03-22T13:17:06.225Z</time></trkpt><trkpt lat="45.4546167" lon="8.424905"><ele>161.0</ele><time>2026-03-22T13:17:07.225Z</time></trkpt><trkpt lat="45.4545917" lon="8.4250733"><ele>161.5</ele><time>2026-03-22T13:17:08.225Z</time></trkpt><trkpt lat="45.4545683" lon="8.42523"><ele>162.0</ele><time>2026-03-22T13:17:09.225Z</time></trkpt><trkpt lat="45.4545467" lon="8.4253817"><ele>161.6</ele><time>2026-03-22T13:17:10.225Z</time></trkpt><trkpt lat="45.45453" lon="8.4255283"><ele>161.2</ele><time>2026-03-22T13:17:11.225Z</time></trkpt><trkpt lat="45.4545033" lon="8.4256867"><ele>160.8</ele><time>2026-03-22T13:17:12.225Z</time></trkpt><trkpt lat="45.4544767" lon="8.4258333"><ele>160.4</ele><time>2026-03-22T13:17:13.225Z</time></trkpt><trkpt lat="45.4544583" lon="8.4259783"><ele>160.0</ele><time>2026-03-22T13:17:14.225Z</time></trkpt><trkpt lat="45.454445" lon="8.4261217"><ele>160.0</ele><time>2026-03-22T13:17:15.225Z</time></trkpt><trkpt lat="45.454425" lon="8.4262633"><ele>160.0</ele><time>2026-03-22T13:17:16.225Z</time></trkpt><trkpt lat="45.45441" lon="8.4264017"><ele>160.0</ele><time>2026-03-22T13:17:17.225Z</time></trkpt><trkpt lat="45.4543933" lon="8.4265483"><ele>160.0</ele><time>2026-03-22T13:17:18.225Z</time></trkpt><trkpt lat="45.4543783" lon="8.4266933"><ele>160.0</ele><time>2026-03-22T13:17:19.225Z</time></trkpt><trkpt lat="45.4543667" lon="8.4268283"><ele>160.0</ele><time>2026-03-22T13:17:20.225Z</time></trkpt><trkpt lat="45.4543567" lon="8.4269683"><ele>160.0</ele><time>2026-03-22T13:17:21.226Z</time></trkpt><trkpt lat="45.454345" lon="8.4271133"><ele>160.0</ele><time>2026-03-22T13:17:22.225Z</time></trkpt><trkpt lat="45.45433" lon="8.4272583"><ele>160.0</ele><time>2026-03-22T13:17:23.225Z</time></trkpt><trkpt lat="45.4543133" lon="8.42741"><ele>160.0</ele><time>2026-03-22T13:17:24.226Z</time></trkpt><trkpt lat="45.4542983" lon="8.4275667"><ele>160.0</ele><time>2026-03-22T13:17:25.225Z</time></trkpt><trkpt lat="45.45428" lon="8.427725"><ele>160.0</ele><time>2026-03-22T13:17:26.225Z</time></trkpt><trkpt lat="45.45427" lon="8.4278783"><ele>160.0</ele><time>2026-03-22T13:17:27.225Z</time></trkpt><trkpt lat="45.4542633" lon="8.4280317"><ele>160.0</ele><time>2026-03-22T13:17:28.225Z</time></trkpt><trkpt lat="45.4542583" lon="8.4281817"><ele>160.0</ele><time>2026-03-22T13:17:29.225Z</time></trkpt><trkpt lat="45.4542517" lon="8.4283367"><ele>160.0</ele><time>2026-03-22T13:17:30.225Z</time></trkpt><trkpt lat="45.4542433" lon="8.4284883"><ele>160.0</ele><time>2026-03-22T13:17:31.225Z</time></trkpt><trkpt lat="45.4542317" lon="8.42865"><ele>160.0</ele><time>2026-03-22T13:17:32.225Z</time></trkpt><trkpt lat="45.4542333" lon="8.42881"><ele>160.0</ele><time>2026-03-22T13:17:33.225Z</time></trkpt><trkpt lat="45.4542283" lon="8.4289633"><ele>160.0</ele><time>2026-03-22T13:17:34.225Z</time></trkpt><trkpt lat="45.4542217" lon="8.42911"><ele>160.0</ele><time>2026-03-22T13:17:35.225Z</time></trkpt><trkpt lat="45.4542217" lon="8.4292633"><ele>160.0</ele><time>2026-03-22T13:17:36.225Z</time></trkpt><trkpt lat="45.454225" lon="8.4294133"><ele>160.0</ele><time>2026-03-22T13:17:37.225Z</time></trkpt><trkpt lat="45.45422" lon="8.4295633"><ele>160.0</ele><time>2026-03-22T13:17:38.225Z</time></trkpt><trkpt lat="45.45421" lon="8.429715"><ele>160.0</ele><time>2026-03-22T13:17:39.225Z</time></trkpt><trkpt lat="45.4541983" lon="8.4298667"><ele>160.0</ele><time>2026-03-22T13:17:40.225Z</time></trkpt><trkpt lat="45.4541967" lon="8.4300183"><ele>160.0</ele><time>2026-03-22T13:17:41.225Z</time></trkpt><trkpt lat="45.4541917" lon="8.4301717"><ele>160.0</ele><time>2026-03-22T13:17:42.225Z</time></trkpt><trkpt lat="45.45419" lon="8.4303217"><ele>160.0</ele><time>2026-03-22T13:17:43.225Z</time></trkpt><trkpt lat="45.4541883" lon="8.430475"><ele>160.0</ele><time>2026-03-22T13:17:44.225Z</time></trkpt><trkpt lat="45.4541817" lon="8.4306333"><ele>160.0</ele><time>2026-03-22T13:17:45.225Z</time></trkpt><trkpt lat="45.454175" lon="8.43077"><ele>160.0</ele><time>2026-03-22T13:17:46.225Z</time></trkpt><trkpt lat="45.45417" lon="8.430905"><ele>160.0</ele><time>2026-03-22T13:17:47.225Z</time></trkpt><trkpt lat="45.4541683" lon="8.4310283"><ele>160.0</ele><time>2026-03-22T13:17:48.225Z</time></trkpt><trkpt lat="45.45417" lon="8.43112"><ele>160.0</ele><time>2026-03-22T13:17:49.225Z</time></trkpt><trkpt lat="45.4542067" lon="8.43126"><ele>160.0</ele><time>2026-03-22T13:17:51.225Z</time></trkpt><trkpt lat="45.4542967" lon="8.4313333"><ele>160.0</ele><time>2026-03-22T13:17:53.226Z</time></trkpt><trkpt lat="45.4543617" lon="8.431345"><ele>160.0</ele><time>2026-03-22T13:17:54.225Z</time></trkpt><trkpt lat="45.454435" lon="8.43135"><ele>160.0</ele><time>2026-03-22T13:17:55.225Z</time></trkpt><trkpt lat="45.4545217" lon="8.4313467"><ele>160.0</ele><time>2026-03-22T13:17:56.225Z</time></trkpt><trkpt lat="45.454615" lon="8.431335"><ele>160.0</ele><time>2026-03-22T13:17:57.225Z</time></trkpt><trkpt lat="45.454715" lon="8.4313283"><ele>160.0</ele><time>2026-03-22T13:17:58.225Z</time></trkpt><trkpt lat="45.454835" lon="8.43133"><ele>160.0</ele><time>2026-03-22T13:17:59.225Z</time></trkpt><trkpt lat="45.4549517" lon="8.43133"><ele>160.0</ele><time>2026-03-22T13:18:00.225Z</time></trkpt><trkpt lat="45.45507" lon="8.4313017"><ele>160.0</ele><time>2026-03-22T13:18:01.225Z</time></trkpt><trkpt lat="45.4551933" lon="8.4312967"><ele>160.0</ele><time>2026-03-22T13:18:02.225Z</time></trkpt><trkpt lat="45.4553167" lon="8.4312917"><ele>160.0</ele><time>2026-03-22T13:18:03.225Z</time></trkpt><trkpt lat="45.4554417" lon="8.4312867"><ele>160.0</ele><time>2026-03-22T13:18:04.225Z</time></trkpt><trkpt lat="45.45557" lon="8.43128"><ele>160.0</ele><time>2026-03-22T13:18:05.225Z</time></trkpt><trkpt lat="45.4556967" lon="8.43127"><ele>160.0</ele><time>2026-03-22T13:18:06.225Z</time></trkpt><trkpt lat="45.455825" lon="8.4312683"><ele>160.0</ele><time>2026-03-22T13:18:07.225Z</time></trkpt><trkpt lat="45.4559383" lon="8.4312467"><ele>160.0</ele><time>2026-03-22T13:18:08.225Z</time></trkpt><trkpt lat="45.4560433" lon="8.43123"><ele>160.0</ele><time>2026-03-22T13:18:09.225Z</time></trkpt><trkpt lat="45.456135" lon="8.431225"><ele>160.0</ele><time>2026-03-22T13:18:10.225Z</time></trkpt><trkpt lat="45.45621" lon="8.4312317"><ele>160.0</ele><time>2026-03-22T13:18:11.225Z</time></trkpt><trkpt lat="45.4563017" lon="8.43133"><ele>159.8</ele><time>2026-03-22T13:18:13.225Z</time></trkpt><trkpt lat="45.4563733" lon="8.4314183"><ele>159.6</ele><time>2026-03-22T13:18:15.225Z</time></trkpt><trkpt lat="45.4564383" lon="8.43135"><ele>159.4</ele><time>2026-03-22T13:18:17.225Z</time></trkpt><trkpt lat="45.4564667" lon="8.4312533"><ele>159.2</ele><time>2026-03-22T13:18:18.225Z</time></trkpt><trkpt lat="45.4564833" lon="8.4311233"><ele>159.0</ele><time>2026-03-22T13:18:19.225Z</time></trkpt><trkpt lat="45.4565067" lon="8.430965"><ele>159.0</ele><time>2026-03-22T13:18:20.225Z</time></trkpt><trkpt lat="45.456535" lon="8.4308033"><ele>159.0</ele><time>2026-03-22T13:18:21.225Z</time></trkpt><trkpt lat="45.4565867" lon="8.43064"><ele>159.0</ele><time>2026-03-22T13:18:22.225Z</time></trkpt><trkpt lat="45.456655" lon="8.4304767"><ele>159.0</ele><time>2026-03-22T13:18:23.225Z</time></trkpt><trkpt lat="45.45674" lon="8.4303433"><ele>159.0</ele><time>2026-03-22T13:18:24.225Z</time></trkpt><trkpt lat="45.45685" lon="8.43023"><ele>159.0</ele><time>2026-03-22T13:18:25.225Z</time></trkpt><trkpt lat="45.4569733" lon="8.4301483"><ele>159.0</ele><time>2026-03-22T13:18:26.225Z</time></trkpt><trkpt lat="45.457105" lon="8.4300983"><ele>159.0</ele><time>2026-03-22T13:18:27.225Z</time></trkpt><trkpt lat="45.45724" lon="8.4300667"><ele>159.0</ele><time>2026-03-22T13:18:28.225Z</time></trkpt><trkpt lat="45.4573733" lon="8.43004"><ele>159.0</ele><time>2026-03-22T13:18:29.225Z</time></trkpt><trkpt lat="45.4574983" lon="8.4300267"><ele>159.0</ele><time>2026-03-22T13:18:30.225Z</time></trkpt><trkpt lat="45.4576333" lon="8.43001"><ele>159.0</ele><time>2026-03-22T13:18:31.225Z</time></trkpt><trkpt lat="45.4577717" lon="8.4299917"><ele>159.0</ele><time>2026-03-22T13:18:32.225Z</time></trkpt><trkpt lat="45.4579117" lon="8.4299633"><ele>159.0</ele><time>2026-03-22T13:18:33.225Z</time></trkpt><trkpt lat="45.45805" lon="8.429945"><ele>159.0</ele><time>2026-03-22T13:18:34.225Z</time></trkpt><trkpt lat="45.4581817" lon="8.4299267"><ele>159.0</ele><time>2026-03-22T13:18:35.225Z</time></trkpt><trkpt lat="45.4583167" lon="8.4299133"><ele>159.0</ele><time>2026-03-22T13:18:36.225Z</time></trkpt><trkpt lat="45.4584417" lon="8.4298983"><ele>159.0</ele><time>2026-03-22T13:18:37.225Z</time></trkpt><trkpt lat="45.458575" lon="8.4298967"><ele>159.0</ele><time>2026-03-22T13:18:38.225Z</time></trkpt><trkpt lat="45.4587" lon="8.4299"><ele>159.0</ele><time>2026-03-22T13:18:39.225Z</time></trkpt><trkpt lat="45.4588217" lon="8.4298983"><ele>159.0</ele><time>2026-03-22T13:18:40.225Z</time></trkpt><trkpt lat="45.4589433" lon="8.4298983"><ele>159.0</ele><time>2026-03-22T13:18:41.225Z</time></trkpt><trkpt lat="45.4590533" lon="8.4299117"><ele>159.0</ele><time>2026-03-22T13:18:42.225Z</time></trkpt><trkpt lat="45.459155" lon="8.4299133"><ele>159.0</ele><time>2026-03-22T13:18:43.225Z</time></trkpt><trkpt lat="45.4592417" lon="8.4299317"><ele>159.0</ele><time>2026-03-22T13:18:44.225Z</time></trkpt><trkpt lat="45.4593117" lon="8.4299633"><ele>159.0</ele><time>2026-03-22T13:18:45.225Z</time></trkpt><trkpt lat="45.4593833" lon="8.4299933"><ele>159.0</ele><time>2026-03-22T13:18:46.225Z</time></trkpt><trkpt lat="45.45945" lon="8.4299917"><ele>159.0</ele><time>2026-03-22T13:18:47.225Z</time></trkpt><trkpt lat="45.4595233" lon="8.4299433"><ele>159.0</ele><time>2026-03-22T13:18:48.225Z</time></trkpt><trkpt lat="45.4596" lon="8.4298717"><ele>159.0</ele><time>2026-03-22T13:18:49.225Z</time></trkpt><trkpt lat="45.459665" lon="8.4297733"><ele>159.0</ele><time>2026-03-22T13:18:50.225Z</time></trkpt><trkpt lat="45.459705" lon="8.4296517"><ele>159.4</ele><time>2026-03-22T13:18:51.225Z</time></trkpt><trkpt lat="45.4597" lon="8.4295067"><ele>159.8</ele><time>2026-03-22T13:18:52.225Z</time></trkpt><trkpt lat="45.45966" lon="8.4293583"><ele>160.20000000000002</ele><time>2026-03-22T13:18:53.225Z</time></trkpt><trkpt lat="45.4596317" lon="8.4292217"><ele>160.60000000000002</ele><time>2026-03-22T13:18:54.225Z</time></trkpt><trkpt lat="45.4596417" lon="8.429095"><ele>161.0</ele><time>2026-03-22T13:18:55.225Z</time></trkpt><trkpt lat="45.4596783" lon="8.4289767"><ele>161.0</ele><time>2026-03-22T13:18:56.225Z</time></trkpt><trkpt lat="45.4597417" lon="8.4288617"><ele>161.0</ele><time>2026-03-22T13:18:57.225Z</time></trkpt><trkpt lat="45.45982" lon="8.4287483"><ele>161.0</ele><time>2026-03-22T13:18:58.225Z</time></trkpt><trkpt lat="45.459915" lon="8.4286533"><ele>161.0</ele><time>2026-03-22T13:18:59.225Z</time></trkpt><trkpt lat="45.46002" lon="8.4285733"><ele>161.0</ele><time>2026-03-22T13:19:00.225Z</time></trkpt><trkpt lat="45.460145" lon="8.4285183"><ele>161.25</ele><time>2026-03-22T13:19:01.225Z</time></trkpt><trkpt lat="45.4602783" lon="8.4285017"><ele>161.5</ele><time>2026-03-22T13:19:02.225Z</time></trkpt><trkpt lat="45.460415" lon="8.4285033"><ele>161.75</ele><time>2026-03-22T13:19:03.225Z</time></trkpt><trkpt lat="45.46056" lon="8.428535"><ele>162.0</ele><time>2026-03-22T13:19:04.225Z</time></trkpt><trkpt lat="45.4607067" lon="8.4285883"><ele>162.0</ele><time>2026-03-22T13:19:05.225Z</time></trkpt><trkpt lat="45.46085" lon="8.4286483"><ele>162.0</ele><time>2026-03-22T13:19:06.225Z</time></trkpt><trkpt lat="45.460995" lon="8.4287167"><ele>162.0</ele><time>2026-03-22T13:19:07.226Z</time></trkpt><trkpt lat="45.461145" lon="8.4287883"><ele>162.33333333333334</ele><time>2026-03-22T13:19:08.225Z</time></trkpt><trkpt lat="45.46129" lon="8.4288633"><ele>162.66666666666669</ele><time>2026-03-22T13:19:09.225Z</time></trkpt><trkpt lat="45.4614333" lon="8.42892"><ele>163.0</ele><time>2026-03-22T13:19:10.225Z</time></trkpt><trkpt lat="45.461575" lon="8.4289817"><ele>163.0</ele><time>2026-03-22T13:19:11.225Z</time></trkpt><trkpt lat="45.4617083" lon="8.429045"><ele>163.0</ele><time>2026-03-22T13:19:12.225Z</time></trkpt><trkpt lat="45.461845" lon="8.429095"><ele>163.0</ele><time>2026-03-22T13:19:13.225Z</time></trkpt><trkpt lat="45.4619733" lon="8.429145"><ele>163.0</ele><time>2026-03-22T13:19:14.225Z</time></trkpt><trkpt lat="45.4620917" lon="8.4291983"><ele>162.4</ele><time>2026-03-22T13:19:15.225Z</time></trkpt><trkpt lat="45.4621983" lon="8.4292167"><ele>161.8</ele><time>2026-03-22T13:19:16.225Z</time></trkpt><trkpt lat="45.46229" lon="8.42924"><ele>161.2</ele><time>2026-03-22T13:19:17.225Z</time></trkpt><trkpt lat="45.46237" lon="8.4292433"><ele>160.6</ele><time>2026-03-22T13:19:18.225Z</time></trkpt><trkpt lat="45.4624733" lon="8.4292067"><ele>160.0</ele><time>2026-03-22T13:19:20.225Z</time></trkpt><trkpt lat="45.46251" lon="8.42908"><ele>160.0</ele><time>2026-03-22T13:19:22.225Z</time></trkpt><trkpt lat="45.46251" lon="8.4289867"><ele>160.0</ele><time>2026-03-22T13:19:23.225Z</time></trkpt><trkpt lat="45.462475" lon="8.4288533"><ele>160.0</ele><time>2026-03-22T13:19:24.225Z</time></trkpt><trkpt lat="45.4624333" lon="8.42871"><ele>160.0</ele><time>2026-03-22T13:19:25.225Z</time></trkpt><trkpt lat="45.462395" lon="8.4285983"><ele>160.0</ele><time>2026-03-22T13:19:26.225Z</time></trkpt><trkpt lat="45.46237" lon="8.4285117"><ele>160.0</ele><time>2026-03-22T13:19:27.225Z</time></trkpt><trkpt lat="45.4623533" lon="8.4284033"><ele>160.4</ele><time>2026-03-22T13:19:29.225Z</time></trkpt><trkpt lat="45.4624067" lon="8.428345"><ele>160.8</ele><time>2026-03-22T13:19:33.225Z</time></trkpt><trkpt lat="45.4625117" lon="8.4283733"><ele>161.2</ele><time>2026-03-22T13:19:35.225Z</time></trkpt><trkpt lat="45.46259" lon="8.4284217"><ele>161.6</ele><time>2026-03-22T13:19:36.225Z</time></trkpt><trkpt lat="45.4626867" lon="8.4284717"><ele>162.0</ele><time>2026-03-22T13:19:37.225Z</time></trkpt><trkpt lat="45.462805" lon="8.4285117"><ele>162.0</ele><time>2026-03-22T13:19:38.226Z</time></trkpt><trkpt lat="45.4629367" lon="8.4285467"><ele>162.0</ele><time>2026-03-22T13:19:39.225Z</time></trkpt><trkpt lat="45.4630483" lon="8.428595"><ele>162.0</ele><time>2026-03-22T13:19:40.225Z</time></trkpt><trkpt lat="45.46314" lon="8.4286367"><ele>162.0</ele><time>2026-03-22T13:19:41.225Z</time></trkpt><trkpt lat="45.46321" lon="8.428665"><ele>162.0</ele><time>2026-03-22T13:19:42.225Z</time></trkpt><trkpt lat="45.4632733" lon="8.428675"><ele>162.2</ele><time>2026-03-22T13:19:43.225Z</time></trkpt><trkpt lat="45.463375" lon="8.4285967"><ele>162.39999999999998</ele><time>2026-03-22T13:19:45.225Z</time></trkpt><trkpt lat="45.463395" lon="8.4285033"><ele>162.60000000000002</ele><time>2026-03-22T13:19:46.225Z</time></trkpt><trkpt lat="45.463395" lon="8.42838"><ele>162.8</ele><time>2026-03-22T13:19:47.225Z</time></trkpt><trkpt lat="45.463385" lon="8.4282133"><ele>163.0</ele><time>2026-03-22T13:19:48.225Z</time></trkpt><trkpt lat="45.46338" lon="8.42805"><ele>163.66666666666669</ele><time>2026-03-22T13:19:49.225Z</time></trkpt><trkpt lat="45.46338" lon="8.427885"><ele>164.33333333333334</ele><time>2026-03-22T13:19:50.225Z</time></trkpt><trkpt lat="45.4633717" lon="8.427715"><ele>165.0</ele><time>2026-03-22T13:19:51.225Z</time></trkpt><trkpt lat="45.4633517" lon="8.42736"><ele>165.0</ele><time>2026-03-22T13:19:53.225Z</time></trkpt><trkpt lat="45.463345" lon="8.4271833"><ele>165.0</ele><time>2026-03-22T13:19:54.225Z</time></trkpt><trkpt lat="45.46334" lon="8.4270217"><ele>165.0</ele><time>2026-03-22T13:19:55.225Z</time></trkpt><trkpt lat="45.46332" lon="8.42689"><ele>165.0</ele><time>2026-03-22T13:19:56.225Z</time></trkpt><trkpt lat="45.46328" lon="8.4267617"><ele>165.0</ele><time>2026-03-22T13:19:57.225Z</time></trkpt><trkpt lat="45.4632217" lon="8.4266183"><ele>165.4</ele><time>2026-03-22T13:19:58.225Z</time></trkpt><trkpt lat="45.46317" lon="8.42648"><ele>165.8</ele><time>2026-03-22T13:19:59.225Z</time></trkpt><trkpt lat="45.4631483" lon="8.4263417"><ele>166.2</ele><time>2026-03-22T13:20:00.225Z</time></trkpt><trkpt lat="45.4631417" lon="8.4262183"><ele>166.6</ele><time>2026-03-22T13:20:01.225Z</time></trkpt><trkpt lat="45.463135" lon="8.4261283"><ele>167.0</ele><time>2026-03-22T13:20:02.225Z</time></trkpt><trkpt lat="45.4631333" lon="8.42598"><ele>167.0</ele><time>2026-03-22T13:20:04.225Z</time></trkpt><trkpt lat="45.463125" lon="8.4258767"><ele>167.0</ele><time>2026-03-22T13:20:05.225Z</time></trkpt><trkpt lat="45.463115" lon="8.4257633"><ele>167.0</ele><time>2026-03-22T13:20:06.225Z</time></trkpt><trkpt lat="45.4631083" lon="8.4256233"><ele>167.0</ele><time>2026-03-22T13:20:07.225Z</time></trkpt><trkpt lat="45.4630967" lon="8.4254833"><ele>167.0</ele><time>2026-03-22T13:20:08.225Z</time></trkpt><trkpt lat="45.4630867" lon="8.4253317"><ele>167.0</ele><time>2026-03-22T13:20:09.225Z</time></trkpt><trkpt lat="45.4630817" lon="8.42516"><ele>167.0</ele><time>2026-03-22T13:20:10.225Z</time></trkpt><trkpt lat="45.4630733" lon="8.4249833"><ele>167.0</ele><time>2026-03-22T13:20:11.225Z</time></trkpt><trkpt lat="45.4630683" lon="8.424805"><ele>167.0</ele><time>2026-03-22T13:20:12.225Z</time></trkpt><trkpt lat="45.463055" lon="8.424625"><ele>167.0</ele><time>2026-03-22T13:20:13.225Z</time></trkpt><trkpt lat="45.4630417" lon="8.4244533"><ele>167.0</ele><time>2026-03-22T13:20:14.225Z</time></trkpt><trkpt lat="45.4630317" lon="8.4243017"><ele>167.0</ele><time>2026-03-22T13:20:15.225Z</time></trkpt><trkpt lat="45.46303" lon="8.424145"><ele>167.0</ele><time>2026-03-22T13:20:16.225Z</time></trkpt><trkpt lat="45.4630233" lon="8.4239817"><ele>167.0</ele><time>2026-03-22T13:20:17.225Z</time></trkpt><trkpt lat="45.463005" lon="8.4238217"><ele>167.0</ele><time>2026-03-22T13:20:18.225Z</time></trkpt><trkpt lat="45.462995" lon="8.4236683"><ele>167.0</ele><time>2026-03-22T13:20:19.225Z</time></trkpt><trkpt lat="45.46299" lon="8.4235283"><ele>167.0</ele><time>2026-03-22T13:20:20.225Z</time></trkpt><trkpt lat="45.4629933" lon="8.4233817"><ele>167.0</ele><time>2026-03-22T13:20:21.225Z</time></trkpt><trkpt lat="45.4629783" lon="8.423225"><ele>167.0</ele><time>2026-03-22T13:20:22.225Z</time></trkpt><trkpt lat="45.4629467" lon="8.4230617"><ele>167.0</ele><time>2026-03-22T13:20:23.226Z</time></trkpt><trkpt lat="45.46291" lon="8.4229033"><ele>167.0</ele><time>2026-03-22T13:20:24.225Z</time></trkpt><trkpt lat="45.462845" lon="8.42275"><ele>167.0</ele><time>2026-03-22T13:20:25.225Z</time></trkpt><trkpt lat="45.4627833" lon="8.4226133"><ele>166.25</ele><time>2026-03-22T13:20:26.225Z</time></trkpt><trkpt lat="45.4627433" lon="8.4224367"><ele>165.5</ele><time>2026-03-22T13:20:27.225Z</time></trkpt><trkpt lat="45.4627283" lon="8.4222583"><ele>164.75</ele><time>2026-03-22T13:20:28.225Z</time></trkpt><trkpt lat="45.462725" lon="8.4220733"><ele>164.0</ele><time>2026-03-22T13:20:29.225Z</time></trkpt><trkpt lat="45.4627183" lon="8.421885"><ele>164.0</ele><time>2026-03-22T13:20:30.225Z</time></trkpt><trkpt lat="45.4627067" lon="8.4216967"><ele>164.0</ele><time>2026-03-22T13:20:31.225Z</time></trkpt><trkpt lat="45.4627" lon="8.421515"><ele>164.0</ele><time>2026-03-22T13:20:32.225Z</time></trkpt><trkpt lat="45.462695" lon="8.4213317"><ele>164.0</ele><time>2026-03-22T13:20:33.225Z</time></trkpt><trkpt lat="45.4626867" lon="8.42115"><ele>164.0</ele><time>2026-03-22T13:20:34.225Z</time></trkpt><trkpt lat="45.4626717" lon="8.42096"><ele>164.0</ele><time>2026-03-22T13:20:35.225Z</time></trkpt><trkpt lat="45.4626383" lon="8.4207867"><ele>164.0</ele><time>2026-03-22T13:20:36.225Z</time></trkpt><trkpt lat="45.4626067" lon="8.4206083"><ele>164.0</ele><time>2026-03-22T13:20:37.225Z</time></trkpt><trkpt lat="45.4625867" lon="8.4204317"><ele>163.75</ele><time>2026-03-22T13:20:38.225Z</time></trkpt><trkpt lat="45.4625867" lon="8.4202433"><ele>163.5</ele><time>2026-03-22T13:20:39.225Z</time></trkpt><trkpt lat="45.4625883" lon="8.4200517"><ele>163.25</ele><time>2026-03-22T13:20:40.225Z</time></trkpt><trkpt lat="45.4625867" lon="8.4198433"><ele>163.0</ele><time>2026-03-22T13:20:41.225Z</time></trkpt><trkpt lat="45.4625867" lon="8.4196383"><ele>163.0</ele><time>2026-03-22T13:20:42.225Z</time></trkpt><trkpt lat="45.4625717" lon="8.419435"><ele>163.0</ele><time>2026-03-22T13:20:43.225Z</time></trkpt><trkpt lat="45.46256" lon="8.4192333"><ele>163.0</ele><time>2026-03-22T13:20:44.225Z</time></trkpt><trkpt lat="45.4625483" lon="8.4190333"><ele>163.0</ele><time>2026-03-22T13:20:45.225Z</time></trkpt><trkpt lat="45.462545" lon="8.41883"><ele>163.5</ele><time>2026-03-22T13:20:46.225Z</time></trkpt><trkpt lat="45.4625367" lon="8.4186333"><ele>164.0</ele><time>2026-03-22T13:20:47.225Z</time></trkpt><trkpt lat="45.462525" lon="8.4184383"><ele>164.5</ele><time>2026-03-22T13:20:48.225Z</time></trkpt><trkpt lat="45.4625067" lon="8.418235"><ele>165.0</ele><time>2026-03-22T13:20:49.225Z</time></trkpt><trkpt lat="45.46248" lon="8.4180367"><ele>164.66666666666666</ele><time>2026-03-22T13:20:50.225Z</time></trkpt><trkpt lat="45.4624567" lon="8.417825"><ele>164.33333333333331</ele><time>2026-03-22T13:20:51.225Z</time></trkpt><trkpt lat="45.4624467" lon="8.41761"><ele>164.0</ele><time>2026-03-22T13:20:52.225Z</time></trkpt><trkpt lat="45.4624417" lon="8.4173917"><ele>164.0</ele><time>2026-03-22T13:20:53.225Z</time></trkpt><trkpt lat="45.4624333" lon="8.417185"><ele>164.0</ele><time>2026-03-22T13:20:54.225Z</time></trkpt><trkpt lat="45.4624183" lon="8.41699"><ele>164.0</ele><time>2026-03-22T13:20:55.225Z</time></trkpt><trkpt lat="45.4624" lon="8.4167933"><ele>164.0</ele><time>2026-03-22T13:20:56.225Z</time></trkpt><trkpt lat="45.4623817" lon="8.41659"><ele>163.75</ele><time>2026-03-22T13:20:57.225Z</time></trkpt><trkpt lat="45.4623733" lon="8.41638"><ele>163.5</ele><time>2026-03-22T13:20:58.225Z</time></trkpt><trkpt lat="45.4623533" lon="8.4161717"><ele>163.25</ele><time>2026-03-22T13:20:59.225Z</time></trkpt><trkpt lat="45.462335" lon="8.415955"><ele>163.0</ele><time>2026-03-22T13:21:00.225Z</time></trkpt><trkpt lat="45.46233" lon="8.4157467"><ele>162.66666666666669</ele><time>2026-03-22T13:21:01.225Z</time></trkpt><trkpt lat="45.4623317" lon="8.41553"><ele>162.33333333333334</ele><time>2026-03-22T13:21:02.225Z</time></trkpt><trkpt lat="45.4623283" lon="8.4153133"><ele>162.0</ele><time>2026-03-22T13:21:03.225Z</time></trkpt><trkpt lat="45.46232" lon="8.4150917"><ele>161.75</ele><time>2026-03-22T13:21:04.225Z</time></trkpt><trkpt lat="45.4623" lon="8.4148683"><ele>161.5</ele><time>2026-03-22T13:21:05.225Z</time></trkpt><trkpt lat="45.4622883" lon="8.4146583"><ele>161.25</ele><time>2026-03-22T13:21:06.225Z</time></trkpt><trkpt lat="45.462275" lon="8.4144583"><ele>161.0</ele><time>2026-03-22T13:21:07.225Z</time></trkpt><trkpt lat="45.4622633" lon="8.41426"><ele>160.8</ele><time>2026-03-22T13:21:08.225Z</time></trkpt><trkpt lat="45.4622533" lon="8.4140817"><ele>160.60000000000002</ele><time>2026-03-22T13:21:09.225Z</time></trkpt><trkpt lat="45.462245" lon="8.4139283"><ele>160.4</ele><time>2026-03-22T13:21:10.225Z</time></trkpt><trkpt lat="45.4622433" lon="8.413775"><ele>160.2</ele><time>2026-03-22T13:21:11.225Z</time></trkpt><trkpt lat="45.462235" lon="8.4136217"><ele>160.0</ele><time>2026-03-22T13:21:12.225Z</time></trkpt><trkpt lat="45.462215" lon="8.4134767"><ele>159.8</ele><time>2026-03-22T13:21:13.225Z</time></trkpt><trkpt lat="45.462185" lon="8.4133533"><ele>159.6</ele><time>2026-03-22T13:21:14.225Z</time></trkpt><trkpt lat="45.46211" lon="8.4132533"><ele>159.4</ele><time>2026-03-22T13:21:15.225Z</time></trkpt><trkpt lat="45.4620067" lon="8.4131733"><ele>159.2</ele><time>2026-03-22T13:21:16.225Z</time></trkpt><trkpt lat="45.4618917" lon="8.41313"><ele>159.0</ele><time>2026-03-22T13:21:17.225Z</time></trkpt><trkpt lat="45.4617617" lon="8.4130767"><ele>159.4</ele><time>2026-03-22T13:21:18.225Z</time></trkpt><trkpt lat="45.46166" lon="8.4130317"><ele>159.8</ele><time>2026-03-22T13:21:19.225Z</time></trkpt><trkpt lat="45.4615883" lon="8.4129867"><ele>160.20000000000002</ele><time>2026-03-22T13:21:20.225Z</time></trkpt><trkpt lat="45.4615267" lon="8.412935"><ele>160.60000000000002</ele><time>2026-03-22T13:21:21.225Z</time></trkpt><trkpt lat="45.46143" lon="8.412805"><ele>161.0</ele><time>2026-03-22T13:21:23.224Z</time></trkpt><trkpt lat="45.4613717" lon="8.4127117"><ele>161.0</ele><time>2026-03-22T13:21:24.224Z</time></trkpt><trkpt lat="45.4613" lon="8.4126033"><ele>161.0</ele><time>2026-03-22T13:21:25.224Z</time></trkpt><trkpt lat="45.4612283" lon="8.412485"><ele>161.0</ele><time>2026-03-22T13:21:26.224Z</time></trkpt><trkpt lat="45.4611717" lon="8.41235"><ele>161.0</ele><time>2026-03-22T13:21:27.224Z</time></trkpt><trkpt lat="45.46113" lon="8.412245"><ele>161.0</ele><time>2026-03-22T13:21:28.224Z</time></trkpt><trkpt lat="45.4611183" lon="8.412135"><ele>161.4</ele><time>2026-03-22T13:21:29.224Z</time></trkpt><trkpt lat="45.461145" lon="8.4120333"><ele>161.8</ele><time>2026-03-22T13:21:30.224Z</time></trkpt><trkpt lat="45.4612617" lon="8.4119383"><ele>162.20000000000002</ele><time>2026-03-22T13:21:32.224Z</time></trkpt><trkpt lat="45.4613567" lon="8.4119267"><ele>162.60000000000002</ele><time>2026-03-22T13:21:33.224Z</time></trkpt><trkpt lat="45.4614617" lon="8.4119317"><ele>163.0</ele><time>2026-03-22T13:21:34.224Z</time></trkpt><trkpt lat="45.461585" lon="8.41194"><ele>163.25</ele><time>2026-03-22T13:21:35.224Z</time></trkpt><trkpt lat="45.46173" lon="8.4119417"><ele>163.5</ele><time>2026-03-22T13:21:36.224Z</time></trkpt><trkpt lat="45.46188" lon="8.4119267"><ele>163.75</ele><time>2026-03-22T13:21:37.224Z</time></trkpt><trkpt lat="45.4620283" lon="8.411915"><ele>164.0</ele><time>2026-03-22T13:21:38.224Z</time></trkpt><trkpt lat="45.4621717" lon="8.4119117"><ele>164.0</ele><time>2026-03-22T13:21:39.224Z</time></trkpt><trkpt lat="45.46229" lon="8.411915"><ele>164.0</ele><time>2026-03-22T13:21:40.224Z</time></trkpt><trkpt lat="45.4624117" lon="8.411915"><ele>164.0</ele><time>2026-03-22T13:21:41.224Z</time></trkpt><trkpt lat="45.4625217" lon="8.4119133"><ele>164.0</ele><time>2026-03-22T13:21:42.224Z</time></trkpt><trkpt lat="45.46262" lon="8.4119"><ele>164.0</ele><time>2026-03-22T13:21:43.225Z</time></trkpt><trkpt lat="45.4627233" lon="8.411885"><ele>164.0</ele><time>2026-03-22T13:21:44.224Z</time></trkpt><trkpt lat="45.4628267" lon="8.4118733"><ele>164.0</ele><time>2026-03-22T13:21:45.224Z</time></trkpt><trkpt lat="45.4629433" lon="8.4118383"><ele>164.0</ele><time>2026-03-22T13:21:46.224Z</time></trkpt><trkpt lat="45.463055" lon="8.411825"><ele>164.0</ele><time>2026-03-22T13:21:47.224Z</time></trkpt><trkpt lat="45.4631733" lon="8.4118067"><ele>164.0</ele><time>2026-03-22T13:21:48.224Z</time></trkpt><trkpt lat="45.4632967" lon="8.411775"><ele>164.0</ele><time>2026-03-22T13:21:49.224Z</time></trkpt><trkpt lat="45.4634433" lon="8.4117767"><ele>164.0</ele><time>2026-03-22T13:21:50.224Z</time></trkpt><trkpt lat="45.4635683" lon="8.411745"><ele>164.0</ele><time>2026-03-22T13:21:51.224Z</time></trkpt><trkpt lat="45.463695" lon="8.4117033"><ele>164.39999999999998</ele><time>2026-03-22T13:21:52.224Z</time></trkpt><trkpt lat="45.4638083" lon="8.4116483"><ele>164.8</ele><time>2026-03-22T13:21:53.224Z</time></trkpt><trkpt lat="45.463905" lon="8.4115817"><ele>165.2</ele><time>2026-03-22T13:21:54.224Z</time></trkpt><trkpt lat="45.463995" lon="8.4115067"><ele>165.60000000000002</ele><time>2026-03-22T13:21:55.224Z</time></trkpt><trkpt lat="45.4640783" lon="8.4114233"><ele>166.0</ele><time>2026-03-22T13:21:56.224Z</time></trkpt><trkpt lat="45.464155" lon="8.4113117"><ele>166.0</ele><time>2026-03-22T13:21:57.224Z</time></trkpt><trkpt lat="45.464235" lon="8.4112133"><ele>166.0</ele><time>2026-03-22T13:21:58.224Z</time></trkpt><trkpt lat="45.4643083" lon="8.4111417"><ele>166.0</ele><time>2026-03-22T13:21:59.224Z</time></trkpt><trkpt lat="45.4643833" lon="8.4111"><ele>166.0</ele><time>2026-03-22T13:22:00.224Z</time></trkpt><trkpt lat="45.46445" lon="8.4111083"><ele>166.0</ele><time>2026-03-22T13:22:01.225Z</time></trkpt><trkpt lat="45.4645133" lon="8.4111517"><ele>166.0</ele><time>2026-03-22T13:22:02.224Z</time></trkpt><trkpt lat="45.4645817" lon="8.4111967"><ele>166.16666666666669</ele><time>2026-03-22T13:22:03.224Z</time></trkpt><trkpt lat="45.464645" lon="8.41123"><ele>166.33333333333334</ele><time>2026-03-22T13:22:04.224Z</time></trkpt><trkpt lat="45.4647433" lon="8.4112617"><ele>166.5</ele><time>2026-03-22T13:22:06.224Z</time></trkpt><trkpt lat="45.4648083" lon="8.4112167"><ele>166.66666666666666</ele><time>2026-03-22T13:22:08.224Z</time></trkpt><trkpt lat="45.464825" lon="8.4110517"><ele>166.83333333333331</ele><time>2026-03-22T13:22:10.224Z</time></trkpt><trkpt lat="45.4648167" lon="8.4109467"><ele>167.0</ele><time>2026-03-22T13:22:11.224Z</time></trkpt><trkpt lat="45.4647883" lon="8.410825"><ele>167.0</ele><time>2026-03-22T13:22:12.224Z</time></trkpt><trkpt lat="45.46473" lon="8.4106783"><ele>167.0</ele><time>2026-03-22T13:22:13.224Z</time></trkpt><trkpt lat="45.4646433" lon="8.4105167"><ele>167.0</ele><time>2026-03-22T13:22:14.224Z</time></trkpt><trkpt lat="45.4645633" lon="8.4103617"><ele>167.0</ele><time>2026-03-22T13:22:15.224Z</time></trkpt><trkpt lat="45.4645033" lon="8.4101833"><ele>167.0</ele><time>2026-03-22T13:22:16.224Z</time></trkpt><trkpt lat="45.4644417" lon="8.410005"><ele>167.0</ele><time>2026-03-22T13:22:17.224Z</time></trkpt><trkpt lat="45.464385" lon="8.40983"><ele>167.0</ele><time>2026-03-22T13:22:18.224Z</time></trkpt><trkpt lat="45.4643517" lon="8.4096567"><ele>167.0</ele><time>2026-03-22T13:22:19.224Z</time></trkpt><trkpt lat="45.464325" lon="8.4094733"><ele>166.66666666666666</ele><time>2026-03-22T13:22:20.225Z</time></trkpt><trkpt lat="45.4643167" lon="8.40927"><ele>166.33333333333334</ele><time>2026-03-22T13:22:21.224Z</time></trkpt><trkpt lat="45.4643233" lon="8.4090567"><ele>166.0</ele><time>2026-03-22T13:22:22.224Z</time></trkpt><trkpt lat="45.4643567" lon="8.4088283"><ele>165.33333333333334</ele><time>2026-03-22T13:22:23.224Z</time></trkpt><trkpt lat="45.4643917" lon="8.4086083"><ele>164.66666666666666</ele><time>2026-03-22T13:22:24.224Z</time></trkpt><trkpt lat="45.4644283" lon="8.40838"><ele>164.0</ele><time>2026-03-22T13:22:25.224Z</time></trkpt><trkpt lat="45.4644583" lon="8.408155"><ele>164.33333333333331</ele><time>2026-03-22T13:22:26.224Z</time></trkpt><trkpt lat="45.464495" lon="8.4079367"><ele>164.66666666666666</ele><time>2026-03-22T13:22:27.224Z</time></trkpt><trkpt lat="45.4645367" lon="8.40773"><ele>165.0</ele><time>2026-03-22T13:22:28.224Z</time></trkpt><trkpt lat="45.4645733" lon="8.4075233"><ele>165.0</ele><time>2026-03-22T13:22:29.224Z</time></trkpt><trkpt lat="45.46461" lon="8.4073283"><ele>165.0</ele><time>2026-03-22T13:22:30.224Z</time></trkpt><trkpt lat="45.4646533" lon="8.4071333"><ele>165.0</ele><time>2026-03-22T13:22:31.224Z</time></trkpt><trkpt lat="45.4647083" lon="8.406945"><ele>165.0</ele><time>2026-03-22T13:22:32.224Z</time></trkpt><trkpt lat="45.464785" lon="8.4067717"><ele>165.5</ele><time>2026-03-22T13:22:33.224Z</time></trkpt><trkpt lat="45.4648683" lon="8.406615"><ele>166.0</ele><time>2026-03-22T13:22:34.224Z</time></trkpt><trkpt lat="45.4649783" lon="8.406475"><ele>166.5</ele><time>2026-03-22T13:22:35.224Z</time></trkpt><trkpt lat="45.4650883" lon="8.4063617"><ele>167.0</ele><time>2026-03-22T13:22:36.224Z</time></trkpt><trkpt lat="45.46522" lon="8.4062817"><ele>167.25</ele><time>2026-03-22T13:22:37.224Z</time></trkpt><trkpt lat="45.4653567" lon="8.4062367"><ele>167.5</ele><time>2026-03-22T13:22:38.224Z</time></trkpt><trkpt lat="45.4655067" lon="8.4062167"><ele>167.75</ele><time>2026-03-22T13:22:39.224Z</time></trkpt><trkpt lat="45.4656483" lon="8.406225"><ele>168.0</ele><time>2026-03-22T13:22:40.224Z</time></trkpt><trkpt lat="45.46579" lon="8.4062533"><ele>168.5</ele><time>2026-03-22T13:22:41.224Z</time></trkpt><trkpt lat="45.465925" lon="8.4063117"><ele>169.0</ele><time>2026-03-22T13:22:42.224Z</time></trkpt><trkpt lat="45.4660467" lon="8.4063583"><ele>169.5</ele><time>2026-03-22T13:22:43.224Z</time></trkpt><trkpt lat="45.466165" lon="8.4063967"><ele>170.0</ele><time>2026-03-22T13:22:44.224Z</time></trkpt><trkpt lat="45.466275" lon="8.4064367"><ele>169.6</ele><time>2026-03-22T13:22:45.224Z</time></trkpt><trkpt lat="45.4663833" lon="8.40648"><ele>169.2</ele><time>2026-03-22T13:22:46.224Z</time></trkpt><trkpt lat="45.4664767" lon="8.406515"><ele>168.8</ele><time>2026-03-22T13:22:47.224Z</time></trkpt><trkpt lat="45.4665633" lon="8.40655"><ele>168.4</ele><time>2026-03-22T13:22:48.224Z</time></trkpt><trkpt lat="45.4666533" lon="8.4065717"><ele>168.0</ele><time>2026-03-22T13:22:49.224Z</time></trkpt><trkpt lat="45.466735" lon="8.4065767"><ele>168.0</ele><time>2026-03-22T13:22:50.224Z</time></trkpt><trkpt lat="45.466815" lon="8.4065367"><ele>168.0</ele><time>2026-03-22T13:22:51.224Z</time></trkpt><trkpt lat="45.4668783" lon="8.406445"><ele>168.0</ele><time>2026-03-22T13:22:52.224Z</time></trkpt><trkpt lat="45.4669283" lon="8.4063233"><ele>168.0</ele><time>2026-03-22T13:22:53.224Z</time></trkpt><trkpt lat="45.4669583" lon="8.4061833"><ele>168.0</ele><time>2026-03-22T13:22:54.224Z</time></trkpt><trkpt lat="45.466975" lon="8.406035"><ele>168.0</ele><time>2026-03-22T13:22:55.224Z</time></trkpt><trkpt lat="45.4669867" lon="8.4058983"><ele>168.0</ele><time>2026-03-22T13:22:56.224Z</time></trkpt><trkpt lat="45.46701" lon="8.4057733"><ele>168.0</ele><time>2026-03-22T13:22:57.224Z</time></trkpt><trkpt lat="45.4670283" lon="8.405645"><ele>168.0</ele><time>2026-03-22T13:22:58.224Z</time></trkpt><trkpt lat="45.467075" lon="8.4054117"><ele>168.0</ele><time>2026-03-22T13:23:00.224Z</time></trkpt><trkpt lat="45.46709" lon="8.4053067"><ele>168.0</ele><time>2026-03-22T13:23:01.224Z</time></trkpt><trkpt lat="45.4670917" lon="8.4052167"><ele>168.0</ele><time>2026-03-22T13:23:02.224Z</time></trkpt><trkpt lat="45.467105" lon="8.4050533"><ele>168.0</ele><time>2026-03-22T13:23:04.224Z</time></trkpt><trkpt lat="45.4671033" lon="8.4049067"><ele>168.0</ele><time>2026-03-22T13:23:06.224Z</time></trkpt><trkpt lat="45.4671267" lon="8.4047733"><ele>168.0</ele><time>2026-03-22T13:23:08.224Z</time></trkpt><trkpt lat="45.467205" lon="8.4046933"><ele>168.16666666666666</ele><time>2026-03-22T13:23:10.224Z</time></trkpt><trkpt lat="45.46731" lon="8.4047233"><ele>168.33333333333334</ele><time>2026-03-22T13:23:12.224Z</time></trkpt><trkpt lat="45.46737" lon="8.40476"><ele>168.5</ele><time>2026-03-22T13:23:13.224Z</time></trkpt><trkpt lat="45.4674317" lon="8.4047933"><ele>168.66666666666669</ele><time>2026-03-22T13:23:14.224Z</time></trkpt><trkpt lat="45.4675017" lon="8.404825"><ele>168.83333333333334</ele><time>2026-03-22T13:23:15.224Z</time></trkpt><trkpt lat="45.46757" lon="8.4048417"><ele>169.0</ele><time>2026-03-22T13:23:16.224Z</time></trkpt><trkpt lat="45.4676467" lon="8.4048633"><ele>169.0</ele><time>2026-03-22T13:23:17.224Z</time></trkpt><trkpt lat="45.4677233" lon="8.404875"><ele>169.0</ele><time>2026-03-22T13:23:18.224Z</time></trkpt><trkpt lat="45.4678133" lon="8.4048983"><ele>169.0</ele><time>2026-03-22T13:23:19.224Z</time></trkpt><trkpt lat="45.467905" lon="8.404925"><ele>169.0</ele><time>2026-03-22T13:23:20.224Z</time></trkpt><trkpt lat="45.4679983" lon="8.4049533"><ele>169.0</ele><time>2026-03-22T13:23:21.224Z</time></trkpt><trkpt lat="45.4680933" lon="8.404985"><ele>168.5</ele><time>2026-03-22T13:23:22.224Z</time></trkpt><trkpt lat="45.4681983" lon="8.4050167"><ele>168.0</ele><time>2026-03-22T13:23:23.224Z</time></trkpt><trkpt lat="45.4683117" lon="8.405045"><ele>167.5</ele><time>2026-03-22T13:23:24.224Z</time></trkpt><trkpt lat="45.4684217" lon="8.4050683"><ele>167.0</ele><time>2026-03-22T13:23:25.224Z</time></trkpt><trkpt lat="45.4685367" lon="8.405105"><ele>167.0</ele><time>2026-03-22T13:23:26.224Z</time></trkpt><trkpt lat="45.46865" lon="8.4051483"><ele>167.0</ele><time>2026-03-22T13:23:27.224Z</time></trkpt><trkpt lat="45.46877" lon="8.4051867"><ele>167.0</ele><time>2026-03-22T13:23:28.224Z</time></trkpt><trkpt lat="45.4688867" lon="8.4052283"><ele>167.0</ele><time>2026-03-22T13:23:29.224Z</time></trkpt><trkpt lat="45.4690083" lon="8.4052683"><ele>166.25</ele><time>2026-03-22T13:23:30.224Z</time></trkpt><trkpt lat="45.46913" lon="8.4053133"><ele>165.5</ele><time>2026-03-22T13:23:31.224Z</time></trkpt><trkpt lat="45.4692533" lon="8.4053517"><ele>164.75</ele><time>2026-03-22T13:23:32.224Z</time></trkpt><trkpt lat="45.469375" lon="8.4053883"><ele>164.0</ele><time>2026-03-22T13:23:33.224Z</time></trkpt><trkpt lat="45.4695033" lon="8.4054283"><ele>164.75</ele><time>2026-03-22T13:23:34.224Z</time></trkpt><trkpt lat="45.4696267" lon="8.405465"><ele>165.5</ele><time>2026-03-22T13:23:35.224Z</time></trkpt><trkpt lat="45.4697467" lon="8.405505"><ele>166.25</ele><time>2026-03-22T13:23:36.224Z</time></trkpt><trkpt lat="45.4698683" lon="8.40554"><ele>167.0</ele><time>2026-03-22T13:23:37.224Z</time></trkpt><trkpt lat="45.4699817" lon="8.4055717"><ele>167.75</ele><time>2026-03-22T13:23:38.224Z</time></trkpt><trkpt lat="45.4700983" lon="8.4056167"><ele>168.5</ele><time>2026-03-22T13:23:39.224Z</time></trkpt><trkpt lat="45.4702183" lon="8.40565"><ele>169.25</ele><time>2026-03-22T13:23:40.224Z</time></trkpt><trkpt lat="45.4703367" lon="8.4056883"><ele>170.0</ele><time>2026-03-22T13:23:41.224Z</time></trkpt><trkpt lat="45.47045" lon="8.4057167"><ele>170.0</ele><time>2026-03-22T13:23:42.224Z</time></trkpt><trkpt lat="45.4705667" lon="8.405755"><ele>170.0</ele><time>2026-03-22T13:23:43.224Z</time></trkpt><trkpt lat="45.470685" lon="8.4057883"><ele>170.0</ele><time>2026-03-22T13:23:44.224Z</time></trkpt><trkpt lat="45.4709183" lon="8.4058533"><ele>170.0</ele><time>2026-03-22T13:23:46.224Z</time></trkpt><trkpt lat="45.4710467" lon="8.4058933"><ele>170.0</ele><time>2026-03-22T13:23:47.224Z</time></trkpt><trkpt lat="45.4711683" lon="8.40594"><ele>170.0</ele><time>2026-03-22T13:23:48.224Z</time></trkpt><trkpt lat="45.4712867" lon="8.4059883"><ele>170.0</ele><time>2026-03-22T13:23:49.224Z</time></trkpt><trkpt lat="45.4714033" lon="8.406025"><ele>169.5</ele><time>2026-03-22T13:23:50.224Z</time></trkpt><trkpt lat="45.4715217" lon="8.406075"><ele>169.0</ele><time>2026-03-22T13:23:51.224Z</time></trkpt><trkpt lat="45.4716467" lon="8.40611"><ele>168.5</ele><time>2026-03-22T13:23:52.224Z</time></trkpt><trkpt lat="45.47177" lon="8.4061467"><ele>168.0</ele><time>2026-03-22T13:23:53.224Z</time></trkpt><trkpt lat="45.4718883" lon="8.40618"><ele>168.0</ele><time>2026-03-22T13:23:54.224Z</time></trkpt><trkpt lat="45.4720117" lon="8.4062167"><ele>168.0</ele><time>2026-03-22T13:23:55.224Z</time></trkpt><trkpt lat="45.4721183" lon="8.40625"><ele>168.0</ele><time>2026-03-22T13:23:56.224Z</time></trkpt><trkpt lat="45.4722217" lon="8.40628"><ele>168.0</ele><time>2026-03-22T13:23:57.224Z</time></trkpt><trkpt lat="45.4723133" lon="8.4063167"><ele>168.0</ele><time>2026-03-22T13:23:58.224Z</time></trkpt><trkpt lat="45.47239" lon="8.40633"><ele>168.66666666666666</ele><time>2026-03-22T13:23:59.224Z</time></trkpt><trkpt lat="45.4724567" lon="8.4063417"><ele>169.33333333333334</ele><time>2026-03-22T13:24:00.224Z</time></trkpt><trkpt lat="45.4725167" lon="8.4063783"><ele>170.0</ele><time>2026-03-22T13:24:01.224Z</time></trkpt><trkpt lat="45.4725667" lon="8.4064383"><ele>170.66666666666669</ele><time>2026-03-22T13:24:02.224Z</time></trkpt><trkpt lat="45.4726033" lon="8.4065783"><ele>171.33333333333334</ele><time>2026-03-22T13:24:04.224Z</time></trkpt><trkpt lat="45.4726983" lon="8.406685"><ele>172.0</ele><time>2026-03-22T13:24:06.224Z</time></trkpt><trkpt lat="45.4727783" lon="8.4067017"><ele>172.0</ele><time>2026-03-22T13:24:07.224Z</time></trkpt><trkpt lat="45.4728833" lon="8.4067133"><ele>172.0</ele><time>2026-03-22T13:24:08.224Z</time></trkpt><trkpt lat="45.473" lon="8.4067183"><ele>172.0</ele><time>2026-03-22T13:24:09.224Z</time></trkpt><trkpt lat="45.4731067" lon="8.4067367"><ele>172.0</ele><time>2026-03-22T13:24:10.224Z</time></trkpt><trkpt lat="45.473215" lon="8.40676"><ele>172.0</ele><time>2026-03-22T13:24:11.224Z</time></trkpt><trkpt lat="45.4733233" lon="8.4067717"><ele>172.25</ele><time>2026-03-22T13:24:12.224Z</time></trkpt><trkpt lat="45.4734333" lon="8.406745"><ele>172.5</ele><time>2026-03-22T13:24:13.224Z</time></trkpt><trkpt lat="45.4735567" lon="8.4067017"><ele>172.75</ele><time>2026-03-22T13:24:14.224Z</time></trkpt><trkpt lat="45.473675" lon="8.4066533"><ele>173.0</ele><time>2026-03-22T13:24:15.224Z</time></trkpt><trkpt lat="45.4737883" lon="8.4066067"><ele>172.5</ele><time>2026-03-22T13:24:16.224Z</time></trkpt><trkpt lat="45.4739067" lon="8.4065783"><ele>172.0</ele><time>2026-03-22T13:24:17.224Z</time></trkpt><trkpt lat="45.4740217" lon="8.4065433"><ele>171.5</ele><time>2026-03-22T13:24:18.224Z</time></trkpt><trkpt lat="45.4741383" lon="8.4065067"><ele>171.0</ele><time>2026-03-22T13:24:19.224Z</time></trkpt><trkpt lat="45.474265" lon="8.4064733"><ele>171.0</ele><time>2026-03-22T13:24:20.224Z</time></trkpt><trkpt lat="45.4743917" lon="8.4064367"><ele>171.0</ele><time>2026-03-22T13:24:21.224Z</time></trkpt><trkpt lat="45.4745067" lon="8.4063983"><ele>171.0</ele><time>2026-03-22T13:24:22.224Z</time></trkpt><trkpt lat="45.474625" lon="8.4063667"><ele>171.0</ele><time>2026-03-22T13:24:23.224Z</time></trkpt><trkpt lat="45.474745" lon="8.4063217"><ele>170.75</ele><time>2026-03-22T13:24:24.224Z</time></trkpt><trkpt lat="45.4748667" lon="8.40629"><ele>170.5</ele><time>2026-03-22T13:24:25.224Z</time></trkpt><trkpt lat="45.47499" lon="8.40625"><ele>170.25</ele><time>2026-03-22T13:24:26.224Z</time></trkpt><trkpt lat="45.4751183" lon="8.4062017"><ele>170.0</ele><time>2026-03-22T13:24:27.224Z</time></trkpt><trkpt lat="45.47525" lon="8.4061733"><ele>170.0</ele><time>2026-03-22T13:24:28.224Z</time></trkpt><trkpt lat="45.4753783" lon="8.4061267"><ele>170.0</ele><time>2026-03-22T13:24:29.224Z</time></trkpt><trkpt lat="45.4755067" lon="8.4060717"><ele>170.0</ele><time>2026-03-22T13:24:30.224Z</time></trkpt><trkpt lat="45.4756283" lon="8.4060267"><ele>170.0</ele><time>2026-03-22T13:24:31.224Z</time></trkpt><trkpt lat="45.4757517" lon="8.4059867"><ele>170.0</ele><time>2026-03-22T13:24:32.224Z</time></trkpt><trkpt lat="45.475875" lon="8.4059333"><ele>170.0</ele><time>2026-03-22T13:24:33.224Z</time></trkpt><trkpt lat="45.4759967" lon="8.40588"><ele>170.0</ele><time>2026-03-22T13:24:34.224Z</time></trkpt><trkpt lat="45.4761167" lon="8.4058333"><ele>170.0</ele><time>2026-03-22T13:24:35.224Z</time></trkpt><trkpt lat="45.476225" lon="8.4057783"><ele>170.75</ele><time>2026-03-22T13:24:36.224Z</time></trkpt><trkpt lat="45.4763433" lon="8.40572"><ele>171.5</ele><time>2026-03-22T13:24:37.224Z</time></trkpt><trkpt lat="45.4764683" lon="8.4056683"><ele>172.25</ele><time>2026-03-22T13:24:38.224Z</time></trkpt><trkpt lat="45.4765967" lon="8.405615"><ele>173.0</ele><time>2026-03-22T13:24:39.224Z</time></trkpt><trkpt lat="45.4767117" lon="8.4055633"><ele>173.0</ele><time>2026-03-22T13:24:40.224Z</time></trkpt><trkpt lat="45.47682" lon="8.4055083"><ele>173.0</ele><time>2026-03-22T13:24:41.224Z</time></trkpt><trkpt lat="45.4769217" lon="8.4054617"><ele>173.0</ele><time>2026-03-22T13:24:42.224Z</time></trkpt><trkpt lat="45.4770267" lon="8.4054233"><ele>173.0</ele><time>2026-03-22T13:24:43.224Z</time></trkpt><trkpt lat="45.477135" lon="8.4054017"><ele>173.0</ele><time>2026-03-22T13:24:44.224Z</time></trkpt><trkpt lat="45.4772483" lon="8.4053767"><ele>172.0</ele><time>2026-03-22T13:24:45.224Z</time></trkpt><trkpt lat="45.4775833" lon="8.4053283"><ele>171.0</ele><time>2026-03-22T13:24:48.224Z</time></trkpt><trkpt lat="45.4776917" lon="8.405315"><ele>170.0</ele><time>2026-03-22T13:24:49.224Z</time></trkpt><trkpt lat="45.4778067" lon="8.4053067"><ele>170.0</ele><time>2026-03-22T13:24:50.224Z</time></trkpt><trkpt lat="45.477935" lon="8.4053"><ele>170.0</ele><time>2026-03-22T13:24:51.224Z</time></trkpt><trkpt lat="45.478065" lon="8.4052917"><ele>170.0</ele><time>2026-03-22T13:24:52.224Z</time></trkpt><trkpt lat="45.4781983" lon="8.4052783"><ele>170.0</ele><time>2026-03-22T13:24:53.224Z</time></trkpt><trkpt lat="45.4783317" lon="8.4052717"><ele>170.25</ele><time>2026-03-22T13:24:54.224Z</time></trkpt><trkpt lat="45.4784667" lon="8.4052517"><ele>170.5</ele><time>2026-03-22T13:24:55.224Z</time></trkpt><trkpt lat="45.478595" lon="8.4052217"><ele>170.75</ele><time>2026-03-22T13:24:56.224Z</time></trkpt><trkpt lat="45.4787217" lon="8.4051933"><ele>171.0</ele><time>2026-03-22T13:24:57.224Z</time></trkpt><trkpt lat="45.4788517" lon="8.40518"><ele>171.0</ele><time>2026-03-22T13:24:58.224Z</time></trkpt><trkpt lat="45.4789817" lon="8.4051767"><ele>171.0</ele><time>2026-03-22T13:24:59.224Z</time></trkpt><trkpt lat="45.4791033" lon="8.4051633"><ele>171.0</ele><time>2026-03-22T13:25:00.225Z</time></trkpt><trkpt lat="45.4792367" lon="8.40514"><ele>171.0</ele><time>2026-03-22T13:25:01.224Z</time></trkpt><trkpt lat="45.479365" lon="8.405125"><ele>171.0</ele><time>2026-03-22T13:25:02.224Z</time></trkpt><trkpt lat="45.4794967" lon="8.4051033"><ele>171.0</ele><time>2026-03-22T13:25:03.224Z</time></trkpt><trkpt lat="45.4796283" lon="8.405085"><ele>171.0</ele><time>2026-03-22T13:25:04.224Z</time></trkpt><trkpt lat="45.4797567" lon="8.4050617"><ele>171.0</ele><time>2026-03-22T13:25:05.224Z</time></trkpt><trkpt lat="45.4798867" lon="8.405045"><ele>171.5</ele><time>2026-03-22T13:25:06.224Z</time></trkpt><trkpt lat="45.4800133" lon="8.405035"><ele>172.0</ele><time>2026-03-22T13:25:07.224Z</time></trkpt><trkpt lat="45.4801417" lon="8.4050117"><ele>172.5</ele><time>2026-03-22T13:25:08.224Z</time></trkpt><trkpt lat="45.48028" lon="8.4050033"><ele>173.0</ele><time>2026-03-22T13:25:09.224Z</time></trkpt><trkpt lat="45.48042" lon="8.4049767"><ele>173.75</ele><time>2026-03-22T13:25:10.224Z</time></trkpt><trkpt lat="45.4805633" lon="8.4049633"><ele>174.5</ele><time>2026-03-22T13:25:11.224Z</time></trkpt><trkpt lat="45.4807083" lon="8.4049517"><ele>175.25</ele><time>2026-03-22T13:25:12.224Z</time></trkpt><trkpt lat="45.480845" lon="8.404935"><ele>176.0</ele><time>2026-03-22T13:25:13.224Z</time></trkpt><trkpt lat="45.4809817" lon="8.40493"><ele>176.0</ele><time>2026-03-22T13:25:14.224Z</time></trkpt><trkpt lat="45.48112" lon="8.4049133"><ele>176.0</ele><time>2026-03-22T13:25:15.224Z</time></trkpt><trkpt lat="45.48126" lon="8.40491"><ele>176.0</ele><time>2026-03-22T13:25:16.224Z</time></trkpt><trkpt lat="45.481395" lon="8.4049067"><ele>176.0</ele><time>2026-03-22T13:25:17.224Z</time></trkpt><trkpt lat="45.4815333" lon="8.404895"><ele>175.66666666666666</ele><time>2026-03-22T13:25:18.224Z</time></trkpt><trkpt lat="45.4816767" lon="8.4048917"><ele>175.33333333333334</ele><time>2026-03-22T13:25:19.224Z</time></trkpt><trkpt lat="45.4819517" lon="8.4048867"><ele>175.0</ele><time>2026-03-22T13:25:21.224Z</time></trkpt><trkpt lat="45.4820867" lon="8.4048817"><ele>175.5</ele><time>2026-03-22T13:25:22.224Z</time></trkpt><trkpt lat="45.4822317" lon="8.40488"><ele>176.0</ele><time>2026-03-22T13:25:23.224Z</time></trkpt><trkpt lat="45.4823667" lon="8.4048817"><ele>176.5</ele><time>2026-03-22T13:25:24.224Z</time></trkpt><trkpt lat="45.482505" lon="8.404885"><ele>177.0</ele><time>2026-03-22T13:25:25.224Z</time></trkpt><trkpt lat="45.4827817" lon="8.4048783"><ele>176.5</ele><time>2026-03-22T13:25:27.224Z</time></trkpt><trkpt lat="45.4830583" lon="8.4048783"><ele>176.0</ele><time>2026-03-22T13:25:29.224Z</time></trkpt><trkpt lat="45.4833317" lon="8.4048783"><ele>176.0</ele><time>2026-03-22T13:25:31.224Z</time></trkpt><trkpt lat="45.483465" lon="8.40487"><ele>176.0</ele><time>2026-03-22T13:25:32.224Z</time></trkpt><trkpt lat="45.4836083" lon="8.40488"><ele>176.0</ele><time>2026-03-22T13:25:33.224Z</time></trkpt><trkpt lat="45.4837517" lon="8.4049033"><ele>176.0</ele><time>2026-03-22T13:25:34.224Z</time></trkpt><trkpt lat="45.4838933" lon="8.4049383"><ele>175.75</ele><time>2026-03-22T13:25:35.224Z</time></trkpt><trkpt lat="45.4840367" lon="8.4049883"><ele>175.5</ele><time>2026-03-22T13:25:36.224Z</time></trkpt><trkpt lat="45.4841733" lon="8.40505"><ele>175.25</ele><time>2026-03-22T13:25:37.224Z</time></trkpt><trkpt lat="45.4843" lon="8.40513"><ele>175.0</ele><time>2026-03-22T13:25:38.225Z</time></trkpt><trkpt lat="45.4844317" lon="8.4052167"><ele>175.0</ele><time>2026-03-22T13:25:39.224Z</time></trkpt><trkpt lat="45.4845617" lon="8.40529"><ele>175.0</ele><time>2026-03-22T13:25:40.224Z</time></trkpt><trkpt lat="45.4846967" lon="8.4053583"><ele>175.0</ele><time>2026-03-22T13:25:41.224Z</time></trkpt><trkpt lat="45.4848267" lon="8.405415"><ele>175.0</ele><time>2026-03-22T13:25:42.223Z</time></trkpt><trkpt lat="45.48496" lon="8.4054917"><ele>175.0</ele><time>2026-03-22T13:25:43.223Z</time></trkpt><trkpt lat="45.485095" lon="8.4055567"><ele>175.0</ele><time>2026-03-22T13:25:44.223Z</time></trkpt><trkpt lat="45.4852283" lon="8.4056267"><ele>175.0</ele><time>2026-03-22T13:25:45.223Z</time></trkpt><trkpt lat="45.48536" lon="8.405695"><ele>175.0</ele><time>2026-03-22T13:25:46.223Z</time></trkpt><trkpt lat="45.4854967" lon="8.40577"><ele>175.0</ele><time>2026-03-22T13:25:47.223Z</time></trkpt><trkpt lat="45.4856233" lon="8.4058333"><ele>175.0</ele><time>2026-03-22T13:25:48.223Z</time></trkpt><trkpt lat="45.485745" lon="8.4058983"><ele>175.0</ele><time>2026-03-22T13:25:49.223Z</time></trkpt><trkpt lat="45.48587" lon="8.4059633"><ele>175.0</ele><time>2026-03-22T13:25:50.223Z</time></trkpt><trkpt lat="45.4860017" lon="8.406045"><ele>175.0</ele><time>2026-03-22T13:25:51.223Z</time></trkpt><trkpt lat="45.486125" lon="8.406105"><ele>175.0</ele><time>2026-03-22T13:25:52.223Z</time></trkpt><trkpt lat="45.4862433" lon="8.4061767"><ele>175.0</ele><time>2026-03-22T13:25:53.223Z</time></trkpt><trkpt lat="45.4863583" lon="8.40624"><ele>175.0</ele><time>2026-03-22T13:25:54.223Z</time></trkpt><trkpt lat="45.4864767" lon="8.4062967"><ele>175.0</ele><time>2026-03-22T13:25:55.223Z</time></trkpt><trkpt lat="45.486605" lon="8.4063233"><ele>175.0</ele><time>2026-03-22T13:25:56.223Z</time></trkpt><trkpt lat="45.486735" lon="8.4063467"><ele>175.0</ele><time>2026-03-22T13:25:57.223Z</time></trkpt><trkpt lat="45.4868667" lon="8.406365"><ele>175.0</ele><time>2026-03-22T13:25:58.223Z</time></trkpt><trkpt lat="45.4870067" lon="8.40639"><ele>175.75</ele><time>2026-03-22T13:25:59.223Z</time></trkpt><trkpt lat="45.487145" lon="8.406425"><ele>176.5</ele><time>2026-03-22T13:26:00.223Z</time></trkpt><trkpt lat="45.4872767" lon="8.4064583"><ele>177.25</ele><time>2026-03-22T13:26:01.223Z</time></trkpt><trkpt lat="45.4874033" lon="8.4064833"><ele>178.0</ele><time>2026-03-22T13:26:02.223Z</time></trkpt><trkpt lat="45.4875083" lon="8.4065017"><ele>178.0</ele><time>2026-03-22T13:26:03.223Z</time></trkpt><trkpt lat="45.4876033" lon="8.406515"><ele>178.0</ele><time>2026-03-22T13:26:04.223Z</time></trkpt><trkpt lat="45.4876917" lon="8.4065267"><ele>178.0</ele><time>2026-03-22T13:26:05.223Z</time></trkpt><trkpt lat="45.4877733" lon="8.406545"><ele>178.0</ele><time>2026-03-22T13:26:06.223Z</time></trkpt><trkpt lat="45.487845" lon="8.4065667"><ele>178.0</ele><time>2026-03-22T13:26:07.223Z</time></trkpt><trkpt lat="45.48791" lon="8.4065867"><ele>178.0</ele><time>2026-03-22T13:26:08.223Z</time></trkpt><trkpt lat="45.48801" lon="8.4066617"><ele>178.4</ele><time>2026-03-22T13:26:10.223Z</time></trkpt><trkpt lat="45.4880733" lon="8.40678"><ele>178.8</ele><time>2026-03-22T13:26:12.223Z</time></trkpt><trkpt lat="45.4881" lon="8.4068817"><ele>179.2</ele><time>2026-03-22T13:26:13.223Z</time></trkpt><trkpt lat="45.4881233" lon="8.406985"><ele>179.6</ele><time>2026-03-22T13:26:14.223Z</time></trkpt><trkpt lat="45.4881883" lon="8.407115"><ele>180.0</ele><time>2026-03-22T13:26:16.223Z</time></trkpt><trkpt lat="45.4882883" lon="8.40714"><ele>180.0</ele><time>2026-03-22T13:26:18.223Z</time></trkpt><trkpt lat="45.4883717" lon="8.4071117"><ele>180.0</ele><time>2026-03-22T13:26:19.223Z</time></trkpt><trkpt lat="45.4884733" lon="8.4070683"><ele>180.0</ele><time>2026-03-22T13:26:20.223Z</time></trkpt><trkpt lat="45.4885833" lon="8.4070283"><ele>180.0</ele><time>2026-03-22T13:26:21.223Z</time></trkpt><trkpt lat="45.4887117" lon="8.406995"><ele>180.0</ele><time>2026-03-22T13:26:22.223Z</time></trkpt><trkpt lat="45.4888367" lon="8.4069567"><ele>179.75</ele><time>2026-03-22T13:26:23.223Z</time></trkpt><trkpt lat="45.4889583" lon="8.40693"><ele>179.5</ele><time>2026-03-22T13:26:24.223Z</time></trkpt><trkpt lat="45.4890817" lon="8.406915"><ele>179.25</ele><time>2026-03-22T13:26:25.223Z</time></trkpt><trkpt lat="45.489205" lon="8.406895"><ele>179.0</ele><time>2026-03-22T13:26:26.223Z</time></trkpt><trkpt lat="45.4893333" lon="8.406875"><ele>179.0</ele><time>2026-03-22T13:26:27.223Z</time></trkpt><trkpt lat="45.4894567" lon="8.4068617"><ele>179.0</ele><time>2026-03-22T13:26:28.223Z</time></trkpt><trkpt lat="45.48958" lon="8.4068483"><ele>179.0</ele><time>2026-03-22T13:26:29.223Z</time></trkpt><trkpt lat="45.4896967" lon="8.4068383"><ele>179.0</ele><time>2026-03-22T13:26:30.223Z</time></trkpt><trkpt lat="45.4898183" lon="8.4068333"><ele>179.25</ele><time>2026-03-22T13:26:31.223Z</time></trkpt><trkpt lat="45.489945" lon="8.4068183"><ele>179.5</ele><time>2026-03-22T13:26:32.223Z</time></trkpt><trkpt lat="45.4900733" lon="8.4067967"><ele>179.75</ele><time>2026-03-22T13:26:33.223Z</time></trkpt><trkpt lat="45.490195" lon="8.4067717"><ele>180.0</ele><time>2026-03-22T13:26:34.223Z</time></trkpt><trkpt lat="45.4903117" lon="8.406745"><ele>181.0</ele><time>2026-03-22T13:26:35.223Z</time></trkpt><trkpt lat="45.49043" lon="8.4067317"><ele>182.0</ele><time>2026-03-22T13:26:36.223Z</time></trkpt><trkpt lat="45.4905533" lon="8.406715"><ele>183.0</ele><time>2026-03-22T13:26:37.223Z</time></trkpt><trkpt lat="45.4906683" lon="8.4067033"><ele>184.0</ele><time>2026-03-22T13:26:38.223Z</time></trkpt><trkpt lat="45.490785" lon="8.406695"><ele>184.0</ele><time>2026-03-22T13:26:39.223Z</time></trkpt><trkpt lat="45.4909067" lon="8.4067067"><ele>184.0</ele><time>2026-03-22T13:26:40.223Z</time></trkpt><trkpt lat="45.4910267" lon="8.40672"><ele>184.0</ele><time>2026-03-22T13:26:41.223Z</time></trkpt><trkpt lat="45.49115" lon="8.4067117"><ele>184.0</ele><time>2026-03-22T13:26:42.223Z</time></trkpt><trkpt lat="45.4912783" lon="8.406705"><ele>184.0</ele><time>2026-03-22T13:26:43.223Z</time></trkpt><trkpt lat="45.49141" lon="8.4067083"><ele>184.0</ele><time>2026-03-22T13:26:44.223Z</time></trkpt><trkpt lat="45.491535" lon="8.4067183"><ele>184.0</ele><time>2026-03-22T13:26:45.223Z</time></trkpt><trkpt lat="45.4916667" lon="8.4067217"><ele>184.0</ele><time>2026-03-22T13:26:46.223Z</time></trkpt><trkpt lat="45.4917967" lon="8.4067367"><ele>184.0</ele><time>2026-03-22T13:26:47.223Z</time></trkpt><trkpt lat="45.4919217" lon="8.4067483"><ele>184.0</ele><time>2026-03-22T13:26:48.223Z</time></trkpt><trkpt lat="45.4920467" lon="8.4067633"><ele>184.0</ele><time>2026-03-22T13:26:49.223Z</time></trkpt><trkpt lat="45.492155" lon="8.406765"><ele>184.0</ele><time>2026-03-22T13:26:50.223Z</time></trkpt><trkpt lat="45.4922817" lon="8.4067683"><ele>183.0</ele><time>2026-03-22T13:26:51.223Z</time></trkpt><trkpt lat="45.492405" lon="8.406765"><ele>182.0</ele><time>2026-03-22T13:26:52.223Z</time></trkpt><trkpt lat="45.4925283" lon="8.4067767"><ele>181.0</ele><time>2026-03-22T13:26:53.223Z</time></trkpt><trkpt lat="45.492645" lon="8.406775"><ele>180.0</ele><time>2026-03-22T13:26:54.223Z</time></trkpt><trkpt lat="45.4927567" lon="8.406785"><ele>180.0</ele><time>2026-03-22T13:26:55.223Z</time></trkpt><trkpt lat="45.4928733" lon="8.406795"><ele>180.0</ele><time>2026-03-22T13:26:56.223Z</time></trkpt><trkpt lat="45.4929933" lon="8.4068083"><ele>180.0</ele><time>2026-03-22T13:26:57.223Z</time></trkpt><trkpt lat="45.4931117" lon="8.4068183"><ele>180.0</ele><time>2026-03-22T13:26:58.223Z</time></trkpt><trkpt lat="45.49323" lon="8.4068367"><ele>180.25</ele><time>2026-03-22T13:26:59.223Z</time></trkpt><trkpt lat="45.4933483" lon="8.406845"><ele>180.5</ele><time>2026-03-22T13:27:00.223Z</time></trkpt><trkpt lat="45.4934733" lon="8.4068333"><ele>180.75</ele><time>2026-03-22T13:27:01.223Z</time></trkpt><trkpt lat="45.493595" lon="8.4068133"><ele>181.0</ele><time>2026-03-22T13:27:02.223Z</time></trkpt><trkpt lat="45.4937233" lon="8.4067867"><ele>180.5</ele><time>2026-03-22T13:27:03.223Z</time></trkpt><trkpt lat="45.4938433" lon="8.406755"><ele>180.0</ele><time>2026-03-22T13:27:04.223Z</time></trkpt><trkpt lat="45.4939617" lon="8.4067217"><ele>179.5</ele><time>2026-03-22T13:27:05.223Z</time></trkpt><trkpt lat="45.49408" lon="8.406685"><ele>179.0</ele><time>2026-03-22T13:27:06.223Z</time></trkpt><trkpt lat="45.4942017" lon="8.4066617"><ele>179.0</ele><time>2026-03-22T13:27:07.223Z</time></trkpt><trkpt lat="45.494325" lon="8.4066283"><ele>179.0</ele><time>2026-03-22T13:27:08.223Z</time></trkpt><trkpt lat="45.49445" lon="8.406585"><ele>179.0</ele><time>2026-03-22T13:27:09.223Z</time></trkpt><trkpt lat="45.4945733" lon="8.406555"><ele>179.0</ele><time>2026-03-22T13:27:10.223Z</time></trkpt><trkpt lat="45.4946917" lon="8.406515"><ele>179.5</ele><time>2026-03-22T13:27:11.223Z</time></trkpt><trkpt lat="45.49481" lon="8.40648"><ele>180.0</ele><time>2026-03-22T13:27:12.223Z</time></trkpt><trkpt lat="45.4949317" lon="8.4064617"><ele>180.5</ele><time>2026-03-22T13:27:13.223Z</time></trkpt><trkpt lat="45.4950533" lon="8.4064517"><ele>181.0</ele><time>2026-03-22T13:27:14.223Z</time></trkpt><trkpt lat="45.495165" lon="8.40642"><ele>181.0</ele><time>2026-03-22T13:27:15.223Z</time></trkpt><trkpt lat="45.495285" lon="8.4063883"><ele>181.0</ele><time>2026-03-22T13:27:16.223Z</time></trkpt><trkpt lat="45.4953967" lon="8.4063633"><ele>181.0</ele><time>2026-03-22T13:27:17.223Z</time></trkpt><trkpt lat="45.4954983" lon="8.4063417"><ele>181.0</ele><time>2026-03-22T13:27:18.223Z</time></trkpt><trkpt lat="45.4955917" lon="8.4063267"><ele>181.0</ele><time>2026-03-22T13:27:19.223Z</time></trkpt><trkpt lat="45.495675" lon="8.4063133"><ele>180.8</ele><time>2026-03-22T13:27:20.223Z</time></trkpt><trkpt lat="45.4957533" lon="8.4063067"><ele>180.60000000000002</ele><time>2026-03-22T13:27:21.223Z</time></trkpt><trkpt lat="45.4958217" lon="8.4063217"><ele>180.4</ele><time>2026-03-22T13:27:22.223Z</time></trkpt><trkpt lat="45.49592" lon="8.4064183"><ele>180.2</ele><time>2026-03-22T13:27:24.223Z</time></trkpt><trkpt lat="45.4959417" lon="8.406515"><ele>180.0</ele><time>2026-03-22T13:27:25.223Z</time></trkpt><trkpt lat="45.49597" lon="8.4066817"><ele>180.66666666666666</ele><time>2026-03-22T13:27:27.223Z</time></trkpt><trkpt lat="45.4960217" lon="8.4067617"><ele>181.33333333333334</ele><time>2026-03-22T13:27:29.223Z</time></trkpt><trkpt lat="45.4960883" lon="8.4067683"><ele>182.0</ele><time>2026-03-22T13:27:32.223Z</time></trkpt><trkpt lat="45.496155" lon="8.40681"><ele>182.66666666666669</ele><time>2026-03-22T13:27:35.223Z</time></trkpt><trkpt lat="45.4961667" lon="8.4069017"><ele>183.33333333333334</ele><time>2026-03-22T13:27:37.223Z</time></trkpt><trkpt lat="45.4961317" lon="8.4069983"><ele>184.0</ele><time>2026-03-22T13:27:39.223Z</time></trkpt><trkpt lat="45.496045" lon="8.4070717"><ele>184.0</ele><time>2026-03-22T13:27:41.223Z</time></trkpt><trkpt lat="45.495985" lon="8.4071"><ele>184.0</ele><time>2026-03-22T13:27:42.223Z</time></trkpt><trkpt lat="45.495915" lon="8.4071367"><ele>184.0</ele><time>2026-03-22T13:27:43.223Z</time></trkpt><trkpt lat="45.4958517" lon="8.40717"><ele>184.0</ele><time>2026-03-22T13:27:44.223Z</time></trkpt><trkpt lat="45.4957817" lon="8.4072167"><ele>184.0</ele><time>2026-03-22T13:27:45.223Z</time></trkpt><trkpt lat="45.495715" lon="8.4072633"><ele>184.0</ele><time>2026-03-22T13:27:46.223Z</time></trkpt><trkpt lat="45.495645" lon="8.4073233"><ele>184.0</ele><time>2026-03-22T13:27:47.223Z</time></trkpt><trkpt lat="45.4955633" lon="8.40738"><ele>184.2</ele><time>2026-03-22T13:27:48.223Z</time></trkpt><trkpt lat="45.49548" lon="8.4074333"><ele>184.39999999999998</ele><time>2026-03-22T13:27:49.223Z</time></trkpt><trkpt lat="45.4953967" lon="8.4074883"><ele>184.6</ele><time>2026-03-22T13:27:50.223Z</time></trkpt><trkpt lat="45.49531" lon="8.40754"><ele>184.8</ele><time>2026-03-22T13:27:51.223Z</time></trkpt><trkpt lat="45.4952217" lon="8.4075917"><ele>185.0</ele><time>2026-03-22T13:27:52.223Z</time></trkpt><trkpt lat="45.49513" lon="8.4076467"><ele>185.0</ele><time>2026-03-22T13:27:53.223Z</time></trkpt><trkpt lat="45.4950483" lon="8.407695"><ele>185.0</ele><time>2026-03-22T13:27:54.223Z</time></trkpt><trkpt lat="45.49496" lon="8.40775"><ele>185.0</ele><time>2026-03-22T13:27:55.223Z</time></trkpt><trkpt lat="45.4948683" lon="8.4078083"><ele>185.0</ele><time>2026-03-22T13:27:56.223Z</time></trkpt><trkpt lat="45.4947733" lon="8.4078717"><ele>185.0</ele><time>2026-03-22T13:27:57.223Z</time></trkpt><trkpt lat="45.4946817" lon="8.407925"><ele>185.4</ele><time>2026-03-22T13:27:58.223Z</time></trkpt><trkpt lat="45.4945833" lon="8.40797"><ele>185.8</ele><time>2026-03-22T13:27:59.223Z</time></trkpt><trkpt lat="45.4944883" lon="8.4080167"><ele>186.2</ele><time>2026-03-22T13:28:00.223Z</time></trkpt><trkpt lat="45.4943933" lon="8.4080583"><ele>186.6</ele><time>2026-03-22T13:28:01.223Z</time></trkpt><trkpt lat="45.49429" lon="8.4081"><ele>187.0</ele><time>2026-03-22T13:28:02.223Z</time></trkpt><trkpt lat="45.4941883" lon="8.408145"><ele>187.0</ele><time>2026-03-22T13:28:03.223Z</time></trkpt><trkpt lat="45.4940783" lon="8.4082133"><ele>187.0</ele><time>2026-03-22T13:28:04.223Z</time></trkpt><trkpt lat="45.4939817" lon="8.40827"><ele>187.0</ele><time>2026-03-22T13:28:05.223Z</time></trkpt><trkpt lat="45.4938917" lon="8.4083317"><ele>187.0</ele><time>2026-03-22T13:28:06.223Z</time></trkpt><trkpt lat="45.4938" lon="8.4083917"><ele>187.0</ele><time>2026-03-22T13:28:07.223Z</time></trkpt><trkpt lat="45.49373" lon="8.4084317"><ele>186.39999999999998</ele><time>2026-03-22T13:28:08.223Z</time></trkpt><trkpt lat="45.4936533" lon="8.4084833"><ele>185.79999999999998</ele><time>2026-03-22T13:28:09.223Z</time></trkpt><trkpt lat="45.4935783" lon="8.4085317"><ele>185.2</ele><time>2026-03-22T13:28:10.223Z</time></trkpt><trkpt lat="45.4935183" lon="8.4085717"><ele>184.6</ele><time>2026-03-22T13:28:11.223Z</time></trkpt><trkpt lat="45.4934267" lon="8.4086717"><ele>184.0</ele><time>2026-03-22T13:28:13.223Z</time></trkpt><trkpt lat="45.4934" lon="8.4088517"><ele>183.5</ele><time>2026-03-22T13:28:15.223Z</time></trkpt><trkpt lat="45.493425" lon="8.40896"><ele>183.0</ele><time>2026-03-22T13:28:16.223Z</time></trkpt><trkpt lat="45.493465" lon="8.4090783"><ele>182.5</ele><time>2026-03-22T13:28:17.223Z</time></trkpt><trkpt lat="45.4935033" lon="8.4092067"><ele>182.0</ele><time>2026-03-22T13:28:18.223Z</time></trkpt><trkpt lat="45.4935333" lon="8.40933"><ele>181.5</ele><time>2026-03-22T13:28:19.223Z</time></trkpt><trkpt lat="45.4935617" lon="8.4094483"><ele>181.0</ele><time>2026-03-22T13:28:20.223Z</time></trkpt><trkpt lat="45.4935883" lon="8.4095767"><ele>180.0</ele><time>2026-03-22T13:28:21.223Z</time></trkpt><trkpt lat="45.4936133" lon="8.4097117"><ele>179.0</ele><time>2026-03-22T13:28:22.223Z</time></trkpt><trkpt lat="45.49364" lon="8.4098383"><ele>178.0</ele><time>2026-03-22T13:28:23.223Z</time></trkpt><trkpt lat="45.4936733" lon="8.4099683"><ele>177.0</ele><time>2026-03-22T13:28:24.223Z</time></trkpt><trkpt lat="45.4937083" lon="8.4101017"><ele>176.0</ele><time>2026-03-22T13:28:25.223Z</time></trkpt><trkpt lat="45.493735" lon="8.4102383"><ele>176.60000000000002</ele><time>2026-03-22T13:28:26.223Z</time></trkpt><trkpt lat="45.4937717" lon="8.41038"><ele>177.2</ele><time>2026-03-22T13:28:27.223Z</time></trkpt><trkpt lat="45.4938" lon="8.410525"><ele>177.8</ele><time>2026-03-22T13:28:28.223Z</time></trkpt><trkpt lat="45.4938367" lon="8.4106633"><ele>178.39999999999998</ele><time>2026-03-22T13:28:29.223Z</time></trkpt><trkpt lat="45.493875" lon="8.4107967"><ele>179.0</ele><time>2026-03-22T13:28:30.223Z</time></trkpt><trkpt lat="45.4939183" lon="8.4109217"><ele>179.0</ele><time>2026-03-22T13:28:31.223Z</time></trkpt><trkpt lat="45.493965" lon="8.4110467"><ele>179.0</ele><time>2026-03-22T13:28:32.223Z</time></trkpt><trkpt lat="45.494005" lon="8.4111617"><ele>179.0</ele><time>2026-03-22T13:28:33.223Z</time></trkpt><trkpt lat="45.4940367" lon="8.4112567"><ele>179.0</ele><time>2026-03-22T13:28:34.223Z</time></trkpt><trkpt lat="45.4940733" lon="8.4113583"><ele>179.0</ele><time>2026-03-22T13:28:35.223Z</time></trkpt><trkpt lat="45.4941017" lon="8.411455"><ele>179.0</ele><time>2026-03-22T13:28:36.223Z</time></trkpt><trkpt lat="45.494135" lon="8.4115517"><ele>179.0</ele><time>2026-03-22T13:28:37.223Z</time></trkpt><trkpt lat="45.4941633" lon="8.4116383"><ele>179.0</ele><time>2026-03-22T13:28:38.223Z</time></trkpt><trkpt lat="45.4942067" lon="8.41173"><ele>179.0</ele><time>2026-03-22T13:28:39.223Z</time></trkpt><trkpt lat="45.4942633" lon="8.4118233"><ele>179.0</ele><time>2026-03-22T13:28:40.223Z</time></trkpt><trkpt lat="45.4943167" lon="8.4119217"><ele>179.0</ele><time>2026-03-22T13:28:41.223Z</time></trkpt><trkpt lat="45.494375" lon="8.4120267"><ele>179.0</ele><time>2026-03-22T13:28:42.223Z</time></trkpt><trkpt lat="45.49442" lon="8.4121417"><ele>178.79999999999998</ele><time>2026-03-22T13:28:43.223Z</time></trkpt><trkpt lat="45.49447" lon="8.4122683"><ele>178.6</ele><time>2026-03-22T13:28:44.223Z</time></trkpt><trkpt lat="45.4945117" lon="8.4124017"><ele>178.4</ele><time>2026-03-22T13:28:45.223Z</time></trkpt><trkpt lat="45.49456" lon="8.412535"><ele>178.2</ele><time>2026-03-22T13:28:46.223Z</time></trkpt><trkpt lat="45.4945933" lon="8.4126783"><ele>178.0</ele><time>2026-03-22T13:28:47.223Z</time></trkpt><trkpt lat="45.4946267" lon="8.412825"><ele>178.0</ele><time>2026-03-22T13:28:48.223Z</time></trkpt><trkpt lat="45.49467" lon="8.41296"><ele>178.0</ele><time>2026-03-22T13:28:49.223Z</time></trkpt><trkpt lat="45.49472" lon="8.41309"><ele>178.0</ele><time>2026-03-22T13:28:50.223Z</time></trkpt><trkpt lat="45.494775" lon="8.4132033"><ele>178.0</ele><time>2026-03-22T13:28:51.223Z</time></trkpt><trkpt lat="45.4948367" lon="8.4133167"><ele>178.0</ele><time>2026-03-22T13:28:52.223Z</time></trkpt><trkpt lat="45.4949" lon="8.4134333"><ele>178.2</ele><time>2026-03-22T13:28:53.223Z</time></trkpt><trkpt lat="45.4949633" lon="8.41357"><ele>178.4</ele><time>2026-03-22T13:28:54.223Z</time></trkpt><trkpt lat="45.4950283" lon="8.4137033"><ele>178.6</ele><time>2026-03-22T13:28:55.223Z</time></trkpt><trkpt lat="45.495085" lon="8.4138333"><ele>178.79999999999998</ele><time>2026-03-22T13:28:56.223Z</time></trkpt><trkpt lat="45.4951317" lon="8.413955"><ele>179.0</ele><time>2026-03-22T13:28:57.223Z</time></trkpt><trkpt lat="45.495165" lon="8.4140833"><ele>179.0</ele><time>2026-03-22T13:28:58.223Z</time></trkpt><trkpt lat="45.4951717" lon="8.4142267"><ele>179.0</ele><time>2026-03-22T13:28:59.223Z</time></trkpt><trkpt lat="45.49516" lon="8.4143667"><ele>179.0</ele><time>2026-03-22T13:29:00.223Z</time></trkpt><trkpt lat="45.4951283" lon="8.4145133"><ele>179.0</ele><time>2026-03-22T13:29:01.223Z</time></trkpt><trkpt lat="45.49509" lon="8.4146567"><ele>179.0</ele><time>2026-03-22T13:29:02.223Z</time></trkpt><trkpt lat="45.49504" lon="8.4148017"><ele>179.0</ele><time>2026-03-22T13:29:03.223Z</time></trkpt><trkpt lat="45.495" lon="8.4149317"><ele>179.0</ele><time>2026-03-22T13:29:04.223Z</time></trkpt><trkpt lat="45.4949583" lon="8.4150533"><ele>179.0</ele><time>2026-03-22T13:29:05.223Z</time></trkpt><trkpt lat="45.4949217" lon="8.4151733"><ele>179.0</ele><time>2026-03-22T13:29:06.223Z</time></trkpt><trkpt lat="45.494895" lon="8.4152733"><ele>179.0</ele><time>2026-03-22T13:29:07.223Z</time></trkpt><trkpt lat="45.4948733" lon="8.4153733"><ele>179.0</ele><time>2026-03-22T13:29:08.223Z</time></trkpt><trkpt lat="45.4948567" lon="8.4154617"><ele>178.79999999999998</ele><time>2026-03-22T13:29:09.223Z</time></trkpt><trkpt lat="45.494835" lon="8.4155467"><ele>178.6</ele><time>2026-03-22T13:29:10.223Z</time></trkpt><trkpt lat="45.4948117" lon="8.4157083"><ele>178.4</ele><time>2026-03-22T13:29:12.223Z</time></trkpt><trkpt lat="45.4948" lon="8.4158633"><ele>178.2</ele><time>2026-03-22T13:29:14.223Z</time></trkpt><trkpt lat="45.4948067" lon="8.4160167"><ele>178.0</ele><time>2026-03-22T13:29:16.223Z</time></trkpt><trkpt lat="45.4948117" lon="8.41614"><ele>178.0</ele><time>2026-03-22T13:29:17.223Z</time></trkpt><trkpt lat="45.4948133" lon="8.41629"><ele>178.0</ele><time>2026-03-22T13:29:18.223Z</time></trkpt><trkpt lat="45.4948167" lon="8.4164417"><ele>178.0</ele><time>2026-03-22T13:29:19.223Z</time></trkpt><trkpt lat="45.49482" lon="8.416595"><ele>178.0</ele><time>2026-03-22T13:29:20.223Z</time></trkpt><trkpt lat="45.4948267" lon="8.4167517"><ele>178.0</ele><time>2026-03-22T13:29:21.223Z</time></trkpt><trkpt lat="45.4948283" lon="8.4169033"><ele>178.33333333333334</ele><time>2026-03-22T13:29:22.223Z</time></trkpt><trkpt lat="45.4948317" lon="8.417035"><ele>178.66666666666669</ele><time>2026-03-22T13:29:23.223Z</time></trkpt><trkpt lat="45.49483" lon="8.4171417"><ele>179.0</ele><time>2026-03-22T13:29:24.223Z</time></trkpt><trkpt lat="45.4948217" lon="8.4172683"><ele>179.33333333333334</ele><time>2026-03-22T13:29:26.223Z</time></trkpt><trkpt lat="45.4947967" lon="8.4173833"><ele>179.66666666666666</ele><time>2026-03-22T13:29:34.223Z</time></trkpt><trkpt lat="45.49471" lon="8.41736"><ele>180.0</ele><time>2026-03-22T13:29:37.223Z</time></trkpt><trkpt lat="45.49464" lon="8.4172733"><ele>180.2</ele><time>2026-03-22T13:29:39.223Z</time></trkpt><trkpt lat="45.4945583" lon="8.4172167"><ele>180.4</ele><time>2026-03-22T13:29:41.223Z</time></trkpt><trkpt lat="45.494395" lon="8.4170967"><ele>180.60000000000002</ele><time>2026-03-22T13:29:44.223Z</time></trkpt><trkpt lat="45.494335" lon="8.417055"><ele>180.8</ele><time>2026-03-22T13:29:45.223Z</time></trkpt><trkpt lat="45.4942717" lon="8.41701"><ele>181.0</ele><time>2026-03-22T13:29:46.223Z</time></trkpt><trkpt lat="45.4942083" lon="8.4169533"><ele>181.0</ele><time>2026-03-22T13:29:47.223Z</time></trkpt><trkpt lat="45.49415" lon="8.416905"><ele>181.0</ele><time>2026-03-22T13:29:48.223Z</time></trkpt><trkpt lat="45.4939983" lon="8.416795"><ele>181.0</ele><time>2026-03-22T13:29:51.223Z</time></trkpt><trkpt lat="45.4939383" lon="8.4167533"><ele>181.0</ele><time>2026-03-22T13:29:52.223Z</time></trkpt><trkpt lat="45.493875" lon="8.4167067"><ele>181.0</ele><time>2026-03-22T13:29:53.223Z</time></trkpt><trkpt lat="45.4938133" lon="8.4166533"><ele>181.0</ele><time>2026-03-22T13:29:54.223Z</time></trkpt><trkpt lat="45.4937617" lon="8.4165983"><ele>180.71428571428572</ele><time>2026-03-22T13:29:55.223Z</time></trkpt><trkpt lat="45.4937083" lon="8.4165383"><ele>180.42857142857142</ele><time>2026-03-22T13:29:56.223Z</time></trkpt><trkpt lat="45.4936567" lon="8.41648"><ele>180.14285714285717</ele><time>2026-03-22T13:29:57.223Z</time></trkpt><trkpt lat="45.493605" lon="8.4164133"><ele>179.85714285714286</ele><time>2026-03-22T13:29:58.223Z</time></trkpt><trkpt lat="45.4935517" lon="8.4163417"><ele>179.57142857142858</ele><time>2026-03-22T13:29:59.223Z</time></trkpt><trkpt lat="45.4935067" lon="8.4162683"><ele>179.2857142857143</ele><time>2026-03-22T13:30:00.222Z</time></trkpt><trkpt lat="45.493465" lon="8.416195"><ele>179.0</ele><time>2026-03-22T13:30:01.222Z</time></trkpt><trkpt lat="45.4934217" lon="8.4161233"><ele>179.0</ele><time>2026-03-22T13:30:02.222Z</time></trkpt><trkpt lat="45.4933633" lon="8.4159867"><ele>179.0</ele><time>2026-03-22T13:30:04.222Z</time></trkpt><trkpt lat="45.4933083" lon="8.4158733"><ele>179.0</ele><time>2026-03-22T13:30:07.222Z</time></trkpt><trkpt lat="45.4932217" lon="8.4157383"><ele>179.0</ele><time>2026-03-22T13:30:09.222Z</time></trkpt><trkpt lat="45.4931733" lon="8.4156583"><ele>179.0</ele><time>2026-03-22T13:30:10.222Z</time></trkpt><trkpt lat="45.4931317" lon="8.4155883"><ele>179.0</ele><time>2026-03-22T13:30:11.222Z</time></trkpt><trkpt lat="45.4930917" lon="8.4155167"><ele>179.0</ele><time>2026-03-22T13:30:12.222Z</time></trkpt><trkpt lat="45.4930283" lon="8.415395"><ele>179.0</ele><time>2026-03-22T13:30:14.222Z</time></trkpt><trkpt lat="45.4929767" lon="8.4153333"><ele>179.0</ele><time>2026-03-22T13:30:16.222Z</time></trkpt><trkpt lat="45.4930183" lon="8.4154533"><ele>179.0</ele><time>2026-03-22T13:30:21.222Z</time></trkpt><trkpt lat="45.493115" lon="8.4155883"><ele>179.0</ele><time>2026-03-22T13:30:23.222Z</time></trkpt><trkpt lat="45.4931617" lon="8.415675"><ele>179.0</ele><time>2026-03-22T13:30:24.222Z</time></trkpt><trkpt lat="45.49321" lon="8.4157633"><ele>179.0</ele><time>2026-03-22T13:30:25.222Z</time></trkpt><trkpt lat="45.4932633" lon="8.41584"><ele>179.0</ele><time>2026-03-22T13:30:26.222Z</time></trkpt><trkpt lat="45.4933233" lon="8.4159283"><ele>179.0</ele><time>2026-03-22T13:30:27.222Z</time></trkpt><trkpt lat="45.4933817" lon="8.4160267"><ele>179.0</ele><time>2026-03-22T13:30:28.222Z</time></trkpt><trkpt lat="45.49344" lon="8.4161283"><ele>179.0</ele><time>2026-03-22T13:30:29.222Z</time></trkpt><trkpt lat="45.4935033" lon="8.4162417"><ele>179.0</ele><time>2026-03-22T13:30:30.222Z</time></trkpt><trkpt lat="45.493565" lon="8.4163633"><ele>179.0</ele><time>2026-03-22T13:30:31.222Z</time></trkpt><trkpt lat="45.4936283" lon="8.4164783"><ele>179.0</ele><time>2026-03-22T13:30:32.222Z</time></trkpt><trkpt lat="45.4937" lon="8.41658"><ele>179.0</ele><time>2026-03-22T13:30:33.222Z</time></trkpt><trkpt lat="45.4937767" lon="8.416665"><ele>179.39999999999998</ele><time>2026-03-22T13:30:34.222Z</time></trkpt><trkpt lat="45.493865" lon="8.4167517"><ele>179.8</ele><time>2026-03-22T13:30:35.222Z</time></trkpt><trkpt lat="45.49396" lon="8.4168217"><ele>180.2</ele><time>2026-03-22T13:30:36.222Z</time></trkpt><trkpt lat="45.4940583" lon="8.4169"><ele>180.60000000000002</ele><time>2026-03-22T13:30:37.222Z</time></trkpt><trkpt lat="45.4941617" lon="8.416985"><ele>181.0</ele><time>2026-03-22T13:30:38.222Z</time></trkpt><trkpt lat="45.4942617" lon="8.41706"><ele>181.0</ele><time>2026-03-22T13:30:39.222Z</time></trkpt><trkpt lat="45.4943667" lon="8.417135"><ele>181.0</ele><time>2026-03-22T13:30:40.222Z</time></trkpt><trkpt lat="45.49447" lon="8.4172067"><ele>181.0</ele><time>2026-03-22T13:30:41.222Z</time></trkpt><trkpt lat="45.4945717" lon="8.4172717"><ele>181.0</ele><time>2026-03-22T13:30:42.222Z</time></trkpt><trkpt lat="45.49466" lon="8.41735"><ele>181.0</ele><time>2026-03-22T13:30:43.222Z</time></trkpt><trkpt lat="45.4947467" lon="8.417435"><ele>181.0</ele><time>2026-03-22T13:30:44.222Z</time></trkpt><trkpt lat="45.49481" lon="8.4175417"><ele>181.0</ele><time>2026-03-22T13:30:45.222Z</time></trkpt><trkpt lat="45.4948483" lon="8.4176917"><ele>181.0</ele><time>2026-03-22T13:30:46.222Z</time></trkpt><trkpt lat="45.4948767" lon="8.4178383"><ele>181.0</ele><time>2026-03-22T13:30:47.222Z</time></trkpt><trkpt lat="45.494905" lon="8.4179917"><ele>181.0</ele><time>2026-03-22T13:30:48.222Z</time></trkpt><trkpt lat="45.4949483" lon="8.4181483"><ele>180.75</ele><time>2026-03-22T13:30:49.222Z</time></trkpt><trkpt lat="45.494995" lon="8.4183"><ele>180.5</ele><time>2026-03-22T13:30:50.222Z</time></trkpt><trkpt lat="45.495045" lon="8.4184533"><ele>180.25</ele><time>2026-03-22T13:30:51.222Z</time></trkpt><trkpt lat="45.4950867" lon="8.4185983"><ele>180.0</ele><time>2026-03-22T13:30:52.222Z</time></trkpt><trkpt lat="45.49513" lon="8.418755"><ele>179.75</ele><time>2026-03-22T13:30:53.222Z</time></trkpt><trkpt lat="45.4951717" lon="8.4189167"><ele>179.5</ele><time>2026-03-22T13:30:54.222Z</time></trkpt><trkpt lat="45.49521" lon="8.4190667"><ele>179.25</ele><time>2026-03-22T13:30:55.222Z</time></trkpt><trkpt lat="45.49525" lon="8.4192067"><ele>179.0</ele><time>2026-03-22T13:30:56.222Z</time></trkpt><trkpt lat="45.4952933" lon="8.4193533"><ele>179.0</ele><time>2026-03-22T13:30:57.222Z</time></trkpt><trkpt lat="45.4953317" lon="8.4194983"><ele>179.0</ele><time>2026-03-22T13:30:58.222Z</time></trkpt><trkpt lat="45.4953683" lon="8.4196367"><ele>179.0</ele><time>2026-03-22T13:30:59.222Z</time></trkpt><trkpt lat="45.495405" lon="8.4197717"><ele>179.0</ele><time>2026-03-22T13:31:00.222Z</time></trkpt><trkpt lat="45.49544" lon="8.4199117"><ele>179.0</ele><time>2026-03-22T13:31:01.222Z</time></trkpt><trkpt lat="45.49552" lon="8.4201983"><ele>179.75</ele><time>2026-03-22T13:31:03.222Z</time></trkpt><trkpt lat="45.4955633" lon="8.4203433"><ele>180.5</ele><time>2026-03-22T13:31:04.222Z</time></trkpt><trkpt lat="45.49561" lon="8.42049"><ele>181.25</ele><time>2026-03-22T13:31:05.222Z</time></trkpt><trkpt lat="45.4956567" lon="8.42064"><ele>182.0</ele><time>2026-03-22T13:31:06.222Z</time></trkpt><trkpt lat="45.4957067" lon="8.4207967"><ele>182.0</ele><time>2026-03-22T13:31:07.222Z</time></trkpt><trkpt lat="45.4957517" lon="8.4209517"><ele>182.0</ele><time>2026-03-22T13:31:08.222Z</time></trkpt><trkpt lat="45.4957967" lon="8.4211067"><ele>182.0</ele><time>2026-03-22T13:31:09.222Z</time></trkpt><trkpt lat="45.4958417" lon="8.4212617"><ele>182.0</ele><time>2026-03-22T13:31:10.222Z</time></trkpt><trkpt lat="45.4958967" lon="8.4213983"><ele>182.2</ele><time>2026-03-22T13:31:11.222Z</time></trkpt><trkpt lat="45.4959533" lon="8.4215417"><ele>182.39999999999998</ele><time>2026-03-22T13:31:12.222Z</time></trkpt><trkpt lat="45.49601" lon="8.42168"><ele>182.60000000000002</ele><time>2026-03-22T13:31:13.222Z</time></trkpt><trkpt lat="45.4960633" lon="8.4218033"><ele>182.8</ele><time>2026-03-22T13:31:14.222Z</time></trkpt><trkpt lat="45.49611" lon="8.4219317"><ele>183.0</ele><time>2026-03-22T13:31:15.222Z</time></trkpt><trkpt lat="45.4961317" lon="8.4220733"><ele>183.16666666666666</ele><time>2026-03-22T13:31:16.222Z</time></trkpt><trkpt lat="45.4961417" lon="8.422215"><ele>183.33333333333334</ele><time>2026-03-22T13:31:17.222Z</time></trkpt><trkpt lat="45.4961483" lon="8.422355"><ele>183.5</ele><time>2026-03-22T13:31:18.222Z</time></trkpt><trkpt lat="45.4961367" lon="8.4224783"><ele>183.66666666666669</ele><time>2026-03-22T13:31:19.222Z</time></trkpt><trkpt lat="45.4961217" lon="8.4225883"><ele>183.83333333333334</ele><time>2026-03-22T13:31:20.222Z</time></trkpt><trkpt lat="45.4961033" lon="8.4226867"><ele>184.0</ele><time>2026-03-22T13:31:21.222Z</time></trkpt><trkpt lat="45.4960867" lon="8.4228"><ele>184.0</ele><time>2026-03-22T13:31:22.222Z</time></trkpt><trkpt lat="45.49606" lon="8.4229167"><ele>184.0</ele><time>2026-03-22T13:31:23.222Z</time></trkpt><trkpt lat="45.49604" lon="8.4230517"><ele>184.0</ele><time>2026-03-22T13:31:24.222Z</time></trkpt><trkpt lat="45.49602" lon="8.4231933"><ele>184.0</ele><time>2026-03-22T13:31:25.222Z</time></trkpt><trkpt lat="45.4959933" lon="8.4233467"><ele>184.0</ele><time>2026-03-22T13:31:26.222Z</time></trkpt><trkpt lat="45.4959567" lon="8.4235033"><ele>184.0</ele><time>2026-03-22T13:31:27.222Z</time></trkpt><trkpt lat="45.495925" lon="8.4236567"><ele>184.0</ele><time>2026-03-22T13:31:28.222Z</time></trkpt><trkpt lat="45.495895" lon="8.42381"><ele>184.0</ele><time>2026-03-22T13:31:29.222Z</time></trkpt><trkpt lat="45.495875" lon="8.4239683"><ele>184.0</ele><time>2026-03-22T13:31:30.222Z</time></trkpt><trkpt lat="45.4958583" lon="8.4241233"><ele>184.0</ele><time>2026-03-22T13:31:31.222Z</time></trkpt><trkpt lat="45.49583" lon="8.4242883"><ele>183.75</ele><time>2026-03-22T13:31:32.222Z</time></trkpt><trkpt lat="45.49582" lon="8.4244483"><ele>183.5</ele><time>2026-03-22T13:31:33.222Z</time></trkpt><trkpt lat="45.4958167" lon="8.4246133"><ele>183.25</ele><time>2026-03-22T13:31:34.222Z</time></trkpt><trkpt lat="45.4958183" lon="8.4247767"><ele>183.0</ele><time>2026-03-22T13:31:35.222Z</time></trkpt><trkpt lat="45.4958233" lon="8.4249483"><ele>182.75</ele><time>2026-03-22T13:31:36.222Z</time></trkpt><trkpt lat="45.4958217" lon="8.42513"><ele>182.5</ele><time>2026-03-22T13:31:37.222Z</time></trkpt><trkpt lat="45.4958217" lon="8.4253133"><ele>182.25</ele><time>2026-03-22T13:31:38.222Z</time></trkpt><trkpt lat="45.4958333" lon="8.4255017"><ele>182.0</ele><time>2026-03-22T13:31:39.222Z</time></trkpt><trkpt lat="45.4958333" lon="8.4256967"><ele>181.75</ele><time>2026-03-22T13:31:40.222Z</time></trkpt><trkpt lat="45.4958367" lon="8.4258933"><ele>181.5</ele><time>2026-03-22T13:31:41.222Z</time></trkpt><trkpt lat="45.4958333" lon="8.4261"><ele>181.25</ele><time>2026-03-22T13:31:42.222Z</time></trkpt><trkpt lat="45.4958333" lon="8.4262983"><ele>181.0</ele><time>2026-03-22T13:31:43.222Z</time></trkpt><trkpt lat="45.4958367" lon="8.4265033"><ele>180.25</ele><time>2026-03-22T13:31:44.222Z</time></trkpt><trkpt lat="45.4958533" lon="8.42669"><ele>179.5</ele><time>2026-03-22T13:31:45.222Z</time></trkpt><trkpt lat="45.4958567" lon="8.426885"><ele>178.75</ele><time>2026-03-22T13:31:46.222Z</time></trkpt><trkpt lat="45.495865" lon="8.4270917"><ele>178.0</ele><time>2026-03-22T13:31:47.222Z</time></trkpt><trkpt lat="45.4958817" lon="8.4272933"><ele>177.75</ele><time>2026-03-22T13:31:48.222Z</time></trkpt><trkpt lat="45.49589" lon="8.4274933"><ele>177.5</ele><time>2026-03-22T13:31:49.222Z</time></trkpt><trkpt lat="45.495895" lon="8.4276933"><ele>177.25</ele><time>2026-03-22T13:31:50.222Z</time></trkpt><trkpt lat="45.4958917" lon="8.4278967"><ele>177.0</ele><time>2026-03-22T13:31:51.222Z</time></trkpt><trkpt lat="45.4958967" lon="8.428095"><ele>177.5</ele><time>2026-03-22T13:31:52.222Z</time></trkpt><trkpt lat="45.4958983" lon="8.4282933"><ele>178.0</ele><time>2026-03-22T13:31:53.222Z</time></trkpt><trkpt lat="45.4959" lon="8.4284817"><ele>178.5</ele><time>2026-03-22T13:31:54.222Z</time></trkpt><trkpt lat="45.4959" lon="8.42866"><ele>179.0</ele><time>2026-03-22T13:31:55.222Z</time></trkpt><trkpt lat="45.4959" lon="8.4288283"><ele>179.0</ele><time>2026-03-22T13:31:56.222Z</time></trkpt><trkpt lat="45.4959" lon="8.4289867"><ele>179.0</ele><time>2026-03-22T13:31:57.222Z</time></trkpt><trkpt lat="45.4959" lon="8.42913"><ele>179.0</ele><time>2026-03-22T13:31:58.222Z</time></trkpt><trkpt lat="45.4958967" lon="8.42927"><ele>179.0</ele><time>2026-03-22T13:31:59.222Z</time></trkpt><trkpt lat="45.4958967" lon="8.429395"><ele>179.0</ele><time>2026-03-22T13:32:00.222Z</time></trkpt><trkpt lat="45.4959" lon="8.4295267"><ele>179.25</ele><time>2026-03-22T13:32:01.222Z</time></trkpt><trkpt lat="45.4959183" lon="8.4296633"><ele>179.5</ele><time>2026-03-22T13:32:02.222Z</time></trkpt><trkpt lat="45.49594" lon="8.4298"><ele>179.75</ele><time>2026-03-22T13:32:03.222Z</time></trkpt><trkpt lat="45.4959517" lon="8.4299533"><ele>180.0</ele><time>2026-03-22T13:32:04.222Z</time></trkpt><trkpt lat="45.4959767" lon="8.4302833"><ele>179.75</ele><time>2026-03-22T13:32:06.222Z</time></trkpt><trkpt lat="45.4959933" lon="8.430485"><ele>179.5</ele><time>2026-03-22T13:32:07.222Z</time></trkpt><trkpt lat="45.4960117" lon="8.430685"><ele>179.25</ele><time>2026-03-22T13:32:08.222Z</time></trkpt><trkpt lat="45.4960283" lon="8.4308983"><ele>179.0</ele><time>2026-03-22T13:32:09.222Z</time></trkpt><trkpt lat="45.4960417" lon="8.4311183"><ele>179.66666666666666</ele><time>2026-03-22T13:32:10.222Z</time></trkpt><trkpt lat="45.4960567" lon="8.4313433"><ele>180.33333333333334</ele><time>2026-03-22T13:32:11.222Z</time></trkpt><trkpt lat="45.496075" lon="8.43157"><ele>181.0</ele><time>2026-03-22T13:32:12.222Z</time></trkpt><trkpt lat="45.4960917" lon="8.431795"><ele>181.0</ele><time>2026-03-22T13:32:13.222Z</time></trkpt><trkpt lat="45.4961133" lon="8.4320267"><ele>181.0</ele><time>2026-03-22T13:32:14.222Z</time></trkpt><trkpt lat="45.4961383" lon="8.43225"><ele>181.0</ele><time>2026-03-22T13:32:15.222Z</time></trkpt><trkpt lat="45.4961667" lon="8.4324767"><ele>181.0</ele><time>2026-03-22T13:32:16.222Z</time></trkpt><trkpt lat="45.49619" lon="8.4327083"><ele>181.0</ele><time>2026-03-22T13:32:17.222Z</time></trkpt><trkpt lat="45.4962133" lon="8.4329333"><ele>181.0</ele><time>2026-03-22T13:32:18.222Z</time></trkpt><trkpt lat="45.4962333" lon="8.43316"><ele>180.66666666666669</ele><time>2026-03-22T13:32:19.222Z</time></trkpt><trkpt lat="45.4962533" lon="8.43339"><ele>180.33333333333334</ele><time>2026-03-22T13:32:20.222Z</time></trkpt><trkpt lat="45.49628" lon="8.4336217"><ele>180.0</ele><time>2026-03-22T13:32:21.222Z</time></trkpt><trkpt lat="45.496305" lon="8.433855"><ele>180.0</ele><time>2026-03-22T13:32:22.222Z</time></trkpt><trkpt lat="45.4963367" lon="8.4340717"><ele>180.0</ele><time>2026-03-22T13:32:23.222Z</time></trkpt><trkpt lat="45.4963617" lon="8.4342967"><ele>180.0</ele><time>2026-03-22T13:32:24.222Z</time></trkpt><trkpt lat="45.4963817" lon="8.4345233"><ele>181.33333333333334</ele><time>2026-03-22T13:32:25.222Z</time></trkpt><trkpt lat="45.4964117" lon="8.4347433"><ele>182.66666666666669</ele><time>2026-03-22T13:32:26.222Z</time></trkpt><trkpt lat="45.4964333" lon="8.434965"><ele>184.0</ele><time>2026-03-22T13:32:27.222Z</time></trkpt><trkpt lat="45.4964567" lon="8.4351833"><ele>184.0</ele><time>2026-03-22T13:32:28.222Z</time></trkpt><trkpt lat="45.4964833" lon="8.4354033"><ele>184.0</ele><time>2026-03-22T13:32:29.222Z</time></trkpt><trkpt lat="45.496515" lon="8.435615"><ele>184.0</ele><time>2026-03-22T13:32:30.222Z</time></trkpt><trkpt lat="45.4965367" lon="8.435825"><ele>182.66666666666669</ele><time>2026-03-22T13:32:31.222Z</time></trkpt><trkpt lat="45.4965617" lon="8.4360417"><ele>181.33333333333334</ele><time>2026-03-22T13:32:32.222Z</time></trkpt><trkpt lat="45.496585" lon="8.43626"><ele>180.0</ele><time>2026-03-22T13:32:33.222Z</time></trkpt><trkpt lat="45.4966067" lon="8.4364683"><ele>180.0</ele><time>2026-03-22T13:32:34.222Z</time></trkpt><trkpt lat="45.496615" lon="8.4366733"><ele>180.0</ele><time>2026-03-22T13:32:35.222Z</time></trkpt><trkpt lat="45.4966233" lon="8.4368767"><ele>180.0</ele><time>2026-03-22T13:32:36.222Z</time></trkpt><trkpt lat="45.4966283" lon="8.4370833"><ele>180.0</ele><time>2026-03-22T13:32:37.222Z</time></trkpt><trkpt lat="45.49663" lon="8.437285"><ele>180.0</ele><time>2026-03-22T13:32:38.222Z</time></trkpt><trkpt lat="45.496635" lon="8.4374933"><ele>180.0</ele><time>2026-03-22T13:32:39.222Z</time></trkpt><trkpt lat="45.4966367" lon="8.4376967"><ele>180.0</ele><time>2026-03-22T13:32:40.222Z</time></trkpt><trkpt lat="45.4966317" lon="8.4379067"><ele>180.0</ele><time>2026-03-22T13:32:41.222Z</time></trkpt><trkpt lat="45.4966317" lon="8.438105"><ele>179.75</ele><time>2026-03-22T13:32:42.222Z</time></trkpt><trkpt lat="45.49664" lon="8.4382933"><ele>179.5</ele><time>2026-03-22T13:32:43.222Z</time></trkpt><trkpt lat="45.4966433" lon="8.4384833"><ele>179.25</ele><time>2026-03-22T13:32:44.222Z</time></trkpt><trkpt lat="45.4966483" lon="8.4386933"><ele>179.0</ele><time>2026-03-22T13:32:45.222Z</time></trkpt><trkpt lat="45.4966533" lon="8.4389017"><ele>179.5</ele><time>2026-03-22T13:32:46.222Z</time></trkpt><trkpt lat="45.4966533" lon="8.4390983"><ele>180.0</ele><time>2026-03-22T13:32:47.222Z</time></trkpt><trkpt lat="45.496655" lon="8.4393067"><ele>180.5</ele><time>2026-03-22T13:32:48.222Z</time></trkpt><trkpt lat="45.4966533" lon="8.4395217"><ele>181.0</ele><time>2026-03-22T13:32:49.222Z</time></trkpt><trkpt lat="45.4966583" lon="8.43973"><ele>181.66666666666669</ele><time>2026-03-22T13:32:50.222Z</time></trkpt><trkpt lat="45.49665" lon="8.439935"><ele>182.33333333333334</ele><time>2026-03-22T13:32:51.222Z</time></trkpt><trkpt lat="45.4966183" lon="8.44015"><ele>183.0</ele><time>2026-03-22T13:32:52.222Z</time></trkpt><trkpt lat="45.496575" lon="8.4403633"><ele>182.0</ele><time>2026-03-22T13:32:53.222Z</time></trkpt><trkpt lat="45.4965117" lon="8.4405683"><ele>181.0</ele><time>2026-03-22T13:32:54.222Z</time></trkpt><trkpt lat="45.4964433" lon="8.4407617"><ele>180.0</ele><time>2026-03-22T13:32:55.222Z</time></trkpt><trkpt lat="45.49637" lon="8.4409533"><ele>179.0</ele><time>2026-03-22T13:32:56.222Z</time></trkpt><trkpt lat="45.496175" lon="8.4413233"><ele>178.0</ele><time>2026-03-22T13:32:58.222Z</time></trkpt><trkpt lat="45.496075" lon="8.441505"><ele>178.0</ele><time>2026-03-22T13:32:59.222Z</time></trkpt><trkpt lat="45.49598" lon="8.4416933"><ele>178.0</ele><time>2026-03-22T13:33:00.222Z</time></trkpt><trkpt lat="45.4958833" lon="8.4418833"><ele>178.0</ele><time>2026-03-22T13:33:01.222Z</time></trkpt><trkpt lat="45.4957883" lon="8.4420817"><ele>177.33333333333334</ele><time>2026-03-22T13:33:02.222Z</time></trkpt><trkpt lat="45.495705" lon="8.442275"><ele>176.66666666666666</ele><time>2026-03-22T13:33:03.222Z</time></trkpt><trkpt lat="45.4956233" lon="8.44248"><ele>176.0</ele><time>2026-03-22T13:33:04.222Z</time></trkpt><trkpt lat="45.4955417" lon="8.4426817"><ele>176.0</ele><time>2026-03-22T13:33:05.222Z</time></trkpt><trkpt lat="45.495455" lon="8.4428783"><ele>176.0</ele><time>2026-03-22T13:33:06.222Z</time></trkpt><trkpt lat="45.4953633" lon="8.4430567"><ele>176.0</ele><time>2026-03-22T13:33:07.222Z</time></trkpt><trkpt lat="45.4952533" lon="8.4432233"><ele>176.0</ele><time>2026-03-22T13:33:08.222Z</time></trkpt><trkpt lat="45.49514" lon="8.4433733"><ele>176.0</ele><time>2026-03-22T13:33:09.222Z</time></trkpt><trkpt lat="45.4950167" lon="8.4435067"><ele>176.0</ele><time>2026-03-22T13:33:10.222Z</time></trkpt><trkpt lat="45.4948867" lon="8.4436233"><ele>176.0</ele><time>2026-03-22T13:33:11.222Z</time></trkpt><trkpt lat="45.4947533" lon="8.4437367"><ele>176.0</ele><time>2026-03-22T13:33:12.222Z</time></trkpt><trkpt lat="45.494475" lon="8.4439383"><ele>176.25</ele><time>2026-03-22T13:33:14.222Z</time></trkpt><trkpt lat="45.494335" lon="8.444025"><ele>176.5</ele><time>2026-03-22T13:33:15.222Z</time></trkpt><trkpt lat="45.4941967" lon="8.4440917"><ele>176.75</ele><time>2026-03-22T13:33:16.222Z</time></trkpt><trkpt lat="45.4940667" lon="8.4441567"><ele>177.0</ele><time>2026-03-22T13:33:17.222Z</time></trkpt><trkpt lat="45.49394" lon="8.444225"><ele>177.0</ele><time>2026-03-22T13:33:18.222Z</time></trkpt><trkpt lat="45.4938217" lon="8.4442983"><ele>177.0</ele><time>2026-03-22T13:33:19.222Z</time></trkpt><trkpt lat="45.4937067" lon="8.4443667"><ele>177.0</ele><time>2026-03-22T13:33:20.222Z</time></trkpt><trkpt lat="45.4935933" lon="8.4444317"><ele>177.0</ele><time>2026-03-22T13:33:21.222Z</time></trkpt><trkpt lat="45.4935017" lon="8.4444967"><ele>176.83333333333334</ele><time>2026-03-22T13:33:22.222Z</time></trkpt><trkpt lat="45.4934317" lon="8.4445667"><ele>176.66666666666666</ele><time>2026-03-22T13:33:23.222Z</time></trkpt><trkpt lat="45.4933967" lon="8.444645"><ele>176.5</ele><time>2026-03-22T13:33:24.222Z</time></trkpt><trkpt lat="45.49339" lon="8.44474"><ele>176.33333333333331</ele><time>2026-03-22T13:33:25.222Z</time></trkpt><trkpt lat="45.4934" lon="8.4448483"><ele>176.16666666666666</ele><time>2026-03-22T13:33:26.222Z</time></trkpt><trkpt lat="45.4934267" lon="8.44499"><ele>176.0</ele><time>2026-03-22T13:33:27.222Z</time></trkpt><trkpt lat="45.4934567" lon="8.4451467"><ele>176.25</ele><time>2026-03-22T13:33:28.222Z</time></trkpt><trkpt lat="45.4934817" lon="8.4453117"><ele>176.5</ele><time>2026-03-22T13:33:29.222Z</time></trkpt><trkpt lat="45.4935133" lon="8.44547"><ele>176.75</ele><time>2026-03-22T13:33:30.222Z</time></trkpt><trkpt lat="45.49354" lon="8.4456333"><ele>177.0</ele><time>2026-03-22T13:33:31.222Z</time></trkpt><trkpt lat="45.4935633" lon="8.4457983"><ele>177.0</ele><time>2026-03-22T13:33:32.222Z</time></trkpt><trkpt lat="45.4935867" lon="8.4459683"><ele>177.0</ele><time>2026-03-22T13:33:33.222Z</time></trkpt><trkpt lat="45.49361" lon="8.4461417"><ele>177.0</ele><time>2026-03-22T13:33:34.222Z</time></trkpt><trkpt lat="45.49363" lon="8.4463217"><ele>177.0</ele><time>2026-03-22T13:33:35.222Z</time></trkpt><trkpt lat="45.4936517" lon="8.4464967"><ele>176.75</ele><time>2026-03-22T13:33:36.222Z</time></trkpt><trkpt lat="45.4936783" lon="8.4466817"><ele>176.5</ele><time>2026-03-22T13:33:37.222Z</time></trkpt><trkpt lat="45.4937" lon="8.446865"><ele>176.25</ele><time>2026-03-22T13:33:38.222Z</time></trkpt><trkpt lat="45.4937233" lon="8.4470467"><ele>176.0</ele><time>2026-03-22T13:33:39.222Z</time></trkpt><trkpt lat="45.4937433" lon="8.4472283"><ele>176.0</ele><time>2026-03-22T13:33:40.222Z</time></trkpt><trkpt lat="45.4937683" lon="8.4474133"><ele>176.0</ele><time>2026-03-22T13:33:41.222Z</time></trkpt><trkpt lat="45.493795" lon="8.4475967"><ele>176.0</ele><time>2026-03-22T13:33:42.222Z</time></trkpt><trkpt lat="45.4938283" lon="8.4477883"><ele>176.0</ele><time>2026-03-22T13:33:43.222Z</time></trkpt><trkpt lat="45.4938667" lon="8.4479683"><ele>176.0</ele><time>2026-03-22T13:33:44.222Z</time></trkpt><trkpt lat="45.49389" lon="8.44816"><ele>176.0</ele><time>2026-03-22T13:33:45.222Z</time></trkpt><trkpt lat="45.493905" lon="8.4483617"><ele>176.0</ele><time>2026-03-22T13:33:46.222Z</time></trkpt><trkpt lat="45.4939" lon="8.4485583"><ele>176.0</ele><time>2026-03-22T13:33:47.222Z</time></trkpt><trkpt lat="45.4938767" lon="8.4487567"><ele>175.75</ele><time>2026-03-22T13:33:48.222Z</time></trkpt><trkpt lat="45.493845" lon="8.44896"><ele>175.5</ele><time>2026-03-22T13:33:49.222Z</time></trkpt><trkpt lat="45.4938" lon="8.4491583"><ele>175.25</ele><time>2026-03-22T13:33:50.222Z</time></trkpt><trkpt lat="45.493765" lon="8.4493483"><ele>175.0</ele><time>2026-03-22T13:33:51.222Z</time></trkpt><trkpt lat="45.49373" lon="8.44952"><ele>175.0</ele><time>2026-03-22T13:33:52.222Z</time></trkpt><trkpt lat="45.493705" lon="8.4496933"><ele>175.0</ele><time>2026-03-22T13:33:53.222Z</time></trkpt><trkpt lat="45.4936683" lon="8.449855"><ele>175.0</ele><time>2026-03-22T13:33:54.222Z</time></trkpt><trkpt lat="45.49362" lon="8.4500067"><ele>175.0</ele><time>2026-03-22T13:33:55.222Z</time></trkpt><trkpt lat="45.49357" lon="8.450175"><ele>175.0</ele><time>2026-03-22T13:33:56.222Z</time></trkpt><trkpt lat="45.493515" lon="8.450365"><ele>175.0</ele><time>2026-03-22T13:33:57.222Z</time></trkpt><trkpt lat="45.49336" lon="8.4506883"><ele>175.0</ele><time>2026-03-22T13:33:59.222Z</time></trkpt><trkpt lat="45.4932767" lon="8.45083"><ele>175.0</ele><time>2026-03-22T13:34:00.222Z</time></trkpt><trkpt lat="45.4932033" lon="8.4509883"><ele>175.0</ele><time>2026-03-22T13:34:01.222Z</time></trkpt><trkpt lat="45.493125" lon="8.4511417"><ele>175.0</ele><time>2026-03-22T13:34:02.222Z</time></trkpt><trkpt lat="45.4930467" lon="8.451285"><ele>175.0</ele><time>2026-03-22T13:34:03.222Z</time></trkpt><trkpt lat="45.49296" lon="8.4514133"><ele>175.25</ele><time>2026-03-22T13:34:04.222Z</time></trkpt><trkpt lat="45.4928583" lon="8.451535"><ele>175.5</ele><time>2026-03-22T13:34:05.222Z</time></trkpt><trkpt lat="45.4927683" lon="8.4516533"><ele>175.75</ele><time>2026-03-22T13:34:06.222Z</time></trkpt><trkpt lat="45.492675" lon="8.4517533"><ele>176.0</ele><time>2026-03-22T13:34:07.222Z</time></trkpt><trkpt lat="45.4925833" lon="8.4518483"><ele>176.0</ele><time>2026-03-22T13:34:08.222Z</time></trkpt><trkpt lat="45.492495" lon="8.45192"><ele>176.0</ele><time>2026-03-22T13:34:09.222Z</time></trkpt><trkpt lat="45.49241" lon="8.45198"><ele>176.0</ele><time>2026-03-22T13:34:10.222Z</time></trkpt><trkpt lat="45.492335" lon="8.4520483"><ele>176.0</ele><time>2026-03-22T13:34:11.222Z</time></trkpt><trkpt lat="45.49227" lon="8.4521133"><ele>176.0</ele><time>2026-03-22T13:34:12.222Z</time></trkpt><trkpt lat="45.4922033" lon="8.4521667"><ele>176.0</ele><time>2026-03-22T13:34:13.222Z</time></trkpt><trkpt lat="45.49215" lon="8.4522317"><ele>176.0</ele><time>2026-03-22T13:34:14.222Z</time></trkpt><trkpt lat="45.4920933" lon="8.452385"><ele>176.0</ele><time>2026-03-22T13:34:16.222Z</time></trkpt><trkpt lat="45.492115" lon="8.4524983"><ele>176.0</ele><time>2026-03-22T13:34:17.222Z</time></trkpt><trkpt lat="45.49215" lon="8.4526317"><ele>176.0</ele><time>2026-03-22T13:34:18.222Z</time></trkpt><trkpt lat="45.4921783" lon="8.4527717"><ele>176.0</ele><time>2026-03-22T13:34:19.222Z</time></trkpt><trkpt lat="45.492205" lon="8.4529183"><ele>175.75</ele><time>2026-03-22T13:34:20.222Z</time></trkpt><trkpt lat="45.4922283" lon="8.45307"><ele>175.5</ele><time>2026-03-22T13:34:21.222Z</time></trkpt><trkpt lat="45.4922517" lon="8.453235"><ele>175.25</ele><time>2026-03-22T13:34:22.222Z</time></trkpt><trkpt lat="45.4922783" lon="8.4534117"><ele>175.0</ele><time>2026-03-22T13:34:23.222Z</time></trkpt><trkpt lat="45.4923" lon="8.4535867"><ele>175.0</ele><time>2026-03-22T13:34:24.221Z</time></trkpt><trkpt lat="45.4923267" lon="8.4537567"><ele>175.0</ele><time>2026-03-22T13:34:25.221Z</time></trkpt><trkpt lat="45.4923567" lon="8.4539217"><ele>175.0</ele><time>2026-03-22T13:34:26.221Z</time></trkpt><trkpt lat="45.4923883" lon="8.4540933"><ele>175.0</ele><time>2026-03-22T13:34:27.221Z</time></trkpt><trkpt lat="45.49242" lon="8.45427"><ele>175.25</ele><time>2026-03-22T13:34:28.221Z</time></trkpt><trkpt lat="45.49246" lon="8.454445"><ele>175.5</ele><time>2026-03-22T13:34:29.221Z</time></trkpt><trkpt lat="45.4925" lon="8.4546217"><ele>175.75</ele><time>2026-03-22T13:34:30.221Z</time></trkpt><trkpt lat="45.4925467" lon="8.4547967"><ele>176.0</ele><time>2026-03-22T13:34:31.221Z</time></trkpt><trkpt lat="45.4926017" lon="8.4549717"><ele>176.5</ele><time>2026-03-22T13:34:32.221Z</time></trkpt><trkpt lat="45.4926567" lon="8.4551483"><ele>177.0</ele><time>2026-03-22T13:34:33.221Z</time></trkpt><trkpt lat="45.4927033" lon="8.455325"><ele>177.5</ele><time>2026-03-22T13:34:34.221Z</time></trkpt><trkpt lat="45.4927583" lon="8.4555"><ele>178.0</ele><time>2026-03-22T13:34:35.221Z</time></trkpt><trkpt lat="45.4928033" lon="8.4556783"><ele>178.25</ele><time>2026-03-22T13:34:36.221Z</time></trkpt><trkpt lat="45.4928617" lon="8.45585"><ele>178.5</ele><time>2026-03-22T13:34:37.221Z</time></trkpt><trkpt lat="45.4929183" lon="8.4560233"><ele>178.75</ele><time>2026-03-22T13:34:38.221Z</time></trkpt><trkpt lat="45.4929683" lon="8.4562"><ele>179.0</ele><time>2026-03-22T13:34:39.221Z</time></trkpt><trkpt lat="45.49302" lon="8.45637"><ele>178.39999999999998</ele><time>2026-03-22T13:34:40.221Z</time></trkpt><trkpt lat="45.49307" lon="8.45652"><ele>177.8</ele><time>2026-03-22T13:34:41.221Z</time></trkpt><trkpt lat="45.4931167" lon="8.4566717"><ele>177.2</ele><time>2026-03-22T13:34:42.221Z</time></trkpt><trkpt lat="45.4931583" lon="8.4568067"><ele>176.60000000000002</ele><time>2026-03-22T13:34:43.221Z</time></trkpt><trkpt lat="45.493195" lon="8.4569267"><ele>176.0</ele><time>2026-03-22T13:34:44.221Z</time></trkpt><trkpt lat="45.493225" lon="8.4570233"><ele>176.0</ele><time>2026-03-22T13:34:45.221Z</time></trkpt><trkpt lat="45.49326" lon="8.45711"><ele>176.0</ele><time>2026-03-22T13:34:46.221Z</time></trkpt><trkpt lat="45.4933567" lon="8.457195"><ele>176.0</ele><time>2026-03-22T13:34:48.221Z</time></trkpt><trkpt lat="45.4934683" lon="8.4572283"><ele>176.0</ele><time>2026-03-22T13:34:50.221Z</time></trkpt><trkpt lat="45.493525" lon="8.4573683"><ele>176.0</ele><time>2026-03-22T13:34:52.221Z</time></trkpt><trkpt lat="45.4935367" lon="8.457475"><ele>176.16666666666666</ele><time>2026-03-22T13:34:53.221Z</time></trkpt><trkpt lat="45.4935533" lon="8.457585"><ele>176.33333333333331</ele><time>2026-03-22T13:34:54.221Z</time></trkpt><trkpt lat="45.4935883" lon="8.4576733"><ele>176.5</ele><time>2026-03-22T13:34:55.221Z</time></trkpt><trkpt lat="45.4936467" lon="8.4577467"><ele>176.66666666666666</ele><time>2026-03-22T13:34:56.221Z</time></trkpt><trkpt lat="45.493715" lon="8.4578117"><ele>176.83333333333334</ele><time>2026-03-22T13:34:57.221Z</time></trkpt><trkpt lat="45.4937867" lon="8.457885"><ele>177.0</ele><time>2026-03-22T13:34:58.221Z</time></trkpt><trkpt lat="45.4938583" lon="8.4579567"><ele>177.16666666666666</ele><time>2026-03-22T13:34:59.221Z</time></trkpt><trkpt lat="45.493925" lon="8.4580233"><ele>177.33333333333334</ele><time>2026-03-22T13:35:00.221Z</time></trkpt><trkpt lat="45.4939767" lon="8.4581067"><ele>177.5</ele><time>2026-03-22T13:35:01.221Z</time></trkpt><trkpt lat="45.4940283" lon="8.4581883"><ele>177.66666666666669</ele><time>2026-03-22T13:35:02.221Z</time></trkpt><trkpt lat="45.4940833" lon="8.4582733"><ele>177.83333333333334</ele><time>2026-03-22T13:35:03.221Z</time></trkpt><trkpt lat="45.4941417" lon="8.4583683"><ele>178.0</ele><time>2026-03-22T13:35:04.221Z</time></trkpt><trkpt lat="45.4942017" lon="8.45847"><ele>178.0</ele><time>2026-03-22T13:35:05.221Z</time></trkpt><trkpt lat="45.49427" lon="8.4585833"><ele>178.0</ele><time>2026-03-22T13:35:06.221Z</time></trkpt><trkpt lat="45.4943467" lon="8.4586883"><ele>178.0</ele><time>2026-03-22T13:35:07.221Z</time></trkpt><trkpt lat="45.4944217" lon="8.4587817"><ele>178.0</ele><time>2026-03-22T13:35:08.221Z</time></trkpt><trkpt lat="45.4944883" lon="8.4588767"><ele>178.0</ele><time>2026-03-22T13:35:09.221Z</time></trkpt><trkpt lat="45.4945517" lon="8.458965"><ele>178.0</ele><time>2026-03-22T13:35:10.221Z</time></trkpt><trkpt lat="45.494625" lon="8.4590217"><ele>178.0</ele><time>2026-03-22T13:35:11.221Z</time></trkpt><trkpt lat="45.4946833" lon="8.45912"><ele>178.0</ele><time>2026-03-22T13:35:12.221Z</time></trkpt><trkpt lat="45.4947417" lon="8.4592033"><ele>178.0</ele><time>2026-03-22T13:35:13.221Z</time></trkpt><trkpt lat="45.4948" lon="8.4592783"><ele>178.0</ele><time>2026-03-22T13:35:14.221Z</time></trkpt><trkpt lat="45.4948633" lon="8.4593433"><ele>178.0</ele><time>2026-03-22T13:35:15.221Z</time></trkpt><trkpt lat="45.494925" lon="8.4594017"><ele>178.0</ele><time>2026-03-22T13:35:16.221Z</time></trkpt><trkpt lat="45.4949933" lon="8.459455"><ele>178.0</ele><time>2026-03-22T13:35:17.221Z</time></trkpt><trkpt lat="45.4950517" lon="8.4595183"><ele>178.0</ele><time>2026-03-22T13:35:18.221Z</time></trkpt><trkpt lat="45.495115" lon="8.459585"><ele>178.0</ele><time>2026-03-22T13:35:19.221Z</time></trkpt><trkpt lat="45.4951683" lon="8.45965"><ele>178.0</ele><time>2026-03-22T13:35:20.221Z</time></trkpt><trkpt lat="45.4952183" lon="8.4597233"><ele>178.0</ele><time>2026-03-22T13:35:21.221Z</time></trkpt><trkpt lat="45.49527" lon="8.4598083"><ele>178.0</ele><time>2026-03-22T13:35:22.221Z</time></trkpt><trkpt lat="45.4953267" lon="8.45988"><ele>178.0</ele><time>2026-03-22T13:35:23.221Z</time></trkpt><trkpt lat="45.49539" lon="8.459955"><ele>178.0</ele><time>2026-03-22T13:35:24.221Z</time></trkpt><trkpt lat="45.4954583" lon="8.46003"><ele>178.0</ele><time>2026-03-22T13:35:25.221Z</time></trkpt><trkpt lat="45.4955267" lon="8.4601033"><ele>178.0</ele><time>2026-03-22T13:35:26.221Z</time></trkpt><trkpt lat="45.4955967" lon="8.460185"><ele>178.0</ele><time>2026-03-22T13:35:27.221Z</time></trkpt><trkpt lat="45.495665" lon="8.4602783"><ele>178.0</ele><time>2026-03-22T13:35:28.221Z</time></trkpt><trkpt lat="45.4957383" lon="8.4603767"><ele>178.0</ele><time>2026-03-22T13:35:29.221Z</time></trkpt><trkpt lat="45.495815" lon="8.46048"><ele>178.0</ele><time>2026-03-22T13:35:30.221Z</time></trkpt><trkpt lat="45.4958933" lon="8.4605817"><ele>178.0</ele><time>2026-03-22T13:35:31.221Z</time></trkpt><trkpt lat="45.49597" lon="8.4606867"><ele>178.0</ele><time>2026-03-22T13:35:32.221Z</time></trkpt><trkpt lat="45.4960433" lon="8.4607817"><ele>178.0</ele><time>2026-03-22T13:35:33.221Z</time></trkpt><trkpt lat="45.4961333" lon="8.4608667"><ele>178.0</ele><time>2026-03-22T13:35:34.221Z</time></trkpt><trkpt lat="45.4962067" lon="8.46095"><ele>178.0</ele><time>2026-03-22T13:35:35.221Z</time></trkpt><trkpt lat="45.4962833" lon="8.4610217"><ele>178.0</ele><time>2026-03-22T13:35:36.221Z</time></trkpt><trkpt lat="45.4963483" lon="8.46109"><ele>178.0</ele><time>2026-03-22T13:35:37.221Z</time></trkpt><trkpt lat="45.4964083" lon="8.4611533"><ele>178.0</ele><time>2026-03-22T13:35:38.221Z</time></trkpt><trkpt lat="45.4964517" lon="8.46122"><ele>177.8</ele><time>2026-03-22T13:35:39.221Z</time></trkpt><trkpt lat="45.4965217" lon="8.461355"><ele>177.60000000000002</ele><time>2026-03-22T13:35:41.221Z</time></trkpt><trkpt lat="45.4965917" lon="8.461425"><ele>177.39999999999998</ele><time>2026-03-22T13:35:43.221Z</time></trkpt><trkpt lat="45.49665" lon="8.4613167"><ele>177.2</ele><time>2026-03-22T13:35:45.221Z</time></trkpt><trkpt lat="45.4966783" lon="8.4612117"><ele>177.0</ele><time>2026-03-22T13:35:46.221Z</time></trkpt><trkpt lat="45.4967167" lon="8.46109"><ele>177.0</ele><time>2026-03-22T13:35:47.221Z</time></trkpt><trkpt lat="45.496765" lon="8.4609517"><ele>177.0</ele><time>2026-03-22T13:35:48.221Z</time></trkpt><trkpt lat="45.496835" lon="8.4608033"><ele>177.0</ele><time>2026-03-22T13:35:49.221Z</time></trkpt><trkpt lat="45.4969033" lon="8.46065"><ele>177.0</ele><time>2026-03-22T13:35:50.221Z</time></trkpt><trkpt lat="45.496985" lon="8.4604833"><ele>177.0</ele><time>2026-03-22T13:35:51.221Z</time></trkpt><trkpt lat="45.4970767" lon="8.460305"><ele>177.0</ele><time>2026-03-22T13:35:52.221Z</time></trkpt><trkpt lat="45.4971667" lon="8.4601383"><ele>177.0</ele><time>2026-03-22T13:35:53.221Z</time></trkpt><trkpt lat="45.49725" lon="8.45996"><ele>177.25</ele><time>2026-03-22T13:35:54.221Z</time></trkpt><trkpt lat="45.4973383" lon="8.45978"><ele>177.5</ele><time>2026-03-22T13:35:55.221Z</time></trkpt><trkpt lat="45.497435" lon="8.4596083"><ele>177.75</ele><time>2026-03-22T13:35:56.221Z</time></trkpt><trkpt lat="45.4975283" lon="8.4594583"><ele>178.0</ele><time>2026-03-22T13:35:57.221Z</time></trkpt><trkpt lat="45.4976083" lon="8.4593317"><ele>178.0</ele><time>2026-03-22T13:35:58.221Z</time></trkpt><trkpt lat="45.4976983" lon="8.4592267"><ele>178.0</ele><time>2026-03-22T13:35:59.221Z</time></trkpt><trkpt lat="45.4977933" lon="8.4591517"><ele>178.0</ele><time>2026-03-22T13:36:00.221Z</time></trkpt><trkpt lat="45.4978833" lon="8.45909"><ele>178.0</ele><time>2026-03-22T13:36:01.221Z</time></trkpt><trkpt lat="45.4979717" lon="8.4590567"><ele>178.0</ele><time>2026-03-22T13:36:02.221Z</time></trkpt><trkpt lat="45.498055" lon="8.4590383"><ele>178.0</ele><time>2026-03-22T13:36:03.221Z</time></trkpt><trkpt lat="45.4981333" lon="8.45904"><ele>178.0</ele><time>2026-03-22T13:36:04.221Z</time></trkpt><trkpt lat="45.4982167" lon="8.4590717"><ele>178.0</ele><time>2026-03-22T13:36:05.221Z</time></trkpt><trkpt lat="45.4982917" lon="8.4591633"><ele>178.0</ele><time>2026-03-22T13:36:06.221Z</time></trkpt><trkpt lat="45.4983533" lon="8.4592667"><ele>178.0</ele><time>2026-03-22T13:36:07.221Z</time></trkpt><trkpt lat="45.4984167" lon="8.4593483"><ele>178.0</ele><time>2026-03-22T13:36:08.221Z</time></trkpt><trkpt lat="45.4984783" lon="8.4593967"><ele>178.0</ele><time>2026-03-22T13:36:09.221Z</time></trkpt><trkpt lat="45.498545" lon="8.459415"><ele>178.0</ele><time>2026-03-22T13:36:10.221Z</time></trkpt><trkpt lat="45.498615" lon="8.45936"><ele>178.0</ele><time>2026-03-22T13:36:11.221Z</time></trkpt><trkpt lat="45.498765" lon="8.4591283"><ele>178.0</ele><time>2026-03-22T13:36:13.221Z</time></trkpt><trkpt lat="45.49884" lon="8.4589933"><ele>178.25</ele><time>2026-03-22T13:36:14.221Z</time></trkpt><trkpt lat="45.4989167" lon="8.4588533"><ele>178.5</ele><time>2026-03-22T13:36:15.221Z</time></trkpt><trkpt lat="45.498995" lon="8.458705"><ele>178.75</ele><time>2026-03-22T13:36:16.221Z</time></trkpt><trkpt lat="45.4990767" lon="8.458565"><ele>179.0</ele><time>2026-03-22T13:36:17.221Z</time></trkpt><trkpt lat="45.4991533" lon="8.458425"><ele>178.75</ele><time>2026-03-22T13:36:18.221Z</time></trkpt><trkpt lat="45.4992417" lon="8.4582817"><ele>178.5</ele><time>2026-03-22T13:36:19.221Z</time></trkpt><trkpt lat="45.499325" lon="8.4581433"><ele>178.25</ele><time>2026-03-22T13:36:20.221Z</time></trkpt><trkpt lat="45.4994183" lon="8.4580067"><ele>178.0</ele><time>2026-03-22T13:36:21.221Z</time></trkpt><trkpt lat="45.4995083" lon="8.4578783"><ele>178.0</ele><time>2026-03-22T13:36:22.221Z</time></trkpt><trkpt lat="45.4996" lon="8.4577567"><ele>178.0</ele><time>2026-03-22T13:36:23.221Z</time></trkpt><trkpt lat="45.499705" lon="8.4576467"><ele>178.0</ele><time>2026-03-22T13:36:24.221Z</time></trkpt><trkpt lat="45.49981" lon="8.4575783"><ele>178.0</ele><time>2026-03-22T13:36:25.221Z</time></trkpt><trkpt lat="45.4999267" lon="8.4575367"><ele>178.0</ele><time>2026-03-22T13:36:26.221Z</time></trkpt><trkpt lat="45.5000583" lon="8.4575233"><ele>178.0</ele><time>2026-03-22T13:36:27.221Z</time></trkpt><trkpt lat="45.5001967" lon="8.4575367"><ele>178.0</ele><time>2026-03-22T13:36:28.221Z</time></trkpt><trkpt lat="45.5003283" lon="8.4575433"><ele>178.0</ele><time>2026-03-22T13:36:29.221Z</time></trkpt><trkpt lat="45.5004633" lon="8.4575383"><ele>178.0</ele><time>2026-03-22T13:36:30.221Z</time></trkpt><trkpt lat="45.5005917" lon="8.4575133"><ele>178.0</ele><time>2026-03-22T13:36:31.221Z</time></trkpt><trkpt lat="45.5007217" lon="8.4574783"><ele>178.0</ele><time>2026-03-22T13:36:32.221Z</time></trkpt><trkpt lat="45.5008617" lon="8.4574317"><ele>178.0</ele><time>2026-03-22T13:36:33.221Z</time></trkpt><trkpt lat="45.5009917" lon="8.45736"><ele>178.0</ele><time>2026-03-22T13:36:34.221Z</time></trkpt><trkpt lat="45.50112" lon="8.4572767"><ele>178.0</ele><time>2026-03-22T13:36:35.221Z</time></trkpt><trkpt lat="45.5012567" lon="8.4571883"><ele>178.0</ele><time>2026-03-22T13:36:36.222Z</time></trkpt><trkpt lat="45.5013817" lon="8.4571033"><ele>178.0</ele><time>2026-03-22T13:36:37.221Z</time></trkpt><trkpt lat="45.501515" lon="8.4570217"><ele>178.0</ele><time>2026-03-22T13:36:38.221Z</time></trkpt><trkpt lat="45.501645" lon="8.4569333"><ele>178.0</ele><time>2026-03-22T13:36:39.221Z</time></trkpt><trkpt lat="45.50178" lon="8.4568417"><ele>178.0</ele><time>2026-03-22T13:36:40.221Z</time></trkpt><trkpt lat="45.5019117" lon="8.456755"><ele>178.0</ele><time>2026-03-22T13:36:41.221Z</time></trkpt><trkpt lat="45.5020433" lon="8.4566633"><ele>178.33333333333334</ele><time>2026-03-22T13:36:42.221Z</time></trkpt><trkpt lat="45.5021767" lon="8.4565733"><ele>178.66666666666666</ele><time>2026-03-22T13:36:43.221Z</time></trkpt><trkpt lat="45.5023183" lon="8.4564567"><ele>179.0</ele><time>2026-03-22T13:36:44.221Z</time></trkpt><trkpt lat="45.5024633" lon="8.4563367"><ele>178.66666666666666</ele><time>2026-03-22T13:36:45.221Z</time></trkpt><trkpt lat="45.5026133" lon="8.45622"><ele>178.33333333333334</ele><time>2026-03-22T13:36:46.221Z</time></trkpt><trkpt lat="45.5027567" lon="8.45611"><ele>178.0</ele><time>2026-03-22T13:36:47.221Z</time></trkpt><trkpt lat="45.5028933" lon="8.456005"><ele>178.33333333333334</ele><time>2026-03-22T13:36:48.221Z</time></trkpt><trkpt lat="45.50303" lon="8.4558883"><ele>178.66666666666666</ele><time>2026-03-22T13:36:49.221Z</time></trkpt><trkpt lat="45.50316" lon="8.4557817"><ele>179.0</ele><time>2026-03-22T13:36:50.221Z</time></trkpt><trkpt lat="45.5032917" lon="8.4556783"><ele>179.0</ele><time>2026-03-22T13:36:51.221Z</time></trkpt><trkpt lat="45.5034233" lon="8.455575"><ele>179.0</ele><time>2026-03-22T13:36:52.221Z</time></trkpt><trkpt lat="45.5035567" lon="8.4554733"><ele>179.0</ele><time>2026-03-22T13:36:53.221Z</time></trkpt><trkpt lat="45.5036933" lon="8.455375"><ele>179.33333333333331</ele><time>2026-03-22T13:36:54.221Z</time></trkpt><trkpt lat="45.5038283" lon="8.455265"><ele>179.66666666666666</ele><time>2026-03-22T13:36:55.221Z</time></trkpt><trkpt lat="45.50396" lon="8.4551667"><ele>180.0</ele><time>2026-03-22T13:36:56.221Z</time></trkpt><trkpt lat="45.5040883" lon="8.4550617"><ele>180.0</ele><time>2026-03-22T13:36:57.221Z</time></trkpt><trkpt lat="45.5042" lon="8.4549767"><ele>180.0</ele><time>2026-03-22T13:36:58.221Z</time></trkpt><trkpt lat="45.5042917" lon="8.4549067"><ele>180.0</ele><time>2026-03-22T13:36:59.221Z</time></trkpt><trkpt lat="45.5043683" lon="8.45484"><ele>180.0</ele><time>2026-03-22T13:37:00.222Z</time></trkpt><trkpt lat="45.50443" lon="8.45479"><ele>180.0</ele><time>2026-03-22T13:37:01.221Z</time></trkpt><trkpt lat="45.504525" lon="8.4547467"><ele>180.25</ele><time>2026-03-22T13:37:03.221Z</time></trkpt><trkpt lat="45.50461" lon="8.4548233"><ele>180.5</ele><time>2026-03-22T13:37:05.221Z</time></trkpt><trkpt lat="45.50464" lon="8.45492"><ele>180.75</ele><time>2026-03-22T13:37:06.221Z</time></trkpt><trkpt lat="45.504695" lon="8.4552133"><ele>181.0</ele><time>2026-03-22T13:37:08.221Z</time></trkpt><trkpt lat="45.5047317" lon="8.4554017"><ele>180.75</ele><time>2026-03-22T13:37:09.221Z</time></trkpt><trkpt lat="45.50477" lon="8.4555983"><ele>180.5</ele><time>2026-03-22T13:37:10.221Z</time></trkpt><trkpt lat="45.5048083" lon="8.455805"><ele>180.25</ele><time>2026-03-22T13:37:11.221Z</time></trkpt><trkpt lat="45.5048633" lon="8.45601"><ele>180.0</ele><time>2026-03-22T13:37:12.221Z</time></trkpt><trkpt lat="45.50492" lon="8.4562233"><ele>179.66666666666666</ele><time>2026-03-22T13:37:13.221Z</time></trkpt><trkpt lat="45.5049733" lon="8.456435"><ele>179.33333333333331</ele><time>2026-03-22T13:37:14.221Z</time></trkpt><trkpt lat="45.5050333" lon="8.4566417"><ele>179.0</ele><time>2026-03-22T13:37:15.221Z</time></trkpt><trkpt lat="45.5050867" lon="8.4568667"><ele>179.0</ele><time>2026-03-22T13:37:16.221Z</time></trkpt><trkpt lat="45.5051433" lon="8.4570833"><ele>179.0</ele><time>2026-03-22T13:37:17.221Z</time></trkpt><trkpt lat="45.5051983" lon="8.4573067"><ele>179.0</ele><time>2026-03-22T13:37:18.221Z</time></trkpt><trkpt lat="45.5052533" lon="8.4575317"><ele>179.0</ele><time>2026-03-22T13:37:19.221Z</time></trkpt><trkpt lat="45.505315" lon="8.4577583"><ele>179.0</ele><time>2026-03-22T13:37:20.221Z</time></trkpt><trkpt lat="45.5053717" lon="8.4579883"><ele>179.0</ele><time>2026-03-22T13:37:21.221Z</time></trkpt><trkpt lat="45.5054283" lon="8.458215"><ele>179.0</ele><time>2026-03-22T13:37:22.221Z</time></trkpt><trkpt lat="45.5054833" lon="8.4584367"><ele>179.0</ele><time>2026-03-22T13:37:23.221Z</time></trkpt><trkpt lat="45.50554" lon="8.4586667"><ele>179.0</ele><time>2026-03-22T13:37:24.221Z</time></trkpt><trkpt lat="45.5055967" lon="8.45889"><ele>179.0</ele><time>2026-03-22T13:37:25.221Z</time></trkpt><trkpt lat="45.5056567" lon="8.4591117"><ele>179.0</ele><time>2026-03-22T13:37:26.221Z</time></trkpt><trkpt lat="45.5057117" lon="8.45933"><ele>179.0</ele><time>2026-03-22T13:37:27.221Z</time></trkpt><trkpt lat="45.5057633" lon="8.4595567"><ele>178.66666666666666</ele><time>2026-03-22T13:37:28.221Z</time></trkpt><trkpt lat="45.5058217" lon="8.45978"><ele>178.33333333333334</ele><time>2026-03-22T13:37:29.221Z</time></trkpt><trkpt lat="45.5058767" lon="8.4599983"><ele>178.0</ele><time>2026-03-22T13:37:30.221Z</time></trkpt><trkpt lat="45.5059317" lon="8.46022"><ele>178.0</ele><time>2026-03-22T13:37:31.221Z</time></trkpt><trkpt lat="45.5059883" lon="8.4604483"><ele>178.0</ele><time>2026-03-22T13:37:32.221Z</time></trkpt><trkpt lat="45.5060433" lon="8.46068"><ele>178.0</ele><time>2026-03-22T13:37:33.221Z</time></trkpt><trkpt lat="45.5060967" lon="8.4609117"><ele>178.33333333333334</ele><time>2026-03-22T13:37:34.221Z</time></trkpt><trkpt lat="45.5061583" lon="8.461135"><ele>178.66666666666666</ele><time>2026-03-22T13:37:35.221Z</time></trkpt><trkpt lat="45.5062167" lon="8.461355"><ele>179.0</ele><time>2026-03-22T13:37:36.221Z</time></trkpt><trkpt lat="45.5062717" lon="8.4615917"><ele>179.33333333333331</ele><time>2026-03-22T13:37:37.221Z</time></trkpt><trkpt lat="45.5063283" lon="8.461815"><ele>179.66666666666666</ele><time>2026-03-22T13:37:38.221Z</time></trkpt><trkpt lat="45.506395" lon="8.462055"><ele>180.0</ele><time>2026-03-22T13:37:39.221Z</time></trkpt><trkpt lat="45.506455" lon="8.4622833"><ele>180.0</ele><time>2026-03-22T13:37:40.221Z</time></trkpt><trkpt lat="45.5065067" lon="8.462515"><ele>180.0</ele><time>2026-03-22T13:37:41.221Z</time></trkpt><trkpt lat="45.506555" lon="8.462755"><ele>180.0</ele><time>2026-03-22T13:37:42.221Z</time></trkpt><trkpt lat="45.5066133" lon="8.4629783"><ele>180.0</ele><time>2026-03-22T13:37:43.221Z</time></trkpt><trkpt lat="45.506665" lon="8.463205"><ele>180.0</ele><time>2026-03-22T13:37:44.221Z</time></trkpt><trkpt lat="45.50672" lon="8.46342"><ele>180.0</ele><time>2026-03-22T13:37:45.221Z</time></trkpt><trkpt lat="45.5067733" lon="8.46365"><ele>180.33333333333334</ele><time>2026-03-22T13:37:46.221Z</time></trkpt><trkpt lat="45.506825" lon="8.4638467"><ele>180.66666666666669</ele><time>2026-03-22T13:37:47.221Z</time></trkpt><trkpt lat="45.5068783" lon="8.4640567"><ele>181.0</ele><time>2026-03-22T13:37:48.221Z</time></trkpt><trkpt lat="45.5069267" lon="8.4642633"><ele>181.0</ele><time>2026-03-22T13:37:49.221Z</time></trkpt><trkpt lat="45.506975" lon="8.4644617"><ele>181.0</ele><time>2026-03-22T13:37:50.221Z</time></trkpt><trkpt lat="45.5070133" lon="8.464645"><ele>181.0</ele><time>2026-03-22T13:37:51.221Z</time></trkpt><trkpt lat="45.507055" lon="8.4648133"><ele>181.0</ele><time>2026-03-22T13:37:52.221Z</time></trkpt><trkpt lat="45.5070967" lon="8.46497"><ele>180.8</ele><time>2026-03-22T13:37:53.221Z</time></trkpt><trkpt lat="45.507135" lon="8.4651"><ele>180.60000000000002</ele><time>2026-03-22T13:37:54.221Z</time></trkpt><trkpt lat="45.5071683" lon="8.4652267"><ele>180.4</ele><time>2026-03-22T13:37:55.221Z</time></trkpt><trkpt lat="45.5071983" lon="8.4653533"><ele>180.2</ele><time>2026-03-22T13:37:56.221Z</time></trkpt><trkpt lat="45.5072267" lon="8.4654817"><ele>180.0</ele><time>2026-03-22T13:37:57.221Z</time></trkpt><trkpt lat="45.507255" lon="8.46561"><ele>180.0</ele><time>2026-03-22T13:37:58.221Z</time></trkpt><trkpt lat="45.5072883" lon="8.4657417"><ele>180.0</ele><time>2026-03-22T13:37:59.221Z</time></trkpt><trkpt lat="45.507335" lon="8.4658917"><ele>180.0</ele><time>2026-03-22T13:38:00.221Z</time></trkpt><trkpt lat="45.507385" lon="8.466065"><ele>180.0</ele><time>2026-03-22T13:38:01.221Z</time></trkpt><trkpt lat="45.5074233" lon="8.4662417"><ele>180.5</ele><time>2026-03-22T13:38:02.221Z</time></trkpt><trkpt lat="45.5074667" lon="8.4664283"><ele>181.0</ele><time>2026-03-22T13:38:03.221Z</time></trkpt><trkpt lat="45.507515" lon="8.4666117"><ele>181.5</ele><time>2026-03-22T13:38:04.221Z</time></trkpt><trkpt lat="45.5075633" lon="8.4667933"><ele>182.0</ele><time>2026-03-22T13:38:05.221Z</time></trkpt><trkpt lat="45.50761" lon="8.46698"><ele>182.25</ele><time>2026-03-22T13:38:06.221Z</time></trkpt><trkpt lat="45.50766" lon="8.4671833"><ele>182.5</ele><time>2026-03-22T13:38:07.221Z</time></trkpt><trkpt lat="45.5077017" lon="8.4673633"><ele>182.75</ele><time>2026-03-22T13:38:08.221Z</time></trkpt><trkpt lat="45.5077417" lon="8.46752"><ele>183.0</ele><time>2026-03-22T13:38:09.221Z</time></trkpt><trkpt lat="45.5077733" lon="8.467655"><ele>183.0</ele><time>2026-03-22T13:38:10.221Z</time></trkpt><trkpt lat="45.5077983" lon="8.46776"><ele>183.0</ele><time>2026-03-22T13:38:11.221Z</time></trkpt><trkpt lat="45.507815" lon="8.4678467"><ele>183.0</ele><time>2026-03-22T13:38:12.221Z</time></trkpt><trkpt lat="45.5077967" lon="8.4679483"><ele>183.0</ele><time>2026-03-22T13:38:14.221Z</time></trkpt><trkpt lat="45.507705" lon="8.4680017"><ele>183.0</ele><time>2026-03-22T13:38:16.221Z</time></trkpt><trkpt lat="45.50755" lon="8.4680883"><ele>183.2</ele><time>2026-03-22T13:38:18.221Z</time></trkpt><trkpt lat="45.5074533" lon="8.4681517"><ele>183.4</ele><time>2026-03-22T13:38:19.222Z</time></trkpt><trkpt lat="45.5073533" lon="8.46822"><ele>183.6</ele><time>2026-03-22T13:38:20.221Z</time></trkpt><trkpt lat="45.5072567" lon="8.4682883"><ele>183.79999999999998</ele><time>2026-03-22T13:38:21.221Z</time></trkpt><trkpt lat="45.5071567" lon="8.4683683"><ele>184.0</ele><time>2026-03-22T13:38:22.221Z</time></trkpt><trkpt lat="45.5070317" lon="8.4684533"><ele>184.0</ele><time>2026-03-22T13:38:23.221Z</time></trkpt><trkpt lat="45.5068867" lon="8.4685583"><ele>184.0</ele><time>2026-03-22T13:38:24.221Z</time></trkpt><trkpt lat="45.5067433" lon="8.4686633"><ele>184.0</ele><time>2026-03-22T13:38:25.221Z</time></trkpt><trkpt lat="45.5065967" lon="8.4687617"><ele>183.0</ele><time>2026-03-22T13:38:26.221Z</time></trkpt><trkpt lat="45.5064483" lon="8.4688683"><ele>182.0</ele><time>2026-03-22T13:38:27.221Z</time></trkpt><trkpt lat="45.5063067" lon="8.468975"><ele>181.0</ele><time>2026-03-22T13:38:28.221Z</time></trkpt><trkpt lat="45.5061633" lon="8.4690783"><ele>180.33333333333334</ele><time>2026-03-22T13:38:29.221Z</time></trkpt><trkpt lat="45.5060117" lon="8.469175"><ele>179.66666666666666</ele><time>2026-03-22T13:38:30.221Z</time></trkpt><trkpt lat="45.5058683" lon="8.4692767"><ele>179.0</ele><time>2026-03-22T13:38:31.222Z</time></trkpt><trkpt lat="45.5057183" lon="8.469375"><ele>179.0</ele><time>2026-03-22T13:38:32.221Z</time></trkpt><trkpt lat="45.50557" lon="8.469485"><ele>179.0</ele><time>2026-03-22T13:38:33.221Z</time></trkpt><trkpt lat="45.5054217" lon="8.4695967"><ele>179.0</ele><time>2026-03-22T13:38:34.221Z</time></trkpt><trkpt lat="45.505135" lon="8.469805"><ele>179.0</ele><time>2026-03-22T13:38:36.221Z</time></trkpt><trkpt lat="45.5049967" lon="8.4699167"><ele>179.0</ele><time>2026-03-22T13:38:37.221Z</time></trkpt><trkpt lat="45.5048467" lon="8.4700117"><ele>179.0</ele><time>2026-03-22T13:38:38.221Z</time></trkpt><trkpt lat="45.5046983" lon="8.4701083"><ele>179.0</ele><time>2026-03-22T13:38:39.221Z</time></trkpt><trkpt lat="45.5045683" lon="8.4702117"><ele>179.0</ele><time>2026-03-22T13:38:40.221Z</time></trkpt><trkpt lat="45.50444" lon="8.47033"><ele>179.0</ele><time>2026-03-22T13:38:41.221Z</time></trkpt><trkpt lat="45.5043117" lon="8.4704733"><ele>178.75</ele><time>2026-03-22T13:38:42.221Z</time></trkpt><trkpt lat="45.5042033" lon="8.47061"><ele>178.5</ele><time>2026-03-22T13:38:43.221Z</time></trkpt><trkpt lat="45.5040983" lon="8.4707383"><ele>178.25</ele><time>2026-03-22T13:38:44.221Z</time></trkpt><trkpt lat="45.504005" lon="8.47086"><ele>178.0</ele><time>2026-03-22T13:38:45.221Z</time></trkpt><trkpt lat="45.503915" lon="8.4709867"><ele>178.0</ele><time>2026-03-22T13:38:46.221Z</time></trkpt><trkpt lat="45.50384" lon="8.4710933"><ele>178.0</ele><time>2026-03-22T13:38:47.221Z</time></trkpt><trkpt lat="45.50376" lon="8.4712033"><ele>178.0</ele><time>2026-03-22T13:38:48.221Z</time></trkpt><trkpt lat="45.50368" lon="8.4713"><ele>178.0</ele><time>2026-03-22T13:38:49.221Z</time></trkpt><trkpt lat="45.5036267" lon="8.4714167"><ele>178.0</ele><time>2026-03-22T13:38:50.221Z</time></trkpt><trkpt lat="45.50359" lon="8.4715267"><ele>178.2</ele><time>2026-03-22T13:38:51.221Z</time></trkpt><trkpt lat="45.5035817" lon="8.4716517"><ele>178.4</ele><time>2026-03-22T13:38:52.221Z</time></trkpt><trkpt lat="45.5035967" lon="8.4717883"><ele>178.6</ele><time>2026-03-22T13:38:53.221Z</time></trkpt><trkpt lat="45.5036483" lon="8.4719283"><ele>178.79999999999998</ele><time>2026-03-22T13:38:54.221Z</time></trkpt><trkpt lat="45.5037283" lon="8.47207"><ele>179.0</ele><time>2026-03-22T13:38:55.221Z</time></trkpt><trkpt lat="45.5038183" lon="8.4721967"><ele>179.0</ele><time>2026-03-22T13:38:56.221Z</time></trkpt><trkpt lat="45.5039067" lon="8.4723333"><ele>179.0</ele><time>2026-03-22T13:38:57.221Z</time></trkpt><trkpt lat="45.5039867" lon="8.4724467"><ele>179.0</ele><time>2026-03-22T13:38:58.221Z</time></trkpt><trkpt lat="45.5040583" lon="8.4725583"><ele>179.0</ele><time>2026-03-22T13:38:59.221Z</time></trkpt><trkpt lat="45.5041217" lon="8.4726483"><ele>179.0</ele><time>2026-03-22T13:39:00.221Z</time></trkpt><trkpt lat="45.5041733" lon="8.4727383"><ele>179.0</ele><time>2026-03-22T13:39:01.221Z</time></trkpt><trkpt lat="45.5042233" lon="8.4728183"><ele>179.0</ele><time>2026-03-22T13:39:02.22Z</time></trkpt><trkpt lat="45.50427" lon="8.4729567"><ele>179.0</ele><time>2026-03-22T13:39:04.22Z</time></trkpt><trkpt lat="45.5043133" lon="8.473135"><ele>179.0</ele><time>2026-03-22T13:39:06.22Z</time></trkpt><trkpt lat="45.5043533" lon="8.4732467"><ele>179.0</ele><time>2026-03-22T13:39:07.22Z</time></trkpt><trkpt lat="45.5044117" lon="8.4733533"><ele>179.0</ele><time>2026-03-22T13:39:08.22Z</time></trkpt><trkpt lat="45.5044817" lon="8.4734617"><ele>179.0</ele><time>2026-03-22T13:39:09.22Z</time></trkpt><trkpt lat="45.5047283" lon="8.4738133"><ele>179.0</ele><time>2026-03-22T13:39:12.22Z</time></trkpt><trkpt lat="45.5048117" lon="8.4739417"><ele>179.0</ele><time>2026-03-22T13:39:13.22Z</time></trkpt><trkpt lat="45.5048933" lon="8.47409"><ele>179.0</ele><time>2026-03-22T13:39:14.22Z</time></trkpt><trkpt lat="45.5050667" lon="8.4743617"><ele>179.0</ele><time>2026-03-22T13:39:16.22Z</time></trkpt><trkpt lat="45.5051583" lon="8.4744983"><ele>179.0</ele><time>2026-03-22T13:39:17.22Z</time></trkpt><trkpt lat="45.5052483" lon="8.47464"><ele>179.0</ele><time>2026-03-22T13:39:18.22Z</time></trkpt><trkpt lat="45.5054417" lon="8.4749333"><ele>178.75</ele><time>2026-03-22T13:39:20.22Z</time></trkpt><trkpt lat="45.50554" lon="8.4750917"><ele>178.5</ele><time>2026-03-22T13:39:21.22Z</time></trkpt><trkpt lat="45.5056417" lon="8.4752483"><ele>178.25</ele><time>2026-03-22T13:39:22.22Z</time></trkpt><trkpt lat="45.5057367" lon="8.4753983"><ele>178.0</ele><time>2026-03-22T13:39:23.22Z</time></trkpt><trkpt lat="45.5058283" lon="8.4755467"><ele>178.0</ele><time>2026-03-22T13:39:24.22Z</time></trkpt><trkpt lat="45.5059183" lon="8.4756833"><ele>178.0</ele><time>2026-03-22T13:39:25.22Z</time></trkpt><trkpt lat="45.5060033" lon="8.4758083"><ele>178.0</ele><time>2026-03-22T13:39:26.22Z</time></trkpt><trkpt lat="45.5060833" lon="8.4759267"><ele>178.0</ele><time>2026-03-22T13:39:27.22Z</time></trkpt><trkpt lat="45.5061633" lon="8.476045"><ele>178.0</ele><time>2026-03-22T13:39:28.22Z</time></trkpt><trkpt lat="45.50623" lon="8.476155"><ele>178.0</ele><time>2026-03-22T13:39:29.22Z</time></trkpt><trkpt lat="45.5062917" lon="8.476245"><ele>178.0</ele><time>2026-03-22T13:39:30.22Z</time></trkpt><trkpt lat="45.5063533" lon="8.4763333"><ele>178.0</ele><time>2026-03-22T13:39:31.22Z</time></trkpt><trkpt lat="45.5064067" lon="8.47642"><ele>178.0</ele><time>2026-03-22T13:39:32.22Z</time></trkpt><trkpt lat="45.5064633" lon="8.4764917"><ele>178.0</ele><time>2026-03-22T13:39:33.22Z</time></trkpt><trkpt lat="45.5065033" lon="8.4765967"><ele>178.0</ele><time>2026-03-22T13:39:35.22Z</time></trkpt><trkpt lat="45.506405" lon="8.4766633"><ele>178.0</ele><time>2026-03-22T13:39:38.22Z</time></trkpt><trkpt lat="45.506335" lon="8.4766583"><ele>178.0</ele><time>2026-03-22T13:39:39.22Z</time></trkpt><trkpt lat="45.5062533" lon="8.4766667"><ele>178.0</ele><time>2026-03-22T13:39:40.22Z</time></trkpt><trkpt lat="45.5061667" lon="8.4766867"><ele>178.0</ele><time>2026-03-22T13:39:41.22Z</time></trkpt><trkpt lat="45.5060783" lon="8.476715"><ele>178.0</ele><time>2026-03-22T13:39:42.22Z</time></trkpt><trkpt lat="45.50598" lon="8.4767567"><ele>178.0</ele><time>2026-03-22T13:39:43.22Z</time></trkpt><trkpt lat="45.50589" lon="8.4768167"><ele>178.0</ele><time>2026-03-22T13:39:44.22Z</time></trkpt><trkpt lat="45.5057983" lon="8.4768983"><ele>178.0</ele><time>2026-03-22T13:39:45.22Z</time></trkpt><trkpt lat="45.505705" lon="8.47699"><ele>178.0</ele><time>2026-03-22T13:39:46.22Z</time></trkpt><trkpt lat="45.5055983" lon="8.4770617"><ele>178.0</ele><time>2026-03-22T13:39:47.22Z</time></trkpt><trkpt lat="45.505485" lon="8.4771133"><ele>178.0</ele><time>2026-03-22T13:39:48.22Z</time></trkpt><trkpt lat="45.5053683" lon="8.47716"><ele>178.0</ele><time>2026-03-22T13:39:49.22Z</time></trkpt><trkpt lat="45.5052533" lon="8.47721"><ele>178.0</ele><time>2026-03-22T13:39:50.22Z</time></trkpt><trkpt lat="45.50514" lon="8.4772517"><ele>178.0</ele><time>2026-03-22T13:39:51.22Z</time></trkpt><trkpt lat="45.5050317" lon="8.47729"><ele>178.0</ele><time>2026-03-22T13:39:52.22Z</time></trkpt><trkpt lat="45.5049267" lon="8.47733"><ele>178.0</ele><time>2026-03-22T13:39:53.22Z</time></trkpt><trkpt lat="45.5048183" lon="8.477375"><ele>178.0</ele><time>2026-03-22T13:39:54.22Z</time></trkpt><trkpt lat="45.5047133" lon="8.4774183"><ele>178.0</ele><time>2026-03-22T13:39:55.22Z</time></trkpt><trkpt lat="45.5046067" lon="8.47746"><ele>178.0</ele><time>2026-03-22T13:39:56.22Z</time></trkpt><trkpt lat="45.5045017" lon="8.4774933"><ele>178.2</ele><time>2026-03-22T13:39:57.22Z</time></trkpt><trkpt lat="45.5043983" lon="8.477525"><ele>178.4</ele><time>2026-03-22T13:39:58.22Z</time></trkpt><trkpt lat="45.5042917" lon="8.4775583"><ele>178.6</ele><time>2026-03-22T13:39:59.22Z</time></trkpt><trkpt lat="45.504185" lon="8.4775967"><ele>178.79999999999998</ele><time>2026-03-22T13:40:00.22Z</time></trkpt><trkpt lat="45.5040817" lon="8.4776317"><ele>179.0</ele><time>2026-03-22T13:40:01.22Z</time></trkpt><trkpt lat="45.5039883" lon="8.4776533"><ele>179.0</ele><time>2026-03-22T13:40:02.22Z</time></trkpt><trkpt lat="45.503905" lon="8.4776817"><ele>179.0</ele><time>2026-03-22T13:40:03.22Z</time></trkpt><trkpt lat="45.5038233" lon="8.4777033"><ele>179.0</ele><time>2026-03-22T13:40:04.22Z</time></trkpt><trkpt lat="45.50375" lon="8.4777183"><ele>179.0</ele><time>2026-03-22T13:40:05.22Z</time></trkpt><trkpt lat="45.5036817" lon="8.4777467"><ele>179.0</ele><time>2026-03-22T13:40:06.22Z</time></trkpt><trkpt lat="45.503615" lon="8.47778"><ele>179.0</ele><time>2026-03-22T13:40:07.22Z</time></trkpt><trkpt lat="45.503555" lon="8.4778167"><ele>179.0</ele><time>2026-03-22T13:40:08.22Z</time></trkpt><trkpt lat="45.5034683" lon="8.4779183"><ele>179.0</ele><time>2026-03-22T13:40:10.22Z</time></trkpt><trkpt lat="45.50346" lon="8.478095"><ele>179.0</ele><time>2026-03-22T13:40:12.22Z</time></trkpt><trkpt lat="45.5034783" lon="8.478195"><ele>179.0</ele><time>2026-03-22T13:40:13.22Z</time></trkpt><trkpt lat="45.5035017" lon="8.4782933"><ele>179.0</ele><time>2026-03-22T13:40:14.22Z</time></trkpt><trkpt lat="45.5035767" lon="8.47848"><ele>179.16666666666666</ele><time>2026-03-22T13:40:16.22Z</time></trkpt><trkpt lat="45.5036117" lon="8.4785767"><ele>179.33333333333331</ele><time>2026-03-22T13:40:17.22Z</time></trkpt><trkpt lat="45.5036467" lon="8.4786783"><ele>179.5</ele><time>2026-03-22T13:40:18.22Z</time></trkpt><trkpt lat="45.5036817" lon="8.4787767"><ele>179.66666666666666</ele><time>2026-03-22T13:40:19.22Z</time></trkpt><trkpt lat="45.5037217" lon="8.47889"><ele>179.83333333333334</ele><time>2026-03-22T13:40:20.22Z</time></trkpt><trkpt lat="45.503755" lon="8.479025"><ele>180.0</ele><time>2026-03-22T13:40:21.22Z</time></trkpt><trkpt lat="45.5037783" lon="8.4791667"><ele>179.6</ele><time>2026-03-22T13:40:22.22Z</time></trkpt><trkpt lat="45.5037917" lon="8.47931"><ele>179.2</ele><time>2026-03-22T13:40:23.22Z</time></trkpt><trkpt lat="45.5038067" lon="8.4794617"><ele>178.8</ele><time>2026-03-22T13:40:24.22Z</time></trkpt><trkpt lat="45.5038283" lon="8.4796217"><ele>178.4</ele><time>2026-03-22T13:40:25.22Z</time></trkpt><trkpt lat="45.5038633" lon="8.4797817"><ele>178.0</ele><time>2026-03-22T13:40:26.22Z</time></trkpt><trkpt lat="45.5039" lon="8.47994"><ele>178.0</ele><time>2026-03-22T13:40:27.22Z</time></trkpt><trkpt lat="45.5039367" lon="8.48011"><ele>178.0</ele><time>2026-03-22T13:40:28.22Z</time></trkpt><trkpt lat="45.50396" lon="8.4802783"><ele>178.0</ele><time>2026-03-22T13:40:29.22Z</time></trkpt><trkpt lat="45.5039817" lon="8.4804483"><ele>178.0</ele><time>2026-03-22T13:40:30.22Z</time></trkpt><trkpt lat="45.50402" lon="8.4806167"><ele>178.0</ele><time>2026-03-22T13:40:31.22Z</time></trkpt><trkpt lat="45.50407" lon="8.4807817"><ele>178.0</ele><time>2026-03-22T13:40:32.22Z</time></trkpt><trkpt lat="45.5041283" lon="8.480945"><ele>178.0</ele><time>2026-03-22T13:40:33.22Z</time></trkpt><trkpt lat="45.50419" lon="8.4811017"><ele>178.0</ele><time>2026-03-22T13:40:34.22Z</time></trkpt><trkpt lat="45.5042533" lon="8.481265"><ele>177.75</ele><time>2026-03-22T13:40:35.22Z</time></trkpt><trkpt lat="45.504315" lon="8.4814333"><ele>177.5</ele><time>2026-03-22T13:40:36.22Z</time></trkpt><trkpt lat="45.50437" lon="8.4816"><ele>177.25</ele><time>2026-03-22T13:40:37.22Z</time></trkpt><trkpt lat="45.504425" lon="8.481765"><ele>177.0</ele><time>2026-03-22T13:40:38.22Z</time></trkpt><trkpt lat="45.50448" lon="8.4819333"><ele>177.0</ele><time>2026-03-22T13:40:39.22Z</time></trkpt><trkpt lat="45.5045333" lon="8.4821017"><ele>177.0</ele><time>2026-03-22T13:40:40.22Z</time></trkpt><trkpt lat="45.504585" lon="8.4822683"><ele>177.0</ele><time>2026-03-22T13:40:41.22Z</time></trkpt><trkpt lat="45.5046367" lon="8.48243"><ele>177.0</ele><time>2026-03-22T13:40:42.22Z</time></trkpt><trkpt lat="45.504695" lon="8.4825883"><ele>177.0</ele><time>2026-03-22T13:40:43.22Z</time></trkpt><trkpt lat="45.504755" lon="8.4827433"><ele>177.0</ele><time>2026-03-22T13:40:44.22Z</time></trkpt><trkpt lat="45.5048167" lon="8.4829017"><ele>177.0</ele><time>2026-03-22T13:40:45.22Z</time></trkpt><trkpt lat="45.5048733" lon="8.4830717"><ele>177.0</ele><time>2026-03-22T13:40:46.22Z</time></trkpt><trkpt lat="45.5049217" lon="8.4832383"><ele>176.75</ele><time>2026-03-22T13:40:47.22Z</time></trkpt><trkpt lat="45.5049733" lon="8.4834"><ele>176.5</ele><time>2026-03-22T13:40:48.22Z</time></trkpt><trkpt lat="45.50504" lon="8.4835483"><ele>176.25</ele><time>2026-03-22T13:40:49.22Z</time></trkpt><trkpt lat="45.5051067" lon="8.4836983"><ele>176.0</ele><time>2026-03-22T13:40:50.22Z</time></trkpt><trkpt lat="45.50517" lon="8.48384"><ele>176.60000000000002</ele><time>2026-03-22T13:40:51.22Z</time></trkpt><trkpt lat="45.50521" lon="8.4839883"><ele>177.2</ele><time>2026-03-22T13:40:52.22Z</time></trkpt><trkpt lat="45.5052417" lon="8.4841267"><ele>177.8</ele><time>2026-03-22T13:40:53.22Z</time></trkpt><trkpt lat="45.5052633" lon="8.4842483"><ele>178.39999999999998</ele><time>2026-03-22T13:40:54.22Z</time></trkpt><trkpt lat="45.50529" lon="8.4843633"><ele>179.0</ele><time>2026-03-22T13:40:55.22Z</time></trkpt><trkpt lat="45.5053083" lon="8.484485"><ele>179.0</ele><time>2026-03-22T13:40:56.22Z</time></trkpt><trkpt lat="45.5053383" lon="8.4846067"><ele>179.0</ele><time>2026-03-22T13:40:57.22Z</time></trkpt><trkpt lat="45.50538" lon="8.48474"><ele>179.0</ele><time>2026-03-22T13:40:58.22Z</time></trkpt><trkpt lat="45.5054233" lon="8.48489"><ele>179.0</ele><time>2026-03-22T13:40:59.22Z</time></trkpt><trkpt lat="45.5054617" lon="8.4850517"><ele>179.0</ele><time>2026-03-22T13:41:00.22Z</time></trkpt><trkpt lat="45.5054883" lon="8.48522"><ele>178.75</ele><time>2026-03-22T13:41:01.22Z</time></trkpt><trkpt lat="45.505505" lon="8.485395"><ele>178.5</ele><time>2026-03-22T13:41:02.22Z</time></trkpt><trkpt lat="45.5055183" lon="8.48557"><ele>178.25</ele><time>2026-03-22T13:41:03.22Z</time></trkpt><trkpt lat="45.5055283" lon="8.4857517"><ele>178.0</ele><time>2026-03-22T13:41:04.22Z</time></trkpt><trkpt lat="45.505535" lon="8.4859317"><ele>178.0</ele><time>2026-03-22T13:41:05.22Z</time></trkpt><trkpt lat="45.5055367" lon="8.486125"><ele>178.0</ele><time>2026-03-22T13:41:06.22Z</time></trkpt><trkpt lat="45.5055433" lon="8.486315"><ele>178.0</ele><time>2026-03-22T13:41:07.22Z</time></trkpt><trkpt lat="45.5055717" lon="8.4865033"><ele>178.0</ele><time>2026-03-22T13:41:08.22Z</time></trkpt><trkpt lat="45.5056133" lon="8.4866817"><ele>178.25</ele><time>2026-03-22T13:41:09.22Z</time></trkpt><trkpt lat="45.5056683" lon="8.4868633"><ele>178.5</ele><time>2026-03-22T13:41:10.22Z</time></trkpt><trkpt lat="45.50572" lon="8.4870433"><ele>178.75</ele><time>2026-03-22T13:41:11.22Z</time></trkpt><trkpt lat="45.505775" lon="8.48722"><ele>179.0</ele><time>2026-03-22T13:41:12.22Z</time></trkpt><trkpt lat="45.5058217" lon="8.487405"><ele>179.0</ele><time>2026-03-22T13:41:13.22Z</time></trkpt><trkpt lat="45.5058667" lon="8.4875883"><ele>179.0</ele><time>2026-03-22T13:41:14.22Z</time></trkpt><trkpt lat="45.5058983" lon="8.48779"><ele>179.0</ele><time>2026-03-22T13:41:15.22Z</time></trkpt><trkpt lat="45.5059333" lon="8.487985"><ele>179.0</ele><time>2026-03-22T13:41:16.22Z</time></trkpt><trkpt lat="45.5059633" lon="8.4881833"><ele>178.75</ele><time>2026-03-22T13:41:17.22Z</time></trkpt><trkpt lat="45.5060017" lon="8.48838"><ele>178.5</ele><time>2026-03-22T13:41:18.22Z</time></trkpt><trkpt lat="45.5060333" lon="8.4885817"><ele>178.25</ele><time>2026-03-22T13:41:19.22Z</time></trkpt><trkpt lat="45.506065" lon="8.4887783"><ele>178.0</ele><time>2026-03-22T13:41:20.22Z</time></trkpt><trkpt lat="45.5060967" lon="8.4889733"><ele>177.75</ele><time>2026-03-22T13:41:21.22Z</time></trkpt><trkpt lat="45.506125" lon="8.4891733"><ele>177.5</ele><time>2026-03-22T13:41:22.22Z</time></trkpt><trkpt lat="45.5061483" lon="8.4893717"><ele>177.25</ele><time>2026-03-22T13:41:23.22Z</time></trkpt><trkpt lat="45.5061533" lon="8.4895617"><ele>177.0</ele><time>2026-03-22T13:41:24.22Z</time></trkpt><trkpt lat="45.5061283" lon="8.4899433"><ele>177.0</ele><time>2026-03-22T13:41:26.22Z</time></trkpt><trkpt lat="45.5061167" lon="8.490125"><ele>177.0</ele><time>2026-03-22T13:41:27.22Z</time></trkpt><trkpt lat="45.5061033" lon="8.4903"><ele>177.0</ele><time>2026-03-22T13:41:28.22Z</time></trkpt><trkpt lat="45.5060867" lon="8.49046"><ele>177.0</ele><time>2026-03-22T13:41:29.22Z</time></trkpt><trkpt lat="45.5060733" lon="8.490595"><ele>177.2</ele><time>2026-03-22T13:41:30.22Z</time></trkpt><trkpt lat="45.506065" lon="8.4907167"><ele>177.39999999999998</ele><time>2026-03-22T13:41:31.22Z</time></trkpt><trkpt lat="45.5060633" lon="8.49081"><ele>177.60000000000002</ele><time>2026-03-22T13:41:32.22Z</time></trkpt><trkpt lat="45.5060517" lon="8.49093"><ele>177.8</ele><time>2026-03-22T13:41:34.22Z</time></trkpt><trkpt lat="45.506045" lon="8.4910667"><ele>178.0</ele><time>2026-03-22T13:41:38.22Z</time></trkpt><trkpt lat="45.5060233" lon="8.4912433"><ele>178.2</ele><time>2026-03-22T13:41:40.22Z</time></trkpt><trkpt lat="45.5060133" lon="8.4913533"><ele>178.4</ele><time>2026-03-22T13:41:41.22Z</time></trkpt><trkpt lat="45.506" lon="8.4914783"><ele>178.6</ele><time>2026-03-22T13:41:42.22Z</time></trkpt><trkpt lat="45.5059933" lon="8.4916217"><ele>178.79999999999998</ele><time>2026-03-22T13:41:43.22Z</time></trkpt><trkpt lat="45.5059817" lon="8.49178"><ele>179.0</ele><time>2026-03-22T13:41:44.22Z</time></trkpt><trkpt lat="45.5059667" lon="8.4919533"><ele>178.5</ele><time>2026-03-22T13:41:45.22Z</time></trkpt><trkpt lat="45.5059567" lon="8.4921483"><ele>178.0</ele><time>2026-03-22T13:41:46.22Z</time></trkpt><trkpt lat="45.5059417" lon="8.492355"><ele>177.5</ele><time>2026-03-22T13:41:47.22Z</time></trkpt><trkpt lat="45.5059233" lon="8.49258"><ele>177.0</ele><time>2026-03-22T13:41:48.22Z</time></trkpt><trkpt lat="45.5059067" lon="8.4928117"><ele>176.66666666666666</ele><time>2026-03-22T13:41:49.22Z</time></trkpt><trkpt lat="45.50588" lon="8.4930383"><ele>176.33333333333331</ele><time>2026-03-22T13:41:50.22Z</time></trkpt><trkpt lat="45.5058633" lon="8.4932633"><ele>176.0</ele><time>2026-03-22T13:41:51.22Z</time></trkpt><trkpt lat="45.5058483" lon="8.4934933"><ele>175.5</ele><time>2026-03-22T13:41:52.22Z</time></trkpt><trkpt lat="45.50582" lon="8.4939717"><ele>175.0</ele><time>2026-03-22T13:41:54.22Z</time></trkpt><trkpt lat="45.5058017" lon="8.4942117"><ele>175.0</ele><time>2026-03-22T13:41:55.22Z</time></trkpt><trkpt lat="45.5057833" lon="8.494455"><ele>175.0</ele><time>2026-03-22T13:41:56.22Z</time></trkpt><trkpt lat="45.5057517" lon="8.4949317"><ele>175.33333333333334</ele><time>2026-03-22T13:41:58.22Z</time></trkpt><trkpt lat="45.5057283" lon="8.4951717"><ele>175.66666666666666</ele><time>2026-03-22T13:41:59.22Z</time></trkpt><trkpt lat="45.5057117" lon="8.4954183"><ele>176.0</ele><time>2026-03-22T13:42:00.22Z</time></trkpt><trkpt lat="45.5056983" lon="8.4956667"><ele>175.66666666666666</ele><time>2026-03-22T13:42:01.22Z</time></trkpt><trkpt lat="45.5056767" lon="8.495915"><ele>175.33333333333334</ele><time>2026-03-22T13:42:02.22Z</time></trkpt><trkpt lat="45.5056583" lon="8.4961567"><ele>175.0</ele><time>2026-03-22T13:42:03.22Z</time></trkpt><trkpt lat="45.5056367" lon="8.4963933"><ele>175.0</ele><time>2026-03-22T13:42:04.22Z</time></trkpt><trkpt lat="45.50562" lon="8.4966433"><ele>175.0</ele><time>2026-03-22T13:42:05.22Z</time></trkpt><trkpt lat="45.505605" lon="8.4968717"><ele>175.0</ele><time>2026-03-22T13:42:06.22Z</time></trkpt><trkpt lat="45.50559" lon="8.49709"><ele>174.75</ele><time>2026-03-22T13:42:07.22Z</time></trkpt><trkpt lat="45.5055783" lon="8.497295"><ele>174.5</ele><time>2026-03-22T13:42:08.22Z</time></trkpt><trkpt lat="45.5055633" lon="8.49749"><ele>174.25</ele><time>2026-03-22T13:42:09.22Z</time></trkpt><trkpt lat="45.5055467" lon="8.4976783"><ele>174.0</ele><time>2026-03-22T13:42:10.22Z</time></trkpt><trkpt lat="45.50553" lon="8.497855"><ele>174.0</ele><time>2026-03-22T13:42:11.22Z</time></trkpt><trkpt lat="45.5055167" lon="8.4980233"><ele>174.0</ele><time>2026-03-22T13:42:12.22Z</time></trkpt><trkpt lat="45.5055083" lon="8.49819"><ele>174.0</ele><time>2026-03-22T13:42:13.22Z</time></trkpt><trkpt lat="45.5055" lon="8.498345"><ele>174.0</ele><time>2026-03-22T13:42:14.22Z</time></trkpt><trkpt lat="45.5054933" lon="8.498495"><ele>174.0</ele><time>2026-03-22T13:42:15.22Z</time></trkpt><trkpt lat="45.5054783" lon="8.4986267"><ele>174.0</ele><time>2026-03-22T13:42:16.22Z</time></trkpt><trkpt lat="45.50547" lon="8.4987467"><ele>174.0</ele><time>2026-03-22T13:42:17.22Z</time></trkpt><trkpt lat="45.5054617" lon="8.49887"><ele>174.0</ele><time>2026-03-22T13:42:18.22Z</time></trkpt><trkpt lat="45.5054583" lon="8.498995"><ele>174.0</ele><time>2026-03-22T13:42:19.22Z</time></trkpt><trkpt lat="45.50545" lon="8.49913"><ele>174.0</ele><time>2026-03-22T13:42:20.22Z</time></trkpt><trkpt lat="45.505435" lon="8.499265"><ele>174.0</ele><time>2026-03-22T13:42:21.22Z</time></trkpt><trkpt lat="45.505425" lon="8.499405"><ele>174.0</ele><time>2026-03-22T13:42:22.22Z</time></trkpt><trkpt lat="45.5054183" lon="8.4995383"><ele>174.0</ele><time>2026-03-22T13:42:23.22Z</time></trkpt><trkpt lat="45.50541" lon="8.499665"><ele>174.0</ele><time>2026-03-22T13:42:24.22Z</time></trkpt><trkpt lat="45.5054" lon="8.499785"><ele>174.0</ele><time>2026-03-22T13:42:25.22Z</time></trkpt><trkpt lat="45.5053933" lon="8.4998933"><ele>174.0</ele><time>2026-03-22T13:42:26.22Z</time></trkpt><trkpt lat="45.5053917" lon="8.499985"><ele>173.79999999999998</ele><time>2026-03-22T13:42:27.22Z</time></trkpt><trkpt lat="45.5053817" lon="8.5000783"><ele>173.6</ele><time>2026-03-22T13:42:28.22Z</time></trkpt><trkpt lat="45.50537" lon="8.5002333"><ele>173.4</ele><time>2026-03-22T13:42:30.22Z</time></trkpt><trkpt lat="45.5053733" lon="8.5003867"><ele>173.2</ele><time>2026-03-22T13:42:32.22Z</time></trkpt><trkpt lat="45.50537" lon="8.500545"><ele>173.0</ele><time>2026-03-22T13:42:34.22Z</time></trkpt><trkpt lat="45.5053583" lon="8.500705"><ele>173.0</ele><time>2026-03-22T13:42:36.22Z</time></trkpt><trkpt lat="45.50533" lon="8.5008717"><ele>173.0</ele><time>2026-03-22T13:42:38.22Z</time></trkpt><trkpt lat="45.50532" lon="8.5010467"><ele>173.0</ele><time>2026-03-22T13:42:40.22Z</time></trkpt><trkpt lat="45.50532" lon="8.50114"><ele>173.0</ele><time>2026-03-22T13:42:41.22Z</time></trkpt><trkpt lat="45.505315" lon="8.5012383"><ele>173.0</ele><time>2026-03-22T13:42:42.22Z</time></trkpt><trkpt lat="45.50531" lon="8.5013367"><ele>173.0</ele><time>2026-03-22T13:42:43.22Z</time></trkpt><trkpt lat="45.5053017" lon="8.50144"><ele>173.16666666666666</ele><time>2026-03-22T13:42:44.22Z</time></trkpt><trkpt lat="45.5052917" lon="8.5015517"><ele>173.33333333333331</ele><time>2026-03-22T13:42:45.22Z</time></trkpt><trkpt lat="45.50528" lon="8.5016667"><ele>173.5</ele><time>2026-03-22T13:42:46.22Z</time></trkpt><trkpt lat="45.5052717" lon="8.5017833"><ele>173.66666666666666</ele><time>2026-03-22T13:42:47.22Z</time></trkpt><trkpt lat="45.5052617" lon="8.5018933"><ele>173.83333333333334</ele><time>2026-03-22T13:42:48.22Z</time></trkpt><trkpt lat="45.5052433" lon="8.5020133"><ele>174.0</ele><time>2026-03-22T13:42:49.22Z</time></trkpt><trkpt lat="45.50523" lon="8.5021333"><ele>174.0</ele><time>2026-03-22T13:42:50.22Z</time></trkpt><trkpt lat="45.505225" lon="8.502245"><ele>174.0</ele><time>2026-03-22T13:42:51.22Z</time></trkpt><trkpt lat="45.50522" lon="8.5023633"><ele>174.0</ele><time>2026-03-22T13:42:52.22Z</time></trkpt><trkpt lat="45.50521" lon="8.5024833"><ele>174.0</ele><time>2026-03-22T13:42:53.22Z</time></trkpt><trkpt lat="45.5052017" lon="8.5026033"><ele>174.0</ele><time>2026-03-22T13:42:54.22Z</time></trkpt><trkpt lat="45.5051933" lon="8.5027233"><ele>174.0</ele><time>2026-03-22T13:42:55.22Z</time></trkpt><trkpt lat="45.505185" lon="8.5028433"><ele>173.83333333333334</ele><time>2026-03-22T13:42:56.22Z</time></trkpt><trkpt lat="45.50518" lon="8.5029633"><ele>173.66666666666666</ele><time>2026-03-22T13:42:57.22Z</time></trkpt><trkpt lat="45.5051717" lon="8.5030817"><ele>173.5</ele><time>2026-03-22T13:42:58.22Z</time></trkpt><trkpt lat="45.5051617" lon="8.503205"><ele>173.33333333333331</ele><time>2026-03-22T13:42:59.22Z</time></trkpt><trkpt lat="45.5051583" lon="8.5033333"><ele>173.16666666666666</ele><time>2026-03-22T13:43:00.22Z</time></trkpt><trkpt lat="45.5051467" lon="8.5034683"><ele>173.0</ele><time>2026-03-22T13:43:01.22Z</time></trkpt><trkpt lat="45.5051333" lon="8.5036017"><ele>173.0</ele><time>2026-03-22T13:43:02.22Z</time></trkpt><trkpt lat="45.5051267" lon="8.5037233"><ele>173.0</ele><time>2026-03-22T13:43:03.22Z</time></trkpt><trkpt lat="45.5051167" lon="8.5038467"><ele>173.0</ele><time>2026-03-22T13:43:04.22Z</time></trkpt><trkpt lat="45.5051" lon="8.503965"><ele>173.0</ele><time>2026-03-22T13:43:05.22Z</time></trkpt><trkpt lat="45.505105" lon="8.504075"><ele>173.0</ele><time>2026-03-22T13:43:06.22Z</time></trkpt><trkpt lat="45.505125" lon="8.5041933"><ele>173.0</ele><time>2026-03-22T13:43:07.22Z</time></trkpt><trkpt lat="45.5051717" lon="8.504305"><ele>173.0</ele><time>2026-03-22T13:43:08.22Z</time></trkpt><trkpt lat="45.5052183" lon="8.5044083"><ele>173.0</ele><time>2026-03-22T13:43:09.22Z</time></trkpt><trkpt lat="45.50526" lon="8.5045417"><ele>173.0</ele><time>2026-03-22T13:43:10.22Z</time></trkpt><trkpt lat="45.505295" lon="8.504685"><ele>173.0</ele><time>2026-03-22T13:43:11.22Z</time></trkpt><trkpt lat="45.5053217" lon="8.5048467"><ele>173.0</ele><time>2026-03-22T13:43:12.22Z</time></trkpt><trkpt lat="45.5053583" lon="8.50501"><ele>173.0</ele><time>2026-03-22T13:43:13.22Z</time></trkpt><trkpt lat="45.5053917" lon="8.5051833"><ele>173.0</ele><time>2026-03-22T13:43:14.22Z</time></trkpt><trkpt lat="45.505425" lon="8.5053533"><ele>173.0</ele><time>2026-03-22T13:43:15.22Z</time></trkpt><trkpt lat="45.5054633" lon="8.505525"><ele>173.0</ele><time>2026-03-22T13:43:16.22Z</time></trkpt><trkpt lat="45.505495" lon="8.5056833"><ele>173.0</ele><time>2026-03-22T13:43:17.22Z</time></trkpt><trkpt lat="45.5055233" lon="8.5058283"><ele>173.0</ele><time>2026-03-22T13:43:18.22Z</time></trkpt><trkpt lat="45.50555" lon="8.5059617"><ele>173.0</ele><time>2026-03-22T13:43:19.22Z</time></trkpt><trkpt lat="45.505575" lon="8.50608"><ele>173.0</ele><time>2026-03-22T13:43:20.22Z</time></trkpt><trkpt lat="45.5056" lon="8.50618"><ele>173.0</ele><time>2026-03-22T13:43:21.22Z</time></trkpt><trkpt lat="45.5056267" lon="8.50628"><ele>173.0</ele><time>2026-03-22T13:43:22.22Z</time></trkpt><trkpt lat="45.5056333" lon="8.5064517"><ele>173.0</ele><time>2026-03-22T13:43:24.22Z</time></trkpt><trkpt lat="45.5055933" lon="8.5065217"><ele>173.0</ele><time>2026-03-22T13:43:25.22Z</time></trkpt><trkpt lat="45.5055333" lon="8.5065817"><ele>173.0</ele><time>2026-03-22T13:43:26.22Z</time></trkpt><trkpt lat="45.5054533" lon="8.5066183"><ele>173.0</ele><time>2026-03-22T13:43:27.22Z</time></trkpt><trkpt lat="45.505365" lon="8.5066517"><ele>173.0</ele><time>2026-03-22T13:43:28.22Z</time></trkpt><trkpt lat="45.505265" lon="8.5066767"><ele>173.0</ele><time>2026-03-22T13:43:29.22Z</time></trkpt><trkpt lat="45.5051783" lon="8.506705"><ele>173.0</ele><time>2026-03-22T13:43:30.22Z</time></trkpt><trkpt lat="45.5050983" lon="8.5067367"><ele>173.0</ele><time>2026-03-22T13:43:31.22Z</time></trkpt><trkpt lat="45.5050383" lon="8.5067917"><ele>173.0</ele><time>2026-03-22T13:43:32.22Z</time></trkpt><trkpt lat="45.5050033" lon="8.506875"><ele>173.0</ele><time>2026-03-22T13:43:33.22Z</time></trkpt><trkpt lat="45.5049883" lon="8.5069783"><ele>173.0</ele><time>2026-03-22T13:43:34.22Z</time></trkpt><trkpt lat="45.5050017" lon="8.507115"><ele>173.0</ele><time>2026-03-22T13:43:35.22Z</time></trkpt><trkpt lat="45.5050333" lon="8.5072533"><ele>173.0</ele><time>2026-03-22T13:43:36.22Z</time></trkpt><trkpt lat="45.5050617" lon="8.5074033"><ele>173.0</ele><time>2026-03-22T13:43:37.22Z</time></trkpt><trkpt lat="45.5050867" lon="8.50756"><ele>173.0</ele><time>2026-03-22T13:43:38.22Z</time></trkpt><trkpt lat="45.5051183" lon="8.5077283"><ele>173.0</ele><time>2026-03-22T13:43:39.22Z</time></trkpt><trkpt lat="45.5051533" lon="8.5079267"><ele>172.75</ele><time>2026-03-22T13:43:40.22Z</time></trkpt><trkpt lat="45.5051867" lon="8.5081317"><ele>172.5</ele><time>2026-03-22T13:43:41.22Z</time></trkpt><trkpt lat="45.5052183" lon="8.508335"><ele>172.25</ele><time>2026-03-22T13:43:42.22Z</time></trkpt><trkpt lat="45.5052567" lon="8.5085333"><ele>172.0</ele><time>2026-03-22T13:43:43.22Z</time></trkpt><trkpt lat="45.5052883" lon="8.5087183"><ele>172.25</ele><time>2026-03-22T13:43:44.22Z</time></trkpt><trkpt lat="45.50532" lon="8.5089083"><ele>172.5</ele><time>2026-03-22T13:43:45.22Z</time></trkpt><trkpt lat="45.505355" lon="8.5091067"><ele>172.75</ele><time>2026-03-22T13:43:46.22Z</time></trkpt><trkpt lat="45.5053867" lon="8.5093133"><ele>173.0</ele><time>2026-03-22T13:43:47.22Z</time></trkpt><trkpt lat="45.5054233" lon="8.5095133"><ele>173.0</ele><time>2026-03-22T13:43:48.22Z</time></trkpt><trkpt lat="45.505455" lon="8.5097083"><ele>173.0</ele><time>2026-03-22T13:43:49.22Z</time></trkpt><trkpt lat="45.5055267" lon="8.510085"><ele>173.0</ele><time>2026-03-22T13:43:51.219Z</time></trkpt><trkpt lat="45.505565" lon="8.5102817"><ele>173.33333333333331</ele><time>2026-03-22T13:43:52.219Z</time></trkpt><trkpt lat="45.505595" lon="8.510485"><ele>173.66666666666666</ele><time>2026-03-22T13:43:53.219Z</time></trkpt><trkpt lat="45.50563" lon="8.5106783"><ele>174.0</ele><time>2026-03-22T13:43:54.219Z</time></trkpt><trkpt lat="45.5056933" lon="8.5110817"><ele>174.0</ele><time>2026-03-22T13:43:56.219Z</time></trkpt><trkpt lat="45.505745" lon="8.5112833"><ele>174.0</ele><time>2026-03-22T13:43:57.219Z</time></trkpt><trkpt lat="45.5058167" lon="8.5114733"><ele>174.0</ele><time>2026-03-22T13:43:58.219Z</time></trkpt><trkpt lat="45.5059667" lon="8.5118467"><ele>174.0</ele><time>2026-03-22T13:44:00.219Z</time></trkpt><trkpt lat="45.506045" lon="8.51203"><ele>174.0</ele><time>2026-03-22T13:44:01.219Z</time></trkpt><trkpt lat="45.5061217" lon="8.5122267"><ele>174.0</ele><time>2026-03-22T13:44:02.219Z</time></trkpt><trkpt lat="45.506195" lon="8.5124183"><ele>174.0</ele><time>2026-03-22T13:44:03.219Z</time></trkpt><trkpt lat="45.5062583" lon="8.51261"><ele>174.0</ele><time>2026-03-22T13:44:04.219Z</time></trkpt><trkpt lat="45.5063233" lon="8.512805"><ele>174.0</ele><time>2026-03-22T13:44:05.219Z</time></trkpt><trkpt lat="45.5063833" lon="8.5129983"><ele>174.0</ele><time>2026-03-22T13:44:06.219Z</time></trkpt><trkpt lat="45.5064483" lon="8.5132"><ele>174.0</ele><time>2026-03-22T13:44:07.219Z</time></trkpt><trkpt lat="45.506515" lon="8.51341"><ele>174.0</ele><time>2026-03-22T13:44:08.219Z</time></trkpt><trkpt lat="45.5065783" lon="8.5136167"><ele>174.0</ele><time>2026-03-22T13:44:09.219Z</time></trkpt><trkpt lat="45.5066417" lon="8.5138167"><ele>173.66666666666666</ele><time>2026-03-22T13:44:10.219Z</time></trkpt><trkpt lat="45.5067017" lon="8.5140067"><ele>173.33333333333331</ele><time>2026-03-22T13:44:11.219Z</time></trkpt><trkpt lat="45.5067667" lon="8.5142"><ele>173.0</ele><time>2026-03-22T13:44:12.219Z</time></trkpt><trkpt lat="45.5068317" lon="8.5144017"><ele>173.0</ele><time>2026-03-22T13:44:13.219Z</time></trkpt><trkpt lat="45.5069" lon="8.51459"><ele>173.0</ele><time>2026-03-22T13:44:14.219Z</time></trkpt><trkpt lat="45.50696" lon="8.5147883"><ele>173.0</ele><time>2026-03-22T13:44:15.219Z</time></trkpt><trkpt lat="45.5070267" lon="8.514985"><ele>173.0</ele><time>2026-03-22T13:44:16.219Z</time></trkpt><trkpt lat="45.507095" lon="8.5151767"><ele>173.0</ele><time>2026-03-22T13:44:17.219Z</time></trkpt><trkpt lat="45.5071633" lon="8.51537"><ele>173.0</ele><time>2026-03-22T13:44:18.219Z</time></trkpt><trkpt lat="45.50723" lon="8.5155633"><ele>173.25</ele><time>2026-03-22T13:44:19.219Z</time></trkpt><trkpt lat="45.5072917" lon="8.5157317"><ele>173.5</ele><time>2026-03-22T13:44:20.219Z</time></trkpt><trkpt lat="45.50735" lon="8.5158917"><ele>173.75</ele><time>2026-03-22T13:44:21.219Z</time></trkpt><trkpt lat="45.5073967" lon="8.5160633"><ele>174.0</ele><time>2026-03-22T13:44:22.219Z</time></trkpt><trkpt lat="45.5074483" lon="8.5162233"><ele>174.0</ele><time>2026-03-22T13:44:23.219Z</time></trkpt><trkpt lat="45.5074883" lon="8.51637"><ele>174.0</ele><time>2026-03-22T13:44:24.219Z</time></trkpt><trkpt lat="45.5075367" lon="8.5165067"><ele>174.0</ele><time>2026-03-22T13:44:25.219Z</time></trkpt><trkpt lat="45.5075867" lon="8.51664"><ele>174.0</ele><time>2026-03-22T13:44:26.219Z</time></trkpt><trkpt lat="45.5076317" lon="8.516765"><ele>174.0</ele><time>2026-03-22T13:44:27.219Z</time></trkpt><trkpt lat="45.50767" lon="8.5168817"><ele>174.0</ele><time>2026-03-22T13:44:28.219Z</time></trkpt><trkpt lat="45.5077017" lon="8.5169783"><ele>174.0</ele><time>2026-03-22T13:44:29.219Z</time></trkpt><trkpt lat="45.5077317" lon="8.51707"><ele>174.0</ele><time>2026-03-22T13:44:30.219Z</time></trkpt><trkpt lat="45.5078117" lon="8.5171867"><ele>174.0</ele><time>2026-03-22T13:44:32.219Z</time></trkpt><trkpt lat="45.5079133" lon="8.5171817"><ele>174.0</ele><time>2026-03-22T13:44:34.219Z</time></trkpt><trkpt lat="45.5080317" lon="8.5171183"><ele>174.16666666666666</ele><time>2026-03-22T13:44:36.219Z</time></trkpt><trkpt lat="45.5081117" lon="8.5170833"><ele>174.33333333333334</ele><time>2026-03-22T13:44:37.219Z</time></trkpt><trkpt lat="45.5081933" lon="8.5170467"><ele>174.5</ele><time>2026-03-22T13:44:38.219Z</time></trkpt><trkpt lat="45.508275" lon="8.5170083"><ele>174.66666666666669</ele><time>2026-03-22T13:44:39.219Z</time></trkpt><trkpt lat="45.508365" lon="8.5169817"><ele>174.83333333333334</ele><time>2026-03-22T13:44:40.219Z</time></trkpt><trkpt lat="45.508455" lon="8.5169483"><ele>175.0</ele><time>2026-03-22T13:44:41.219Z</time></trkpt><trkpt lat="45.5085467" lon="8.5169083"><ele>175.4</ele><time>2026-03-22T13:44:42.219Z</time></trkpt><trkpt lat="45.5086367" lon="8.5168667"><ele>175.8</ele><time>2026-03-22T13:44:43.219Z</time></trkpt><trkpt lat="45.5087283" lon="8.5168283"><ele>176.2</ele><time>2026-03-22T13:44:44.219Z</time></trkpt><trkpt lat="45.5088317" lon="8.5167867"><ele>176.6</ele><time>2026-03-22T13:44:45.219Z</time></trkpt><trkpt lat="45.5089383" lon="8.5167417"><ele>177.0</ele><time>2026-03-22T13:44:46.219Z</time></trkpt><trkpt lat="45.5090467" lon="8.5167017"><ele>177.0</ele><time>2026-03-22T13:44:47.219Z</time></trkpt><trkpt lat="45.509165" lon="8.51666"><ele>177.0</ele><time>2026-03-22T13:44:48.219Z</time></trkpt><trkpt lat="45.5092767" lon="8.5166167"><ele>177.0</ele><time>2026-03-22T13:44:49.219Z</time></trkpt><trkpt lat="45.50939" lon="8.5165733"><ele>177.0</ele><time>2026-03-22T13:44:50.219Z</time></trkpt><trkpt lat="45.50951" lon="8.5165233"><ele>176.75</ele><time>2026-03-22T13:44:51.219Z</time></trkpt><trkpt lat="45.5096333" lon="8.5164783"><ele>176.5</ele><time>2026-03-22T13:44:52.219Z</time></trkpt><trkpt lat="45.5097533" lon="8.51643"><ele>176.25</ele><time>2026-03-22T13:44:53.219Z</time></trkpt><trkpt lat="45.5098567" lon="8.516375"><ele>176.0</ele><time>2026-03-22T13:44:54.219Z</time></trkpt><trkpt lat="45.5099483" lon="8.5163367"><ele>176.0</ele><time>2026-03-22T13:44:55.219Z</time></trkpt><trkpt lat="45.5100333" lon="8.5162933"><ele>176.0</ele><time>2026-03-22T13:44:56.219Z</time></trkpt><trkpt lat="45.5101133" lon="8.51625"><ele>176.0</ele><time>2026-03-22T13:44:57.219Z</time></trkpt><trkpt lat="45.5101933" lon="8.5162267"><ele>176.0</ele><time>2026-03-22T13:44:58.219Z</time></trkpt><trkpt lat="45.5102567" lon="8.5162233"><ele>176.0</ele><time>2026-03-22T13:44:59.219Z</time></trkpt><trkpt lat="45.5103217" lon="8.51625"><ele>176.0</ele><time>2026-03-22T13:45:00.219Z</time></trkpt><trkpt lat="45.51042" lon="8.5164233"><ele>176.0</ele><time>2026-03-22T13:45:02.219Z</time></trkpt><trkpt lat="45.5104533" lon="8.5165783"><ele>176.0</ele><time>2026-03-22T13:45:03.219Z</time></trkpt><trkpt lat="45.5104833" lon="8.5167417"><ele>176.0</ele><time>2026-03-22T13:45:04.219Z</time></trkpt><trkpt lat="45.5105133" lon="8.5169117"><ele>176.0</ele><time>2026-03-22T13:45:05.219Z</time></trkpt><trkpt lat="45.5105467" lon="8.5170783"><ele>176.0</ele><time>2026-03-22T13:45:06.219Z</time></trkpt><trkpt lat="45.5105833" lon="8.5172583"><ele>176.0</ele><time>2026-03-22T13:45:07.219Z</time></trkpt><trkpt lat="45.5106233" lon="8.5174367"><ele>176.0</ele><time>2026-03-22T13:45:08.219Z</time></trkpt><trkpt lat="45.5106633" lon="8.5176167"><ele>176.0</ele><time>2026-03-22T13:45:09.219Z</time></trkpt><trkpt lat="45.5107033" lon="8.5178"><ele>176.0</ele><time>2026-03-22T13:45:10.219Z</time></trkpt><trkpt lat="45.51074" lon="8.5179983"><ele>176.0</ele><time>2026-03-22T13:45:11.219Z</time></trkpt><trkpt lat="45.510775" lon="8.51818"><ele>176.0</ele><time>2026-03-22T13:45:12.219Z</time></trkpt><trkpt lat="45.5108117" lon="8.5183617"><ele>176.0</ele><time>2026-03-22T13:45:13.219Z</time></trkpt><trkpt lat="45.51085" lon="8.5185433"><ele>176.0</ele><time>2026-03-22T13:45:14.219Z</time></trkpt><trkpt lat="45.51089" lon="8.5187333"><ele>176.0</ele><time>2026-03-22T13:45:15.219Z</time></trkpt><trkpt lat="45.5109333" lon="8.518925"><ele>176.0</ele><time>2026-03-22T13:45:16.219Z</time></trkpt><trkpt lat="45.51097" lon="8.51911"><ele>176.0</ele><time>2026-03-22T13:45:17.219Z</time></trkpt><trkpt lat="45.511015" lon="8.519295"><ele>176.0</ele><time>2026-03-22T13:45:18.219Z</time></trkpt><trkpt lat="45.5110567" lon="8.5194833"><ele>176.0</ele><time>2026-03-22T13:45:19.219Z</time></trkpt><trkpt lat="45.5110917" lon="8.5196933"><ele>176.0</ele><time>2026-03-22T13:45:20.219Z</time></trkpt><trkpt lat="45.5111333" lon="8.51989"><ele>176.0</ele><time>2026-03-22T13:45:21.219Z</time></trkpt><trkpt lat="45.5112183" lon="8.5202783"><ele>175.75</ele><time>2026-03-22T13:45:23.219Z</time></trkpt><trkpt lat="45.5112533" lon="8.5204733"><ele>175.5</ele><time>2026-03-22T13:45:24.219Z</time></trkpt><trkpt lat="45.51129" lon="8.5206717"><ele>175.25</ele><time>2026-03-22T13:45:25.219Z</time></trkpt><trkpt lat="45.5113233" lon="8.5208617"><ele>175.0</ele><time>2026-03-22T13:45:26.219Z</time></trkpt><trkpt lat="45.511365" lon="8.5210467"><ele>175.5</ele><time>2026-03-22T13:45:27.219Z</time></trkpt><trkpt lat="45.5114" lon="8.5212383"><ele>176.0</ele><time>2026-03-22T13:45:28.219Z</time></trkpt><trkpt lat="45.5114467" lon="8.521435"><ele>176.5</ele><time>2026-03-22T13:45:29.219Z</time></trkpt><trkpt lat="45.5114883" lon="8.521635"><ele>177.0</ele><time>2026-03-22T13:45:30.219Z</time></trkpt><trkpt lat="45.5115317" lon="8.5218317"><ele>177.0</ele><time>2026-03-22T13:45:31.219Z</time></trkpt><trkpt lat="45.51157" lon="8.52203"><ele>177.0</ele><time>2026-03-22T13:45:32.219Z</time></trkpt><trkpt lat="45.5116167" lon="8.52223"><ele>177.0</ele><time>2026-03-22T13:45:33.219Z</time></trkpt><trkpt lat="45.5116533" lon="8.52243"><ele>177.0</ele><time>2026-03-22T13:45:34.219Z</time></trkpt><trkpt lat="45.5116917" lon="8.5226233"><ele>177.0</ele><time>2026-03-22T13:45:35.219Z</time></trkpt><trkpt lat="45.5117333" lon="8.522835"><ele>177.0</ele><time>2026-03-22T13:45:36.219Z</time></trkpt><trkpt lat="45.5117817" lon="8.52304"><ele>177.0</ele><time>2026-03-22T13:45:37.219Z</time></trkpt><trkpt lat="45.51182" lon="8.523245"><ele>177.0</ele><time>2026-03-22T13:45:38.219Z</time></trkpt><trkpt lat="45.5118567" lon="8.5234267"><ele>177.0</ele><time>2026-03-22T13:45:39.219Z</time></trkpt><trkpt lat="45.511885" lon="8.5236017"><ele>177.0</ele><time>2026-03-22T13:45:40.219Z</time></trkpt><trkpt lat="45.51192" lon="8.523755"><ele>177.0</ele><time>2026-03-22T13:45:41.219Z</time></trkpt><trkpt lat="45.5119517" lon="8.52392"><ele>176.6</ele><time>2026-03-22T13:45:42.219Z</time></trkpt><trkpt lat="45.5119817" lon="8.5240717"><ele>176.2</ele><time>2026-03-22T13:45:43.219Z</time></trkpt><trkpt lat="45.5120083" lon="8.5242117"><ele>175.8</ele><time>2026-03-22T13:45:44.219Z</time></trkpt><trkpt lat="45.5120317" lon="8.5243317"><ele>175.4</ele><time>2026-03-22T13:45:45.219Z</time></trkpt><trkpt lat="45.51207" lon="8.5244433"><ele>175.0</ele><time>2026-03-22T13:45:46.219Z</time></trkpt><trkpt lat="45.5121233" lon="8.524535"><ele>175.2</ele><time>2026-03-22T13:45:47.219Z</time></trkpt><trkpt lat="45.5121933" lon="8.524595"><ele>175.4</ele><time>2026-03-22T13:45:48.219Z</time></trkpt><trkpt lat="45.51228" lon="8.5246367"><ele>175.60000000000002</ele><time>2026-03-22T13:45:49.219Z</time></trkpt><trkpt lat="45.5123817" lon="8.524645"><ele>175.8</ele><time>2026-03-22T13:45:50.219Z</time></trkpt><trkpt lat="45.5124917" lon="8.5246267"><ele>176.0</ele><time>2026-03-22T13:45:51.219Z</time></trkpt><trkpt lat="45.5126133" lon="8.5246017"><ele>175.75</ele><time>2026-03-22T13:45:52.219Z</time></trkpt><trkpt lat="45.51273" lon="8.5245617"><ele>175.5</ele><time>2026-03-22T13:45:53.219Z</time></trkpt><trkpt lat="45.51285" lon="8.5245283"><ele>175.25</ele><time>2026-03-22T13:45:54.219Z</time></trkpt><trkpt lat="45.51297" lon="8.5244917"><ele>175.0</ele><time>2026-03-22T13:45:55.219Z</time></trkpt><trkpt lat="45.51309" lon="8.5244533"><ele>175.0</ele><time>2026-03-22T13:45:56.219Z</time></trkpt><trkpt lat="45.5132133" lon="8.5244217"><ele>175.0</ele><time>2026-03-22T13:45:57.219Z</time></trkpt><trkpt lat="45.5133367" lon="8.5244"><ele>175.0</ele><time>2026-03-22T13:45:58.219Z</time></trkpt><trkpt lat="45.51346" lon="8.5243583"><ele>175.0</ele><time>2026-03-22T13:45:59.219Z</time></trkpt><trkpt lat="45.5135883" lon="8.524325"><ele>175.0</ele><time>2026-03-22T13:46:00.219Z</time></trkpt><trkpt lat="45.513705" lon="8.5242917"><ele>175.0</ele><time>2026-03-22T13:46:01.219Z</time></trkpt><trkpt lat="45.5138167" lon="8.5242683"><ele>175.0</ele><time>2026-03-22T13:46:02.219Z</time></trkpt><trkpt lat="45.5139217" lon="8.52425"><ele>175.0</ele><time>2026-03-22T13:46:03.219Z</time></trkpt><trkpt lat="45.5140267" lon="8.5242433"><ele>175.0</ele><time>2026-03-22T13:46:04.219Z</time></trkpt><trkpt lat="45.5141367" lon="8.524255"><ele>175.0</ele><time>2026-03-22T13:46:05.219Z</time></trkpt><trkpt lat="45.51425" lon="8.5243017"><ele>175.0</ele><time>2026-03-22T13:46:06.219Z</time></trkpt><trkpt lat="45.5143583" lon="8.5244017"><ele>175.0</ele><time>2026-03-22T13:46:07.219Z</time></trkpt><trkpt lat="45.51446" lon="8.5245017"><ele>175.0</ele><time>2026-03-22T13:46:08.219Z</time></trkpt><trkpt lat="45.5145467" lon="8.5246367"><ele>175.5</ele><time>2026-03-22T13:46:09.219Z</time></trkpt><trkpt lat="45.5146383" lon="8.52477"><ele>176.0</ele><time>2026-03-22T13:46:10.219Z</time></trkpt><trkpt lat="45.5147417" lon="8.5249"><ele>176.5</ele><time>2026-03-22T13:46:11.219Z</time></trkpt><trkpt lat="45.5148533" lon="8.52503"><ele>177.0</ele><time>2026-03-22T13:46:12.219Z</time></trkpt><trkpt lat="45.514965" lon="8.5251517"><ele>177.0</ele><time>2026-03-22T13:46:13.219Z</time></trkpt><trkpt lat="45.51507" lon="8.525285"><ele>177.0</ele><time>2026-03-22T13:46:14.219Z</time></trkpt><trkpt lat="45.5151717" lon="8.525415"><ele>177.0</ele><time>2026-03-22T13:46:15.219Z</time></trkpt><trkpt lat="45.5152667" lon="8.5255483"><ele>177.0</ele><time>2026-03-22T13:46:16.219Z</time></trkpt><trkpt lat="45.5153483" lon="8.5256767"><ele>177.6</ele><time>2026-03-22T13:46:17.219Z</time></trkpt><trkpt lat="45.51543" lon="8.5257933"><ele>178.2</ele><time>2026-03-22T13:46:18.219Z</time></trkpt><trkpt lat="45.5155083" lon="8.5258967"><ele>178.8</ele><time>2026-03-22T13:46:19.219Z</time></trkpt><trkpt lat="45.5155867" lon="8.525995"><ele>179.4</ele><time>2026-03-22T13:46:20.219Z</time></trkpt><trkpt lat="45.5156567" lon="8.5260767"><ele>180.0</ele><time>2026-03-22T13:46:21.219Z</time></trkpt><trkpt lat="45.51573" lon="8.526135"><ele>180.0</ele><time>2026-03-22T13:46:22.219Z</time></trkpt><trkpt lat="45.5158133" lon="8.5261717"><ele>180.0</ele><time>2026-03-22T13:46:23.219Z</time></trkpt><trkpt lat="45.5159" lon="8.5261817"><ele>180.0</ele><time>2026-03-22T13:46:24.219Z</time></trkpt><trkpt lat="45.5159967" lon="8.5261683"><ele>180.0</ele><time>2026-03-22T13:46:25.219Z</time></trkpt><trkpt lat="45.51609" lon="8.526145"><ele>180.0</ele><time>2026-03-22T13:46:26.219Z</time></trkpt><trkpt lat="45.5161783" lon="8.5261233"><ele>179.83333333333334</ele><time>2026-03-22T13:46:27.219Z</time></trkpt><trkpt lat="45.5162517" lon="8.52613"><ele>179.66666666666666</ele><time>2026-03-22T13:46:28.219Z</time></trkpt><trkpt lat="45.51633" lon="8.5261533"><ele>179.5</ele><time>2026-03-22T13:46:29.219Z</time></trkpt><trkpt lat="45.5164033" lon="8.5262067"><ele>179.33333333333331</ele><time>2026-03-22T13:46:30.219Z</time></trkpt><trkpt lat="45.5164683" lon="8.5262767"><ele>179.16666666666666</ele><time>2026-03-22T13:46:31.219Z</time></trkpt><trkpt lat="45.5165267" lon="8.5263633"><ele>179.0</ele><time>2026-03-22T13:46:32.219Z</time></trkpt><trkpt lat="45.5165867" lon="8.5264417"><ele>179.0</ele><time>2026-03-22T13:46:33.219Z</time></trkpt><trkpt lat="45.5166417" lon="8.5265233"><ele>179.0</ele><time>2026-03-22T13:46:34.219Z</time></trkpt><trkpt lat="45.5166817" lon="8.5266033"><ele>179.0</ele><time>2026-03-22T13:46:35.219Z</time></trkpt><trkpt lat="45.5167183" lon="8.52669"><ele>179.0</ele><time>2026-03-22T13:46:36.219Z</time></trkpt><trkpt lat="45.516735" lon="8.5267783"><ele>179.0</ele><time>2026-03-22T13:46:37.219Z</time></trkpt><trkpt lat="45.5167017" lon="8.5269167"><ele>179.0</ele><time>2026-03-22T13:46:39.219Z</time></trkpt><trkpt lat="45.5166517" lon="8.5270467"><ele>178.83333333333331</ele><time>2026-03-22T13:46:41.219Z</time></trkpt><trkpt lat="45.516655" lon="8.527215"><ele>178.66666666666666</ele><time>2026-03-22T13:46:43.219Z</time></trkpt><trkpt lat="45.51669" lon="8.5272983"><ele>178.5</ele><time>2026-03-22T13:46:44.219Z</time></trkpt><trkpt lat="45.51674" lon="8.5273633"><ele>178.33333333333334</ele><time>2026-03-22T13:46:45.219Z</time></trkpt><trkpt lat="45.5168033" lon="8.527435"><ele>178.16666666666669</ele><time>2026-03-22T13:46:46.219Z</time></trkpt><trkpt lat="45.516875" lon="8.52751"><ele>178.0</ele><time>2026-03-22T13:46:47.219Z</time></trkpt><trkpt lat="45.5169517" lon="8.5275883"><ele>178.0</ele><time>2026-03-22T13:46:48.219Z</time></trkpt><trkpt lat="45.517025" lon="8.5276617"><ele>178.0</ele><time>2026-03-22T13:46:49.219Z</time></trkpt><trkpt lat="45.5170933" lon="8.52773"><ele>178.0</ele><time>2026-03-22T13:46:50.219Z</time></trkpt><trkpt lat="45.5171617" lon="8.5277983"><ele>178.0</ele><time>2026-03-22T13:46:51.219Z</time></trkpt><trkpt lat="45.5172383" lon="8.5278667"><ele>178.0</ele><time>2026-03-22T13:46:52.219Z</time></trkpt><trkpt lat="45.5173133" lon="8.527935"><ele>178.0</ele><time>2026-03-22T13:46:53.219Z</time></trkpt><trkpt lat="45.517385" lon="8.528015"><ele>178.0</ele><time>2026-03-22T13:46:54.219Z</time></trkpt><trkpt lat="45.5174567" lon="8.5280833"><ele>178.0</ele><time>2026-03-22T13:46:55.219Z</time></trkpt><trkpt lat="45.51753" lon="8.528155"><ele>178.0</ele><time>2026-03-22T13:46:56.219Z</time></trkpt><trkpt lat="45.5176017" lon="8.52823"><ele>178.0</ele><time>2026-03-22T13:46:57.219Z</time></trkpt><trkpt lat="45.5176717" lon="8.528305"><ele>178.0</ele><time>2026-03-22T13:46:58.219Z</time></trkpt><trkpt lat="45.5177367" lon="8.52838"><ele>178.0</ele><time>2026-03-22T13:46:59.219Z</time></trkpt><trkpt lat="45.5178033" lon="8.5284533"><ele>178.0</ele><time>2026-03-22T13:47:00.219Z</time></trkpt><trkpt lat="45.5178667" lon="8.528535"><ele>178.0</ele><time>2026-03-22T13:47:01.219Z</time></trkpt><trkpt lat="45.5179267" lon="8.528605"><ele>178.0</ele><time>2026-03-22T13:47:02.219Z</time></trkpt><trkpt lat="45.5179933" lon="8.5286717"><ele>178.0</ele><time>2026-03-22T13:47:03.219Z</time></trkpt><trkpt lat="45.5180617" lon="8.528735"><ele>178.0</ele><time>2026-03-22T13:47:04.219Z</time></trkpt><trkpt lat="45.5181317" lon="8.528805"><ele>178.0</ele><time>2026-03-22T13:47:05.219Z</time></trkpt><trkpt lat="45.5182017" lon="8.5288783"><ele>178.16666666666669</ele><time>2026-03-22T13:47:06.219Z</time></trkpt><trkpt lat="45.51827" lon="8.528945"><ele>178.33333333333334</ele><time>2026-03-22T13:47:07.219Z</time></trkpt><trkpt lat="45.51834" lon="8.5290217"><ele>178.5</ele><time>2026-03-22T13:47:08.219Z</time></trkpt><trkpt lat="45.5184133" lon="8.5290883"><ele>178.66666666666666</ele><time>2026-03-22T13:47:09.219Z</time></trkpt><trkpt lat="45.518485" lon="8.529155"><ele>178.83333333333331</ele><time>2026-03-22T13:47:10.219Z</time></trkpt><trkpt lat="45.5185533" lon="8.5292217"><ele>179.0</ele><time>2026-03-22T13:47:11.219Z</time></trkpt><trkpt lat="45.5186233" lon="8.5292867"><ele>179.0</ele><time>2026-03-22T13:47:12.219Z</time></trkpt><trkpt lat="45.5186933" lon="8.5293517"><ele>179.0</ele><time>2026-03-22T13:47:13.219Z</time></trkpt><trkpt lat="45.518765" lon="8.5294233"><ele>179.0</ele><time>2026-03-22T13:47:14.219Z</time></trkpt><trkpt lat="45.51883" lon="8.5294983"><ele>179.0</ele><time>2026-03-22T13:47:15.219Z</time></trkpt><trkpt lat="45.5188967" lon="8.52957"><ele>179.0</ele><time>2026-03-22T13:47:16.219Z</time></trkpt><trkpt lat="45.5189633" lon="8.5296367"><ele>179.0</ele><time>2026-03-22T13:47:17.219Z</time></trkpt><trkpt lat="45.51903" lon="8.5296917"><ele>179.2</ele><time>2026-03-22T13:47:18.219Z</time></trkpt><trkpt lat="45.5190967" lon="8.5297383"><ele>179.39999999999998</ele><time>2026-03-22T13:47:19.219Z</time></trkpt><trkpt lat="45.5191867" lon="8.5298517"><ele>179.6</ele><time>2026-03-22T13:47:21.219Z</time></trkpt><trkpt lat="45.5192017" lon="8.5299583"><ele>179.8</ele><time>2026-03-22T13:47:23.219Z</time></trkpt><trkpt lat="45.5191333" lon="8.530115"><ele>180.0</ele><time>2026-03-22T13:47:25.219Z</time></trkpt><trkpt lat="45.5190867" lon="8.5302167"><ele>180.0</ele><time>2026-03-22T13:47:26.219Z</time></trkpt><trkpt lat="45.51904" lon="8.5303183"><ele>180.0</ele><time>2026-03-22T13:47:27.219Z</time></trkpt><trkpt lat="45.5189933" lon="8.5304283"><ele>180.0</ele><time>2026-03-22T13:47:28.219Z</time></trkpt><trkpt lat="45.5189433" lon="8.53055"><ele>180.0</ele><time>2026-03-22T13:47:29.219Z</time></trkpt><trkpt lat="45.518885" lon="8.530695"><ele>180.0</ele><time>2026-03-22T13:47:30.219Z</time></trkpt><trkpt lat="45.5188267" lon="8.5308483"><ele>180.0</ele><time>2026-03-22T13:47:31.219Z</time></trkpt><trkpt lat="45.518755" lon="8.5310217"><ele>180.0</ele><time>2026-03-22T13:47:32.219Z</time></trkpt><trkpt lat="45.5186833" lon="8.5312117"><ele>180.0</ele><time>2026-03-22T13:47:33.219Z</time></trkpt><trkpt lat="45.5186133" lon="8.53139"><ele>180.0</ele><time>2026-03-22T13:47:34.219Z</time></trkpt><trkpt lat="45.5185433" lon="8.5315667"><ele>180.0</ele><time>2026-03-22T13:47:35.219Z</time></trkpt><trkpt lat="45.518465" lon="8.531745"><ele>180.0</ele><time>2026-03-22T13:47:36.219Z</time></trkpt><trkpt lat="45.518385" lon="8.5319417"><ele>180.0</ele><time>2026-03-22T13:47:37.22Z</time></trkpt><trkpt lat="45.5182983" lon="8.5321333"><ele>180.0</ele><time>2026-03-22T13:47:38.219Z</time></trkpt><trkpt lat="45.5182217" lon="8.5323117"><ele>180.0</ele><time>2026-03-22T13:47:39.219Z</time></trkpt><trkpt lat="45.518145" lon="8.532495"><ele>180.0</ele><time>2026-03-22T13:47:40.219Z</time></trkpt><trkpt lat="45.518065" lon="8.5326817"><ele>180.0</ele><time>2026-03-22T13:47:41.219Z</time></trkpt><trkpt lat="45.5179817" lon="8.5328617"><ele>180.0</ele><time>2026-03-22T13:47:42.219Z</time></trkpt><trkpt lat="45.5178883" lon="8.5330467"><ele>180.0</ele><time>2026-03-22T13:47:43.219Z</time></trkpt><trkpt lat="45.5177883" lon="8.533225"><ele>179.33333333333334</ele><time>2026-03-22T13:47:44.219Z</time></trkpt><trkpt lat="45.5176833" lon="8.5333983"><ele>178.66666666666669</ele><time>2026-03-22T13:47:45.219Z</time></trkpt><trkpt lat="45.517585" lon="8.5335583"><ele>178.0</ele><time>2026-03-22T13:47:46.219Z</time></trkpt><trkpt lat="45.5174833" lon="8.5337183"><ele>178.0</ele><time>2026-03-22T13:47:47.219Z</time></trkpt><trkpt lat="45.5173767" lon="8.5338683"><ele>178.0</ele><time>2026-03-22T13:47:48.219Z</time></trkpt><trkpt lat="45.5172717" lon="8.53402"><ele>178.0</ele><time>2026-03-22T13:47:49.219Z</time></trkpt><trkpt lat="45.5171617" lon="8.53416"><ele>178.0</ele><time>2026-03-22T13:47:50.219Z</time></trkpt><trkpt lat="45.5170517" lon="8.5343033"><ele>178.0</ele><time>2026-03-22T13:47:51.219Z</time></trkpt><trkpt lat="45.5169433" lon="8.5344467"><ele>178.0</ele><time>2026-03-22T13:47:52.219Z</time></trkpt><trkpt lat="45.5168333" lon="8.53459"><ele>178.0</ele><time>2026-03-22T13:47:53.219Z</time></trkpt><trkpt lat="45.51672" lon="8.5347267"><ele>178.0</ele><time>2026-03-22T13:47:54.219Z</time></trkpt><trkpt lat="45.5166083" lon="8.534875"><ele>178.66666666666669</ele><time>2026-03-22T13:47:55.219Z</time></trkpt><trkpt lat="45.5165" lon="8.5350167"><ele>179.33333333333334</ele><time>2026-03-22T13:47:56.219Z</time></trkpt><trkpt lat="45.5163867" lon="8.5351633"><ele>180.0</ele><time>2026-03-22T13:47:57.219Z</time></trkpt><trkpt lat="45.5162683" lon="8.5353117"><ele>179.0</ele><time>2026-03-22T13:47:58.219Z</time></trkpt><trkpt lat="45.5161533" lon="8.5354617"><ele>178.0</ele><time>2026-03-22T13:47:59.219Z</time></trkpt><trkpt lat="45.516035" lon="8.53562"><ele>177.0</ele><time>2026-03-22T13:48:00.219Z</time></trkpt><trkpt lat="45.5159233" lon="8.535785"><ele>177.0</ele><time>2026-03-22T13:48:01.219Z</time></trkpt><trkpt lat="45.5158033" lon="8.5359433"><ele>177.0</ele><time>2026-03-22T13:48:02.219Z</time></trkpt><trkpt lat="45.51568" lon="8.536105"><ele>177.0</ele><time>2026-03-22T13:48:03.219Z</time></trkpt><trkpt lat="45.51556" lon="8.5362633"><ele>177.33333333333334</ele><time>2026-03-22T13:48:04.219Z</time></trkpt><trkpt lat="45.5154417" lon="8.5364217"><ele>177.66666666666669</ele><time>2026-03-22T13:48:05.219Z</time></trkpt><trkpt lat="45.51532" lon="8.5365817"><ele>178.0</ele><time>2026-03-22T13:48:06.219Z</time></trkpt><trkpt lat="45.515205" lon="8.536735"><ele>178.33333333333334</ele><time>2026-03-22T13:48:07.219Z</time></trkpt><trkpt lat="45.51509" lon="8.5368883"><ele>178.66666666666666</ele><time>2026-03-22T13:48:08.219Z</time></trkpt><trkpt lat="45.5149767" lon="8.5370417"><ele>179.0</ele><time>2026-03-22T13:48:09.219Z</time></trkpt><trkpt lat="45.5148633" lon="8.5371933"><ele>179.33333333333331</ele><time>2026-03-22T13:48:10.219Z</time></trkpt><trkpt lat="45.5147467" lon="8.5373383"><ele>179.66666666666666</ele><time>2026-03-22T13:48:11.219Z</time></trkpt><trkpt lat="45.5146383" lon="8.5374833"><ele>180.0</ele><time>2026-03-22T13:48:12.219Z</time></trkpt><trkpt lat="45.514525" lon="8.5376317"><ele>179.0</ele><time>2026-03-22T13:48:13.219Z</time></trkpt><trkpt lat="45.5142833" lon="8.5379283"><ele>178.0</ele><time>2026-03-22T13:48:15.219Z</time></trkpt><trkpt lat="45.5140567" lon="8.5382267"><ele>178.0</ele><time>2026-03-22T13:48:17.219Z</time></trkpt><trkpt lat="45.5139417" lon="8.5383717"><ele>178.0</ele><time>2026-03-22T13:48:18.219Z</time></trkpt><trkpt lat="45.5138283" lon="8.5385267"><ele>178.0</ele><time>2026-03-22T13:48:19.219Z</time></trkpt><trkpt lat="45.5137117" lon="8.53867"><ele>178.0</ele><time>2026-03-22T13:48:20.219Z</time></trkpt><trkpt lat="45.5136" lon="8.5388183"><ele>178.0</ele><time>2026-03-22T13:48:21.219Z</time></trkpt><trkpt lat="45.5134883" lon="8.5389583"><ele>178.0</ele><time>2026-03-22T13:48:22.219Z</time></trkpt><trkpt lat="45.513375" lon="8.5390933"><ele>178.0</ele><time>2026-03-22T13:48:23.219Z</time></trkpt><trkpt lat="45.513265" lon="8.5392433"><ele>178.0</ele><time>2026-03-22T13:48:24.219Z</time></trkpt><trkpt lat="45.513145" lon="8.5393833"><ele>178.0</ele><time>2026-03-22T13:48:25.219Z</time></trkpt><trkpt lat="45.5130317" lon="8.5395233"><ele>178.0</ele><time>2026-03-22T13:48:26.219Z</time></trkpt><trkpt lat="45.512915" lon="8.539665"><ele>177.33333333333334</ele><time>2026-03-22T13:48:27.219Z</time></trkpt><trkpt lat="45.5128033" lon="8.5398067"><ele>176.66666666666666</ele><time>2026-03-22T13:48:28.219Z</time></trkpt><trkpt lat="45.512685" lon="8.5399517"><ele>176.0</ele><time>2026-03-22T13:48:29.219Z</time></trkpt><trkpt lat="45.5125667" lon="8.540095"><ele>176.0</ele><time>2026-03-22T13:48:30.219Z</time></trkpt><trkpt lat="45.5124567" lon="8.540245"><ele>176.0</ele><time>2026-03-22T13:48:31.219Z</time></trkpt><trkpt lat="45.5123433" lon="8.5403933"><ele>176.0</ele><time>2026-03-22T13:48:32.219Z</time></trkpt><trkpt lat="45.51223" lon="8.5405383"><ele>176.0</ele><time>2026-03-22T13:48:33.219Z</time></trkpt><trkpt lat="45.5121233" lon="8.54067"><ele>176.0</ele><time>2026-03-22T13:48:34.219Z</time></trkpt><trkpt lat="45.5120267" lon="8.54081"><ele>176.0</ele><time>2026-03-22T13:48:35.219Z</time></trkpt><trkpt lat="45.5119433" lon="8.54094"><ele>176.0</ele><time>2026-03-22T13:48:36.219Z</time></trkpt><trkpt lat="45.5118633" lon="8.5410483"><ele>176.0</ele><time>2026-03-22T13:48:37.218Z</time></trkpt><trkpt lat="45.5117917" lon="8.5411367"><ele>176.0</ele><time>2026-03-22T13:48:38.218Z</time></trkpt><trkpt lat="45.5117367" lon="8.5412117"><ele>176.0</ele><time>2026-03-22T13:48:39.218Z</time></trkpt><trkpt lat="45.5116683" lon="8.5413117"><ele>176.0</ele><time>2026-03-22T13:48:41.218Z</time></trkpt><trkpt lat="45.5116133" lon="8.5413933"><ele>176.0</ele><time>2026-03-22T13:48:44.218Z</time></trkpt><trkpt lat="45.5115517" lon="8.541465"><ele>176.0</ele><time>2026-03-22T13:48:49.218Z</time></trkpt><trkpt lat="45.511525" lon="8.54159"><ele>176.0</ele><time>2026-03-22T13:48:52.218Z</time></trkpt><trkpt lat="45.511545" lon="8.5416783"><ele>176.0</ele><time>2026-03-22T13:48:54.218Z</time></trkpt><trkpt lat="45.5116067" lon="8.54172"><ele>176.0</ele><time>2026-03-22T13:48:57.218Z</time></trkpt><trkpt lat="45.511685" lon="8.5417783"><ele>176.0</ele><time>2026-03-22T13:48:59.218Z</time></trkpt><trkpt lat="45.51174" lon="8.5419333"><ele>176.0</ele><time>2026-03-22T13:49:01.218Z</time></trkpt><trkpt lat="45.5117617" lon="8.542025"><ele>176.0</ele><time>2026-03-22T13:49:02.218Z</time></trkpt><trkpt lat="45.51179" lon="8.5421133"><ele>176.0</ele><time>2026-03-22T13:49:03.218Z</time></trkpt><trkpt lat="45.5118183" lon="8.5422033"><ele>176.0</ele><time>2026-03-22T13:49:04.218Z</time></trkpt><trkpt lat="45.5118417" lon="8.5422883"><ele>176.0</ele><time>2026-03-22T13:49:05.218Z</time></trkpt><trkpt lat="45.511885" lon="8.5424567"><ele>176.0</ele><time>2026-03-22T13:49:07.218Z</time></trkpt><trkpt lat="45.51193" lon="8.5426183"><ele>176.0</ele><time>2026-03-22T13:49:09.218Z</time></trkpt><trkpt lat="45.511975" lon="8.5427717"><ele>176.0</ele><time>2026-03-22T13:49:11.218Z</time></trkpt><trkpt lat="45.5119967" lon="8.5428567"><ele>176.0</ele><time>2026-03-22T13:49:12.218Z</time></trkpt><trkpt lat="45.5120217" lon="8.5429433"><ele>176.0</ele><time>2026-03-22T13:49:13.218Z</time></trkpt><trkpt lat="45.5120467" lon="8.5430283"><ele>176.0</ele><time>2026-03-22T13:49:14.218Z</time></trkpt><trkpt lat="45.51207" lon="8.5431167"><ele>176.0</ele><time>2026-03-22T13:49:15.218Z</time></trkpt><trkpt lat="45.5120983" lon="8.54321"><ele>176.0</ele><time>2026-03-22T13:49:16.218Z</time></trkpt><trkpt lat="45.512125" lon="8.5433017"><ele>176.0</ele><time>2026-03-22T13:49:17.218Z</time></trkpt><trkpt lat="45.51215" lon="8.5433967"><ele>176.0</ele><time>2026-03-22T13:49:18.218Z</time></trkpt><trkpt lat="45.5121717" lon="8.54349"><ele>176.0</ele><time>2026-03-22T13:49:19.218Z</time></trkpt><trkpt lat="45.5122017" lon="8.5435933"><ele>176.0</ele><time>2026-03-22T13:49:20.218Z</time></trkpt><trkpt lat="45.5122283" lon="8.5436967"><ele>176.0</ele><time>2026-03-22T13:49:21.218Z</time></trkpt><trkpt lat="45.5122567" lon="8.5437883"><ele>176.0</ele><time>2026-03-22T13:49:22.218Z</time></trkpt><trkpt lat="45.51229" lon="8.5438833"><ele>176.0</ele><time>2026-03-22T13:49:23.218Z</time></trkpt><trkpt lat="45.5123267" lon="8.54396"><ele>176.0</ele><time>2026-03-22T13:49:24.218Z</time></trkpt><trkpt lat="45.5124033" lon="8.544055"><ele>176.0</ele><time>2026-03-22T13:49:26.218Z</time></trkpt><trkpt lat="45.512495" lon="8.5440433"><ele>176.0</ele><time>2026-03-22T13:49:28.218Z</time></trkpt><trkpt lat="45.5126567" lon="8.543805"><ele>176.0</ele><time>2026-03-22T13:49:31.218Z</time></trkpt><trkpt lat="45.5127233" lon="8.5436933"><ele>176.0</ele><time>2026-03-22T13:49:32.218Z</time></trkpt><trkpt lat="45.5128033" lon="8.5435717"><ele>176.0</ele><time>2026-03-22T13:49:33.218Z</time></trkpt><trkpt lat="45.5128967" lon="8.543435"><ele>176.0</ele><time>2026-03-22T13:49:34.218Z</time></trkpt><trkpt lat="45.5129867" lon="8.5432883"><ele>176.0</ele><time>2026-03-22T13:49:35.218Z</time></trkpt><trkpt lat="45.5130817" lon="8.5431483"><ele>176.0</ele><time>2026-03-22T13:49:36.218Z</time></trkpt><trkpt lat="45.5131783" lon="8.543"><ele>176.0</ele><time>2026-03-22T13:49:37.218Z</time></trkpt><trkpt lat="45.513275" lon="8.54284"><ele>176.0</ele><time>2026-03-22T13:49:38.218Z</time></trkpt><trkpt lat="45.5133683" lon="8.54268"><ele>176.0</ele><time>2026-03-22T13:49:39.218Z</time></trkpt><trkpt lat="45.51346" lon="8.5425383"><ele>176.0</ele><time>2026-03-22T13:49:40.218Z</time></trkpt><trkpt lat="45.5135533" lon="8.5423933"><ele>176.0</ele><time>2026-03-22T13:49:41.218Z</time></trkpt><trkpt lat="45.5136483" lon="8.5422667"><ele>176.0</ele><time>2026-03-22T13:49:42.219Z</time></trkpt><trkpt lat="45.5137483" lon="8.5421183"><ele>176.0</ele><time>2026-03-22T13:49:43.218Z</time></trkpt><trkpt lat="45.5138433" lon="8.5419717"><ele>176.0</ele><time>2026-03-22T13:49:44.218Z</time></trkpt><trkpt lat="45.51394" lon="8.5418183"><ele>176.25</ele><time>2026-03-22T13:49:45.218Z</time></trkpt><trkpt lat="45.514035" lon="8.5416683"><ele>176.5</ele><time>2026-03-22T13:49:46.218Z</time></trkpt><trkpt lat="45.5141267" lon="8.541525"><ele>176.75</ele><time>2026-03-22T13:49:47.218Z</time></trkpt><trkpt lat="45.51422" lon="8.541375"><ele>177.0</ele><time>2026-03-22T13:49:48.218Z</time></trkpt><trkpt lat="45.5144033" lon="8.5410567"><ele>177.0</ele><time>2026-03-22T13:49:50.218Z</time></trkpt><trkpt lat="45.5145" lon="8.5409067"><ele>177.0</ele><time>2026-03-22T13:49:51.218Z</time></trkpt><trkpt lat="45.514595" lon="8.5407567"><ele>177.0</ele><time>2026-03-22T13:49:52.218Z</time></trkpt><trkpt lat="45.5146883" lon="8.54061"><ele>177.0</ele><time>2026-03-22T13:49:53.218Z</time></trkpt><trkpt lat="45.5147833" lon="8.540455"><ele>177.0</ele><time>2026-03-22T13:49:54.218Z</time></trkpt><trkpt lat="45.5148733" lon="8.5403083"><ele>177.0</ele><time>2026-03-22T13:49:55.218Z</time></trkpt><trkpt lat="45.5149683" lon="8.5401583"><ele>177.0</ele><time>2026-03-22T13:49:56.218Z</time></trkpt><trkpt lat="45.51507" lon="8.5400017"><ele>177.0</ele><time>2026-03-22T13:49:57.218Z</time></trkpt><trkpt lat="45.5151683" lon="8.5398517"><ele>177.0</ele><time>2026-03-22T13:49:58.218Z</time></trkpt><trkpt lat="45.5152667" lon="8.539695"><ele>177.0</ele><time>2026-03-22T13:49:59.218Z</time></trkpt><trkpt lat="45.5153633" lon="8.5395467"><ele>177.0</ele><time>2026-03-22T13:50:00.218Z</time></trkpt><trkpt lat="45.5154583" lon="8.5393917"><ele>177.0</ele><time>2026-03-22T13:50:01.218Z</time></trkpt><trkpt lat="45.5155533" lon="8.5392367"><ele>177.0</ele><time>2026-03-22T13:50:02.218Z</time></trkpt><trkpt lat="45.5156433" lon="8.539085"><ele>177.0</ele><time>2026-03-22T13:50:03.218Z</time></trkpt><trkpt lat="45.5157383" lon="8.5389383"><ele>177.0</ele><time>2026-03-22T13:50:04.218Z</time></trkpt><trkpt lat="45.5158283" lon="8.5387933"><ele>177.0</ele><time>2026-03-22T13:50:05.218Z</time></trkpt><trkpt lat="45.5159183" lon="8.5386433"><ele>177.0</ele><time>2026-03-22T13:50:06.218Z</time></trkpt><trkpt lat="45.5160033" lon="8.5384933"><ele>177.0</ele><time>2026-03-22T13:50:07.218Z</time></trkpt><trkpt lat="45.5160867" lon="8.5383433"><ele>177.0</ele><time>2026-03-22T13:50:08.218Z</time></trkpt><trkpt lat="45.5161767" lon="8.538195"><ele>177.0</ele><time>2026-03-22T13:50:09.218Z</time></trkpt><trkpt lat="45.5162717" lon="8.5380483"><ele>177.5</ele><time>2026-03-22T13:50:10.218Z</time></trkpt><trkpt lat="45.5165767" lon="8.5375867"><ele>178.0</ele><time>2026-03-22T13:50:13.218Z</time></trkpt><trkpt lat="45.5166767" lon="8.5374367"><ele>178.0</ele><time>2026-03-22T13:50:14.218Z</time></trkpt><trkpt lat="45.5167767" lon="8.5372717"><ele>178.0</ele><time>2026-03-22T13:50:15.218Z</time></trkpt><trkpt lat="45.516865" lon="8.5371117"><ele>178.0</ele><time>2026-03-22T13:50:16.218Z</time></trkpt><trkpt lat="45.5169617" lon="8.5369517"><ele>178.0</ele><time>2026-03-22T13:50:17.218Z</time></trkpt><trkpt lat="45.5170583" lon="8.5367967"><ele>178.0</ele><time>2026-03-22T13:50:18.218Z</time></trkpt><trkpt lat="45.5171617" lon="8.536645"><ele>178.0</ele><time>2026-03-22T13:50:19.218Z</time></trkpt><trkpt lat="45.5172583" lon="8.5364883"><ele>178.0</ele><time>2026-03-22T13:50:20.218Z</time></trkpt><trkpt lat="45.517355" lon="8.5363367"><ele>178.0</ele><time>2026-03-22T13:50:21.218Z</time></trkpt><trkpt lat="45.5174467" lon="8.5361883"><ele>178.0</ele><time>2026-03-22T13:50:22.218Z</time></trkpt><trkpt lat="45.5175283" lon="8.536055"><ele>178.0</ele><time>2026-03-22T13:50:23.218Z</time></trkpt><trkpt lat="45.51761" lon="8.5359233"><ele>178.0</ele><time>2026-03-22T13:50:24.218Z</time></trkpt><trkpt lat="45.517685" lon="8.5358117"><ele>178.0</ele><time>2026-03-22T13:50:25.218Z</time></trkpt><trkpt lat="45.5177583" lon="8.535705"><ele>178.0</ele><time>2026-03-22T13:50:26.218Z</time></trkpt><trkpt lat="45.5178233" lon="8.5356"><ele>178.0</ele><time>2026-03-22T13:50:27.218Z</time></trkpt><trkpt lat="45.517885" lon="8.5355"><ele>178.0</ele><time>2026-03-22T13:50:28.218Z</time></trkpt><trkpt lat="45.517945" lon="8.535415"><ele>178.0</ele><time>2026-03-22T13:50:29.218Z</time></trkpt><trkpt lat="45.518" lon="8.5353233"><ele>178.0</ele><time>2026-03-22T13:50:30.218Z</time></trkpt><trkpt lat="45.5180667" lon="8.53522"><ele>178.0</ele><time>2026-03-22T13:50:31.218Z</time></trkpt><trkpt lat="45.5181383" lon="8.5351017"><ele>178.0</ele><time>2026-03-22T13:50:32.218Z</time></trkpt><trkpt lat="45.5182167" lon="8.5349733"><ele>178.0</ele><time>2026-03-22T13:50:33.218Z</time></trkpt><trkpt lat="45.5182983" lon="8.53483"><ele>178.0</ele><time>2026-03-22T13:50:34.218Z</time></trkpt><trkpt lat="45.5183867" lon="8.534685"><ele>178.25</ele><time>2026-03-22T13:50:35.218Z</time></trkpt><trkpt lat="45.5184733" lon="8.5345417"><ele>178.5</ele><time>2026-03-22T13:50:36.218Z</time></trkpt><trkpt lat="45.5185683" lon="8.534395"><ele>178.75</ele><time>2026-03-22T13:50:37.218Z</time></trkpt><trkpt lat="45.5186633" lon="8.5342483"><ele>179.0</ele><time>2026-03-22T13:50:38.218Z</time></trkpt><trkpt lat="45.518755" lon="8.5340883"><ele>179.0</ele><time>2026-03-22T13:50:39.218Z</time></trkpt><trkpt lat="45.51885" lon="8.533925"><ele>179.0</ele><time>2026-03-22T13:50:40.218Z</time></trkpt><trkpt lat="45.5189433" lon="8.53377"><ele>179.0</ele><time>2026-03-22T13:50:41.218Z</time></trkpt><trkpt lat="45.51903" lon="8.5336233"><ele>179.0</ele><time>2026-03-22T13:50:42.218Z</time></trkpt><trkpt lat="45.5191133" lon="8.5334717"><ele>179.0</ele><time>2026-03-22T13:50:43.218Z</time></trkpt><trkpt lat="45.5191967" lon="8.5333283"><ele>179.0</ele><time>2026-03-22T13:50:44.218Z</time></trkpt><trkpt lat="45.519285" lon="8.5331733"><ele>179.0</ele><time>2026-03-22T13:50:45.218Z</time></trkpt><trkpt lat="45.5193733" lon="8.533025"><ele>179.0</ele><time>2026-03-22T13:50:46.218Z</time></trkpt><trkpt lat="45.5194617" lon="8.5328767"><ele>179.0</ele><time>2026-03-22T13:50:47.217Z</time></trkpt><trkpt lat="45.51956" lon="8.5327317"><ele>179.0</ele><time>2026-03-22T13:50:48.218Z</time></trkpt><trkpt lat="45.51965" lon="8.5325967"><ele>179.0</ele><time>2026-03-22T13:50:49.218Z</time></trkpt><trkpt lat="45.5197367" lon="8.5324533"><ele>179.0</ele><time>2026-03-22T13:50:50.218Z</time></trkpt><trkpt lat="45.5198267" lon="8.5323083"><ele>178.75</ele><time>2026-03-22T13:50:51.218Z</time></trkpt><trkpt lat="45.5199167" lon="8.532155"><ele>178.5</ele><time>2026-03-22T13:50:52.218Z</time></trkpt><trkpt lat="45.5200017" lon="8.5319917"><ele>178.25</ele><time>2026-03-22T13:50:53.218Z</time></trkpt><trkpt lat="45.5200967" lon="8.5318433"><ele>178.0</ele><time>2026-03-22T13:50:54.218Z</time></trkpt><trkpt lat="45.520185" lon="8.5316967"><ele>177.75</ele><time>2026-03-22T13:50:55.218Z</time></trkpt><trkpt lat="45.5202733" lon="8.5315633"><ele>177.5</ele><time>2026-03-22T13:50:56.218Z</time></trkpt><trkpt lat="45.5203617" lon="8.5314333"><ele>177.25</ele><time>2026-03-22T13:50:57.218Z</time></trkpt><trkpt lat="45.5204367" lon="8.53131"><ele>177.0</ele><time>2026-03-22T13:50:58.218Z</time></trkpt><trkpt lat="45.52051" lon="8.5311817"><ele>177.33333333333334</ele><time>2026-03-22T13:50:59.218Z</time></trkpt><trkpt lat="45.5205733" lon="8.5310717"><ele>177.66666666666666</ele><time>2026-03-22T13:51:00.218Z</time></trkpt><trkpt lat="45.520635" lon="8.5309733"><ele>178.0</ele><time>2026-03-22T13:51:01.218Z</time></trkpt><trkpt lat="45.52069" lon="8.530875"><ele>178.33333333333331</ele><time>2026-03-22T13:51:02.218Z</time></trkpt><trkpt lat="45.5207433" lon="8.5307817"><ele>178.66666666666666</ele><time>2026-03-22T13:51:03.218Z</time></trkpt><trkpt lat="45.5207867" lon="8.53071"><ele>179.0</ele><time>2026-03-22T13:51:04.218Z</time></trkpt><trkpt lat="45.5208433" lon="8.53061"><ele>179.0</ele><time>2026-03-22T13:51:06.218Z</time></trkpt><trkpt lat="45.5209217" lon="8.53058"><ele>179.0</ele><time>2026-03-22T13:51:09.218Z</time></trkpt><trkpt lat="45.5209767" lon="8.53067"><ele>179.0</ele><time>2026-03-22T13:51:12.218Z</time></trkpt><trkpt lat="45.521035" lon="8.5307417"><ele>179.0</ele><time>2026-03-22T13:51:14.218Z</time></trkpt><trkpt lat="45.5210633" lon="8.5308383"><ele>179.0</ele><time>2026-03-22T13:51:17.218Z</time></trkpt><trkpt lat="45.5209917" lon="8.5309517"><ele>179.0</ele><time>2026-03-22T13:51:19.218Z</time></trkpt><trkpt lat="45.5207883" lon="8.53129"><ele>179.0</ele><time>2026-03-22T13:51:22.218Z</time></trkpt><trkpt lat="45.5207067" lon="8.531425"><ele>179.0</ele><time>2026-03-22T13:51:23.218Z</time></trkpt><trkpt lat="45.520615" lon="8.5315533"><ele>179.0</ele><time>2026-03-22T13:51:24.218Z</time></trkpt><trkpt lat="45.5205217" lon="8.5316933"><ele>179.0</ele><time>2026-03-22T13:51:25.218Z</time></trkpt><trkpt lat="45.5204333" lon="8.53183"><ele>178.75</ele><time>2026-03-22T13:51:26.218Z</time></trkpt><trkpt lat="45.5203533" lon="8.5319583"><ele>178.5</ele><time>2026-03-22T13:51:27.218Z</time></trkpt><trkpt lat="45.5202683" lon="8.53211"><ele>178.25</ele><time>2026-03-22T13:51:28.218Z</time></trkpt><trkpt lat="45.52018" lon="8.532255"><ele>178.0</ele><time>2026-03-22T13:51:29.218Z</time></trkpt><trkpt lat="45.5200933" lon="8.5323833"><ele>178.0</ele><time>2026-03-22T13:51:30.218Z</time></trkpt><trkpt lat="45.5200067" lon="8.53251"><ele>178.0</ele><time>2026-03-22T13:51:31.218Z</time></trkpt><trkpt lat="45.51993" lon="8.5326483"><ele>178.0</ele><time>2026-03-22T13:51:32.218Z</time></trkpt><trkpt lat="45.519855" lon="8.5327717"><ele>178.0</ele><time>2026-03-22T13:51:33.218Z</time></trkpt><trkpt lat="45.5197833" lon="8.5329167"><ele>178.25</ele><time>2026-03-22T13:51:34.218Z</time></trkpt><trkpt lat="45.519705" lon="8.5330467"><ele>178.5</ele><time>2026-03-22T13:51:35.218Z</time></trkpt><trkpt lat="45.519615" lon="8.5331817"><ele>178.75</ele><time>2026-03-22T13:51:36.218Z</time></trkpt><trkpt lat="45.5195233" lon="8.5333283"><ele>179.0</ele><time>2026-03-22T13:51:37.218Z</time></trkpt><trkpt lat="45.5194333" lon="8.5334667"><ele>179.0</ele><time>2026-03-22T13:51:38.218Z</time></trkpt><trkpt lat="45.5193383" lon="8.533615"><ele>179.0</ele><time>2026-03-22T13:51:39.218Z</time></trkpt><trkpt lat="45.5191667" lon="8.533905"><ele>179.0</ele><time>2026-03-22T13:51:41.218Z</time></trkpt><trkpt lat="45.5190767" lon="8.5340567"><ele>179.0</ele><time>2026-03-22T13:51:42.218Z</time></trkpt><trkpt lat="45.51899" lon="8.5342033"><ele>179.0</ele><time>2026-03-22T13:51:43.218Z</time></trkpt><trkpt lat="45.5189017" lon="8.53436"><ele>179.0</ele><time>2026-03-22T13:51:44.218Z</time></trkpt><trkpt lat="45.5188183" lon="8.5345067"><ele>179.0</ele><time>2026-03-22T13:51:45.218Z</time></trkpt><trkpt lat="45.51873" lon="8.5346483"><ele>178.75</ele><time>2026-03-22T13:51:46.218Z</time></trkpt><trkpt lat="45.5186483" lon="8.53479"><ele>178.5</ele><time>2026-03-22T13:51:47.218Z</time></trkpt><trkpt lat="45.5185667" lon="8.5349283"><ele>178.25</ele><time>2026-03-22T13:51:48.218Z</time></trkpt><trkpt lat="45.5184817" lon="8.5350717"><ele>178.0</ele><time>2026-03-22T13:51:49.218Z</time></trkpt><trkpt lat="45.5183817" lon="8.5352083"><ele>178.0</ele><time>2026-03-22T13:51:50.218Z</time></trkpt><trkpt lat="45.5182833" lon="8.5353583"><ele>178.0</ele><time>2026-03-22T13:51:51.218Z</time></trkpt><trkpt lat="45.5181917" lon="8.5354917"><ele>178.0</ele><time>2026-03-22T13:51:52.218Z</time></trkpt><trkpt lat="45.5181017" lon="8.535645"><ele>178.0</ele><time>2026-03-22T13:51:53.218Z</time></trkpt><trkpt lat="45.518005" lon="8.5357833"><ele>178.0</ele><time>2026-03-22T13:51:54.218Z</time></trkpt><trkpt lat="45.5179133" lon="8.53593"><ele>178.0</ele><time>2026-03-22T13:51:55.218Z</time></trkpt><trkpt lat="45.5178317" lon="8.5360733"><ele>178.0</ele><time>2026-03-22T13:51:56.218Z</time></trkpt><trkpt lat="45.51775" lon="8.5362067"><ele>178.0</ele><time>2026-03-22T13:51:57.218Z</time></trkpt><trkpt lat="45.5176633" lon="8.53634"><ele>178.0</ele><time>2026-03-22T13:51:58.218Z</time></trkpt><trkpt lat="45.5175717" lon="8.536475"><ele>178.0</ele><time>2026-03-22T13:51:59.218Z</time></trkpt><trkpt lat="45.517485" lon="8.5366167"><ele>178.0</ele><time>2026-03-22T13:52:00.218Z</time></trkpt><trkpt lat="45.517395" lon="8.5367633"><ele>178.0</ele><time>2026-03-22T13:52:01.218Z</time></trkpt><trkpt lat="45.5173083" lon="8.5369167"><ele>178.0</ele><time>2026-03-22T13:52:02.218Z</time></trkpt><trkpt lat="45.5172183" lon="8.537065"><ele>178.0</ele><time>2026-03-22T13:52:03.218Z</time></trkpt><trkpt lat="45.5171283" lon="8.5372117"><ele>178.0</ele><time>2026-03-22T13:52:04.218Z</time></trkpt><trkpt lat="45.5170383" lon="8.53735"><ele>178.0</ele><time>2026-03-22T13:52:05.218Z</time></trkpt><trkpt lat="45.5169467" lon="8.53748"><ele>178.0</ele><time>2026-03-22T13:52:06.218Z</time></trkpt><trkpt lat="45.516865" lon="8.5376133"><ele>178.0</ele><time>2026-03-22T13:52:07.218Z</time></trkpt><trkpt lat="45.5167867" lon="8.53774"><ele>178.0</ele><time>2026-03-22T13:52:08.218Z</time></trkpt><trkpt lat="45.5167217" lon="8.5378533"><ele>178.0</ele><time>2026-03-22T13:52:09.218Z</time></trkpt><trkpt lat="45.5166567" lon="8.53795"><ele>178.0</ele><time>2026-03-22T13:52:10.218Z</time></trkpt><trkpt lat="45.5166" lon="8.53804"><ele>177.83333333333334</ele><time>2026-03-22T13:52:11.218Z</time></trkpt><trkpt lat="45.5165483" lon="8.5381333"><ele>177.66666666666669</ele><time>2026-03-22T13:52:12.218Z</time></trkpt><trkpt lat="45.5164933" lon="8.5382167"><ele>177.5</ele><time>2026-03-22T13:52:13.218Z</time></trkpt><trkpt lat="45.5164417" lon="8.5382933"><ele>177.33333333333334</ele><time>2026-03-22T13:52:14.218Z</time></trkpt><trkpt lat="45.5163933" lon="8.538365"><ele>177.16666666666666</ele><time>2026-03-22T13:52:15.218Z</time></trkpt><trkpt lat="45.5163583" lon="8.5384917"><ele>177.0</ele><time>2026-03-22T13:52:17.218Z</time></trkpt><trkpt lat="45.5164233" lon="8.5386333"><ele>177.0</ele><time>2026-03-22T13:52:19.218Z</time></trkpt><trkpt lat="45.51649" lon="8.5387033"><ele>177.0</ele><time>2026-03-22T13:52:20.218Z</time></trkpt><trkpt lat="45.5165783" lon="8.5387717"><ele>177.0</ele><time>2026-03-22T13:52:21.218Z</time></trkpt><trkpt lat="45.516675" lon="8.538855"><ele>177.0</ele><time>2026-03-22T13:52:22.218Z</time></trkpt><trkpt lat="45.5167667" lon="8.538955"><ele>177.0</ele><time>2026-03-22T13:52:23.218Z</time></trkpt><trkpt lat="45.51684" lon="8.539045"><ele>177.0</ele><time>2026-03-22T13:52:24.218Z</time></trkpt><trkpt lat="45.516915" lon="8.5391317"><ele>177.0</ele><time>2026-03-22T13:52:25.218Z</time></trkpt><trkpt lat="45.516975" lon="8.5392167"><ele>177.0</ele><time>2026-03-22T13:52:26.218Z</time></trkpt><trkpt lat="45.5170217" lon="8.5393017"><ele>177.0</ele><time>2026-03-22T13:52:27.218Z</time></trkpt><trkpt lat="45.5170917" lon="8.53942"><ele>177.0</ele><time>2026-03-22T13:52:29.218Z</time></trkpt><trkpt lat="45.5171233" lon="8.53951"><ele>177.0</ele><time>2026-03-22T13:52:31.218Z</time></trkpt><trkpt lat="45.5171583" lon="8.5396267"><ele>177.5</ele><time>2026-03-22T13:52:33.218Z</time></trkpt><trkpt lat="45.5171767" lon="8.53972"><ele>178.0</ele><time>2026-03-22T13:52:34.218Z</time></trkpt><trkpt lat="45.5171967" lon="8.5398317"><ele>178.5</ele><time>2026-03-22T13:52:35.218Z</time></trkpt><trkpt lat="45.51721" lon="8.5399367"><ele>179.0</ele><time>2026-03-22T13:52:36.218Z</time></trkpt><trkpt lat="45.5172217" lon="8.5400617"><ele>179.5</ele><time>2026-03-22T13:52:37.218Z</time></trkpt><trkpt lat="45.5172317" lon="8.5401983"><ele>180.0</ele><time>2026-03-22T13:52:38.218Z</time></trkpt><trkpt lat="45.5172367" lon="8.5403567"><ele>180.0</ele><time>2026-03-22T13:52:39.218Z</time></trkpt><trkpt lat="45.517235" lon="8.5405167"><ele>180.0</ele><time>2026-03-22T13:52:40.218Z</time></trkpt><trkpt lat="45.51724" lon="8.540675"><ele>180.0</ele><time>2026-03-22T13:52:41.218Z</time></trkpt><trkpt lat="45.517245" lon="8.54083"><ele>180.0</ele><time>2026-03-22T13:52:42.218Z</time></trkpt><trkpt lat="45.5172483" lon="8.5409867"><ele>180.0</ele><time>2026-03-22T13:52:43.218Z</time></trkpt><trkpt lat="45.5172533" lon="8.5411617"><ele>179.75</ele><time>2026-03-22T13:52:44.218Z</time></trkpt><trkpt lat="45.5172617" lon="8.54133"><ele>179.5</ele><time>2026-03-22T13:52:45.218Z</time></trkpt><trkpt lat="45.5172667" lon="8.541495"><ele>179.25</ele><time>2026-03-22T13:52:46.218Z</time></trkpt><trkpt lat="45.5172717" lon="8.5416617"><ele>179.0</ele><time>2026-03-22T13:52:47.218Z</time></trkpt><trkpt lat="45.51728" lon="8.541835"><ele>179.0</ele><time>2026-03-22T13:52:48.218Z</time></trkpt><trkpt lat="45.517285" lon="8.542005"><ele>179.0</ele><time>2026-03-22T13:52:49.218Z</time></trkpt><trkpt lat="45.5172917" lon="8.5421783"><ele>179.0</ele><time>2026-03-22T13:52:50.218Z</time></trkpt><trkpt lat="45.517295" lon="8.5423533"><ele>179.0</ele><time>2026-03-22T13:52:51.218Z</time></trkpt><trkpt lat="45.5173017" lon="8.5425283"><ele>179.25</ele><time>2026-03-22T13:52:52.218Z</time></trkpt><trkpt lat="45.5173067" lon="8.5427017"><ele>179.5</ele><time>2026-03-22T13:52:53.218Z</time></trkpt><trkpt lat="45.5173117" lon="8.542875"><ele>179.75</ele><time>2026-03-22T13:52:54.218Z</time></trkpt><trkpt lat="45.5173167" lon="8.54304"><ele>180.0</ele><time>2026-03-22T13:52:55.218Z</time></trkpt><trkpt lat="45.51732" lon="8.5432017"><ele>180.2</ele><time>2026-03-22T13:52:56.218Z</time></trkpt><trkpt lat="45.5173267" lon="8.54335"><ele>180.4</ele><time>2026-03-22T13:52:57.218Z</time></trkpt><trkpt lat="45.51733" lon="8.5434867"><ele>180.60000000000002</ele><time>2026-03-22T13:52:58.218Z</time></trkpt><trkpt lat="45.5173317" lon="8.5436083"><ele>180.8</ele><time>2026-03-22T13:52:59.218Z</time></trkpt><trkpt lat="45.5173317" lon="8.543715"><ele>181.0</ele><time>2026-03-22T13:53:00.218Z</time></trkpt><trkpt lat="45.51733" lon="8.5438717"><ele>180.4</ele><time>2026-03-22T13:53:02.218Z</time></trkpt><trkpt lat="45.51734" lon="8.5439717"><ele>179.8</ele><time>2026-03-22T13:53:05.218Z</time></trkpt><trkpt lat="45.5174133" lon="8.544025"><ele>179.20000000000002</ele><time>2026-03-22T13:53:08.218Z</time></trkpt><trkpt lat="45.5174917" lon="8.5440283"><ele>178.60000000000002</ele><time>2026-03-22T13:53:10.218Z</time></trkpt><trkpt lat="45.5175817" lon="8.544025"><ele>178.0</ele><time>2026-03-22T13:53:12.217Z</time></trkpt><trkpt lat="45.5177117" lon="8.544015"><ele>178.0</ele><time>2026-03-22T13:53:14.217Z</time></trkpt><trkpt lat="45.5177883" lon="8.544"><ele>178.0</ele><time>2026-03-22T13:53:15.217Z</time></trkpt><trkpt lat="45.5178633" lon="8.54399"><ele>178.0</ele><time>2026-03-22T13:53:16.217Z</time></trkpt><trkpt lat="45.517945" lon="8.54399"><ele>178.0</ele><time>2026-03-22T13:53:17.217Z</time></trkpt><trkpt lat="45.5181333" lon="8.5439917"><ele>178.0</ele><time>2026-03-22T13:53:19.217Z</time></trkpt><trkpt lat="45.51823" lon="8.5439917"><ele>178.8</ele><time>2026-03-22T13:53:20.217Z</time></trkpt><trkpt lat="45.5184017" lon="8.5440267"><ele>179.60000000000002</ele><time>2026-03-22T13:53:22.217Z</time></trkpt><trkpt lat="45.518475" lon="8.5440733"><ele>180.39999999999998</ele><time>2026-03-22T13:53:23.217Z</time></trkpt><trkpt lat="45.5185417" lon="8.5440967"><ele>181.2</ele><time>2026-03-22T13:53:24.217Z</time></trkpt><trkpt lat="45.5186567" lon="8.5441517"><ele>182.0</ele><time>2026-03-22T13:53:26.217Z</time></trkpt><trkpt lat="45.51873" lon="8.5442517"><ele>182.0</ele><time>2026-03-22T13:53:28.217Z</time></trkpt><trkpt lat="45.518755" lon="8.5443583"><ele>182.0</ele><time>2026-03-22T13:53:29.217Z</time></trkpt><trkpt lat="45.5187783" lon="8.5444867"><ele>182.0</ele><time>2026-03-22T13:53:30.217Z</time></trkpt><trkpt lat="45.5188117" lon="8.5446183"><ele>182.0</ele><time>2026-03-22T13:53:31.217Z</time></trkpt><trkpt lat="45.5188517" lon="8.544745"><ele>182.0</ele><time>2026-03-22T13:53:32.217Z</time></trkpt><trkpt lat="45.5188967" lon="8.5448767"><ele>182.0</ele><time>2026-03-22T13:53:33.217Z</time></trkpt><trkpt lat="45.5189433" lon="8.5449983"><ele>182.0</ele><time>2026-03-22T13:53:34.217Z</time></trkpt><trkpt lat="45.5189883" lon="8.545125"><ele>182.0</ele><time>2026-03-22T13:53:35.217Z</time></trkpt><trkpt lat="45.5190283" lon="8.5452567"><ele>182.0</ele><time>2026-03-22T13:53:36.217Z</time></trkpt><trkpt lat="45.5190683" lon="8.5453683"><ele>182.0</ele><time>2026-03-22T13:53:37.217Z</time></trkpt><trkpt lat="45.5191167" lon="8.5454717"><ele>181.8</ele><time>2026-03-22T13:53:38.217Z</time></trkpt><trkpt lat="45.5191767" lon="8.54557"><ele>181.6</ele><time>2026-03-22T13:53:39.217Z</time></trkpt><trkpt lat="45.519245" lon="8.5456783"><ele>181.4</ele><time>2026-03-22T13:53:40.217Z</time></trkpt><trkpt lat="45.519305" lon="8.54579"><ele>181.20000000000002</ele><time>2026-03-22T13:53:41.217Z</time></trkpt><trkpt lat="45.5193667" lon="8.5459033"><ele>181.0</ele><time>2026-03-22T13:53:42.217Z</time></trkpt><trkpt lat="45.5194267" lon="8.546015"><ele>181.0</ele><time>2026-03-22T13:53:43.217Z</time></trkpt><trkpt lat="45.5194883" lon="8.5461217"><ele>181.0</ele><time>2026-03-22T13:53:44.217Z</time></trkpt><trkpt lat="45.51954" lon="8.5462317"><ele>181.0</ele><time>2026-03-22T13:53:45.217Z</time></trkpt><trkpt lat="45.5195817" lon="8.54634"><ele>181.0</ele><time>2026-03-22T13:53:46.217Z</time></trkpt><trkpt lat="45.5196267" lon="8.54644"><ele>181.0</ele><time>2026-03-22T13:53:47.217Z</time></trkpt><trkpt lat="45.519675" lon="8.54653"><ele>181.0</ele><time>2026-03-22T13:53:48.217Z</time></trkpt><trkpt lat="45.519715" lon="8.5466167"><ele>181.0</ele><time>2026-03-22T13:53:49.217Z</time></trkpt><trkpt lat="45.5197533" lon="8.5467017"><ele>181.0</ele><time>2026-03-22T13:53:50.217Z</time></trkpt><trkpt lat="45.51979" lon="8.546785"><ele>181.0</ele><time>2026-03-22T13:53:51.217Z</time></trkpt><trkpt lat="45.5198267" lon="8.5468633"><ele>181.0</ele><time>2026-03-22T13:53:52.217Z</time></trkpt><trkpt lat="45.5198833" lon="8.5469917"><ele>181.0</ele><time>2026-03-22T13:53:54.217Z</time></trkpt><trkpt lat="45.5199333" lon="8.54709"><ele>181.0</ele><time>2026-03-22T13:53:57.217Z</time></trkpt><trkpt lat="45.5200133" lon="8.5471433"><ele>180.66666666666669</ele><time>2026-03-22T13:53:59.217Z</time></trkpt><trkpt lat="45.5200817" lon="8.5471667"><ele>180.33333333333334</ele><time>2026-03-22T13:54:00.217Z</time></trkpt><trkpt lat="45.5201567" lon="8.5471883"><ele>180.0</ele><time>2026-03-22T13:54:01.217Z</time></trkpt><trkpt lat="45.520245" lon="8.5472033"><ele>179.66666666666666</ele><time>2026-03-22T13:54:02.217Z</time></trkpt><trkpt lat="45.5203367" lon="8.5472117"><ele>179.33333333333331</ele><time>2026-03-22T13:54:03.217Z</time></trkpt><trkpt lat="45.5204233" lon="8.5472267"><ele>179.0</ele><time>2026-03-22T13:54:04.217Z</time></trkpt><trkpt lat="45.520505" lon="8.5472367"><ele>179.0</ele><time>2026-03-22T13:54:05.217Z</time></trkpt><trkpt lat="45.520585" lon="8.54724"><ele>179.0</ele><time>2026-03-22T13:54:06.217Z</time></trkpt><trkpt lat="45.5206583" lon="8.5472467"><ele>179.0</ele><time>2026-03-22T13:54:07.217Z</time></trkpt><trkpt lat="45.520745" lon="8.5472583"><ele>179.0</ele><time>2026-03-22T13:54:08.217Z</time></trkpt><trkpt lat="45.5208267" lon="8.5472617"><ele>179.0</ele><time>2026-03-22T13:54:09.217Z</time></trkpt><trkpt lat="45.5209133" lon="8.5472633"><ele>179.0</ele><time>2026-03-22T13:54:10.217Z</time></trkpt><trkpt lat="45.5209983" lon="8.547265"><ele>179.00000000000003</ele><time>2026-03-22T13:54:11.217Z</time></trkpt><trkpt lat="45.5210783" lon="8.5472767"><ele>179.0</ele><time>2026-03-22T13:54:12.217Z</time></trkpt><trkpt lat="45.5211517" lon="8.5472783"><ele>179.0</ele><time>2026-03-22T13:54:13.217Z</time></trkpt><trkpt lat="45.521225" lon="8.547275"><ele>179.0</ele><time>2026-03-22T13:54:14.217Z</time></trkpt><trkpt lat="45.5212967" lon="8.5472667"><ele>179.0</ele><time>2026-03-22T13:54:15.217Z</time></trkpt><trkpt lat="45.52136" lon="8.547265"><ele>179.00000000000003</ele><time>2026-03-22T13:54:16.217Z</time></trkpt><trkpt lat="45.521435" lon="8.54726"><ele>179.0</ele><time>2026-03-22T13:54:17.217Z</time></trkpt><trkpt lat="45.5215183" lon="8.5472667"><ele>179.16666666666666</ele><time>2026-03-22T13:54:18.217Z</time></trkpt><trkpt lat="45.5215833" lon="8.5472867"><ele>179.33333333333331</ele><time>2026-03-22T13:54:19.217Z</time></trkpt><trkpt lat="45.521655" lon="8.547315"><ele>179.5</ele><time>2026-03-22T13:54:21.217Z</time></trkpt><trkpt lat="45.5217" lon="8.54739"><ele>179.66666666666666</ele><time>2026-03-22T13:55:08.217Z</time></trkpt><trkpt lat="45.5217833" lon="8.5474433"><ele>179.83333333333334</ele><time>2026-03-22T13:55:10.217Z</time></trkpt><trkpt lat="45.52188" lon="8.5475233"><ele>180.0</ele><time>2026-03-22T13:55:12.217Z</time></trkpt><trkpt lat="45.521935" lon="8.5475967"><ele>180.0</ele><time>2026-03-22T13:55:14.217Z</time></trkpt><trkpt lat="45.5219683" lon="8.547675"><ele>180.0</ele><time>2026-03-22T13:55:17.217Z</time></trkpt><trkpt lat="45.5220033" lon="8.54775"><ele>180.0</ele><time>2026-03-22T13:55:20.217Z</time></trkpt><trkpt lat="45.5219733" lon="8.547625"><ele>180.0</ele><time>2026-03-22T13:55:39.217Z</time></trkpt><trkpt lat="45.5219033" lon="8.54754"><ele>180.0</ele><time>2026-03-22T13:55:42.217Z</time></trkpt><trkpt lat="45.521845" lon="8.5474767"><ele>180.0</ele><time>2026-03-22T13:55:45.217Z</time></trkpt><trkpt lat="45.5217917" lon="8.5474233"><ele>180.0</ele><time>2026-03-22T13:55:47.217Z</time></trkpt><trkpt lat="45.52173" lon="8.5473633"><ele>180.0</ele><time>2026-03-22T13:55:49.217Z</time></trkpt><trkpt lat="45.5217" lon="8.5472583"><ele>180.0</ele><time>2026-03-22T13:55:52.217Z</time></trkpt><trkpt lat="45.5217517" lon="8.547205"><ele>180.0</ele><time>2026-03-22T13:55:54.217Z</time></trkpt><trkpt lat="45.5218433" lon="8.5471833"><ele>180.0</ele><time>2026-03-22T13:55:56.217Z</time></trkpt><trkpt lat="45.5219517" lon="8.5471267"><ele>180.0</ele><time>2026-03-22T13:55:58.217Z</time></trkpt><trkpt lat="45.52202" lon="8.547085"><ele>180.16666666666666</ele><time>2026-03-22T13:55:59.217Z</time></trkpt><trkpt lat="45.5220883" lon="8.5470367"><ele>180.33333333333334</ele><time>2026-03-22T13:56:00.217Z</time></trkpt><trkpt lat="45.5221533" lon="8.5469867"><ele>180.5</ele><time>2026-03-22T13:56:01.217Z</time></trkpt><trkpt lat="45.5222217" lon="8.54694"><ele>180.66666666666669</ele><time>2026-03-22T13:56:02.217Z</time></trkpt><trkpt lat="45.5222983" lon="8.54689"><ele>180.83333333333334</ele><time>2026-03-22T13:56:03.217Z</time></trkpt><trkpt lat="45.522375" lon="8.546825"><ele>181.0</ele><time>2026-03-22T13:56:04.217Z</time></trkpt><trkpt lat="45.522455" lon="8.5467633"><ele>181.0</ele><time>2026-03-22T13:56:05.217Z</time></trkpt><trkpt lat="45.5225283" lon="8.5467067"><ele>181.0</ele><time>2026-03-22T13:56:06.217Z</time></trkpt><trkpt lat="45.5226033" lon="8.546645"><ele>181.0</ele><time>2026-03-22T13:56:07.217Z</time></trkpt><trkpt lat="45.5226817" lon="8.54658"><ele>181.0</ele><time>2026-03-22T13:56:08.217Z</time></trkpt><trkpt lat="45.52276" lon="8.5465083"><ele>181.0</ele><time>2026-03-22T13:56:09.217Z</time></trkpt><trkpt lat="45.5228433" lon="8.5464417"><ele>181.0</ele><time>2026-03-22T13:56:10.217Z</time></trkpt><trkpt lat="45.52292" lon="8.54638"><ele>181.5</ele><time>2026-03-22T13:56:11.217Z</time></trkpt><trkpt lat="45.523" lon="8.5463167"><ele>182.0</ele><time>2026-03-22T13:56:12.217Z</time></trkpt><trkpt lat="45.52308" lon="8.546255"><ele>182.5</ele><time>2026-03-22T13:56:13.217Z</time></trkpt><trkpt lat="45.5231667" lon="8.5461983"><ele>183.0</ele><time>2026-03-22T13:56:14.217Z</time></trkpt><trkpt lat="45.5232483" lon="8.5461483"><ele>183.5</ele><time>2026-03-22T13:56:15.217Z</time></trkpt><trkpt lat="45.5233283" lon="8.5461233"><ele>184.0</ele><time>2026-03-22T13:56:16.217Z</time></trkpt><trkpt lat="45.5233917" lon="8.5461067"><ele>184.0</ele><time>2026-03-22T13:56:17.217Z</time></trkpt><trkpt lat="45.5234567" lon="8.5460867"><ele>184.0</ele><time>2026-03-22T13:56:18.217Z</time></trkpt><trkpt lat="45.52356" lon="8.5460517"><ele>184.0</ele><time>2026-03-22T13:56:20.217Z</time></trkpt><trkpt lat="45.52364" lon="8.5460117"><ele>184.0</ele><time>2026-03-22T13:56:22.217Z</time></trkpt><trkpt lat="45.5237083" lon="8.54597"><ele>184.0</ele><time>2026-03-22T13:56:24.217Z</time></trkpt><trkpt lat="45.5237867" lon="8.5459183"><ele>184.0</ele><time>2026-03-22T13:56:27.217Z</time></trkpt><trkpt lat="45.5238767" lon="8.5458417"><ele>184.0</ele><time>2026-03-22T13:56:31.217Z</time></trkpt><trkpt lat="45.523835" lon="8.545765"><ele>184.0</ele><time>2026-03-22T13:56:34.217Z</time></trkpt><trkpt lat="45.5237817" lon="8.5458533"><ele>184.0</ele><time>2026-03-22T13:56:37.217Z</time></trkpt><trkpt lat="45.5236867" lon="8.54593"><ele>184.0</ele><time>2026-03-22T13:56:39.217Z</time></trkpt><trkpt lat="45.5236067" lon="8.5459717"><ele>184.0</ele><time>2026-03-22T13:56:40.217Z</time></trkpt><trkpt lat="45.52352" lon="8.546005"><ele>184.0</ele><time>2026-03-22T13:56:41.217Z</time></trkpt><trkpt lat="45.523415" lon="8.54604"><ele>184.0</ele><time>2026-03-22T13:56:42.217Z</time></trkpt><trkpt lat="45.5233133" lon="8.5460833"><ele>184.0</ele><time>2026-03-22T13:56:43.218Z</time></trkpt><trkpt lat="45.5232133" lon="8.54614"><ele>184.0</ele><time>2026-03-22T13:56:44.217Z</time></trkpt><trkpt lat="45.5231117" lon="8.5462133"><ele>184.0</ele><time>2026-03-22T13:56:45.217Z</time></trkpt><trkpt lat="45.5230033" lon="8.5462967"><ele>184.0</ele><time>2026-03-22T13:56:46.217Z</time></trkpt><trkpt lat="45.5228983" lon="8.5463883"><ele>184.0</ele><time>2026-03-22T13:56:47.217Z</time></trkpt><trkpt lat="45.5227933" lon="8.5464833"><ele>184.0</ele><time>2026-03-22T13:56:48.217Z</time></trkpt><trkpt lat="45.5226833" lon="8.54657"><ele>184.0</ele><time>2026-03-22T13:56:49.217Z</time></trkpt><trkpt lat="45.5225733" lon="8.546655"><ele>183.39999999999998</ele><time>2026-03-22T13:56:50.217Z</time></trkpt><trkpt lat="45.5224733" lon="8.546725"><ele>182.8</ele><time>2026-03-22T13:56:51.217Z</time></trkpt><trkpt lat="45.5223717" lon="8.5467917"><ele>182.2</ele><time>2026-03-22T13:56:52.217Z</time></trkpt><trkpt lat="45.5222767" lon="8.5468633"><ele>181.60000000000002</ele><time>2026-03-22T13:56:53.217Z</time></trkpt><trkpt lat="45.5221867" lon="8.5469283"><ele>181.0</ele><time>2026-03-22T13:56:54.217Z</time></trkpt><trkpt lat="45.5221033" lon="8.5469867"><ele>180.83333333333334</ele><time>2026-03-22T13:56:55.217Z</time></trkpt><trkpt lat="45.5220283" lon="8.5470467"><ele>180.66666666666669</ele><time>2026-03-22T13:56:56.217Z</time></trkpt><trkpt lat="45.5219567" lon="8.5470933"><ele>180.5</ele><time>2026-03-22T13:56:57.217Z</time></trkpt><trkpt lat="45.521885" lon="8.5471333"><ele>180.33333333333334</ele><time>2026-03-22T13:56:58.217Z</time></trkpt><trkpt lat="45.5218167" lon="8.5471633"><ele>180.16666666666666</ele><time>2026-03-22T13:56:59.217Z</time></trkpt><trkpt lat="45.5217517" lon="8.54718"><ele>180.0</ele><time>2026-03-22T13:57:00.217Z</time></trkpt><trkpt lat="45.5216767" lon="8.5472367"><ele>180.0</ele><time>2026-03-22T13:57:02.217Z</time></trkpt><trkpt lat="45.5216783" lon="8.5473367"><ele>180.0</ele><time>2026-03-22T13:57:04.217Z</time></trkpt><trkpt lat="45.52178" lon="8.54742"><ele>180.0</ele><time>2026-03-22T13:57:06.217Z</time></trkpt><trkpt lat="45.52191" lon="8.5473967"><ele>180.0</ele><time>2026-03-22T13:57:08.218Z</time></trkpt><trkpt lat="45.5219583" lon="8.5473283"><ele>180.0</ele><time>2026-03-22T13:57:09.217Z</time></trkpt><trkpt lat="45.52202" lon="8.5472567"><ele>180.0</ele><time>2026-03-22T13:57:10.217Z</time></trkpt><trkpt lat="45.5221033" lon="8.5471983"><ele>180.0</ele><time>2026-03-22T13:57:11.217Z</time></trkpt><trkpt lat="45.5221833" lon="8.5471383"><ele>180.0</ele><time>2026-03-22T13:57:12.217Z</time></trkpt><trkpt lat="45.522275" lon="8.5470717"><ele>180.0</ele><time>2026-03-22T13:57:13.217Z</time></trkpt><trkpt lat="45.5223617" lon="8.5470067"><ele>180.0</ele><time>2026-03-22T13:57:14.217Z</time></trkpt><trkpt lat="45.52245" lon="8.5469233"><ele>180.2</ele><time>2026-03-22T13:57:15.217Z</time></trkpt><trkpt lat="45.522545" lon="8.5468333"><ele>180.4</ele><time>2026-03-22T13:57:16.217Z</time></trkpt><trkpt lat="45.5226467" lon="8.5467533"><ele>180.60000000000002</ele><time>2026-03-22T13:57:17.217Z</time></trkpt><trkpt lat="45.52274" lon="8.54668"><ele>180.8</ele><time>2026-03-22T13:57:18.217Z</time></trkpt><trkpt lat="45.52283" lon="8.5465983"><ele>181.0</ele><time>2026-03-22T13:57:19.217Z</time></trkpt><trkpt lat="45.52293" lon="8.5465117"><ele>181.60000000000002</ele><time>2026-03-22T13:57:20.217Z</time></trkpt><trkpt lat="45.523025" lon="8.5464333"><ele>182.2</ele><time>2026-03-22T13:57:21.217Z</time></trkpt><trkpt lat="45.5231183" lon="8.5463717"><ele>182.8</ele><time>2026-03-22T13:57:22.217Z</time></trkpt><trkpt lat="45.52322" lon="8.546325"><ele>183.39999999999998</ele><time>2026-03-22T13:57:23.217Z</time></trkpt><trkpt lat="45.52331" lon="8.546265"><ele>184.0</ele><time>2026-03-22T13:57:24.217Z</time></trkpt><trkpt lat="45.523395" lon="8.5462183"><ele>184.0</ele><time>2026-03-22T13:57:25.217Z</time></trkpt><trkpt lat="45.5234833" lon="8.5461867"><ele>184.0</ele><time>2026-03-22T13:57:26.217Z</time></trkpt><trkpt lat="45.52356" lon="8.5461733"><ele>184.0</ele><time>2026-03-22T13:57:27.217Z</time></trkpt><trkpt lat="45.523675" lon="8.5462"><ele>184.0</ele><time>2026-03-22T13:57:29.216Z</time></trkpt><trkpt lat="45.5237383" lon="8.5462467"><ele>184.0</ele><time>2026-03-22T13:57:30.216Z</time></trkpt><trkpt lat="45.5237767" lon="8.5463183"><ele>184.0</ele><time>2026-03-22T13:57:31.216Z</time></trkpt><trkpt lat="45.5238067" lon="8.5464233"><ele>184.0</ele><time>2026-03-22T13:57:32.216Z</time></trkpt><trkpt lat="45.5238183" lon="8.5465583"><ele>184.0</ele><time>2026-03-22T13:57:33.216Z</time></trkpt><trkpt lat="45.523825" lon="8.5467033"><ele>184.0</ele><time>2026-03-22T13:57:34.216Z</time></trkpt><trkpt lat="45.5238433" lon="8.5468317"><ele>184.0</ele><time>2026-03-22T13:57:35.216Z</time></trkpt><trkpt lat="45.5238583" lon="8.5469483"><ele>184.0</ele><time>2026-03-22T13:57:36.216Z</time></trkpt><trkpt lat="45.5238717" lon="8.5470583"><ele>184.0</ele><time>2026-03-22T13:57:37.216Z</time></trkpt><trkpt lat="45.5238883" lon="8.5471733"><ele>184.0</ele><time>2026-03-22T13:57:38.216Z</time></trkpt><trkpt lat="45.5239117" lon="8.5472983"><ele>184.0</ele><time>2026-03-22T13:57:39.216Z</time></trkpt><trkpt lat="45.5239283" lon="8.5474183"><ele>184.0</ele><time>2026-03-22T13:57:40.216Z</time></trkpt><trkpt lat="45.5239617" lon="8.5475267"><ele>184.0</ele><time>2026-03-22T13:57:41.216Z</time></trkpt><trkpt lat="45.52399" lon="8.547645"><ele>184.0</ele><time>2026-03-22T13:57:42.216Z</time></trkpt><trkpt lat="45.5240233" lon="8.5477567"><ele>184.0</ele><time>2026-03-22T13:57:43.216Z</time></trkpt><trkpt lat="45.5240617" lon="8.5478717"><ele>184.0</ele><time>2026-03-22T13:57:44.216Z</time></trkpt><trkpt lat="45.5240933" lon="8.5480033"><ele>184.0</ele><time>2026-03-22T13:57:45.216Z</time></trkpt><trkpt lat="45.5241033" lon="8.5481517"><ele>184.0</ele><time>2026-03-22T13:57:46.216Z</time></trkpt><trkpt lat="45.5241133" lon="8.5482967"><ele>184.0</ele><time>2026-03-22T13:57:47.216Z</time></trkpt><trkpt lat="45.5241183" lon="8.5484383"><ele>183.83333333333334</ele><time>2026-03-22T13:57:48.216Z</time></trkpt><trkpt lat="45.524125" lon="8.548575"><ele>183.66666666666669</ele><time>2026-03-22T13:57:49.216Z</time></trkpt><trkpt lat="45.5241183" lon="8.5487033"><ele>183.5</ele><time>2026-03-22T13:57:50.216Z</time></trkpt><trkpt lat="45.524095" lon="8.5488317"><ele>183.33333333333334</ele><time>2026-03-22T13:57:51.216Z</time></trkpt><trkpt lat="45.5240767" lon="8.54895"><ele>183.16666666666666</ele><time>2026-03-22T13:57:52.216Z</time></trkpt><trkpt lat="45.5240733" lon="8.54907"><ele>183.0</ele><time>2026-03-22T13:57:53.216Z</time></trkpt><trkpt lat="45.5240667" lon="8.5491867"><ele>183.0</ele><time>2026-03-22T13:57:54.216Z</time></trkpt><trkpt lat="45.52405" lon="8.5493"><ele>183.0</ele><time>2026-03-22T13:57:55.216Z</time></trkpt><trkpt lat="45.5240167" lon="8.5494217"><ele>183.0</ele><time>2026-03-22T13:57:56.216Z</time></trkpt><trkpt lat="45.523985" lon="8.54956"><ele>183.0</ele><time>2026-03-22T13:57:57.216Z</time></trkpt><trkpt lat="45.5239533" lon="8.5497183"><ele>183.0</ele><time>2026-03-22T13:57:58.216Z</time></trkpt><trkpt lat="45.523935" lon="8.549865"><ele>183.0</ele><time>2026-03-22T13:57:59.216Z</time></trkpt><trkpt lat="45.523915" lon="8.55"><ele>183.0</ele><time>2026-03-22T13:58:00.216Z</time></trkpt><trkpt lat="45.5238983" lon="8.550135"><ele>183.0</ele><time>2026-03-22T13:58:01.216Z</time></trkpt><trkpt lat="45.5238817" lon="8.5502583"><ele>183.0</ele><time>2026-03-22T13:58:02.216Z</time></trkpt><trkpt lat="45.523865" lon="8.5503933"><ele>183.0</ele><time>2026-03-22T13:58:03.216Z</time></trkpt><trkpt lat="45.5238417" lon="8.5505267"><ele>183.0</ele><time>2026-03-22T13:58:04.216Z</time></trkpt><trkpt lat="45.5238217" lon="8.55068"><ele>183.0</ele><time>2026-03-22T13:58:05.216Z</time></trkpt><trkpt lat="45.5238" lon="8.5508433"><ele>183.0</ele><time>2026-03-22T13:58:06.216Z</time></trkpt><trkpt lat="45.523775" lon="8.55101"><ele>183.0</ele><time>2026-03-22T13:58:07.216Z</time></trkpt><trkpt lat="45.5237483" lon="8.5511783"><ele>182.60000000000002</ele><time>2026-03-22T13:58:08.216Z</time></trkpt><trkpt lat="45.52372" lon="8.5513267"><ele>182.20000000000002</ele><time>2026-03-22T13:58:09.216Z</time></trkpt><trkpt lat="45.5236933" lon="8.551475"><ele>181.8</ele><time>2026-03-22T13:58:10.216Z</time></trkpt><trkpt lat="45.5236633" lon="8.5516233"><ele>181.4</ele><time>2026-03-22T13:58:11.216Z</time></trkpt><trkpt lat="45.5236433" lon="8.5517567"><ele>181.0</ele><time>2026-03-22T13:58:12.216Z</time></trkpt><trkpt lat="45.523625" lon="8.5518717"><ele>181.0</ele><time>2026-03-22T13:58:13.216Z</time></trkpt><trkpt lat="45.52361" lon="8.5519683"><ele>181.0</ele><time>2026-03-22T13:58:14.216Z</time></trkpt><trkpt lat="45.5236017" lon="8.552085"><ele>181.0</ele><time>2026-03-22T13:58:16.216Z</time></trkpt><trkpt lat="45.523585" lon="8.5522533"><ele>181.0</ele><time>2026-03-22T13:58:31.216Z</time></trkpt><trkpt lat="45.523565" lon="8.5523933"><ele>181.0</ele><time>2026-03-22T13:58:32.216Z</time></trkpt><trkpt lat="45.5235633" lon="8.55251"><ele>181.0</ele><time>2026-03-22T13:58:33.216Z</time></trkpt><trkpt lat="45.5235783" lon="8.5526233"><ele>181.0</ele><time>2026-03-22T13:58:34.216Z</time></trkpt><trkpt lat="45.523625" lon="8.5527283"><ele>181.0</ele><time>2026-03-22T13:58:35.216Z</time></trkpt><trkpt lat="45.5237567" lon="8.5529233"><ele>181.0</ele><time>2026-03-22T13:58:37.216Z</time></trkpt><trkpt lat="45.5238033" lon="8.5530283"><ele>181.0</ele><time>2026-03-22T13:58:38.216Z</time></trkpt><trkpt lat="45.52383" lon="8.55315"><ele>181.0</ele><time>2026-03-22T13:58:39.216Z</time></trkpt><trkpt lat="45.52382" lon="8.5532733"><ele>181.0</ele><time>2026-03-22T13:58:40.216Z</time></trkpt><trkpt lat="45.5237817" lon="8.5534367"><ele>181.0</ele><time>2026-03-22T13:58:41.216Z</time></trkpt><trkpt lat="45.5237317" lon="8.5536283"><ele>181.0</ele><time>2026-03-22T13:58:42.216Z</time></trkpt><trkpt lat="45.5236867" lon="8.553825"><ele>181.0</ele><time>2026-03-22T13:58:43.216Z</time></trkpt><trkpt lat="45.5236383" lon="8.55402"><ele>181.0</ele><time>2026-03-22T13:58:44.216Z</time></trkpt><trkpt lat="45.5235983" lon="8.554215"><ele>181.0</ele><time>2026-03-22T13:58:45.216Z</time></trkpt><trkpt lat="45.5235583" lon="8.554395"><ele>181.0</ele><time>2026-03-22T13:58:46.216Z</time></trkpt><trkpt lat="45.52352" lon="8.554575"><ele>181.0</ele><time>2026-03-22T13:58:47.216Z</time></trkpt><trkpt lat="45.5234833" lon="8.5547367"><ele>181.0</ele><time>2026-03-22T13:58:48.216Z</time></trkpt><trkpt lat="45.52345" lon="8.5549083"><ele>181.0</ele><time>2026-03-22T13:58:49.216Z</time></trkpt><trkpt lat="45.523425" lon="8.5550833"><ele>181.0</ele><time>2026-03-22T13:58:50.216Z</time></trkpt><trkpt lat="45.52341" lon="8.5552683"><ele>181.0</ele><time>2026-03-22T13:58:51.216Z</time></trkpt><trkpt lat="45.5234167" lon="8.555465"><ele>181.0</ele><time>2026-03-22T13:58:52.216Z</time></trkpt><trkpt lat="45.5234183" lon="8.5556817"><ele>181.0</ele><time>2026-03-22T13:58:53.216Z</time></trkpt><trkpt lat="45.5234267" lon="8.555875"><ele>181.0</ele><time>2026-03-22T13:58:54.216Z</time></trkpt><trkpt lat="45.5234267" lon="8.55604"><ele>181.0</ele><time>2026-03-22T13:58:55.216Z</time></trkpt><trkpt lat="45.5234283" lon="8.5561933"><ele>181.0</ele><time>2026-03-22T13:58:56.216Z</time></trkpt><trkpt lat="45.5234283" lon="8.55632"><ele>181.0</ele><time>2026-03-22T13:58:57.216Z</time></trkpt><trkpt lat="45.5234333" lon="8.5564267"><ele>181.0</ele><time>2026-03-22T13:58:58.216Z</time></trkpt><trkpt lat="45.5234883" lon="8.5565667"><ele>181.0</ele><time>2026-03-22T13:59:00.216Z</time></trkpt><trkpt lat="45.523595" lon="8.5566417"><ele>181.0</ele><time>2026-03-22T13:59:02.216Z</time></trkpt><trkpt lat="45.5236717" lon="8.556675"><ele>181.0</ele><time>2026-03-22T13:59:03.216Z</time></trkpt><trkpt lat="45.5237733" lon="8.5567217"><ele>181.0</ele><time>2026-03-22T13:59:04.216Z</time></trkpt><trkpt lat="45.5238883" lon="8.55678"><ele>181.0</ele><time>2026-03-22T13:59:05.216Z</time></trkpt><trkpt lat="45.5240267" lon="8.5568517"><ele>181.0</ele><time>2026-03-22T13:59:06.216Z</time></trkpt><trkpt lat="45.5241633" lon="8.5569267"><ele>181.0</ele><time>2026-03-22T13:59:07.216Z</time></trkpt><trkpt lat="45.5243" lon="8.557005"><ele>181.0</ele><time>2026-03-22T13:59:08.216Z</time></trkpt><trkpt lat="45.5244367" lon="8.5570917"><ele>181.0</ele><time>2026-03-22T13:59:09.216Z</time></trkpt><trkpt lat="45.5245783" lon="8.5571733"><ele>181.5</ele><time>2026-03-22T13:59:10.216Z</time></trkpt><trkpt lat="45.52472" lon="8.557255"><ele>182.0</ele><time>2026-03-22T13:59:11.216Z</time></trkpt><trkpt lat="45.5248617" lon="8.55733"><ele>182.5</ele><time>2026-03-22T13:59:12.216Z</time></trkpt><trkpt lat="45.5249967" lon="8.5574033"><ele>183.0</ele><time>2026-03-22T13:59:13.216Z</time></trkpt><trkpt lat="45.5251167" lon="8.5574783"><ele>183.0</ele><time>2026-03-22T13:59:14.216Z</time></trkpt><trkpt lat="45.5252383" lon="8.5575433"><ele>183.0</ele><time>2026-03-22T13:59:15.216Z</time></trkpt><trkpt lat="45.5253533" lon="8.55761"><ele>183.0</ele><time>2026-03-22T13:59:16.216Z</time></trkpt><trkpt lat="45.52547" lon="8.5576767"><ele>183.0</ele><time>2026-03-22T13:59:17.216Z</time></trkpt><trkpt lat="45.5255767" lon="8.5577483"><ele>183.5</ele><time>2026-03-22T13:59:18.216Z</time></trkpt><trkpt lat="45.52568" lon="8.5578067"><ele>184.0</ele><time>2026-03-22T13:59:19.216Z</time></trkpt><trkpt lat="45.52579" lon="8.5578567"><ele>184.5</ele><time>2026-03-22T13:59:20.216Z</time></trkpt><trkpt lat="45.525895" lon="8.5578867"><ele>185.0</ele><time>2026-03-22T13:59:21.216Z</time></trkpt><trkpt lat="45.5260117" lon="8.557915"><ele>185.0</ele><time>2026-03-22T13:59:22.216Z</time></trkpt><trkpt lat="45.5261267" lon="8.5579567"><ele>185.0</ele><time>2026-03-22T13:59:23.216Z</time></trkpt><trkpt lat="45.52624" lon="8.5580033"><ele>185.0</ele><time>2026-03-22T13:59:24.216Z</time></trkpt><trkpt lat="45.5263533" lon="8.558055"><ele>185.0</ele><time>2026-03-22T13:59:25.216Z</time></trkpt><trkpt lat="45.5264633" lon="8.5581067"><ele>185.6</ele><time>2026-03-22T13:59:26.216Z</time></trkpt><trkpt lat="45.5265717" lon="8.5581733"><ele>186.2</ele><time>2026-03-22T13:59:27.216Z</time></trkpt><trkpt lat="45.5266717" lon="8.5582233"><ele>186.8</ele><time>2026-03-22T13:59:28.217Z</time></trkpt><trkpt lat="45.5267633" lon="8.5582617"><ele>187.4</ele><time>2026-03-22T13:59:29.216Z</time></trkpt><trkpt lat="45.526855" lon="8.5582817"><ele>188.0</ele><time>2026-03-22T13:59:30.216Z</time></trkpt><trkpt lat="45.5269317" lon="8.5582917"><ele>188.0</ele><time>2026-03-22T13:59:31.216Z</time></trkpt><trkpt lat="45.5269983" lon="8.5583067"><ele>188.0</ele><time>2026-03-22T13:59:32.216Z</time></trkpt><trkpt lat="45.5270617" lon="8.55838"><ele>188.0</ele><time>2026-03-22T13:59:34.216Z</time></trkpt><trkpt lat="45.5270617" lon="8.55847"><ele>188.0</ele><time>2026-03-22T13:59:36.216Z</time></trkpt><trkpt lat="45.5269283" lon="8.55861"><ele>188.0</ele><time>2026-03-22T13:59:39.216Z</time></trkpt><trkpt lat="45.526845" lon="8.558665"><ele>187.75</ele><time>2026-03-22T13:59:40.216Z</time></trkpt><trkpt lat="45.5267433" lon="8.5587367"><ele>187.5</ele><time>2026-03-22T13:59:41.216Z</time></trkpt><trkpt lat="45.5266333" lon="8.5588083"><ele>187.25</ele><time>2026-03-22T13:59:42.216Z</time></trkpt><trkpt lat="45.5265433" lon="8.55889"><ele>187.0</ele><time>2026-03-22T13:59:43.216Z</time></trkpt><trkpt lat="45.52648" lon="8.5590217"><ele>187.0</ele><time>2026-03-22T13:59:44.216Z</time></trkpt><trkpt lat="45.5264283" lon="8.5591917"><ele>187.0</ele><time>2026-03-22T13:59:45.216Z</time></trkpt><trkpt lat="45.52639" lon="8.5593667"><ele>187.0</ele><time>2026-03-22T13:59:46.216Z</time></trkpt><trkpt lat="45.5263583" lon="8.55954"><ele>187.0</ele><time>2026-03-22T13:59:47.216Z</time></trkpt><trkpt lat="45.5263567" lon="8.5597033"><ele>186.8</ele><time>2026-03-22T13:59:48.216Z</time></trkpt><trkpt lat="45.5263717" lon="8.5598583"><ele>186.6</ele><time>2026-03-22T13:59:49.216Z</time></trkpt><trkpt lat="45.5264017" lon="8.5600083"><ele>186.4</ele><time>2026-03-22T13:59:50.216Z</time></trkpt><trkpt lat="45.5264333" lon="8.56016"><ele>186.20000000000002</ele><time>2026-03-22T13:59:51.216Z</time></trkpt><trkpt lat="45.5264683" lon="8.5603067"><ele>186.0</ele><time>2026-03-22T13:59:52.216Z</time></trkpt><trkpt lat="45.526515" lon="8.5604433"><ele>185.5</ele><time>2026-03-22T13:59:53.216Z</time></trkpt><trkpt lat="45.5265783" lon="8.5605717"><ele>185.0</ele><time>2026-03-22T13:59:54.216Z</time></trkpt><trkpt lat="45.5266617" lon="8.56068"><ele>184.5</ele><time>2026-03-22T13:59:55.216Z</time></trkpt><trkpt lat="45.5267433" lon="8.5607967"><ele>184.0</ele><time>2026-03-22T13:59:56.216Z</time></trkpt><trkpt lat="45.526815" lon="8.5609267"><ele>184.0</ele><time>2026-03-22T13:59:57.216Z</time></trkpt><trkpt lat="45.5268617" lon="8.561075"><ele>184.0</ele><time>2026-03-22T13:59:58.216Z</time></trkpt><trkpt lat="45.5268817" lon="8.5612433"><ele>184.0</ele><time>2026-03-22T13:59:59.216Z</time></trkpt><trkpt lat="45.5268883" lon="8.561415"><ele>184.0</ele><time>2026-03-22T14:00:00.216Z</time></trkpt><trkpt lat="45.5268967" lon="8.561585"><ele>184.0</ele><time>2026-03-22T14:00:01.216Z</time></trkpt><trkpt lat="45.5269033" lon="8.5617483"><ele>184.0</ele><time>2026-03-22T14:00:02.216Z</time></trkpt><trkpt lat="45.5269117" lon="8.56191"><ele>184.0</ele><time>2026-03-22T14:00:03.216Z</time></trkpt><trkpt lat="45.526925" lon="8.5620767"><ele>184.0</ele><time>2026-03-22T14:00:04.216Z</time></trkpt><trkpt lat="45.5269367" lon="8.562235"><ele>184.0</ele><time>2026-03-22T14:00:05.216Z</time></trkpt><trkpt lat="45.5269433" lon="8.5624033"><ele>184.0</ele><time>2026-03-22T14:00:06.216Z</time></trkpt><trkpt lat="45.526955" lon="8.56256"><ele>184.0</ele><time>2026-03-22T14:00:07.216Z</time></trkpt><trkpt lat="45.526965" lon="8.5627183"><ele>184.0</ele><time>2026-03-22T14:00:08.216Z</time></trkpt><trkpt lat="45.5269733" lon="8.562885"><ele>183.75</ele><time>2026-03-22T14:00:09.216Z</time></trkpt><trkpt lat="45.52698" lon="8.5630567"><ele>183.5</ele><time>2026-03-22T14:00:10.216Z</time></trkpt><trkpt lat="45.5269883" lon="8.5632383"><ele>183.25</ele><time>2026-03-22T14:00:11.216Z</time></trkpt><trkpt lat="45.5269983" lon="8.5634167"><ele>183.0</ele><time>2026-03-22T14:00:12.216Z</time></trkpt><trkpt lat="45.5270067" lon="8.5636"><ele>183.0</ele><time>2026-03-22T14:00:13.216Z</time></trkpt><trkpt lat="45.5270183" lon="8.5637817"><ele>183.0</ele><time>2026-03-22T14:00:14.216Z</time></trkpt><trkpt lat="45.5270267" lon="8.5639667"><ele>183.0</ele><time>2026-03-22T14:00:15.216Z</time></trkpt><trkpt lat="45.5270333" lon="8.5641533"><ele>183.0</ele><time>2026-03-22T14:00:16.216Z</time></trkpt><trkpt lat="45.5270383" lon="8.564335"><ele>183.0</ele><time>2026-03-22T14:00:17.216Z</time></trkpt><trkpt lat="45.52705" lon="8.564515"><ele>183.0</ele><time>2026-03-22T14:00:18.216Z</time></trkpt><trkpt lat="45.52706" lon="8.5646917"><ele>183.0</ele><time>2026-03-22T14:00:19.216Z</time></trkpt><trkpt lat="45.5270683" lon="8.5648667"><ele>183.0</ele><time>2026-03-22T14:00:20.216Z</time></trkpt><trkpt lat="45.5270717" lon="8.5650417"><ele>183.0</ele><time>2026-03-22T14:00:21.216Z</time></trkpt><trkpt lat="45.5270817" lon="8.5652083"><ele>183.0</ele><time>2026-03-22T14:00:22.216Z</time></trkpt><trkpt lat="45.527095" lon="8.5653733"><ele>183.0</ele><time>2026-03-22T14:00:23.216Z</time></trkpt><trkpt lat="45.5271017" lon="8.5655417"><ele>183.0</ele><time>2026-03-22T14:00:24.216Z</time></trkpt><trkpt lat="45.52711" lon="8.5657167"><ele>183.5</ele><time>2026-03-22T14:00:25.216Z</time></trkpt><trkpt lat="45.5271167" lon="8.565885"><ele>184.0</ele><time>2026-03-22T14:00:26.216Z</time></trkpt><trkpt lat="45.52712" lon="8.5660633"><ele>184.5</ele><time>2026-03-22T14:00:27.216Z</time></trkpt><trkpt lat="45.52713" lon="8.5662433"><ele>185.0</ele><time>2026-03-22T14:00:28.216Z</time></trkpt><trkpt lat="45.5271383" lon="8.5664283"><ele>186.25</ele><time>2026-03-22T14:00:29.216Z</time></trkpt><trkpt lat="45.5271517" lon="8.566605"><ele>187.5</ele><time>2026-03-22T14:00:30.216Z</time></trkpt><trkpt lat="45.5271583" lon="8.5667867"><ele>188.75</ele><time>2026-03-22T14:00:31.216Z</time></trkpt><trkpt lat="45.527175" lon="8.566965"><ele>190.0</ele><time>2026-03-22T14:00:32.216Z</time></trkpt><trkpt lat="45.5272" lon="8.567135"><ele>190.0</ele><time>2026-03-22T14:00:33.216Z</time></trkpt><trkpt lat="45.52722" lon="8.5672883"><ele>190.0</ele><time>2026-03-22T14:00:34.216Z</time></trkpt><trkpt lat="45.527245" lon="8.567435"><ele>190.0</ele><time>2026-03-22T14:00:35.216Z</time></trkpt><trkpt lat="45.5272733" lon="8.5675733"><ele>190.0</ele><time>2026-03-22T14:00:36.216Z</time></trkpt><trkpt lat="45.5273017" lon="8.5677"><ele>190.0</ele><time>2026-03-22T14:00:37.216Z</time></trkpt><trkpt lat="45.5273367" lon="8.5678183"><ele>189.5</ele><time>2026-03-22T14:00:38.216Z</time></trkpt><trkpt lat="45.52737" lon="8.567925"><ele>189.0</ele><time>2026-03-22T14:00:39.216Z</time></trkpt><trkpt lat="45.5274117" lon="8.56802"><ele>188.5</ele><time>2026-03-22T14:00:40.216Z</time></trkpt><trkpt lat="45.5274467" lon="8.5680967"><ele>188.0</ele><time>2026-03-22T14:00:41.216Z</time></trkpt><trkpt lat="45.5274667" lon="8.568205"><ele>187.5</ele><time>2026-03-22T14:00:43.216Z</time></trkpt><trkpt lat="45.5273683" lon="8.5682417"><ele>187.0</ele><time>2026-03-22T14:00:46.216Z</time></trkpt><trkpt lat="45.5272233" lon="8.568235"><ele>187.0</ele><time>2026-03-22T14:00:49.216Z</time></trkpt><trkpt lat="45.5271483" lon="8.5682383"><ele>187.0</ele><time>2026-03-22T14:00:51.216Z</time></trkpt><trkpt lat="45.52704" lon="8.5682"><ele>187.0</ele><time>2026-03-22T14:01:52.215Z</time></trkpt><trkpt lat="45.5269183" lon="8.5681833"><ele>187.0</ele><time>2026-03-22T14:01:54.215Z</time></trkpt><trkpt lat="45.5268417" lon="8.5681733"><ele>187.0</ele><time>2026-03-22T14:01:55.215Z</time></trkpt><trkpt lat="45.5267633" lon="8.56816"><ele>187.0</ele><time>2026-03-22T14:01:56.215Z</time></trkpt><trkpt lat="45.5266717" lon="8.568135"><ele>187.0</ele><time>2026-03-22T14:01:57.215Z</time></trkpt><trkpt lat="45.5265783" lon="8.568115"><ele>187.0</ele><time>2026-03-22T14:01:58.215Z</time></trkpt><trkpt lat="45.52649" lon="8.5681017"><ele>187.0</ele><time>2026-03-22T14:01:59.215Z</time></trkpt><trkpt lat="45.5264" lon="8.56809"><ele>187.0</ele><time>2026-03-22T14:02:00.215Z</time></trkpt><trkpt lat="45.5263083" lon="8.5680767"><ele>187.0</ele><time>2026-03-22T14:02:01.215Z</time></trkpt><trkpt lat="45.52622" lon="8.568075"><ele>187.0</ele><time>2026-03-22T14:02:02.215Z</time></trkpt><trkpt lat="45.5261267" lon="8.56809"><ele>187.0</ele><time>2026-03-22T14:02:03.215Z</time></trkpt><trkpt lat="45.5260317" lon="8.5681083"><ele>187.0</ele><time>2026-03-22T14:02:04.215Z</time></trkpt><trkpt lat="45.525935" lon="8.5681267"><ele>187.0</ele><time>2026-03-22T14:02:05.215Z</time></trkpt><trkpt lat="45.5258317" lon="8.5681583"><ele>187.0</ele><time>2026-03-22T14:02:06.215Z</time></trkpt><trkpt lat="45.5257333" lon="8.5681933"><ele>187.0</ele><time>2026-03-22T14:02:07.215Z</time></trkpt><trkpt lat="45.52563" lon="8.5682367"><ele>187.0</ele><time>2026-03-22T14:02:08.215Z</time></trkpt><trkpt lat="45.5255317" lon="8.5682867"><ele>187.0</ele><time>2026-03-22T14:02:09.215Z</time></trkpt><trkpt lat="45.525435" lon="8.568345"><ele>187.0</ele><time>2026-03-22T14:02:10.215Z</time></trkpt><trkpt lat="45.5253367" lon="8.5683983"><ele>186.8</ele><time>2026-03-22T14:02:11.215Z</time></trkpt><trkpt lat="45.5252433" lon="8.5684683"><ele>186.6</ele><time>2026-03-22T14:02:12.215Z</time></trkpt><trkpt lat="45.5251567" lon="8.5685417"><ele>186.4</ele><time>2026-03-22T14:02:13.215Z</time></trkpt><trkpt lat="45.5250717" lon="8.5686167"><ele>186.20000000000002</ele><time>2026-03-22T14:02:14.215Z</time></trkpt><trkpt lat="45.525" lon="8.5686783"><ele>186.0</ele><time>2026-03-22T14:02:15.215Z</time></trkpt><trkpt lat="45.5249283" lon="8.5687383"><ele>186.0</ele><time>2026-03-22T14:02:16.215Z</time></trkpt><trkpt lat="45.5248533" lon="8.5687933"><ele>186.0</ele><time>2026-03-22T14:02:17.215Z</time></trkpt><trkpt lat="45.524775" lon="8.5688567"><ele>186.0</ele><time>2026-03-22T14:02:18.215Z</time></trkpt><trkpt lat="45.524705" lon="8.56892"><ele>186.0</ele><time>2026-03-22T14:02:19.215Z</time></trkpt><trkpt lat="45.5246283" lon="8.5689817"><ele>186.0</ele><time>2026-03-22T14:02:20.215Z</time></trkpt><trkpt lat="45.5245517" lon="8.5690467"><ele>186.0</ele><time>2026-03-22T14:02:21.215Z</time></trkpt><trkpt lat="45.5244683" lon="8.5691167"><ele>186.20000000000002</ele><time>2026-03-22T14:02:22.215Z</time></trkpt><trkpt lat="45.52438" lon="8.5691783"><ele>186.4</ele><time>2026-03-22T14:02:23.215Z</time></trkpt><trkpt lat="45.5243" lon="8.5692533"><ele>186.6</ele><time>2026-03-22T14:02:24.215Z</time></trkpt><trkpt lat="45.5242167" lon="8.5693217"><ele>186.8</ele><time>2026-03-22T14:02:25.215Z</time></trkpt><trkpt lat="45.5241333" lon="8.569395"><ele>187.0</ele><time>2026-03-22T14:02:26.215Z</time></trkpt><trkpt lat="45.5240417" lon="8.5694617"><ele>187.0</ele><time>2026-03-22T14:02:27.215Z</time></trkpt><trkpt lat="45.5239483" lon="8.5695417"><ele>187.0</ele><time>2026-03-22T14:02:28.215Z</time></trkpt><trkpt lat="45.5238567" lon="8.5696233"><ele>187.0</ele><time>2026-03-22T14:02:29.215Z</time></trkpt><trkpt lat="45.5237617" lon="8.569705"><ele>187.0</ele><time>2026-03-22T14:02:30.215Z</time></trkpt><trkpt lat="45.5236717" lon="8.56978"><ele>187.0</ele><time>2026-03-22T14:02:31.215Z</time></trkpt><trkpt lat="45.523585" lon="8.5698617"><ele>187.0</ele><time>2026-03-22T14:02:32.215Z</time></trkpt><trkpt lat="45.5234983" lon="8.5699483"><ele>187.0</ele><time>2026-03-22T14:02:33.215Z</time></trkpt><trkpt lat="45.5234117" lon="8.5700167"><ele>187.0</ele><time>2026-03-22T14:02:34.215Z</time></trkpt><trkpt lat="45.5233183" lon="8.5700967"><ele>187.0</ele><time>2026-03-22T14:02:35.215Z</time></trkpt><trkpt lat="45.523235" lon="8.5701667"><ele>187.0</ele><time>2026-03-22T14:02:36.215Z</time></trkpt><trkpt lat="45.52316" lon="8.57022"><ele>187.0</ele><time>2026-03-22T14:02:37.215Z</time></trkpt><trkpt lat="45.5230933" lon="8.570275"><ele>187.0</ele><time>2026-03-22T14:02:38.215Z</time></trkpt><trkpt lat="45.5230267" lon="8.5703267"><ele>187.0</ele><time>2026-03-22T14:02:39.215Z</time></trkpt><trkpt lat="45.52297" lon="8.57037"><ele>187.0</ele><time>2026-03-22T14:02:40.215Z</time></trkpt><trkpt lat="45.522865" lon="8.57039"><ele>187.0</ele><time>2026-03-22T14:02:42.215Z</time></trkpt><trkpt lat="45.5227367" lon="8.570275"><ele>187.0</ele><time>2026-03-22T14:02:44.215Z</time></trkpt><trkpt lat="45.5226633" lon="8.5701933"><ele>187.0</ele><time>2026-03-22T14:02:45.215Z</time></trkpt><trkpt lat="45.5225917" lon="8.5701083"><ele>187.0</ele><time>2026-03-22T14:02:46.215Z</time></trkpt><trkpt lat="45.5225283" lon="8.570025"><ele>187.0</ele><time>2026-03-22T14:02:47.215Z</time></trkpt><trkpt lat="45.5224633" lon="8.56995"><ele>187.0</ele><time>2026-03-22T14:02:48.215Z</time></trkpt><trkpt lat="45.5224033" lon="8.5698833"><ele>187.0</ele><time>2026-03-22T14:02:49.215Z</time></trkpt><trkpt lat="45.522345" lon="8.569845"><ele>187.0</ele><time>2026-03-22T14:02:50.215Z</time></trkpt><trkpt lat="45.52228" lon="8.5698183"><ele>187.0</ele><time>2026-03-22T14:02:51.215Z</time></trkpt><trkpt lat="45.52217" lon="8.569795"><ele>187.0</ele><time>2026-03-22T14:02:53.215Z</time></trkpt><trkpt lat="45.522055" lon="8.5698417"><ele>187.0</ele><time>2026-03-22T14:02:55.215Z</time></trkpt><trkpt lat="45.522" lon="8.569905"><ele>187.0</ele><time>2026-03-22T14:02:56.215Z</time></trkpt><trkpt lat="45.52194" lon="8.570005"><ele>186.5</ele><time>2026-03-22T14:02:57.215Z</time></trkpt><trkpt lat="45.5218883" lon="8.5701117"><ele>186.0</ele><time>2026-03-22T14:02:58.215Z</time></trkpt><trkpt lat="45.5218467" lon="8.5702133"><ele>185.5</ele><time>2026-03-22T14:02:59.215Z</time></trkpt><trkpt lat="45.5218033" lon="8.5703083"><ele>185.0</ele><time>2026-03-22T14:03:00.215Z</time></trkpt><trkpt lat="45.5217633" lon="8.570395"><ele>184.5</ele><time>2026-03-22T14:03:01.215Z</time></trkpt><trkpt lat="45.5217233" lon="8.57049"><ele>184.0</ele><time>2026-03-22T14:03:02.215Z</time></trkpt><trkpt lat="45.52168" lon="8.5705967"><ele>184.0</ele><time>2026-03-22T14:03:03.215Z</time></trkpt><trkpt lat="45.5216383" lon="8.5706933"><ele>184.0</ele><time>2026-03-22T14:03:04.215Z</time></trkpt><trkpt lat="45.5215933" lon="8.5708"><ele>184.0</ele><time>2026-03-22T14:03:05.215Z</time></trkpt><trkpt lat="45.521545" lon="8.5709033"><ele>184.0</ele><time>2026-03-22T14:03:06.215Z</time></trkpt><trkpt lat="45.5214967" lon="8.5710033"><ele>184.0</ele><time>2026-03-22T14:03:07.215Z</time></trkpt><trkpt lat="45.5214533" lon="8.5710967"><ele>184.0</ele><time>2026-03-22T14:03:08.215Z</time></trkpt><trkpt lat="45.5214067" lon="8.5711833"><ele>184.16666666666669</ele><time>2026-03-22T14:03:09.215Z</time></trkpt><trkpt lat="45.5213317" lon="8.5713433"><ele>184.33333333333334</ele><time>2026-03-22T14:03:11.215Z</time></trkpt><trkpt lat="45.5212883" lon="8.57143"><ele>184.5</ele><time>2026-03-22T14:03:12.215Z</time></trkpt><trkpt lat="45.5212433" lon="8.571495"><ele>184.66666666666666</ele><time>2026-03-22T14:03:13.215Z</time></trkpt><trkpt lat="45.5211683" lon="8.57155"><ele>184.83333333333331</ele><time>2026-03-22T14:03:15.215Z</time></trkpt><trkpt lat="45.5211067" lon="8.5715867"><ele>185.0</ele><time>2026-03-22T14:03:18.215Z</time></trkpt><trkpt lat="45.52103" lon="8.5716067"><ele>185.0</ele><time>2026-03-22T14:03:38.215Z</time></trkpt><trkpt lat="45.5209633" lon="8.5716083"><ele>185.0</ele><time>2026-03-22T14:03:40.215Z</time></trkpt><trkpt lat="45.5208767" lon="8.57167"><ele>185.0</ele><time>2026-03-22T14:03:43.215Z</time></trkpt><trkpt lat="45.52081" lon="8.5717567"><ele>185.0</ele><time>2026-03-22T14:03:45.215Z</time></trkpt><trkpt lat="45.5207367" lon="8.5718183"><ele>185.0</ele><time>2026-03-22T14:03:47.215Z</time></trkpt><trkpt lat="45.5206267" lon="8.5718883"><ele>185.0</ele><time>2026-03-22T14:03:49.215Z</time></trkpt><trkpt lat="45.5205633" lon="8.57191"><ele>185.0</ele><time>2026-03-22T14:03:50.215Z</time></trkpt><trkpt lat="45.520495" lon="8.571935"><ele>185.0</ele><time>2026-03-22T14:03:51.215Z</time></trkpt><trkpt lat="45.5203867" lon="8.5719667"><ele>185.0</ele><time>2026-03-22T14:03:53.215Z</time></trkpt><trkpt lat="45.5203067" lon="8.5719967"><ele>185.0</ele><time>2026-03-22T14:03:55.215Z</time></trkpt><trkpt lat="45.52019" lon="8.572035"><ele>185.0</ele><time>2026-03-22T14:03:57.215Z</time></trkpt><trkpt lat="45.5200767" lon="8.5720667"><ele>184.0</ele><time>2026-03-22T14:03:59.215Z</time></trkpt><trkpt lat="45.51999" lon="8.57208"><ele>183.0</ele><time>2026-03-22T14:04:01.215Z</time></trkpt><trkpt lat="45.5199083" lon="8.5720833"><ele>182.0</ele><time>2026-03-22T14:04:04.215Z</time></trkpt><trkpt lat="45.519835" lon="8.5720517"><ele>181.0</ele><time>2026-03-22T14:04:06.215Z</time></trkpt><trkpt lat="45.519715" lon="8.57206"><ele>180.0</ele><time>2026-03-22T14:04:08.215Z</time></trkpt><trkpt lat="45.5196417" lon="8.5720983"><ele>179.0</ele><time>2026-03-22T14:04:09.215Z</time></trkpt><trkpt lat="45.5195733" lon="8.5721433"><ele>179.0</ele><time>2026-03-22T14:04:10.215Z</time></trkpt><trkpt lat="45.5194883" lon="8.5721867"><ele>179.0</ele><time>2026-03-22T14:04:11.215Z</time></trkpt><trkpt lat="45.5194033" lon="8.5722383"><ele>179.0</ele><time>2026-03-22T14:04:12.215Z</time></trkpt><trkpt lat="45.5192933" lon="8.5722883"><ele>179.0</ele><time>2026-03-22T14:04:13.215Z</time></trkpt><trkpt lat="45.51918" lon="8.57233"><ele>179.0</ele><time>2026-03-22T14:04:14.215Z</time></trkpt><trkpt lat="45.51906" lon="8.5723617"><ele>179.0</ele><time>2026-03-22T14:04:15.215Z</time></trkpt><trkpt lat="45.5189417" lon="8.5723883"><ele>179.0</ele><time>2026-03-22T14:04:16.215Z</time></trkpt><trkpt lat="45.5188183" lon="8.5724167"><ele>179.0</ele><time>2026-03-22T14:04:17.215Z</time></trkpt><trkpt lat="45.5186933" lon="8.5724517"><ele>179.0</ele><time>2026-03-22T14:04:18.215Z</time></trkpt><trkpt lat="45.51857" lon="8.5724867"><ele>179.0</ele><time>2026-03-22T14:04:19.215Z</time></trkpt><trkpt lat="45.518455" lon="8.5725233"><ele>179.0</ele><time>2026-03-22T14:04:20.215Z</time></trkpt><trkpt lat="45.518335" lon="8.57257"><ele>179.0</ele><time>2026-03-22T14:04:21.215Z</time></trkpt><trkpt lat="45.5182283" lon="8.57261"><ele>179.0</ele><time>2026-03-22T14:04:22.215Z</time></trkpt><trkpt lat="45.5181067" lon="8.572645"><ele>179.0</ele><time>2026-03-22T14:04:23.215Z</time></trkpt><trkpt lat="45.5179767" lon="8.572695"><ele>179.0</ele><time>2026-03-22T14:04:24.215Z</time></trkpt><trkpt lat="45.5178467" lon="8.5727333"><ele>179.0</ele><time>2026-03-22T14:04:25.215Z</time></trkpt><trkpt lat="45.51772" lon="8.5727767"><ele>179.0</ele><time>2026-03-22T14:04:26.215Z</time></trkpt><trkpt lat="45.51759" lon="8.5728233"><ele>180.5</ele><time>2026-03-22T14:04:27.215Z</time></trkpt><trkpt lat="45.5174617" lon="8.5728617"><ele>182.0</ele><time>2026-03-22T14:04:28.215Z</time></trkpt><trkpt lat="45.51734" lon="8.5728933"><ele>183.5</ele><time>2026-03-22T14:04:29.215Z</time></trkpt><trkpt lat="45.5172333" lon="8.5729233"><ele>185.0</ele><time>2026-03-22T14:04:30.215Z</time></trkpt><trkpt lat="45.5171317" lon="8.57296"><ele>184.6</ele><time>2026-03-22T14:04:31.215Z</time></trkpt><trkpt lat="45.5170383" lon="8.5729967"><ele>184.2</ele><time>2026-03-22T14:04:32.215Z</time></trkpt><trkpt lat="45.5169483" lon="8.5730217"><ele>183.8</ele><time>2026-03-22T14:04:33.215Z</time></trkpt><trkpt lat="45.5168717" lon="8.573045"><ele>183.4</ele><time>2026-03-22T14:04:34.215Z</time></trkpt><trkpt lat="45.5168017" lon="8.57307"><ele>183.0</ele><time>2026-03-22T14:04:35.215Z</time></trkpt><trkpt lat="45.51668" lon="8.5731117"><ele>183.0</ele><time>2026-03-22T14:04:37.215Z</time></trkpt><trkpt lat="45.5165983" lon="8.5731533"><ele>183.0</ele><time>2026-03-22T14:04:39.215Z</time></trkpt><trkpt lat="45.5165167" lon="8.573175"><ele>183.0</ele><time>2026-03-22T14:04:42.215Z</time></trkpt><trkpt lat="45.516465" lon="8.5732367"><ele>183.0</ele><time>2026-03-22T14:04:45.215Z</time></trkpt><trkpt lat="45.51645" lon="8.5733583"><ele>183.0</ele><time>2026-03-22T14:04:47.215Z</time></trkpt><trkpt lat="45.516435" lon="8.5735567"><ele>183.0</ele><time>2026-03-22T14:04:49.215Z</time></trkpt><trkpt lat="45.5164217" lon="8.5736717"><ele>183.0</ele><time>2026-03-22T14:04:50.215Z</time></trkpt><trkpt lat="45.5164083" lon="8.57379"><ele>183.0</ele><time>2026-03-22T14:04:51.215Z</time></trkpt><trkpt lat="45.5163967" lon="8.5739083"><ele>183.0</ele><time>2026-03-22T14:04:52.216Z</time></trkpt><trkpt lat="45.5163817" lon="8.5740117"><ele>183.0</ele><time>2026-03-22T14:04:53.215Z</time></trkpt><trkpt lat="45.5163683" lon="8.5741117"><ele>183.0</ele><time>2026-03-22T14:04:54.215Z</time></trkpt><trkpt lat="45.5163533" lon="8.57426"><ele>183.2</ele><time>2026-03-22T14:04:56.215Z</time></trkpt><trkpt lat="45.5163417" lon="8.574365"><ele>183.4</ele><time>2026-03-22T14:04:58.215Z</time></trkpt><trkpt lat="45.5163183" lon="8.5744717"><ele>183.6</ele><time>2026-03-22T14:05:00.215Z</time></trkpt><trkpt lat="45.5162817" lon="8.5746133"><ele>183.79999999999998</ele><time>2026-03-22T14:05:02.215Z</time></trkpt><trkpt lat="45.516215" lon="8.57477"><ele>184.0</ele><time>2026-03-22T14:05:04.215Z</time></trkpt><trkpt lat="45.5161467" lon="8.5749467"><ele>182.6</ele><time>2026-03-22T14:05:06.215Z</time></trkpt><trkpt lat="45.51612" lon="8.5750583"><ele>181.2</ele><time>2026-03-22T14:05:07.215Z</time></trkpt><trkpt lat="45.5161017" lon="8.57519"><ele>179.79999999999998</ele><time>2026-03-22T14:05:08.215Z</time></trkpt><trkpt lat="45.5160983" lon="8.5753167"><ele>178.39999999999998</ele><time>2026-03-22T14:05:09.215Z</time></trkpt><trkpt lat="45.5160933" lon="8.5754417"><ele>177.0</ele><time>2026-03-22T14:05:10.215Z</time></trkpt><trkpt lat="45.5160883" lon="8.575585"><ele>177.0</ele><time>2026-03-22T14:05:11.215Z</time></trkpt><trkpt lat="45.5160833" lon="8.57572"><ele>177.0</ele><time>2026-03-22T14:05:12.215Z</time></trkpt><trkpt lat="45.516075" lon="8.5758517"><ele>177.0</ele><time>2026-03-22T14:05:13.215Z</time></trkpt><trkpt lat="45.5160717" lon="8.57597"><ele>177.0</ele><time>2026-03-22T14:05:14.215Z</time></trkpt><trkpt lat="45.5160733" lon="8.576075"><ele>177.0</ele><time>2026-03-22T14:05:15.215Z</time></trkpt><trkpt lat="45.5160867" lon="8.5761717"><ele>177.0</ele><time>2026-03-22T14:05:16.215Z</time></trkpt><trkpt lat="45.5161233" lon="8.57627"><ele>177.0</ele><time>2026-03-22T14:05:17.215Z</time></trkpt><trkpt lat="45.51618" lon="8.5763667"><ele>177.0</ele><time>2026-03-22T14:05:18.215Z</time></trkpt><trkpt lat="45.5162433" lon="8.5764617"><ele>177.0</ele><time>2026-03-22T14:05:19.215Z</time></trkpt><trkpt lat="45.516295" lon="8.5765567"><ele>177.0</ele><time>2026-03-22T14:05:20.215Z</time></trkpt><trkpt lat="45.516335" lon="8.5766533"><ele>177.0</ele><time>2026-03-22T14:05:21.215Z</time></trkpt><trkpt lat="45.51635" lon="8.57675"><ele>177.0</ele><time>2026-03-22T14:05:22.215Z</time></trkpt><trkpt lat="45.5163167" lon="8.5769167"><ele>177.0</ele><time>2026-03-22T14:05:24.215Z</time></trkpt><trkpt lat="45.5162817" lon="8.5770333"><ele>177.0</ele><time>2026-03-22T14:05:25.215Z</time></trkpt><trkpt lat="45.51624" lon="8.5771483"><ele>177.0</ele><time>2026-03-22T14:05:26.215Z</time></trkpt><trkpt lat="45.5162" lon="8.5772483"><ele>177.0</ele><time>2026-03-22T14:05:27.215Z</time></trkpt><trkpt lat="45.5161733" lon="8.577335"><ele>177.0</ele><time>2026-03-22T14:05:28.215Z</time></trkpt><trkpt lat="45.5161233" lon="8.5775083"><ele>177.0</ele><time>2026-03-22T14:05:30.215Z</time></trkpt><trkpt lat="45.5161083" lon="8.5776117"><ele>177.0</ele><time>2026-03-22T14:05:31.215Z</time></trkpt><trkpt lat="45.5161067" lon="8.57771"><ele>177.0</ele><time>2026-03-22T14:05:32.215Z</time></trkpt><trkpt lat="45.5161317" lon="8.577795"><ele>177.0</ele><time>2026-03-22T14:05:33.215Z</time></trkpt><trkpt lat="45.5163433" lon="8.5779517"><ele>177.0</ele><time>2026-03-22T14:05:36.215Z</time></trkpt><trkpt lat="45.5164317" lon="8.577975"><ele>177.6</ele><time>2026-03-22T14:05:37.215Z</time></trkpt><trkpt lat="45.516525" lon="8.5780083"><ele>178.2</ele><time>2026-03-22T14:05:38.215Z</time></trkpt><trkpt lat="45.5166117" lon="8.5780367"><ele>178.8</ele><time>2026-03-22T14:05:39.215Z</time></trkpt><trkpt lat="45.5167083" lon="8.57807"><ele>179.4</ele><time>2026-03-22T14:05:40.215Z</time></trkpt><trkpt lat="45.5168" lon="8.5780933"><ele>180.0</ele><time>2026-03-22T14:05:41.215Z</time></trkpt><trkpt lat="45.516895" lon="8.5781133"><ele>180.0</ele><time>2026-03-22T14:05:42.215Z</time></trkpt><trkpt lat="45.5169883" lon="8.5781333"><ele>180.0</ele><time>2026-03-22T14:05:43.215Z</time></trkpt><trkpt lat="45.5170767" lon="8.5781533"><ele>180.0</ele><time>2026-03-22T14:05:44.215Z</time></trkpt><trkpt lat="45.5171617" lon="8.5781733"><ele>180.0</ele><time>2026-03-22T14:05:45.215Z</time></trkpt><trkpt lat="45.517225" lon="8.578205"><ele>180.0</ele><time>2026-03-22T14:05:46.215Z</time></trkpt><trkpt lat="45.51729" lon="8.5782633"><ele>180.0</ele><time>2026-03-22T14:05:47.215Z</time></trkpt><trkpt lat="45.5173067" lon="8.578385"><ele>179.6</ele><time>2026-03-22T14:05:48.215Z</time></trkpt><trkpt lat="45.517305" lon="8.5785333"><ele>179.2</ele><time>2026-03-22T14:05:49.215Z</time></trkpt><trkpt lat="45.5173033" lon="8.57869"><ele>178.8</ele><time>2026-03-22T14:05:50.215Z</time></trkpt><trkpt lat="45.51731" lon="8.578845"><ele>178.4</ele><time>2026-03-22T14:05:51.215Z</time></trkpt><trkpt lat="45.5173083" lon="8.5790217"><ele>178.0</ele><time>2026-03-22T14:05:52.215Z</time></trkpt><trkpt lat="45.5173083" lon="8.5791967"><ele>177.75</ele><time>2026-03-22T14:05:53.215Z</time></trkpt><trkpt lat="45.51731" lon="8.5793817"><ele>177.5</ele><time>2026-03-22T14:05:54.215Z</time></trkpt><trkpt lat="45.5173183" lon="8.5795783"><ele>177.25</ele><time>2026-03-22T14:05:55.215Z</time></trkpt><trkpt lat="45.51732" lon="8.5797733"><ele>177.0</ele><time>2026-03-22T14:05:56.214Z</time></trkpt><trkpt lat="45.517325" lon="8.5799783"><ele>177.0</ele><time>2026-03-22T14:05:57.214Z</time></trkpt><trkpt lat="45.51733" lon="8.5801933"><ele>177.0</ele><time>2026-03-22T14:05:58.214Z</time></trkpt><trkpt lat="45.5173333" lon="8.5804017"><ele>177.0</ele><time>2026-03-22T14:05:59.214Z</time></trkpt><trkpt lat="45.5173333" lon="8.5806167"><ele>177.0</ele><time>2026-03-22T14:06:00.214Z</time></trkpt><trkpt lat="45.51733" lon="8.58084"><ele>177.0</ele><time>2026-03-22T14:06:01.214Z</time></trkpt><trkpt lat="45.5173317" lon="8.5810583"><ele>177.0</ele><time>2026-03-22T14:06:02.214Z</time></trkpt><trkpt lat="45.5173317" lon="8.581285"><ele>177.0</ele><time>2026-03-22T14:06:03.214Z</time></trkpt><trkpt lat="45.5173283" lon="8.5814983"><ele>177.0</ele><time>2026-03-22T14:06:04.214Z</time></trkpt><trkpt lat="45.5173267" lon="8.58171"><ele>177.0</ele><time>2026-03-22T14:06:05.214Z</time></trkpt><trkpt lat="45.5173283" lon="8.58191"><ele>177.0</ele><time>2026-03-22T14:06:06.214Z</time></trkpt><trkpt lat="45.51733" lon="8.58211"><ele>177.0</ele><time>2026-03-22T14:06:07.214Z</time></trkpt><trkpt lat="45.5173417" lon="8.5822967"><ele>176.5</ele><time>2026-03-22T14:06:08.214Z</time></trkpt><trkpt lat="45.5173467" lon="8.58248"><ele>176.0</ele><time>2026-03-22T14:06:09.214Z</time></trkpt><trkpt lat="45.5173467" lon="8.5826667"><ele>175.5</ele><time>2026-03-22T14:06:10.214Z</time></trkpt><trkpt lat="45.517345" lon="8.5828317"><ele>175.0</ele><time>2026-03-22T14:06:11.214Z</time></trkpt><trkpt lat="45.517335" lon="8.5830017"><ele>175.0</ele><time>2026-03-22T14:06:12.214Z</time></trkpt><trkpt lat="45.5173283" lon="8.5831633"><ele>175.0</ele><time>2026-03-22T14:06:13.214Z</time></trkpt><trkpt lat="45.517315" lon="8.5833033"><ele>175.0</ele><time>2026-03-22T14:06:14.214Z</time></trkpt><trkpt lat="45.517305" lon="8.5834367"><ele>175.0</ele><time>2026-03-22T14:06:15.214Z</time></trkpt><trkpt lat="45.5173017" lon="8.5835533"><ele>175.0</ele><time>2026-03-22T14:06:16.214Z</time></trkpt><trkpt lat="45.5172983" lon="8.58366"><ele>175.33333333333334</ele><time>2026-03-22T14:06:17.214Z</time></trkpt><trkpt lat="45.51729" lon="8.5837583"><ele>175.66666666666669</ele><time>2026-03-22T14:06:18.214Z</time></trkpt><trkpt lat="45.5172867" lon="8.5838567"><ele>176.0</ele><time>2026-03-22T14:06:19.214Z</time></trkpt><trkpt lat="45.51727" lon="8.5840167"><ele>176.33333333333334</ele><time>2026-03-22T14:06:21.214Z</time></trkpt><trkpt lat="45.5172083" lon="8.5841533"><ele>176.66666666666666</ele><time>2026-03-22T14:06:23.214Z</time></trkpt><trkpt lat="45.517155" lon="8.58422"><ele>177.0</ele><time>2026-03-22T14:06:24.214Z</time></trkpt><trkpt lat="45.5170917" lon="8.5842717"><ele>177.0</ele><time>2026-03-22T14:06:25.214Z</time></trkpt><trkpt lat="45.5170233" lon="8.5842967"><ele>177.0</ele><time>2026-03-22T14:06:26.214Z</time></trkpt><trkpt lat="45.5169233" lon="8.584345"><ele>177.0</ele><time>2026-03-22T14:06:28.214Z</time></trkpt><trkpt lat="45.51689" lon="8.584495"><ele>177.0</ele><time>2026-03-22T14:06:30.214Z</time></trkpt><trkpt lat="45.51685" lon="8.5846067"><ele>177.0</ele><time>2026-03-22T14:06:32.214Z</time></trkpt><trkpt lat="45.5167217" lon="8.5848533"><ele>177.2</ele><time>2026-03-22T14:06:35.214Z</time></trkpt><trkpt lat="45.5166767" lon="8.5849817"><ele>177.39999999999998</ele><time>2026-03-22T14:06:36.214Z</time></trkpt><trkpt lat="45.516645" lon="8.5851267"><ele>177.60000000000002</ele><time>2026-03-22T14:06:37.214Z</time></trkpt><trkpt lat="45.5166133" lon="8.5852717"><ele>177.8</ele><time>2026-03-22T14:06:38.214Z</time></trkpt><trkpt lat="45.51659" lon="8.58542"><ele>178.0</ele><time>2026-03-22T14:06:39.214Z</time></trkpt><trkpt lat="45.5165733" lon="8.5855717"><ele>178.0</ele><time>2026-03-22T14:06:40.214Z</time></trkpt><trkpt lat="45.516595" lon="8.5860133"><ele>178.0</ele><time>2026-03-22T14:06:43.214Z</time></trkpt><trkpt lat="45.5166067" lon="8.5861683"><ele>178.0</ele><time>2026-03-22T14:06:44.214Z</time></trkpt><trkpt lat="45.516645" lon="8.58631"><ele>178.0</ele><time>2026-03-22T14:06:45.214Z</time></trkpt><trkpt lat="45.51669" lon="8.5864667"><ele>178.0</ele><time>2026-03-22T14:06:46.214Z</time></trkpt><trkpt lat="45.5167333" lon="8.5865983"><ele>178.0</ele><time>2026-03-22T14:06:47.214Z</time></trkpt><trkpt lat="45.5167667" lon="8.5867367"><ele>178.0</ele><time>2026-03-22T14:06:48.214Z</time></trkpt><trkpt lat="45.516805" lon="8.5868717"><ele>178.0</ele><time>2026-03-22T14:06:49.214Z</time></trkpt><trkpt lat="45.5168283" lon="8.5870183"><ele>178.2</ele><time>2026-03-22T14:06:50.214Z</time></trkpt><trkpt lat="45.5168483" lon="8.587155"><ele>178.4</ele><time>2026-03-22T14:06:51.214Z</time></trkpt><trkpt lat="45.5168767" lon="8.58729"><ele>178.6</ele><time>2026-03-22T14:06:52.214Z</time></trkpt><trkpt lat="45.5168983" lon="8.5874283"><ele>178.79999999999998</ele><time>2026-03-22T14:06:53.214Z</time></trkpt><trkpt lat="45.5169283" lon="8.5875617"><ele>179.0</ele><time>2026-03-22T14:06:54.214Z</time></trkpt><trkpt lat="45.5169583" lon="8.5877"><ele>179.0</ele><time>2026-03-22T14:06:55.214Z</time></trkpt><trkpt lat="45.517" lon="8.587835"><ele>179.0</ele><time>2026-03-22T14:06:56.214Z</time></trkpt><trkpt lat="45.5170417" lon="8.5879583"><ele>179.0</ele><time>2026-03-22T14:06:57.214Z</time></trkpt><trkpt lat="45.5170767" lon="8.58809"><ele>179.0</ele><time>2026-03-22T14:06:58.214Z</time></trkpt><trkpt lat="45.5171067" lon="8.5882283"><ele>179.0</ele><time>2026-03-22T14:06:59.214Z</time></trkpt><trkpt lat="45.5171267" lon="8.5883683"><ele>179.0</ele><time>2026-03-22T14:07:00.214Z</time></trkpt><trkpt lat="45.5171483" lon="8.5885"><ele>179.0</ele><time>2026-03-22T14:07:01.214Z</time></trkpt><trkpt lat="45.5171683" lon="8.5886417"><ele>179.0</ele><time>2026-03-22T14:07:02.215Z</time></trkpt><trkpt lat="45.5171867" lon="8.5887833"><ele>179.0</ele><time>2026-03-22T14:07:03.214Z</time></trkpt><trkpt lat="45.5172067" lon="8.5889267"><ele>179.0</ele><time>2026-03-22T14:07:04.214Z</time></trkpt><trkpt lat="45.5172283" lon="8.589065"><ele>178.79999999999998</ele><time>2026-03-22T14:07:05.214Z</time></trkpt><trkpt lat="45.5172517" lon="8.589215"><ele>178.6</ele><time>2026-03-22T14:07:06.214Z</time></trkpt><trkpt lat="45.5172767" lon="8.589375"><ele>178.4</ele><time>2026-03-22T14:07:07.214Z</time></trkpt><trkpt lat="45.5173033" lon="8.589515"><ele>178.2</ele><time>2026-03-22T14:07:08.214Z</time></trkpt><trkpt lat="45.517325" lon="8.589645"><ele>178.0</ele><time>2026-03-22T14:07:09.214Z</time></trkpt><trkpt lat="45.5173433" lon="8.58977"><ele>178.0</ele><time>2026-03-22T14:07:10.214Z</time></trkpt><trkpt lat="45.5173567" lon="8.5898817"><ele>178.0</ele><time>2026-03-22T14:07:11.214Z</time></trkpt><trkpt lat="45.51737" lon="8.5899767"><ele>178.0</ele><time>2026-03-22T14:07:12.214Z</time></trkpt><trkpt lat="45.5173917" lon="8.59011"><ele>178.0</ele><time>2026-03-22T14:07:14.214Z</time></trkpt><trkpt lat="45.5174667" lon="8.590155"><ele>178.0</ele><time>2026-03-22T14:07:25.214Z</time></trkpt><trkpt lat="45.5174567" lon="8.5903017"><ele>178.0</ele><time>2026-03-22T14:07:44.214Z</time></trkpt><trkpt lat="45.5174583" lon="8.5904017"><ele>178.0</ele><time>2026-03-22T14:07:46.214Z</time></trkpt><trkpt lat="45.517345" lon="8.59047"><ele>178.0</ele><time>2026-03-22T14:07:48.214Z</time></trkpt><trkpt lat="45.5172517" lon="8.5904967"><ele>178.0</ele><time>2026-03-22T14:07:49.214Z</time></trkpt><trkpt lat="45.5171583" lon="8.5905367"><ele>178.0</ele><time>2026-03-22T14:07:50.214Z</time></trkpt><trkpt lat="45.517055" lon="8.59059"><ele>178.0</ele><time>2026-03-22T14:07:51.214Z</time></trkpt><trkpt lat="45.5169467" lon="8.5906367"><ele>178.0</ele><time>2026-03-22T14:07:52.214Z</time></trkpt><trkpt lat="45.51684" lon="8.590685"><ele>178.0</ele><time>2026-03-22T14:07:53.214Z</time></trkpt><trkpt lat="45.51674" lon="8.5907483"><ele>178.0</ele><time>2026-03-22T14:07:54.214Z</time></trkpt><trkpt lat="45.51663" lon="8.59081"><ele>178.0</ele><time>2026-03-22T14:07:55.214Z</time></trkpt><trkpt lat="45.516515" lon="8.590865"><ele>178.0</ele><time>2026-03-22T14:07:56.214Z</time></trkpt><trkpt lat="45.5163883" lon="8.5909333"><ele>178.0</ele><time>2026-03-22T14:07:57.214Z</time></trkpt><trkpt lat="45.5162633" lon="8.5910033"><ele>178.0</ele><time>2026-03-22T14:07:58.214Z</time></trkpt><trkpt lat="45.51613" lon="8.5910683"><ele>178.0</ele><time>2026-03-22T14:07:59.214Z</time></trkpt><trkpt lat="45.5159933" lon="8.5911417"><ele>177.5</ele><time>2026-03-22T14:08:00.214Z</time></trkpt><trkpt lat="45.5158517" lon="8.5912083"><ele>177.0</ele><time>2026-03-22T14:08:01.214Z</time></trkpt><trkpt lat="45.5157117" lon="8.5912817"><ele>176.5</ele><time>2026-03-22T14:08:02.214Z</time></trkpt><trkpt lat="45.5155717" lon="8.5913517"><ele>176.0</ele><time>2026-03-22T14:08:03.214Z</time></trkpt><trkpt lat="45.5154267" lon="8.5914233"><ele>176.0</ele><time>2026-03-22T14:08:04.214Z</time></trkpt><trkpt lat="45.515285" lon="8.5914867"><ele>176.0</ele><time>2026-03-22T14:08:05.214Z</time></trkpt><trkpt lat="45.5151433" lon="8.5915533"><ele>176.0</ele><time>2026-03-22T14:08:06.214Z</time></trkpt><trkpt lat="45.5149983" lon="8.5916333"><ele>176.0</ele><time>2026-03-22T14:08:07.214Z</time></trkpt><trkpt lat="45.5148567" lon="8.5917083"><ele>176.0</ele><time>2026-03-22T14:08:08.214Z</time></trkpt><trkpt lat="45.51471" lon="8.5917833"><ele>176.0</ele><time>2026-03-22T14:08:09.214Z</time></trkpt><trkpt lat="45.5144267" lon="8.59193"><ele>176.0</ele><time>2026-03-22T14:08:11.214Z</time></trkpt><trkpt lat="45.5142867" lon="8.5920067"><ele>176.0</ele><time>2026-03-22T14:08:12.214Z</time></trkpt><trkpt lat="45.5141433" lon="8.5920867"><ele>176.0</ele><time>2026-03-22T14:08:13.214Z</time></trkpt><trkpt lat="45.5139983" lon="8.5921533"><ele>176.0</ele><time>2026-03-22T14:08:14.214Z</time></trkpt><trkpt lat="45.51385" lon="8.592225"><ele>176.0</ele><time>2026-03-22T14:08:15.214Z</time></trkpt><trkpt lat="45.5137017" lon="8.5923"><ele>176.0</ele><time>2026-03-22T14:08:16.214Z</time></trkpt><trkpt lat="45.5135533" lon="8.592375"><ele>176.0</ele><time>2026-03-22T14:08:17.214Z</time></trkpt><trkpt lat="45.51341" lon="8.5924433"><ele>176.0</ele><time>2026-03-22T14:08:18.214Z</time></trkpt><trkpt lat="45.5132617" lon="8.59252"><ele>176.0</ele><time>2026-03-22T14:08:19.214Z</time></trkpt><trkpt lat="45.5131167" lon="8.5925917"><ele>176.0</ele><time>2026-03-22T14:08:20.214Z</time></trkpt><trkpt lat="45.5129717" lon="8.5926633"><ele>176.0</ele><time>2026-03-22T14:08:21.214Z</time></trkpt><trkpt lat="45.51283" lon="8.5927483"><ele>176.0</ele><time>2026-03-22T14:08:22.214Z</time></trkpt><trkpt lat="45.512685" lon="8.59282"><ele>175.66666666666666</ele><time>2026-03-22T14:08:23.214Z</time></trkpt><trkpt lat="45.5125333" lon="8.5928933"><ele>175.33333333333334</ele><time>2026-03-22T14:08:24.214Z</time></trkpt><trkpt lat="45.512385" lon="8.5929683"><ele>175.0</ele><time>2026-03-22T14:08:25.214Z</time></trkpt><trkpt lat="45.5122383" lon="8.59304"><ele>175.0</ele><time>2026-03-22T14:08:26.214Z</time></trkpt><trkpt lat="45.51209" lon="8.5931183"><ele>175.0</ele><time>2026-03-22T14:08:27.214Z</time></trkpt><trkpt lat="45.5119383" lon="8.5931933"><ele>175.0</ele><time>2026-03-22T14:08:28.214Z</time></trkpt><trkpt lat="45.5117883" lon="8.5932717"><ele>175.0</ele><time>2026-03-22T14:08:29.214Z</time></trkpt><trkpt lat="45.5116417" lon="8.593345"><ele>175.0</ele><time>2026-03-22T14:08:30.214Z</time></trkpt><trkpt lat="45.5114883" lon="8.5934183"><ele>175.0</ele><time>2026-03-22T14:08:31.214Z</time></trkpt><trkpt lat="45.5113417" lon="8.5934933"><ele>175.0</ele><time>2026-03-22T14:08:32.214Z</time></trkpt><trkpt lat="45.511195" lon="8.5935783"><ele>175.0</ele><time>2026-03-22T14:08:33.214Z</time></trkpt><trkpt lat="45.51105" lon="8.59366"><ele>175.0</ele><time>2026-03-22T14:08:34.214Z</time></trkpt><trkpt lat="45.5109017" lon="8.59375"><ele>175.0</ele><time>2026-03-22T14:08:35.214Z</time></trkpt><trkpt lat="45.51075" lon="8.5938433"><ele>175.0</ele><time>2026-03-22T14:08:36.214Z</time></trkpt><trkpt lat="45.510455" lon="8.5940617"><ele>174.66666666666669</ele><time>2026-03-22T14:08:38.214Z</time></trkpt><trkpt lat="45.5103117" lon="8.5941667"><ele>174.33333333333334</ele><time>2026-03-22T14:08:39.214Z</time></trkpt><trkpt lat="45.51017" lon="8.5942783"><ele>174.0</ele><time>2026-03-22T14:08:40.214Z</time></trkpt><trkpt lat="45.5100267" lon="8.59439"><ele>174.0</ele><time>2026-03-22T14:08:41.214Z</time></trkpt><trkpt lat="45.509885" lon="8.5945"><ele>174.0</ele><time>2026-03-22T14:08:42.214Z</time></trkpt><trkpt lat="45.509745" lon="8.59461"><ele>174.0</ele><time>2026-03-22T14:08:43.214Z</time></trkpt><trkpt lat="45.5096" lon="8.5947167"><ele>173.66666666666666</ele><time>2026-03-22T14:08:44.214Z</time></trkpt><trkpt lat="45.5094583" lon="8.5948233"><ele>173.33333333333331</ele><time>2026-03-22T14:08:45.214Z</time></trkpt><trkpt lat="45.5093217" lon="8.5949417"><ele>173.0</ele><time>2026-03-22T14:08:46.214Z</time></trkpt><trkpt lat="45.5090383" lon="8.595165"><ele>173.0</ele><time>2026-03-22T14:08:48.214Z</time></trkpt><trkpt lat="45.508905" lon="8.5952767"><ele>173.0</ele><time>2026-03-22T14:08:49.214Z</time></trkpt><trkpt lat="45.508775" lon="8.59539"><ele>173.0</ele><time>2026-03-22T14:08:50.214Z</time></trkpt><trkpt lat="45.50864" lon="8.5954967"><ele>172.66666666666666</ele><time>2026-03-22T14:08:51.214Z</time></trkpt><trkpt lat="45.508495" lon="8.5956033"><ele>172.33333333333334</ele><time>2026-03-22T14:08:52.214Z</time></trkpt><trkpt lat="45.50836" lon="8.5957167"><ele>172.0</ele><time>2026-03-22T14:08:53.214Z</time></trkpt><trkpt lat="45.508215" lon="8.5958233"><ele>172.0</ele><time>2026-03-22T14:08:54.214Z</time></trkpt><trkpt lat="45.50807" lon="8.5959333"><ele>172.0</ele><time>2026-03-22T14:08:55.214Z</time></trkpt><trkpt lat="45.50793" lon="8.5960433"><ele>172.0</ele><time>2026-03-22T14:08:56.214Z</time></trkpt><trkpt lat="45.5077883" lon="8.596155"><ele>172.0</ele><time>2026-03-22T14:08:57.214Z</time></trkpt><trkpt lat="45.50764" lon="8.596265"><ele>172.0</ele><time>2026-03-22T14:08:58.214Z</time></trkpt><trkpt lat="45.5074983" lon="8.5963833"><ele>172.0</ele><time>2026-03-22T14:08:59.214Z</time></trkpt><trkpt lat="45.5073567" lon="8.596495"><ele>172.0</ele><time>2026-03-22T14:09:00.214Z</time></trkpt><trkpt lat="45.50721" lon="8.5966083"><ele>172.0</ele><time>2026-03-22T14:09:01.214Z</time></trkpt><trkpt lat="45.5070633" lon="8.5967217"><ele>172.0</ele><time>2026-03-22T14:09:02.214Z</time></trkpt><trkpt lat="45.506915" lon="8.59684"><ele>172.33333333333334</ele><time>2026-03-22T14:09:03.214Z</time></trkpt><trkpt lat="45.5067683" lon="8.5969417"><ele>172.66666666666666</ele><time>2026-03-22T14:09:04.214Z</time></trkpt><trkpt lat="45.50662" lon="8.597055"><ele>173.0</ele><time>2026-03-22T14:09:05.214Z</time></trkpt><trkpt lat="45.5064683" lon="8.59716"><ele>172.0</ele><time>2026-03-22T14:09:06.214Z</time></trkpt><trkpt lat="45.5063183" lon="8.5972833"><ele>171.0</ele><time>2026-03-22T14:09:07.214Z</time></trkpt><trkpt lat="45.50617" lon="8.5973983"><ele>170.0</ele><time>2026-03-22T14:09:08.214Z</time></trkpt><trkpt lat="45.50602" lon="8.5975267"><ele>170.0</ele><time>2026-03-22T14:09:09.214Z</time></trkpt><trkpt lat="45.5058783" lon="8.59765"><ele>170.0</ele><time>2026-03-22T14:09:10.214Z</time></trkpt><trkpt lat="45.5057283" lon="8.5977783"><ele>170.0</ele><time>2026-03-22T14:09:11.214Z</time></trkpt><trkpt lat="45.5055817" lon="8.5979033"><ele>170.33333333333331</ele><time>2026-03-22T14:09:12.214Z</time></trkpt><trkpt lat="45.50543" lon="8.598025"><ele>170.66666666666666</ele><time>2026-03-22T14:09:13.214Z</time></trkpt><trkpt lat="45.5052817" lon="8.598135"><ele>171.0</ele><time>2026-03-22T14:09:14.214Z</time></trkpt><trkpt lat="45.5051267" lon="8.5982433"><ele>171.0</ele><time>2026-03-22T14:09:15.214Z</time></trkpt><trkpt lat="45.50497" lon="8.598355"><ele>171.0</ele><time>2026-03-22T14:09:16.214Z</time></trkpt><trkpt lat="45.50482" lon="8.5984717"><ele>171.0</ele><time>2026-03-22T14:09:17.214Z</time></trkpt><trkpt lat="45.5046667" lon="8.598595"><ele>170.33333333333334</ele><time>2026-03-22T14:09:18.214Z</time></trkpt><trkpt lat="45.5045133" lon="8.5987217"><ele>169.66666666666669</ele><time>2026-03-22T14:09:19.214Z</time></trkpt><trkpt lat="45.5043617" lon="8.5988517"><ele>169.0</ele><time>2026-03-22T14:09:20.214Z</time></trkpt><trkpt lat="45.5042033" lon="8.59898"><ele>169.0</ele><time>2026-03-22T14:09:21.214Z</time></trkpt><trkpt lat="45.5040483" lon="8.599105"><ele>169.0</ele><time>2026-03-22T14:09:22.214Z</time></trkpt><trkpt lat="45.5038983" lon="8.599235"><ele>169.0</ele><time>2026-03-22T14:09:23.214Z</time></trkpt><trkpt lat="45.50374" lon="8.5993517"><ele>168.0</ele><time>2026-03-22T14:09:24.214Z</time></trkpt><trkpt lat="45.50343" lon="8.599595"><ele>167.0</ele><time>2026-03-22T14:09:26.214Z</time></trkpt><trkpt lat="45.5032683" lon="8.59972"><ele>167.0</ele><time>2026-03-22T14:09:27.214Z</time></trkpt><trkpt lat="45.5031083" lon="8.5998433"><ele>167.0</ele><time>2026-03-22T14:09:28.214Z</time></trkpt><trkpt lat="45.5029483" lon="8.5999767"><ele>167.0</ele><time>2026-03-22T14:09:29.214Z</time></trkpt><trkpt lat="45.5027883" lon="8.6001067"><ele>166.66666666666666</ele><time>2026-03-22T14:09:30.214Z</time></trkpt><trkpt lat="45.5026283" lon="8.6002283"><ele>166.33333333333334</ele><time>2026-03-22T14:09:31.214Z</time></trkpt><trkpt lat="45.5024667" lon="8.6003533"><ele>166.0</ele><time>2026-03-22T14:09:32.214Z</time></trkpt><trkpt lat="45.5023117" lon="8.6004883"><ele>166.0</ele><time>2026-03-22T14:09:33.214Z</time></trkpt><trkpt lat="45.5021483" lon="8.6006167"><ele>166.0</ele><time>2026-03-22T14:09:34.214Z</time></trkpt><trkpt lat="45.5019833" lon="8.600745"><ele>166.0</ele><time>2026-03-22T14:09:35.214Z</time></trkpt><trkpt lat="45.5018267" lon="8.6008783"><ele>166.33333333333334</ele><time>2026-03-22T14:09:36.214Z</time></trkpt><trkpt lat="45.50167" lon="8.60101"><ele>166.66666666666666</ele><time>2026-03-22T14:09:37.214Z</time></trkpt><trkpt lat="45.5015117" lon="8.6011383"><ele>167.0</ele><time>2026-03-22T14:09:38.214Z</time></trkpt><trkpt lat="45.5013517" lon="8.60127"><ele>166.66666666666666</ele><time>2026-03-22T14:09:39.214Z</time></trkpt><trkpt lat="45.5011917" lon="8.6014"><ele>166.33333333333334</ele><time>2026-03-22T14:09:40.214Z</time></trkpt><trkpt lat="45.5010283" lon="8.6015233"><ele>166.0</ele><time>2026-03-22T14:09:41.214Z</time></trkpt><trkpt lat="45.5008667" lon="8.6016483"><ele>166.0</ele><time>2026-03-22T14:09:42.214Z</time></trkpt><trkpt lat="45.5007083" lon="8.6017683"><ele>166.0</ele><time>2026-03-22T14:09:43.214Z</time></trkpt><trkpt lat="45.50055" lon="8.6018867"><ele>166.0</ele><time>2026-03-22T14:09:44.214Z</time></trkpt><trkpt lat="45.5003933" lon="8.6020033"><ele>166.0</ele><time>2026-03-22T14:09:45.214Z</time></trkpt><trkpt lat="45.5002333" lon="8.6021217"><ele>166.0</ele><time>2026-03-22T14:09:46.214Z</time></trkpt><trkpt lat="45.5000733" lon="8.60224"><ele>166.0</ele><time>2026-03-22T14:09:47.214Z</time></trkpt><trkpt lat="45.49992" lon="8.6023683"><ele>166.0</ele><time>2026-03-22T14:09:48.214Z</time></trkpt><trkpt lat="45.4997633" lon="8.6024933"><ele>166.0</ele><time>2026-03-22T14:09:49.214Z</time></trkpt><trkpt lat="45.499605" lon="8.6026167"><ele>166.0</ele><time>2026-03-22T14:09:50.214Z</time></trkpt><trkpt lat="45.499445" lon="8.6027483"><ele>166.33333333333334</ele><time>2026-03-22T14:09:51.214Z</time></trkpt><trkpt lat="45.499285" lon="8.60288"><ele>166.66666666666666</ele><time>2026-03-22T14:09:52.214Z</time></trkpt><trkpt lat="45.4991283" lon="8.60301"><ele>167.0</ele><time>2026-03-22T14:09:53.214Z</time></trkpt><trkpt lat="45.498985" lon="8.6031483"><ele>167.0</ele><time>2026-03-22T14:09:54.214Z</time></trkpt><trkpt lat="45.4988267" lon="8.6032733"><ele>167.0</ele><time>2026-03-22T14:09:55.214Z</time></trkpt><trkpt lat="45.49868" lon="8.6034167"><ele>167.0</ele><time>2026-03-22T14:09:56.214Z</time></trkpt><trkpt lat="45.4985383" lon="8.6035717"><ele>166.0</ele><time>2026-03-22T14:09:57.214Z</time></trkpt><trkpt lat="45.4984133" lon="8.6037233"><ele>165.0</ele><time>2026-03-22T14:09:58.214Z</time></trkpt><trkpt lat="45.4982917" lon="8.6038717"><ele>164.0</ele><time>2026-03-22T14:09:59.214Z</time></trkpt><trkpt lat="45.4981733" lon="8.6040217"><ele>164.0</ele><time>2026-03-22T14:10:00.214Z</time></trkpt><trkpt lat="45.498065" lon="8.6041583"><ele>164.0</ele><time>2026-03-22T14:10:01.214Z</time></trkpt><trkpt lat="45.4979617" lon="8.6042633"><ele>164.0</ele><time>2026-03-22T14:10:02.214Z</time></trkpt><trkpt lat="45.4976967" lon="8.6042883"><ele>164.5</ele><time>2026-03-22T14:10:05.214Z</time></trkpt><trkpt lat="45.497535" lon="8.6041667"><ele>165.0</ele><time>2026-03-22T14:10:07.214Z</time></trkpt><trkpt lat="45.4974517" lon="8.6041233"><ele>165.5</ele><time>2026-03-22T14:10:08.214Z</time></trkpt><trkpt lat="45.4973" lon="8.6041817"><ele>166.0</ele><time>2026-03-22T14:10:10.214Z</time></trkpt><trkpt lat="45.4972667" lon="8.60436"><ele>166.0</ele><time>2026-03-22T14:10:11.214Z</time></trkpt><trkpt lat="45.49724" lon="8.60451"><ele>166.0</ele><time>2026-03-22T14:10:12.214Z</time></trkpt><trkpt lat="45.4971383" lon="8.6047833"><ele>166.0</ele><time>2026-03-22T14:10:14.214Z</time></trkpt><trkpt lat="45.49705" lon="8.604865"><ele>166.0</ele><time>2026-03-22T14:10:15.214Z</time></trkpt><trkpt lat="45.496935" lon="8.604915"><ele>165.5</ele><time>2026-03-22T14:10:16.214Z</time></trkpt><trkpt lat="45.4968033" lon="8.6049567"><ele>165.0</ele><time>2026-03-22T14:10:17.214Z</time></trkpt><trkpt lat="45.49666" lon="8.6050083"><ele>164.5</ele><time>2026-03-22T14:10:18.214Z</time></trkpt><trkpt lat="45.4965133" lon="8.6050717"><ele>164.0</ele><time>2026-03-22T14:10:19.214Z</time></trkpt><trkpt lat="45.496365" lon="8.6051567"><ele>164.0</ele><time>2026-03-22T14:10:20.214Z</time></trkpt><trkpt lat="45.4962183" lon="8.60525"><ele>164.0</ele><time>2026-03-22T14:10:21.214Z</time></trkpt><trkpt lat="45.4960667" lon="8.6053417"><ele>164.0</ele><time>2026-03-22T14:10:22.214Z</time></trkpt><trkpt lat="45.495915" lon="8.6054483"><ele>164.0</ele><time>2026-03-22T14:10:23.214Z</time></trkpt><trkpt lat="45.495765" lon="8.6055417"><ele>164.0</ele><time>2026-03-22T14:10:24.213Z</time></trkpt><trkpt lat="45.495605" lon="8.605625"><ele>164.0</ele><time>2026-03-22T14:10:25.213Z</time></trkpt><trkpt lat="45.495445" lon="8.60572"><ele>165.0</ele><time>2026-03-22T14:10:26.213Z</time></trkpt><trkpt lat="45.495125" lon="8.6059167"><ele>166.0</ele><time>2026-03-22T14:10:28.213Z</time></trkpt><trkpt lat="45.494805" lon="8.6061033"><ele>165.5</ele><time>2026-03-22T14:10:30.213Z</time></trkpt><trkpt lat="45.49448" lon="8.6062867"><ele>165.0</ele><time>2026-03-22T14:10:32.213Z</time></trkpt><trkpt lat="45.4943217" lon="8.60638"><ele>165.0</ele><time>2026-03-22T14:10:33.213Z</time></trkpt><trkpt lat="45.4941633" lon="8.6064783"><ele>165.0</ele><time>2026-03-22T14:10:34.213Z</time></trkpt><trkpt lat="45.4939967" lon="8.6065733"><ele>165.0</ele><time>2026-03-22T14:10:35.213Z</time></trkpt><trkpt lat="45.4938317" lon="8.6066667"><ele>165.0</ele><time>2026-03-22T14:10:36.213Z</time></trkpt><trkpt lat="45.4936733" lon="8.606765"><ele>165.0</ele><time>2026-03-22T14:10:37.213Z</time></trkpt><trkpt lat="45.49351" lon="8.6068633"><ele>165.0</ele><time>2026-03-22T14:10:38.213Z</time></trkpt><trkpt lat="45.4933617" lon="8.6069567"><ele>164.66666666666666</ele><time>2026-03-22T14:10:39.213Z</time></trkpt><trkpt lat="45.4932133" lon="8.60704"><ele>164.33333333333331</ele><time>2026-03-22T14:10:40.213Z</time></trkpt><trkpt lat="45.4930717" lon="8.60712"><ele>164.0</ele><time>2026-03-22T14:10:41.213Z</time></trkpt><trkpt lat="45.49293" lon="8.6072017"><ele>163.75</ele><time>2026-03-22T14:10:42.213Z</time></trkpt><trkpt lat="45.4927933" lon="8.60727"><ele>163.5</ele><time>2026-03-22T14:10:43.213Z</time></trkpt><trkpt lat="45.492665" lon="8.607345"><ele>163.25</ele><time>2026-03-22T14:10:44.213Z</time></trkpt><trkpt lat="45.4925467" lon="8.6074167"><ele>163.0</ele><time>2026-03-22T14:10:45.213Z</time></trkpt><trkpt lat="45.492425" lon="8.6074967"><ele>163.0</ele><time>2026-03-22T14:10:46.213Z</time></trkpt><trkpt lat="45.4923017" lon="8.6075767"><ele>163.0</ele><time>2026-03-22T14:10:47.213Z</time></trkpt><trkpt lat="45.4921917" lon="8.6076367"><ele>163.0</ele><time>2026-03-22T14:10:48.213Z</time></trkpt><trkpt lat="45.4920717" lon="8.607705"><ele>163.0</ele><time>2026-03-22T14:10:49.213Z</time></trkpt><trkpt lat="45.4919567" lon="8.6077783"><ele>162.75</ele><time>2026-03-22T14:10:50.213Z</time></trkpt><trkpt lat="45.4918367" lon="8.60785"><ele>162.5</ele><time>2026-03-22T14:10:51.213Z</time></trkpt><trkpt lat="45.4917233" lon="8.6079183"><ele>162.25</ele><time>2026-03-22T14:10:52.213Z</time></trkpt><trkpt lat="45.49161" lon="8.6079833"><ele>162.0</ele><time>2026-03-22T14:10:53.213Z</time></trkpt><trkpt lat="45.491495" lon="8.6080483"><ele>162.0</ele><time>2026-03-22T14:10:54.213Z</time></trkpt><trkpt lat="45.49138" lon="8.6081067"><ele>162.0</ele><time>2026-03-22T14:10:55.213Z</time></trkpt><trkpt lat="45.49126" lon="8.6081767"><ele>162.0</ele><time>2026-03-22T14:10:56.213Z</time></trkpt><trkpt lat="45.491125" lon="8.6082617"><ele>162.0</ele><time>2026-03-22T14:10:57.213Z</time></trkpt><trkpt lat="45.4909733" lon="8.6083433"><ele>162.0</ele><time>2026-03-22T14:10:58.213Z</time></trkpt><trkpt lat="45.4908233" lon="8.6084333"><ele>162.0</ele><time>2026-03-22T14:10:59.213Z</time></trkpt><trkpt lat="45.490665" lon="8.6085267"><ele>162.0</ele><time>2026-03-22T14:11:00.213Z</time></trkpt><trkpt lat="45.490505" lon="8.60862"><ele>162.33333333333334</ele><time>2026-03-22T14:11:01.213Z</time></trkpt><trkpt lat="45.4903533" lon="8.6087067"><ele>162.66666666666669</ele><time>2026-03-22T14:11:02.213Z</time></trkpt><trkpt lat="45.4902" lon="8.60878"><ele>163.0</ele><time>2026-03-22T14:11:03.213Z</time></trkpt><trkpt lat="45.4900517" lon="8.60884"><ele>163.0</ele><time>2026-03-22T14:11:04.213Z</time></trkpt><trkpt lat="45.4899133" lon="8.6088833"><ele>163.0</ele><time>2026-03-22T14:11:05.213Z</time></trkpt><trkpt lat="45.4897917" lon="8.6089317"><ele>163.0</ele><time>2026-03-22T14:11:06.213Z</time></trkpt><trkpt lat="45.489685" lon="8.6089683"><ele>163.0</ele><time>2026-03-22T14:11:07.213Z</time></trkpt><trkpt lat="45.4896033" lon="8.60899"><ele>162.83333333333334</ele><time>2026-03-22T14:11:08.213Z</time></trkpt><trkpt lat="45.4895433" lon="8.6090217"><ele>162.66666666666669</ele><time>2026-03-22T14:11:09.213Z</time></trkpt><trkpt lat="45.4894817" lon="8.6091367"><ele>162.5</ele><time>2026-03-22T14:11:11.213Z</time></trkpt><trkpt lat="45.4895017" lon="8.6092383"><ele>162.33333333333334</ele><time>2026-03-22T14:11:12.213Z</time></trkpt><trkpt lat="45.489525" lon="8.6093583"><ele>162.16666666666666</ele><time>2026-03-22T14:11:13.213Z</time></trkpt><trkpt lat="45.4895517" lon="8.6094933"><ele>162.0</ele><time>2026-03-22T14:11:14.213Z</time></trkpt><trkpt lat="45.4895733" lon="8.609615"><ele>162.0</ele><time>2026-03-22T14:11:15.213Z</time></trkpt><trkpt lat="45.4895883" lon="8.6097417"><ele>162.0</ele><time>2026-03-22T14:11:16.213Z</time></trkpt><trkpt lat="45.4896067" lon="8.60988"><ele>162.0</ele><time>2026-03-22T14:11:17.213Z</time></trkpt><trkpt lat="45.4896333" lon="8.6100267"><ele>162.0</ele><time>2026-03-22T14:11:18.213Z</time></trkpt><trkpt lat="45.4896583" lon="8.6102033"><ele>162.0</ele><time>2026-03-22T14:11:19.213Z</time></trkpt><trkpt lat="45.48968" lon="8.6103817"><ele>161.75</ele><time>2026-03-22T14:11:20.213Z</time></trkpt><trkpt lat="45.48971" lon="8.6105567"><ele>161.5</ele><time>2026-03-22T14:11:21.213Z</time></trkpt><trkpt lat="45.4897367" lon="8.6107483"><ele>161.25</ele><time>2026-03-22T14:11:22.213Z</time></trkpt><trkpt lat="45.48976" lon="8.6109483"><ele>161.0</ele><time>2026-03-22T14:11:23.213Z</time></trkpt><trkpt lat="45.4897817" lon="8.6111617"><ele>161.0</ele><time>2026-03-22T14:11:24.213Z</time></trkpt><trkpt lat="45.4898117" lon="8.6113767"><ele>161.0</ele><time>2026-03-22T14:11:25.213Z</time></trkpt><trkpt lat="45.4898367" lon="8.611605"><ele>161.0</ele><time>2026-03-22T14:11:26.213Z</time></trkpt><trkpt lat="45.489845" lon="8.6118417"><ele>161.0</ele><time>2026-03-22T14:11:27.213Z</time></trkpt><trkpt lat="45.4898417" lon="8.6120633"><ele>161.0</ele><time>2026-03-22T14:11:28.213Z</time></trkpt><trkpt lat="45.489835" lon="8.6122883"><ele>161.0</ele><time>2026-03-22T14:11:29.213Z</time></trkpt><trkpt lat="45.4898383" lon="8.612505"><ele>161.0</ele><time>2026-03-22T14:11:30.213Z</time></trkpt><trkpt lat="45.4898433" lon="8.6127183"><ele>161.0</ele><time>2026-03-22T14:11:31.213Z</time></trkpt><trkpt lat="45.489845" lon="8.6129133"><ele>161.0</ele><time>2026-03-22T14:11:32.213Z</time></trkpt><trkpt lat="45.4898533" lon="8.61309"><ele>161.0</ele><time>2026-03-22T14:11:33.213Z</time></trkpt><trkpt lat="45.4898617" lon="8.61326"><ele>161.20000000000002</ele><time>2026-03-22T14:11:34.213Z</time></trkpt><trkpt lat="45.4898683" lon="8.6134117"><ele>161.4</ele><time>2026-03-22T14:11:35.213Z</time></trkpt><trkpt lat="45.4898767" lon="8.61356"><ele>161.6</ele><time>2026-03-22T14:11:36.213Z</time></trkpt><trkpt lat="45.4898767" lon="8.6137"><ele>161.8</ele><time>2026-03-22T14:11:37.213Z</time></trkpt><trkpt lat="45.4898817" lon="8.61385"><ele>162.0</ele><time>2026-03-22T14:11:38.213Z</time></trkpt><trkpt lat="45.4898867" lon="8.6140283"><ele>162.0</ele><time>2026-03-22T14:11:39.213Z</time></trkpt><trkpt lat="45.489895" lon="8.614235"><ele>162.0</ele><time>2026-03-22T14:11:40.213Z</time></trkpt><trkpt lat="45.4899167" lon="8.6144367"><ele>162.0</ele><time>2026-03-22T14:11:41.213Z</time></trkpt><trkpt lat="45.489945" lon="8.6146433"><ele>162.0</ele><time>2026-03-22T14:11:42.213Z</time></trkpt><trkpt lat="45.4899817" lon="8.6148517"><ele>162.33333333333334</ele><time>2026-03-22T14:11:43.213Z</time></trkpt><trkpt lat="45.4900117" lon="8.6150617"><ele>162.66666666666669</ele><time>2026-03-22T14:11:44.213Z</time></trkpt><trkpt lat="45.4900433" lon="8.6152783"><ele>163.0</ele><time>2026-03-22T14:11:45.213Z</time></trkpt><trkpt lat="45.490075" lon="8.6154967"><ele>163.0</ele><time>2026-03-22T14:11:46.213Z</time></trkpt><trkpt lat="45.4901067" lon="8.6157167"><ele>163.0</ele><time>2026-03-22T14:11:47.213Z</time></trkpt><trkpt lat="45.49014" lon="8.6159333"><ele>163.0</ele><time>2026-03-22T14:11:48.213Z</time></trkpt><trkpt lat="45.490165" lon="8.6161333"><ele>162.75</ele><time>2026-03-22T14:11:49.213Z</time></trkpt><trkpt lat="45.490195" lon="8.6163233"><ele>162.5</ele><time>2026-03-22T14:11:50.213Z</time></trkpt><trkpt lat="45.4902183" lon="8.6164967"><ele>162.25</ele><time>2026-03-22T14:11:51.213Z</time></trkpt><trkpt lat="45.49025" lon="8.6166533"><ele>162.0</ele><time>2026-03-22T14:11:52.213Z</time></trkpt><trkpt lat="45.4903" lon="8.6168067"><ele>162.0</ele><time>2026-03-22T14:11:53.213Z</time></trkpt><trkpt lat="45.4903683" lon="8.6169517"><ele>162.0</ele><time>2026-03-22T14:11:54.213Z</time></trkpt><trkpt lat="45.4904267" lon="8.6171067"><ele>162.0</ele><time>2026-03-22T14:11:55.213Z</time></trkpt><trkpt lat="45.4904683" lon="8.6173017"><ele>162.0</ele><time>2026-03-22T14:11:56.213Z</time></trkpt><trkpt lat="45.4904967" lon="8.6175133"><ele>161.75</ele><time>2026-03-22T14:11:57.213Z</time></trkpt><trkpt lat="45.490525" lon="8.61771"><ele>161.5</ele><time>2026-03-22T14:11:58.213Z</time></trkpt><trkpt lat="45.49056" lon="8.6179133"><ele>161.25</ele><time>2026-03-22T14:11:59.213Z</time></trkpt><trkpt lat="45.4905917" lon="8.618115"><ele>161.0</ele><time>2026-03-22T14:12:00.213Z</time></trkpt><trkpt lat="45.4906267" lon="8.6183033"><ele>161.0</ele><time>2026-03-22T14:12:01.213Z</time></trkpt><trkpt lat="45.49066" lon="8.61849"><ele>161.0</ele><time>2026-03-22T14:12:02.213Z</time></trkpt><trkpt lat="45.4906683" lon="8.6186583"><ele>161.0</ele><time>2026-03-22T14:12:03.213Z</time></trkpt><trkpt lat="45.4906533" lon="8.618825"><ele>161.0</ele><time>2026-03-22T14:12:04.213Z</time></trkpt><trkpt lat="45.49061" lon="8.6189767"><ele>161.0</ele><time>2026-03-22T14:12:05.213Z</time></trkpt><trkpt lat="45.4904517" lon="8.61926"><ele>161.0</ele><time>2026-03-22T14:12:07.213Z</time></trkpt><trkpt lat="45.4903567" lon="8.6194267"><ele>161.0</ele><time>2026-03-22T14:12:08.213Z</time></trkpt><trkpt lat="45.4902683" lon="8.6195967"><ele>160.5</ele><time>2026-03-22T14:12:09.213Z</time></trkpt><trkpt lat="45.4901833" lon="8.61975"><ele>160.0</ele><time>2026-03-22T14:12:10.213Z</time></trkpt><trkpt lat="45.49011" lon="8.6198933"><ele>159.5</ele><time>2026-03-22T14:12:11.213Z</time></trkpt><trkpt lat="45.4900667" lon="8.6200483"><ele>159.0</ele><time>2026-03-22T14:12:12.213Z</time></trkpt><trkpt lat="45.49003" lon="8.6202117"><ele>159.0</ele><time>2026-03-22T14:12:13.213Z</time></trkpt><trkpt lat="45.49002" lon="8.62036"><ele>159.0</ele><time>2026-03-22T14:12:14.213Z</time></trkpt><trkpt lat="45.4900383" lon="8.6205033"><ele>159.0</ele><time>2026-03-22T14:12:15.213Z</time></trkpt><trkpt lat="45.4900733" lon="8.62064"><ele>159.0</ele><time>2026-03-22T14:12:16.213Z</time></trkpt><trkpt lat="45.490125" lon="8.6207833"><ele>159.0</ele><time>2026-03-22T14:12:17.213Z</time></trkpt><trkpt lat="45.4901933" lon="8.6209217"><ele>159.0</ele><time>2026-03-22T14:12:18.213Z</time></trkpt><trkpt lat="45.4902567" lon="8.621065"><ele>159.0</ele><time>2026-03-22T14:12:19.213Z</time></trkpt><trkpt lat="45.490295" lon="8.6212233"><ele>159.0</ele><time>2026-03-22T14:12:20.213Z</time></trkpt><trkpt lat="45.49031" lon="8.6213917"><ele>159.0</ele><time>2026-03-22T14:12:21.213Z</time></trkpt><trkpt lat="45.4903067" lon="8.6215767"><ele>158.75</ele><time>2026-03-22T14:12:22.213Z</time></trkpt><trkpt lat="45.4902833" lon="8.6217567"><ele>158.5</ele><time>2026-03-22T14:12:23.213Z</time></trkpt><trkpt lat="45.4902433" lon="8.621925"><ele>158.25</ele><time>2026-03-22T14:12:24.213Z</time></trkpt><trkpt lat="45.49019" lon="8.6220883"><ele>158.0</ele><time>2026-03-22T14:12:25.213Z</time></trkpt><trkpt lat="45.4901183" lon="8.62225"><ele>158.0</ele><time>2026-03-22T14:12:26.213Z</time></trkpt><trkpt lat="45.4900417" lon="8.6224117"><ele>158.0</ele><time>2026-03-22T14:12:27.213Z</time></trkpt><trkpt lat="45.48997" lon="8.6225733"><ele>158.0</ele><time>2026-03-22T14:12:28.213Z</time></trkpt><trkpt lat="45.4898933" lon="8.6227217"><ele>158.0</ele><time>2026-03-22T14:12:29.213Z</time></trkpt><trkpt lat="45.48981" lon="8.6228617"><ele>158.20000000000002</ele><time>2026-03-22T14:12:30.213Z</time></trkpt><trkpt lat="45.489735" lon="8.6229933"><ele>158.4</ele><time>2026-03-22T14:12:31.213Z</time></trkpt><trkpt lat="45.489665" lon="8.6231167"><ele>158.60000000000002</ele><time>2026-03-22T14:12:32.213Z</time></trkpt><trkpt lat="45.4896033" lon="8.6232417"><ele>158.8</ele><time>2026-03-22T14:12:33.213Z</time></trkpt><trkpt lat="45.4895483" lon="8.62335"><ele>159.0</ele><time>2026-03-22T14:12:34.213Z</time></trkpt><trkpt lat="45.489505" lon="8.6234617"><ele>158.66666666666666</ele><time>2026-03-22T14:12:35.213Z</time></trkpt><trkpt lat="45.4894733" lon="8.6235867"><ele>158.33333333333334</ele><time>2026-03-22T14:12:36.213Z</time></trkpt><trkpt lat="45.4894517" lon="8.62371"><ele>158.0</ele><time>2026-03-22T14:12:37.213Z</time></trkpt><trkpt lat="45.4894133" lon="8.6238183"><ele>157.66666666666669</ele><time>2026-03-22T14:12:38.213Z</time></trkpt><trkpt lat="45.48938" lon="8.6238967"><ele>157.33333333333334</ele><time>2026-03-22T14:12:39.213Z</time></trkpt><trkpt lat="45.489275" lon="8.6239533"><ele>157.0</ele><time>2026-03-22T14:12:41.213Z</time></trkpt><trkpt lat="45.4891933" lon="8.62395"><ele>157.0</ele><time>2026-03-22T14:12:42.213Z</time></trkpt><trkpt lat="45.4890983" lon="8.6239333"><ele>157.0</ele><time>2026-03-22T14:12:43.213Z</time></trkpt><trkpt lat="45.489" lon="8.6239317"><ele>157.0</ele><time>2026-03-22T14:12:44.213Z</time></trkpt><trkpt lat="45.4889083" lon="8.6239383"><ele>157.0</ele><time>2026-03-22T14:12:45.213Z</time></trkpt><trkpt lat="45.4888017" lon="8.623945"><ele>157.0</ele><time>2026-03-22T14:12:46.213Z</time></trkpt><trkpt lat="45.4886933" lon="8.62394"><ele>157.0</ele><time>2026-03-22T14:12:47.213Z</time></trkpt><trkpt lat="45.4885867" lon="8.6239467"><ele>157.0</ele><time>2026-03-22T14:12:48.213Z</time></trkpt><trkpt lat="45.488485" lon="8.6239567"><ele>157.0</ele><time>2026-03-22T14:12:49.213Z</time></trkpt><trkpt lat="45.48839" lon="8.6239667"><ele>157.0</ele><time>2026-03-22T14:12:50.213Z</time></trkpt><trkpt lat="45.4882967" lon="8.62396"><ele>157.0</ele><time>2026-03-22T14:12:51.213Z</time></trkpt><trkpt lat="45.4882067" lon="8.6239483"><ele>157.0</ele><time>2026-03-22T14:12:52.213Z</time></trkpt><trkpt lat="45.4881183" lon="8.6239333"><ele>157.0</ele><time>2026-03-22T14:12:53.213Z</time></trkpt><trkpt lat="45.4880533" lon="8.6239367"><ele>157.0</ele><time>2026-03-22T14:12:54.213Z</time></trkpt><trkpt lat="45.48797" lon="8.6240033"><ele>157.0</ele><time>2026-03-22T14:12:56.213Z</time></trkpt><trkpt lat="45.4879517" lon="8.624155"><ele>157.0</ele><time>2026-03-22T14:12:58.213Z</time></trkpt><trkpt lat="45.4879583" lon="8.6242483"><ele>157.0</ele><time>2026-03-22T14:12:59.213Z</time></trkpt><trkpt lat="45.48796" lon="8.6243567"><ele>157.0</ele><time>2026-03-22T14:13:00.213Z</time></trkpt><trkpt lat="45.48797" lon="8.624465"><ele>157.0</ele><time>2026-03-22T14:13:01.213Z</time></trkpt><trkpt lat="45.48798" lon="8.62456"><ele>157.0</ele><time>2026-03-22T14:13:02.213Z</time></trkpt><trkpt lat="45.487975" lon="8.624705"><ele>157.0</ele><time>2026-03-22T14:13:04.213Z</time></trkpt><trkpt lat="45.487985" lon="8.6248017"><ele>157.0</ele><time>2026-03-22T14:13:06.213Z</time></trkpt><trkpt lat="45.4880533" lon="8.624875"><ele>157.0</ele><time>2026-03-22T14:13:09.213Z</time></trkpt><trkpt lat="45.4881867" lon="8.6248467"><ele>157.0</ele><time>2026-03-22T14:13:11.213Z</time></trkpt><trkpt lat="45.488265" lon="8.6248317"><ele>157.0</ele><time>2026-03-22T14:13:12.213Z</time></trkpt><trkpt lat="45.4883717" lon="8.624815"><ele>157.0</ele><time>2026-03-22T14:13:13.213Z</time></trkpt><trkpt lat="45.48849" lon="8.624815"><ele>157.0</ele><time>2026-03-22T14:13:14.213Z</time></trkpt><trkpt lat="45.4886183" lon="8.6248283"><ele>157.0</ele><time>2026-03-22T14:13:15.213Z</time></trkpt><trkpt lat="45.4887533" lon="8.6248567"><ele>156.75</ele><time>2026-03-22T14:13:16.213Z</time></trkpt><trkpt lat="45.4888817" lon="8.624895"><ele>156.5</ele><time>2026-03-22T14:13:17.213Z</time></trkpt><trkpt lat="45.48902" lon="8.624965"><ele>156.25</ele><time>2026-03-22T14:13:18.213Z</time></trkpt><trkpt lat="45.489155" lon="8.625055"><ele>156.0</ele><time>2026-03-22T14:13:19.213Z</time></trkpt><trkpt lat="45.4892817" lon="8.6251617"><ele>156.0</ele><time>2026-03-22T14:13:20.213Z</time></trkpt><trkpt lat="45.4894017" lon="8.6253017"><ele>156.0</ele><time>2026-03-22T14:13:21.213Z</time></trkpt><trkpt lat="45.4895017" lon="8.6254517"><ele>156.0</ele><time>2026-03-22T14:13:22.213Z</time></trkpt><trkpt lat="45.4895833" lon="8.6256317"><ele>156.66666666666666</ele><time>2026-03-22T14:13:23.213Z</time></trkpt><trkpt lat="45.4896517" lon="8.62582"><ele>157.33333333333331</ele><time>2026-03-22T14:13:24.213Z</time></trkpt><trkpt lat="45.4897" lon="8.6260333"><ele>158.0</ele><time>2026-03-22T14:13:25.213Z</time></trkpt><trkpt lat="45.489745" lon="8.6262517"><ele>158.0</ele><time>2026-03-22T14:13:26.213Z</time></trkpt><trkpt lat="45.4897833" lon="8.62647"><ele>158.0</ele><time>2026-03-22T14:13:27.213Z</time></trkpt><trkpt lat="45.489815" lon="8.6266967"><ele>158.0</ele><time>2026-03-22T14:13:28.213Z</time></trkpt><trkpt lat="45.4898467" lon="8.6269183"><ele>158.33333333333331</ele><time>2026-03-22T14:13:29.213Z</time></trkpt><trkpt lat="45.4898717" lon="8.6271567"><ele>158.66666666666666</ele><time>2026-03-22T14:13:30.213Z</time></trkpt><trkpt lat="45.4899" lon="8.627385"><ele>159.0</ele><time>2026-03-22T14:13:31.213Z</time></trkpt><trkpt lat="45.48992" lon="8.6276"><ele>159.0</ele><time>2026-03-22T14:13:32.213Z</time></trkpt><trkpt lat="45.4899483" lon="8.6278033"><ele>159.0</ele><time>2026-03-22T14:13:33.213Z</time></trkpt><trkpt lat="45.4899717" lon="8.6280017"><ele>159.0</ele><time>2026-03-22T14:13:34.213Z</time></trkpt><trkpt lat="45.4899833" lon="8.6281883"><ele>159.0</ele><time>2026-03-22T14:13:35.213Z</time></trkpt><trkpt lat="45.4900133" lon="8.6283633"><ele>159.25</ele><time>2026-03-22T14:13:36.213Z</time></trkpt><trkpt lat="45.490015" lon="8.6285433"><ele>159.5</ele><time>2026-03-22T14:13:37.213Z</time></trkpt><trkpt lat="45.4900083" lon="8.6287183"><ele>159.75</ele><time>2026-03-22T14:13:38.213Z</time></trkpt><trkpt lat="45.49002" lon="8.6288967"><ele>160.0</ele><time>2026-03-22T14:13:39.213Z</time></trkpt><trkpt lat="45.49005" lon="8.6290717"><ele>159.5</ele><time>2026-03-22T14:13:40.213Z</time></trkpt><trkpt lat="45.490165" lon="8.6296"><ele>159.0</ele><time>2026-03-22T14:13:43.213Z</time></trkpt><trkpt lat="45.490195" lon="8.62977"><ele>159.0</ele><time>2026-03-22T14:13:44.213Z</time></trkpt><trkpt lat="45.4902283" lon="8.6299183"><ele>159.0</ele><time>2026-03-22T14:13:45.213Z</time></trkpt><trkpt lat="45.4902517" lon="8.6300483"><ele>159.0</ele><time>2026-03-22T14:13:46.213Z</time></trkpt><trkpt lat="45.490265" lon="8.6301517"><ele>159.0</ele><time>2026-03-22T14:13:47.213Z</time></trkpt><trkpt lat="45.4902833" lon="8.630285"><ele>159.0</ele><time>2026-03-22T14:13:49.213Z</time></trkpt><trkpt lat="45.4902267" lon="8.63037"><ele>159.0</ele><time>2026-03-22T14:13:51.213Z</time></trkpt><trkpt lat="45.490145" lon="8.6303783"><ele>159.0</ele><time>2026-03-22T14:13:52.213Z</time></trkpt><trkpt lat="45.4900167" lon="8.6303583"><ele>159.0</ele><time>2026-03-22T14:13:53.213Z</time></trkpt><trkpt lat="45.4898717" lon="8.6303533"><ele>159.0</ele><time>2026-03-22T14:13:54.213Z</time></trkpt><trkpt lat="45.489745" lon="8.630365"><ele>159.0</ele><time>2026-03-22T14:13:55.213Z</time></trkpt><trkpt lat="45.489615" lon="8.6303817"><ele>159.0</ele><time>2026-03-22T14:13:56.213Z</time></trkpt><trkpt lat="45.4895033" lon="8.63039"><ele>159.0</ele><time>2026-03-22T14:13:57.213Z</time></trkpt><trkpt lat="45.4893983" lon="8.63039"><ele>159.0</ele><time>2026-03-22T14:13:58.213Z</time></trkpt><trkpt lat="45.4893083" lon="8.6303917"><ele>159.0</ele><time>2026-03-22T14:13:59.213Z</time></trkpt><trkpt lat="45.4892433" lon="8.630405"><ele>158.6</ele><time>2026-03-22T14:14:00.213Z</time></trkpt><trkpt lat="45.4891383" lon="8.63049"><ele>158.2</ele><time>2026-03-22T14:14:02.213Z</time></trkpt><trkpt lat="45.4891267" lon="8.6306"><ele>157.79999999999998</ele><time>2026-03-22T14:14:03.213Z</time></trkpt><trkpt lat="45.4891333" lon="8.630745"><ele>157.4</ele><time>2026-03-22T14:14:04.213Z</time></trkpt><trkpt lat="45.4891517" lon="8.63092"><ele>157.0</ele><time>2026-03-22T14:14:05.213Z</time></trkpt><trkpt lat="45.4891817" lon="8.6310983"><ele>156.75</ele><time>2026-03-22T14:14:06.213Z</time></trkpt><trkpt lat="45.4892083" lon="8.6312883"><ele>156.5</ele><time>2026-03-22T14:14:07.213Z</time></trkpt><trkpt lat="45.4892383" lon="8.6314683"><ele>156.25</ele><time>2026-03-22T14:14:08.213Z</time></trkpt><trkpt lat="45.48928" lon="8.6316567"><ele>156.0</ele><time>2026-03-22T14:14:09.213Z</time></trkpt><trkpt lat="45.4893317" lon="8.631835"><ele>156.25</ele><time>2026-03-22T14:14:10.213Z</time></trkpt><trkpt lat="45.489385" lon="8.632005"><ele>156.5</ele><time>2026-03-22T14:14:11.213Z</time></trkpt><trkpt lat="45.4894317" lon="8.6321817"><ele>156.75</ele><time>2026-03-22T14:14:12.213Z</time></trkpt><trkpt lat="45.489475" lon="8.6323567"><ele>157.0</ele><time>2026-03-22T14:14:13.213Z</time></trkpt><trkpt lat="45.4895183" lon="8.6325233"><ele>157.0</ele><time>2026-03-22T14:14:14.213Z</time></trkpt><trkpt lat="45.4895633" lon="8.6327"><ele>157.0</ele><time>2026-03-22T14:14:15.213Z</time></trkpt><trkpt lat="45.4895983" lon="8.6328883"><ele>157.0</ele><time>2026-03-22T14:14:16.213Z</time></trkpt><trkpt lat="45.4896367" lon="8.6330667"><ele>157.0</ele><time>2026-03-22T14:14:17.213Z</time></trkpt><trkpt lat="45.4896817" lon="8.6332667"><ele>157.0</ele><time>2026-03-22T14:14:18.213Z</time></trkpt><trkpt lat="45.48972" lon="8.6334667"><ele>157.0</ele><time>2026-03-22T14:14:19.213Z</time></trkpt><trkpt lat="45.4897533" lon="8.6336683"><ele>157.0</ele><time>2026-03-22T14:14:20.213Z</time></trkpt><trkpt lat="45.489795" lon="8.63386"><ele>157.0</ele><time>2026-03-22T14:14:21.213Z</time></trkpt><trkpt lat="45.4898367" lon="8.63404"><ele>157.25</ele><time>2026-03-22T14:14:22.213Z</time></trkpt><trkpt lat="45.4898767" lon="8.63423"><ele>157.5</ele><time>2026-03-22T14:14:23.213Z</time></trkpt><trkpt lat="45.4899133" lon="8.6344167"><ele>157.75</ele><time>2026-03-22T14:14:24.213Z</time></trkpt><trkpt lat="45.4899467" lon="8.6346017"><ele>158.0</ele><time>2026-03-22T14:14:25.213Z</time></trkpt><trkpt lat="45.4899767" lon="8.63478"><ele>157.5</ele><time>2026-03-22T14:14:26.213Z</time></trkpt><trkpt lat="45.49002" lon="8.63496"><ele>157.0</ele><time>2026-03-22T14:14:27.213Z</time></trkpt><trkpt lat="45.4900767" lon="8.635135"><ele>156.5</ele><time>2026-03-22T14:14:28.213Z</time></trkpt><trkpt lat="45.4901367" lon="8.63531"><ele>156.0</ele><time>2026-03-22T14:14:29.213Z</time></trkpt><trkpt lat="45.4901917" lon="8.6354967"><ele>156.0</ele><time>2026-03-22T14:14:30.213Z</time></trkpt><trkpt lat="45.4902433" lon="8.635685"><ele>156.0</ele><time>2026-03-22T14:14:31.213Z</time></trkpt><trkpt lat="45.4902933" lon="8.6358783"><ele>156.0</ele><time>2026-03-22T14:14:32.213Z</time></trkpt><trkpt lat="45.4903417" lon="8.63607"><ele>156.0</ele><time>2026-03-22T14:14:33.213Z</time></trkpt><trkpt lat="45.490385" lon="8.6362633"><ele>156.0</ele><time>2026-03-22T14:14:34.213Z</time></trkpt><trkpt lat="45.4904267" lon="8.63646"><ele>156.0</ele><time>2026-03-22T14:14:35.213Z</time></trkpt><trkpt lat="45.490465" lon="8.6366517"><ele>156.0</ele><time>2026-03-22T14:14:36.213Z</time></trkpt><trkpt lat="45.4905083" lon="8.6368483"><ele>156.0</ele><time>2026-03-22T14:14:37.213Z</time></trkpt><trkpt lat="45.4905467" lon="8.6370267"><ele>156.0</ele><time>2026-03-22T14:14:38.213Z</time></trkpt><trkpt lat="45.49059" lon="8.637205"><ele>156.0</ele><time>2026-03-22T14:14:39.213Z</time></trkpt><trkpt lat="45.4906283" lon="8.63738"><ele>156.0</ele><time>2026-03-22T14:14:40.213Z</time></trkpt><trkpt lat="45.490675" lon="8.637555"><ele>156.0</ele><time>2026-03-22T14:14:41.213Z</time></trkpt><trkpt lat="45.4907133" lon="8.6377167"><ele>156.4</ele><time>2026-03-22T14:14:42.213Z</time></trkpt><trkpt lat="45.490745" lon="8.6378667"><ele>156.8</ele><time>2026-03-22T14:14:43.213Z</time></trkpt><trkpt lat="45.49078" lon="8.6380117"><ele>157.20000000000002</ele><time>2026-03-22T14:14:44.213Z</time></trkpt><trkpt lat="45.4908133" lon="8.6381467"><ele>157.6</ele><time>2026-03-22T14:14:45.213Z</time></trkpt><trkpt lat="45.4908417" lon="8.638275"><ele>158.0</ele><time>2026-03-22T14:14:46.213Z</time></trkpt><trkpt lat="45.490875" lon="8.6383917"><ele>158.0</ele><time>2026-03-22T14:14:47.213Z</time></trkpt><trkpt lat="45.490905" lon="8.6384933"><ele>158.0</ele><time>2026-03-22T14:14:48.213Z</time></trkpt><trkpt lat="45.4909283" lon="8.6385867"><ele>158.0</ele><time>2026-03-22T14:14:49.213Z</time></trkpt><trkpt lat="45.490925" lon="8.6387567"><ele>158.0</ele><time>2026-03-22T14:14:51.213Z</time></trkpt><trkpt lat="45.4908767" lon="8.63885"><ele>158.0</ele><time>2026-03-22T14:14:53.213Z</time></trkpt><trkpt lat="45.4907733" lon="8.63889"><ele>157.83333333333331</ele><time>2026-03-22T14:14:55.213Z</time></trkpt><trkpt lat="45.49071" lon="8.6389033"><ele>157.66666666666666</ele><time>2026-03-22T14:14:56.213Z</time></trkpt><trkpt lat="45.4905933" lon="8.6389283"><ele>157.5</ele><time>2026-03-22T14:14:58.213Z</time></trkpt><trkpt lat="45.49053" lon="8.6389467"><ele>157.33333333333334</ele><time>2026-03-22T14:14:59.213Z</time></trkpt><trkpt lat="45.4904117" lon="8.6390033"><ele>157.16666666666669</ele><time>2026-03-22T14:15:01.213Z</time></trkpt><trkpt lat="45.49035" lon="8.63904"><ele>157.0</ele><time>2026-03-22T14:15:02.212Z</time></trkpt><trkpt lat="45.4902817" lon="8.639085"><ele>156.99999999999997</ele><time>2026-03-22T14:15:03.212Z</time></trkpt><trkpt lat="45.4902167" lon="8.6391117"><ele>157.0</ele><time>2026-03-22T14:15:04.212Z</time></trkpt><trkpt lat="45.4901533" lon="8.6391383"><ele>157.0</ele><time>2026-03-22T14:15:05.212Z</time></trkpt><trkpt lat="45.4900883" lon="8.6391617"><ele>157.0</ele><time>2026-03-22T14:15:06.212Z</time></trkpt><trkpt lat="45.4900117" lon="8.6391783"><ele>157.0</ele><time>2026-03-22T14:15:07.212Z</time></trkpt><trkpt lat="45.489935" lon="8.6392"><ele>156.99999999999997</ele><time>2026-03-22T14:15:08.212Z</time></trkpt><trkpt lat="45.4898633" lon="8.6392283"><ele>157.0</ele><time>2026-03-22T14:15:09.212Z</time></trkpt><trkpt lat="45.4897933" lon="8.639255"><ele>156.99999999999997</ele><time>2026-03-22T14:15:10.212Z</time></trkpt><trkpt lat="45.4897233" lon="8.6392817"><ele>157.0</ele><time>2026-03-22T14:15:11.212Z</time></trkpt><trkpt lat="45.489655" lon="8.6393083"><ele>157.0</ele><time>2026-03-22T14:15:12.212Z</time></trkpt><trkpt lat="45.48959" lon="8.6393367"><ele>157.0</ele><time>2026-03-22T14:15:13.212Z</time></trkpt><trkpt lat="45.4895283" lon="8.639365"><ele>157.0</ele><time>2026-03-22T14:15:14.212Z</time></trkpt><trkpt lat="45.4894617" lon="8.6393883"><ele>156.99999999999997</ele><time>2026-03-22T14:15:15.212Z</time></trkpt><trkpt lat="45.4893967" lon="8.6394117"><ele>157.0</ele><time>2026-03-22T14:15:16.212Z</time></trkpt><trkpt lat="45.4893367" lon="8.639445"><ele>157.0</ele><time>2026-03-22T14:15:17.212Z</time></trkpt><trkpt lat="45.4892167" lon="8.63949"><ele>157.0</ele><time>2026-03-22T14:15:19.212Z</time></trkpt><trkpt lat="45.4890983" lon="8.639535"><ele>157.0</ele><time>2026-03-22T14:15:21.212Z</time></trkpt><trkpt lat="45.488985" lon="8.6395683"><ele>157.0</ele><time>2026-03-22T14:15:23.212Z</time></trkpt><trkpt lat="45.4888833" lon="8.6396067"><ele>157.0</ele><time>2026-03-22T14:15:25.212Z</time></trkpt><trkpt lat="45.4888183" lon="8.6396317"><ele>157.0</ele><time>2026-03-22T14:15:27.212Z</time></trkpt><trkpt lat="45.4887767" lon="8.6397083"><ele>157.0</ele><time>2026-03-22T14:15:30.212Z</time></trkpt><trkpt lat="45.4887783" lon="8.6398317"><ele>157.0</ele><time>2026-03-22T14:15:32.212Z</time></trkpt><trkpt lat="45.488775" lon="8.639975"><ele>157.0</ele><time>2026-03-22T14:15:34.212Z</time></trkpt><trkpt lat="45.4887683" lon="8.6401167"><ele>157.0</ele><time>2026-03-22T14:15:36.212Z</time></trkpt><trkpt lat="45.4887667" lon="8.6402783"><ele>157.0</ele><time>2026-03-22T14:15:38.212Z</time></trkpt><trkpt lat="45.4887517" lon="8.64043"><ele>157.0</ele><time>2026-03-22T14:15:40.212Z</time></trkpt><trkpt lat="45.488745" lon="8.64061"><ele>157.0</ele><time>2026-03-22T14:15:42.212Z</time></trkpt><trkpt lat="45.488745" lon="8.6407067"><ele>157.0</ele><time>2026-03-22T14:15:43.212Z</time></trkpt><trkpt lat="45.4887367" lon="8.640805"><ele>157.0</ele><time>2026-03-22T14:15:44.212Z</time></trkpt><trkpt lat="45.488735" lon="8.6409"><ele>157.0</ele><time>2026-03-22T14:15:45.212Z</time></trkpt><trkpt lat="45.4887333" lon="8.6409933"><ele>157.0</ele><time>2026-03-22T14:15:46.212Z</time></trkpt><trkpt lat="45.4887317" lon="8.641085"><ele>157.0</ele><time>2026-03-22T14:15:47.212Z</time></trkpt><trkpt lat="45.48873" lon="8.6412633"><ele>157.0</ele><time>2026-03-22T14:15:49.212Z</time></trkpt><trkpt lat="45.4887283" lon="8.64144"><ele>157.0</ele><time>2026-03-22T14:15:51.212Z</time></trkpt><trkpt lat="45.4887283" lon="8.6415933"><ele>157.0</ele><time>2026-03-22T14:15:53.212Z</time></trkpt><trkpt lat="45.488725" lon="8.6417133"><ele>157.0</ele><time>2026-03-22T14:15:55.212Z</time></trkpt><trkpt lat="45.488705" lon="8.6418617"><ele>157.0</ele><time>2026-03-22T14:15:57.212Z</time></trkpt><trkpt lat="45.4886483" lon="8.641975"><ele>157.0</ele><time>2026-03-22T14:15:59.212Z</time></trkpt><trkpt lat="45.4885783" lon="8.64213"><ele>157.0</ele><time>2026-03-22T14:16:01.212Z</time></trkpt><trkpt lat="45.4885567" lon="8.64224"><ele>157.0</ele><time>2026-03-22T14:16:02.212Z</time></trkpt><trkpt lat="45.4885483" lon="8.642355"><ele>157.16666666666669</ele><time>2026-03-22T14:16:03.212Z</time></trkpt><trkpt lat="45.488555" lon="8.6424767"><ele>157.33333333333334</ele><time>2026-03-22T14:16:04.212Z</time></trkpt><trkpt lat="45.48857" lon="8.6426067"><ele>157.5</ele><time>2026-03-22T14:16:05.212Z</time></trkpt><trkpt lat="45.4885917" lon="8.6427317"><ele>157.66666666666666</ele><time>2026-03-22T14:16:06.212Z</time></trkpt><trkpt lat="45.4886083" lon="8.64284"><ele>157.83333333333331</ele><time>2026-03-22T14:16:07.212Z</time></trkpt><trkpt lat="45.4886217" lon="8.64296"><ele>158.0</ele><time>2026-03-22T14:16:08.212Z</time></trkpt><trkpt lat="45.4886133" lon="8.643095"><ele>158.0</ele><time>2026-03-22T14:16:09.212Z</time></trkpt><trkpt lat="45.488595" lon="8.64321"><ele>158.0</ele><time>2026-03-22T14:16:10.212Z</time></trkpt><trkpt lat="45.488605" lon="8.6433383"><ele>158.0</ele><time>2026-03-22T14:16:11.212Z</time></trkpt><trkpt lat="45.4886083" lon="8.6434433"><ele>158.0</ele><time>2026-03-22T14:16:12.212Z</time></trkpt><trkpt lat="45.48861" lon="8.6435517"><ele>158.0</ele><time>2026-03-22T14:16:13.212Z</time></trkpt><trkpt lat="45.4886367" lon="8.643715"><ele>158.0</ele><time>2026-03-22T14:16:15.212Z</time></trkpt><trkpt lat="45.488655" lon="8.6438183"><ele>157.8</ele><time>2026-03-22T14:16:18.212Z</time></trkpt><trkpt lat="45.488675" lon="8.643935"><ele>157.60000000000002</ele><time>2026-03-22T14:20:59.211Z</time></trkpt><trkpt lat="45.4887017" lon="8.64406"><ele>157.39999999999998</ele><time>2026-03-22T14:21:01.211Z</time></trkpt><trkpt lat="45.488715" lon="8.6441983"><ele>157.2</ele><time>2026-03-22T14:21:03.211Z</time></trkpt><trkpt lat="45.4887217" lon="8.6443417"><ele>157.0</ele><time>2026-03-22T14:21:05.211Z</time></trkpt><trkpt lat="45.488725" lon="8.644485"><ele>157.0</ele><time>2026-03-22T14:21:07.211Z</time></trkpt><trkpt lat="45.4887133" lon="8.64466"><ele>157.0</ele><time>2026-03-22T14:21:09.211Z</time></trkpt><trkpt lat="45.4887083" lon="8.64475"><ele>157.0</ele><time>2026-03-22T14:21:10.211Z</time></trkpt><trkpt lat="45.4887083" lon="8.64485"><ele>157.0</ele><time>2026-03-22T14:21:11.211Z</time></trkpt><trkpt lat="45.4886967" lon="8.64502"><ele>157.0</ele><time>2026-03-22T14:21:13.211Z</time></trkpt><trkpt lat="45.4886933" lon="8.6451567"><ele>157.4</ele><time>2026-03-22T14:21:15.211Z</time></trkpt><trkpt lat="45.4886983" lon="8.6453017"><ele>157.79999999999998</ele><time>2026-03-22T14:21:17.211Z</time></trkpt><trkpt lat="45.4887017" lon="8.6454467"><ele>158.2</ele><time>2026-03-22T14:21:19.211Z</time></trkpt><trkpt lat="45.488675" lon="8.645565"><ele>158.6</ele><time>2026-03-22T14:21:21.211Z</time></trkpt><trkpt lat="45.488665" lon="8.6457433"><ele>159.0</ele><time>2026-03-22T14:21:23.211Z</time></trkpt><trkpt lat="45.488675" lon="8.64584"><ele>159.0</ele><time>2026-03-22T14:21:24.211Z</time></trkpt><trkpt lat="45.4887" lon="8.6459333"><ele>159.0</ele><time>2026-03-22T14:21:25.211Z</time></trkpt><trkpt lat="45.4887217" lon="8.646035"><ele>159.0</ele><time>2026-03-22T14:21:26.211Z</time></trkpt><trkpt lat="45.4887433" lon="8.6461317"><ele>159.0</ele><time>2026-03-22T14:21:27.211Z</time></trkpt><trkpt lat="45.488765" lon="8.646245"><ele>159.0</ele><time>2026-03-22T14:21:28.211Z</time></trkpt><trkpt lat="45.4887817" lon="8.6463567"><ele>159.0</ele><time>2026-03-22T14:21:29.211Z</time></trkpt><trkpt lat="45.4888" lon="8.6464683"><ele>158.2</ele><time>2026-03-22T14:21:30.211Z</time></trkpt><trkpt lat="45.4888133" lon="8.646585"><ele>157.4</ele><time>2026-03-22T14:21:31.211Z</time></trkpt><trkpt lat="45.4888267" lon="8.646715"><ele>156.6</ele><time>2026-03-22T14:21:32.211Z</time></trkpt><trkpt lat="45.4888367" lon="8.6468517"><ele>155.8</ele><time>2026-03-22T14:21:33.211Z</time></trkpt><trkpt lat="45.4888517" lon="8.6469883"><ele>155.0</ele><time>2026-03-22T14:21:34.211Z</time></trkpt><trkpt lat="45.4888717" lon="8.647125"><ele>155.0</ele><time>2026-03-22T14:21:35.211Z</time></trkpt><trkpt lat="45.4888867" lon="8.6472517"><ele>155.0</ele><time>2026-03-22T14:21:36.211Z</time></trkpt><trkpt lat="45.488905" lon="8.6473783"><ele>155.0</ele><time>2026-03-22T14:21:37.211Z</time></trkpt><trkpt lat="45.48892" lon="8.64751"><ele>155.0</ele><time>2026-03-22T14:21:38.211Z</time></trkpt><trkpt lat="45.4889417" lon="8.6476417"><ele>155.0</ele><time>2026-03-22T14:21:39.211Z</time></trkpt><trkpt lat="45.4889617" lon="8.6477683"><ele>155.0</ele><time>2026-03-22T14:21:40.211Z</time></trkpt><trkpt lat="45.488975" lon="8.6478833"><ele>155.0</ele><time>2026-03-22T14:21:41.211Z</time></trkpt><trkpt lat="45.488985" lon="8.6479883"><ele>155.0</ele><time>2026-03-22T14:21:42.211Z</time></trkpt><trkpt lat="45.4889917" lon="8.64809"><ele>155.0</ele><time>2026-03-22T14:21:43.211Z</time></trkpt><trkpt lat="45.4889867" lon="8.6481833"><ele>155.0</ele><time>2026-03-22T14:21:44.211Z</time></trkpt><trkpt lat="45.4889667" lon="8.64827"><ele>155.0</ele><time>2026-03-22T14:21:45.211Z</time></trkpt><trkpt lat="45.488865" lon="8.648375"><ele>155.0</ele><time>2026-03-22T14:21:47.211Z</time></trkpt><trkpt lat="45.4887933" lon="8.6484117"><ele>155.0</ele><time>2026-03-22T14:21:48.211Z</time></trkpt><trkpt lat="45.48871" lon="8.6484583"><ele>155.0</ele><time>2026-03-22T14:21:49.211Z</time></trkpt><trkpt lat="45.4886367" lon="8.648525"><ele>155.0</ele><time>2026-03-22T14:21:50.211Z</time></trkpt><trkpt lat="45.48858" lon="8.6486083"><ele>155.0</ele><time>2026-03-22T14:21:51.211Z</time></trkpt><trkpt lat="45.4885467" lon="8.64873"><ele>155.0</ele><time>2026-03-22T14:21:52.211Z</time></trkpt><trkpt lat="45.48852" lon="8.6488567"><ele>155.66666666666666</ele><time>2026-03-22T14:21:53.211Z</time></trkpt><trkpt lat="45.4885167" lon="8.6492633"><ele>156.33333333333334</ele><time>2026-03-22T14:21:56.211Z</time></trkpt><trkpt lat="45.4885183" lon="8.6493983"><ele>157.0</ele><time>2026-03-22T14:21:57.211Z</time></trkpt><trkpt lat="45.4885183" lon="8.6495433"><ele>157.0</ele><time>2026-03-22T14:21:58.211Z</time></trkpt><trkpt lat="45.488515" lon="8.6496867"><ele>157.0</ele><time>2026-03-22T14:21:59.211Z</time></trkpt><trkpt lat="45.488515" lon="8.6498217"><ele>157.0</ele><time>2026-03-22T14:22:00.211Z</time></trkpt><trkpt lat="45.4885133" lon="8.6499733"><ele>157.0</ele><time>2026-03-22T14:22:01.211Z</time></trkpt><trkpt lat="45.488515" lon="8.6501167"><ele>157.0</ele><time>2026-03-22T14:22:02.211Z</time></trkpt><trkpt lat="45.4885217" lon="8.6502633"><ele>157.0</ele><time>2026-03-22T14:22:03.211Z</time></trkpt><trkpt lat="45.4885183" lon="8.6503983"><ele>157.0</ele><time>2026-03-22T14:22:04.211Z</time></trkpt><trkpt lat="45.4885167" lon="8.6505333"><ele>157.0</ele><time>2026-03-22T14:22:05.211Z</time></trkpt><trkpt lat="45.4885133" lon="8.650655"><ele>157.0</ele><time>2026-03-22T14:22:06.211Z</time></trkpt><trkpt lat="45.4885017" lon="8.6507533"><ele>157.0</ele><time>2026-03-22T14:22:07.211Z</time></trkpt><trkpt lat="45.4884967" lon="8.6508683"><ele>157.0</ele><time>2026-03-22T14:22:09.211Z</time></trkpt><trkpt lat="45.4884667" lon="8.6509817"><ele>157.0</ele><time>2026-03-22T14:22:19.211Z</time></trkpt><trkpt lat="45.4883933" lon="8.6510333"><ele>157.0</ele><time>2026-03-22T14:22:22.212Z</time></trkpt><trkpt lat="45.4882983" lon="8.6509683"><ele>157.0</ele><time>2026-03-22T14:22:25.211Z</time></trkpt><trkpt lat="45.4882217" lon="8.6508967"><ele>157.0</ele><time>2026-03-22T14:22:27.211Z</time></trkpt><trkpt lat="45.4881617" lon="8.65086"><ele>157.0</ele><time>2026-03-22T14:22:29.211Z</time></trkpt><trkpt lat="45.4880883" lon="8.6509317"><ele>157.0</ele><time>2026-03-22T14:22:31.211Z</time></trkpt><trkpt lat="45.4880433" lon="8.6510267"><ele>157.2</ele><time>2026-03-22T14:22:32.211Z</time></trkpt><trkpt lat="45.4880067" lon="8.6511517"><ele>157.39999999999998</ele><time>2026-03-22T14:22:33.211Z</time></trkpt><trkpt lat="45.4879817" lon="8.65129"><ele>157.60000000000002</ele><time>2026-03-22T14:22:34.211Z</time></trkpt><trkpt lat="45.4879633" lon="8.6514383"><ele>157.8</ele><time>2026-03-22T14:22:35.211Z</time></trkpt><trkpt lat="45.4879467" lon="8.6515983"><ele>158.0</ele><time>2026-03-22T14:22:36.211Z</time></trkpt><trkpt lat="45.487945" lon="8.6521217"><ele>158.0</ele><time>2026-03-22T14:22:39.211Z</time></trkpt><trkpt lat="45.4879433" lon="8.6523"><ele>158.0</ele><time>2026-03-22T14:22:40.211Z</time></trkpt><trkpt lat="45.4879417" lon="8.65248"><ele>158.0</ele><time>2026-03-22T14:22:41.211Z</time></trkpt><trkpt lat="45.48794" lon="8.652665"><ele>158.0</ele><time>2026-03-22T14:22:42.211Z</time></trkpt><trkpt lat="45.487945" lon="8.6528533"><ele>158.0</ele><time>2026-03-22T14:22:43.211Z</time></trkpt><trkpt lat="45.487955" lon="8.65304"><ele>158.0</ele><time>2026-03-22T14:22:44.211Z</time></trkpt><trkpt lat="45.4879617" lon="8.65323"><ele>158.0</ele><time>2026-03-22T14:22:45.211Z</time></trkpt><trkpt lat="45.487965" lon="8.6534183"><ele>158.0</ele><time>2026-03-22T14:22:46.211Z</time></trkpt><trkpt lat="45.4879683" lon="8.6535917"><ele>157.75</ele><time>2026-03-22T14:22:47.211Z</time></trkpt><trkpt lat="45.4879583" lon="8.6537633"><ele>157.5</ele><time>2026-03-22T14:22:48.211Z</time></trkpt><trkpt lat="45.487955" lon="8.6539333"><ele>157.25</ele><time>2026-03-22T14:22:49.211Z</time></trkpt><trkpt lat="45.4879483" lon="8.6540967"><ele>157.0</ele><time>2026-03-22T14:22:50.211Z</time></trkpt><trkpt lat="45.4879483" lon="8.6542583"><ele>157.0</ele><time>2026-03-22T14:22:51.211Z</time></trkpt><trkpt lat="45.487945" lon="8.6544233"><ele>157.0</ele><time>2026-03-22T14:22:52.211Z</time></trkpt><trkpt lat="45.4879467" lon="8.6545783"><ele>157.0</ele><time>2026-03-22T14:22:53.211Z</time></trkpt><trkpt lat="45.487945" lon="8.6547383"><ele>157.0</ele><time>2026-03-22T14:22:54.211Z</time></trkpt><trkpt lat="45.4879417" lon="8.6549017"><ele>157.0</ele><time>2026-03-22T14:22:55.211Z</time></trkpt><trkpt lat="45.48794" lon="8.655075"><ele>157.0</ele><time>2026-03-22T14:22:56.211Z</time></trkpt><trkpt lat="45.487925" lon="8.655235"><ele>157.0</ele><time>2026-03-22T14:22:57.211Z</time></trkpt><trkpt lat="45.4879033" lon="8.6554"><ele>157.0</ele><time>2026-03-22T14:22:58.211Z</time></trkpt><trkpt lat="45.487885" lon="8.655565"><ele>157.0</ele><time>2026-03-22T14:22:59.211Z</time></trkpt><trkpt lat="45.4878717" lon="8.6557333"><ele>157.0</ele><time>2026-03-22T14:23:00.211Z</time></trkpt><trkpt lat="45.48787" lon="8.6559083"><ele>157.0</ele><time>2026-03-22T14:23:01.211Z</time></trkpt><trkpt lat="45.487865" lon="8.65608"><ele>157.0</ele><time>2026-03-22T14:23:02.211Z</time></trkpt><trkpt lat="45.4878617" lon="8.656265"><ele>157.0</ele><time>2026-03-22T14:23:03.211Z</time></trkpt><trkpt lat="45.48786" lon="8.6564433"><ele>157.0</ele><time>2026-03-22T14:23:04.211Z</time></trkpt><trkpt lat="45.4878583" lon="8.6566117"><ele>157.0</ele><time>2026-03-22T14:23:05.211Z</time></trkpt><trkpt lat="45.487855" lon="8.6568"><ele>157.0</ele><time>2026-03-22T14:23:06.211Z</time></trkpt><trkpt lat="45.487845" lon="8.65698"><ele>157.25</ele><time>2026-03-22T14:23:07.211Z</time></trkpt><trkpt lat="45.4878417" lon="8.6571567"><ele>157.5</ele><time>2026-03-22T14:23:08.211Z</time></trkpt><trkpt lat="45.4878317" lon="8.6573317"><ele>157.75</ele><time>2026-03-22T14:23:09.211Z</time></trkpt><trkpt lat="45.4878167" lon="8.6575167"><ele>158.0</ele><time>2026-03-22T14:23:10.211Z</time></trkpt><trkpt lat="45.48781" lon="8.65769"><ele>157.5</ele><time>2026-03-22T14:23:11.211Z</time></trkpt><trkpt lat="45.4878067" lon="8.6578667"><ele>157.0</ele><time>2026-03-22T14:23:12.211Z</time></trkpt><trkpt lat="45.4878033" lon="8.658045"><ele>156.5</ele><time>2026-03-22T14:23:13.211Z</time></trkpt><trkpt lat="45.4878" lon="8.6582183"><ele>156.0</ele><time>2026-03-22T14:23:14.211Z</time></trkpt><trkpt lat="45.487805" lon="8.6583967"><ele>156.0</ele><time>2026-03-22T14:23:15.211Z</time></trkpt><trkpt lat="45.4878067" lon="8.658565"><ele>156.0</ele><time>2026-03-22T14:23:16.211Z</time></trkpt><trkpt lat="45.4878" lon="8.6587267"><ele>156.0</ele><time>2026-03-22T14:23:17.211Z</time></trkpt><trkpt lat="45.4877983" lon="8.6588733"><ele>156.0</ele><time>2026-03-22T14:23:18.211Z</time></trkpt><trkpt lat="45.4877967" lon="8.6590133"><ele>156.0</ele><time>2026-03-22T14:23:19.211Z</time></trkpt><trkpt lat="45.4877883" lon="8.6591283"><ele>156.0</ele><time>2026-03-22T14:23:20.211Z</time></trkpt><trkpt lat="45.4877833" lon="8.6592317"><ele>156.0</ele><time>2026-03-22T14:23:21.211Z</time></trkpt><trkpt lat="45.4877883" lon="8.6593433"><ele>156.0</ele><time>2026-03-22T14:23:22.211Z</time></trkpt><trkpt lat="45.4877967" lon="8.6594417"><ele>156.0</ele><time>2026-03-22T14:23:23.211Z</time></trkpt><trkpt lat="45.4878067" lon="8.659535"><ele>156.0</ele><time>2026-03-22T14:23:24.211Z</time></trkpt><trkpt lat="45.4878467" lon="8.659625"><ele>156.0</ele><time>2026-03-22T14:23:26.211Z</time></trkpt><trkpt lat="45.4879083" lon="8.65968"><ele>156.0</ele><time>2026-03-22T14:23:29.211Z</time></trkpt><trkpt lat="45.4879817" lon="8.6597233"><ele>156.0</ele><time>2026-03-22T14:23:58.211Z</time></trkpt><trkpt lat="45.48805" lon="8.6597267"><ele>156.0</ele><time>2026-03-22T14:23:59.211Z</time></trkpt><trkpt lat="45.4881233" lon="8.6597283"><ele>156.0</ele><time>2026-03-22T14:24:00.211Z</time></trkpt><trkpt lat="45.4882067" lon="8.6597267"><ele>156.0</ele><time>2026-03-22T14:24:01.211Z</time></trkpt><trkpt lat="45.488305" lon="8.65973"><ele>156.0</ele><time>2026-03-22T14:24:02.211Z</time></trkpt><trkpt lat="45.4884233" lon="8.659735"><ele>156.0</ele><time>2026-03-22T14:24:03.211Z</time></trkpt><trkpt lat="45.488555" lon="8.6597383"><ele>156.0</ele><time>2026-03-22T14:24:04.211Z</time></trkpt><trkpt lat="45.4886867" lon="8.6597317"><ele>156.0</ele><time>2026-03-22T14:24:05.211Z</time></trkpt><trkpt lat="45.4888033" lon="8.6596917"><ele>156.0</ele><time>2026-03-22T14:24:06.211Z</time></trkpt><trkpt lat="45.4889267" lon="8.65964"><ele>156.0</ele><time>2026-03-22T14:24:07.211Z</time></trkpt><trkpt lat="45.4890567" lon="8.65958"><ele>155.66666666666666</ele><time>2026-03-22T14:24:08.21Z</time></trkpt><trkpt lat="45.4891917" lon="8.659515"><ele>155.33333333333331</ele><time>2026-03-22T14:24:09.21Z</time></trkpt><trkpt lat="45.48933" lon="8.6594533"><ele>155.0</ele><time>2026-03-22T14:24:10.21Z</time></trkpt><trkpt lat="45.4894933" lon="8.6593933"><ele>155.66666666666666</ele><time>2026-03-22T14:24:11.21Z</time></trkpt><trkpt lat="45.48966" lon="8.6593383"><ele>156.33333333333334</ele><time>2026-03-22T14:24:12.21Z</time></trkpt><trkpt lat="45.4898183" lon="8.6592767"><ele>157.0</ele><time>2026-03-22T14:24:13.21Z</time></trkpt><trkpt lat="45.489975" lon="8.65923"><ele>157.0</ele><time>2026-03-22T14:24:14.21Z</time></trkpt><trkpt lat="45.4901267" lon="8.6591883"><ele>157.0</ele><time>2026-03-22T14:24:15.21Z</time></trkpt><trkpt lat="45.4902683" lon="8.6591417"><ele>157.0</ele><time>2026-03-22T14:24:16.21Z</time></trkpt><trkpt lat="45.490405" lon="8.6590933"><ele>157.0</ele><time>2026-03-22T14:24:17.21Z</time></trkpt><trkpt lat="45.4905417" lon="8.6590467"><ele>157.5</ele><time>2026-03-22T14:24:18.21Z</time></trkpt><trkpt lat="45.490685" lon="8.6589983"><ele>158.0</ele><time>2026-03-22T14:24:19.21Z</time></trkpt><trkpt lat="45.4908217" lon="8.65896"><ele>158.5</ele><time>2026-03-22T14:24:20.21Z</time></trkpt><trkpt lat="45.4909567" lon="8.6589083"><ele>159.0</ele><time>2026-03-22T14:24:21.21Z</time></trkpt><trkpt lat="45.4911" lon="8.6588683"><ele>159.0</ele><time>2026-03-22T14:24:22.21Z</time></trkpt><trkpt lat="45.4912417" lon="8.6588267"><ele>159.0</ele><time>2026-03-22T14:24:23.21Z</time></trkpt><trkpt lat="45.4913767" lon="8.6587917"><ele>159.0</ele><time>2026-03-22T14:24:24.21Z</time></trkpt><trkpt lat="45.4915183" lon="8.658755"><ele>159.0</ele><time>2026-03-22T14:24:25.21Z</time></trkpt><trkpt lat="45.4916633" lon="8.6587317"><ele>159.0</ele><time>2026-03-22T14:24:26.21Z</time></trkpt><trkpt lat="45.4918133" lon="8.6587083"><ele>159.0</ele><time>2026-03-22T14:24:27.21Z</time></trkpt><trkpt lat="45.491955" lon="8.65867"><ele>159.0</ele><time>2026-03-22T14:24:28.21Z</time></trkpt><trkpt lat="45.4920967" lon="8.6586317"><ele>159.0</ele><time>2026-03-22T14:24:29.21Z</time></trkpt><trkpt lat="45.4922317" lon="8.658595"><ele>158.66666666666666</ele><time>2026-03-22T14:24:30.21Z</time></trkpt><trkpt lat="45.49238" lon="8.6585683"><ele>158.33333333333331</ele><time>2026-03-22T14:24:31.21Z</time></trkpt><trkpt lat="45.49253" lon="8.6585583"><ele>158.0</ele><time>2026-03-22T14:24:32.21Z</time></trkpt><trkpt lat="45.4926817" lon="8.6585333"><ele>158.0</ele><time>2026-03-22T14:24:33.21Z</time></trkpt><trkpt lat="45.4928333" lon="8.6584967"><ele>158.0</ele><time>2026-03-22T14:24:34.21Z</time></trkpt><trkpt lat="45.4929733" lon="8.6584583"><ele>158.0</ele><time>2026-03-22T14:24:35.21Z</time></trkpt><trkpt lat="45.4931217" lon="8.65843"><ele>158.0</ele><time>2026-03-22T14:24:36.21Z</time></trkpt><trkpt lat="45.49327" lon="8.658415"><ele>158.66666666666666</ele><time>2026-03-22T14:24:37.21Z</time></trkpt><trkpt lat="45.49342" lon="8.658405"><ele>159.33333333333334</ele><time>2026-03-22T14:24:38.21Z</time></trkpt><trkpt lat="45.493575" lon="8.6584033"><ele>160.0</ele><time>2026-03-22T14:24:39.21Z</time></trkpt><trkpt lat="45.4937383" lon="8.6584133"><ele>160.0</ele><time>2026-03-22T14:24:40.21Z</time></trkpt><trkpt lat="45.4939067" lon="8.6584167"><ele>160.0</ele><time>2026-03-22T14:24:41.21Z</time></trkpt><trkpt lat="45.4940633" lon="8.65842"><ele>160.0</ele><time>2026-03-22T14:24:42.21Z</time></trkpt><trkpt lat="45.49422" lon="8.6584383"><ele>160.0</ele><time>2026-03-22T14:24:43.21Z</time></trkpt><trkpt lat="45.494385" lon="8.6584483"><ele>160.0</ele><time>2026-03-22T14:24:44.21Z</time></trkpt><trkpt lat="45.4945467" lon="8.6584617"><ele>160.0</ele><time>2026-03-22T14:24:45.21Z</time></trkpt><trkpt lat="45.4947133" lon="8.6584667"><ele>160.0</ele><time>2026-03-22T14:24:46.21Z</time></trkpt><trkpt lat="45.4948633" lon="8.6584433"><ele>160.0</ele><time>2026-03-22T14:24:47.21Z</time></trkpt><trkpt lat="45.4950083" lon="8.6584283"><ele>160.0</ele><time>2026-03-22T14:24:48.21Z</time></trkpt><trkpt lat="45.49514" lon="8.6584"><ele>160.0</ele><time>2026-03-22T14:24:49.21Z</time></trkpt><trkpt lat="45.49527" lon="8.6583667"><ele>160.0</ele><time>2026-03-22T14:24:50.21Z</time></trkpt><trkpt lat="45.4953833" lon="8.6583333"><ele>160.0</ele><time>2026-03-22T14:24:51.21Z</time></trkpt><trkpt lat="45.495475" lon="8.6583083"><ele>160.0</ele><time>2026-03-22T14:24:52.21Z</time></trkpt><trkpt lat="45.4955533" lon="8.6582883"><ele>160.0</ele><time>2026-03-22T14:24:53.21Z</time></trkpt><trkpt lat="45.4956233" lon="8.65828"><ele>160.0</ele><time>2026-03-22T14:24:54.21Z</time></trkpt><trkpt lat="45.49572" lon="8.6582733"><ele>160.4</ele><time>2026-03-22T14:24:56.21Z</time></trkpt><trkpt lat="45.49578" lon="8.65831"><ele>160.8</ele><time>2026-03-22T14:24:57.21Z</time></trkpt><trkpt lat="45.495855" lon="8.6583767"><ele>161.2</ele><time>2026-03-22T14:24:58.21Z</time></trkpt><trkpt lat="45.49595" lon="8.6584717"><ele>161.6</ele><time>2026-03-22T14:24:59.21Z</time></trkpt><trkpt lat="45.4960533" lon="8.6585817"><ele>162.0</ele><time>2026-03-22T14:25:00.21Z</time></trkpt><trkpt lat="45.4961667" lon="8.6586983"><ele>161.66666666666666</ele><time>2026-03-22T14:25:01.21Z</time></trkpt><trkpt lat="45.4962933" lon="8.658805"><ele>161.33333333333331</ele><time>2026-03-22T14:25:02.21Z</time></trkpt><trkpt lat="45.49642" lon="8.6589333"><ele>161.0</ele><time>2026-03-22T14:25:03.21Z</time></trkpt><trkpt lat="45.4965483" lon="8.6590567"><ele>161.0</ele><time>2026-03-22T14:25:04.21Z</time></trkpt><trkpt lat="45.496665" lon="8.6591917"><ele>161.0</ele><time>2026-03-22T14:25:05.21Z</time></trkpt><trkpt lat="45.4967817" lon="8.65931"><ele>161.0</ele><time>2026-03-22T14:25:06.21Z</time></trkpt><trkpt lat="45.4968967" lon="8.6594617"><ele>161.0</ele><time>2026-03-22T14:25:07.21Z</time></trkpt><trkpt lat="45.4970083" lon="8.6595883"><ele>161.0</ele><time>2026-03-22T14:25:08.21Z</time></trkpt><trkpt lat="45.4971183" lon="8.6596883"><ele>161.0</ele><time>2026-03-22T14:25:09.21Z</time></trkpt><trkpt lat="45.4972233" lon="8.6597883"><ele>161.0</ele><time>2026-03-22T14:25:10.21Z</time></trkpt><trkpt lat="45.4973333" lon="8.6599017"><ele>161.0</ele><time>2026-03-22T14:25:11.21Z</time></trkpt><trkpt lat="45.4974517" lon="8.6600183"><ele>161.0</ele><time>2026-03-22T14:25:12.21Z</time></trkpt><trkpt lat="45.4975617" lon="8.660115"><ele>161.0</ele><time>2026-03-22T14:25:13.21Z</time></trkpt><trkpt lat="45.4976683" lon="8.6602167"><ele>161.0</ele><time>2026-03-22T14:25:14.21Z</time></trkpt><trkpt lat="45.4977733" lon="8.6603267"><ele>161.20000000000002</ele><time>2026-03-22T14:25:15.21Z</time></trkpt><trkpt lat="45.4978717" lon="8.6604233"><ele>161.4</ele><time>2026-03-22T14:25:16.21Z</time></trkpt><trkpt lat="45.497965" lon="8.660515"><ele>161.6</ele><time>2026-03-22T14:25:17.21Z</time></trkpt><trkpt lat="45.4980533" lon="8.6606017"><ele>161.8</ele><time>2026-03-22T14:25:18.21Z</time></trkpt><trkpt lat="45.4981367" lon="8.6606817"><ele>162.0</ele><time>2026-03-22T14:25:19.21Z</time></trkpt><trkpt lat="45.4982133" lon="8.6607817"><ele>162.25</ele><time>2026-03-22T14:25:20.21Z</time></trkpt><trkpt lat="45.4982933" lon="8.6609"><ele>162.5</ele><time>2026-03-22T14:25:21.21Z</time></trkpt><trkpt lat="45.4983783" lon="8.6610133"><ele>162.75</ele><time>2026-03-22T14:25:22.21Z</time></trkpt><trkpt lat="45.498465" lon="8.6611217"><ele>163.0</ele><time>2026-03-22T14:25:23.21Z</time></trkpt><trkpt lat="45.4985483" lon="8.66124"><ele>163.0</ele><time>2026-03-22T14:25:24.21Z</time></trkpt><trkpt lat="45.498625" lon="8.6613517"><ele>163.0</ele><time>2026-03-22T14:25:25.21Z</time></trkpt><trkpt lat="45.4986983" lon="8.6614533"><ele>163.0</ele><time>2026-03-22T14:25:26.21Z</time></trkpt><trkpt lat="45.4987583" lon="8.661535"><ele>163.0</ele><time>2026-03-22T14:25:27.21Z</time></trkpt><trkpt lat="45.4988133" lon="8.661595"><ele>163.0</ele><time>2026-03-22T14:25:28.21Z</time></trkpt><trkpt lat="45.498845" lon="8.6616733"><ele>163.0</ele><time>2026-03-22T14:25:29.21Z</time></trkpt><trkpt lat="45.4988167" lon="8.6618867"><ele>162.66666666666669</ele><time>2026-03-22T14:25:31.21Z</time></trkpt><trkpt lat="45.4986967" lon="8.6622"><ele>162.33333333333334</ele><time>2026-03-22T14:25:33.21Z</time></trkpt><trkpt lat="45.49864" lon="8.662375"><ele>162.0</ele><time>2026-03-22T14:25:34.21Z</time></trkpt><trkpt lat="45.4985767" lon="8.6625517"><ele>162.0</ele><time>2026-03-22T14:25:35.21Z</time></trkpt><trkpt lat="45.4985217" lon="8.66274"><ele>162.0</ele><time>2026-03-22T14:25:36.21Z</time></trkpt><trkpt lat="45.4984767" lon="8.6629233"><ele>162.0</ele><time>2026-03-22T14:25:37.21Z</time></trkpt><trkpt lat="45.4984433" lon="8.6631033"><ele>162.0</ele><time>2026-03-22T14:25:38.21Z</time></trkpt><trkpt lat="45.4984233" lon="8.6633017"><ele>162.25</ele><time>2026-03-22T14:25:39.21Z</time></trkpt><trkpt lat="45.4984217" lon="8.6634883"><ele>162.5</ele><time>2026-03-22T14:25:40.21Z</time></trkpt><trkpt lat="45.4984317" lon="8.6636867"><ele>162.75</ele><time>2026-03-22T14:25:41.21Z</time></trkpt><trkpt lat="45.4984483" lon="8.663895"><ele>163.0</ele><time>2026-03-22T14:25:42.21Z</time></trkpt><trkpt lat="45.4984783" lon="8.6641083"><ele>163.0</ele><time>2026-03-22T14:25:43.21Z</time></trkpt><trkpt lat="45.498505" lon="8.6643317"><ele>163.0</ele><time>2026-03-22T14:25:44.21Z</time></trkpt><trkpt lat="45.4984917" lon="8.6645583"><ele>163.0</ele><time>2026-03-22T14:25:45.21Z</time></trkpt><trkpt lat="45.4985167" lon="8.6647817"><ele>163.0</ele><time>2026-03-22T14:25:46.21Z</time></trkpt><trkpt lat="45.49853" lon="8.665005"><ele>163.0</ele><time>2026-03-22T14:25:47.21Z</time></trkpt><trkpt lat="45.4985483" lon="8.6652183"><ele>163.0</ele><time>2026-03-22T14:25:48.21Z</time></trkpt><trkpt lat="45.49856" lon="8.665425"><ele>163.0</ele><time>2026-03-22T14:25:49.21Z</time></trkpt><trkpt lat="45.4985817" lon="8.6656183"><ele>163.0</ele><time>2026-03-22T14:25:50.21Z</time></trkpt><trkpt lat="45.49861" lon="8.6658117"><ele>163.0</ele><time>2026-03-22T14:25:51.21Z</time></trkpt><trkpt lat="45.4986233" lon="8.66601"><ele>163.0</ele><time>2026-03-22T14:25:52.21Z</time></trkpt><trkpt lat="45.49866" lon="8.6662233"><ele>163.0</ele><time>2026-03-22T14:25:53.21Z</time></trkpt><trkpt lat="45.4986833" lon="8.6664333"><ele>163.0</ele><time>2026-03-22T14:25:54.21Z</time></trkpt><trkpt lat="45.498715" lon="8.6670283"><ele>163.0</ele><time>2026-03-22T14:25:57.21Z</time></trkpt><trkpt lat="45.4987417" lon="8.6672017"><ele>163.0</ele><time>2026-03-22T14:25:58.21Z</time></trkpt><trkpt lat="45.49877" lon="8.6673683"><ele>163.0</ele><time>2026-03-22T14:25:59.21Z</time></trkpt><trkpt lat="45.4988067" lon="8.6675217"><ele>163.0</ele><time>2026-03-22T14:26:00.21Z</time></trkpt><trkpt lat="45.4988417" lon="8.6676483"><ele>163.0</ele><time>2026-03-22T14:26:01.21Z</time></trkpt><trkpt lat="45.49888" lon="8.667755"><ele>163.0</ele><time>2026-03-22T14:26:02.21Z</time></trkpt><trkpt lat="45.4989033" lon="8.6679333"><ele>163.0</ele><time>2026-03-22T14:26:04.21Z</time></trkpt><trkpt lat="45.49885" lon="8.6680817"><ele>163.0</ele><time>2026-03-22T14:26:06.21Z</time></trkpt><trkpt lat="45.4986317" lon="8.668245"><ele>163.0</ele><time>2026-03-22T14:26:08.21Z</time></trkpt><trkpt lat="45.4985" lon="8.6683417"><ele>163.0</ele><time>2026-03-22T14:26:09.21Z</time></trkpt><trkpt lat="45.4983717" lon="8.6684483"><ele>163.0</ele><time>2026-03-22T14:26:10.21Z</time></trkpt><trkpt lat="45.4982467" lon="8.6685583"><ele>163.0</ele><time>2026-03-22T14:26:11.21Z</time></trkpt><trkpt lat="45.498105" lon="8.6686683"><ele>163.0</ele><time>2026-03-22T14:26:12.21Z</time></trkpt><trkpt lat="45.49796" lon="8.6687967"><ele>163.0</ele><time>2026-03-22T14:26:13.21Z</time></trkpt><trkpt lat="45.4978183" lon="8.6689183"><ele>163.0</ele><time>2026-03-22T14:26:14.21Z</time></trkpt><trkpt lat="45.4976733" lon="8.6690333"><ele>163.33333333333334</ele><time>2026-03-22T14:26:15.21Z</time></trkpt><trkpt lat="45.4975283" lon="8.66916"><ele>163.66666666666666</ele><time>2026-03-22T14:26:16.21Z</time></trkpt><trkpt lat="45.497385" lon="8.6692833"><ele>164.0</ele><time>2026-03-22T14:26:17.21Z</time></trkpt><trkpt lat="45.4972483" lon="8.66941"><ele>163.66666666666666</ele><time>2026-03-22T14:26:18.21Z</time></trkpt><trkpt lat="45.4971083" lon="8.6695433"><ele>163.33333333333334</ele><time>2026-03-22T14:26:19.21Z</time></trkpt><trkpt lat="45.4969617" lon="8.6696667"><ele>163.0</ele><time>2026-03-22T14:26:20.21Z</time></trkpt><trkpt lat="45.4968167" lon="8.66978"><ele>163.0</ele><time>2026-03-22T14:26:21.21Z</time></trkpt><trkpt lat="45.4966733" lon="8.669905"><ele>163.0</ele><time>2026-03-22T14:26:22.21Z</time></trkpt><trkpt lat="45.4965267" lon="8.6700333"><ele>163.0</ele><time>2026-03-22T14:26:23.21Z</time></trkpt><trkpt lat="45.4963783" lon="8.670155"><ele>162.0</ele><time>2026-03-22T14:26:24.21Z</time></trkpt><trkpt lat="45.4962317" lon="8.6702733"><ele>161.0</ele><time>2026-03-22T14:26:25.21Z</time></trkpt><trkpt lat="45.4960883" lon="8.6703917"><ele>160.0</ele><time>2026-03-22T14:26:26.21Z</time></trkpt><trkpt lat="45.4959417" lon="8.6705117"><ele>160.0</ele><time>2026-03-22T14:26:27.21Z</time></trkpt><trkpt lat="45.4958" lon="8.670635"><ele>160.0</ele><time>2026-03-22T14:26:28.21Z</time></trkpt><trkpt lat="45.4956583" lon="8.6707567"><ele>160.0</ele><time>2026-03-22T14:26:29.21Z</time></trkpt><trkpt lat="45.4955167" lon="8.6708817"><ele>160.0</ele><time>2026-03-22T14:26:30.21Z</time></trkpt><trkpt lat="45.4953767" lon="8.6710033"><ele>160.0</ele><time>2026-03-22T14:26:31.21Z</time></trkpt><trkpt lat="45.4952367" lon="8.6711333"><ele>160.0</ele><time>2026-03-22T14:26:32.21Z</time></trkpt><trkpt lat="45.4950967" lon="8.67125"><ele>160.0</ele><time>2026-03-22T14:26:33.21Z</time></trkpt><trkpt lat="45.4949617" lon="8.6713667"><ele>160.0</ele><time>2026-03-22T14:26:34.21Z</time></trkpt><trkpt lat="45.4948383" lon="8.6714867"><ele>160.0</ele><time>2026-03-22T14:26:35.21Z</time></trkpt><trkpt lat="45.4947133" lon="8.67159"><ele>160.0</ele><time>2026-03-22T14:26:36.211Z</time></trkpt><trkpt lat="45.4945983" lon="8.6716983"><ele>160.0</ele><time>2026-03-22T14:26:37.21Z</time></trkpt><trkpt lat="45.494495" lon="8.6717933"><ele>160.0</ele><time>2026-03-22T14:26:38.21Z</time></trkpt><trkpt lat="45.4944183" lon="8.6718883"><ele>160.0</ele><time>2026-03-22T14:26:39.21Z</time></trkpt><trkpt lat="45.4943633" lon="8.671985"><ele>160.0</ele><time>2026-03-22T14:26:40.21Z</time></trkpt><trkpt lat="45.4943383" lon="8.67208"><ele>160.0</ele><time>2026-03-22T14:26:41.21Z</time></trkpt><trkpt lat="45.4943167" lon="8.6721667"><ele>160.0</ele><time>2026-03-22T14:26:42.21Z</time></trkpt><trkpt lat="45.49424" lon="8.6723083"><ele>160.0</ele><time>2026-03-22T14:26:44.21Z</time></trkpt><trkpt lat="45.4941717" lon="8.6723767"><ele>160.0</ele><time>2026-03-22T14:26:45.21Z</time></trkpt><trkpt lat="45.4940733" lon="8.67245"><ele>160.0</ele><time>2026-03-22T14:26:46.21Z</time></trkpt><trkpt lat="45.49394" lon="8.67251"><ele>160.0</ele><time>2026-03-22T14:26:47.21Z</time></trkpt><trkpt lat="45.4937917" lon="8.6725617"><ele>160.0</ele><time>2026-03-22T14:26:48.21Z</time></trkpt><trkpt lat="45.493635" lon="8.67263"><ele>159.33333333333334</ele><time>2026-03-22T14:26:49.21Z</time></trkpt><trkpt lat="45.4934733" lon="8.67271"><ele>158.66666666666666</ele><time>2026-03-22T14:26:50.21Z</time></trkpt><trkpt lat="45.4933117" lon="8.6728333"><ele>158.0</ele><time>2026-03-22T14:26:51.21Z</time></trkpt><trkpt lat="45.4931417" lon="8.6729867"><ele>158.0</ele><time>2026-03-22T14:26:52.21Z</time></trkpt><trkpt lat="45.4929717" lon="8.673135"><ele>158.0</ele><time>2026-03-22T14:26:53.21Z</time></trkpt><trkpt lat="45.4928033" lon="8.6732933"><ele>158.0</ele><time>2026-03-22T14:26:54.21Z</time></trkpt><trkpt lat="45.4926283" lon="8.673445"><ele>157.66666666666666</ele><time>2026-03-22T14:26:55.21Z</time></trkpt><trkpt lat="45.49246" lon="8.6735917"><ele>157.33333333333334</ele><time>2026-03-22T14:26:56.21Z</time></trkpt><trkpt lat="45.4922867" lon="8.67374"><ele>157.0</ele><time>2026-03-22T14:26:57.21Z</time></trkpt><trkpt lat="45.4921083" lon="8.673875"><ele>157.66666666666669</ele><time>2026-03-22T14:26:58.21Z</time></trkpt><trkpt lat="45.4919367" lon="8.6740233"><ele>158.33333333333334</ele><time>2026-03-22T14:26:59.21Z</time></trkpt><trkpt lat="45.4917667" lon="8.674165"><ele>159.0</ele><time>2026-03-22T14:27:00.21Z</time></trkpt><trkpt lat="45.4916067" lon="8.6743083"><ele>159.33333333333334</ele><time>2026-03-22T14:27:01.21Z</time></trkpt><trkpt lat="45.49144" lon="8.6744517"><ele>159.66666666666669</ele><time>2026-03-22T14:27:02.21Z</time></trkpt><trkpt lat="45.4912717" lon="8.674595"><ele>160.0</ele><time>2026-03-22T14:27:03.21Z</time></trkpt><trkpt lat="45.491105" lon="8.6747383"><ele>159.0</ele><time>2026-03-22T14:27:04.21Z</time></trkpt><trkpt lat="45.4909467" lon="8.6748733"><ele>158.0</ele><time>2026-03-22T14:27:05.21Z</time></trkpt><trkpt lat="45.49078" lon="8.6750167"><ele>157.0</ele><time>2026-03-22T14:27:06.21Z</time></trkpt><trkpt lat="45.4906167" lon="8.67516"><ele>157.0</ele><time>2026-03-22T14:27:07.21Z</time></trkpt><trkpt lat="45.4904517" lon="8.6753017"><ele>157.0</ele><time>2026-03-22T14:27:08.21Z</time></trkpt><trkpt lat="45.4902933" lon="8.675435"><ele>157.0</ele><time>2026-03-22T14:27:09.21Z</time></trkpt><trkpt lat="45.4901383" lon="8.6755683"><ele>157.0</ele><time>2026-03-22T14:27:10.21Z</time></trkpt><trkpt lat="45.4899867" lon="8.67572"><ele>157.0</ele><time>2026-03-22T14:27:11.21Z</time></trkpt><trkpt lat="45.4898383" lon="8.675885"><ele>157.0</ele><time>2026-03-22T14:27:12.21Z</time></trkpt><trkpt lat="45.4897017" lon="8.6760533"><ele>157.0</ele><time>2026-03-22T14:27:13.21Z</time></trkpt><trkpt lat="45.4895767" lon="8.6762233"><ele>157.0</ele><time>2026-03-22T14:27:14.21Z</time></trkpt><trkpt lat="45.4892617" lon="8.6767067"><ele>157.0</ele><time>2026-03-22T14:27:17.21Z</time></trkpt><trkpt lat="45.48916" lon="8.676865"><ele>157.0</ele><time>2026-03-22T14:27:18.21Z</time></trkpt><trkpt lat="45.4890567" lon="8.6770183"><ele>157.0</ele><time>2026-03-22T14:27:19.21Z</time></trkpt><trkpt lat="45.4889617" lon="8.677175"><ele>157.0</ele><time>2026-03-22T14:27:20.21Z</time></trkpt><trkpt lat="45.4888683" lon="8.6773333"><ele>156.75</ele><time>2026-03-22T14:27:21.21Z</time></trkpt><trkpt lat="45.48877" lon="8.6774817"><ele>156.5</ele><time>2026-03-22T14:27:22.21Z</time></trkpt><trkpt lat="45.4886767" lon="8.6776233"><ele>156.25</ele><time>2026-03-22T14:27:23.21Z</time></trkpt><trkpt lat="45.4885817" lon="8.6777617"><ele>156.0</ele><time>2026-03-22T14:27:24.21Z</time></trkpt><trkpt lat="45.4884867" lon="8.677905"><ele>156.5</ele><time>2026-03-22T14:27:25.21Z</time></trkpt><trkpt lat="45.4883967" lon="8.67804"><ele>157.0</ele><time>2026-03-22T14:27:26.21Z</time></trkpt><trkpt lat="45.48831" lon="8.6781833"><ele>157.5</ele><time>2026-03-22T14:27:27.21Z</time></trkpt><trkpt lat="45.4882167" lon="8.6783283"><ele>158.0</ele><time>2026-03-22T14:27:28.21Z</time></trkpt><trkpt lat="45.4881333" lon="8.6784617"><ele>158.0</ele><time>2026-03-22T14:27:29.21Z</time></trkpt><trkpt lat="45.4880533" lon="8.6785983"><ele>158.0</ele><time>2026-03-22T14:27:30.21Z</time></trkpt><trkpt lat="45.48799" lon="8.6787217"><ele>158.0</ele><time>2026-03-22T14:27:31.21Z</time></trkpt><trkpt lat="45.4879267" lon="8.6788417"><ele>158.0</ele><time>2026-03-22T14:27:32.21Z</time></trkpt><trkpt lat="45.4878633" lon="8.6789333"><ele>158.0</ele><time>2026-03-22T14:27:33.21Z</time></trkpt><trkpt lat="45.4877967" lon="8.6790317"><ele>158.0</ele><time>2026-03-22T14:27:34.21Z</time></trkpt><trkpt lat="45.4877333" lon="8.6791367"><ele>158.0</ele><time>2026-03-22T14:27:35.21Z</time></trkpt><trkpt lat="45.48766" lon="8.6792433"><ele>158.0</ele><time>2026-03-22T14:27:36.21Z</time></trkpt><trkpt lat="45.4875817" lon="8.6793717"><ele>158.0</ele><time>2026-03-22T14:27:37.21Z</time></trkpt><trkpt lat="45.4874967" lon="8.679505"><ele>158.0</ele><time>2026-03-22T14:27:38.21Z</time></trkpt><trkpt lat="45.4874017" lon="8.67965"><ele>157.5</ele><time>2026-03-22T14:27:39.21Z</time></trkpt><trkpt lat="45.4873167" lon="8.679805"><ele>157.0</ele><time>2026-03-22T14:27:40.21Z</time></trkpt><trkpt lat="45.4872217" lon="8.6799567"><ele>156.5</ele><time>2026-03-22T14:27:41.21Z</time></trkpt><trkpt lat="45.4871183" lon="8.6801133"><ele>156.0</ele><time>2026-03-22T14:27:42.21Z</time></trkpt><trkpt lat="45.48701" lon="8.68027"><ele>156.0</ele><time>2026-03-22T14:27:43.21Z</time></trkpt><trkpt lat="45.4869033" lon="8.6804317"><ele>156.0</ele><time>2026-03-22T14:27:44.21Z</time></trkpt><trkpt lat="45.486795" lon="8.680595"><ele>156.0</ele><time>2026-03-22T14:27:45.21Z</time></trkpt><trkpt lat="45.4866967" lon="8.68076"><ele>156.0</ele><time>2026-03-22T14:27:46.21Z</time></trkpt><trkpt lat="45.4865917" lon="8.6809333"><ele>156.0</ele><time>2026-03-22T14:27:47.21Z</time></trkpt><trkpt lat="45.4864817" lon="8.681105"><ele>156.0</ele><time>2026-03-22T14:27:48.21Z</time></trkpt><trkpt lat="45.48637" lon="8.6812817"><ele>155.5</ele><time>2026-03-22T14:27:49.21Z</time></trkpt><trkpt lat="45.4861367" lon="8.6816383"><ele>155.0</ele><time>2026-03-22T14:27:51.21Z</time></trkpt><trkpt lat="45.48591" lon="8.6819967"><ele>155.0</ele><time>2026-03-22T14:27:53.21Z</time></trkpt><trkpt lat="45.485795" lon="8.68217"><ele>155.0</ele><time>2026-03-22T14:27:54.21Z</time></trkpt><trkpt lat="45.4856817" lon="8.6823417"><ele>155.0</ele><time>2026-03-22T14:27:55.21Z</time></trkpt><trkpt lat="45.485565" lon="8.6825233"><ele>155.0</ele><time>2026-03-22T14:27:56.21Z</time></trkpt><trkpt lat="45.485445" lon="8.6827033"><ele>155.0</ele><time>2026-03-22T14:27:57.21Z</time></trkpt><trkpt lat="45.485335" lon="8.6828833"><ele>155.0</ele><time>2026-03-22T14:27:58.21Z</time></trkpt><trkpt lat="45.48523" lon="8.683065"><ele>154.66666666666666</ele><time>2026-03-22T14:27:59.21Z</time></trkpt><trkpt lat="45.4851217" lon="8.683245"><ele>154.33333333333334</ele><time>2026-03-22T14:28:00.21Z</time></trkpt><trkpt lat="45.4850133" lon="8.6834183"><ele>154.0</ele><time>2026-03-22T14:28:01.21Z</time></trkpt><trkpt lat="45.4849067" lon="8.68359"><ele>154.33333333333334</ele><time>2026-03-22T14:28:02.21Z</time></trkpt><trkpt lat="45.4848017" lon="8.6837433"><ele>154.66666666666666</ele><time>2026-03-22T14:28:03.21Z</time></trkpt><trkpt lat="45.4846133" lon="8.68405"><ele>155.0</ele><time>2026-03-22T14:28:05.21Z</time></trkpt><trkpt lat="45.4845117" lon="8.6842033"><ele>155.0</ele><time>2026-03-22T14:28:06.21Z</time></trkpt><trkpt lat="45.4844133" lon="8.6843617"><ele>155.0</ele><time>2026-03-22T14:28:07.21Z</time></trkpt><trkpt lat="45.484315" lon="8.6845183"><ele>155.0</ele><time>2026-03-22T14:28:08.21Z</time></trkpt><trkpt lat="45.4842217" lon="8.6846867"><ele>155.0</ele><time>2026-03-22T14:28:09.21Z</time></trkpt><trkpt lat="45.4841183" lon="8.6848517"><ele>155.0</ele><time>2026-03-22T14:28:10.21Z</time></trkpt><trkpt lat="45.484005" lon="8.6850117"><ele>155.0</ele><time>2026-03-22T14:28:11.21Z</time></trkpt><trkpt lat="45.4838983" lon="8.68518"><ele>155.0</ele><time>2026-03-22T14:28:12.21Z</time></trkpt><trkpt lat="45.4837917" lon="8.6853517"><ele>155.25</ele><time>2026-03-22T14:28:13.21Z</time></trkpt><trkpt lat="45.4836883" lon="8.6855167"><ele>155.5</ele><time>2026-03-22T14:28:14.21Z</time></trkpt><trkpt lat="45.4835967" lon="8.685675"><ele>155.75</ele><time>2026-03-22T14:28:15.21Z</time></trkpt><trkpt lat="45.4835033" lon="8.685825"><ele>156.0</ele><time>2026-03-22T14:28:16.21Z</time></trkpt><trkpt lat="45.483405" lon="8.6859667"><ele>155.5</ele><time>2026-03-22T14:28:17.21Z</time></trkpt><trkpt lat="45.4833133" lon="8.6861133"><ele>155.0</ele><time>2026-03-22T14:28:18.21Z</time></trkpt><trkpt lat="45.4832217" lon="8.6862583"><ele>154.5</ele><time>2026-03-22T14:28:19.21Z</time></trkpt><trkpt lat="45.4831417" lon="8.686405"><ele>154.0</ele><time>2026-03-22T14:28:20.21Z</time></trkpt><trkpt lat="45.4830583" lon="8.6865567"><ele>154.0</ele><time>2026-03-22T14:28:21.21Z</time></trkpt><trkpt lat="45.4829667" lon="8.686715"><ele>154.0</ele><time>2026-03-22T14:28:22.209Z</time></trkpt><trkpt lat="45.4828733" lon="8.686855"><ele>154.0</ele><time>2026-03-22T14:28:23.209Z</time></trkpt><trkpt lat="45.482785" lon="8.6869933"><ele>154.0</ele><time>2026-03-22T14:28:24.209Z</time></trkpt><trkpt lat="45.4827033" lon="8.6871233"><ele>154.0</ele><time>2026-03-22T14:28:25.209Z</time></trkpt><trkpt lat="45.4826217" lon="8.6872433"><ele>154.0</ele><time>2026-03-22T14:28:26.209Z</time></trkpt><trkpt lat="45.4825417" lon="8.6873633"><ele>154.0</ele><time>2026-03-22T14:28:27.209Z</time></trkpt><trkpt lat="45.4824483" lon="8.6874817"><ele>154.0</ele><time>2026-03-22T14:28:28.209Z</time></trkpt><trkpt lat="45.48236" lon="8.6876117"><ele>154.0</ele><time>2026-03-22T14:28:29.209Z</time></trkpt><trkpt lat="45.4822733" lon="8.6877517"><ele>154.0</ele><time>2026-03-22T14:28:30.209Z</time></trkpt><trkpt lat="45.4821867" lon="8.6878967"><ele>154.0</ele><time>2026-03-22T14:28:31.209Z</time></trkpt><trkpt lat="45.482095" lon="8.68804"><ele>154.0</ele><time>2026-03-22T14:28:32.209Z</time></trkpt><trkpt lat="45.4820117" lon="8.6881883"><ele>154.0</ele><time>2026-03-22T14:28:33.209Z</time></trkpt><trkpt lat="45.4819133" lon="8.6883417"><ele>154.0</ele><time>2026-03-22T14:28:34.209Z</time></trkpt><trkpt lat="45.48181" lon="8.6884833"><ele>154.0</ele><time>2026-03-22T14:28:35.209Z</time></trkpt><trkpt lat="45.4817133" lon="8.6886283"><ele>154.0</ele><time>2026-03-22T14:28:36.209Z</time></trkpt><trkpt lat="45.48162" lon="8.6887783"><ele>154.0</ele><time>2026-03-22T14:28:37.209Z</time></trkpt><trkpt lat="45.4815233" lon="8.6889233"><ele>154.0</ele><time>2026-03-22T14:28:38.209Z</time></trkpt><trkpt lat="45.48143" lon="8.6890633"><ele>154.0</ele><time>2026-03-22T14:28:39.209Z</time></trkpt><trkpt lat="45.4813483" lon="8.6892083"><ele>154.0</ele><time>2026-03-22T14:28:40.209Z</time></trkpt><trkpt lat="45.4812567" lon="8.689345"><ele>154.2</ele><time>2026-03-22T14:28:41.209Z</time></trkpt><trkpt lat="45.4811717" lon="8.68948"><ele>154.4</ele><time>2026-03-22T14:28:42.209Z</time></trkpt><trkpt lat="45.4810983" lon="8.689605"><ele>154.6</ele><time>2026-03-22T14:28:43.209Z</time></trkpt><trkpt lat="45.481035" lon="8.68971"><ele>154.8</ele><time>2026-03-22T14:28:44.209Z</time></trkpt><trkpt lat="45.4809733" lon="8.6897983"><ele>155.0</ele><time>2026-03-22T14:28:45.209Z</time></trkpt><trkpt lat="45.48093" lon="8.689875"><ele>155.0</ele><time>2026-03-22T14:28:46.209Z</time></trkpt><trkpt lat="45.4808783" lon="8.68993"><ele>155.0</ele><time>2026-03-22T14:28:47.209Z</time></trkpt><trkpt lat="45.4808083" lon="8.690055"><ele>155.0</ele><time>2026-03-22T14:28:49.209Z</time></trkpt><trkpt lat="45.480775" lon="8.6902217"><ele>155.0</ele><time>2026-03-22T14:28:51.209Z</time></trkpt><trkpt lat="45.4808017" lon="8.69034"><ele>155.0</ele><time>2026-03-22T14:28:52.209Z</time></trkpt><trkpt lat="45.48084" lon="8.6904733"><ele>155.5</ele><time>2026-03-22T14:28:53.209Z</time></trkpt><trkpt lat="45.4808867" lon="8.6906233"><ele>156.0</ele><time>2026-03-22T14:28:54.209Z</time></trkpt><trkpt lat="45.4809267" lon="8.6907783"><ele>156.5</ele><time>2026-03-22T14:28:55.209Z</time></trkpt><trkpt lat="45.48099" lon="8.6910483"><ele>157.0</ele><time>2026-03-22T14:28:57.209Z</time></trkpt><trkpt lat="45.481005" lon="8.6911783"><ele>157.0</ele><time>2026-03-22T14:28:58.209Z</time></trkpt><trkpt lat="45.480995" lon="8.691345"><ele>157.0</ele><time>2026-03-22T14:28:59.209Z</time></trkpt><trkpt lat="45.481005" lon="8.69154"><ele>157.0</ele><time>2026-03-22T14:29:00.209Z</time></trkpt><trkpt lat="45.48103" lon="8.69173"><ele>157.0</ele><time>2026-03-22T14:29:01.209Z</time></trkpt><trkpt lat="45.481065" lon="8.6919133"><ele>156.79999999999998</ele><time>2026-03-22T14:29:02.209Z</time></trkpt><trkpt lat="45.4811017" lon="8.6920833"><ele>156.6</ele><time>2026-03-22T14:29:03.209Z</time></trkpt><trkpt lat="45.4811317" lon="8.6922417"><ele>156.39999999999998</ele><time>2026-03-22T14:29:04.209Z</time></trkpt><trkpt lat="45.4811783" lon="8.69238"><ele>156.2</ele><time>2026-03-22T14:29:05.209Z</time></trkpt><trkpt lat="45.481215" lon="8.6925083"><ele>156.0</ele><time>2026-03-22T14:29:06.209Z</time></trkpt><trkpt lat="45.4812483" lon="8.6926333"><ele>155.66666666666666</ele><time>2026-03-22T14:29:07.209Z</time></trkpt><trkpt lat="45.4812683" lon="8.69276"><ele>155.33333333333334</ele><time>2026-03-22T14:29:08.209Z</time></trkpt><trkpt lat="45.48129" lon="8.69288"><ele>155.0</ele><time>2026-03-22T14:29:09.209Z</time></trkpt><trkpt lat="45.4813217" lon="8.6929883"><ele>154.66666666666669</ele><time>2026-03-22T14:29:10.209Z</time></trkpt><trkpt lat="45.48136" lon="8.6930917"><ele>154.33333333333334</ele><time>2026-03-22T14:29:11.209Z</time></trkpt><trkpt lat="45.4813917" lon="8.6931967"><ele>154.0</ele><time>2026-03-22T14:29:12.209Z</time></trkpt><trkpt lat="45.4814533" lon="8.6934017"><ele>154.0</ele><time>2026-03-22T14:29:14.209Z</time></trkpt><trkpt lat="45.4815" lon="8.69355"><ele>154.0</ele><time>2026-03-22T14:29:16.209Z</time></trkpt><trkpt lat="45.4815433" lon="8.6936167"><ele>154.0</ele><time>2026-03-22T14:29:17.209Z</time></trkpt><trkpt lat="45.4815867" lon="8.6936933"><ele>154.0</ele><time>2026-03-22T14:29:18.209Z</time></trkpt><trkpt lat="45.4816367" lon="8.69376"><ele>154.0</ele><time>2026-03-22T14:29:19.209Z</time></trkpt><trkpt lat="45.4816883" lon="8.6938167"><ele>154.0</ele><time>2026-03-22T14:29:20.209Z</time></trkpt><trkpt lat="45.4817783" lon="8.6938983"><ele>153.8</ele><time>2026-03-22T14:29:22.209Z</time></trkpt><trkpt lat="45.4818683" lon="8.6940417"><ele>153.60000000000002</ele><time>2026-03-22T14:29:24.209Z</time></trkpt><trkpt lat="45.4819117" lon="8.6941567"><ele>153.4</ele><time>2026-03-22T14:29:25.209Z</time></trkpt><trkpt lat="45.481945" lon="8.694285"><ele>153.20000000000002</ele><time>2026-03-22T14:29:26.209Z</time></trkpt><trkpt lat="45.48198" lon="8.69442"><ele>153.0</ele><time>2026-03-22T14:29:27.209Z</time></trkpt><trkpt lat="45.4820117" lon="8.6945533"><ele>153.4</ele><time>2026-03-22T14:29:28.209Z</time></trkpt><trkpt lat="45.4820417" lon="8.6946817"><ele>153.8</ele><time>2026-03-22T14:29:29.209Z</time></trkpt><trkpt lat="45.4820733" lon="8.6948067"><ele>154.2</ele><time>2026-03-22T14:29:30.209Z</time></trkpt><trkpt lat="45.4821" lon="8.6949317"><ele>154.6</ele><time>2026-03-22T14:29:31.209Z</time></trkpt><trkpt lat="45.4821383" lon="8.6950433"><ele>155.0</ele><time>2026-03-22T14:29:32.209Z</time></trkpt><trkpt lat="45.4821683" lon="8.6951633"><ele>154.83333333333331</ele><time>2026-03-22T14:29:33.209Z</time></trkpt><trkpt lat="45.4822067" lon="8.6952767"><ele>154.66666666666666</ele><time>2026-03-22T14:29:34.209Z</time></trkpt><trkpt lat="45.4822417" lon="8.6953867"><ele>154.5</ele><time>2026-03-22T14:29:35.209Z</time></trkpt><trkpt lat="45.482275" lon="8.6954917"><ele>154.33333333333334</ele><time>2026-03-22T14:29:36.209Z</time></trkpt><trkpt lat="45.48231" lon="8.6955933"><ele>154.16666666666669</ele><time>2026-03-22T14:29:37.209Z</time></trkpt><trkpt lat="45.48235" lon="8.6956983"><ele>154.0</ele><time>2026-03-22T14:29:38.209Z</time></trkpt><trkpt lat="45.4823883" lon="8.6958"><ele>154.0</ele><time>2026-03-22T14:29:39.209Z</time></trkpt><trkpt lat="45.4824283" lon="8.695905"><ele>154.0</ele><time>2026-03-22T14:29:40.209Z</time></trkpt><trkpt lat="45.4824667" lon="8.6959967"><ele>154.0</ele><time>2026-03-22T14:29:41.209Z</time></trkpt><trkpt lat="45.4825117" lon="8.6960783"><ele>154.0</ele><time>2026-03-22T14:29:42.209Z</time></trkpt><trkpt lat="45.4825467" lon="8.6961583"><ele>154.0</ele><time>2026-03-22T14:29:43.209Z</time></trkpt><trkpt lat="45.4825817" lon="8.6962333"><ele>154.0</ele><time>2026-03-22T14:29:44.209Z</time></trkpt><trkpt lat="45.48264" lon="8.6963567"><ele>154.0</ele><time>2026-03-22T14:29:46.209Z</time></trkpt><trkpt lat="45.482695" lon="8.6964517"><ele>154.0</ele><time>2026-03-22T14:29:48.209Z</time></trkpt><trkpt lat="45.4827383" lon="8.69657"><ele>154.0</ele><time>2026-03-22T14:29:51.209Z</time></trkpt><trkpt lat="45.4827933" lon="8.6966633"><ele>154.0</ele><time>2026-03-22T14:29:53.209Z</time></trkpt><trkpt lat="45.482865" lon="8.696745"><ele>154.0</ele><time>2026-03-22T14:29:55.209Z</time></trkpt><trkpt lat="45.4829283" lon="8.69676"><ele>154.0</ele><time>2026-03-22T14:29:57.209Z</time></trkpt><trkpt lat="45.4829633" lon="8.69667"><ele>154.0</ele><time>2026-03-22T14:29:59.209Z</time></trkpt><trkpt lat="45.4828967" lon="8.69651"><ele>154.0</ele><time>2026-03-22T14:30:01.209Z</time></trkpt><trkpt lat="45.4828517" lon="8.696415"><ele>154.0</ele><time>2026-03-22T14:30:02.209Z</time></trkpt><trkpt lat="45.4828017" lon="8.6962933"><ele>154.0</ele><time>2026-03-22T14:30:03.209Z</time></trkpt><trkpt lat="45.4827483" lon="8.6961583"><ele>154.0</ele><time>2026-03-22T14:30:04.209Z</time></trkpt><trkpt lat="45.4826833" lon="8.6960033"><ele>154.0</ele><time>2026-03-22T14:30:05.21Z</time></trkpt><trkpt lat="45.4826067" lon="8.6958617"><ele>154.0</ele><time>2026-03-22T14:30:06.209Z</time></trkpt><trkpt lat="45.4825533" lon="8.6957167"><ele>154.0</ele><time>2026-03-22T14:30:07.209Z</time></trkpt><trkpt lat="45.4825" lon="8.6955667"><ele>154.0</ele><time>2026-03-22T14:30:08.209Z</time></trkpt><trkpt lat="45.4824533" lon="8.6954133"><ele>154.0</ele><time>2026-03-22T14:30:09.209Z</time></trkpt><trkpt lat="45.4824033" lon="8.6952617"><ele>154.0</ele><time>2026-03-22T14:30:10.209Z</time></trkpt><trkpt lat="45.4823483" lon="8.6951233"><ele>154.0</ele><time>2026-03-22T14:30:11.209Z</time></trkpt><trkpt lat="45.4823083" lon="8.6949667"><ele>154.0</ele><time>2026-03-22T14:30:12.209Z</time></trkpt><trkpt lat="45.48225" lon="8.6948117"><ele>154.4</ele><time>2026-03-22T14:30:13.209Z</time></trkpt><trkpt lat="45.48221" lon="8.69465"><ele>154.8</ele><time>2026-03-22T14:30:14.209Z</time></trkpt><trkpt lat="45.4821783" lon="8.69449"><ele>155.2</ele><time>2026-03-22T14:30:15.209Z</time></trkpt><trkpt lat="45.4821467" lon="8.6943483"><ele>155.6</ele><time>2026-03-22T14:30:16.209Z</time></trkpt><trkpt lat="45.48213" lon="8.6942433"><ele>156.0</ele><time>2026-03-22T14:30:17.209Z</time></trkpt><trkpt lat="45.4821767" lon="8.6941217"><ele>156.0</ele><time>2026-03-22T14:30:19.209Z</time></trkpt><trkpt lat="45.482285" lon="8.69406"><ele>156.0</ele><time>2026-03-22T14:30:21.209Z</time></trkpt><trkpt lat="45.4823717" lon="8.694025"><ele>156.0</ele><time>2026-03-22T14:30:22.209Z</time></trkpt><trkpt lat="45.4824667" lon="8.693985"><ele>156.0</ele><time>2026-03-22T14:30:23.209Z</time></trkpt><trkpt lat="45.48258" lon="8.6939567"><ele>156.0</ele><time>2026-03-22T14:30:24.209Z</time></trkpt><trkpt lat="45.482725" lon="8.6939267"><ele>156.0</ele><time>2026-03-22T14:30:25.209Z</time></trkpt><trkpt lat="45.48287" lon="8.693885"><ele>156.0</ele><time>2026-03-22T14:30:26.209Z</time></trkpt><trkpt lat="45.4830133" lon="8.6938133"><ele>156.0</ele><time>2026-03-22T14:30:27.209Z</time></trkpt><trkpt lat="45.4831517" lon="8.6937583"><ele>156.0</ele><time>2026-03-22T14:30:28.209Z</time></trkpt><trkpt lat="45.4832983" lon="8.6937"><ele>155.33333333333334</ele><time>2026-03-22T14:30:29.209Z</time></trkpt><trkpt lat="45.4834333" lon="8.6936433"><ele>154.66666666666669</ele><time>2026-03-22T14:30:30.209Z</time></trkpt><trkpt lat="45.48358" lon="8.6935933"><ele>154.0</ele><time>2026-03-22T14:30:31.209Z</time></trkpt><trkpt lat="45.4837317" lon="8.6935133"><ele>154.33333333333334</ele><time>2026-03-22T14:30:32.209Z</time></trkpt><trkpt lat="45.48389" lon="8.6934667"><ele>154.66666666666666</ele><time>2026-03-22T14:30:33.209Z</time></trkpt><trkpt lat="45.4840417" lon="8.6934183"><ele>155.0</ele><time>2026-03-22T14:30:34.209Z</time></trkpt><trkpt lat="45.4842033" lon="8.6933617"><ele>155.0</ele><time>2026-03-22T14:30:35.209Z</time></trkpt><trkpt lat="45.48435" lon="8.6933033"><ele>155.0</ele><time>2026-03-22T14:30:36.209Z</time></trkpt><trkpt lat="45.4844883" lon="8.69325"><ele>155.0</ele><time>2026-03-22T14:30:37.209Z</time></trkpt><trkpt lat="45.48461" lon="8.6932"><ele>155.0</ele><time>2026-03-22T14:30:38.209Z</time></trkpt><trkpt lat="45.48471" lon="8.6931617"><ele>154.8</ele><time>2026-03-22T14:30:39.209Z</time></trkpt><trkpt lat="45.4847917" lon="8.693135"><ele>154.6</ele><time>2026-03-22T14:30:40.209Z</time></trkpt><trkpt lat="45.4848583" lon="8.6931267"><ele>154.4</ele><time>2026-03-22T14:30:41.209Z</time></trkpt><trkpt lat="45.4850033" lon="8.6930933"><ele>154.2</ele><time>2026-03-22T14:30:43.209Z</time></trkpt><trkpt lat="45.48511" lon="8.69307"><ele>154.0</ele><time>2026-03-22T14:30:44.209Z</time></trkpt><trkpt lat="45.4852383" lon="8.6930483"><ele>154.0</ele><time>2026-03-22T14:30:45.209Z</time></trkpt><trkpt lat="45.48537" lon="8.693025"><ele>154.0</ele><time>2026-03-22T14:30:46.209Z</time></trkpt><trkpt lat="45.4855017" lon="8.6929767"><ele>154.0</ele><time>2026-03-22T14:30:47.209Z</time></trkpt><trkpt lat="45.4856283" lon="8.6929367"><ele>154.0</ele><time>2026-03-22T14:30:48.209Z</time></trkpt><trkpt lat="45.4857467" lon="8.692895"><ele>154.0</ele><time>2026-03-22T14:30:49.209Z</time></trkpt><trkpt lat="45.4858733" lon="8.692845"><ele>154.0</ele><time>2026-03-22T14:30:50.209Z</time></trkpt><trkpt lat="45.4860017" lon="8.6927883"><ele>154.0</ele><time>2026-03-22T14:30:51.209Z</time></trkpt><trkpt lat="45.486125" lon="8.6927267"><ele>154.0</ele><time>2026-03-22T14:30:52.209Z</time></trkpt><trkpt lat="45.4862483" lon="8.69268"><ele>154.25</ele><time>2026-03-22T14:30:53.209Z</time></trkpt><trkpt lat="45.4863683" lon="8.6926333"><ele>154.5</ele><time>2026-03-22T14:30:54.209Z</time></trkpt><trkpt lat="45.4864783" lon="8.6925917"><ele>154.75</ele><time>2026-03-22T14:30:55.209Z</time></trkpt><trkpt lat="45.486585" lon="8.6925467"><ele>155.0</ele><time>2026-03-22T14:30:56.209Z</time></trkpt><trkpt lat="45.4866817" lon="8.6925"><ele>155.0</ele><time>2026-03-22T14:30:57.209Z</time></trkpt><trkpt lat="45.4868517" lon="8.6924267"><ele>155.0</ele><time>2026-03-22T14:30:59.209Z</time></trkpt><trkpt lat="45.48692" lon="8.692385"><ele>155.0</ele><time>2026-03-22T14:31:00.209Z</time></trkpt><trkpt lat="45.4869833" lon="8.6923483"><ele>155.0</ele><time>2026-03-22T14:31:01.209Z</time></trkpt><trkpt lat="45.4870417" lon="8.6922733"><ele>155.0</ele><time>2026-03-22T14:31:02.209Z</time></trkpt><trkpt lat="45.4870917" lon="8.6922017"><ele>155.0</ele><time>2026-03-22T14:31:03.209Z</time></trkpt><trkpt lat="45.4872133" lon="8.6921283"><ele>155.0</ele><time>2026-03-22T14:31:05.209Z</time></trkpt><trkpt lat="45.4873983" lon="8.6921133"><ele>155.0</ele><time>2026-03-22T14:31:07.209Z</time></trkpt><trkpt lat="45.4875017" lon="8.692105"><ele>155.0</ele><time>2026-03-22T14:31:08.209Z</time></trkpt><trkpt lat="45.487595" lon="8.6920583"><ele>155.0</ele><time>2026-03-22T14:31:09.209Z</time></trkpt><trkpt lat="45.4877033" lon="8.691995"><ele>155.0</ele><time>2026-03-22T14:31:10.209Z</time></trkpt><trkpt lat="45.48794" lon="8.691845"><ele>155.0</ele><time>2026-03-22T14:31:12.209Z</time></trkpt><trkpt lat="45.4880617" lon="8.6917667"><ele>155.66666666666666</ele><time>2026-03-22T14:31:13.209Z</time></trkpt><trkpt lat="45.4881767" lon="8.6916783"><ele>156.33333333333334</ele><time>2026-03-22T14:31:14.209Z</time></trkpt><trkpt lat="45.488305" lon="8.6916083"><ele>157.0</ele><time>2026-03-22T14:31:15.209Z</time></trkpt><trkpt lat="45.488555" lon="8.6914533"><ele>157.0</ele><time>2026-03-22T14:31:17.209Z</time></trkpt><trkpt lat="45.4887967" lon="8.6913033"><ele>157.0</ele><time>2026-03-22T14:31:19.209Z</time></trkpt><trkpt lat="45.4889333" lon="8.6912433"><ele>157.0</ele><time>2026-03-22T14:31:20.209Z</time></trkpt><trkpt lat="45.4890717" lon="8.69119"><ele>157.0</ele><time>2026-03-22T14:31:21.209Z</time></trkpt><trkpt lat="45.4892133" lon="8.6911433"><ele>157.0</ele><time>2026-03-22T14:31:22.21Z</time></trkpt><trkpt lat="45.4893567" lon="8.69109"><ele>157.0</ele><time>2026-03-22T14:31:23.209Z</time></trkpt><trkpt lat="45.4894933" lon="8.69103"><ele>157.0</ele><time>2026-03-22T14:31:24.209Z</time></trkpt><trkpt lat="45.48963" lon="8.690975"><ele>156.75</ele><time>2026-03-22T14:31:25.209Z</time></trkpt><trkpt lat="45.4897683" lon="8.6909183"><ele>156.5</ele><time>2026-03-22T14:31:26.209Z</time></trkpt><trkpt lat="45.4899017" lon="8.6908733"><ele>156.25</ele><time>2026-03-22T14:31:27.209Z</time></trkpt><trkpt lat="45.49003" lon="8.6908417"><ele>156.0</ele><time>2026-03-22T14:31:28.209Z</time></trkpt><trkpt lat="45.4901567" lon="8.6908133"><ele>156.0</ele><time>2026-03-22T14:31:29.209Z</time></trkpt><trkpt lat="45.4902833" lon="8.6907833"><ele>156.0</ele><time>2026-03-22T14:31:30.209Z</time></trkpt><trkpt lat="45.4904133" lon="8.69074"><ele>156.0</ele><time>2026-03-22T14:31:31.209Z</time></trkpt><trkpt lat="45.4905467" lon="8.69068"><ele>156.0</ele><time>2026-03-22T14:31:32.209Z</time></trkpt><trkpt lat="45.4906783" lon="8.6906233"><ele>156.5</ele><time>2026-03-22T14:31:33.209Z</time></trkpt><trkpt lat="45.490795" lon="8.6905817"><ele>157.0</ele><time>2026-03-22T14:31:34.209Z</time></trkpt><trkpt lat="45.490905" lon="8.6905583"><ele>157.5</ele><time>2026-03-22T14:31:35.209Z</time></trkpt><trkpt lat="45.4910183" lon="8.690555"><ele>158.0</ele><time>2026-03-22T14:31:36.209Z</time></trkpt><trkpt lat="45.4911333" lon="8.6905683"><ele>158.0</ele><time>2026-03-22T14:31:37.209Z</time></trkpt><trkpt lat="45.4912417" lon="8.69058"><ele>158.0</ele><time>2026-03-22T14:31:38.209Z</time></trkpt><trkpt lat="45.491345" lon="8.690595"><ele>158.0</ele><time>2026-03-22T14:31:39.209Z</time></trkpt><trkpt lat="45.4914483" lon="8.6906067"><ele>158.0</ele><time>2026-03-22T14:31:40.209Z</time></trkpt><trkpt lat="45.49155" lon="8.6906133"><ele>158.0</ele><time>2026-03-22T14:31:41.209Z</time></trkpt><trkpt lat="45.4916533" lon="8.69061"><ele>158.16666666666666</ele><time>2026-03-22T14:31:42.209Z</time></trkpt><trkpt lat="45.4917467" lon="8.6906033"><ele>158.33333333333331</ele><time>2026-03-22T14:31:43.209Z</time></trkpt><trkpt lat="45.4918417" lon="8.6905933"><ele>158.5</ele><time>2026-03-22T14:31:44.209Z</time></trkpt><trkpt lat="45.4919267" lon="8.6905733"><ele>158.66666666666666</ele><time>2026-03-22T14:31:45.209Z</time></trkpt><trkpt lat="45.492" lon="8.6905533"><ele>158.83333333333334</ele><time>2026-03-22T14:31:46.209Z</time></trkpt><trkpt lat="45.4920667" lon="8.6905483"><ele>159.0</ele><time>2026-03-22T14:31:47.209Z</time></trkpt><trkpt lat="45.4921333" lon="8.6905417"><ele>159.16666666666666</ele><time>2026-03-22T14:31:48.209Z</time></trkpt><trkpt lat="45.4922017" lon="8.6905367"><ele>159.33333333333334</ele><time>2026-03-22T14:31:49.209Z</time></trkpt><trkpt lat="45.4922683" lon="8.6905217"><ele>159.5</ele><time>2026-03-22T14:31:50.209Z</time></trkpt><trkpt lat="45.4923433" lon="8.69051"><ele>159.66666666666669</ele><time>2026-03-22T14:31:51.209Z</time></trkpt><trkpt lat="45.4924183" lon="8.6905"><ele>159.83333333333334</ele><time>2026-03-22T14:31:52.209Z</time></trkpt><trkpt lat="45.492485" lon="8.6904883"><ele>160.0</ele><time>2026-03-22T14:31:53.209Z</time></trkpt><trkpt lat="45.4925983" lon="8.6904767"><ele>160.0</ele><time>2026-03-22T14:31:55.209Z</time></trkpt><trkpt lat="45.4926883" lon="8.6905433"><ele>160.0</ele><time>2026-03-22T14:31:57.209Z</time></trkpt><trkpt lat="45.4927367" lon="8.6906983"><ele>160.0</ele><time>2026-03-22T14:31:59.209Z</time></trkpt><trkpt lat="45.4927383" lon="8.6907917"><ele>160.0</ele><time>2026-03-22T14:32:00.209Z</time></trkpt><trkpt lat="45.49274" lon="8.6908983"><ele>160.0</ele><time>2026-03-22T14:32:01.209Z</time></trkpt><trkpt lat="45.4927417" lon="8.6910133"><ele>160.0</ele><time>2026-03-22T14:32:02.209Z</time></trkpt><trkpt lat="45.4927383" lon="8.6911267"><ele>160.0</ele><time>2026-03-22T14:32:03.209Z</time></trkpt><trkpt lat="45.4927417" lon="8.6912367"><ele>160.0</ele><time>2026-03-22T14:32:04.209Z</time></trkpt><trkpt lat="45.4927483" lon="8.6913483"><ele>160.0</ele><time>2026-03-22T14:32:05.209Z</time></trkpt><trkpt lat="45.4927533" lon="8.6914517"><ele>160.0</ele><time>2026-03-22T14:32:06.209Z</time></trkpt><trkpt lat="45.4927633" lon="8.691555"><ele>160.0</ele><time>2026-03-22T14:32:07.209Z</time></trkpt><trkpt lat="45.4927833" lon="8.691715"><ele>160.0</ele><time>2026-03-22T14:32:09.209Z</time></trkpt><trkpt lat="45.49279" lon="8.6918567"><ele>159.4</ele><time>2026-03-22T14:32:11.209Z</time></trkpt><trkpt lat="45.4928083" lon="8.6920267"><ele>158.8</ele><time>2026-03-22T14:32:13.209Z</time></trkpt><trkpt lat="45.4928183" lon="8.69214"><ele>158.2</ele><time>2026-03-22T14:32:14.209Z</time></trkpt><trkpt lat="45.49283" lon="8.6922633"><ele>157.6</ele><time>2026-03-22T14:32:15.209Z</time></trkpt><trkpt lat="45.492845" lon="8.6924017"><ele>157.0</ele><time>2026-03-22T14:32:16.209Z</time></trkpt><trkpt lat="45.4928617" lon="8.6925383"><ele>157.0</ele><time>2026-03-22T14:32:17.209Z</time></trkpt><trkpt lat="45.4928767" lon="8.6926667"><ele>157.0</ele><time>2026-03-22T14:32:18.209Z</time></trkpt><trkpt lat="45.4928967" lon="8.692795"><ele>157.0</ele><time>2026-03-22T14:32:19.209Z</time></trkpt><trkpt lat="45.4929183" lon="8.692915"><ele>157.0</ele><time>2026-03-22T14:32:20.209Z</time></trkpt><trkpt lat="45.4929333" lon="8.6930133"><ele>157.0</ele><time>2026-03-22T14:32:21.209Z</time></trkpt><trkpt lat="45.4929183" lon="8.6931733"><ele>157.5</ele><time>2026-03-22T14:32:23.209Z</time></trkpt><trkpt lat="45.4928067" lon="8.693295"><ele>158.0</ele><time>2026-03-22T14:32:25.209Z</time></trkpt><trkpt lat="45.4927067" lon="8.693345"><ele>158.5</ele><time>2026-03-22T14:32:26.209Z</time></trkpt><trkpt lat="45.4925983" lon="8.6934083"><ele>159.0</ele><time>2026-03-22T14:32:27.209Z</time></trkpt><trkpt lat="45.492495" lon="8.6934767"><ele>159.0</ele><time>2026-03-22T14:32:28.209Z</time></trkpt><trkpt lat="45.4923783" lon="8.6935667"><ele>159.0</ele><time>2026-03-22T14:32:29.209Z</time></trkpt><trkpt lat="45.492265" lon="8.693655"><ele>159.0</ele><time>2026-03-22T14:32:30.209Z</time></trkpt><trkpt lat="45.49216" lon="8.6937467"><ele>159.0</ele><time>2026-03-22T14:32:31.209Z</time></trkpt><trkpt lat="45.492055" lon="8.6938317"><ele>159.25</ele><time>2026-03-22T14:32:32.209Z</time></trkpt><trkpt lat="45.4919433" lon="8.693925"><ele>159.5</ele><time>2026-03-22T14:32:33.209Z</time></trkpt><trkpt lat="45.4918367" lon="8.6940283"><ele>159.75</ele><time>2026-03-22T14:32:34.209Z</time></trkpt><trkpt lat="45.4917333" lon="8.6941467"><ele>160.0</ele><time>2026-03-22T14:32:35.209Z</time></trkpt><trkpt lat="45.49163" lon="8.6942767"><ele>160.0</ele><time>2026-03-22T14:32:36.209Z</time></trkpt><trkpt lat="45.49153" lon="8.6944117"><ele>160.0</ele><time>2026-03-22T14:32:37.21Z</time></trkpt><trkpt lat="45.4914267" lon="8.694545"><ele>160.0</ele><time>2026-03-22T14:32:38.209Z</time></trkpt><trkpt lat="45.4913217" lon="8.694675"><ele>160.0</ele><time>2026-03-22T14:32:39.209Z</time></trkpt><trkpt lat="45.4912267" lon="8.6948183"><ele>159.25</ele><time>2026-03-22T14:32:40.209Z</time></trkpt><trkpt lat="45.4911417" lon="8.6949567"><ele>158.5</ele><time>2026-03-22T14:32:41.209Z</time></trkpt><trkpt lat="45.4910533" lon="8.6950917"><ele>157.75</ele><time>2026-03-22T14:32:42.209Z</time></trkpt><trkpt lat="45.4909583" lon="8.6952233"><ele>157.0</ele><time>2026-03-22T14:32:43.209Z</time></trkpt><trkpt lat="45.490855" lon="8.695355"><ele>156.75</ele><time>2026-03-22T14:32:44.208Z</time></trkpt><trkpt lat="45.4907567" lon="8.695485"><ele>156.5</ele><time>2026-03-22T14:32:45.208Z</time></trkpt><trkpt lat="45.49066" lon="8.6956083"><ele>156.25</ele><time>2026-03-22T14:32:46.208Z</time></trkpt><trkpt lat="45.4905583" lon="8.695715"><ele>156.0</ele><time>2026-03-22T14:32:47.208Z</time></trkpt><trkpt lat="45.49046" lon="8.6958233"><ele>156.25</ele><time>2026-03-22T14:32:48.208Z</time></trkpt><trkpt lat="45.490365" lon="8.695935"><ele>156.5</ele><time>2026-03-22T14:32:49.208Z</time></trkpt><trkpt lat="45.49027" lon="8.6960583"><ele>156.75</ele><time>2026-03-22T14:32:50.208Z</time></trkpt><trkpt lat="45.4901683" lon="8.6961817"><ele>157.0</ele><time>2026-03-22T14:32:51.208Z</time></trkpt><trkpt lat="45.490065" lon="8.6962983"><ele>157.0</ele><time>2026-03-22T14:32:52.208Z</time></trkpt><trkpt lat="45.4899683" lon="8.6964017"><ele>157.0</ele><time>2026-03-22T14:32:53.209Z</time></trkpt><trkpt lat="45.4898683" lon="8.6964933"><ele>157.0</ele><time>2026-03-22T14:32:54.208Z</time></trkpt><trkpt lat="45.489775" lon="8.696585"><ele>157.0</ele><time>2026-03-22T14:32:55.208Z</time></trkpt><trkpt lat="45.4896767" lon="8.696675"><ele>156.5</ele><time>2026-03-22T14:32:56.208Z</time></trkpt><trkpt lat="45.4895833" lon="8.6967733"><ele>156.0</ele><time>2026-03-22T14:32:57.208Z</time></trkpt><trkpt lat="45.4894867" lon="8.6968733"><ele>155.5</ele><time>2026-03-22T14:32:58.208Z</time></trkpt><trkpt lat="45.4893933" lon="8.6969833"><ele>155.0</ele><time>2026-03-22T14:32:59.208Z</time></trkpt><trkpt lat="45.48931" lon="8.6970983"><ele>154.25</ele><time>2026-03-22T14:33:00.208Z</time></trkpt><trkpt lat="45.4892283" lon="8.6972167"><ele>153.5</ele><time>2026-03-22T14:33:01.208Z</time></trkpt><trkpt lat="45.4891433" lon="8.6973317"><ele>152.75</ele><time>2026-03-22T14:33:02.208Z</time></trkpt><trkpt lat="45.489055" lon="8.6974467"><ele>152.0</ele><time>2026-03-22T14:33:03.208Z</time></trkpt><trkpt lat="45.4889733" lon="8.6975667"><ele>152.0</ele><time>2026-03-22T14:33:04.208Z</time></trkpt><trkpt lat="45.48889" lon="8.6976833"><ele>152.0</ele><time>2026-03-22T14:33:05.208Z</time></trkpt><trkpt lat="45.4888" lon="8.6978017"><ele>152.0</ele><time>2026-03-22T14:33:06.208Z</time></trkpt><trkpt lat="45.4887083" lon="8.6979183"><ele>152.0</ele><time>2026-03-22T14:33:07.208Z</time></trkpt><trkpt lat="45.4886183" lon="8.6980467"><ele>152.25</ele><time>2026-03-22T14:33:08.208Z</time></trkpt><trkpt lat="45.4885283" lon="8.698165"><ele>152.5</ele><time>2026-03-22T14:33:09.208Z</time></trkpt><trkpt lat="45.4884333" lon="8.6982833"><ele>152.75</ele><time>2026-03-22T14:33:10.208Z</time></trkpt><trkpt lat="45.4883367" lon="8.6983917"><ele>153.0</ele><time>2026-03-22T14:33:11.208Z</time></trkpt><trkpt lat="45.48824" lon="8.6984967"><ele>153.4</ele><time>2026-03-22T14:33:12.208Z</time></trkpt><trkpt lat="45.488155" lon="8.6985917"><ele>153.8</ele><time>2026-03-22T14:33:13.208Z</time></trkpt><trkpt lat="45.4880683" lon="8.6986833"><ele>154.2</ele><time>2026-03-22T14:33:14.209Z</time></trkpt><trkpt lat="45.4879833" lon="8.698755"><ele>154.6</ele><time>2026-03-22T14:33:15.208Z</time></trkpt><trkpt lat="45.4879017" lon="8.6988233"><ele>155.0</ele><time>2026-03-22T14:33:16.208Z</time></trkpt><trkpt lat="45.4878283" lon="8.6988883"><ele>155.16666666666666</ele><time>2026-03-22T14:33:17.208Z</time></trkpt><trkpt lat="45.4877617" lon="8.6989483"><ele>155.33333333333331</ele><time>2026-03-22T14:33:18.208Z</time></trkpt><trkpt lat="45.4877017" lon="8.6990183"><ele>155.5</ele><time>2026-03-22T14:33:19.208Z</time></trkpt><trkpt lat="45.4876467" lon="8.6990867"><ele>155.66666666666666</ele><time>2026-03-22T14:33:20.208Z</time></trkpt><trkpt lat="45.48757" lon="8.6991483"><ele>155.83333333333334</ele><time>2026-03-22T14:33:22.208Z</time></trkpt><trkpt lat="45.48749" lon="8.69916"><ele>156.0</ele><time>2026-03-22T14:33:25.208Z</time></trkpt><trkpt lat="45.4874083" lon="8.6990767"><ele>156.0</ele><time>2026-03-22T14:33:27.208Z</time></trkpt><trkpt lat="45.4873183" lon="8.699075"><ele>156.0</ele><time>2026-03-22T14:33:29.208Z</time></trkpt><trkpt lat="45.4872833" lon="8.6991967"><ele>156.0</ele><time>2026-03-22T14:33:31.208Z</time></trkpt><trkpt lat="45.4872883" lon="8.6993067"><ele>156.0</ele><time>2026-03-22T14:33:32.208Z</time></trkpt><trkpt lat="45.4872967" lon="8.6994417"><ele>156.0</ele><time>2026-03-22T14:33:33.208Z</time></trkpt><trkpt lat="45.4872967" lon="8.69958"><ele>155.8</ele><time>2026-03-22T14:33:34.208Z</time></trkpt><trkpt lat="45.4872967" lon="8.6997217"><ele>155.6</ele><time>2026-03-22T14:33:35.208Z</time></trkpt><trkpt lat="45.4872967" lon="8.6998633"><ele>155.4</ele><time>2026-03-22T14:33:36.208Z</time></trkpt><trkpt lat="45.4872967" lon="8.7"><ele>155.2</ele><time>2026-03-22T14:33:37.208Z</time></trkpt><trkpt lat="45.48729" lon="8.70015"><ele>155.0</ele><time>2026-03-22T14:33:38.208Z</time></trkpt><trkpt lat="45.4872833" lon="8.7002917"><ele>155.0</ele><time>2026-03-22T14:33:39.208Z</time></trkpt><trkpt lat="45.4872833" lon="8.700425"><ele>155.0</ele><time>2026-03-22T14:33:40.208Z</time></trkpt><trkpt lat="45.4872817" lon="8.700565"><ele>155.0</ele><time>2026-03-22T14:33:41.208Z</time></trkpt><trkpt lat="45.4872817" lon="8.700685"><ele>155.0</ele><time>2026-03-22T14:33:42.208Z</time></trkpt><trkpt lat="45.4872783" lon="8.700795"><ele>155.0</ele><time>2026-03-22T14:33:43.208Z</time></trkpt><trkpt lat="45.48727" lon="8.700895"><ele>155.0</ele><time>2026-03-22T14:33:44.208Z</time></trkpt><trkpt lat="45.4872617" lon="8.70101"><ele>155.0</ele><time>2026-03-22T14:33:45.208Z</time></trkpt><trkpt lat="45.4872567" lon="8.701135"><ele>155.0</ele><time>2026-03-22T14:33:46.208Z</time></trkpt><trkpt lat="45.4872433" lon="8.701275"><ele>155.0</ele><time>2026-03-22T14:33:47.208Z</time></trkpt><trkpt lat="45.4872333" lon="8.701435"><ele>155.0</ele><time>2026-03-22T14:33:48.208Z</time></trkpt><trkpt lat="45.48723" lon="8.7016067"><ele>155.0</ele><time>2026-03-22T14:33:49.208Z</time></trkpt><trkpt lat="45.487215" lon="8.70179"><ele>155.0</ele><time>2026-03-22T14:33:50.208Z</time></trkpt><trkpt lat="45.4872133" lon="8.7019817"><ele>155.0</ele><time>2026-03-22T14:33:51.208Z</time></trkpt><trkpt lat="45.4872083" lon="8.7021817"><ele>155.0</ele><time>2026-03-22T14:33:52.208Z</time></trkpt><trkpt lat="45.4871983" lon="8.7023817"><ele>155.0</ele><time>2026-03-22T14:33:53.208Z</time></trkpt><trkpt lat="45.4872" lon="8.702585"><ele>155.5</ele><time>2026-03-22T14:33:54.208Z</time></trkpt><trkpt lat="45.4871967" lon="8.7027933"><ele>156.0</ele><time>2026-03-22T14:33:55.208Z</time></trkpt><trkpt lat="45.4871883" lon="8.7030017"><ele>156.5</ele><time>2026-03-22T14:33:56.208Z</time></trkpt><trkpt lat="45.4871867" lon="8.7032167"><ele>157.0</ele><time>2026-03-22T14:33:57.208Z</time></trkpt><trkpt lat="45.48718" lon="8.70343"><ele>156.75</ele><time>2026-03-22T14:33:58.208Z</time></trkpt><trkpt lat="45.4871883" lon="8.70363"><ele>156.5</ele><time>2026-03-22T14:33:59.208Z</time></trkpt><trkpt lat="45.4871883" lon="8.70383"><ele>156.25</ele><time>2026-03-22T14:34:00.208Z</time></trkpt><trkpt lat="45.48718" lon="8.704055"><ele>156.0</ele><time>2026-03-22T14:34:01.208Z</time></trkpt><trkpt lat="45.4871833" lon="8.7042717"><ele>156.0</ele><time>2026-03-22T14:34:02.208Z</time></trkpt><trkpt lat="45.4871783" lon="8.7044733"><ele>156.0</ele><time>2026-03-22T14:34:03.208Z</time></trkpt><trkpt lat="45.4871883" lon="8.7046983"><ele>156.0</ele><time>2026-03-22T14:34:04.208Z</time></trkpt><trkpt lat="45.48719" lon="8.7049117"><ele>156.0</ele><time>2026-03-22T14:34:05.208Z</time></trkpt><trkpt lat="45.4871833" lon="8.70512"><ele>156.25</ele><time>2026-03-22T14:34:06.208Z</time></trkpt><trkpt lat="45.4871717" lon="8.7053167"><ele>156.5</ele><time>2026-03-22T14:34:07.208Z</time></trkpt><trkpt lat="45.487155" lon="8.70552"><ele>156.75</ele><time>2026-03-22T14:34:08.208Z</time></trkpt><trkpt lat="45.4871533" lon="8.7057217"><ele>157.0</ele><time>2026-03-22T14:34:09.208Z</time></trkpt><trkpt lat="45.4871617" lon="8.70593"><ele>156.75</ele><time>2026-03-22T14:34:10.208Z</time></trkpt><trkpt lat="45.487165" lon="8.7061283"><ele>156.5</ele><time>2026-03-22T14:34:11.208Z</time></trkpt><trkpt lat="45.4871583" lon="8.70632"><ele>156.25</ele><time>2026-03-22T14:34:12.208Z</time></trkpt><trkpt lat="45.4871517" lon="8.7065233"><ele>156.0</ele><time>2026-03-22T14:34:13.208Z</time></trkpt><trkpt lat="45.4871317" lon="8.706725"><ele>155.75</ele><time>2026-03-22T14:34:14.208Z</time></trkpt><trkpt lat="45.48712" lon="8.7069117"><ele>155.5</ele><time>2026-03-22T14:34:15.208Z</time></trkpt><trkpt lat="45.4871067" lon="8.70708"><ele>155.25</ele><time>2026-03-22T14:34:16.208Z</time></trkpt><trkpt lat="45.4870967" lon="8.7072283"><ele>155.0</ele><time>2026-03-22T14:34:17.208Z</time></trkpt><trkpt lat="45.487085" lon="8.70737"><ele>154.66666666666666</ele><time>2026-03-22T14:34:18.208Z</time></trkpt><trkpt lat="45.48708" lon="8.7074967"><ele>154.33333333333331</ele><time>2026-03-22T14:34:19.208Z</time></trkpt><trkpt lat="45.4870783" lon="8.7075867"><ele>154.0</ele><time>2026-03-22T14:34:20.208Z</time></trkpt><trkpt lat="45.4870517" lon="8.7077067"><ele>153.66666666666666</ele><time>2026-03-22T14:34:22.208Z</time></trkpt><trkpt lat="45.487015" lon="8.707785"><ele>153.33333333333334</ele><time>2026-03-22T14:34:25.208Z</time></trkpt><trkpt lat="45.4870367" lon="8.7079317"><ele>153.0</ele><time>2026-03-22T14:34:28.208Z</time></trkpt><trkpt lat="45.4870783" lon="8.7080167"><ele>153.16666666666666</ele><time>2026-03-22T14:34:29.208Z</time></trkpt><trkpt lat="45.4871283" lon="8.70809"><ele>153.33333333333334</ele><time>2026-03-22T14:34:30.208Z</time></trkpt><trkpt lat="45.487185" lon="8.7081633"><ele>153.5</ele><time>2026-03-22T14:34:31.209Z</time></trkpt><trkpt lat="45.4872417" lon="8.7082517"><ele>153.66666666666669</ele><time>2026-03-22T14:34:32.208Z</time></trkpt><trkpt lat="45.4873067" lon="8.7083483"><ele>153.83333333333334</ele><time>2026-03-22T14:34:33.208Z</time></trkpt><trkpt lat="45.487375" lon="8.7084567"><ele>154.0</ele><time>2026-03-22T14:34:34.208Z</time></trkpt><trkpt lat="45.4874483" lon="8.7085617"><ele>154.25</ele><time>2026-03-22T14:34:35.208Z</time></trkpt><trkpt lat="45.4875367" lon="8.7086767"><ele>154.5</ele><time>2026-03-22T14:34:36.208Z</time></trkpt><trkpt lat="45.4876233" lon="8.7087917"><ele>154.75</ele><time>2026-03-22T14:34:37.208Z</time></trkpt><trkpt lat="45.4877083" lon="8.70892"><ele>155.0</ele><time>2026-03-22T14:34:38.208Z</time></trkpt><trkpt lat="45.487795" lon="8.7090483"><ele>155.0</ele><time>2026-03-22T14:34:39.208Z</time></trkpt><trkpt lat="45.4878767" lon="8.7091817"><ele>155.0</ele><time>2026-03-22T14:34:40.208Z</time></trkpt><trkpt lat="45.4879667" lon="8.7093033"><ele>155.0</ele><time>2026-03-22T14:34:41.208Z</time></trkpt><trkpt lat="45.4880567" lon="8.7094233"><ele>155.0</ele><time>2026-03-22T14:34:42.208Z</time></trkpt><trkpt lat="45.48814" lon="8.7095367"><ele>155.0</ele><time>2026-03-22T14:34:43.208Z</time></trkpt><trkpt lat="45.4881983" lon="8.709665"><ele>155.0</ele><time>2026-03-22T14:34:44.208Z</time></trkpt><trkpt lat="45.48824" lon="8.70981"><ele>155.0</ele><time>2026-03-22T14:34:45.208Z</time></trkpt><trkpt lat="45.488265" lon="8.7099667"><ele>155.0</ele><time>2026-03-22T14:34:46.208Z</time></trkpt><trkpt lat="45.4882567" lon="8.710135"><ele>155.0</ele><time>2026-03-22T14:34:47.208Z</time></trkpt><trkpt lat="45.4882117" lon="8.710305"><ele>155.25</ele><time>2026-03-22T14:34:48.208Z</time></trkpt><trkpt lat="45.4881483" lon="8.71046"><ele>155.5</ele><time>2026-03-22T14:34:49.208Z</time></trkpt><trkpt lat="45.4880833" lon="8.7106133"><ele>155.75</ele><time>2026-03-22T14:34:50.208Z</time></trkpt><trkpt lat="45.48803" lon="8.7107783"><ele>156.0</ele><time>2026-03-22T14:34:51.208Z</time></trkpt><trkpt lat="45.488" lon="8.7109633"><ele>156.0</ele><time>2026-03-22T14:34:52.208Z</time></trkpt><trkpt lat="45.487975" lon="8.7111517"><ele>156.0</ele><time>2026-03-22T14:34:53.208Z</time></trkpt><trkpt lat="45.4879517" lon="8.711345"><ele>156.0</ele><time>2026-03-22T14:34:54.208Z</time></trkpt><trkpt lat="45.4879367" lon="8.711535"><ele>156.0</ele><time>2026-03-22T14:34:55.208Z</time></trkpt><trkpt lat="45.4879217" lon="8.7117333"><ele>156.5</ele><time>2026-03-22T14:34:56.208Z</time></trkpt><trkpt lat="45.4878983" lon="8.7119333"><ele>157.0</ele><time>2026-03-22T14:34:57.208Z</time></trkpt><trkpt lat="45.4878783" lon="8.712135"><ele>157.5</ele><time>2026-03-22T14:34:58.208Z</time></trkpt><trkpt lat="45.4878617" lon="8.7123417"><ele>158.0</ele><time>2026-03-22T14:34:59.208Z</time></trkpt><trkpt lat="45.4878567" lon="8.71255"><ele>157.66666666666666</ele><time>2026-03-22T14:35:00.208Z</time></trkpt><trkpt lat="45.4878583" lon="8.7127667"><ele>157.33333333333334</ele><time>2026-03-22T14:35:01.208Z</time></trkpt><trkpt lat="45.4878767" lon="8.7129967"><ele>157.0</ele><time>2026-03-22T14:35:02.208Z</time></trkpt><trkpt lat="45.487955" lon="8.7134183"><ele>155.66666666666669</ele><time>2026-03-22T14:35:04.208Z</time></trkpt><trkpt lat="45.48801" lon="8.7136317"><ele>154.33333333333334</ele><time>2026-03-22T14:35:05.208Z</time></trkpt><trkpt lat="45.4880867" lon="8.7138183"><ele>153.0</ele><time>2026-03-22T14:35:06.208Z</time></trkpt><trkpt lat="45.4881817" lon="8.7139883"><ele>153.0</ele><time>2026-03-22T14:35:07.208Z</time></trkpt><trkpt lat="45.4882933" lon="8.7141333"><ele>153.0</ele><time>2026-03-22T14:35:08.208Z</time></trkpt><trkpt lat="45.4884217" lon="8.7142317"><ele>153.0</ele><time>2026-03-22T14:35:09.208Z</time></trkpt><trkpt lat="45.4887017" lon="8.7142983"><ele>154.0</ele><time>2026-03-22T14:35:11.208Z</time></trkpt><trkpt lat="45.4888367" lon="8.7142733"><ele>155.0</ele><time>2026-03-22T14:35:12.208Z</time></trkpt><trkpt lat="45.488975" lon="8.7142167"><ele>156.0</ele><time>2026-03-22T14:35:13.208Z</time></trkpt><trkpt lat="45.48924" lon="8.71403"><ele>156.0</ele><time>2026-03-22T14:35:15.208Z</time></trkpt><trkpt lat="45.4893817" lon="8.7139583"><ele>156.0</ele><time>2026-03-22T14:35:16.208Z</time></trkpt><trkpt lat="45.4895283" lon="8.7138967"><ele>156.0</ele><time>2026-03-22T14:35:17.208Z</time></trkpt><trkpt lat="45.4896717" lon="8.7138583"><ele>156.0</ele><time>2026-03-22T14:35:18.208Z</time></trkpt><trkpt lat="45.48983" lon="8.7138383"><ele>156.33333333333334</ele><time>2026-03-22T14:35:19.208Z</time></trkpt><trkpt lat="45.4899917" lon="8.7138367"><ele>156.66666666666669</ele><time>2026-03-22T14:35:20.208Z</time></trkpt><trkpt lat="45.4901667" lon="8.713865"><ele>157.0</ele><time>2026-03-22T14:35:21.208Z</time></trkpt><trkpt lat="45.4903233" lon="8.7139117"><ele>156.66666666666669</ele><time>2026-03-22T14:35:22.208Z</time></trkpt><trkpt lat="45.49049" lon="8.71398"><ele>156.33333333333334</ele><time>2026-03-22T14:35:23.208Z</time></trkpt><trkpt lat="45.4906467" lon="8.7140717"><ele>156.0</ele><time>2026-03-22T14:35:24.208Z</time></trkpt><trkpt lat="45.49079" lon="8.7141733"><ele>156.0</ele><time>2026-03-22T14:35:25.208Z</time></trkpt><trkpt lat="45.4909133" lon="8.714275"><ele>156.0</ele><time>2026-03-22T14:35:26.208Z</time></trkpt><trkpt lat="45.4910183" lon="8.71436"><ele>156.0</ele><time>2026-03-22T14:35:27.208Z</time></trkpt><trkpt lat="45.4911117" lon="8.714435"><ele>156.0</ele><time>2026-03-22T14:35:28.208Z</time></trkpt><trkpt lat="45.4912083" lon="8.7145067"><ele>156.0</ele><time>2026-03-22T14:35:29.208Z</time></trkpt><trkpt lat="45.4913133" lon="8.7145867"><ele>156.0</ele><time>2026-03-22T14:35:30.208Z</time></trkpt><trkpt lat="45.4914267" lon="8.7146767"><ele>156.0</ele><time>2026-03-22T14:35:31.208Z</time></trkpt><trkpt lat="45.4915433" lon="8.7147783"><ele>156.0</ele><time>2026-03-22T14:35:32.208Z</time></trkpt><trkpt lat="45.4916667" lon="8.7149017"><ele>156.0</ele><time>2026-03-22T14:35:33.208Z</time></trkpt><trkpt lat="45.49178" lon="8.7150183"><ele>156.0</ele><time>2026-03-22T14:35:34.208Z</time></trkpt><trkpt lat="45.4918867" lon="8.71513"><ele>156.0</ele><time>2026-03-22T14:35:35.208Z</time></trkpt><trkpt lat="45.491985" lon="8.715235"><ele>156.0</ele><time>2026-03-22T14:35:36.208Z</time></trkpt><trkpt lat="45.4920667" lon="8.715325"><ele>155.83333333333334</ele><time>2026-03-22T14:35:37.208Z</time></trkpt><trkpt lat="45.4921283" lon="8.7154067"><ele>155.66666666666666</ele><time>2026-03-22T14:35:38.208Z</time></trkpt><trkpt lat="45.4921767" lon="8.7154683"><ele>155.5</ele><time>2026-03-22T14:35:39.208Z</time></trkpt><trkpt lat="45.4922333" lon="8.7155467"><ele>155.33333333333331</ele><time>2026-03-22T14:35:41.208Z</time></trkpt><trkpt lat="45.4922417" lon="8.7156567"><ele>155.16666666666666</ele><time>2026-03-22T14:35:46.208Z</time></trkpt><trkpt lat="45.492165" lon="8.71566"><ele>155.0</ele><time>2026-03-22T14:35:49.208Z</time></trkpt><trkpt lat="45.4920933" lon="8.71567"><ele>155.0</ele><time>2026-03-22T14:35:50.208Z</time></trkpt><trkpt lat="45.492005" lon="8.71575"><ele>155.0</ele><time>2026-03-22T14:35:52.208Z</time></trkpt><trkpt lat="45.4920017" lon="8.7159033"><ele>155.0</ele><time>2026-03-22T14:35:54.208Z</time></trkpt><trkpt lat="45.4920417" lon="8.7160183"><ele>155.0</ele><time>2026-03-22T14:35:55.208Z</time></trkpt><trkpt lat="45.4921267" lon="8.716175"><ele>155.0</ele><time>2026-03-22T14:35:56.208Z</time></trkpt><trkpt lat="45.49221" lon="8.716345"><ele>155.25</ele><time>2026-03-22T14:35:57.208Z</time></trkpt><trkpt lat="45.4922867" lon="8.7165"><ele>155.5</ele><time>2026-03-22T14:35:58.208Z</time></trkpt><trkpt lat="45.4923567" lon="8.7166383"><ele>155.75</ele><time>2026-03-22T14:35:59.208Z</time></trkpt><trkpt lat="45.4924233" lon="8.71677"><ele>156.0</ele><time>2026-03-22T14:36:00.208Z</time></trkpt><trkpt lat="45.4924783" lon="8.7169"><ele>155.83333333333334</ele><time>2026-03-22T14:36:01.208Z</time></trkpt><trkpt lat="45.4925317" lon="8.71703"><ele>155.66666666666666</ele><time>2026-03-22T14:36:02.208Z</time></trkpt><trkpt lat="45.492575" lon="8.7171467"><ele>155.5</ele><time>2026-03-22T14:36:03.208Z</time></trkpt><trkpt lat="45.492615" lon="8.7172617"><ele>155.33333333333331</ele><time>2026-03-22T14:36:04.208Z</time></trkpt><trkpt lat="45.4926517" lon="8.71736"><ele>155.16666666666666</ele><time>2026-03-22T14:36:05.208Z</time></trkpt><trkpt lat="45.4926783" lon="8.7174583"><ele>155.0</ele><time>2026-03-22T14:36:06.208Z</time></trkpt><trkpt lat="45.49271" lon="8.7175767"><ele>155.0</ele><time>2026-03-22T14:36:07.208Z</time></trkpt><trkpt lat="45.4927617" lon="8.7176833"><ele>155.0</ele><time>2026-03-22T14:36:08.208Z</time></trkpt><trkpt lat="45.4928117" lon="8.717775"><ele>155.0</ele><time>2026-03-22T14:36:09.208Z</time></trkpt><trkpt lat="45.4928517" lon="8.71785"><ele>155.0</ele><time>2026-03-22T14:36:10.208Z</time></trkpt><trkpt lat="45.49288" lon="8.7179467"><ele>155.0</ele><time>2026-03-22T14:36:12.208Z</time></trkpt><trkpt lat="45.4927867" lon="8.718045"><ele>155.0</ele><time>2026-03-22T14:36:14.208Z</time></trkpt><trkpt lat="45.4927067" lon="8.718085"><ele>153.8</ele><time>2026-03-22T14:36:15.208Z</time></trkpt><trkpt lat="45.49261" lon="8.7181083"><ele>152.6</ele><time>2026-03-22T14:36:16.208Z</time></trkpt><trkpt lat="45.4925033" lon="8.7181233"><ele>151.4</ele><time>2026-03-22T14:36:17.208Z</time></trkpt><trkpt lat="45.4923983" lon="8.7181517"><ele>150.2</ele><time>2026-03-22T14:36:18.208Z</time></trkpt><trkpt lat="45.4922933" lon="8.7182"><ele>149.0</ele><time>2026-03-22T14:36:19.208Z</time></trkpt><trkpt lat="45.4921917" lon="8.7182567"><ele>149.0</ele><time>2026-03-22T14:36:20.208Z</time></trkpt><trkpt lat="45.49211" lon="8.718305"><ele>149.0</ele><time>2026-03-22T14:36:21.208Z</time></trkpt><trkpt lat="45.4920333" lon="8.7183417"><ele>149.0</ele><time>2026-03-22T14:36:22.208Z</time></trkpt><trkpt lat="45.4919633" lon="8.7183633"><ele>149.0</ele><time>2026-03-22T14:36:23.208Z</time></trkpt><trkpt lat="45.4918967" lon="8.7183767"><ele>149.0</ele><time>2026-03-22T14:36:24.208Z</time></trkpt><trkpt lat="45.4918233" lon="8.7184083"><ele>149.0</ele><time>2026-03-22T14:36:25.208Z</time></trkpt><trkpt lat="45.4917367" lon="8.718445"><ele>149.75</ele><time>2026-03-22T14:36:26.208Z</time></trkpt><trkpt lat="45.491635" lon="8.71848"><ele>150.5</ele><time>2026-03-22T14:36:27.208Z</time></trkpt><trkpt lat="45.4915183" lon="8.718535"><ele>151.25</ele><time>2026-03-22T14:36:28.208Z</time></trkpt><trkpt lat="45.4914" lon="8.7185833"><ele>152.0</ele><time>2026-03-22T14:36:29.208Z</time></trkpt><trkpt lat="45.49129" lon="8.7186317"><ele>152.16666666666666</ele><time>2026-03-22T14:36:30.208Z</time></trkpt><trkpt lat="45.4911933" lon="8.718675"><ele>152.33333333333331</ele><time>2026-03-22T14:36:31.208Z</time></trkpt><trkpt lat="45.4911133" lon="8.71872"><ele>152.5</ele><time>2026-03-22T14:36:32.209Z</time></trkpt><trkpt lat="45.491045" lon="8.718745"><ele>152.66666666666666</ele><time>2026-03-22T14:36:33.208Z</time></trkpt><trkpt lat="45.4909417" lon="8.7188167"><ele>152.83333333333334</ele><time>2026-03-22T14:36:35.208Z</time></trkpt><trkpt lat="45.490915" lon="8.7189083"><ele>153.0</ele><time>2026-03-22T14:36:36.208Z</time></trkpt><trkpt lat="45.4909233" lon="8.7190283"><ele>153.0</ele><time>2026-03-22T14:36:37.208Z</time></trkpt><trkpt lat="45.49095" lon="8.7191517"><ele>153.0</ele><time>2026-03-22T14:36:38.208Z</time></trkpt><trkpt lat="45.4910083" lon="8.7192533"><ele>153.0</ele><time>2026-03-22T14:36:39.208Z</time></trkpt><trkpt lat="45.491065" lon="8.7193467"><ele>153.0</ele><time>2026-03-22T14:36:40.208Z</time></trkpt><trkpt lat="45.4911117" lon="8.71945"><ele>153.0</ele><time>2026-03-22T14:36:41.208Z</time></trkpt><trkpt lat="45.4911433" lon="8.719575"><ele>153.0</ele><time>2026-03-22T14:36:42.208Z</time></trkpt><trkpt lat="45.49118" lon="8.7196917"><ele>153.4</ele><time>2026-03-22T14:36:43.208Z</time></trkpt><trkpt lat="45.4912333" lon="8.7198033"><ele>153.8</ele><time>2026-03-22T14:36:44.208Z</time></trkpt><trkpt lat="45.4913083" lon="8.71989"><ele>154.2</ele><time>2026-03-22T14:36:45.208Z</time></trkpt><trkpt lat="45.4913817" lon="8.7199867"><ele>154.6</ele><time>2026-03-22T14:36:46.208Z</time></trkpt><trkpt lat="45.4914567" lon="8.7201017"><ele>155.0</ele><time>2026-03-22T14:36:47.208Z</time></trkpt><trkpt lat="45.4915317" lon="8.7202133"><ele>154.0</ele><time>2026-03-22T14:36:48.208Z</time></trkpt><trkpt lat="45.4915983" lon="8.7203317"><ele>153.0</ele><time>2026-03-22T14:36:49.208Z</time></trkpt><trkpt lat="45.4916633" lon="8.7204617"><ele>152.0</ele><time>2026-03-22T14:36:50.208Z</time></trkpt><trkpt lat="45.49173" lon="8.7206033"><ele>151.0</ele><time>2026-03-22T14:36:51.208Z</time></trkpt><trkpt lat="45.4918033" lon="8.7207467"><ele>151.0</ele><time>2026-03-22T14:36:52.208Z</time></trkpt><trkpt lat="45.49188" lon="8.7208933"><ele>151.0</ele><time>2026-03-22T14:36:53.208Z</time></trkpt><trkpt lat="45.4919617" lon="8.721035"><ele>151.0</ele><time>2026-03-22T14:36:54.208Z</time></trkpt><trkpt lat="45.4920483" lon="8.7211567"><ele>151.0</ele><time>2026-03-22T14:36:55.208Z</time></trkpt><trkpt lat="45.4921317" lon="8.7212983"><ele>150.0</ele><time>2026-03-22T14:36:56.208Z</time></trkpt><trkpt lat="45.4922183" lon="8.7214483"><ele>149.0</ele><time>2026-03-22T14:36:57.208Z</time></trkpt><trkpt lat="45.4923067" lon="8.72159"><ele>148.0</ele><time>2026-03-22T14:36:58.208Z</time></trkpt><trkpt lat="45.4923833" lon="8.7217283"><ele>147.0</ele><time>2026-03-22T14:36:59.208Z</time></trkpt><trkpt lat="45.4924667" lon="8.72187"><ele>149.0</ele><time>2026-03-22T14:37:00.208Z</time></trkpt><trkpt lat="45.4925417" lon="8.722015"><ele>151.0</ele><time>2026-03-22T14:37:01.208Z</time></trkpt><trkpt lat="45.4926117" lon="8.7221483"><ele>153.0</ele><time>2026-03-22T14:37:02.208Z</time></trkpt><trkpt lat="45.4926783" lon="8.7222717"><ele>155.0</ele><time>2026-03-22T14:37:03.208Z</time></trkpt><trkpt lat="45.49274" lon="8.7223817"><ele>155.0</ele><time>2026-03-22T14:37:04.208Z</time></trkpt><trkpt lat="45.4927967" lon="8.7224867"><ele>155.0</ele><time>2026-03-22T14:37:05.208Z</time></trkpt><trkpt lat="45.4928417" lon="8.7225783"><ele>155.0</ele><time>2026-03-22T14:37:06.208Z</time></trkpt><trkpt lat="45.4928833" lon="8.7226633"><ele>155.0</ele><time>2026-03-22T14:37:07.207Z</time></trkpt><trkpt lat="45.4929383" lon="8.7228217"><ele>155.0</ele><time>2026-03-22T14:37:09.207Z</time></trkpt><trkpt lat="45.4929833" lon="8.7229033"><ele>155.0</ele><time>2026-03-22T14:37:10.208Z</time></trkpt><trkpt lat="45.4930417" lon="8.7230033"><ele>154.25</ele><time>2026-03-22T14:37:11.207Z</time></trkpt><trkpt lat="45.4931083" lon="8.723115"><ele>153.5</ele><time>2026-03-22T14:37:12.207Z</time></trkpt><trkpt lat="45.4931817" lon="8.7232417"><ele>152.75</ele><time>2026-03-22T14:37:13.207Z</time></trkpt><trkpt lat="45.4932433" lon="8.7233733"><ele>152.0</ele><time>2026-03-22T14:37:14.207Z</time></trkpt><trkpt lat="45.4933183" lon="8.7235133"><ele>152.5</ele><time>2026-03-22T14:37:15.207Z</time></trkpt><trkpt lat="45.4933933" lon="8.7236483"><ele>153.0</ele><time>2026-03-22T14:37:16.207Z</time></trkpt><trkpt lat="45.4934633" lon="8.7237967"><ele>153.5</ele><time>2026-03-22T14:37:17.207Z</time></trkpt><trkpt lat="45.4935383" lon="8.7239433"><ele>154.0</ele><time>2026-03-22T14:37:18.207Z</time></trkpt><trkpt lat="45.493625" lon="8.7240967"><ele>154.0</ele><time>2026-03-22T14:37:19.207Z</time></trkpt><trkpt lat="45.493725" lon="8.7242383"><ele>154.0</ele><time>2026-03-22T14:37:20.207Z</time></trkpt><trkpt lat="45.4938183" lon="8.7243817"><ele>154.0</ele><time>2026-03-22T14:37:21.207Z</time></trkpt><trkpt lat="45.4939083" lon="8.7245217"><ele>154.0</ele><time>2026-03-22T14:37:22.207Z</time></trkpt><trkpt lat="45.4939933" lon="8.724665"><ele>153.75</ele><time>2026-03-22T14:37:23.207Z</time></trkpt><trkpt lat="45.49408" lon="8.7248083"><ele>153.5</ele><time>2026-03-22T14:37:24.207Z</time></trkpt><trkpt lat="45.49416" lon="8.72495"><ele>153.25</ele><time>2026-03-22T14:37:25.207Z</time></trkpt><trkpt lat="45.49424" lon="8.7251"><ele>153.0</ele><time>2026-03-22T14:37:26.207Z</time></trkpt><trkpt lat="45.49432" lon="8.7252533"><ele>153.5</ele><time>2026-03-22T14:37:27.207Z</time></trkpt><trkpt lat="45.4944067" lon="8.7254"><ele>154.0</ele><time>2026-03-22T14:37:28.207Z</time></trkpt><trkpt lat="45.4944967" lon="8.7255483"><ele>154.5</ele><time>2026-03-22T14:37:29.207Z</time></trkpt><trkpt lat="45.494585" lon="8.72571"><ele>155.0</ele><time>2026-03-22T14:37:30.207Z</time></trkpt><trkpt lat="45.494685" lon="8.7258817"><ele>154.25</ele><time>2026-03-22T14:37:31.207Z</time></trkpt><trkpt lat="45.494775" lon="8.726045"><ele>153.5</ele><time>2026-03-22T14:37:32.207Z</time></trkpt><trkpt lat="45.4948583" lon="8.7262083"><ele>152.75</ele><time>2026-03-22T14:37:33.207Z</time></trkpt><trkpt lat="45.4949383" lon="8.7263717"><ele>152.0</ele><time>2026-03-22T14:37:34.207Z</time></trkpt><trkpt lat="45.4950233" lon="8.7265233"><ele>152.0</ele><time>2026-03-22T14:37:35.207Z</time></trkpt><trkpt lat="45.49511" lon="8.7266717"><ele>152.0</ele><time>2026-03-22T14:37:36.207Z</time></trkpt><trkpt lat="45.4951833" lon="8.7267983"><ele>152.0</ele><time>2026-03-22T14:37:37.207Z</time></trkpt><trkpt lat="45.4952483" lon="8.72692"><ele>152.0</ele><time>2026-03-22T14:37:38.207Z</time></trkpt><trkpt lat="45.495315" lon="8.7270383"><ele>152.33333333333331</ele><time>2026-03-22T14:37:39.207Z</time></trkpt><trkpt lat="45.4953667" lon="8.7271333"><ele>152.66666666666666</ele><time>2026-03-22T14:37:40.207Z</time></trkpt><trkpt lat="45.4954183" lon="8.7272217"><ele>153.0</ele><time>2026-03-22T14:37:41.207Z</time></trkpt><trkpt lat="45.4954683" lon="8.7273117"><ele>153.33333333333334</ele><time>2026-03-22T14:37:42.207Z</time></trkpt><trkpt lat="45.49551" lon="8.72738"><ele>153.66666666666669</ele><time>2026-03-22T14:37:43.207Z</time></trkpt><trkpt lat="45.495585" lon="8.7274983"><ele>154.0</ele><time>2026-03-22T14:37:45.207Z</time></trkpt><trkpt lat="45.4956583" lon="8.7275467"><ele>154.2</ele><time>2026-03-22T14:37:47.207Z</time></trkpt><trkpt lat="45.4957317" lon="8.7275067"><ele>154.4</ele><time>2026-03-22T14:37:49.207Z</time></trkpt><trkpt lat="45.4958183" lon="8.7273633"><ele>154.6</ele><time>2026-03-22T14:37:51.207Z</time></trkpt><trkpt lat="45.49587" lon="8.7272433"><ele>154.8</ele><time>2026-03-22T14:37:52.207Z</time></trkpt><trkpt lat="45.49593" lon="8.727105"><ele>155.0</ele><time>2026-03-22T14:37:53.207Z</time></trkpt><trkpt lat="45.4960033" lon="8.72695"><ele>154.0</ele><time>2026-03-22T14:37:54.207Z</time></trkpt><trkpt lat="45.496085" lon="8.7267767"><ele>153.0</ele><time>2026-03-22T14:37:55.207Z</time></trkpt><trkpt lat="45.496185" lon="8.7266033"><ele>152.0</ele><time>2026-03-22T14:37:56.207Z</time></trkpt><trkpt lat="45.4962783" lon="8.726425"><ele>152.0</ele><time>2026-03-22T14:37:57.207Z</time></trkpt><trkpt lat="45.496375" lon="8.7262433"><ele>152.0</ele><time>2026-03-22T14:37:58.207Z</time></trkpt><trkpt lat="45.4964717" lon="8.7260517"><ele>152.0</ele><time>2026-03-22T14:37:59.207Z</time></trkpt><trkpt lat="45.4965683" lon="8.7258583"><ele>152.0</ele><time>2026-03-22T14:38:00.207Z</time></trkpt><trkpt lat="45.4966633" lon="8.725675"><ele>152.0</ele><time>2026-03-22T14:38:01.207Z</time></trkpt><trkpt lat="45.4967583" lon="8.7255133"><ele>152.0</ele><time>2026-03-22T14:38:02.207Z</time></trkpt><trkpt lat="45.4968567" lon="8.7253483"><ele>151.0</ele><time>2026-03-22T14:38:03.207Z</time></trkpt><trkpt lat="45.49695" lon="8.72518"><ele>150.0</ele><time>2026-03-22T14:38:04.207Z</time></trkpt><trkpt lat="45.4970217" lon="8.7250183"><ele>149.0</ele><time>2026-03-22T14:38:05.207Z</time></trkpt><trkpt lat="45.4970933" lon="8.7248683"><ele>148.0</ele><time>2026-03-22T14:38:06.207Z</time></trkpt><trkpt lat="45.4971717" lon="8.7247317"><ele>149.0</ele><time>2026-03-22T14:38:07.207Z</time></trkpt><trkpt lat="45.4972433" lon="8.7245917"><ele>150.0</ele><time>2026-03-22T14:38:08.207Z</time></trkpt><trkpt lat="45.4973083" lon="8.724455"><ele>151.0</ele><time>2026-03-22T14:38:09.207Z</time></trkpt><trkpt lat="45.497375" lon="8.7243217"><ele>152.0</ele><time>2026-03-22T14:38:10.207Z</time></trkpt><trkpt lat="45.497445" lon="8.7242"><ele>152.0</ele><time>2026-03-22T14:38:11.207Z</time></trkpt><trkpt lat="45.497505" lon="8.7240817"><ele>152.0</ele><time>2026-03-22T14:38:12.207Z</time></trkpt><trkpt lat="45.4975633" lon="8.7239767"><ele>152.0</ele><time>2026-03-22T14:38:13.207Z</time></trkpt><trkpt lat="45.4976167" lon="8.7238617"><ele>152.0</ele><time>2026-03-22T14:38:14.207Z</time></trkpt><trkpt lat="45.4976767" lon="8.72373"><ele>152.0</ele><time>2026-03-22T14:38:15.207Z</time></trkpt><trkpt lat="45.497705" lon="8.7235867"><ele>151.4</ele><time>2026-03-22T14:38:16.207Z</time></trkpt><trkpt lat="45.4977233" lon="8.7234367"><ele>150.79999999999998</ele><time>2026-03-22T14:38:17.207Z</time></trkpt><trkpt lat="45.497715" lon="8.7233067"><ele>150.2</ele><time>2026-03-22T14:38:18.207Z</time></trkpt><trkpt lat="45.4977033" lon="8.7231933"><ele>149.6</ele><time>2026-03-22T14:38:19.207Z</time></trkpt><trkpt lat="45.4977167" lon="8.7230217"><ele>149.0</ele><time>2026-03-22T14:38:21.207Z</time></trkpt><trkpt lat="45.49776" lon="8.72294"><ele>149.0</ele><time>2026-03-22T14:38:22.207Z</time></trkpt><trkpt lat="45.497835" lon="8.722855"><ele>149.0</ele><time>2026-03-22T14:38:23.207Z</time></trkpt><trkpt lat="45.4979617" lon="8.7227533"><ele>149.0</ele><time>2026-03-22T14:38:24.207Z</time></trkpt><trkpt lat="45.4980983" lon="8.7226183"><ele>149.0</ele><time>2026-03-22T14:38:25.207Z</time></trkpt><trkpt lat="45.49824" lon="8.7224933"><ele>152.33333333333331</ele><time>2026-03-22T14:38:26.207Z</time></trkpt><trkpt lat="45.4983683" lon="8.7223667"><ele>155.66666666666666</ele><time>2026-03-22T14:38:27.207Z</time></trkpt><trkpt lat="45.4984983" lon="8.7222433"><ele>159.0</ele><time>2026-03-22T14:38:28.207Z</time></trkpt><trkpt lat="45.4986433" lon="8.7221133"><ele>158.66666666666666</ele><time>2026-03-22T14:38:29.207Z</time></trkpt><trkpt lat="45.49878" lon="8.7219833"><ele>158.33333333333331</ele><time>2026-03-22T14:38:30.207Z</time></trkpt><trkpt lat="45.4989183" lon="8.7218517"><ele>158.0</ele><time>2026-03-22T14:38:31.205Z</time></trkpt><trkpt lat="45.4990583" lon="8.7217183"><ele>157.66666666666666</ele><time>2026-03-22T14:38:32.207Z</time></trkpt><trkpt lat="45.4991933" lon="8.7215967"><ele>157.33333333333334</ele><time>2026-03-22T14:38:33.207Z</time></trkpt><trkpt lat="45.499325" lon="8.7214617"><ele>157.0</ele><time>2026-03-22T14:38:34.207Z</time></trkpt><trkpt lat="45.4994517" lon="8.7213517"><ele>157.0</ele><time>2026-03-22T14:38:35.207Z</time></trkpt><trkpt lat="45.4995683" lon="8.7212333"><ele>157.0</ele><time>2026-03-22T14:38:36.207Z</time></trkpt><trkpt lat="45.4996917" lon="8.72113"><ele>157.0</ele><time>2026-03-22T14:38:37.207Z</time></trkpt><trkpt lat="45.4998117" lon="8.721025"><ele>157.0</ele><time>2026-03-22T14:38:38.207Z</time></trkpt><trkpt lat="45.4999333" lon="8.7209283"><ele>157.0</ele><time>2026-03-22T14:38:39.207Z</time></trkpt><trkpt lat="45.5000533" lon="8.7208217"><ele>157.0</ele><time>2026-03-22T14:38:40.207Z</time></trkpt><trkpt lat="45.5001683" lon="8.7207017"><ele>157.0</ele><time>2026-03-22T14:38:41.207Z</time></trkpt><trkpt lat="45.50028" lon="8.7205933"><ele>157.0</ele><time>2026-03-22T14:38:42.207Z</time></trkpt><trkpt lat="45.5003967" lon="8.7204867"><ele>157.4</ele><time>2026-03-22T14:38:43.207Z</time></trkpt><trkpt lat="45.5004967" lon="8.7203967"><ele>157.79999999999998</ele><time>2026-03-22T14:38:44.207Z</time></trkpt><trkpt lat="45.5005883" lon="8.7203133"><ele>158.2</ele><time>2026-03-22T14:38:45.207Z</time></trkpt><trkpt lat="45.5006783" lon="8.7202417"><ele>158.6</ele><time>2026-03-22T14:38:46.207Z</time></trkpt><trkpt lat="45.5007667" lon="8.7201717"><ele>159.0</ele><time>2026-03-22T14:38:47.207Z</time></trkpt><trkpt lat="45.50085" lon="8.720105"><ele>159.16666666666666</ele><time>2026-03-22T14:38:48.207Z</time></trkpt><trkpt lat="45.5009167" lon="8.7200383"><ele>159.33333333333334</ele><time>2026-03-22T14:38:49.207Z</time></trkpt><trkpt lat="45.5009717" lon="8.7199783"><ele>159.5</ele><time>2026-03-22T14:38:50.207Z</time></trkpt><trkpt lat="45.501025" lon="8.7199283"><ele>159.66666666666669</ele><time>2026-03-22T14:38:51.207Z</time></trkpt><trkpt lat="45.5011117" lon="8.7198633"><ele>159.83333333333334</ele><time>2026-03-22T14:38:53.207Z</time></trkpt><trkpt lat="45.5012317" lon="8.7198383"><ele>160.0</ele><time>2026-03-22T14:38:55.207Z</time></trkpt><trkpt lat="45.5013217" lon="8.7198483"><ele>161.25</ele><time>2026-03-22T14:38:56.207Z</time></trkpt><trkpt lat="45.5014483" lon="8.7198683"><ele>162.5</ele><time>2026-03-22T14:38:57.207Z</time></trkpt><trkpt lat="45.50158" lon="8.719885"><ele>163.75</ele><time>2026-03-22T14:38:58.207Z</time></trkpt><trkpt lat="45.5017217" lon="8.7199183"><ele>165.0</ele><time>2026-03-22T14:38:59.207Z</time></trkpt><trkpt lat="45.5018767" lon="8.7199367"><ele>165.0</ele><time>2026-03-22T14:39:00.207Z</time></trkpt><trkpt lat="45.5020167" lon="8.7199483"><ele>165.0</ele><time>2026-03-22T14:39:01.207Z</time></trkpt><trkpt lat="45.5021717" lon="8.719965"><ele>165.0</ele><time>2026-03-22T14:39:02.207Z</time></trkpt><trkpt lat="45.5023333" lon="8.7199817"><ele>165.0</ele><time>2026-03-22T14:39:03.207Z</time></trkpt><trkpt lat="45.502495" lon="8.7200117"><ele>165.0</ele><time>2026-03-22T14:39:04.207Z</time></trkpt><trkpt lat="45.5026483" lon="8.7200267"><ele>165.0</ele><time>2026-03-22T14:39:05.207Z</time></trkpt><trkpt lat="45.5028" lon="8.7200383"><ele>164.0</ele><time>2026-03-22T14:39:06.207Z</time></trkpt><trkpt lat="45.5029567" lon="8.7200517"><ele>163.0</ele><time>2026-03-22T14:39:07.207Z</time></trkpt><trkpt lat="45.503105" lon="8.7200633"><ele>162.0</ele><time>2026-03-22T14:39:08.207Z</time></trkpt><trkpt lat="45.503255" lon="8.7200633"><ele>162.0</ele><time>2026-03-22T14:39:09.207Z</time></trkpt><trkpt lat="45.5034133" lon="8.7200733"><ele>162.0</ele><time>2026-03-22T14:39:10.207Z</time></trkpt><trkpt lat="45.5035667" lon="8.7200817"><ele>162.0</ele><time>2026-03-22T14:39:11.207Z</time></trkpt><trkpt lat="45.50372" lon="8.72009"><ele>157.0</ele><time>2026-03-22T14:39:12.207Z</time></trkpt><trkpt lat="45.5038717" lon="8.7200817"><ele>152.0</ele><time>2026-03-22T14:39:13.207Z</time></trkpt><trkpt lat="45.50402" lon="8.72003"><ele>147.0</ele><time>2026-03-22T14:39:14.207Z</time></trkpt><trkpt lat="45.504165" lon="8.719945"><ele>147.0</ele><time>2026-03-22T14:39:15.207Z</time></trkpt><trkpt lat="45.50429" lon="8.7198217"><ele>147.0</ele><time>2026-03-22T14:39:16.207Z</time></trkpt><trkpt lat="45.5045383" lon="8.719575"><ele>146.0</ele><time>2026-03-22T14:39:18.207Z</time></trkpt><trkpt lat="45.5046633" lon="8.71945"><ele>145.0</ele><time>2026-03-22T14:39:19.207Z</time></trkpt><trkpt lat="45.504785" lon="8.7193167"><ele>144.0</ele><time>2026-03-22T14:39:20.207Z</time></trkpt><trkpt lat="45.5049017" lon="8.7191933"><ele>144.0</ele><time>2026-03-22T14:39:21.207Z</time></trkpt><trkpt lat="45.50502" lon="8.7190733"><ele>144.0</ele><time>2026-03-22T14:39:22.207Z</time></trkpt><trkpt lat="45.5051517" lon="8.7189583"><ele>144.0</ele><time>2026-03-22T14:39:23.207Z</time></trkpt><trkpt lat="45.5052783" lon="8.7188533"><ele>144.0</ele><time>2026-03-22T14:39:24.207Z</time></trkpt><trkpt lat="45.50541" lon="8.7187317"><ele>142.25</ele><time>2026-03-22T14:39:25.207Z</time></trkpt><trkpt lat="45.5055433" lon="8.7186117"><ele>140.5</ele><time>2026-03-22T14:39:26.207Z</time></trkpt><trkpt lat="45.50567" lon="8.7185033"><ele>138.75</ele><time>2026-03-22T14:39:27.207Z</time></trkpt><trkpt lat="45.5057933" lon="8.7184"><ele>137.0</ele><time>2026-03-22T14:39:28.207Z</time></trkpt><trkpt lat="45.5059083" lon="8.7182983"><ele>137.0</ele><time>2026-03-22T14:39:29.207Z</time></trkpt><trkpt lat="45.5060233" lon="8.7182117"><ele>137.0</ele><time>2026-03-22T14:39:30.207Z</time></trkpt><trkpt lat="45.506135" lon="8.71817"><ele>137.0</ele><time>2026-03-22T14:39:31.208Z</time></trkpt><trkpt lat="45.5062517" lon="8.7181667"><ele>137.0</ele><time>2026-03-22T14:39:32.207Z</time></trkpt><trkpt lat="45.50638" lon="8.718235"><ele>136.33333333333331</ele><time>2026-03-22T14:39:33.207Z</time></trkpt><trkpt lat="45.5065117" lon="8.718345"><ele>135.66666666666666</ele><time>2026-03-22T14:39:34.207Z</time></trkpt><trkpt lat="45.5066583" lon="8.71847"><ele>135.0</ele><time>2026-03-22T14:39:35.207Z</time></trkpt><trkpt lat="45.5068017" lon="8.7186067"><ele>134.33333333333334</ele><time>2026-03-22T14:39:36.207Z</time></trkpt><trkpt lat="45.506945" lon="8.7187317"><ele>133.66666666666669</ele><time>2026-03-22T14:39:37.207Z</time></trkpt><trkpt lat="45.5070867" lon="8.718855"><ele>133.0</ele><time>2026-03-22T14:39:38.207Z</time></trkpt><trkpt lat="45.5072233" lon="8.7189583"><ele>133.0</ele><time>2026-03-22T14:39:39.207Z</time></trkpt><trkpt lat="45.5073667" lon="8.719075"><ele>133.0</ele><time>2026-03-22T14:39:40.207Z</time></trkpt><trkpt lat="45.507495" lon="8.71919"><ele>133.0</ele><time>2026-03-22T14:39:41.207Z</time></trkpt><trkpt lat="45.5076083" lon="8.7193017"><ele>133.0</ele><time>2026-03-22T14:39:42.207Z</time></trkpt><trkpt lat="45.507725" lon="8.7194"><ele>133.0</ele><time>2026-03-22T14:39:43.207Z</time></trkpt><trkpt lat="45.50784" lon="8.7194967"><ele>133.0</ele><time>2026-03-22T14:39:44.207Z</time></trkpt><trkpt lat="45.50795" lon="8.7195667"><ele>133.0</ele><time>2026-03-22T14:39:45.207Z</time></trkpt><trkpt lat="45.5080667" lon="8.719595"><ele>132.25</ele><time>2026-03-22T14:39:46.207Z</time></trkpt><trkpt lat="45.5081733" lon="8.7196333"><ele>131.5</ele><time>2026-03-22T14:39:47.207Z</time></trkpt><trkpt lat="45.5082767" lon="8.7196983"><ele>130.75</ele><time>2026-03-22T14:39:48.207Z</time></trkpt><trkpt lat="45.5083817" lon="8.7197967"><ele>130.0</ele><time>2026-03-22T14:39:49.207Z</time></trkpt><trkpt lat="45.5084867" lon="8.7199033"><ele>130.0</ele><time>2026-03-22T14:39:50.207Z</time></trkpt><trkpt lat="45.508585" lon="8.7200033"><ele>130.0</ele><time>2026-03-22T14:39:51.207Z</time></trkpt><trkpt lat="45.5087017" lon="8.7201017"><ele>130.0</ele><time>2026-03-22T14:39:52.207Z</time></trkpt><trkpt lat="45.508805" lon="8.7201967"><ele>130.0</ele><time>2026-03-22T14:39:53.207Z</time></trkpt><trkpt lat="45.5089067" lon="8.72029"><ele>130.6</ele><time>2026-03-22T14:39:54.207Z</time></trkpt><trkpt lat="45.5090067" lon="8.7203867"><ele>131.2</ele><time>2026-03-22T14:39:55.207Z</time></trkpt><trkpt lat="45.5091033" lon="8.7204783"><ele>131.8</ele><time>2026-03-22T14:39:56.207Z</time></trkpt><trkpt lat="45.5091917" lon="8.7205617"><ele>132.4</ele><time>2026-03-22T14:39:57.207Z</time></trkpt><trkpt lat="45.50928" lon="8.72064"><ele>133.0</ele><time>2026-03-22T14:39:58.207Z</time></trkpt><trkpt lat="45.5093633" lon="8.7206833"><ele>133.0</ele><time>2026-03-22T14:39:59.207Z</time></trkpt><trkpt lat="45.50943" lon="8.720685"><ele>133.0</ele><time>2026-03-22T14:40:00.207Z</time></trkpt><trkpt lat="45.5095367" lon="8.720725"><ele>133.0</ele><time>2026-03-22T14:40:01.207Z</time></trkpt><trkpt lat="45.50966" lon="8.7208083"><ele>133.0</ele><time>2026-03-22T14:40:02.207Z</time></trkpt><trkpt lat="45.5097983" lon="8.7208883"><ele>133.33333333333334</ele><time>2026-03-22T14:40:03.207Z</time></trkpt><trkpt lat="45.5099417" lon="8.7209917"><ele>133.66666666666666</ele><time>2026-03-22T14:40:04.207Z</time></trkpt><trkpt lat="45.5100767" lon="8.7211033"><ele>134.0</ele><time>2026-03-22T14:40:05.207Z</time></trkpt><trkpt lat="45.5102133" lon="8.7212233"><ele>134.0</ele><time>2026-03-22T14:40:06.207Z</time></trkpt><trkpt lat="45.510355" lon="8.7213417"><ele>134.0</ele><time>2026-03-22T14:40:07.207Z</time></trkpt><trkpt lat="45.5105" lon="8.7214733"><ele>134.0</ele><time>2026-03-22T14:40:08.207Z</time></trkpt><trkpt lat="45.5106533" lon="8.7216083"><ele>134.0</ele><time>2026-03-22T14:40:09.207Z</time></trkpt><trkpt lat="45.510805" lon="8.7217417"><ele>134.0</ele><time>2026-03-22T14:40:10.207Z</time></trkpt><trkpt lat="45.5109633" lon="8.7218767"><ele>134.0</ele><time>2026-03-22T14:40:11.207Z</time></trkpt><trkpt lat="45.5111133" lon="8.72202"><ele>134.5</ele><time>2026-03-22T14:40:12.207Z</time></trkpt><trkpt lat="45.511265" lon="8.7221483"><ele>135.0</ele><time>2026-03-22T14:40:13.207Z</time></trkpt><trkpt lat="45.51158" lon="8.7224283"><ele>135.0</ele><time>2026-03-22T14:40:15.207Z</time></trkpt><trkpt lat="45.5117433" lon="8.722575"><ele>135.0</ele><time>2026-03-22T14:40:16.207Z</time></trkpt><trkpt lat="45.5118983" lon="8.72272"><ele>135.0</ele><time>2026-03-22T14:40:17.207Z</time></trkpt><trkpt lat="45.5120633" lon="8.72288"><ele>135.66666666666666</ele><time>2026-03-22T14:40:18.207Z</time></trkpt><trkpt lat="45.5122233" lon="8.7230283"><ele>136.33333333333331</ele><time>2026-03-22T14:40:19.207Z</time></trkpt><trkpt lat="45.5123833" lon="8.7231817"><ele>137.0</ele><time>2026-03-22T14:40:20.207Z</time></trkpt><trkpt lat="45.5126933" lon="8.7234783"><ele>136.66666666666666</ele><time>2026-03-22T14:40:22.207Z</time></trkpt><trkpt lat="45.5128383" lon="8.7236167"><ele>136.33333333333334</ele><time>2026-03-22T14:40:23.207Z</time></trkpt><trkpt lat="45.5129817" lon="8.7237467"><ele>136.0</ele><time>2026-03-22T14:40:24.207Z</time></trkpt><trkpt lat="45.5131283" lon="8.7238783"><ele>135.33333333333334</ele><time>2026-03-22T14:40:25.207Z</time></trkpt><trkpt lat="45.5132733" lon="8.72401"><ele>134.66666666666666</ele><time>2026-03-22T14:40:26.207Z</time></trkpt><trkpt lat="45.513425" lon="8.724135"><ele>134.0</ele><time>2026-03-22T14:40:27.207Z</time></trkpt><trkpt lat="45.513575" lon="8.724265"><ele>134.33333333333331</ele><time>2026-03-22T14:40:28.207Z</time></trkpt><trkpt lat="45.5137167" lon="8.7244083"><ele>134.66666666666666</ele><time>2026-03-22T14:40:29.207Z</time></trkpt><trkpt lat="45.5138633" lon="8.7245483"><ele>135.0</ele><time>2026-03-22T14:40:30.207Z</time></trkpt><trkpt lat="45.5140083" lon="8.72468"><ele>135.0</ele><time>2026-03-22T14:40:31.207Z</time></trkpt><trkpt lat="45.5141567" lon="8.7248133"><ele>135.0</ele><time>2026-03-22T14:40:32.207Z</time></trkpt><trkpt lat="45.5143067" lon="8.72494"><ele>135.0</ele><time>2026-03-22T14:40:33.207Z</time></trkpt><trkpt lat="45.5144583" lon="8.7250783"><ele>135.66666666666666</ele><time>2026-03-22T14:40:34.207Z</time></trkpt><trkpt lat="45.5146067" lon="8.7252117"><ele>136.33333333333331</ele><time>2026-03-22T14:40:35.207Z</time></trkpt><trkpt lat="45.5147567" lon="8.7253433"><ele>137.0</ele><time>2026-03-22T14:40:36.207Z</time></trkpt><trkpt lat="45.5149067" lon="8.72548"><ele>137.0</ele><time>2026-03-22T14:40:37.207Z</time></trkpt><trkpt lat="45.5150633" lon="8.7256167"><ele>137.0</ele><time>2026-03-22T14:40:38.207Z</time></trkpt><trkpt lat="45.5152083" lon="8.725755"><ele>137.0</ele><time>2026-03-22T14:40:39.207Z</time></trkpt><trkpt lat="45.5153567" lon="8.7258967"><ele>136.66666666666666</ele><time>2026-03-22T14:40:40.207Z</time></trkpt><trkpt lat="45.515505" lon="8.7260333"><ele>136.33333333333334</ele><time>2026-03-22T14:40:41.207Z</time></trkpt><trkpt lat="45.5156533" lon="8.7261583"><ele>136.0</ele><time>2026-03-22T14:40:42.207Z</time></trkpt><trkpt lat="45.51581" lon="8.7262783"><ele>136.0</ele><time>2026-03-22T14:40:43.207Z</time></trkpt><trkpt lat="45.5159767" lon="8.7263833"><ele>136.0</ele><time>2026-03-22T14:40:44.207Z</time></trkpt><trkpt lat="45.51615" lon="8.7264633"><ele>136.0</ele><time>2026-03-22T14:40:45.207Z</time></trkpt><trkpt lat="45.5163283" lon="8.7265133"><ele>135.0</ele><time>2026-03-22T14:40:46.207Z</time></trkpt><trkpt lat="45.5165017" lon="8.72655"><ele>134.0</ele><time>2026-03-22T14:40:47.207Z</time></trkpt><trkpt lat="45.516675" lon="8.726585"><ele>133.0</ele><time>2026-03-22T14:40:48.207Z</time></trkpt><trkpt lat="45.5168583" lon="8.72661"><ele>133.0</ele><time>2026-03-22T14:40:49.207Z</time></trkpt><trkpt lat="45.51704" lon="8.7266333"><ele>133.0</ele><time>2026-03-22T14:40:50.207Z</time></trkpt><trkpt lat="45.5172267" lon="8.7266517"><ele>133.0</ele><time>2026-03-22T14:40:51.207Z</time></trkpt><trkpt lat="45.517405" lon="8.7266817"><ele>133.66666666666669</ele><time>2026-03-22T14:40:52.207Z</time></trkpt><trkpt lat="45.517585" lon="8.7267183"><ele>134.33333333333334</ele><time>2026-03-22T14:40:53.207Z</time></trkpt><trkpt lat="45.51777" lon="8.7267417"><ele>135.0</ele><time>2026-03-22T14:40:54.207Z</time></trkpt><trkpt lat="45.5179533" lon="8.7267767"><ele>135.0</ele><time>2026-03-22T14:40:55.207Z</time></trkpt><trkpt lat="45.51814" lon="8.7268083"><ele>135.0</ele><time>2026-03-22T14:40:56.207Z</time></trkpt><trkpt lat="45.5183183" lon="8.72683"><ele>135.0</ele><time>2026-03-22T14:40:57.207Z</time></trkpt><trkpt lat="45.5185067" lon="8.7268667"><ele>135.0</ele><time>2026-03-22T14:40:58.207Z</time></trkpt><trkpt lat="45.5186867" lon="8.726885"><ele>135.0</ele><time>2026-03-22T14:40:59.207Z</time></trkpt><trkpt lat="45.5188667" lon="8.7269167"><ele>135.0</ele><time>2026-03-22T14:41:00.207Z</time></trkpt><trkpt lat="45.5190383" lon="8.72696"><ele>134.66666666666666</ele><time>2026-03-22T14:41:01.207Z</time></trkpt><trkpt lat="45.51922" lon="8.7269933"><ele>134.33333333333331</ele><time>2026-03-22T14:41:02.207Z</time></trkpt><trkpt lat="45.5194017" lon="8.7270233"><ele>134.0</ele><time>2026-03-22T14:41:03.207Z</time></trkpt><trkpt lat="45.51959" lon="8.727055"><ele>134.0</ele><time>2026-03-22T14:41:04.207Z</time></trkpt><trkpt lat="45.519775" lon="8.72708"><ele>134.0</ele><time>2026-03-22T14:41:05.207Z</time></trkpt><trkpt lat="45.5199633" lon="8.7271067"><ele>134.0</ele><time>2026-03-22T14:41:06.208Z</time></trkpt><trkpt lat="45.520155" lon="8.72713"><ele>134.0</ele><time>2026-03-22T14:41:07.207Z</time></trkpt><trkpt lat="45.5203417" lon="8.7271533"><ele>134.0</ele><time>2026-03-22T14:41:08.207Z</time></trkpt><trkpt lat="45.52052" lon="8.72719"><ele>134.0</ele><time>2026-03-22T14:41:09.207Z</time></trkpt><trkpt lat="45.5207083" lon="8.7272267"><ele>134.0</ele><time>2026-03-22T14:41:10.207Z</time></trkpt><trkpt lat="45.520885" lon="8.7272567"><ele>134.0</ele><time>2026-03-22T14:41:11.207Z</time></trkpt><trkpt lat="45.521065" lon="8.7272867"><ele>134.0</ele><time>2026-03-22T14:41:12.207Z</time></trkpt><trkpt lat="45.5212417" lon="8.7273283"><ele>134.33333333333331</ele><time>2026-03-22T14:41:13.207Z</time></trkpt><trkpt lat="45.5214267" lon="8.72736"><ele>134.66666666666666</ele><time>2026-03-22T14:41:14.207Z</time></trkpt><trkpt lat="45.5216167" lon="8.727395"><ele>135.0</ele><time>2026-03-22T14:41:15.207Z</time></trkpt><trkpt lat="45.52179" lon="8.7274217"><ele>135.0</ele><time>2026-03-22T14:41:16.207Z</time></trkpt><trkpt lat="45.5219733" lon="8.727455"><ele>135.0</ele><time>2026-03-22T14:41:17.207Z</time></trkpt><trkpt lat="45.522145" lon="8.7274783"><ele>135.0</ele><time>2026-03-22T14:41:18.207Z</time></trkpt><trkpt lat="45.5223267" lon="8.7275083"><ele>135.0</ele><time>2026-03-22T14:41:19.207Z</time></trkpt><trkpt lat="45.5225033" lon="8.7275317"><ele>135.0</ele><time>2026-03-22T14:41:20.207Z</time></trkpt><trkpt lat="45.522675" lon="8.7275567"><ele>135.0</ele><time>2026-03-22T14:41:21.207Z</time></trkpt><trkpt lat="45.52284" lon="8.7275833"><ele>135.0</ele><time>2026-03-22T14:41:22.207Z</time></trkpt><trkpt lat="45.5230033" lon="8.7276067"><ele>135.0</ele><time>2026-03-22T14:41:23.207Z</time></trkpt><trkpt lat="45.523175" lon="8.7276333"><ele>135.0</ele><time>2026-03-22T14:41:24.207Z</time></trkpt><trkpt lat="45.5233517" lon="8.72766"><ele>135.0</ele><time>2026-03-22T14:41:25.207Z</time></trkpt><trkpt lat="45.5235267" lon="8.7276933"><ele>135.0</ele><time>2026-03-22T14:41:26.207Z</time></trkpt><trkpt lat="45.523695" lon="8.7277233"><ele>135.0</ele><time>2026-03-22T14:41:27.207Z</time></trkpt><trkpt lat="45.5238617" lon="8.7277517"><ele>136.0</ele><time>2026-03-22T14:41:28.207Z</time></trkpt><trkpt lat="45.524025" lon="8.727785"><ele>137.0</ele><time>2026-03-22T14:41:29.207Z</time></trkpt><trkpt lat="45.5241833" lon="8.7278083"><ele>138.0</ele><time>2026-03-22T14:41:30.207Z</time></trkpt><trkpt lat="45.5243283" lon="8.7278417"><ele>138.0</ele><time>2026-03-22T14:41:31.206Z</time></trkpt><trkpt lat="45.5244717" lon="8.7278583"><ele>138.0</ele><time>2026-03-22T14:41:32.206Z</time></trkpt><trkpt lat="45.5246" lon="8.7278783"><ele>138.0</ele><time>2026-03-22T14:41:33.206Z</time></trkpt><trkpt lat="45.5247133" lon="8.727905"><ele>138.0</ele><time>2026-03-22T14:41:34.206Z</time></trkpt><trkpt lat="45.524815" lon="8.7279367"><ele>137.5</ele><time>2026-03-22T14:41:35.206Z</time></trkpt><trkpt lat="45.5249083" lon="8.7280067"><ele>137.0</ele><time>2026-03-22T14:41:36.206Z</time></trkpt><trkpt lat="45.5249967" lon="8.7281267"><ele>136.5</ele><time>2026-03-22T14:41:37.206Z</time></trkpt><trkpt lat="45.5250883" lon="8.7282667"><ele>136.0</ele><time>2026-03-22T14:41:38.206Z</time></trkpt><trkpt lat="45.525185" lon="8.72841"><ele>136.0</ele><time>2026-03-22T14:41:39.206Z</time></trkpt><trkpt lat="45.5252817" lon="8.7285567"><ele>136.0</ele><time>2026-03-22T14:41:40.206Z</time></trkpt><trkpt lat="45.5253783" lon="8.7287183"><ele>136.0</ele><time>2026-03-22T14:41:41.206Z</time></trkpt><trkpt lat="45.5254667" lon="8.7288917"><ele>136.0</ele><time>2026-03-22T14:41:42.206Z</time></trkpt><trkpt lat="45.5255533" lon="8.7290683"><ele>135.33333333333334</ele><time>2026-03-22T14:41:43.206Z</time></trkpt><trkpt lat="45.52564" lon="8.7292617"><ele>134.66666666666666</ele><time>2026-03-22T14:41:44.206Z</time></trkpt><trkpt lat="45.525735" lon="8.7294383"><ele>134.0</ele><time>2026-03-22T14:41:45.206Z</time></trkpt><trkpt lat="45.52583" lon="8.7296233"><ele>133.66666666666666</ele><time>2026-03-22T14:41:46.206Z</time></trkpt><trkpt lat="45.5259167" lon="8.7298067"><ele>133.33333333333334</ele><time>2026-03-22T14:41:47.206Z</time></trkpt><trkpt lat="45.526005" lon="8.7299733"><ele>133.0</ele><time>2026-03-22T14:41:48.206Z</time></trkpt><trkpt lat="45.526195" lon="8.7303233"><ele>134.0</ele><time>2026-03-22T14:41:50.206Z</time></trkpt><trkpt lat="45.5262933" lon="8.73049"><ele>135.0</ele><time>2026-03-22T14:41:51.206Z</time></trkpt><trkpt lat="45.5264033" lon="8.7306533"><ele>136.0</ele><time>2026-03-22T14:41:52.206Z</time></trkpt><trkpt lat="45.5265083" lon="8.7308117"><ele>136.0</ele><time>2026-03-22T14:41:53.206Z</time></trkpt><trkpt lat="45.52661" lon="8.7309667"><ele>136.0</ele><time>2026-03-22T14:41:54.206Z</time></trkpt><trkpt lat="45.5267117" lon="8.7311283"><ele>136.0</ele><time>2026-03-22T14:41:55.206Z</time></trkpt><trkpt lat="45.5268217" lon="8.7312917"><ele>137.0</ele><time>2026-03-22T14:41:56.206Z</time></trkpt><trkpt lat="45.5269317" lon="8.7314467"><ele>138.0</ele><time>2026-03-22T14:41:57.206Z</time></trkpt><trkpt lat="45.5270433" lon="8.731605"><ele>139.0</ele><time>2026-03-22T14:41:58.206Z</time></trkpt><trkpt lat="45.5271583" lon="8.7317583"><ele>139.75</ele><time>2026-03-22T14:41:59.206Z</time></trkpt><trkpt lat="45.52727" lon="8.7319067"><ele>140.5</ele><time>2026-03-22T14:42:00.206Z</time></trkpt><trkpt lat="45.5273883" lon="8.7320317"><ele>141.25</ele><time>2026-03-22T14:42:01.206Z</time></trkpt><trkpt lat="45.52751" lon="8.7321333"><ele>142.0</ele><time>2026-03-22T14:42:02.206Z</time></trkpt><trkpt lat="45.5276167" lon="8.73223"><ele>142.0</ele><time>2026-03-22T14:42:03.206Z</time></trkpt><trkpt lat="45.5277217" lon="8.7323267"><ele>142.0</ele><time>2026-03-22T14:42:04.206Z</time></trkpt><trkpt lat="45.5278317" lon="8.7324233"><ele>142.0</ele><time>2026-03-22T14:42:05.206Z</time></trkpt><trkpt lat="45.5279433" lon="8.7325533"><ele>142.0</ele><time>2026-03-22T14:42:06.206Z</time></trkpt><trkpt lat="45.5280317" lon="8.7327017"><ele>141.75</ele><time>2026-03-22T14:42:07.206Z</time></trkpt><trkpt lat="45.5281267" lon="8.73285"><ele>141.5</ele><time>2026-03-22T14:42:08.206Z</time></trkpt><trkpt lat="45.5282217" lon="8.7330017"><ele>141.25</ele><time>2026-03-22T14:42:09.206Z</time></trkpt><trkpt lat="45.5283117" lon="8.73316"><ele>141.0</ele><time>2026-03-22T14:42:10.206Z</time></trkpt><trkpt lat="45.52839" lon="8.733315"><ele>141.0</ele><time>2026-03-22T14:42:11.206Z</time></trkpt><trkpt lat="45.5284583" lon="8.7334817"><ele>141.0</ele><time>2026-03-22T14:42:12.206Z</time></trkpt><trkpt lat="45.52849" lon="8.7336683"><ele>141.0</ele><time>2026-03-22T14:42:13.206Z</time></trkpt><trkpt lat="45.5284967" lon="8.73387"><ele>141.0</ele><time>2026-03-22T14:42:14.206Z</time></trkpt><trkpt lat="45.5285" lon="8.73408"><ele>141.75</ele><time>2026-03-22T14:42:15.206Z</time></trkpt><trkpt lat="45.5285167" lon="8.734285"><ele>142.5</ele><time>2026-03-22T14:42:16.206Z</time></trkpt><trkpt lat="45.5285283" lon="8.7344817"><ele>143.25</ele><time>2026-03-22T14:42:17.206Z</time></trkpt><trkpt lat="45.5285367" lon="8.73467"><ele>144.0</ele><time>2026-03-22T14:42:18.206Z</time></trkpt><trkpt lat="45.52855" lon="8.734865"><ele>145.0</ele><time>2026-03-22T14:42:19.206Z</time></trkpt><trkpt lat="45.5285683" lon="8.7350617"><ele>146.0</ele><time>2026-03-22T14:42:20.206Z</time></trkpt><trkpt lat="45.52858" lon="8.7352467"><ele>147.0</ele><time>2026-03-22T14:42:21.206Z</time></trkpt><trkpt lat="45.5285883" lon="8.7354217"><ele>148.0</ele><time>2026-03-22T14:42:22.206Z</time></trkpt><trkpt lat="45.528605" lon="8.7356133"><ele>148.0</ele><time>2026-03-22T14:42:23.206Z</time></trkpt><trkpt lat="45.5286267" lon="8.7358133"><ele>148.0</ele><time>2026-03-22T14:42:24.206Z</time></trkpt><trkpt lat="45.5286633" lon="8.7360233"><ele>148.0</ele><time>2026-03-22T14:42:25.206Z</time></trkpt><trkpt lat="45.5287083" lon="8.7362033"><ele>148.0</ele><time>2026-03-22T14:42:26.206Z</time></trkpt><trkpt lat="45.5287667" lon="8.7364267"><ele>148.0</ele><time>2026-03-22T14:42:27.206Z</time></trkpt><trkpt lat="45.52881" lon="8.7366183"><ele>148.0</ele><time>2026-03-22T14:42:28.206Z</time></trkpt><trkpt lat="45.52885" lon="8.7367833"><ele>148.0</ele><time>2026-03-22T14:42:29.206Z</time></trkpt><trkpt lat="45.52888" lon="8.7369417"><ele>148.0</ele><time>2026-03-22T14:42:30.206Z</time></trkpt><trkpt lat="45.52891" lon="8.7370933"><ele>148.4</ele><time>2026-03-22T14:42:31.206Z</time></trkpt><trkpt lat="45.5289467" lon="8.7372317"><ele>148.8</ele><time>2026-03-22T14:42:32.206Z</time></trkpt><trkpt lat="45.5289867" lon="8.7373733"><ele>149.2</ele><time>2026-03-22T14:42:33.206Z</time></trkpt><trkpt lat="45.5290283" lon="8.7375083"><ele>149.6</ele><time>2026-03-22T14:42:34.206Z</time></trkpt><trkpt lat="45.5290733" lon="8.7376417"><ele>150.0</ele><time>2026-03-22T14:42:35.206Z</time></trkpt><trkpt lat="45.5291167" lon="8.7377833"><ele>150.0</ele><time>2026-03-22T14:42:36.206Z</time></trkpt><trkpt lat="45.529185" lon="8.73791"><ele>150.0</ele><time>2026-03-22T14:42:37.206Z</time></trkpt><trkpt lat="45.5292533" lon="8.7380467"><ele>150.0</ele><time>2026-03-22T14:42:38.206Z</time></trkpt><trkpt lat="45.5293217" lon="8.7381667"><ele>150.0</ele><time>2026-03-22T14:42:39.206Z</time></trkpt><trkpt lat="45.5293983" lon="8.7382817"><ele>150.0</ele><time>2026-03-22T14:42:40.206Z</time></trkpt><trkpt lat="45.5294767" lon="8.7384033"><ele>150.0</ele><time>2026-03-22T14:42:41.206Z</time></trkpt><trkpt lat="45.5295417" lon="8.7385333"><ele>150.0</ele><time>2026-03-22T14:42:42.206Z</time></trkpt><trkpt lat="45.5296067" lon="8.738655"><ele>150.0</ele><time>2026-03-22T14:42:43.206Z</time></trkpt><trkpt lat="45.5296783" lon="8.7387867"><ele>150.0</ele><time>2026-03-22T14:42:44.206Z</time></trkpt><trkpt lat="45.52974" lon="8.7389017"><ele>150.0</ele><time>2026-03-22T14:42:45.206Z</time></trkpt><trkpt lat="45.529795" lon="8.7389983"><ele>149.83333333333334</ele><time>2026-03-22T14:42:46.206Z</time></trkpt><trkpt lat="45.5298433" lon="8.7390917"><ele>149.66666666666666</ele><time>2026-03-22T14:42:47.206Z</time></trkpt><trkpt lat="45.52989" lon="8.7391717"><ele>149.5</ele><time>2026-03-22T14:42:48.206Z</time></trkpt><trkpt lat="45.5299383" lon="8.7392383"><ele>149.33333333333331</ele><time>2026-03-22T14:42:49.206Z</time></trkpt><trkpt lat="45.5300183" lon="8.7393533"><ele>149.16666666666666</ele><time>2026-03-22T14:42:51.206Z</time></trkpt><trkpt lat="45.5300833" lon="8.73947"><ele>149.0</ele><time>2026-03-22T14:42:53.206Z</time></trkpt><trkpt lat="45.5301433" lon="8.739595"><ele>149.0</ele><time>2026-03-22T14:42:55.206Z</time></trkpt><trkpt lat="45.5302183" lon="8.73974"><ele>149.0</ele><time>2026-03-22T14:42:57.206Z</time></trkpt><trkpt lat="45.5302583" lon="8.73983"><ele>149.0</ele><time>2026-03-22T14:42:58.206Z</time></trkpt><trkpt lat="45.5303033" lon="8.7399383"><ele>149.0</ele><time>2026-03-22T14:42:59.206Z</time></trkpt><trkpt lat="45.5303633" lon="8.740045"><ele>149.0</ele><time>2026-03-22T14:43:00.206Z</time></trkpt><trkpt lat="45.5304083" lon="8.7401317"><ele>149.2</ele><time>2026-03-22T14:43:01.206Z</time></trkpt><trkpt lat="45.5304367" lon="8.7402583"><ele>149.4</ele><time>2026-03-22T14:43:03.206Z</time></trkpt><trkpt lat="45.5303733" lon="8.7403917"><ele>149.6</ele><time>2026-03-22T14:43:05.206Z</time></trkpt><trkpt lat="45.5302883" lon="8.74045"><ele>149.8</ele><time>2026-03-22T14:43:06.206Z</time></trkpt><trkpt lat="45.530205" lon="8.7405167"><ele>150.0</ele><time>2026-03-22T14:43:07.206Z</time></trkpt><trkpt lat="45.5301217" lon="8.74059"><ele>150.0</ele><time>2026-03-22T14:43:08.206Z</time></trkpt><trkpt lat="45.5300367" lon="8.7406617"><ele>150.0</ele><time>2026-03-22T14:43:09.206Z</time></trkpt><trkpt lat="45.5299667" lon="8.7407217"><ele>150.0</ele><time>2026-03-22T14:43:10.206Z</time></trkpt><trkpt lat="45.5299017" lon="8.7407533"><ele>150.0</ele><time>2026-03-22T14:43:11.206Z</time></trkpt><trkpt lat="45.5297833" lon="8.740755"><ele>150.0</ele><time>2026-03-22T14:43:13.206Z</time></trkpt><trkpt lat="45.5296967" lon="8.7407233"><ele>150.0</ele><time>2026-03-22T14:43:14.206Z</time></trkpt><trkpt lat="45.5296067" lon="8.740715"><ele>150.0</ele><time>2026-03-22T14:43:15.206Z</time></trkpt><trkpt lat="45.5295183" lon="8.7407333"><ele>150.0</ele><time>2026-03-22T14:43:16.206Z</time></trkpt><trkpt lat="45.5294367" lon="8.7407983"><ele>150.0</ele><time>2026-03-22T14:43:17.206Z</time></trkpt><trkpt lat="45.5293717" lon="8.7409167"><ele>150.0</ele><time>2026-03-22T14:43:18.206Z</time></trkpt><trkpt lat="45.5293283" lon="8.7410567"><ele>149.75</ele><time>2026-03-22T14:43:19.206Z</time></trkpt><trkpt lat="45.5292883" lon="8.741215"><ele>149.5</ele><time>2026-03-22T14:43:20.206Z</time></trkpt><trkpt lat="45.5292483" lon="8.741385"><ele>149.25</ele><time>2026-03-22T14:43:21.206Z</time></trkpt><trkpt lat="45.5292033" lon="8.741565"><ele>149.0</ele><time>2026-03-22T14:43:22.206Z</time></trkpt><trkpt lat="45.5291267" lon="8.7416983"><ele>149.0</ele><time>2026-03-22T14:43:23.206Z</time></trkpt><trkpt lat="45.5289883" lon="8.7417667"><ele>149.0</ele><time>2026-03-22T14:43:24.206Z</time></trkpt><trkpt lat="45.5288733" lon="8.7418267"><ele>149.0</ele><time>2026-03-22T14:43:25.206Z</time></trkpt><trkpt lat="45.528775" lon="8.7418983"><ele>149.0</ele><time>2026-03-22T14:43:26.206Z</time></trkpt><trkpt lat="45.5286733" lon="8.7419533"><ele>148.5</ele><time>2026-03-22T14:43:27.206Z</time></trkpt><trkpt lat="45.528565" lon="8.7419933"><ele>148.0</ele><time>2026-03-22T14:43:28.206Z</time></trkpt><trkpt lat="45.5284483" lon="8.7420217"><ele>147.5</ele><time>2026-03-22T14:43:29.206Z</time></trkpt><trkpt lat="45.5283217" lon="8.7420383"><ele>147.0</ele><time>2026-03-22T14:43:30.206Z</time></trkpt><trkpt lat="45.5281967" lon="8.74209"><ele>147.0</ele><time>2026-03-22T14:43:31.206Z</time></trkpt><trkpt lat="45.5280683" lon="8.74217"><ele>147.0</ele><time>2026-03-22T14:43:32.206Z</time></trkpt><trkpt lat="45.5279467" lon="8.742285"><ele>147.0</ele><time>2026-03-22T14:43:33.206Z</time></trkpt><trkpt lat="45.52781" lon="8.74242"><ele>146.66666666666666</ele><time>2026-03-22T14:43:34.206Z</time></trkpt><trkpt lat="45.5276717" lon="8.7425633"><ele>146.33333333333331</ele><time>2026-03-22T14:43:35.206Z</time></trkpt><trkpt lat="45.52755" lon="8.742715"><ele>146.0</ele><time>2026-03-22T14:43:36.206Z</time></trkpt><trkpt lat="45.5274167" lon="8.7428583"><ele>146.0</ele><time>2026-03-22T14:43:37.206Z</time></trkpt><trkpt lat="45.52729" lon="8.74299"><ele>146.0</ele><time>2026-03-22T14:43:38.206Z</time></trkpt><trkpt lat="45.5271733" lon="8.743125"><ele>146.0</ele><time>2026-03-22T14:43:39.206Z</time></trkpt><trkpt lat="45.5270683" lon="8.7432633"><ele>145.66666666666666</ele><time>2026-03-22T14:43:40.206Z</time></trkpt><trkpt lat="45.5269467" lon="8.743395"><ele>145.33333333333334</ele><time>2026-03-22T14:43:41.206Z</time></trkpt><trkpt lat="45.5268133" lon="8.7435033"><ele>145.0</ele><time>2026-03-22T14:43:42.206Z</time></trkpt><trkpt lat="45.526675" lon="8.7435833"><ele>145.0</ele><time>2026-03-22T14:43:43.206Z</time></trkpt><trkpt lat="45.5265433" lon="8.7436417"><ele>145.0</ele><time>2026-03-22T14:43:44.206Z</time></trkpt><trkpt lat="45.5263967" lon="8.74369"><ele>145.0</ele><time>2026-03-22T14:43:45.206Z</time></trkpt><trkpt lat="45.5262483" lon="8.74374"><ele>145.0</ele><time>2026-03-22T14:43:46.206Z</time></trkpt><trkpt lat="45.5261083" lon="8.743805"><ele>145.0</ele><time>2026-03-22T14:43:47.206Z</time></trkpt><trkpt lat="45.5259733" lon="8.7439133"><ele>145.0</ele><time>2026-03-22T14:43:48.206Z</time></trkpt><trkpt lat="45.5258383" lon="8.7440433"><ele>145.0</ele><time>2026-03-22T14:43:49.206Z</time></trkpt><trkpt lat="45.525715" lon="8.7441783"><ele>145.0</ele><time>2026-03-22T14:43:50.206Z</time></trkpt><trkpt lat="45.5255983" lon="8.7443033"><ele>145.0</ele><time>2026-03-22T14:43:51.206Z</time></trkpt><trkpt lat="45.5254883" lon="8.7444167"><ele>145.0</ele><time>2026-03-22T14:43:52.206Z</time></trkpt><trkpt lat="45.5253883" lon="8.7445233"><ele>145.0</ele><time>2026-03-22T14:43:53.206Z</time></trkpt><trkpt lat="45.5252967" lon="8.74462"><ele>144.57142857142858</ele><time>2026-03-22T14:43:54.206Z</time></trkpt><trkpt lat="45.5252183" lon="8.7446883"><ele>144.14285714285717</ele><time>2026-03-22T14:43:55.206Z</time></trkpt><trkpt lat="45.5251583" lon="8.7447483"><ele>143.71428571428572</ele><time>2026-03-22T14:43:56.206Z</time></trkpt><trkpt lat="45.52511" lon="8.7448083"><ele>143.28571428571428</ele><time>2026-03-22T14:43:57.206Z</time></trkpt><trkpt lat="45.5250567" lon="8.7448833"><ele>142.85714285714283</ele><time>2026-03-22T14:43:59.206Z</time></trkpt><trkpt lat="45.5250017" lon="8.7449533"><ele>142.42857142857142</ele><time>2026-03-22T14:44:02.206Z</time></trkpt><trkpt lat="45.5249433" lon="8.744995"><ele>142.0</ele><time>2026-03-22T14:44:22.206Z</time></trkpt><trkpt lat="45.5248267" lon="8.7451067"><ele>142.0</ele><time>2026-03-22T14:44:24.206Z</time></trkpt><trkpt lat="45.524765" lon="8.7451917"><ele>142.0</ele><time>2026-03-22T14:44:25.206Z</time></trkpt><trkpt lat="45.5247283" lon="8.7453"><ele>142.0</ele><time>2026-03-22T14:44:26.206Z</time></trkpt><trkpt lat="45.5247117" lon="8.7454317"><ele>142.0</ele><time>2026-03-22T14:44:27.206Z</time></trkpt><trkpt lat="45.5247317" lon="8.7455617"><ele>142.0</ele><time>2026-03-22T14:44:28.206Z</time></trkpt><trkpt lat="45.5247933" lon="8.7456833"><ele>142.0</ele><time>2026-03-22T14:44:29.206Z</time></trkpt><trkpt lat="45.524875" lon="8.7458133"><ele>142.0</ele><time>2026-03-22T14:44:30.206Z</time></trkpt><trkpt lat="45.5249617" lon="8.7459517"><ele>142.0</ele><time>2026-03-22T14:44:31.206Z</time></trkpt><trkpt lat="45.52505" lon="8.7461117"><ele>142.0</ele><time>2026-03-22T14:44:32.206Z</time></trkpt><trkpt lat="45.5251433" lon="8.7462617"><ele>142.0</ele><time>2026-03-22T14:44:33.206Z</time></trkpt><trkpt lat="45.525225" lon="8.7464067"><ele>142.0</ele><time>2026-03-22T14:44:34.207Z</time></trkpt><trkpt lat="45.5253033" lon="8.7465583"><ele>142.0</ele><time>2026-03-22T14:44:35.206Z</time></trkpt><trkpt lat="45.525395" lon="8.7467133"><ele>142.0</ele><time>2026-03-22T14:44:36.206Z</time></trkpt><trkpt lat="45.5254817" lon="8.7468783"><ele>142.25</ele><time>2026-03-22T14:44:37.206Z</time></trkpt><trkpt lat="45.5255683" lon="8.7470333"><ele>142.5</ele><time>2026-03-22T14:44:38.206Z</time></trkpt><trkpt lat="45.5256517" lon="8.74719"><ele>142.75</ele><time>2026-03-22T14:44:39.206Z</time></trkpt><trkpt lat="45.52573" lon="8.7473383"><ele>143.0</ele><time>2026-03-22T14:44:40.207Z</time></trkpt><trkpt lat="45.5258033" lon="8.7474883"><ele>143.0</ele><time>2026-03-22T14:44:41.206Z</time></trkpt><trkpt lat="45.5258733" lon="8.7476183"><ele>143.0</ele><time>2026-03-22T14:44:42.206Z</time></trkpt><trkpt lat="45.52594" lon="8.74774"><ele>143.0</ele><time>2026-03-22T14:44:43.206Z</time></trkpt><trkpt lat="45.5259983" lon="8.7478533"><ele>143.0</ele><time>2026-03-22T14:44:44.206Z</time></trkpt><trkpt lat="45.526045" lon="8.7479533"><ele>143.0</ele><time>2026-03-22T14:44:45.206Z</time></trkpt><trkpt lat="45.5260767" lon="8.7480567"><ele>143.20000000000002</ele><time>2026-03-22T14:44:46.206Z</time></trkpt><trkpt lat="45.5260883" lon="8.7481617"><ele>143.4</ele><time>2026-03-22T14:44:47.206Z</time></trkpt><trkpt lat="45.5260767" lon="8.7482867"><ele>143.60000000000002</ele><time>2026-03-22T14:44:48.206Z</time></trkpt><trkpt lat="45.5260167" lon="8.74842"><ele>143.8</ele><time>2026-03-22T14:44:49.206Z</time></trkpt><trkpt lat="45.5259333" lon="8.74856"><ele>144.0</ele><time>2026-03-22T14:44:50.206Z</time></trkpt><trkpt lat="45.52585" lon="8.7487017"><ele>144.0</ele><time>2026-03-22T14:44:51.206Z</time></trkpt><trkpt lat="45.52577" lon="8.7488367"><ele>144.0</ele><time>2026-03-22T14:44:52.206Z</time></trkpt><trkpt lat="45.5257033" lon="8.7489767"><ele>144.0</ele><time>2026-03-22T14:44:53.206Z</time></trkpt><trkpt lat="45.5256267" lon="8.7490983"><ele>144.0</ele><time>2026-03-22T14:44:54.206Z</time></trkpt><trkpt lat="45.5255533" lon="8.7492167"><ele>144.0</ele><time>2026-03-22T14:44:55.206Z</time></trkpt><trkpt lat="45.52549" lon="8.7493283"><ele>144.0</ele><time>2026-03-22T14:44:56.206Z</time></trkpt><trkpt lat="45.5254267" lon="8.7494383"><ele>144.0</ele><time>2026-03-22T14:44:57.206Z</time></trkpt><trkpt lat="45.525375" lon="8.7495367"><ele>144.0</ele><time>2026-03-22T14:44:58.206Z</time></trkpt><trkpt lat="45.525325" lon="8.7496333"><ele>144.0</ele><time>2026-03-22T14:44:59.206Z</time></trkpt><trkpt lat="45.5252767" lon="8.7497117"><ele>144.0</ele><time>2026-03-22T14:45:00.206Z</time></trkpt><trkpt lat="45.5252067" lon="8.74982"><ele>144.0</ele><time>2026-03-22T14:45:02.206Z</time></trkpt><trkpt lat="45.5251317" lon="8.74995"><ele>144.0</ele><time>2026-03-22T14:45:04.206Z</time></trkpt><trkpt lat="45.5250833" lon="8.75005"><ele>144.0</ele><time>2026-03-22T14:45:05.206Z</time></trkpt><trkpt lat="45.52502" lon="8.7501617"><ele>144.0</ele><time>2026-03-22T14:45:06.206Z</time></trkpt><trkpt lat="45.5249483" lon="8.7502867"><ele>144.0</ele><time>2026-03-22T14:45:07.206Z</time></trkpt><trkpt lat="45.5248683" lon="8.75042"><ele>143.5</ele><time>2026-03-22T14:45:08.206Z</time></trkpt><trkpt lat="45.5247833" lon="8.7505533"><ele>143.0</ele><time>2026-03-22T14:45:09.206Z</time></trkpt><trkpt lat="45.5247" lon="8.75071"><ele>142.5</ele><time>2026-03-22T14:45:10.206Z</time></trkpt><trkpt lat="45.5246133" lon="8.7508767"><ele>142.0</ele><time>2026-03-22T14:45:11.206Z</time></trkpt><trkpt lat="45.524525" lon="8.7510383"><ele>142.5</ele><time>2026-03-22T14:45:12.206Z</time></trkpt><trkpt lat="45.5244317" lon="8.7512"><ele>143.0</ele><time>2026-03-22T14:45:13.206Z</time></trkpt><trkpt lat="45.524335" lon="8.7513567"><ele>143.5</ele><time>2026-03-22T14:45:14.206Z</time></trkpt><trkpt lat="45.5242433" lon="8.751515"><ele>144.0</ele><time>2026-03-22T14:45:15.206Z</time></trkpt><trkpt lat="45.524145" lon="8.7516733"><ele>144.0</ele><time>2026-03-22T14:45:16.206Z</time></trkpt><trkpt lat="45.5240433" lon="8.7518283"><ele>144.0</ele><time>2026-03-22T14:45:17.206Z</time></trkpt><trkpt lat="45.5239633" lon="8.751985"><ele>144.0</ele><time>2026-03-22T14:45:18.206Z</time></trkpt><trkpt lat="45.5238867" lon="8.7521367"><ele>144.0</ele><time>2026-03-22T14:45:19.206Z</time></trkpt><trkpt lat="45.5238183" lon="8.7523067"><ele>143.75</ele><time>2026-03-22T14:45:20.206Z</time></trkpt><trkpt lat="45.52376" lon="8.7524933"><ele>143.5</ele><time>2026-03-22T14:45:21.206Z</time></trkpt><trkpt lat="45.523705" lon="8.752675"><ele>143.25</ele><time>2026-03-22T14:45:22.206Z</time></trkpt><trkpt lat="45.5236583" lon="8.7528433"><ele>143.0</ele><time>2026-03-22T14:45:23.206Z</time></trkpt><trkpt lat="45.5236167" lon="8.7530117"><ele>143.66666666666666</ele><time>2026-03-22T14:45:24.206Z</time></trkpt><trkpt lat="45.5235717" lon="8.7531533"><ele>144.33333333333331</ele><time>2026-03-22T14:45:25.206Z</time></trkpt><trkpt lat="45.5235317" lon="8.7532817"><ele>145.0</ele><time>2026-03-22T14:45:26.206Z</time></trkpt><trkpt lat="45.5234917" lon="8.7534017"><ele>145.66666666666666</ele><time>2026-03-22T14:45:27.206Z</time></trkpt><trkpt lat="45.5234383" lon="8.7534783"><ele>146.33333333333334</ele><time>2026-03-22T14:45:28.206Z</time></trkpt><trkpt lat="45.5233783" lon="8.7535283"><ele>147.0</ele><time>2026-03-22T14:45:29.206Z</time></trkpt><trkpt lat="45.523265" lon="8.7535183"><ele>147.0</ele><time>2026-03-22T14:45:31.206Z</time></trkpt><trkpt lat="45.52322" lon="8.7534183"><ele>147.0</ele><time>2026-03-22T14:45:32.206Z</time></trkpt><trkpt lat="45.523165" lon="8.75329"><ele>147.0</ele><time>2026-03-22T14:45:33.206Z</time></trkpt><trkpt lat="45.523015" lon="8.7529517"><ele>147.0</ele><time>2026-03-22T14:45:35.206Z</time></trkpt><trkpt lat="45.5229417" lon="8.75278"><ele>147.0</ele><time>2026-03-22T14:45:36.206Z</time></trkpt><trkpt lat="45.522865" lon="8.7526133"><ele>147.0</ele><time>2026-03-22T14:45:37.206Z</time></trkpt><trkpt lat="45.52279" lon="8.7524517"><ele>147.0</ele><time>2026-03-22T14:45:38.206Z</time></trkpt><trkpt lat="45.52272" lon="8.7522967"><ele>146.0</ele><time>2026-03-22T14:45:39.206Z</time></trkpt><trkpt lat="45.5226517" lon="8.7521533"><ele>145.0</ele><time>2026-03-22T14:45:40.206Z</time></trkpt><trkpt lat="45.5225683" lon="8.75203"><ele>144.0</ele><time>2026-03-22T14:45:41.206Z</time></trkpt><trkpt lat="45.5224717" lon="8.7519233"><ele>143.0</ele><time>2026-03-22T14:45:42.206Z</time></trkpt><trkpt lat="45.5223733" lon="8.7518217"><ele>143.0</ele><time>2026-03-22T14:45:43.206Z</time></trkpt><trkpt lat="45.5222833" lon="8.751735"><ele>143.0</ele><time>2026-03-22T14:45:44.206Z</time></trkpt><trkpt lat="45.5221983" lon="8.75165"><ele>143.0</ele><time>2026-03-22T14:45:45.206Z</time></trkpt><trkpt lat="45.522135" lon="8.7515717"><ele>143.0</ele><time>2026-03-22T14:45:46.206Z</time></trkpt><trkpt lat="45.5220717" lon="8.75148"><ele>143.0</ele><time>2026-03-22T14:45:47.206Z</time></trkpt><trkpt lat="45.522025" lon="8.7513783"><ele>142.4</ele><time>2026-03-22T14:45:48.206Z</time></trkpt><trkpt lat="45.5219517" lon="8.7512933"><ele>141.8</ele><time>2026-03-22T14:45:49.206Z</time></trkpt><trkpt lat="45.5218767" lon="8.7512183"><ele>141.2</ele><time>2026-03-22T14:45:50.206Z</time></trkpt><trkpt lat="45.5217667" lon="8.7511633"><ele>140.6</ele><time>2026-03-22T14:45:51.206Z</time></trkpt><trkpt lat="45.521635" lon="8.7511183"><ele>140.0</ele><time>2026-03-22T14:45:52.206Z</time></trkpt><trkpt lat="45.5215" lon="8.7510667"><ele>140.25</ele><time>2026-03-22T14:45:53.206Z</time></trkpt><trkpt lat="45.5213783" lon="8.7510167"><ele>140.5</ele><time>2026-03-22T14:45:54.206Z</time></trkpt><trkpt lat="45.5212533" lon="8.7509783"><ele>140.75</ele><time>2026-03-22T14:45:55.206Z</time></trkpt><trkpt lat="45.521135" lon="8.7509333"><ele>141.0</ele><time>2026-03-22T14:45:56.206Z</time></trkpt><trkpt lat="45.5210233" lon="8.7508917"><ele>141.0</ele><time>2026-03-22T14:45:57.206Z</time></trkpt><trkpt lat="45.52091" lon="8.75085"><ele>141.0</ele><time>2026-03-22T14:45:58.206Z</time></trkpt><trkpt lat="45.5208017" lon="8.750805"><ele>141.0</ele><time>2026-03-22T14:45:59.206Z</time></trkpt><trkpt lat="45.5206867" lon="8.750755"><ele>141.0</ele><time>2026-03-22T14:46:00.206Z</time></trkpt><trkpt lat="45.5205717" lon="8.7507117"><ele>141.0</ele><time>2026-03-22T14:46:01.206Z</time></trkpt><trkpt lat="45.5204583" lon="8.750665"><ele>141.0</ele><time>2026-03-22T14:46:02.206Z</time></trkpt><trkpt lat="45.520345" lon="8.7506167"><ele>141.0</ele><time>2026-03-22T14:46:03.206Z</time></trkpt><trkpt lat="45.5202367" lon="8.7505733"><ele>141.0</ele><time>2026-03-22T14:46:04.206Z</time></trkpt><trkpt lat="45.52013" lon="8.75054"><ele>141.4</ele><time>2026-03-22T14:46:05.206Z</time></trkpt><trkpt lat="45.52002" lon="8.7505067"><ele>141.8</ele><time>2026-03-22T14:46:06.206Z</time></trkpt><trkpt lat="45.51991" lon="8.75047"><ele>142.20000000000002</ele><time>2026-03-22T14:46:07.206Z</time></trkpt><trkpt lat="45.5197967" lon="8.7504383"><ele>142.6</ele><time>2026-03-22T14:46:08.206Z</time></trkpt><trkpt lat="45.5196933" lon="8.7504233"><ele>143.0</ele><time>2026-03-22T14:46:09.206Z</time></trkpt><trkpt lat="45.519605" lon="8.7504167"><ele>142.83333333333331</ele><time>2026-03-22T14:46:10.205Z</time></trkpt><trkpt lat="45.5195233" lon="8.7504067"><ele>142.66666666666666</ele><time>2026-03-22T14:46:11.205Z</time></trkpt><trkpt lat="45.51945" lon="8.7504"><ele>142.5</ele><time>2026-03-22T14:46:12.205Z</time></trkpt><trkpt lat="45.519385" lon="8.7503933"><ele>142.33333333333334</ele><time>2026-03-22T14:46:13.205Z</time></trkpt><trkpt lat="45.5192833" lon="8.7503983"><ele>142.16666666666669</ele><time>2026-03-22T14:46:15.205Z</time></trkpt><trkpt lat="45.5192" lon="8.7504267"><ele>142.0</ele><time>2026-03-22T14:46:17.205Z</time></trkpt><trkpt lat="45.5190983" lon="8.7504617"><ele>142.0</ele><time>2026-03-22T14:46:19.205Z</time></trkpt><trkpt lat="45.5190317" lon="8.7504833"><ele>142.0</ele><time>2026-03-22T14:46:20.205Z</time></trkpt><trkpt lat="45.518965" lon="8.75053"><ele>142.0</ele><time>2026-03-22T14:46:21.205Z</time></trkpt><trkpt lat="45.5188933" lon="8.7505833"><ele>142.0</ele><time>2026-03-22T14:46:22.205Z</time></trkpt><trkpt lat="45.51882" lon="8.7506433"><ele>142.0</ele><time>2026-03-22T14:46:23.205Z</time></trkpt><trkpt lat="45.51873" lon="8.7506967"><ele>142.0</ele><time>2026-03-22T14:46:24.205Z</time></trkpt><trkpt lat="45.518645" lon="8.7507567"><ele>141.16666666666669</ele><time>2026-03-22T14:46:25.205Z</time></trkpt><trkpt lat="45.51858" lon="8.7508333"><ele>140.33333333333334</ele><time>2026-03-22T14:46:26.205Z</time></trkpt><trkpt lat="45.518515" lon="8.7509267"><ele>139.5</ele><time>2026-03-22T14:46:27.205Z</time></trkpt><trkpt lat="45.5184633" lon="8.7510233"><ele>138.66666666666666</ele><time>2026-03-22T14:46:28.205Z</time></trkpt><trkpt lat="45.5184183" lon="8.7511317"><ele>137.83333333333331</ele><time>2026-03-22T14:46:29.205Z</time></trkpt><trkpt lat="45.518375" lon="8.7512483"><ele>137.0</ele><time>2026-03-22T14:46:30.205Z</time></trkpt><trkpt lat="45.5183317" lon="8.75136"><ele>137.0</ele><time>2026-03-22T14:46:31.205Z</time></trkpt><trkpt lat="45.5182817" lon="8.7514583"><ele>137.0</ele><time>2026-03-22T14:46:32.205Z</time></trkpt><trkpt lat="45.5182317" lon="8.751565"><ele>137.0</ele><time>2026-03-22T14:46:33.205Z</time></trkpt><trkpt lat="45.5181867" lon="8.751675"><ele>137.0</ele><time>2026-03-22T14:46:34.205Z</time></trkpt><trkpt lat="45.51814" lon="8.7517917"><ele>137.0</ele><time>2026-03-22T14:46:35.205Z</time></trkpt><trkpt lat="45.518095" lon="8.7519"><ele>137.0</ele><time>2026-03-22T14:46:36.205Z</time></trkpt><trkpt lat="45.518055" lon="8.7519917"><ele>136.83333333333331</ele><time>2026-03-22T14:46:37.205Z</time></trkpt><trkpt lat="45.5180083" lon="8.7520667"><ele>136.66666666666666</ele><time>2026-03-22T14:46:38.205Z</time></trkpt><trkpt lat="45.5179633" lon="8.7521317"><ele>136.5</ele><time>2026-03-22T14:46:39.205Z</time></trkpt><trkpt lat="45.5179017" lon="8.7522283"><ele>136.33333333333334</ele><time>2026-03-22T14:46:41.205Z</time></trkpt><trkpt lat="45.5178183" lon="8.7523583"><ele>136.16666666666669</ele><time>2026-03-22T14:46:43.205Z</time></trkpt><trkpt lat="45.517775" lon="8.75246"><ele>136.0</ele><time>2026-03-22T14:46:44.205Z</time></trkpt><trkpt lat="45.5177317" lon="8.7525717"><ele>136.2</ele><time>2026-03-22T14:46:45.205Z</time></trkpt><trkpt lat="45.517695" lon="8.7526933"><ele>136.39999999999998</ele><time>2026-03-22T14:46:46.205Z</time></trkpt><trkpt lat="45.5176533" lon="8.7528217"><ele>136.6</ele><time>2026-03-22T14:46:47.205Z</time></trkpt><trkpt lat="45.5176033" lon="8.752955"><ele>136.79999999999998</ele><time>2026-03-22T14:46:48.205Z</time></trkpt><trkpt lat="45.5175533" lon="8.7530967"><ele>137.0</ele><time>2026-03-22T14:46:49.205Z</time></trkpt><trkpt lat="45.5175" lon="8.753235"><ele>137.0</ele><time>2026-03-22T14:46:50.205Z</time></trkpt><trkpt lat="45.5174517" lon="8.7533967"><ele>137.0</ele><time>2026-03-22T14:46:51.205Z</time></trkpt><trkpt lat="45.5174033" lon="8.7535533"><ele>137.0</ele><time>2026-03-22T14:46:52.205Z</time></trkpt><trkpt lat="45.5173567" lon="8.7537083"><ele>137.0</ele><time>2026-03-22T14:46:53.205Z</time></trkpt><trkpt lat="45.5173267" lon="8.7538667"><ele>137.0</ele><time>2026-03-22T14:46:54.205Z</time></trkpt><trkpt lat="45.517315" lon="8.7540267"><ele>137.0</ele><time>2026-03-22T14:46:55.205Z</time></trkpt><trkpt lat="45.5173317" lon="8.754175"><ele>137.0</ele><time>2026-03-22T14:46:56.205Z</time></trkpt><trkpt lat="45.5173917" lon="8.754305"><ele>137.0</ele><time>2026-03-22T14:46:57.205Z</time></trkpt><trkpt lat="45.5174767" lon="8.754435"><ele>137.5</ele><time>2026-03-22T14:46:58.205Z</time></trkpt><trkpt lat="45.51757" lon="8.7545483"><ele>138.0</ele><time>2026-03-22T14:46:59.205Z</time></trkpt><trkpt lat="45.5176617" lon="8.7546567"><ele>138.5</ele><time>2026-03-22T14:47:00.205Z</time></trkpt><trkpt lat="45.5177633" lon="8.7547667"><ele>139.0</ele><time>2026-03-22T14:47:01.205Z</time></trkpt><trkpt lat="45.5178533" lon="8.7548733"><ele>139.25</ele><time>2026-03-22T14:47:02.205Z</time></trkpt><trkpt lat="45.5179467" lon="8.7549833"><ele>139.5</ele><time>2026-03-22T14:47:03.205Z</time></trkpt><trkpt lat="45.518035" lon="8.7551033"><ele>139.75</ele><time>2026-03-22T14:47:04.205Z</time></trkpt><trkpt lat="45.5181067" lon="8.7552367"><ele>140.0</ele><time>2026-03-22T14:47:05.205Z</time></trkpt><trkpt lat="45.5181683" lon="8.7553833"><ele>140.0</ele><time>2026-03-22T14:47:06.205Z</time></trkpt><trkpt lat="45.518235" lon="8.7555367"><ele>140.0</ele><time>2026-03-22T14:47:07.205Z</time></trkpt><trkpt lat="45.5183" lon="8.7556883"><ele>140.0</ele><time>2026-03-22T14:47:08.205Z</time></trkpt><trkpt lat="45.5183683" lon="8.7558317"><ele>140.0</ele><time>2026-03-22T14:47:09.205Z</time></trkpt><trkpt lat="45.5184467" lon="8.7559717"><ele>140.5</ele><time>2026-03-22T14:47:10.205Z</time></trkpt><trkpt lat="45.518525" lon="8.7561117"><ele>141.0</ele><time>2026-03-22T14:47:11.205Z</time></trkpt><trkpt lat="45.518595" lon="8.7562467"><ele>141.5</ele><time>2026-03-22T14:47:12.205Z</time></trkpt><trkpt lat="45.518665" lon="8.75638"><ele>142.0</ele><time>2026-03-22T14:47:13.205Z</time></trkpt><trkpt lat="45.5187283" lon="8.7565117"><ele>141.5</ele><time>2026-03-22T14:47:14.205Z</time></trkpt><trkpt lat="45.518795" lon="8.75662"><ele>141.0</ele><time>2026-03-22T14:47:15.205Z</time></trkpt><trkpt lat="45.5188617" lon="8.7567133"><ele>140.5</ele><time>2026-03-22T14:47:16.205Z</time></trkpt><trkpt lat="45.5189117" lon="8.7568017"><ele>140.0</ele><time>2026-03-22T14:47:17.205Z</time></trkpt><trkpt lat="45.51896" lon="8.7568767"><ele>139.5</ele><time>2026-03-22T14:47:18.205Z</time></trkpt><trkpt lat="45.5189767" lon="8.75698"><ele>139.0</ele><time>2026-03-22T14:47:20.205Z</time></trkpt><trkpt lat="45.5189133" lon="8.7570933"><ele>139.0</ele><time>2026-03-22T14:47:22.205Z</time></trkpt><trkpt lat="45.5188617" lon="8.757175"><ele>139.0</ele><time>2026-03-22T14:47:23.205Z</time></trkpt><trkpt lat="45.5188083" lon="8.7572567"><ele>139.0</ele><time>2026-03-22T14:47:24.205Z</time></trkpt><trkpt lat="45.51875" lon="8.7573433"><ele>139.0</ele><time>2026-03-22T14:47:25.205Z</time></trkpt><trkpt lat="45.5186983" lon="8.757435"><ele>139.0</ele><time>2026-03-22T14:47:26.205Z</time></trkpt><trkpt lat="45.5186317" lon="8.757525"><ele>139.0</ele><time>2026-03-22T14:47:27.205Z</time></trkpt><trkpt lat="45.518555" lon="8.7576317"><ele>140.6</ele><time>2026-03-22T14:47:28.205Z</time></trkpt><trkpt lat="45.518485" lon="8.7577517"><ele>142.2</ele><time>2026-03-22T14:47:29.206Z</time></trkpt><trkpt lat="45.5184183" lon="8.7578783"><ele>143.79999999999998</ele><time>2026-03-22T14:47:30.205Z</time></trkpt><trkpt lat="45.518355" lon="8.758005"><ele>145.4</ele><time>2026-03-22T14:47:31.205Z</time></trkpt><trkpt lat="45.5182933" lon="8.75811"><ele>147.0</ele><time>2026-03-22T14:47:32.205Z</time></trkpt><trkpt lat="45.518235" lon="8.7582217"><ele>147.0</ele><time>2026-03-22T14:47:33.205Z</time></trkpt><trkpt lat="45.5181717" lon="8.7583133"><ele>147.0</ele><time>2026-03-22T14:47:34.205Z</time></trkpt><trkpt lat="45.5181183" lon="8.7583983"><ele>147.0</ele><time>2026-03-22T14:47:35.205Z</time></trkpt><trkpt lat="45.51808" lon="8.7584983"><ele>147.0</ele><time>2026-03-22T14:47:36.205Z</time></trkpt><trkpt lat="45.51806" lon="8.7586233"><ele>147.0</ele><time>2026-03-22T14:47:37.205Z</time></trkpt><trkpt lat="45.5180433" lon="8.7587583"><ele>147.0</ele><time>2026-03-22T14:47:38.205Z</time></trkpt><trkpt lat="45.51804" lon="8.75889"><ele>147.0</ele><time>2026-03-22T14:47:39.205Z</time></trkpt><trkpt lat="45.51803" lon="8.75901"><ele>147.0</ele><time>2026-03-22T14:47:40.205Z</time></trkpt><trkpt lat="45.5180117" lon="8.7591217"><ele>147.0</ele><time>2026-03-22T14:47:41.205Z</time></trkpt><trkpt lat="45.5179783" lon="8.7592183"><ele>147.0</ele><time>2026-03-22T14:47:42.205Z</time></trkpt><trkpt lat="45.517915" lon="8.75933"><ele>147.0</ele><time>2026-03-22T14:47:43.205Z</time></trkpt><trkpt lat="45.5178333" lon="8.7594467"><ele>147.25</ele><time>2026-03-22T14:47:44.205Z</time></trkpt><trkpt lat="45.5177283" lon="8.7595633"><ele>147.5</ele><time>2026-03-22T14:47:45.205Z</time></trkpt><trkpt lat="45.5176183" lon="8.759665"><ele>147.75</ele><time>2026-03-22T14:47:46.205Z</time></trkpt><trkpt lat="45.5175217" lon="8.7597517"><ele>148.0</ele><time>2026-03-22T14:47:47.205Z</time></trkpt><trkpt lat="45.51744" lon="8.75982"><ele>148.0</ele><time>2026-03-22T14:47:48.205Z</time></trkpt><trkpt lat="45.5173667" lon="8.7598867"><ele>148.0</ele><time>2026-03-22T14:47:49.205Z</time></trkpt><trkpt lat="45.517305" lon="8.7599433"><ele>148.0</ele><time>2026-03-22T14:47:50.205Z</time></trkpt><trkpt lat="45.5172033" lon="8.7600083"><ele>148.0</ele><time>2026-03-22T14:47:52.205Z</time></trkpt><trkpt lat="45.5170667" lon="8.76007"><ele>148.0</ele><time>2026-03-22T14:47:54.205Z</time></trkpt><trkpt lat="45.5169983" lon="8.7601183"><ele>147.66666666666669</ele><time>2026-03-22T14:47:55.205Z</time></trkpt><trkpt lat="45.516935" lon="8.7601967"><ele>147.33333333333334</ele><time>2026-03-22T14:47:56.205Z</time></trkpt><trkpt lat="45.5168767" lon="8.7602917"><ele>147.0</ele><time>2026-03-22T14:47:57.205Z</time></trkpt><trkpt lat="45.5168333" lon="8.7604"><ele>146.66666666666666</ele><time>2026-03-22T14:47:58.205Z</time></trkpt><trkpt lat="45.5167967" lon="8.7605233"><ele>146.33333333333331</ele><time>2026-03-22T14:47:59.205Z</time></trkpt><trkpt lat="45.5167633" lon="8.7606417"><ele>146.0</ele><time>2026-03-22T14:48:00.205Z</time></trkpt><trkpt lat="45.51672" lon="8.760745"><ele>146.0</ele><time>2026-03-22T14:48:01.205Z</time></trkpt><trkpt lat="45.51668" lon="8.760825"><ele>146.0</ele><time>2026-03-22T14:48:02.205Z</time></trkpt><trkpt lat="45.5166317" lon="8.760885"><ele>146.0</ele><time>2026-03-22T14:48:03.205Z</time></trkpt><trkpt lat="45.51655" lon="8.760985"><ele>146.0</ele><time>2026-03-22T14:48:05.205Z</time></trkpt><trkpt lat="45.5164233" lon="8.7610767"><ele>146.0</ele><time>2026-03-22T14:48:07.205Z</time></trkpt><trkpt lat="45.5163417" lon="8.7611483"><ele>146.0</ele><time>2026-03-22T14:48:08.205Z</time></trkpt><trkpt lat="45.5162467" lon="8.7612283"><ele>146.0</ele><time>2026-03-22T14:48:09.205Z</time></trkpt><trkpt lat="45.516155" lon="8.7613033"><ele>146.0</ele><time>2026-03-22T14:48:10.205Z</time></trkpt><trkpt lat="45.5160683" lon="8.7613783"><ele>146.0</ele><time>2026-03-22T14:48:11.205Z</time></trkpt><trkpt lat="45.5159917" lon="8.7614633"><ele>146.0</ele><time>2026-03-22T14:48:12.205Z</time></trkpt><trkpt lat="45.5159267" lon="8.761555"><ele>145.8</ele><time>2026-03-22T14:48:13.205Z</time></trkpt><trkpt lat="45.5158667" lon="8.76165"><ele>145.6</ele><time>2026-03-22T14:48:14.205Z</time></trkpt><trkpt lat="45.5157983" lon="8.7617517"><ele>145.4</ele><time>2026-03-22T14:48:15.205Z</time></trkpt><trkpt lat="45.515725" lon="8.761845"><ele>145.2</ele><time>2026-03-22T14:48:16.205Z</time></trkpt><trkpt lat="45.51566" lon="8.7619283"><ele>145.0</ele><time>2026-03-22T14:48:17.205Z</time></trkpt><trkpt lat="45.5156017" lon="8.762005"><ele>145.0</ele><time>2026-03-22T14:48:18.205Z</time></trkpt><trkpt lat="45.5155367" lon="8.7620833"><ele>145.0</ele><time>2026-03-22T14:48:19.205Z</time></trkpt><trkpt lat="45.51547" lon="8.7621683"><ele>145.0</ele><time>2026-03-22T14:48:20.205Z</time></trkpt><trkpt lat="45.5154083" lon="8.7622633"><ele>145.0</ele><time>2026-03-22T14:48:21.205Z</time></trkpt><trkpt lat="45.5153567" lon="8.762355"><ele>145.0</ele><time>2026-03-22T14:48:22.205Z</time></trkpt><trkpt lat="45.5153117" lon="8.76244"><ele>145.0</ele><time>2026-03-22T14:48:23.205Z</time></trkpt><trkpt lat="45.5152417" lon="8.76258"><ele>144.8</ele><time>2026-03-22T14:48:25.205Z</time></trkpt><trkpt lat="45.51513" lon="8.7626633"><ele>144.6</ele><time>2026-03-22T14:48:27.205Z</time></trkpt><trkpt lat="45.5150633" lon="8.762685"><ele>144.4</ele><time>2026-03-22T14:48:28.205Z</time></trkpt><trkpt lat="45.5149633" lon="8.7627"><ele>144.2</ele><time>2026-03-22T14:48:29.205Z</time></trkpt><trkpt lat="45.51486" lon="8.7627017"><ele>144.0</ele><time>2026-03-22T14:48:30.205Z</time></trkpt><trkpt lat="45.51476" lon="8.762705"><ele>143.66666666666666</ele><time>2026-03-22T14:48:31.205Z</time></trkpt><trkpt lat="45.5146633" lon="8.7626917"><ele>143.33333333333334</ele><time>2026-03-22T14:48:32.205Z</time></trkpt><trkpt lat="45.5145783" lon="8.7626967"><ele>143.0</ele><time>2026-03-22T14:48:33.205Z</time></trkpt><trkpt lat="45.5144817" lon="8.76272"><ele>142.66666666666669</ele><time>2026-03-22T14:48:34.205Z</time></trkpt><trkpt lat="45.514405" lon="8.7627417"><ele>142.33333333333334</ele><time>2026-03-22T14:48:35.205Z</time></trkpt><trkpt lat="45.51432" lon="8.76275"><ele>142.0</ele><time>2026-03-22T14:48:36.205Z</time></trkpt><trkpt lat="45.51424" lon="8.7627633"><ele>141.83333333333334</ele><time>2026-03-22T14:48:37.205Z</time></trkpt><trkpt lat="45.51416" lon="8.76277"><ele>141.66666666666669</ele><time>2026-03-22T14:48:38.205Z</time></trkpt><trkpt lat="45.514085" lon="8.76278"><ele>141.5</ele><time>2026-03-22T14:48:39.205Z</time></trkpt><trkpt lat="45.5139783" lon="8.7628367"><ele>141.33333333333334</ele><time>2026-03-22T14:48:41.205Z</time></trkpt><trkpt lat="45.5139233" lon="8.7629217"><ele>141.16666666666666</ele><time>2026-03-22T14:48:42.205Z</time></trkpt><trkpt lat="45.5138783" lon="8.76304"><ele>141.0</ele><time>2026-03-22T14:48:43.205Z</time></trkpt><trkpt lat="45.5138367" lon="8.763185"><ele>141.0</ele><time>2026-03-22T14:48:44.205Z</time></trkpt><trkpt lat="45.5137867" lon="8.76332"><ele>141.0</ele><time>2026-03-22T14:48:45.205Z</time></trkpt><trkpt lat="45.5136683" lon="8.7635517"><ele>141.0</ele><time>2026-03-22T14:48:47.205Z</time></trkpt><trkpt lat="45.5136167" lon="8.7636717"><ele>141.0</ele><time>2026-03-22T14:48:48.205Z</time></trkpt><trkpt lat="45.51357" lon="8.7637883"><ele>140.83333333333334</ele><time>2026-03-22T14:48:49.205Z</time></trkpt><trkpt lat="45.5135267" lon="8.76389"><ele>140.66666666666666</ele><time>2026-03-22T14:48:50.205Z</time></trkpt><trkpt lat="45.5134833" lon="8.7640017"><ele>140.5</ele><time>2026-03-22T14:48:51.205Z</time></trkpt><trkpt lat="45.5134483" lon="8.76411"><ele>140.33333333333331</ele><time>2026-03-22T14:48:52.205Z</time></trkpt><trkpt lat="45.513415" lon="8.7642167"><ele>140.16666666666666</ele><time>2026-03-22T14:48:53.205Z</time></trkpt><trkpt lat="45.5133767" lon="8.764315"><ele>140.0</ele><time>2026-03-22T14:48:54.205Z</time></trkpt><trkpt lat="45.5133083" lon="8.7644117"><ele>140.0</ele><time>2026-03-22T14:48:55.205Z</time></trkpt><trkpt lat="45.5132383" lon="8.764515"><ele>140.0</ele><time>2026-03-22T14:48:56.205Z</time></trkpt><trkpt lat="45.51316" lon="8.7645983"><ele>140.0</ele><time>2026-03-22T14:48:57.205Z</time></trkpt><trkpt lat="45.5130833" lon="8.7646883"><ele>140.0</ele><time>2026-03-22T14:48:58.205Z</time></trkpt><trkpt lat="45.5130167" lon="8.7647717"><ele>140.0</ele><time>2026-03-22T14:48:59.205Z</time></trkpt><trkpt lat="45.512955" lon="8.7648483"><ele>139.83333333333331</ele><time>2026-03-22T14:49:00.205Z</time></trkpt><trkpt lat="45.5128883" lon="8.76491"><ele>139.66666666666666</ele><time>2026-03-22T14:49:01.205Z</time></trkpt><trkpt lat="45.5128183" lon="8.764975"><ele>139.5</ele><time>2026-03-22T14:49:02.205Z</time></trkpt><trkpt lat="45.5127517" lon="8.7650267"><ele>139.33333333333334</ele><time>2026-03-22T14:49:03.205Z</time></trkpt><trkpt lat="45.5126883" lon="8.7651017"><ele>139.16666666666669</ele><time>2026-03-22T14:49:04.205Z</time></trkpt><trkpt lat="45.5126317" lon="8.7651817"><ele>139.0</ele><time>2026-03-22T14:49:05.205Z</time></trkpt><trkpt lat="45.51259" lon="8.76526"><ele>138.83333333333334</ele><time>2026-03-22T14:49:06.205Z</time></trkpt><trkpt lat="45.5125483" lon="8.7653817"><ele>138.66666666666669</ele><time>2026-03-22T14:49:08.205Z</time></trkpt><trkpt lat="45.512585" lon="8.76548"><ele>138.5</ele><time>2026-03-22T14:49:11.205Z</time></trkpt><trkpt lat="45.5126617" lon="8.765615"><ele>138.33333333333334</ele><time>2026-03-22T14:49:13.205Z</time></trkpt><trkpt lat="45.5127067" lon="8.7656933"><ele>138.16666666666666</ele><time>2026-03-22T14:49:14.205Z</time></trkpt><trkpt lat="45.5127567" lon="8.7657733"><ele>138.0</ele><time>2026-03-22T14:49:15.205Z</time></trkpt><trkpt lat="45.5128117" lon="8.76587"><ele>138.0</ele><time>2026-03-22T14:49:16.205Z</time></trkpt><trkpt lat="45.5128683" lon="8.7659633"><ele>138.0</ele><time>2026-03-22T14:49:17.205Z</time></trkpt><trkpt lat="45.5129217" lon="8.76607"><ele>138.0</ele><time>2026-03-22T14:49:18.205Z</time></trkpt><trkpt lat="45.512975" lon="8.7661717"><ele>138.0</ele><time>2026-03-22T14:49:19.205Z</time></trkpt><trkpt lat="45.5130317" lon="8.76628"><ele>138.0</ele><time>2026-03-22T14:49:20.205Z</time></trkpt><trkpt lat="45.5130917" lon="8.76638"><ele>137.8</ele><time>2026-03-22T14:49:21.205Z</time></trkpt><trkpt lat="45.5131617" lon="8.7664717"><ele>137.60000000000002</ele><time>2026-03-22T14:49:22.205Z</time></trkpt><trkpt lat="45.513235" lon="8.76657"><ele>137.39999999999998</ele><time>2026-03-22T14:49:23.205Z</time></trkpt><trkpt lat="45.51331" lon="8.7666767"><ele>137.2</ele><time>2026-03-22T14:49:24.205Z</time></trkpt><trkpt lat="45.513385" lon="8.76677"><ele>137.0</ele><time>2026-03-22T14:49:25.205Z</time></trkpt><trkpt lat="45.5134667" lon="8.7668667"><ele>136.4</ele><time>2026-03-22T14:49:26.205Z</time></trkpt><trkpt lat="45.5135567" lon="8.7669483"><ele>135.79999999999998</ele><time>2026-03-22T14:49:27.205Z</time></trkpt><trkpt lat="45.513655" lon="8.7670233"><ele>135.2</ele><time>2026-03-22T14:49:28.205Z</time></trkpt><trkpt lat="45.5137567" lon="8.7670917"><ele>134.6</ele><time>2026-03-22T14:49:29.205Z</time></trkpt><trkpt lat="45.51386" lon="8.767175"><ele>134.0</ele><time>2026-03-22T14:49:30.205Z</time></trkpt><trkpt lat="45.5139667" lon="8.7672517"><ele>135.75</ele><time>2026-03-22T14:49:31.205Z</time></trkpt><trkpt lat="45.5140733" lon="8.76733"><ele>137.5</ele><time>2026-03-22T14:49:32.205Z</time></trkpt><trkpt lat="45.51417" lon="8.7674183"><ele>139.25</ele><time>2026-03-22T14:49:33.205Z</time></trkpt><trkpt lat="45.5142617" lon="8.76751"><ele>141.0</ele><time>2026-03-22T14:49:34.205Z</time></trkpt><trkpt lat="45.5143633" lon="8.767575"><ele>141.0</ele><time>2026-03-22T14:49:35.205Z</time></trkpt><trkpt lat="45.51446" lon="8.7676517"><ele>141.0</ele><time>2026-03-22T14:49:36.205Z</time></trkpt><trkpt lat="45.514555" lon="8.7677317"><ele>141.0</ele><time>2026-03-22T14:49:37.205Z</time></trkpt><trkpt lat="45.5146467" lon="8.76781"><ele>141.0</ele><time>2026-03-22T14:49:38.205Z</time></trkpt><trkpt lat="45.514735" lon="8.7678717"><ele>141.0</ele><time>2026-03-22T14:49:39.205Z</time></trkpt><trkpt lat="45.5148433" lon="8.7678983"><ele>141.6</ele><time>2026-03-22T14:49:40.205Z</time></trkpt><trkpt lat="45.5149333" lon="8.7679333"><ele>142.2</ele><time>2026-03-22T14:49:41.205Z</time></trkpt><trkpt lat="45.51501" lon="8.7679967"><ele>142.8</ele><time>2026-03-22T14:49:42.205Z</time></trkpt><trkpt lat="45.515075" lon="8.7680767"><ele>143.4</ele><time>2026-03-22T14:49:43.205Z</time></trkpt><trkpt lat="45.51514" lon="8.7681833"><ele>144.0</ele><time>2026-03-22T14:49:44.205Z</time></trkpt><trkpt lat="45.515205" lon="8.7682983"><ele>144.0</ele><time>2026-03-22T14:49:45.205Z</time></trkpt><trkpt lat="45.5152717" lon="8.7684183"><ele>144.0</ele><time>2026-03-22T14:49:46.205Z</time></trkpt><trkpt lat="45.5153367" lon="8.7685233"><ele>144.0</ele><time>2026-03-22T14:49:47.205Z</time></trkpt><trkpt lat="45.5153883" lon="8.7686317"><ele>144.0</ele><time>2026-03-22T14:49:48.205Z</time></trkpt><trkpt lat="45.51543" lon="8.7687467"><ele>144.0</ele><time>2026-03-22T14:49:49.205Z</time></trkpt><trkpt lat="45.5154633" lon="8.7688683"><ele>143.16666666666666</ele><time>2026-03-22T14:49:50.205Z</time></trkpt><trkpt lat="45.515485" lon="8.768975"><ele>142.33333333333334</ele><time>2026-03-22T14:49:51.205Z</time></trkpt><trkpt lat="45.5154933" lon="8.76907"><ele>141.5</ele><time>2026-03-22T14:49:52.205Z</time></trkpt><trkpt lat="45.5155117" lon="8.7692133"><ele>140.66666666666669</ele><time>2026-03-22T14:49:54.205Z</time></trkpt><trkpt lat="45.5155833" lon="8.7692817"><ele>139.83333333333334</ele><time>2026-03-22T14:49:56.205Z</time></trkpt><trkpt lat="45.515675" lon="8.769275"><ele>139.0</ele><time>2026-03-22T14:49:57.205Z</time></trkpt><trkpt lat="45.5158" lon="8.7692567"><ele>139.0</ele><time>2026-03-22T14:49:58.205Z</time></trkpt><trkpt lat="45.5159267" lon="8.76924"><ele>139.0</ele><time>2026-03-22T14:49:59.205Z</time></trkpt><trkpt lat="45.5160567" lon="8.7692083"><ele>139.0</ele><time>2026-03-22T14:50:00.205Z</time></trkpt><trkpt lat="45.5161933" lon="8.76917"><ele>139.0</ele><time>2026-03-22T14:50:01.205Z</time></trkpt><trkpt lat="45.5163083" lon="8.769135"><ele>138.66666666666669</ele><time>2026-03-22T14:50:02.205Z</time></trkpt><trkpt lat="45.5164083" lon="8.76911"><ele>138.33333333333334</ele><time>2026-03-22T14:50:03.205Z</time></trkpt><trkpt lat="45.5164917" lon="8.7690883"><ele>138.0</ele><time>2026-03-22T14:50:04.205Z</time></trkpt><trkpt lat="45.5165617" lon="8.76905"><ele>137.66666666666666</ele><time>2026-03-22T14:50:05.205Z</time></trkpt><trkpt lat="45.5166333" lon="8.7689883"><ele>137.33333333333331</ele><time>2026-03-22T14:50:06.205Z</time></trkpt><trkpt lat="45.5167033" lon="8.7689083"><ele>137.0</ele><time>2026-03-22T14:50:07.205Z</time></trkpt><trkpt lat="45.516775" lon="8.7688133"><ele>137.0</ele><time>2026-03-22T14:50:08.205Z</time></trkpt><trkpt lat="45.5168483" lon="8.7686817"><ele>137.0</ele><time>2026-03-22T14:50:09.205Z</time></trkpt><trkpt lat="45.5169267" lon="8.7685333"><ele>137.0</ele><time>2026-03-22T14:50:10.205Z</time></trkpt><trkpt lat="45.5170017" lon="8.7684017"><ele>137.0</ele><time>2026-03-22T14:50:11.205Z</time></trkpt><trkpt lat="45.5170717" lon="8.7682667"><ele>137.4</ele><time>2026-03-22T14:50:12.205Z</time></trkpt><trkpt lat="45.5171333" lon="8.768145"><ele>137.79999999999998</ele><time>2026-03-22T14:50:13.205Z</time></trkpt><trkpt lat="45.5171967" lon="8.76804"><ele>138.2</ele><time>2026-03-22T14:50:14.205Z</time></trkpt><trkpt lat="45.51725" lon="8.7679583"><ele>138.6</ele><time>2026-03-22T14:50:15.205Z</time></trkpt><trkpt lat="45.517365" lon="8.7679267"><ele>139.0</ele><time>2026-03-22T14:50:17.205Z</time></trkpt><trkpt lat="45.51747" lon="8.7679783"><ele>139.0</ele><time>2026-03-22T14:50:18.205Z</time></trkpt><trkpt lat="45.51758" lon="8.7680433"><ele>139.0</ele><time>2026-03-22T14:50:19.205Z</time></trkpt><trkpt lat="45.5177033" lon="8.768095"><ele>139.0</ele><time>2026-03-22T14:50:20.205Z</time></trkpt><trkpt lat="45.5178283" lon="8.7681333"><ele>139.0</ele><time>2026-03-22T14:50:21.205Z</time></trkpt><trkpt lat="45.5179483" lon="8.7681767"><ele>139.0</ele><time>2026-03-22T14:50:22.205Z</time></trkpt><trkpt lat="45.51806" lon="8.7682317"><ele>139.0</ele><time>2026-03-22T14:50:23.205Z</time></trkpt><trkpt lat="45.5181683" lon="8.76831"><ele>139.0</ele><time>2026-03-22T14:50:24.205Z</time></trkpt><trkpt lat="45.5182683" lon="8.7684033"><ele>139.0</ele><time>2026-03-22T14:50:25.205Z</time></trkpt><trkpt lat="45.51837" lon="8.7684967"><ele>139.0</ele><time>2026-03-22T14:50:26.205Z</time></trkpt><trkpt lat="45.51847" lon="8.76857"><ele>139.0</ele><time>2026-03-22T14:50:27.205Z</time></trkpt><trkpt lat="45.518575" lon="8.7686483"><ele>139.0</ele><time>2026-03-22T14:50:28.205Z</time></trkpt><trkpt lat="45.5186817" lon="8.76869"><ele>139.0</ele><time>2026-03-22T14:50:29.205Z</time></trkpt><trkpt lat="45.5188033" lon="8.7687117"><ele>139.25</ele><time>2026-03-22T14:50:30.205Z</time></trkpt><trkpt lat="45.5189317" lon="8.76872"><ele>139.5</ele><time>2026-03-22T14:50:31.205Z</time></trkpt><trkpt lat="45.519055" lon="8.768735"><ele>139.75</ele><time>2026-03-22T14:50:32.205Z</time></trkpt><trkpt lat="45.5191767" lon="8.7687433"><ele>140.0</ele><time>2026-03-22T14:50:33.205Z</time></trkpt><trkpt lat="45.5192833" lon="8.76873"><ele>140.0</ele><time>2026-03-22T14:50:34.205Z</time></trkpt><trkpt lat="45.5193733" lon="8.7687283"><ele>140.0</ele><time>2026-03-22T14:50:35.205Z</time></trkpt><trkpt lat="45.5194567" lon="8.768725"><ele>140.0</ele><time>2026-03-22T14:50:36.205Z</time></trkpt><trkpt lat="45.519525" lon="8.76872"><ele>140.0</ele><time>2026-03-22T14:50:37.205Z</time></trkpt><trkpt lat="45.51962" lon="8.76873"><ele>145.0</ele><time>2026-03-22T14:50:39.205Z</time></trkpt></trkseg></trk></gpx>